<?xml version="1.0" encoding="UTF-8" standalone="no" ?>
<gpx xmlns="http://www.topografix.com/GPX/1/1" xmlns:xsi="http://www.w3.org/2001/XMLSchema-instance" xsi:schemaLocation="http://www.topografix.com/GPX/1/1 http://www.topografix.com/GPX/1/1/gpx.xsd" version="1.1" creator="VisuGPX - https://www.visugpx.com">
  <metadata>
    <name>trace vtt Castelneau du 30 12 2023</name>
    <desc><![CDATA[trace assez technique]]></desc>
  </metadata>
  <trk>
    <name><![CDATA[trace vtt Castelneau du 30 12 2023]]></name>
    <extensions>
      <line xmlns="http://www.topografix.com/GPX/gpx_style/0/2">
        <color>0000FF</color>
        <width>4</width>
          <extensions>
            <sens>1</sens>
          </extensions>
      </line>
    </extensions>
    <trkseg>
      <trkpt lat="43.43436" lon="3.44066">
        <ele>41.727806</ele>
        <time>2023-12-30T13:00:54.000Z</time>
      </trkpt>
      <trkpt lat="43.43435" lon="3.44063">
        <ele>41.727806</ele>
        <time>2023-12-30T13:00:55.000Z</time>
      </trkpt>
      <trkpt lat="43.43435" lon="3.44061">
        <ele>41.727806</ele>
        <time>2023-12-30T13:00:56.000Z</time>
      </trkpt>
      <trkpt lat="43.43435" lon="3.4406">
        <ele>41.727806</ele>
        <time>2023-12-30T13:00:57.000Z</time>
      </trkpt>
      <trkpt lat="43.43435" lon="3.4406">
        <ele>41.727806</ele>
        <time>2023-12-30T13:00:58.000Z</time>
      </trkpt>
      <trkpt lat="43.43435" lon="3.4406">
        <ele>41.727806</ele>
        <time>2023-12-30T13:00:59.000Z</time>
      </trkpt>
      <trkpt lat="43.43435" lon="3.4406">
        <ele>41.727806</ele>
        <time>2023-12-30T13:01:00.000Z</time>
      </trkpt>
      <trkpt lat="43.43435" lon="3.4406">
        <ele>41.727806</ele>
        <time>2023-12-30T13:01:01.000Z</time>
      </trkpt>
      <trkpt lat="43.43435" lon="3.4406">
        <ele>41.727806</ele>
        <time>2023-12-30T13:01:02.000Z</time>
      </trkpt>
      <trkpt lat="43.43435" lon="3.4406">
        <ele>41.727806</ele>
        <time>2023-12-30T13:01:03.000Z</time>
      </trkpt>
      <trkpt lat="43.43435" lon="3.4406">
        <ele>41.727806</ele>
        <time>2023-12-30T13:01:04.000Z</time>
      </trkpt>
      <trkpt lat="43.43435" lon="3.4406">
        <ele>41.727806</ele>
        <time>2023-12-30T13:01:05.000Z</time>
      </trkpt>
      <trkpt lat="43.43435" lon="3.4406">
        <ele>41.727806</ele>
        <time>2023-12-30T13:01:06.000Z</time>
      </trkpt>
      <trkpt lat="43.43435" lon="3.4406">
        <ele>41.727806</ele>
        <time>2023-12-30T13:01:07.000Z</time>
      </trkpt>
      <trkpt lat="43.43435" lon="3.4406">
        <ele>41.727806</ele>
        <time>2023-12-30T13:01:08.000Z</time>
      </trkpt>
      <trkpt lat="43.43435" lon="3.4406">
        <ele>41.727806</ele>
        <time>2023-12-30T13:01:09.000Z</time>
      </trkpt>
      <trkpt lat="43.43435" lon="3.4406">
        <ele>41.727806</ele>
        <time>2023-12-30T13:01:10.000Z</time>
      </trkpt>
      <trkpt lat="43.43435" lon="3.4406">
        <ele>41.727806</ele>
        <time>2023-12-30T13:01:11.000Z</time>
      </trkpt>
      <trkpt lat="43.43435" lon="3.4406">
        <ele>41.727806</ele>
        <time>2023-12-30T13:01:12.000Z</time>
      </trkpt>
      <trkpt lat="43.43435" lon="3.4406">
        <ele>41.727806</ele>
        <time>2023-12-30T13:01:13.000Z</time>
      </trkpt>
      <trkpt lat="43.43435" lon="3.4406">
        <ele>41.727806</ele>
        <time>2023-12-30T13:01:14.000Z</time>
      </trkpt>
      <trkpt lat="43.43435" lon="3.4406">
        <ele>41.727806</ele>
        <time>2023-12-30T13:01:15.000Z</time>
      </trkpt>
      <trkpt lat="43.43435" lon="3.4406">
        <ele>41.727806</ele>
        <time>2023-12-30T13:01:16.000Z</time>
      </trkpt>
      <trkpt lat="43.43435" lon="3.4406">
        <ele>41.727806</ele>
        <time>2023-12-30T13:01:17.000Z</time>
      </trkpt>
      <trkpt lat="43.43435" lon="3.4406">
        <ele>41.727806</ele>
        <time>2023-12-30T13:01:18.000Z</time>
      </trkpt>
      <trkpt lat="43.43435" lon="3.4406">
        <ele>41.727806</ele>
        <time>2023-12-30T13:01:19.000Z</time>
      </trkpt>
      <trkpt lat="43.43435" lon="3.4406">
        <ele>41.727806</ele>
        <time>2023-12-30T13:01:20.000Z</time>
      </trkpt>
      <trkpt lat="43.43435" lon="3.4406">
        <ele>41.727806</ele>
        <time>2023-12-30T13:01:21.000Z</time>
      </trkpt>
      <trkpt lat="43.43435" lon="3.4406">
        <ele>41.727806</ele>
        <time>2023-12-30T13:01:22.000Z</time>
      </trkpt>
      <trkpt lat="43.43435" lon="3.4406">
        <ele>41.727806</ele>
        <time>2023-12-30T13:01:23.000Z</time>
      </trkpt>
      <trkpt lat="43.43435" lon="3.4406">
        <ele>41.727806</ele>
        <time>2023-12-30T13:01:24.000Z</time>
      </trkpt>
      <trkpt lat="43.43435" lon="3.4406">
        <ele>41.727806</ele>
        <time>2023-12-30T13:01:25.000Z</time>
      </trkpt>
      <trkpt lat="43.43435" lon="3.4406">
        <ele>41.727806</ele>
        <time>2023-12-30T13:01:26.000Z</time>
      </trkpt>
      <trkpt lat="43.43435" lon="3.4406">
        <ele>41.727806</ele>
        <time>2023-12-30T13:01:27.000Z</time>
      </trkpt>
      <trkpt lat="43.43435" lon="3.4406">
        <ele>41.727806</ele>
        <time>2023-12-30T13:01:28.000Z</time>
      </trkpt>
      <trkpt lat="43.43435" lon="3.4406">
        <ele>41.727806</ele>
        <time>2023-12-30T13:01:29.000Z</time>
      </trkpt>
      <trkpt lat="43.43435" lon="3.4406">
        <ele>41.727806</ele>
        <time>2023-12-30T13:01:30.000Z</time>
      </trkpt>
      <trkpt lat="43.43435" lon="3.4406">
        <ele>41.727806</ele>
        <time>2023-12-30T13:01:31.000Z</time>
      </trkpt>
      <trkpt lat="43.43435" lon="3.4406">
        <ele>41.727806</ele>
        <time>2023-12-30T13:01:32.000Z</time>
      </trkpt>
      <trkpt lat="43.43435" lon="3.4406">
        <ele>41.727806</ele>
        <time>2023-12-30T13:01:33.000Z</time>
      </trkpt>
      <trkpt lat="43.43435" lon="3.4406">
        <ele>41.727806</ele>
        <time>2023-12-30T13:01:34.000Z</time>
      </trkpt>
      <trkpt lat="43.43435" lon="3.4406">
        <ele>41.727806</ele>
        <time>2023-12-30T13:01:35.000Z</time>
      </trkpt>
      <trkpt lat="43.43435" lon="3.4406">
        <ele>41.727806</ele>
        <time>2023-12-30T13:01:36.000Z</time>
      </trkpt>
      <trkpt lat="43.43435" lon="3.4406">
        <ele>41.727806</ele>
        <time>2023-12-30T13:01:37.000Z</time>
      </trkpt>
      <trkpt lat="43.43435" lon="3.4406">
        <ele>41.727806</ele>
        <time>2023-12-30T13:01:38.000Z</time>
      </trkpt>
      <trkpt lat="43.43435" lon="3.4406">
        <ele>41.727806</ele>
        <time>2023-12-30T13:01:39.000Z</time>
      </trkpt>
      <trkpt lat="43.43435" lon="3.4406">
        <ele>41.727806</ele>
        <time>2023-12-30T13:01:40.000Z</time>
      </trkpt>
      <trkpt lat="43.43435" lon="3.4406">
        <ele>41.727806</ele>
        <time>2023-12-30T13:01:41.000Z</time>
      </trkpt>
      <trkpt lat="43.43435" lon="3.4406">
        <ele>41.727806</ele>
        <time>2023-12-30T13:01:42.000Z</time>
      </trkpt>
      <trkpt lat="43.43435" lon="3.4406">
        <ele>41.727806</ele>
        <time>2023-12-30T13:01:43.000Z</time>
      </trkpt>
      <trkpt lat="43.43435" lon="3.4406">
        <ele>41.727806</ele>
        <time>2023-12-30T13:01:44.000Z</time>
      </trkpt>
      <trkpt lat="43.43435" lon="3.4406">
        <ele>41.727806</ele>
        <time>2023-12-30T13:01:45.000Z</time>
      </trkpt>
      <trkpt lat="43.43435" lon="3.4406">
        <ele>41.727806</ele>
        <time>2023-12-30T13:01:46.000Z</time>
      </trkpt>
      <trkpt lat="43.43435" lon="3.4406">
        <ele>41.727806</ele>
        <time>2023-12-30T13:01:47.000Z</time>
      </trkpt>
      <trkpt lat="43.43435" lon="3.4406">
        <ele>41.727806</ele>
        <time>2023-12-30T13:01:48.000Z</time>
      </trkpt>
      <trkpt lat="43.43435" lon="3.4406">
        <ele>41.727806</ele>
        <time>2023-12-30T13:01:49.000Z</time>
      </trkpt>
      <trkpt lat="43.43435" lon="3.4406">
        <ele>41.727806</ele>
        <time>2023-12-30T13:01:50.000Z</time>
      </trkpt>
      <trkpt lat="43.43435" lon="3.4406">
        <ele>41.727806</ele>
        <time>2023-12-30T13:01:51.000Z</time>
      </trkpt>
      <trkpt lat="43.43435" lon="3.4406">
        <ele>41.727806</ele>
        <time>2023-12-30T13:01:52.000Z</time>
      </trkpt>
      <trkpt lat="43.43435" lon="3.4406">
        <ele>41.727806</ele>
        <time>2023-12-30T13:01:53.000Z</time>
      </trkpt>
      <trkpt lat="43.43435" lon="3.4406">
        <ele>41.727806</ele>
        <time>2023-12-30T13:01:54.000Z</time>
      </trkpt>
      <trkpt lat="43.43435" lon="3.4406">
        <ele>41.727806</ele>
        <time>2023-12-30T13:01:55.000Z</time>
      </trkpt>
      <trkpt lat="43.43435" lon="3.4406">
        <ele>41.727806</ele>
        <time>2023-12-30T13:01:56.000Z</time>
      </trkpt>
      <trkpt lat="43.43435" lon="3.4406">
        <ele>41.727806</ele>
        <time>2023-12-30T13:01:57.000Z</time>
      </trkpt>
      <trkpt lat="43.43435" lon="3.4406">
        <ele>41.727806</ele>
        <time>2023-12-30T13:01:58.000Z</time>
      </trkpt>
      <trkpt lat="43.43435" lon="3.4406">
        <ele>41.727806</ele>
        <time>2023-12-30T13:01:59.000Z</time>
      </trkpt>
      <trkpt lat="43.43435" lon="3.4406">
        <ele>41.727806</ele>
        <time>2023-12-30T13:02:00.000Z</time>
      </trkpt>
      <trkpt lat="43.43435" lon="3.4406">
        <ele>41.727806</ele>
        <time>2023-12-30T13:02:01.000Z</time>
      </trkpt>
      <trkpt lat="43.43435" lon="3.4406">
        <ele>41.727806</ele>
        <time>2023-12-30T13:02:02.000Z</time>
      </trkpt>
      <trkpt lat="43.43435" lon="3.4406">
        <ele>41.727806</ele>
        <time>2023-12-30T13:02:03.000Z</time>
      </trkpt>
      <trkpt lat="43.43435" lon="3.4406">
        <ele>41.727806</ele>
        <time>2023-12-30T13:02:04.000Z</time>
      </trkpt>
      <trkpt lat="43.43435" lon="3.4406">
        <ele>41.727806</ele>
        <time>2023-12-30T13:02:05.000Z</time>
      </trkpt>
      <trkpt lat="43.43435" lon="3.4406">
        <ele>41.727806</ele>
        <time>2023-12-30T13:02:06.000Z</time>
      </trkpt>
      <trkpt lat="43.43435" lon="3.4406">
        <ele>41.727806</ele>
        <time>2023-12-30T13:02:07.000Z</time>
      </trkpt>
      <trkpt lat="43.43435" lon="3.4406">
        <ele>41.727806</ele>
        <time>2023-12-30T13:02:08.000Z</time>
      </trkpt>
      <trkpt lat="43.43435" lon="3.4406">
        <ele>41.727806</ele>
        <time>2023-12-30T13:02:09.000Z</time>
      </trkpt>
      <trkpt lat="43.43435" lon="3.4406">
        <ele>41.727806</ele>
        <time>2023-12-30T13:02:10.000Z</time>
      </trkpt>
      <trkpt lat="43.43435" lon="3.4406">
        <ele>41.727806</ele>
        <time>2023-12-30T13:02:11.000Z</time>
      </trkpt>
      <trkpt lat="43.43435" lon="3.4406">
        <ele>41.727806</ele>
        <time>2023-12-30T13:02:12.000Z</time>
      </trkpt>
      <trkpt lat="43.43435" lon="3.4406">
        <ele>41.727806</ele>
        <time>2023-12-30T13:02:13.000Z</time>
      </trkpt>
      <trkpt lat="43.43435" lon="3.4406">
        <ele>41.727806</ele>
        <time>2023-12-30T13:02:14.000Z</time>
      </trkpt>
      <trkpt lat="43.43435" lon="3.4406">
        <ele>41.727806</ele>
        <time>2023-12-30T13:02:15.000Z</time>
      </trkpt>
      <trkpt lat="43.43435" lon="3.4406">
        <ele>41.727806</ele>
        <time>2023-12-30T13:02:16.000Z</time>
      </trkpt>
      <trkpt lat="43.43435" lon="3.4406">
        <ele>41.727806</ele>
        <time>2023-12-30T13:02:17.000Z</time>
      </trkpt>
      <trkpt lat="43.43435" lon="3.4406">
        <ele>41.727806</ele>
        <time>2023-12-30T13:02:18.000Z</time>
      </trkpt>
      <trkpt lat="43.43435" lon="3.4406">
        <ele>41.727806</ele>
        <time>2023-12-30T13:02:19.000Z</time>
      </trkpt>
      <trkpt lat="43.43435" lon="3.4406">
        <ele>41.727806</ele>
        <time>2023-12-30T13:02:20.000Z</time>
      </trkpt>
      <trkpt lat="43.43435" lon="3.4406">
        <ele>41.727806</ele>
        <time>2023-12-30T13:02:21.000Z</time>
      </trkpt>
      <trkpt lat="43.43435" lon="3.4406">
        <ele>41.727806</ele>
        <time>2023-12-30T13:02:22.000Z</time>
      </trkpt>
      <trkpt lat="43.43435" lon="3.4406">
        <ele>41.727806</ele>
        <time>2023-12-30T13:02:23.000Z</time>
      </trkpt>
      <trkpt lat="43.43435" lon="3.4406">
        <ele>41.727806</ele>
        <time>2023-12-30T13:02:24.000Z</time>
      </trkpt>
      <trkpt lat="43.43435" lon="3.4406">
        <ele>41.727806</ele>
        <time>2023-12-30T13:02:25.000Z</time>
      </trkpt>
      <trkpt lat="43.43435" lon="3.4406">
        <ele>41.727806</ele>
        <time>2023-12-30T13:02:26.000Z</time>
      </trkpt>
      <trkpt lat="43.43435" lon="3.4406">
        <ele>41.727806</ele>
        <time>2023-12-30T13:02:27.000Z</time>
      </trkpt>
      <trkpt lat="43.43435" lon="3.4406">
        <ele>41.727806</ele>
        <time>2023-12-30T13:02:28.000Z</time>
      </trkpt>
      <trkpt lat="43.43435" lon="3.4406">
        <ele>41.727806</ele>
        <time>2023-12-30T13:02:29.000Z</time>
      </trkpt>
      <trkpt lat="43.43435" lon="3.4406">
        <ele>41.727806</ele>
        <time>2023-12-30T13:02:30.000Z</time>
      </trkpt>
      <trkpt lat="43.43435" lon="3.4406">
        <ele>41.727806</ele>
        <time>2023-12-30T13:02:31.000Z</time>
      </trkpt>
      <trkpt lat="43.43435" lon="3.4406">
        <ele>41.727806</ele>
        <time>2023-12-30T13:02:32.000Z</time>
      </trkpt>
      <trkpt lat="43.43435" lon="3.4406">
        <ele>41.727806</ele>
        <time>2023-12-30T13:02:33.000Z</time>
      </trkpt>
      <trkpt lat="43.43435" lon="3.4406">
        <ele>41.727806</ele>
        <time>2023-12-30T13:02:34.000Z</time>
      </trkpt>
      <trkpt lat="43.43435" lon="3.4406">
        <ele>41.727806</ele>
        <time>2023-12-30T13:02:35.000Z</time>
      </trkpt>
      <trkpt lat="43.43435" lon="3.4406">
        <ele>41.727806</ele>
        <time>2023-12-30T13:02:36.000Z</time>
      </trkpt>
      <trkpt lat="43.43435" lon="3.4406">
        <ele>41.727806</ele>
        <time>2023-12-30T13:02:37.000Z</time>
      </trkpt>
      <trkpt lat="43.43435" lon="3.4406">
        <ele>41.727806</ele>
        <time>2023-12-30T13:02:38.000Z</time>
      </trkpt>
      <trkpt lat="43.43435" lon="3.4406">
        <ele>41.727806</ele>
        <time>2023-12-30T13:02:39.000Z</time>
      </trkpt>
      <trkpt lat="43.43435" lon="3.4406">
        <ele>41.727806</ele>
        <time>2023-12-30T13:02:40.000Z</time>
      </trkpt>
      <trkpt lat="43.43435" lon="3.4406">
        <ele>41.727806</ele>
        <time>2023-12-30T13:02:41.000Z</time>
      </trkpt>
      <trkpt lat="43.43435" lon="3.4406">
        <ele>41.727806</ele>
        <time>2023-12-30T13:02:42.000Z</time>
      </trkpt>
      <trkpt lat="43.43435" lon="3.4406">
        <ele>41.727806</ele>
        <time>2023-12-30T13:02:43.000Z</time>
      </trkpt>
      <trkpt lat="43.43435" lon="3.4406">
        <ele>41.727806</ele>
        <time>2023-12-30T13:02:44.000Z</time>
      </trkpt>
      <trkpt lat="43.43435" lon="3.4406">
        <ele>41.727806</ele>
        <time>2023-12-30T13:02:45.000Z</time>
      </trkpt>
      <trkpt lat="43.43435" lon="3.4406">
        <ele>41.727806</ele>
        <time>2023-12-30T13:02:46.000Z</time>
      </trkpt>
      <trkpt lat="43.43435" lon="3.4406">
        <ele>41.727806</ele>
        <time>2023-12-30T13:02:47.000Z</time>
      </trkpt>
      <trkpt lat="43.43435" lon="3.4406">
        <ele>41.727806</ele>
        <time>2023-12-30T13:02:48.000Z</time>
      </trkpt>
      <trkpt lat="43.43435" lon="3.4406">
        <ele>41.727806</ele>
        <time>2023-12-30T13:02:49.000Z</time>
      </trkpt>
      <trkpt lat="43.43435" lon="3.4406">
        <ele>41.727806</ele>
        <time>2023-12-30T13:02:50.000Z</time>
      </trkpt>
      <trkpt lat="43.43435" lon="3.4406">
        <ele>41.727806</ele>
        <time>2023-12-30T13:02:51.000Z</time>
      </trkpt>
      <trkpt lat="43.43434" lon="3.4406">
        <ele>41.727806</ele>
        <time>2023-12-30T13:02:52.000Z</time>
      </trkpt>
      <trkpt lat="43.43434" lon="3.4406">
        <ele>41.727806</ele>
        <time>2023-12-30T13:02:53.000Z</time>
      </trkpt>
      <trkpt lat="43.43434" lon="3.4406">
        <ele>41.727806</ele>
        <time>2023-12-30T13:02:54.000Z</time>
      </trkpt>
      <trkpt lat="43.43433" lon="3.44058">
        <ele>41.727806</ele>
        <time>2023-12-30T13:02:55.000Z</time>
      </trkpt>
      <trkpt lat="43.43434" lon="3.44054">
        <ele>41.727806</ele>
        <time>2023-12-30T13:02:56.000Z</time>
      </trkpt>
      <trkpt lat="43.43435" lon="3.44051">
        <ele>41.727806</ele>
        <time>2023-12-30T13:02:57.000Z</time>
      </trkpt>
      <trkpt lat="43.43437" lon="3.44047">
        <ele>41.727806</ele>
        <time>2023-12-30T13:02:58.000Z</time>
      </trkpt>
      <trkpt lat="43.43439" lon="3.44044">
        <ele>41.727806</ele>
        <time>2023-12-30T13:02:59.000Z</time>
      </trkpt>
      <trkpt lat="43.43441" lon="3.4404">
        <ele>41.727806</ele>
        <time>2023-12-30T13:03:00.000Z</time>
      </trkpt>
      <trkpt lat="43.43442" lon="3.44037">
        <ele>41.727806</ele>
        <time>2023-12-30T13:03:01.000Z</time>
      </trkpt>
      <trkpt lat="43.43443" lon="3.44033">
        <ele>41.727806</ele>
        <time>2023-12-30T13:03:02.000Z</time>
      </trkpt>
      <trkpt lat="43.43443" lon="3.4403">
        <ele>41.727806</ele>
        <time>2023-12-30T13:03:03.000Z</time>
      </trkpt>
      <trkpt lat="43.43441" lon="3.44026">
        <ele>41.727806</ele>
        <time>2023-12-30T13:03:04.000Z</time>
      </trkpt>
      <trkpt lat="43.43438" lon="3.44022">
        <ele>41.727806</ele>
        <time>2023-12-30T13:03:05.000Z</time>
      </trkpt>
      <trkpt lat="43.43434" lon="3.44018">
        <ele>41.727806</ele>
        <time>2023-12-30T13:03:06.000Z</time>
      </trkpt>
      <trkpt lat="43.4343" lon="3.44013">
        <ele>41.727806</ele>
        <time>2023-12-30T13:03:07.000Z</time>
      </trkpt>
      <trkpt lat="43.43425" lon="3.44011">
        <ele>41.727806</ele>
        <time>2023-12-30T13:03:08.000Z</time>
      </trkpt>
      <trkpt lat="43.43419" lon="3.44008">
        <ele>41.727806</ele>
        <time>2023-12-30T13:03:09.000Z</time>
      </trkpt>
      <trkpt lat="43.43413" lon="3.44007">
        <ele>41.727806</ele>
        <time>2023-12-30T13:03:10.000Z</time>
      </trkpt>
      <trkpt lat="43.43407" lon="3.44006">
        <ele>41.727221</ele>
        <time>2023-12-30T13:03:11.000Z</time>
      </trkpt>
      <trkpt lat="43.434" lon="3.44005">
        <ele>41.482248</ele>
        <time>2023-12-30T13:03:12.000Z</time>
      </trkpt>
      <trkpt lat="43.43393" lon="3.44003">
        <ele>41.206065</ele>
        <time>2023-12-30T13:03:13.000Z</time>
      </trkpt>
      <trkpt lat="43.43386" lon="3.44001">
        <ele>40.924443</ele>
        <time>2023-12-30T13:03:14.000Z</time>
      </trkpt>
      <trkpt lat="43.43379" lon="3.43998">
        <ele>40.648736</ele>
        <time>2023-12-30T13:03:15.000Z</time>
      </trkpt>
      <trkpt lat="43.43372" lon="3.43996">
        <ele>40.397873</ele>
        <time>2023-12-30T13:03:16.000Z</time>
      </trkpt>
      <trkpt lat="43.43366" lon="3.43995">
        <ele>40.149493</ele>
        <time>2023-12-30T13:03:17.000Z</time>
      </trkpt>
      <trkpt lat="43.4336" lon="3.43994">
        <ele>39.921514</ele>
        <time>2023-12-30T13:03:18.000Z</time>
      </trkpt>
      <trkpt lat="43.43354" lon="3.43993">
        <ele>39.707344</ele>
        <time>2023-12-30T13:03:19.000Z</time>
      </trkpt>
      <trkpt lat="43.43349" lon="3.43992">
        <ele>39.51485</ele>
        <time>2023-12-30T13:03:20.000Z</time>
      </trkpt>
      <trkpt lat="43.43345" lon="3.4399">
        <ele>39.327542</ele>
        <time>2023-12-30T13:03:21.000Z</time>
      </trkpt>
      <trkpt lat="43.4334" lon="3.43988">
        <ele>39.140968</ele>
        <time>2023-12-30T13:03:22.000Z</time>
      </trkpt>
      <trkpt lat="43.43335" lon="3.43986">
        <ele>38.928489</ele>
        <time>2023-12-30T13:03:23.000Z</time>
      </trkpt>
      <trkpt lat="43.4333" lon="3.43983">
        <ele>38.72052</ele>
        <time>2023-12-30T13:03:24.000Z</time>
      </trkpt>
      <trkpt lat="43.43325" lon="3.43979">
        <ele>38.49981</ele>
        <time>2023-12-30T13:03:25.000Z</time>
      </trkpt>
      <trkpt lat="43.4332" lon="3.43973">
        <ele>38.272333</ele>
        <time>2023-12-30T13:03:26.000Z</time>
      </trkpt>
      <trkpt lat="43.43315" lon="3.43968">
        <ele>38.048352</ele>
        <time>2023-12-30T13:03:27.000Z</time>
      </trkpt>
      <trkpt lat="43.43311" lon="3.43964">
        <ele>37.835796</ele>
        <time>2023-12-30T13:03:28.000Z</time>
      </trkpt>
      <trkpt lat="43.43307" lon="3.43959">
        <ele>37.650993</ele>
        <time>2023-12-30T13:03:29.000Z</time>
      </trkpt>
      <trkpt lat="43.43303" lon="3.43955">
        <ele>37.459101</ele>
        <time>2023-12-30T13:03:30.000Z</time>
      </trkpt>
      <trkpt lat="43.433" lon="3.4395">
        <ele>37.261228</ele>
        <time>2023-12-30T13:03:31.000Z</time>
      </trkpt>
      <trkpt lat="43.43296" lon="3.43945">
        <ele>37.05634</ele>
        <time>2023-12-30T13:03:32.000Z</time>
      </trkpt>
      <trkpt lat="43.43291" lon="3.43939">
        <ele>36.819539</ele>
        <time>2023-12-30T13:03:33.000Z</time>
      </trkpt>
      <trkpt lat="43.43286" lon="3.43932">
        <ele>36.551325</ele>
        <time>2023-12-30T13:03:34.000Z</time>
      </trkpt>
      <trkpt lat="43.4328" lon="3.43925">
        <ele>36.254215</ele>
        <time>2023-12-30T13:03:35.000Z</time>
      </trkpt>
      <trkpt lat="43.43275" lon="3.43918">
        <ele>35.971043</ele>
        <time>2023-12-30T13:03:36.000Z</time>
      </trkpt>
      <trkpt lat="43.4327" lon="3.43912">
        <ele>35.737116</ele>
        <time>2023-12-30T13:03:37.000Z</time>
      </trkpt>
      <trkpt lat="43.43266" lon="3.43908">
        <ele>35.551702</ele>
        <time>2023-12-30T13:03:38.000Z</time>
      </trkpt>
      <trkpt lat="43.43264" lon="3.43905">
        <ele>35.43542</ele>
        <time>2023-12-30T13:03:39.000Z</time>
      </trkpt>
      <trkpt lat="43.43263" lon="3.43903">
        <ele>35.366417</ele>
        <time>2023-12-30T13:03:40.000Z</time>
      </trkpt>
      <trkpt lat="43.43262" lon="3.43902">
        <ele>35.306767</ele>
        <time>2023-12-30T13:03:41.000Z</time>
      </trkpt>
      <trkpt lat="43.4326" lon="3.43899">
        <ele>35.217035</ele>
        <time>2023-12-30T13:03:42.000Z</time>
      </trkpt>
      <trkpt lat="43.43258" lon="3.43896">
        <ele>35.102271</ele>
        <time>2023-12-30T13:03:43.000Z</time>
      </trkpt>
      <trkpt lat="43.43255" lon="3.43893">
        <ele>34.964705</ele>
        <time>2023-12-30T13:03:44.000Z</time>
      </trkpt>
      <trkpt lat="43.43252" lon="3.43891">
        <ele>34.768398</ele>
        <time>2023-12-30T13:03:45.000Z</time>
      </trkpt>
      <trkpt lat="43.43249" lon="3.43888">
        <ele>34.472927</ele>
        <time>2023-12-30T13:03:46.000Z</time>
      </trkpt>
      <trkpt lat="43.43244" lon="3.43884">
        <ele>34.131485</ele>
        <time>2023-12-30T13:03:47.000Z</time>
      </trkpt>
      <trkpt lat="43.43241" lon="3.43881">
        <ele>33.807366</ele>
        <time>2023-12-30T13:03:48.000Z</time>
      </trkpt>
      <trkpt lat="43.43237" lon="3.43877">
        <ele>33.494956</ele>
        <time>2023-12-30T13:03:49.000Z</time>
      </trkpt>
      <trkpt lat="43.43233" lon="3.43873">
        <ele>33.142128</ele>
        <time>2023-12-30T13:03:50.000Z</time>
      </trkpt>
      <trkpt lat="43.43229" lon="3.43869">
        <ele>32.788918</ele>
        <time>2023-12-30T13:03:51.000Z</time>
      </trkpt>
      <trkpt lat="43.43225" lon="3.43865">
        <ele>32.43609</ele>
        <time>2023-12-30T13:03:52.000Z</time>
      </trkpt>
      <trkpt lat="43.4322" lon="3.43861">
        <ele>32.059421</ele>
        <time>2023-12-30T13:03:53.000Z</time>
      </trkpt>
      <trkpt lat="43.43215" lon="3.43858">
        <ele>31.682874</ele>
        <time>2023-12-30T13:03:54.000Z</time>
      </trkpt>
      <trkpt lat="43.4321" lon="3.43855">
        <ele>31.282935</ele>
        <time>2023-12-30T13:03:55.000Z</time>
      </trkpt>
      <trkpt lat="43.43205" lon="3.43851">
        <ele>30.889083</ele>
        <time>2023-12-30T13:03:56.000Z</time>
      </trkpt>
      <trkpt lat="43.432" lon="3.43847">
        <ele>30.470839</ele>
        <time>2023-12-30T13:03:57.000Z</time>
      </trkpt>
      <trkpt lat="43.43194" lon="3.43843">
        <ele>30.034082</ele>
        <time>2023-12-30T13:03:58.000Z</time>
      </trkpt>
      <trkpt lat="43.43189" lon="3.43839">
        <ele>29.580138</ele>
        <time>2023-12-30T13:03:59.000Z</time>
      </trkpt>
      <trkpt lat="43.43184" lon="3.43835">
        <ele>29.183512</ele>
        <time>2023-12-30T13:04:00.000Z</time>
      </trkpt>
      <trkpt lat="43.43179" lon="3.43831">
        <ele>28.783526</ele>
        <time>2023-12-30T13:04:01.000Z</time>
      </trkpt>
      <trkpt lat="43.43174" lon="3.43827">
        <ele>28.384188</ele>
        <time>2023-12-30T13:04:02.000Z</time>
      </trkpt>
      <trkpt lat="43.43169" lon="3.43822">
        <ele>27.93287</ele>
        <time>2023-12-30T13:04:03.000Z</time>
      </trkpt>
      <trkpt lat="43.43164" lon="3.43817">
        <ele>27.492897</ele>
        <time>2023-12-30T13:04:04.000Z</time>
      </trkpt>
      <trkpt lat="43.43159" lon="3.43811">
        <ele>27.008384</ele>
        <time>2023-12-30T13:04:05.000Z</time>
      </trkpt>
      <trkpt lat="43.43154" lon="3.43804">
        <ele>26.530681</ele>
        <time>2023-12-30T13:04:06.000Z</time>
      </trkpt>
      <trkpt lat="43.43147" lon="3.43799">
        <ele>26.005368</ele>
        <time>2023-12-30T13:04:07.000Z</time>
      </trkpt>
      <trkpt lat="43.43139" lon="3.43795">
        <ele>25.420915</ele>
        <time>2023-12-30T13:04:08.000Z</time>
      </trkpt>
      <trkpt lat="43.43131" lon="3.43793">
        <ele>24.836895</ele>
        <time>2023-12-30T13:04:09.000Z</time>
      </trkpt>
      <trkpt lat="43.43123" lon="3.4379">
        <ele>24.283637</ele>
        <time>2023-12-30T13:04:10.000Z</time>
      </trkpt>
      <trkpt lat="43.43116" lon="3.43788">
        <ele>23.742963</ele>
        <time>2023-12-30T13:04:11.000Z</time>
      </trkpt>
      <trkpt lat="43.43109" lon="3.43786">
        <ele>23.223914</ele>
        <time>2023-12-30T13:04:12.000Z</time>
      </trkpt>
      <trkpt lat="43.43102" lon="3.43785">
        <ele>22.747271</ele>
        <time>2023-12-30T13:04:13.000Z</time>
      </trkpt>
      <trkpt lat="43.43096" lon="3.43784">
        <ele>22.342373</ele>
        <time>2023-12-30T13:04:14.000Z</time>
      </trkpt>
      <trkpt lat="43.43092" lon="3.43783">
        <ele>22.160881</ele>
        <time>2023-12-30T13:04:15.000Z</time>
      </trkpt>
      <trkpt lat="43.43088" lon="3.43783">
        <ele>22.015062</ele>
        <time>2023-12-30T13:04:16.000Z</time>
      </trkpt>
      <trkpt lat="43.43084" lon="3.43782">
        <ele>21.858729</ele>
        <time>2023-12-30T13:04:17.000Z</time>
      </trkpt>
      <trkpt lat="43.43079" lon="3.43782">
        <ele>21.689233</ele>
        <time>2023-12-30T13:04:18.000Z</time>
      </trkpt>
      <trkpt lat="43.43073" lon="3.43782">
        <ele>21.501886</ele>
        <time>2023-12-30T13:04:19.000Z</time>
      </trkpt>
      <trkpt lat="43.43067" lon="3.43782">
        <ele>21.289865</ele>
        <time>2023-12-30T13:04:20.000Z</time>
      </trkpt>
      <trkpt lat="43.43061" lon="3.43783">
        <ele>21.053164</ele>
        <time>2023-12-30T13:04:21.000Z</time>
      </trkpt>
      <trkpt lat="43.43054" lon="3.43783">
        <ele>20.805883</ele>
        <time>2023-12-30T13:04:22.000Z</time>
      </trkpt>
      <trkpt lat="43.43047" lon="3.43784">
        <ele>20.572426</ele>
        <time>2023-12-30T13:04:23.000Z</time>
      </trkpt>
      <trkpt lat="43.43041" lon="3.43785">
        <ele>20.345606</ele>
        <time>2023-12-30T13:04:24.000Z</time>
      </trkpt>
      <trkpt lat="43.43035" lon="3.43786">
        <ele>20.124965</ele>
        <time>2023-12-30T13:04:25.000Z</time>
      </trkpt>
      <trkpt lat="43.43029" lon="3.43787">
        <ele>19.932978</ele>
        <time>2023-12-30T13:04:26.000Z</time>
      </trkpt>
      <trkpt lat="43.43025" lon="3.43787">
        <ele>19.783942</ele>
        <time>2023-12-30T13:04:27.000Z</time>
      </trkpt>
      <trkpt lat="43.43022" lon="3.43788">
        <ele>19.6635</ele>
        <time>2023-12-30T13:04:28.000Z</time>
      </trkpt>
      <trkpt lat="43.43019" lon="3.43788">
        <ele>19.571161</ele>
        <time>2023-12-30T13:04:29.000Z</time>
      </trkpt>
      <trkpt lat="43.43017" lon="3.43789">
        <ele>19.506877</ele>
        <time>2023-12-30T13:04:30.000Z</time>
      </trkpt>
      <trkpt lat="43.43016" lon="3.43789">
        <ele>19.459861</ele>
        <time>2023-12-30T13:04:31.000Z</time>
      </trkpt>
      <trkpt lat="43.43015" lon="3.4379">
        <ele>19.409603</ele>
        <time>2023-12-30T13:04:32.000Z</time>
      </trkpt>
      <trkpt lat="43.43014" lon="3.43791">
        <ele>19.364442</ele>
        <time>2023-12-30T13:04:33.000Z</time>
      </trkpt>
      <trkpt lat="43.43013" lon="3.43792">
        <ele>19.327959</ele>
        <time>2023-12-30T13:04:34.000Z</time>
      </trkpt>
      <trkpt lat="43.43012" lon="3.43792">
        <ele>19.290171</ele>
        <time>2023-12-30T13:04:39.000Z</time>
      </trkpt>
      <trkpt lat="43.4301" lon="3.43794">
        <ele>19.208576</ele>
        <time>2023-12-30T13:04:41.000Z</time>
      </trkpt>
      <trkpt lat="43.43009" lon="3.43795">
        <ele>19.1649</ele>
        <time>2023-12-30T13:04:42.000Z</time>
      </trkpt>
      <trkpt lat="43.43008" lon="3.43796">
        <ele>19.11233</ele>
        <time>2023-12-30T13:04:43.000Z</time>
      </trkpt>
      <trkpt lat="43.43006" lon="3.43796">
        <ele>19.053075</ele>
        <time>2023-12-30T13:04:44.000Z</time>
      </trkpt>
      <trkpt lat="43.43005" lon="3.43797">
        <ele>18.995679</ele>
        <time>2023-12-30T13:04:45.000Z</time>
      </trkpt>
      <trkpt lat="43.43004" lon="3.43798">
        <ele>18.955776</ele>
        <time>2023-12-30T13:04:46.000Z</time>
      </trkpt>
      <trkpt lat="43.43003" lon="3.43799">
        <ele>18.904895</ele>
        <time>2023-12-30T13:04:47.000Z</time>
      </trkpt>
      <trkpt lat="43.43001" lon="3.438">
        <ele>18.840611</ele>
        <time>2023-12-30T13:04:48.000Z</time>
      </trkpt>
      <trkpt lat="43.42999" lon="3.43801">
        <ele>18.762983</ele>
        <time>2023-12-30T13:04:49.000Z</time>
      </trkpt>
      <trkpt lat="43.42996" lon="3.43802">
        <ele>18.655984</ele>
        <time>2023-12-30T13:04:50.000Z</time>
      </trkpt>
      <trkpt lat="43.42993" lon="3.43804">
        <ele>18.526474</ele>
        <time>2023-12-30T13:04:51.000Z</time>
      </trkpt>
      <trkpt lat="43.42989" lon="3.43807">
        <ele>18.385302</ele>
        <time>2023-12-30T13:04:52.000Z</time>
      </trkpt>
      <trkpt lat="43.42985" lon="3.43809">
        <ele>18.233184</ele>
        <time>2023-12-30T13:04:53.000Z</time>
      </trkpt>
      <trkpt lat="43.42982" lon="3.43812">
        <ele>18.088496</ele>
        <time>2023-12-30T13:04:54.000Z</time>
      </trkpt>
      <trkpt lat="43.42978" lon="3.43814">
        <ele>17.946659</ele>
        <time>2023-12-30T13:04:55.000Z</time>
      </trkpt>
      <trkpt lat="43.42974" lon="3.43815">
        <ele>17.807134</ele>
        <time>2023-12-30T13:04:56.000Z</time>
      </trkpt>
      <trkpt lat="43.42971" lon="3.43818">
        <ele>17.671092</ele>
        <time>2023-12-30T13:04:57.000Z</time>
      </trkpt>
      <trkpt lat="43.42966" lon="3.4382">
        <ele>17.50856</ele>
        <time>2023-12-30T13:04:58.000Z</time>
      </trkpt>
      <trkpt lat="43.42961" lon="3.43823">
        <ele>17.309055</ele>
        <time>2023-12-30T13:04:59.000Z</time>
      </trkpt>
      <trkpt lat="43.42956" lon="3.43826">
        <ele>17.119694</ele>
        <time>2023-12-30T13:05:00.000Z</time>
      </trkpt>
      <trkpt lat="43.42952" lon="3.4383">
        <ele>16.937726</ele>
        <time>2023-12-30T13:05:01.000Z</time>
      </trkpt>
      <trkpt lat="43.42947" lon="3.43833">
        <ele>16.756965</ele>
        <time>2023-12-30T13:05:02.000Z</time>
      </trkpt>
      <trkpt lat="43.42943" lon="3.43836">
        <ele>16.593365</ele>
        <time>2023-12-30T13:05:03.000Z</time>
      </trkpt>
      <trkpt lat="43.42939" lon="3.43838">
        <ele>16.4351</ele>
        <time>2023-12-30T13:05:04.000Z</time>
      </trkpt>
      <trkpt lat="43.42935" lon="3.4384">
        <ele>16.279064</ele>
        <time>2023-12-30T13:05:05.000Z</time>
      </trkpt>
      <trkpt lat="43.42931" lon="3.43843">
        <ele>16.129296</ele>
        <time>2023-12-30T13:05:06.000Z</time>
      </trkpt>
      <trkpt lat="43.42927" lon="3.43846">
        <ele>15.967289</ele>
        <time>2023-12-30T13:05:07.000Z</time>
      </trkpt>
      <trkpt lat="43.42923" lon="3.43849">
        <ele>15.949282</ele>
        <time>2023-12-30T13:05:08.000Z</time>
      </trkpt>
      <trkpt lat="43.42919" lon="3.43851">
        <ele>15.977645</ele>
        <time>2023-12-30T13:05:09.000Z</time>
      </trkpt>
      <trkpt lat="43.42915" lon="3.43854">
        <ele>16.004686</ele>
        <time>2023-12-30T13:05:10.000Z</time>
      </trkpt>
      <trkpt lat="43.42911" lon="3.43857">
        <ele>16.031927</ele>
        <time>2023-12-30T13:05:11.000Z</time>
      </trkpt>
      <trkpt lat="43.42907" lon="3.43859">
        <ele>16.059376</ele>
        <time>2023-12-30T13:05:12.000Z</time>
      </trkpt>
      <trkpt lat="43.42903" lon="3.43862">
        <ele>16.08528</ele>
        <time>2023-12-30T13:05:13.000Z</time>
      </trkpt>
      <trkpt lat="43.429" lon="3.43864">
        <ele>16.109774</ele>
        <time>2023-12-30T13:05:14.000Z</time>
      </trkpt>
      <trkpt lat="43.42896" lon="3.43867">
        <ele>16.136621</ele>
        <time>2023-12-30T13:05:15.000Z</time>
      </trkpt>
      <trkpt lat="43.42892" lon="3.43869">
        <ele>16.165409</ele>
        <time>2023-12-30T13:05:16.000Z</time>
      </trkpt>
      <trkpt lat="43.42887" lon="3.43872">
        <ele>16.194538</ele>
        <time>2023-12-30T13:05:17.000Z</time>
      </trkpt>
      <trkpt lat="43.42883" lon="3.43874">
        <ele>16.222721</ele>
        <time>2023-12-30T13:05:18.000Z</time>
      </trkpt>
      <trkpt lat="43.42879" lon="3.43875">
        <ele>16.250628</ele>
        <time>2023-12-30T13:05:19.000Z</time>
      </trkpt>
      <trkpt lat="43.42874" lon="3.43876">
        <ele>16.279691</ele>
        <time>2023-12-30T13:05:20.000Z</time>
      </trkpt>
      <trkpt lat="43.4287" lon="3.43876">
        <ele>16.30843</ele>
        <time>2023-12-30T13:05:21.000Z</time>
      </trkpt>
      <trkpt lat="43.42864" lon="3.43876">
        <ele>16.343405</ele>
        <time>2023-12-30T13:05:22.000Z</time>
      </trkpt>
      <trkpt lat="43.42858" lon="3.43876">
        <ele>16.380236</ele>
        <time>2023-12-30T13:05:23.000Z</time>
      </trkpt>
      <trkpt lat="43.42852" lon="3.43876">
        <ele>16.418931</ele>
        <time>2023-12-30T13:05:24.000Z</time>
      </trkpt>
      <trkpt lat="43.42846" lon="3.43877">
        <ele>16.45479</ele>
        <time>2023-12-30T13:05:25.000Z</time>
      </trkpt>
      <trkpt lat="43.42841" lon="3.43879">
        <ele>16.48801</ele>
        <time>2023-12-30T13:05:26.000Z</time>
      </trkpt>
      <trkpt lat="43.42837" lon="3.43881">
        <ele>16.513344</ele>
        <time>2023-12-30T13:05:27.000Z</time>
      </trkpt>
      <trkpt lat="43.42835" lon="3.43883">
        <ele>16.531688</ele>
        <time>2023-12-30T13:05:28.000Z</time>
      </trkpt>
      <trkpt lat="43.42832" lon="3.43884">
        <ele>16.548744</ele>
        <time>2023-12-30T13:05:29.000Z</time>
      </trkpt>
      <trkpt lat="43.4283" lon="3.43886">
        <ele>16.564093</ele>
        <time>2023-12-30T13:05:30.000Z</time>
      </trkpt>
      <trkpt lat="43.42827" lon="3.43884">
        <ele>16.584316</ele>
        <time>2023-12-30T13:05:31.000Z</time>
      </trkpt>
      <trkpt lat="43.42824" lon="3.43882">
        <ele>16.605745</ele>
        <time>2023-12-30T13:05:32.000Z</time>
      </trkpt>
      <trkpt lat="43.42813" lon="3.43881">
        <ele>17.062394</ele>
        <time>2023-12-30T13:06:22.000Z</time>
      </trkpt>
      <trkpt lat="43.4281" lon="3.43882">
        <ele>17.064234</ele>
        <time>2023-12-30T13:06:23.000Z</time>
      </trkpt>
      <trkpt lat="43.42807" lon="3.43882">
        <ele>17.0661</ele>
        <time>2023-12-30T13:06:24.000Z</time>
      </trkpt>
      <trkpt lat="43.42804" lon="3.43883">
        <ele>17.068155</ele>
        <time>2023-12-30T13:06:25.000Z</time>
      </trkpt>
      <trkpt lat="43.428" lon="3.43884">
        <ele>17.070475</ele>
        <time>2023-12-30T13:06:26.000Z</time>
      </trkpt>
      <trkpt lat="43.42796" lon="3.43885">
        <ele>17.072815</ele>
        <time>2023-12-30T13:06:27.000Z</time>
      </trkpt>
      <trkpt lat="43.42793" lon="3.43886">
        <ele>17.075015</ele>
        <time>2023-12-30T13:06:28.000Z</time>
      </trkpt>
      <trkpt lat="43.4279" lon="3.43887">
        <ele>17.076827</ele>
        <time>2023-12-30T13:06:29.000Z</time>
      </trkpt>
      <trkpt lat="43.42788" lon="3.43889">
        <ele>17.078702</ele>
        <time>2023-12-30T13:06:30.000Z</time>
      </trkpt>
      <trkpt lat="43.42785" lon="3.43891">
        <ele>17.08058</ele>
        <time>2023-12-30T13:06:31.000Z</time>
      </trkpt>
      <trkpt lat="43.42782" lon="3.43892">
        <ele>17.082629</ele>
        <time>2023-12-30T13:06:32.000Z</time>
      </trkpt>
      <trkpt lat="43.42779" lon="3.43892">
        <ele>17.084047</ele>
        <time>2023-12-30T13:06:33.000Z</time>
      </trkpt>
      <trkpt lat="43.42733" lon="3.43886">
        <ele>14.8</ele>
      </trkpt>
      <trkpt lat="43.42678" lon="3.43865">
        <ele>14.9</ele>
      </trkpt>
      <trkpt lat="43.42647" lon="3.43854">
        <ele>13.8</ele>
      </trkpt>
      <trkpt lat="43.4263" lon="3.43847">
        <ele>13.7</ele>
      </trkpt>
      <trkpt lat="43.426" lon="3.43836">
        <ele>14</ele>
      </trkpt>
      <trkpt lat="43.42579" lon="3.43824">
        <ele>14</ele>
      </trkpt>
      <trkpt lat="43.42563" lon="3.43815">
        <ele>14</ele>
      </trkpt>
      <trkpt lat="43.42522" lon="3.43792">
        <ele>13.6</ele>
      </trkpt>
      <trkpt lat="43.42507" lon="3.43783">
        <ele>13.9</ele>
      </trkpt>
      <trkpt lat="43.42478" lon="3.43767">
        <ele>13.547808</ele>
        <time>2023-12-30T13:09:34.000Z</time>
      </trkpt>
      <trkpt lat="43.42475" lon="3.43765">
        <ele>13.541762</ele>
        <time>2023-12-30T13:09:35.000Z</time>
      </trkpt>
      <trkpt lat="43.42471" lon="3.43764">
        <ele>13.53547</ele>
        <time>2023-12-30T13:09:36.000Z</time>
      </trkpt>
      <trkpt lat="43.42466" lon="3.43763">
        <ele>13.528436</ele>
        <time>2023-12-30T13:09:37.000Z</time>
      </trkpt>
      <trkpt lat="43.42462" lon="3.43761">
        <ele>13.521571</ele>
        <time>2023-12-30T13:09:38.000Z</time>
      </trkpt>
      <trkpt lat="43.42458" lon="3.43759">
        <ele>13.514523</ele>
        <time>2023-12-30T13:09:39.000Z</time>
      </trkpt>
      <trkpt lat="43.42453" lon="3.43758">
        <ele>13.507415</ele>
        <time>2023-12-30T13:09:40.000Z</time>
      </trkpt>
      <trkpt lat="43.42449" lon="3.43756">
        <ele>13.500702</ele>
        <time>2023-12-30T13:09:41.000Z</time>
      </trkpt>
      <trkpt lat="43.42445" lon="3.43754">
        <ele>13.494049</ele>
        <time>2023-12-30T13:09:42.000Z</time>
      </trkpt>
      <trkpt lat="43.42442" lon="3.43751">
        <ele>13.487343</ele>
        <time>2023-12-30T13:09:43.000Z</time>
      </trkpt>
      <trkpt lat="43.42438" lon="3.43748">
        <ele>13.480357</ele>
        <time>2023-12-30T13:09:44.000Z</time>
      </trkpt>
      <trkpt lat="43.42434" lon="3.43746">
        <ele>13.474017</ele>
        <time>2023-12-30T13:09:45.000Z</time>
      </trkpt>
      <trkpt lat="43.4243" lon="3.43744">
        <ele>13.467697</ele>
        <time>2023-12-30T13:09:46.000Z</time>
      </trkpt>
      <trkpt lat="43.42427" lon="3.43742">
        <ele>13.461757</ele>
        <time>2023-12-30T13:09:47.000Z</time>
      </trkpt>
      <trkpt lat="43.42425" lon="3.4374">
        <ele>13.457993</ele>
        <time>2023-12-30T13:09:48.000Z</time>
      </trkpt>
      <trkpt lat="43.42423" lon="3.43738">
        <ele>13.455066</ele>
        <time>2023-12-30T13:09:49.000Z</time>
      </trkpt>
      <trkpt lat="43.42422" lon="3.43738">
        <ele>13.452544</ele>
        <time>2023-12-30T13:09:50.000Z</time>
      </trkpt>
      <trkpt lat="43.4242" lon="3.43736">
        <ele>13.449244</ele>
        <time>2023-12-30T13:09:51.000Z</time>
      </trkpt>
      <trkpt lat="43.42417" lon="3.43734">
        <ele>13.444517</ele>
        <time>2023-12-30T13:09:52.000Z</time>
      </trkpt>
      <trkpt lat="43.42415" lon="3.43731">
        <ele>13.439284</ele>
        <time>2023-12-30T13:09:53.000Z</time>
      </trkpt>
      <trkpt lat="43.42412" lon="3.43728">
        <ele>13.433191</ele>
        <time>2023-12-30T13:09:54.000Z</time>
      </trkpt>
      <trkpt lat="43.42408" lon="3.43724">
        <ele>13.426659</ele>
        <time>2023-12-30T13:09:55.000Z</time>
      </trkpt>
      <trkpt lat="43.42405" lon="3.43722">
        <ele>13.424468</ele>
        <time>2023-12-30T13:09:56.000Z</time>
      </trkpt>
      <trkpt lat="43.42402" lon="3.43719">
        <ele>13.430473</ele>
        <time>2023-12-30T13:09:57.000Z</time>
      </trkpt>
      <trkpt lat="43.424" lon="3.43716">
        <ele>13.435703</ele>
        <time>2023-12-30T13:09:58.000Z</time>
      </trkpt>
      <trkpt lat="43.42397" lon="3.43713">
        <ele>13.441141</ele>
        <time>2023-12-30T13:09:59.000Z</time>
      </trkpt>
      <trkpt lat="43.42394" lon="3.43709">
        <ele>13.447304</ele>
        <time>2023-12-30T13:10:00.000Z</time>
      </trkpt>
      <trkpt lat="43.42391" lon="3.43706">
        <ele>13.453394</ele>
        <time>2023-12-30T13:10:01.000Z</time>
      </trkpt>
      <trkpt lat="43.42388" lon="3.43702">
        <ele>13.459943</ele>
        <time>2023-12-30T13:10:02.000Z</time>
      </trkpt>
      <trkpt lat="43.42385" lon="3.43699">
        <ele>13.466063</ele>
        <time>2023-12-30T13:10:03.000Z</time>
      </trkpt>
      <trkpt lat="43.42382" lon="3.43695">
        <ele>13.472305</ele>
        <time>2023-12-30T13:10:04.000Z</time>
      </trkpt>
      <trkpt lat="43.4238" lon="3.43691">
        <ele>13.477594</ele>
        <time>2023-12-30T13:10:05.000Z</time>
      </trkpt>
      <trkpt lat="43.42377" lon="3.43688">
        <ele>13.482944</ele>
        <time>2023-12-30T13:10:06.000Z</time>
      </trkpt>
      <trkpt lat="43.42375" lon="3.43685">
        <ele>13.487756</ele>
        <time>2023-12-30T13:10:07.000Z</time>
      </trkpt>
      <trkpt lat="43.42372" lon="3.43682">
        <ele>13.493029</ele>
        <time>2023-12-30T13:10:08.000Z</time>
      </trkpt>
      <trkpt lat="43.4237" lon="3.43679">
        <ele>13.498109</ele>
        <time>2023-12-30T13:10:09.000Z</time>
      </trkpt>
      <trkpt lat="43.42367" lon="3.43676">
        <ele>13.503808</ele>
        <time>2023-12-30T13:10:10.000Z</time>
      </trkpt>
      <trkpt lat="43.42365" lon="3.43672">
        <ele>13.50997</ele>
        <time>2023-12-30T13:10:11.000Z</time>
      </trkpt>
      <trkpt lat="43.42361" lon="3.43669">
        <ele>13.51643</ele>
        <time>2023-12-30T13:10:12.000Z</time>
      </trkpt>
      <trkpt lat="43.42358" lon="3.43666">
        <ele>13.521926</ele>
        <time>2023-12-30T13:10:13.000Z</time>
      </trkpt>
      <trkpt lat="43.42356" lon="3.43664">
        <ele>13.526593</ele>
        <time>2023-12-30T13:10:14.000Z</time>
      </trkpt>
      <trkpt lat="43.42353" lon="3.43662">
        <ele>13.531306</ele>
        <time>2023-12-30T13:10:15.000Z</time>
      </trkpt>
      <trkpt lat="43.42351" lon="3.43659">
        <ele>13.535777</ele>
        <time>2023-12-30T13:10:16.000Z</time>
      </trkpt>
      <trkpt lat="43.42348" lon="3.43657">
        <ele>13.541007</ele>
        <time>2023-12-30T13:10:17.000Z</time>
      </trkpt>
      <trkpt lat="43.42346" lon="3.43654">
        <ele>13.546058</ele>
        <time>2023-12-30T13:10:18.000Z</time>
      </trkpt>
      <trkpt lat="43.42343" lon="3.43651">
        <ele>13.551743</ele>
        <time>2023-12-30T13:10:19.000Z</time>
      </trkpt>
      <trkpt lat="43.4234" lon="3.43648">
        <ele>13.557303</ele>
        <time>2023-12-30T13:10:20.000Z</time>
      </trkpt>
      <trkpt lat="43.42338" lon="3.43645">
        <ele>13.562548</ele>
        <time>2023-12-30T13:10:21.000Z</time>
      </trkpt>
      <trkpt lat="43.42335" lon="3.43642">
        <ele>13.56739</ele>
        <time>2023-12-30T13:10:22.000Z</time>
      </trkpt>
      <trkpt lat="43.42333" lon="3.4364">
        <ele>13.571589</ele>
        <time>2023-12-30T13:10:23.000Z</time>
      </trkpt>
      <trkpt lat="43.42332" lon="3.43638">
        <ele>13.574096</ele>
        <time>2023-12-30T13:10:24.000Z</time>
      </trkpt>
      <trkpt lat="43.42331" lon="3.43637">
        <ele>13.576488</ele>
        <time>2023-12-30T13:10:25.000Z</time>
      </trkpt>
      <trkpt lat="43.42329" lon="3.43635">
        <ele>13.579799</ele>
        <time>2023-12-30T13:10:26.000Z</time>
      </trkpt>
      <trkpt lat="43.42327" lon="3.43633">
        <ele>13.583884</ele>
        <time>2023-12-30T13:10:27.000Z</time>
      </trkpt>
      <trkpt lat="43.42326" lon="3.43631">
        <ele>13.586665</ele>
        <time>2023-12-30T13:10:28.000Z</time>
      </trkpt>
      <trkpt lat="43.42323" lon="3.43627">
        <ele>13.593716</ele>
        <time>2023-12-30T13:10:31.000Z</time>
      </trkpt>
      <trkpt lat="43.42323" lon="3.43627">
        <ele>13.594365</ele>
        <time>2023-12-30T13:10:35.000Z</time>
      </trkpt>
      <trkpt lat="43.42316" lon="3.43628">
        <ele>13.610303</ele>
        <time>2023-12-30T13:11:05.000Z</time>
      </trkpt>
      <trkpt lat="43.42314" lon="3.43628">
        <ele>13.614589</ele>
        <time>2023-12-30T13:11:06.000Z</time>
      </trkpt>
      <trkpt lat="43.42311" lon="3.43627">
        <ele>13.619072</ele>
        <time>2023-12-30T13:11:07.000Z</time>
      </trkpt>
      <trkpt lat="43.42308" lon="3.43625">
        <ele>13.623726</ele>
        <time>2023-12-30T13:11:08.000Z</time>
      </trkpt>
      <trkpt lat="43.42307" lon="3.43624">
        <ele>13.626651</ele>
        <time>2023-12-30T13:11:09.000Z</time>
      </trkpt>
      <trkpt lat="43.42307" lon="3.43624">
        <ele>13.627288</ele>
        <time>2023-12-30T13:11:10.000Z</time>
      </trkpt>
      <trkpt lat="43.42306" lon="3.43624">
        <ele>13.627676</ele>
        <time>2023-12-30T13:11:11.000Z</time>
      </trkpt>
      <trkpt lat="43.42306" lon="3.43624">
        <ele>13.62779</ele>
        <time>2023-12-30T13:11:12.000Z</time>
      </trkpt>
      <trkpt lat="43.42306" lon="3.43624">
        <ele>13.627904</ele>
        <time>2023-12-30T13:11:13.000Z</time>
      </trkpt>
      <trkpt lat="43.42306" lon="3.43624">
        <ele>13.62806</ele>
        <time>2023-12-30T13:11:14.000Z</time>
      </trkpt>
      <trkpt lat="43.42306" lon="3.43624">
        <ele>13.62806</ele>
        <time>2023-12-30T13:11:15.000Z</time>
      </trkpt>
      <trkpt lat="43.42306" lon="3.43623">
        <ele>13.628641</ele>
        <time>2023-12-30T13:11:16.000Z</time>
      </trkpt>
      <trkpt lat="43.42305" lon="3.43622">
        <ele>13.631722</ele>
        <time>2023-12-30T13:11:17.000Z</time>
      </trkpt>
      <trkpt lat="43.42303" lon="3.4362">
        <ele>13.63489</ele>
        <time>2023-12-30T13:11:18.000Z</time>
      </trkpt>
      <trkpt lat="43.42301" lon="3.43618">
        <ele>13.639215</ele>
        <time>2023-12-30T13:11:19.000Z</time>
      </trkpt>
      <trkpt lat="43.42298" lon="3.43616">
        <ele>13.644075</ele>
        <time>2023-12-30T13:11:20.000Z</time>
      </trkpt>
      <trkpt lat="43.42296" lon="3.43613">
        <ele>13.648788</ele>
        <time>2023-12-30T13:11:21.000Z</time>
      </trkpt>
      <trkpt lat="43.42294" lon="3.43611">
        <ele>13.6528</ele>
        <time>2023-12-30T13:11:22.000Z</time>
      </trkpt>
      <trkpt lat="43.42291" lon="3.43608">
        <ele>13.65778</ele>
        <time>2023-12-30T13:11:23.000Z</time>
      </trkpt>
      <trkpt lat="43.42288" lon="3.43606">
        <ele>13.663204</ele>
        <time>2023-12-30T13:11:24.000Z</time>
      </trkpt>
      <trkpt lat="43.42285" lon="3.43603">
        <ele>13.66869</ele>
        <time>2023-12-30T13:11:25.000Z</time>
      </trkpt>
      <trkpt lat="43.42282" lon="3.436">
        <ele>13.674695</ele>
        <time>2023-12-30T13:11:26.000Z</time>
      </trkpt>
      <trkpt lat="43.4228" lon="3.43597">
        <ele>13.680354</ele>
        <time>2023-12-30T13:11:27.000Z</time>
      </trkpt>
      <trkpt lat="43.42277" lon="3.43594">
        <ele>13.68591</ele>
        <time>2023-12-30T13:11:28.000Z</time>
      </trkpt>
      <trkpt lat="43.42274" lon="3.43591">
        <ele>13.691203</ele>
        <time>2023-12-30T13:11:29.000Z</time>
      </trkpt>
      <trkpt lat="43.42271" lon="3.43589">
        <ele>13.696565</ele>
        <time>2023-12-30T13:11:30.000Z</time>
      </trkpt>
      <trkpt lat="43.42268" lon="3.43586">
        <ele>13.701602</ele>
        <time>2023-12-30T13:11:31.000Z</time>
      </trkpt>
      <trkpt lat="43.42266" lon="3.43584">
        <ele>13.78071</ele>
        <time>2023-12-30T13:11:32.000Z</time>
      </trkpt>
      <trkpt lat="43.42262" lon="3.43582">
        <ele>14.008129</ele>
        <time>2023-12-30T13:11:33.000Z</time>
      </trkpt>
      <trkpt lat="43.42259" lon="3.4358">
        <ele>14.222268</ele>
        <time>2023-12-30T13:11:34.000Z</time>
      </trkpt>
      <trkpt lat="43.42256" lon="3.43578">
        <ele>14.441206</ele>
        <time>2023-12-30T13:11:35.000Z</time>
      </trkpt>
      <trkpt lat="43.42253" lon="3.43576">
        <ele>14.669095</ele>
        <time>2023-12-30T13:11:36.000Z</time>
      </trkpt>
      <trkpt lat="43.42249" lon="3.43575">
        <ele>14.91692</ele>
        <time>2023-12-30T13:11:37.000Z</time>
      </trkpt>
      <trkpt lat="43.42245" lon="3.43574">
        <ele>15.18716</ele>
        <time>2023-12-30T13:11:38.000Z</time>
      </trkpt>
      <trkpt lat="43.42241" lon="3.43573">
        <ele>15.428695</ele>
        <time>2023-12-30T13:11:39.000Z</time>
      </trkpt>
      <trkpt lat="43.42238" lon="3.43572">
        <ele>15.64494</ele>
        <time>2023-12-30T13:11:40.000Z</time>
      </trkpt>
      <trkpt lat="43.42234" lon="3.4357">
        <ele>15.855163</ele>
        <time>2023-12-30T13:11:41.000Z</time>
      </trkpt>
      <trkpt lat="43.42231" lon="3.43568">
        <ele>16.084654</ele>
        <time>2023-12-30T13:11:42.000Z</time>
      </trkpt>
      <trkpt lat="43.42228" lon="3.43567">
        <ele>16.314146</ele>
        <time>2023-12-30T13:11:43.000Z</time>
      </trkpt>
      <trkpt lat="43.42224" lon="3.43565">
        <ele>16.542531</ele>
        <time>2023-12-30T13:11:44.000Z</time>
      </trkpt>
      <trkpt lat="43.42221" lon="3.43563">
        <ele>16.779553</ele>
        <time>2023-12-30T13:11:45.000Z</time>
      </trkpt>
      <trkpt lat="43.42218" lon="3.4356">
        <ele>17.021468</ele>
        <time>2023-12-30T13:11:46.000Z</time>
      </trkpt>
      <trkpt lat="43.42215" lon="3.43557">
        <ele>17.253672</ele>
        <time>2023-12-30T13:11:47.000Z</time>
      </trkpt>
      <trkpt lat="43.42212" lon="3.43553">
        <ele>17.488878</ele>
        <time>2023-12-30T13:11:48.000Z</time>
      </trkpt>
      <trkpt lat="43.42209" lon="3.4355">
        <ele>17.708585</ele>
        <time>2023-12-30T13:11:49.000Z</time>
      </trkpt>
      <trkpt lat="43.42207" lon="3.43548">
        <ele>17.911033</ele>
        <time>2023-12-30T13:11:50.000Z</time>
      </trkpt>
      <trkpt lat="43.42204" lon="3.43545">
        <ele>18.110826</ele>
        <time>2023-12-30T13:11:51.000Z</time>
      </trkpt>
      <trkpt lat="43.42201" lon="3.43543">
        <ele>18.319425</ele>
        <time>2023-12-30T13:11:52.000Z</time>
      </trkpt>
      <trkpt lat="43.42198" lon="3.4354">
        <ele>18.545764</ele>
        <time>2023-12-30T13:11:53.000Z</time>
      </trkpt>
      <trkpt lat="43.42194" lon="3.43538">
        <ele>18.814891</ele>
        <time>2023-12-30T13:11:54.000Z</time>
      </trkpt>
      <trkpt lat="43.42191" lon="3.43536">
        <ele>19.068802</ele>
        <time>2023-12-30T13:11:55.000Z</time>
      </trkpt>
      <trkpt lat="43.42187" lon="3.43534">
        <ele>19.321977</ele>
        <time>2023-12-30T13:11:56.000Z</time>
      </trkpt>
      <trkpt lat="43.42183" lon="3.43534">
        <ele>19.536959</ele>
        <time>2023-12-30T13:11:57.000Z</time>
      </trkpt>
      <trkpt lat="43.4218" lon="3.43534">
        <ele>19.725961</ele>
        <time>2023-12-30T13:11:58.000Z</time>
      </trkpt>
      <trkpt lat="43.42178" lon="3.43534">
        <ele>19.878266</ele>
        <time>2023-12-30T13:11:59.000Z</time>
      </trkpt>
      <trkpt lat="43.42176" lon="3.43534">
        <ele>20.037421</ele>
        <time>2023-12-30T13:12:00.000Z</time>
      </trkpt>
      <trkpt lat="43.42173" lon="3.43534">
        <ele>20.1767</ele>
        <time>2023-12-30T13:12:01.000Z</time>
      </trkpt>
      <trkpt lat="43.42172" lon="3.43532">
        <ele>20.318145</ele>
        <time>2023-12-30T13:12:02.000Z</time>
      </trkpt>
      <trkpt lat="43.42172" lon="3.43528">
        <ele>20.478423</ele>
        <time>2023-12-30T13:12:03.000Z</time>
      </trkpt>
      <trkpt lat="43.42173" lon="3.43524">
        <ele>20.669863</ele>
        <time>2023-12-30T13:12:04.000Z</time>
      </trkpt>
      <trkpt lat="43.42175" lon="3.4352">
        <ele>20.914294</ele>
        <time>2023-12-30T13:12:05.000Z</time>
      </trkpt>
      <trkpt lat="43.42177" lon="3.43515">
        <ele>21.185717</ele>
        <time>2023-12-30T13:12:06.000Z</time>
      </trkpt>
      <trkpt lat="43.4218" lon="3.4351">
        <ele>21.4857</ele>
        <time>2023-12-30T13:12:07.000Z</time>
      </trkpt>
      <trkpt lat="43.42183" lon="3.43504">
        <ele>21.785684</ele>
        <time>2023-12-30T13:12:08.000Z</time>
      </trkpt>
      <trkpt lat="43.42185" lon="3.435">
        <ele>22.034297</ele>
        <time>2023-12-30T13:12:09.000Z</time>
      </trkpt>
      <trkpt lat="43.42187" lon="3.43495">
        <ele>22.275701</ele>
        <time>2023-12-30T13:12:10.000Z</time>
      </trkpt>
      <trkpt lat="43.42188" lon="3.4349">
        <ele>22.50392</ele>
        <time>2023-12-30T13:12:11.000Z</time>
      </trkpt>
      <trkpt lat="43.4219" lon="3.43486">
        <ele>22.74705</ele>
        <time>2023-12-30T13:12:12.000Z</time>
      </trkpt>
      <trkpt lat="43.42192" lon="3.43481">
        <ele>23.022416</ele>
        <time>2023-12-30T13:12:13.000Z</time>
      </trkpt>
      <trkpt lat="43.42194" lon="3.43475">
        <ele>23.317736</ele>
        <time>2023-12-30T13:12:14.000Z</time>
      </trkpt>
      <trkpt lat="43.42195" lon="3.43469">
        <ele>23.586751</ele>
        <time>2023-12-30T13:12:15.000Z</time>
      </trkpt>
      <trkpt lat="43.42196" lon="3.43464">
        <ele>23.838735</ele>
        <time>2023-12-30T13:12:16.000Z</time>
      </trkpt>
      <trkpt lat="43.42196" lon="3.43458">
        <ele>24.105995</ele>
        <time>2023-12-30T13:12:17.000Z</time>
      </trkpt>
      <trkpt lat="43.42196" lon="3.43453">
        <ele>24.326445</ele>
        <time>2023-12-30T13:12:18.000Z</time>
      </trkpt>
      <trkpt lat="43.42197" lon="3.43448">
        <ele>24.537026</ele>
        <time>2023-12-30T13:12:19.000Z</time>
      </trkpt>
      <trkpt lat="43.42197" lon="3.43444">
        <ele>24.721784</ele>
        <time>2023-12-30T13:12:20.000Z</time>
      </trkpt>
      <trkpt lat="43.42196" lon="3.4344">
        <ele>24.933118</ele>
        <time>2023-12-30T13:12:21.000Z</time>
      </trkpt>
      <trkpt lat="43.42196" lon="3.43434">
        <ele>25.239432</ele>
        <time>2023-12-30T13:12:22.000Z</time>
      </trkpt>
      <trkpt lat="43.42196" lon="3.43429">
        <ele>25.585464</ele>
        <time>2023-12-30T13:12:23.000Z</time>
      </trkpt>
      <trkpt lat="43.42196" lon="3.43424">
        <ele>25.876774</ele>
        <time>2023-12-30T13:12:24.000Z</time>
      </trkpt>
      <trkpt lat="43.42197" lon="3.4342">
        <ele>26.100936</ele>
        <time>2023-12-30T13:12:25.000Z</time>
      </trkpt>
      <trkpt lat="43.42197" lon="3.43416">
        <ele>26.326109</ele>
        <time>2023-12-30T13:12:26.000Z</time>
      </trkpt>
      <trkpt lat="43.42196" lon="3.43413">
        <ele>26.534751</ele>
        <time>2023-12-30T13:12:27.000Z</time>
      </trkpt>
      <trkpt lat="43.42195" lon="3.4341">
        <ele>26.757273</ele>
        <time>2023-12-30T13:12:28.000Z</time>
      </trkpt>
      <trkpt lat="43.42194" lon="3.43407">
        <ele>26.965532</ele>
        <time>2023-12-30T13:12:29.000Z</time>
      </trkpt>
      <trkpt lat="43.42193" lon="3.43404">
        <ele>27.164088</ele>
        <time>2023-12-30T13:12:30.000Z</time>
      </trkpt>
      <trkpt lat="43.42192" lon="3.43401">
        <ele>27.357285</ele>
        <time>2023-12-30T13:12:31.000Z</time>
      </trkpt>
      <trkpt lat="43.42191" lon="3.43399">
        <ele>27.524261</ele>
        <time>2023-12-30T13:12:32.000Z</time>
      </trkpt>
      <trkpt lat="43.4219" lon="3.43397">
        <ele>27.696129</ele>
        <time>2023-12-30T13:12:33.000Z</time>
      </trkpt>
      <trkpt lat="43.42188" lon="3.43395">
        <ele>27.868196</ele>
        <time>2023-12-30T13:12:34.000Z</time>
      </trkpt>
      <trkpt lat="43.42187" lon="3.43393">
        <ele>28.045712</ele>
        <time>2023-12-30T13:12:35.000Z</time>
      </trkpt>
      <trkpt lat="43.42185" lon="3.4339">
        <ele>28.238996</ele>
        <time>2023-12-30T13:12:36.000Z</time>
      </trkpt>
      <trkpt lat="43.42184" lon="3.43388">
        <ele>28.411228</ele>
        <time>2023-12-30T13:12:37.000Z</time>
      </trkpt>
      <trkpt lat="43.42182" lon="3.43386">
        <ele>28.622627</ele>
        <time>2023-12-30T13:12:38.000Z</time>
      </trkpt>
      <trkpt lat="43.4218" lon="3.43383">
        <ele>28.857166</ele>
        <time>2023-12-30T13:12:39.000Z</time>
      </trkpt>
      <trkpt lat="43.42178" lon="3.43381">
        <ele>29.052116</ele>
        <time>2023-12-30T13:12:40.000Z</time>
      </trkpt>
      <trkpt lat="43.42176" lon="3.43379">
        <ele>29.27261</ele>
        <time>2023-12-30T13:12:41.000Z</time>
      </trkpt>
      <trkpt lat="43.42173" lon="3.43378">
        <ele>29.493978</ele>
        <time>2023-12-30T13:12:42.000Z</time>
      </trkpt>
      <trkpt lat="43.42171" lon="3.43378">
        <ele>29.694611</ele>
        <time>2023-12-30T13:12:43.000Z</time>
      </trkpt>
      <trkpt lat="43.42169" lon="3.43377">
        <ele>29.897126</ele>
        <time>2023-12-30T13:12:44.000Z</time>
      </trkpt>
      <trkpt lat="43.42167" lon="3.43375">
        <ele>30.094809</ele>
        <time>2023-12-30T13:12:45.000Z</time>
      </trkpt>
      <trkpt lat="43.42165" lon="3.43374">
        <ele>30.278587</ele>
        <time>2023-12-30T13:12:46.000Z</time>
      </trkpt>
      <trkpt lat="43.42162" lon="3.43374">
        <ele>30.488276</ele>
        <time>2023-12-30T13:12:47.000Z</time>
      </trkpt>
      <trkpt lat="43.4216" lon="3.43374">
        <ele>30.688908</ele>
        <time>2023-12-30T13:12:48.000Z</time>
      </trkpt>
      <trkpt lat="43.42157" lon="3.43374">
        <ele>30.899998</ele>
        <time>2023-12-30T13:12:49.000Z</time>
      </trkpt>
      <trkpt lat="43.42154" lon="3.43373">
        <ele>31.159412</ele>
        <time>2023-12-30T13:12:50.000Z</time>
      </trkpt>
      <trkpt lat="43.42151" lon="3.43372">
        <ele>31.405428</ele>
        <time>2023-12-30T13:12:51.000Z</time>
      </trkpt>
      <trkpt lat="43.42149" lon="3.4337">
        <ele>31.610564</ele>
        <time>2023-12-30T13:12:52.000Z</time>
      </trkpt>
      <trkpt lat="43.42146" lon="3.4337">
        <ele>31.846488</ele>
        <time>2023-12-30T13:12:53.000Z</time>
      </trkpt>
      <trkpt lat="43.42143" lon="3.43368">
        <ele>32.095403</ele>
        <time>2023-12-30T13:12:54.000Z</time>
      </trkpt>
      <trkpt lat="43.4214" lon="3.43367">
        <ele>32.377863</ele>
        <time>2023-12-30T13:12:55.000Z</time>
      </trkpt>
      <trkpt lat="43.42138" lon="3.43365">
        <ele>32.575546</ele>
        <time>2023-12-30T13:12:56.000Z</time>
      </trkpt>
      <trkpt lat="43.42136" lon="3.43365">
        <ele>32.722189</ele>
        <time>2023-12-30T13:12:57.000Z</time>
      </trkpt>
      <trkpt lat="43.42135" lon="3.43365">
        <ele>32.881067</ele>
        <time>2023-12-30T13:12:58.000Z</time>
      </trkpt>
      <trkpt lat="43.42133" lon="3.43365">
        <ele>33.025176</ele>
        <time>2023-12-30T13:12:59.000Z</time>
      </trkpt>
      <trkpt lat="43.42131" lon="3.43365">
        <ele>33.184054</ele>
        <time>2023-12-30T13:13:00.000Z</time>
      </trkpt>
      <trkpt lat="43.4213" lon="3.43364">
        <ele>33.283881</ele>
        <time>2023-12-30T13:13:01.000Z</time>
      </trkpt>
      <trkpt lat="43.42129" lon="3.43363">
        <ele>33.397349</ele>
        <time>2023-12-30T13:13:02.000Z</time>
      </trkpt>
      <trkpt lat="43.42128" lon="3.43361">
        <ele>33.526647</ele>
        <time>2023-12-30T13:13:03.000Z</time>
      </trkpt>
      <trkpt lat="43.42128" lon="3.43359">
        <ele>33.666234</ele>
        <time>2023-12-30T13:13:04.000Z</time>
      </trkpt>
      <trkpt lat="43.42128" lon="3.43356">
        <ele>33.836373</ele>
        <time>2023-12-30T13:13:05.000Z</time>
      </trkpt>
      <trkpt lat="43.42128" lon="3.43353">
        <ele>34.006511</ele>
        <time>2023-12-30T13:13:06.000Z</time>
      </trkpt>
      <trkpt lat="43.42129" lon="3.43351">
        <ele>34.14125</ele>
        <time>2023-12-30T13:13:07.000Z</time>
      </trkpt>
      <trkpt lat="43.4213" lon="3.43349">
        <ele>34.278917</ele>
        <time>2023-12-30T13:13:08.000Z</time>
      </trkpt>
      <trkpt lat="43.42131" lon="3.43347">
        <ele>34.426379</ele>
        <time>2023-12-30T13:13:09.000Z</time>
      </trkpt>
      <trkpt lat="43.42132" lon="3.43345">
        <ele>34.613338</ele>
        <time>2023-12-30T13:13:10.000Z</time>
      </trkpt>
      <trkpt lat="43.42133" lon="3.43343">
        <ele>34.757254</ele>
        <time>2023-12-30T13:13:11.000Z</time>
      </trkpt>
      <trkpt lat="43.42133" lon="3.43341">
        <ele>34.863429</ele>
        <time>2023-12-30T13:13:12.000Z</time>
      </trkpt>
      <trkpt lat="43.42134" lon="3.4334">
        <ele>34.926378</ele>
        <time>2023-12-30T13:13:13.000Z</time>
      </trkpt>
      <trkpt lat="43.42134" lon="3.4334">
        <ele>34.951092</ele>
        <time>2023-12-30T13:13:14.000Z</time>
      </trkpt>
      <trkpt lat="43.42134" lon="3.4334">
        <ele>34.951092</ele>
        <time>2023-12-30T13:13:15.000Z</time>
      </trkpt>
      <trkpt lat="43.42134" lon="3.4334">
        <ele>34.951092</ele>
        <time>2023-12-30T13:13:16.000Z</time>
      </trkpt>
      <trkpt lat="43.42134" lon="3.4334">
        <ele>34.951092</ele>
        <time>2023-12-30T13:13:17.000Z</time>
      </trkpt>
      <trkpt lat="43.42134" lon="3.4334">
        <ele>34.951092</ele>
        <time>2023-12-30T13:13:18.000Z</time>
      </trkpt>
      <trkpt lat="43.42134" lon="3.4334">
        <ele>34.951092</ele>
        <time>2023-12-30T13:13:19.000Z</time>
      </trkpt>
      <trkpt lat="43.42134" lon="3.4334">
        <ele>34.951092</ele>
        <time>2023-12-30T13:13:20.000Z</time>
      </trkpt>
      <trkpt lat="43.42134" lon="3.4334">
        <ele>34.951092</ele>
        <time>2023-12-30T13:13:21.000Z</time>
      </trkpt>
      <trkpt lat="43.42134" lon="3.4334">
        <ele>34.951092</ele>
        <time>2023-12-30T13:13:22.000Z</time>
      </trkpt>
      <trkpt lat="43.42134" lon="3.4334">
        <ele>34.951092</ele>
        <time>2023-12-30T13:13:23.000Z</time>
      </trkpt>
      <trkpt lat="43.42134" lon="3.4334">
        <ele>34.951092</ele>
        <time>2023-12-30T13:13:24.000Z</time>
      </trkpt>
      <trkpt lat="43.42134" lon="3.4334">
        <ele>34.951092</ele>
        <time>2023-12-30T13:13:25.000Z</time>
      </trkpt>
      <trkpt lat="43.42134" lon="3.4334">
        <ele>34.951092</ele>
        <time>2023-12-30T13:13:26.000Z</time>
      </trkpt>
      <trkpt lat="43.42134" lon="3.4334">
        <ele>34.951092</ele>
        <time>2023-12-30T13:13:27.000Z</time>
      </trkpt>
      <trkpt lat="43.42134" lon="3.4334">
        <ele>34.951092</ele>
        <time>2023-12-30T13:13:28.000Z</time>
      </trkpt>
      <trkpt lat="43.42134" lon="3.4334">
        <ele>34.951092</ele>
        <time>2023-12-30T13:13:29.000Z</time>
      </trkpt>
      <trkpt lat="43.42134" lon="3.4334">
        <ele>34.951092</ele>
        <time>2023-12-30T13:13:30.000Z</time>
      </trkpt>
      <trkpt lat="43.42134" lon="3.4334">
        <ele>34.957161</ele>
        <time>2023-12-30T13:13:31.000Z</time>
      </trkpt>
      <trkpt lat="43.42134" lon="3.4334">
        <ele>34.96323</ele>
        <time>2023-12-30T13:13:32.000Z</time>
      </trkpt>
      <trkpt lat="43.42134" lon="3.4334">
        <ele>34.969299</ele>
        <time>2023-12-30T13:13:33.000Z</time>
      </trkpt>
      <trkpt lat="43.42134" lon="3.4334">
        <ele>34.969299</ele>
        <time>2023-12-30T13:13:34.000Z</time>
      </trkpt>
      <trkpt lat="43.42134" lon="3.4334">
        <ele>34.969299</ele>
        <time>2023-12-30T13:13:35.000Z</time>
      </trkpt>
      <trkpt lat="43.42134" lon="3.4334">
        <ele>34.969299</ele>
        <time>2023-12-30T13:13:36.000Z</time>
      </trkpt>
      <trkpt lat="43.42134" lon="3.4334">
        <ele>34.969299</ele>
        <time>2023-12-30T13:13:37.000Z</time>
      </trkpt>
      <trkpt lat="43.42134" lon="3.4334">
        <ele>34.969299</ele>
        <time>2023-12-30T13:13:38.000Z</time>
      </trkpt>
      <trkpt lat="43.42134" lon="3.4334">
        <ele>34.975369</ele>
        <time>2023-12-30T13:13:39.000Z</time>
      </trkpt>
      <trkpt lat="43.42134" lon="3.4334">
        <ele>34.983724</ele>
        <time>2023-12-30T13:13:40.000Z</time>
      </trkpt>
      <trkpt lat="43.42134" lon="3.4334">
        <ele>34.99208</ele>
        <time>2023-12-30T13:13:41.000Z</time>
      </trkpt>
      <trkpt lat="43.42134" lon="3.43341">
        <ele>35.002408</ele>
        <time>2023-12-30T13:13:42.000Z</time>
      </trkpt>
      <trkpt lat="43.42134" lon="3.43341">
        <ele>35.002408</ele>
        <time>2023-12-30T13:13:43.000Z</time>
      </trkpt>
      <trkpt lat="43.42134" lon="3.43341">
        <ele>35.012735</ele>
        <time>2023-12-30T13:13:44.000Z</time>
      </trkpt>
      <trkpt lat="43.42134" lon="3.4334">
        <ele>35.055218</ele>
        <time>2023-12-30T13:13:45.000Z</time>
      </trkpt>
      <trkpt lat="43.42134" lon="3.43336">
        <ele>35.322256</ele>
        <time>2023-12-30T13:13:46.000Z</time>
      </trkpt>
      <trkpt lat="43.42133" lon="3.43331">
        <ele>35.582039</ele>
        <time>2023-12-30T13:13:47.000Z</time>
      </trkpt>
      <trkpt lat="43.42132" lon="3.43328">
        <ele>35.826038</ele>
        <time>2023-12-30T13:13:48.000Z</time>
      </trkpt>
      <trkpt lat="43.42132" lon="3.43325">
        <ele>35.984715</ele>
        <time>2023-12-30T13:13:49.000Z</time>
      </trkpt>
      <trkpt lat="43.42133" lon="3.43322">
        <ele>36.192976</ele>
        <time>2023-12-30T13:13:50.000Z</time>
      </trkpt>
      <trkpt lat="43.42134" lon="3.43318">
        <ele>36.458932</ele>
        <time>2023-12-30T13:13:51.000Z</time>
      </trkpt>
      <trkpt lat="43.42136" lon="3.43315">
        <ele>36.676926</ele>
        <time>2023-12-30T13:13:52.000Z</time>
      </trkpt>
      <trkpt lat="43.42137" lon="3.43312">
        <ele>36.927913</ele>
        <time>2023-12-30T13:13:53.000Z</time>
      </trkpt>
      <trkpt lat="43.42139" lon="3.43308">
        <ele>37.186509</ele>
        <time>2023-12-30T13:13:54.000Z</time>
      </trkpt>
      <trkpt lat="43.4214" lon="3.43305">
        <ele>37.407531</ele>
        <time>2023-12-30T13:13:55.000Z</time>
      </trkpt>
      <trkpt lat="43.42142" lon="3.43302">
        <ele>37.677806</ele>
        <time>2023-12-30T13:13:56.000Z</time>
      </trkpt>
      <trkpt lat="43.42143" lon="3.43298">
        <ele>37.907226</ele>
        <time>2023-12-30T13:13:57.000Z</time>
      </trkpt>
      <trkpt lat="43.42144" lon="3.43295">
        <ele>38.089833</ele>
        <time>2023-12-30T13:13:58.000Z</time>
      </trkpt>
      <trkpt lat="43.42145" lon="3.43292">
        <ele>38.319916</ele>
        <time>2023-12-30T13:13:59.000Z</time>
      </trkpt>
      <trkpt lat="43.42145" lon="3.43287">
        <ele>38.581018</ele>
        <time>2023-12-30T13:14:00.000Z</time>
      </trkpt>
      <trkpt lat="43.42144" lon="3.43283">
        <ele>38.832082</ele>
        <time>2023-12-30T13:14:01.000Z</time>
      </trkpt>
      <trkpt lat="43.42144" lon="3.43279">
        <ele>39.078032</ele>
        <time>2023-12-30T13:14:02.000Z</time>
      </trkpt>
      <trkpt lat="43.42143" lon="3.43276">
        <ele>39.28449</ele>
        <time>2023-12-30T13:14:03.000Z</time>
      </trkpt>
      <trkpt lat="43.42142" lon="3.43272">
        <ele>39.537688</ele>
        <time>2023-12-30T13:14:04.000Z</time>
      </trkpt>
      <trkpt lat="43.4214" lon="3.43269">
        <ele>39.741644</ele>
        <time>2023-12-30T13:14:05.000Z</time>
      </trkpt>
      <trkpt lat="43.4214" lon="3.43266">
        <ele>39.971727</ele>
        <time>2023-12-30T13:14:06.000Z</time>
      </trkpt>
      <trkpt lat="43.4214" lon="3.43263">
        <ele>40.092481</ele>
        <time>2023-12-30T13:14:07.000Z</time>
      </trkpt>
      <trkpt lat="43.4214" lon="3.4326">
        <ele>40.141778</ele>
        <time>2023-12-30T13:14:08.000Z</time>
      </trkpt>
      <trkpt lat="43.4214" lon="3.43256">
        <ele>40.195686</ele>
        <time>2023-12-30T13:14:09.000Z</time>
      </trkpt>
      <trkpt lat="43.4214" lon="3.43253">
        <ele>40.241267</ele>
        <time>2023-12-30T13:14:10.000Z</time>
      </trkpt>
      <trkpt lat="43.4214" lon="3.4325">
        <ele>40.297232</ele>
        <time>2023-12-30T13:14:11.000Z</time>
      </trkpt>
      <trkpt lat="43.42139" lon="3.43248">
        <ele>40.340219</ele>
        <time>2023-12-30T13:14:12.000Z</time>
      </trkpt>
      <trkpt lat="43.42138" lon="3.43246">
        <ele>40.382368</ele>
        <time>2023-12-30T13:14:13.000Z</time>
      </trkpt>
      <trkpt lat="43.42137" lon="3.43244">
        <ele>40.425866</ele>
        <time>2023-12-30T13:14:14.000Z</time>
      </trkpt>
      <trkpt lat="43.42136" lon="3.43242">
        <ele>40.454221</ele>
        <time>2023-12-30T13:14:15.000Z</time>
      </trkpt>
      <trkpt lat="43.42136" lon="3.4324">
        <ele>40.486424</ele>
        <time>2023-12-30T13:14:16.000Z</time>
      </trkpt>
      <trkpt lat="43.42136" lon="3.43239">
        <ele>40.498038</ele>
        <time>2023-12-30T13:14:17.000Z</time>
      </trkpt>
      <trkpt lat="43.42136" lon="3.43239">
        <ele>40.50715</ele>
        <time>2023-12-30T13:14:18.000Z</time>
      </trkpt>
      <trkpt lat="43.42136" lon="3.43239">
        <ele>40.511102</ele>
        <time>2023-12-30T13:14:19.000Z</time>
      </trkpt>
      <trkpt lat="43.42136" lon="3.43238">
        <ele>40.526424</ele>
        <time>2023-12-30T13:14:20.000Z</time>
      </trkpt>
      <trkpt lat="43.42135" lon="3.43236">
        <ele>40.568097</ele>
        <time>2023-12-30T13:14:21.000Z</time>
      </trkpt>
      <trkpt lat="43.42135" lon="3.43233">
        <ele>40.61775</ele>
        <time>2023-12-30T13:14:22.000Z</time>
      </trkpt>
      <trkpt lat="43.42134" lon="3.4323">
        <ele>40.674436</ele>
        <time>2023-12-30T13:14:23.000Z</time>
      </trkpt>
      <trkpt lat="43.42132" lon="3.43227">
        <ele>40.736087</ele>
        <time>2023-12-30T13:14:24.000Z</time>
      </trkpt>
      <trkpt lat="43.4213" lon="3.43225">
        <ele>40.795496</ele>
        <time>2023-12-30T13:14:25.000Z</time>
      </trkpt>
      <trkpt lat="43.42129" lon="3.43221">
        <ele>40.863603</ele>
        <time>2023-12-30T13:14:26.000Z</time>
      </trkpt>
      <trkpt lat="43.42128" lon="3.43217">
        <ele>40.930583</ele>
        <time>2023-12-30T13:14:27.000Z</time>
      </trkpt>
      <trkpt lat="43.42127" lon="3.43214">
        <ele>40.978015</ele>
        <time>2023-12-30T13:14:28.000Z</time>
      </trkpt>
      <trkpt lat="43.42126" lon="3.43213">
        <ele>40.99914</ele>
        <time>2023-12-30T13:14:29.000Z</time>
      </trkpt>
      <trkpt lat="43.42127" lon="3.43214">
        <ele>41.009697</ele>
        <time>2023-12-30T13:14:30.000Z</time>
      </trkpt>
      <trkpt lat="43.42126" lon="3.43213">
        <ele>41.01899</ele>
        <time>2023-12-30T13:14:31.000Z</time>
      </trkpt>
      <trkpt lat="43.42125" lon="3.4321">
        <ele>41.075628</ele>
        <time>2023-12-30T13:14:32.000Z</time>
      </trkpt>
      <trkpt lat="43.42123" lon="3.43208">
        <ele>41.132267</ele>
        <time>2023-12-30T13:14:33.000Z</time>
      </trkpt>
      <trkpt lat="43.42121" lon="3.43205">
        <ele>41.20429</ele>
        <time>2023-12-30T13:14:34.000Z</time>
      </trkpt>
      <trkpt lat="43.42118" lon="3.43202">
        <ele>41.28871</ele>
        <time>2023-12-30T13:14:35.000Z</time>
      </trkpt>
      <trkpt lat="43.42115" lon="3.43202">
        <ele>41.34755</ele>
        <time>2023-12-30T13:14:36.000Z</time>
      </trkpt>
      <trkpt lat="43.42113" lon="3.43201">
        <ele>41.38965</ele>
        <time>2023-12-30T13:14:37.000Z</time>
      </trkpt>
      <trkpt lat="43.42112" lon="3.432">
        <ele>41.409342</ele>
        <time>2023-12-30T13:14:38.000Z</time>
      </trkpt>
      <trkpt lat="43.42111" lon="3.432">
        <ele>41.439225</ele>
        <time>2023-12-30T13:14:39.000Z</time>
      </trkpt>
      <trkpt lat="43.4211" lon="3.43199">
        <ele>41.470511</ele>
        <time>2023-12-30T13:14:40.000Z</time>
      </trkpt>
      <trkpt lat="43.42109" lon="3.43198">
        <ele>41.502928</ele>
        <time>2023-12-30T13:14:41.000Z</time>
      </trkpt>
      <trkpt lat="43.42108" lon="3.43198">
        <ele>41.509557</ele>
        <time>2023-12-30T13:14:42.000Z</time>
      </trkpt>
      <trkpt lat="43.42108" lon="3.43198">
        <ele>41.511185</ele>
        <time>2023-12-30T13:14:43.000Z</time>
      </trkpt>
      <trkpt lat="43.42108" lon="3.43198">
        <ele>41.521394</ele>
        <time>2023-12-30T13:14:44.000Z</time>
      </trkpt>
      <trkpt lat="43.42107" lon="3.43197">
        <ele>41.559242</ele>
        <time>2023-12-30T13:14:45.000Z</time>
      </trkpt>
      <trkpt lat="43.42105" lon="3.43196">
        <ele>41.596015</ele>
        <time>2023-12-30T13:14:46.000Z</time>
      </trkpt>
      <trkpt lat="43.42103" lon="3.43195">
        <ele>41.637937</ele>
        <time>2023-12-30T13:14:47.000Z</time>
      </trkpt>
      <trkpt lat="43.42101" lon="3.43194">
        <ele>41.680037</ele>
        <time>2023-12-30T13:14:48.000Z</time>
      </trkpt>
      <trkpt lat="43.42099" lon="3.43193">
        <ele>41.734096</ele>
        <time>2023-12-30T13:14:49.000Z</time>
      </trkpt>
      <trkpt lat="43.42097" lon="3.43193">
        <ele>41.785877</ele>
        <time>2023-12-30T13:14:50.000Z</time>
      </trkpt>
      <trkpt lat="43.42094" lon="3.43193">
        <ele>41.839693</ele>
        <time>2023-12-30T13:14:51.000Z</time>
      </trkpt>
      <trkpt lat="43.42093" lon="3.43194">
        <ele>41.884728</ele>
        <time>2023-12-30T13:14:52.000Z</time>
      </trkpt>
      <trkpt lat="43.42091" lon="3.43195">
        <ele>41.918951</ele>
        <time>2023-12-30T13:14:53.000Z</time>
      </trkpt>
      <trkpt lat="43.4209" lon="3.43196">
        <ele>41.949204</ele>
        <time>2023-12-30T13:14:54.000Z</time>
      </trkpt>
      <trkpt lat="43.42088" lon="3.43196">
        <ele>41.987445</ele>
        <time>2023-12-30T13:14:55.000Z</time>
      </trkpt>
      <trkpt lat="43.42086" lon="3.43196">
        <ele>42.032271</ele>
        <time>2023-12-30T13:14:56.000Z</time>
      </trkpt>
      <trkpt lat="43.42085" lon="3.43195">
        <ele>42.065134</ele>
        <time>2023-12-30T13:14:57.000Z</time>
      </trkpt>
      <trkpt lat="43.42084" lon="3.43194">
        <ele>42.103916</ele>
        <time>2023-12-30T13:14:58.000Z</time>
      </trkpt>
      <trkpt lat="43.42082" lon="3.43191">
        <ele>42.148705</ele>
        <time>2023-12-30T13:14:59.000Z</time>
      </trkpt>
      <trkpt lat="43.4208" lon="3.43189">
        <ele>42.208746</ele>
        <time>2023-12-30T13:15:00.000Z</time>
      </trkpt>
      <trkpt lat="43.42078" lon="3.43186">
        <ele>42.268209</ele>
        <time>2023-12-30T13:15:01.000Z</time>
      </trkpt>
      <trkpt lat="43.42077" lon="3.43184">
        <ele>42.319045</ele>
        <time>2023-12-30T13:15:02.000Z</time>
      </trkpt>
      <trkpt lat="43.42075" lon="3.43183">
        <ele>42.367968</ele>
        <time>2023-12-30T13:15:03.000Z</time>
      </trkpt>
      <trkpt lat="43.42073" lon="3.43181">
        <ele>42.424289</ele>
        <time>2023-12-30T13:15:04.000Z</time>
      </trkpt>
      <trkpt lat="43.42071" lon="3.43178">
        <ele>42.479764</ele>
        <time>2023-12-30T13:15:05.000Z</time>
      </trkpt>
      <trkpt lat="43.42068" lon="3.43177">
        <ele>42.552476</ele>
        <time>2023-12-30T13:15:06.000Z</time>
      </trkpt>
      <trkpt lat="43.42065" lon="3.43176">
        <ele>42.614055</ele>
        <time>2023-12-30T13:15:07.000Z</time>
      </trkpt>
      <trkpt lat="43.42062" lon="3.43175">
        <ele>42.681608</ele>
        <time>2023-12-30T13:15:08.000Z</time>
      </trkpt>
      <trkpt lat="43.4206" lon="3.43176">
        <ele>42.726905</ele>
        <time>2023-12-30T13:15:09.000Z</time>
      </trkpt>
      <trkpt lat="43.42059" lon="3.43176">
        <ele>42.767543</ele>
        <time>2023-12-30T13:15:10.000Z</time>
      </trkpt>
      <trkpt lat="43.42057" lon="3.43176">
        <ele>42.797086</ele>
        <time>2023-12-30T13:15:11.000Z</time>
      </trkpt>
      <trkpt lat="43.42056" lon="3.43177">
        <ele>42.836421</ele>
        <time>2023-12-30T13:15:12.000Z</time>
      </trkpt>
      <trkpt lat="43.42053" lon="3.43178">
        <ele>42.888609</ele>
        <time>2023-12-30T13:15:13.000Z</time>
      </trkpt>
      <trkpt lat="43.42051" lon="3.43177">
        <ele>42.945019</ele>
        <time>2023-12-30T13:15:14.000Z</time>
      </trkpt>
      <trkpt lat="43.42049" lon="3.43177">
        <ele>42.996595</ele>
        <time>2023-12-30T13:15:15.000Z</time>
      </trkpt>
      <trkpt lat="43.42046" lon="3.43177">
        <ele>43.050411</ele>
        <time>2023-12-30T13:15:16.000Z</time>
      </trkpt>
      <trkpt lat="43.42044" lon="3.43178">
        <ele>43.109498</ele>
        <time>2023-12-30T13:15:17.000Z</time>
      </trkpt>
      <trkpt lat="43.42042" lon="3.43179">
        <ele>43.155055</ele>
        <time>2023-12-30T13:15:18.000Z</time>
      </trkpt>
      <trkpt lat="43.4204" lon="3.4318">
        <ele>43.208714</ele>
        <time>2023-12-30T13:15:19.000Z</time>
      </trkpt>
      <trkpt lat="43.42038" lon="3.43182">
        <ele>43.253632</ele>
        <time>2023-12-30T13:15:20.000Z</time>
      </trkpt>
      <trkpt lat="43.42038" lon="3.43186">
        <ele>43.307434</ele>
        <time>2023-12-30T13:15:21.000Z</time>
      </trkpt>
      <trkpt lat="43.4204" lon="3.4319">
        <ele>43.431714</ele>
        <time>2023-12-30T13:15:25.000Z</time>
      </trkpt>
      <trkpt lat="43.42041" lon="3.43192">
        <ele>43.464206</ele>
        <time>2023-12-30T13:15:26.000Z</time>
      </trkpt>
      <trkpt lat="43.42042" lon="3.43194">
        <ele>43.502462</ele>
        <time>2023-12-30T13:15:27.000Z</time>
      </trkpt>
      <trkpt lat="43.42044" lon="3.43198">
        <ele>43.592677</ele>
        <time>2023-12-30T13:15:29.000Z</time>
      </trkpt>
      <trkpt lat="43.42046" lon="3.43201">
        <ele>43.646097</ele>
        <time>2023-12-30T13:15:30.000Z</time>
      </trkpt>
      <trkpt lat="43.42047" lon="3.43203">
        <ele>43.692267</ele>
        <time>2023-12-30T13:15:31.000Z</time>
      </trkpt>
      <trkpt lat="43.42049" lon="3.43207">
        <ele>43.767712</ele>
        <time>2023-12-30T13:15:32.000Z</time>
      </trkpt>
      <trkpt lat="43.4205" lon="3.43211">
        <ele>43.836579</ele>
        <time>2023-12-30T13:15:33.000Z</time>
      </trkpt>
      <trkpt lat="43.42051" lon="3.43213">
        <ele>43.885917</ele>
        <time>2023-12-30T13:15:34.000Z</time>
      </trkpt>
      <trkpt lat="43.42052" lon="3.43216">
        <ele>43.940958</ele>
        <time>2023-12-30T13:15:35.000Z</time>
      </trkpt>
      <trkpt lat="43.42054" lon="3.43217">
        <ele>43.981144</ele>
        <time>2023-12-30T13:15:36.000Z</time>
      </trkpt>
      <trkpt lat="43.42055" lon="3.43219">
        <ele>44.015506</ele>
        <time>2023-12-30T13:15:37.000Z</time>
      </trkpt>
      <trkpt lat="43.42056" lon="3.43221">
        <ele>44.0552</ele>
        <time>2023-12-30T13:15:38.000Z</time>
      </trkpt>
      <trkpt lat="43.42056" lon="3.43222">
        <ele>44.076667</ele>
        <time>2023-12-30T13:15:39.000Z</time>
      </trkpt>
      <trkpt lat="43.42056" lon="3.43222">
        <ele>44.080619</ele>
        <time>2023-12-30T13:15:40.000Z</time>
      </trkpt>
      <trkpt lat="43.42056" lon="3.43222">
        <ele>44.082247</ele>
        <time>2023-12-30T13:15:41.000Z</time>
      </trkpt>
      <trkpt lat="43.42056" lon="3.43222">
        <ele>44.084488</ele>
        <time>2023-12-30T13:15:42.000Z</time>
      </trkpt>
      <trkpt lat="43.42056" lon="3.43222">
        <ele>44.08673</ele>
        <time>2023-12-30T13:15:43.000Z</time>
      </trkpt>
      <trkpt lat="43.42056" lon="3.43222">
        <ele>44.08673</ele>
        <time>2023-12-30T13:15:44.000Z</time>
      </trkpt>
      <trkpt lat="43.42056" lon="3.43223">
        <ele>44.093616</ele>
        <time>2023-12-30T13:15:45.000Z</time>
      </trkpt>
      <trkpt lat="43.42057" lon="3.43225">
        <ele>44.132942</ele>
        <time>2023-12-30T13:15:46.000Z</time>
      </trkpt>
      <trkpt lat="43.42057" lon="3.43228">
        <ele>44.168573</ele>
        <time>2023-12-30T13:15:47.000Z</time>
      </trkpt>
      <trkpt lat="43.42058" lon="3.43231">
        <ele>44.217451</ele>
        <time>2023-12-30T13:15:48.000Z</time>
      </trkpt>
      <trkpt lat="43.42058" lon="3.43234">
        <ele>44.265999</ele>
        <time>2023-12-30T13:15:49.000Z</time>
      </trkpt>
      <trkpt lat="43.42059" lon="3.43237">
        <ele>44.313105</ele>
        <time>2023-12-30T13:15:50.000Z</time>
      </trkpt>
      <trkpt lat="43.4206" lon="3.4324">
        <ele>44.359795</ele>
        <time>2023-12-30T13:15:51.000Z</time>
      </trkpt>
      <trkpt lat="43.42062" lon="3.43242">
        <ele>44.399173</ele>
        <time>2023-12-30T13:15:52.000Z</time>
      </trkpt>
      <trkpt lat="43.42063" lon="3.43245">
        <ele>44.440754</ele>
        <time>2023-12-30T13:15:53.000Z</time>
      </trkpt>
      <trkpt lat="43.42064" lon="3.43248">
        <ele>44.489161</ele>
        <time>2023-12-30T13:15:54.000Z</time>
      </trkpt>
      <trkpt lat="43.42065" lon="3.43251">
        <ele>44.540804</ele>
        <time>2023-12-30T13:15:55.000Z</time>
      </trkpt>
      <trkpt lat="43.42066" lon="3.43254">
        <ele>44.587754</ele>
        <time>2023-12-30T13:15:56.000Z</time>
      </trkpt>
      <trkpt lat="43.42066" lon="3.43257">
        <ele>44.636051</ele>
        <time>2023-12-30T13:15:57.000Z</time>
      </trkpt>
      <trkpt lat="43.42067" lon="3.4326">
        <ele>44.673979</ele>
        <time>2023-12-30T13:15:58.000Z</time>
      </trkpt>
      <trkpt lat="43.42067" lon="3.43263">
        <ele>44.721441</ele>
        <time>2023-12-30T13:15:59.000Z</time>
      </trkpt>
      <trkpt lat="43.42067" lon="3.43266">
        <ele>44.759972</ele>
        <time>2023-12-30T13:16:00.000Z</time>
      </trkpt>
      <trkpt lat="43.42067" lon="3.43269">
        <ele>44.800697</ele>
        <time>2023-12-30T13:16:01.000Z</time>
      </trkpt>
      <trkpt lat="43.42069" lon="3.43271">
        <ele>44.842278</ele>
        <time>2023-12-30T13:16:02.000Z</time>
      </trkpt>
      <trkpt lat="43.42069" lon="3.43274">
        <ele>44.880661</ele>
        <time>2023-12-30T13:16:03.000Z</time>
      </trkpt>
      <trkpt lat="43.4207" lon="3.43277">
        <ele>44.927373</ele>
        <time>2023-12-30T13:16:04.000Z</time>
      </trkpt>
      <trkpt lat="43.4207" lon="3.4328">
        <ele>44.974323</ele>
        <time>2023-12-30T13:16:05.000Z</time>
      </trkpt>
      <trkpt lat="43.42071" lon="3.43284">
        <ele>45.033041</ele>
        <time>2023-12-30T13:16:06.000Z</time>
      </trkpt>
      <trkpt lat="43.42072" lon="3.43287">
        <ele>45.081149</ele>
        <time>2023-12-30T13:16:07.000Z</time>
      </trkpt>
      <trkpt lat="43.42072" lon="3.43291">
        <ele>45.128098</ele>
        <time>2023-12-30T13:16:08.000Z</time>
      </trkpt>
      <trkpt lat="43.42074" lon="3.43294">
        <ele>45.188543</ele>
        <time>2023-12-30T13:16:09.000Z</time>
      </trkpt>
      <trkpt lat="43.42075" lon="3.43298">
        <ele>45.245583</ele>
        <time>2023-12-30T13:16:10.000Z</time>
      </trkpt>
      <trkpt lat="43.42075" lon="3.43302">
        <ele>45.296017</ele>
        <time>2023-12-30T13:16:11.000Z</time>
      </trkpt>
      <trkpt lat="43.42076" lon="3.43305">
        <ele>45.343478</ele>
        <time>2023-12-30T13:16:12.000Z</time>
      </trkpt>
      <trkpt lat="43.42076" lon="3.43308">
        <ele>45.392356</ele>
        <time>2023-12-30T13:16:13.000Z</time>
      </trkpt>
      <trkpt lat="43.42076" lon="3.43312">
        <ele>45.445305</ele>
        <time>2023-12-30T13:16:14.000Z</time>
      </trkpt>
      <trkpt lat="43.42076" lon="3.43316">
        <ele>45.496718</ele>
        <time>2023-12-30T13:16:15.000Z</time>
      </trkpt>
      <trkpt lat="43.42076" lon="3.4332">
        <ele>45.553937</ele>
        <time>2023-12-30T13:16:16.000Z</time>
      </trkpt>
      <trkpt lat="43.42076" lon="3.43323">
        <ele>45.599605</ele>
        <time>2023-12-30T13:16:17.000Z</time>
      </trkpt>
      <trkpt lat="43.42076" lon="3.43326">
        <ele>45.651018</ele>
        <time>2023-12-30T13:16:18.000Z</time>
      </trkpt>
      <trkpt lat="43.42076" lon="3.4333">
        <ele>45.695432</ele>
        <time>2023-12-30T13:16:19.000Z</time>
      </trkpt>
      <trkpt lat="43.42076" lon="3.43332">
        <ele>45.737004</ele>
        <time>2023-12-30T13:16:20.000Z</time>
      </trkpt>
      <trkpt lat="43.42077" lon="3.43336">
        <ele>45.786158</ele>
        <time>2023-12-30T13:16:21.000Z</time>
      </trkpt>
      <trkpt lat="43.42077" lon="3.43339">
        <ele>45.833416</ele>
        <time>2023-12-30T13:16:22.000Z</time>
      </trkpt>
      <trkpt lat="43.42077" lon="3.43342">
        <ele>45.874802</ele>
        <time>2023-12-30T13:16:23.000Z</time>
      </trkpt>
      <trkpt lat="43.42077" lon="3.43346">
        <ele>45.925097</ele>
        <time>2023-12-30T13:16:24.000Z</time>
      </trkpt>
      <trkpt lat="43.42076" lon="3.43349">
        <ele>45.975392</ele>
        <time>2023-12-30T13:16:25.000Z</time>
      </trkpt>
      <trkpt lat="43.42076" lon="3.43353">
        <ele>46.025341</ele>
        <time>2023-12-30T13:16:26.000Z</time>
      </trkpt>
      <trkpt lat="43.42077" lon="3.43356">
        <ele>46.072802</ele>
        <time>2023-12-30T13:16:27.000Z</time>
      </trkpt>
      <trkpt lat="43.42077" lon="3.43359">
        <ele>46.119897</ele>
        <time>2023-12-30T13:16:28.000Z</time>
      </trkpt>
      <trkpt lat="43.42076" lon="3.43362">
        <ele>46.167155</ele>
        <time>2023-12-30T13:16:29.000Z</time>
      </trkpt>
      <trkpt lat="43.42076" lon="3.43366">
        <ele>46.214249</ele>
        <time>2023-12-30T13:16:30.000Z</time>
      </trkpt>
      <trkpt lat="43.42076" lon="3.43369">
        <ele>46.259958</ele>
        <time>2023-12-30T13:16:31.000Z</time>
      </trkpt>
      <trkpt lat="43.42076" lon="3.43373">
        <ele>46.318601</ele>
        <time>2023-12-30T13:16:32.000Z</time>
      </trkpt>
      <trkpt lat="43.42077" lon="3.43377">
        <ele>46.370015</ele>
        <time>2023-12-30T13:16:33.000Z</time>
      </trkpt>
      <trkpt lat="43.42076" lon="3.4338">
        <ele>46.421727</ele>
        <time>2023-12-30T13:16:34.000Z</time>
      </trkpt>
      <trkpt lat="43.42076" lon="3.43384">
        <ele>46.47684</ele>
        <time>2023-12-30T13:16:35.000Z</time>
      </trkpt>
      <trkpt lat="43.42075" lon="3.43388">
        <ele>46.532808</ele>
        <time>2023-12-30T13:16:36.000Z</time>
      </trkpt>
      <trkpt lat="43.42075" lon="3.43391">
        <ele>46.583713</ele>
        <time>2023-12-30T13:16:37.000Z</time>
      </trkpt>
      <trkpt lat="43.42074" lon="3.43395">
        <ele>46.640605</ele>
        <time>2023-12-30T13:16:38.000Z</time>
      </trkpt>
      <trkpt lat="43.42074" lon="3.43399">
        <ele>46.695154</ele>
        <time>2023-12-30T13:16:39.000Z</time>
      </trkpt>
      <trkpt lat="43.42074" lon="3.43402">
        <ele>46.738371</ele>
        <time>2023-12-30T13:16:40.000Z</time>
      </trkpt>
      <trkpt lat="43.42074" lon="3.43405">
        <ele>46.779804</ele>
        <time>2023-12-30T13:16:41.000Z</time>
      </trkpt>
      <trkpt lat="43.42073" lon="3.43408">
        <ele>46.827062</ele>
        <time>2023-12-30T13:16:42.000Z</time>
      </trkpt>
      <trkpt lat="43.42074" lon="3.43412">
        <ele>46.874197</ele>
        <time>2023-12-30T13:16:43.000Z</time>
      </trkpt>
      <trkpt lat="43.42073" lon="3.43415">
        <ele>46.917055</ele>
        <time>2023-12-30T13:16:44.000Z</time>
      </trkpt>
      <trkpt lat="43.42073" lon="3.43418">
        <ele>46.958488</ele>
        <time>2023-12-30T13:16:45.000Z</time>
      </trkpt>
      <trkpt lat="43.42074" lon="3.4342">
        <ele>46.9958</ele>
        <time>2023-12-30T13:16:46.000Z</time>
      </trkpt>
      <trkpt lat="43.42074" lon="3.43421">
        <ele>47.009232</ele>
        <time>2023-12-30T13:16:47.000Z</time>
      </trkpt>
      <trkpt lat="43.42074" lon="3.43421">
        <ele>47.010659</ele>
        <time>2023-12-30T13:16:48.000Z</time>
      </trkpt>
      <trkpt lat="43.42074" lon="3.43421">
        <ele>47.010659</ele>
        <time>2023-12-30T13:16:49.000Z</time>
      </trkpt>
      <trkpt lat="43.42074" lon="3.43421">
        <ele>47.010659</ele>
        <time>2023-12-30T13:16:50.000Z</time>
      </trkpt>
      <trkpt lat="43.42074" lon="3.43421">
        <ele>47.012623</ele>
        <time>2023-12-30T13:16:51.000Z</time>
      </trkpt>
      <trkpt lat="43.42074" lon="3.43421">
        <ele>47.014588</ele>
        <time>2023-12-30T13:16:52.000Z</time>
      </trkpt>
      <trkpt lat="43.42074" lon="3.43421">
        <ele>47.014588</ele>
        <time>2023-12-30T13:16:53.000Z</time>
      </trkpt>
      <trkpt lat="43.42074" lon="3.43421">
        <ele>47.016015</ele>
        <time>2023-12-30T13:16:54.000Z</time>
      </trkpt>
      <trkpt lat="43.42074" lon="3.43421">
        <ele>47.01798</ele>
        <time>2023-12-30T13:16:55.000Z</time>
      </trkpt>
      <trkpt lat="43.42074" lon="3.43421">
        <ele>47.01798</ele>
        <time>2023-12-30T13:16:56.000Z</time>
      </trkpt>
      <trkpt lat="43.42074" lon="3.43421">
        <ele>47.024017</ele>
        <time>2023-12-30T13:16:57.000Z</time>
      </trkpt>
      <trkpt lat="43.42072" lon="3.43424">
        <ele>47.070206</ele>
        <time>2023-12-30T13:16:58.000Z</time>
      </trkpt>
      <trkpt lat="43.42072" lon="3.43426">
        <ele>47.103264</ele>
        <time>2023-12-30T13:16:59.000Z</time>
      </trkpt>
      <trkpt lat="43.42073" lon="3.4343">
        <ele>47.153367</ele>
        <time>2023-12-30T13:17:00.000Z</time>
      </trkpt>
      <trkpt lat="43.42073" lon="3.43434">
        <ele>47.212403</ele>
        <time>2023-12-30T13:17:01.000Z</time>
      </trkpt>
      <trkpt lat="43.42074" lon="3.43438">
        <ele>47.27209</ele>
        <time>2023-12-30T13:17:02.000Z</time>
      </trkpt>
      <trkpt lat="43.42074" lon="3.43442">
        <ele>47.332029</ele>
        <time>2023-12-30T13:17:03.000Z</time>
      </trkpt>
      <trkpt lat="43.42074" lon="3.43446">
        <ele>47.390746</ele>
        <time>2023-12-30T13:17:04.000Z</time>
      </trkpt>
      <trkpt lat="43.42076" lon="3.43451">
        <ele>47.463241</ele>
        <time>2023-12-30T13:17:05.000Z</time>
      </trkpt>
      <trkpt lat="43.42075" lon="3.43456">
        <ele>47.536129</ele>
        <time>2023-12-30T13:17:06.000Z</time>
      </trkpt>
      <trkpt lat="43.42074" lon="3.4346">
        <ele>47.60104</ele>
        <time>2023-12-30T13:17:07.000Z</time>
      </trkpt>
      <trkpt lat="43.42072" lon="3.43464">
        <ele>47.543152</ele>
        <time>2023-12-30T13:17:08.000Z</time>
      </trkpt>
      <trkpt lat="43.42071" lon="3.43469">
        <ele>47.395214</ele>
        <time>2023-12-30T13:17:09.000Z</time>
      </trkpt>
      <trkpt lat="43.42071" lon="3.43473">
        <ele>47.256782</ele>
        <time>2023-12-30T13:17:10.000Z</time>
      </trkpt>
      <trkpt lat="43.4207" lon="3.43477">
        <ele>47.103454</ele>
        <time>2023-12-30T13:17:11.000Z</time>
      </trkpt>
      <trkpt lat="43.42068" lon="3.43483">
        <ele>46.927752</ele>
        <time>2023-12-30T13:17:12.000Z</time>
      </trkpt>
      <trkpt lat="43.42066" lon="3.43487">
        <ele>46.759796</ele>
        <time>2023-12-30T13:17:13.000Z</time>
      </trkpt>
      <trkpt lat="43.42065" lon="3.43491">
        <ele>46.606467</ele>
        <time>2023-12-30T13:17:14.000Z</time>
      </trkpt>
      <trkpt lat="43.42064" lon="3.43496">
        <ele>46.441974</ele>
        <time>2023-12-30T13:17:15.000Z</time>
      </trkpt>
      <trkpt lat="43.42062" lon="3.43501">
        <ele>46.262491</ele>
        <time>2023-12-30T13:17:16.000Z</time>
      </trkpt>
      <trkpt lat="43.42061" lon="3.43507">
        <ele>46.060683</ele>
        <time>2023-12-30T13:17:17.000Z</time>
      </trkpt>
      <trkpt lat="43.4206" lon="3.43514">
        <ele>45.857682</ele>
        <time>2023-12-30T13:17:18.000Z</time>
      </trkpt>
      <trkpt lat="43.42059" lon="3.4352">
        <ele>45.644561</ele>
        <time>2023-12-30T13:17:19.000Z</time>
      </trkpt>
      <trkpt lat="43.42056" lon="3.43526">
        <ele>45.423029</ele>
        <time>2023-12-30T13:17:20.000Z</time>
      </trkpt>
      <trkpt lat="43.42054" lon="3.43533">
        <ele>45.177692</ele>
        <time>2023-12-30T13:17:21.000Z</time>
      </trkpt>
      <trkpt lat="43.42052" lon="3.4354">
        <ele>44.938795</ele>
        <time>2023-12-30T13:17:22.000Z</time>
      </trkpt>
      <trkpt lat="43.4205" lon="3.43548">
        <ele>44.671599</ele>
        <time>2023-12-30T13:17:23.000Z</time>
      </trkpt>
      <trkpt lat="43.42046" lon="3.43556">
        <ele>44.347846</ele>
        <time>2023-12-30T13:17:24.000Z</time>
      </trkpt>
      <trkpt lat="43.42042" lon="3.43563">
        <ele>44.068423</ele>
        <time>2023-12-30T13:17:25.000Z</time>
      </trkpt>
      <trkpt lat="43.42038" lon="3.4357">
        <ele>43.776021</ele>
        <time>2023-12-30T13:17:26.000Z</time>
      </trkpt>
      <trkpt lat="43.42036" lon="3.43577">
        <ele>43.544707</ele>
        <time>2023-12-30T13:17:27.000Z</time>
      </trkpt>
      <trkpt lat="43.42033" lon="3.43584">
        <ele>43.29937</ele>
        <time>2023-12-30T13:17:28.000Z</time>
      </trkpt>
      <trkpt lat="43.42032" lon="3.4359">
        <ele>43.109861</ele>
        <time>2023-12-30T13:17:29.000Z</time>
      </trkpt>
      <trkpt lat="43.42033" lon="3.43594">
        <ele>42.961922</ele>
        <time>2023-12-30T13:17:30.000Z</time>
      </trkpt>
      <trkpt lat="43.42034" lon="3.43599">
        <ele>42.79531</ele>
        <time>2023-12-30T13:17:31.000Z</time>
      </trkpt>
      <trkpt lat="43.42034" lon="3.43607">
        <ele>42.543002</ele>
        <time>2023-12-30T13:17:32.000Z</time>
      </trkpt>
      <trkpt lat="43.42033" lon="3.43616">
        <ele>42.277814</ele>
        <time>2023-12-30T13:17:33.000Z</time>
      </trkpt>
      <trkpt lat="43.42033" lon="3.43624">
        <ele>42.020505</ele>
        <time>2023-12-30T13:17:34.000Z</time>
      </trkpt>
      <trkpt lat="43.42032" lon="3.43631">
        <ele>41.794225</ele>
        <time>2023-12-30T13:17:35.000Z</time>
      </trkpt>
      <trkpt lat="43.42031" lon="3.43637">
        <ele>41.586246</ele>
        <time>2023-12-30T13:17:36.000Z</time>
      </trkpt>
      <trkpt lat="43.4203" lon="3.43643">
        <ele>41.390595</ele>
        <time>2023-12-30T13:17:37.000Z</time>
      </trkpt>
      <trkpt lat="43.42028" lon="3.43647">
        <ele>41.234517</ele>
        <time>2023-12-30T13:17:38.000Z</time>
      </trkpt>
      <trkpt lat="43.42027" lon="3.43652">
        <ele>41.07093</ele>
        <time>2023-12-30T13:17:39.000Z</time>
      </trkpt>
      <trkpt lat="43.42026" lon="3.43657">
        <ele>40.919246</ele>
        <time>2023-12-30T13:17:40.000Z</time>
      </trkpt>
      <trkpt lat="43.42024" lon="3.43661">
        <ele>40.75823</ele>
        <time>2023-12-30T13:17:41.000Z</time>
      </trkpt>
      <trkpt lat="43.42023" lon="3.43667">
        <ele>40.573613</ele>
        <time>2023-12-30T13:17:42.000Z</time>
      </trkpt>
      <trkpt lat="43.42021" lon="3.43672">
        <ele>40.39052</ele>
        <time>2023-12-30T13:17:43.000Z</time>
      </trkpt>
      <trkpt lat="43.42021" lon="3.43677">
        <ele>40.219854</ele>
        <time>2023-12-30T13:17:44.000Z</time>
      </trkpt>
      <trkpt lat="43.4202" lon="3.4368">
        <ele>40.125593</ele>
        <time>2023-12-30T13:17:45.000Z</time>
      </trkpt>
      <trkpt lat="43.4202" lon="3.43683">
        <ele>40.038927</ele>
        <time>2023-12-30T13:17:46.000Z</time>
      </trkpt>
      <trkpt lat="43.42021" lon="3.43686">
        <ele>39.931281</ele>
        <time>2023-12-30T13:17:47.000Z</time>
      </trkpt>
      <trkpt lat="43.42021" lon="3.43691">
        <ele>39.784324</ele>
        <time>2023-12-30T13:17:48.000Z</time>
      </trkpt>
      <trkpt lat="43.42022" lon="3.43696">
        <ele>39.894239</ele>
        <time>2023-12-30T13:17:49.000Z</time>
      </trkpt>
      <trkpt lat="43.42023" lon="3.43699">
        <ele>40.103027</ele>
        <time>2023-12-30T13:17:50.000Z</time>
      </trkpt>
      <trkpt lat="43.42023" lon="3.43703">
        <ele>40.321656</ele>
        <time>2023-12-30T13:17:51.000Z</time>
      </trkpt>
      <trkpt lat="43.42023" lon="3.43707">
        <ele>40.562558</ele>
        <time>2023-12-30T13:17:52.000Z</time>
      </trkpt>
      <trkpt lat="43.42023" lon="3.43711">
        <ele>40.776762</ele>
        <time>2023-12-30T13:17:53.000Z</time>
      </trkpt>
      <trkpt lat="43.42025" lon="3.43715">
        <ele>41.009277</ele>
        <time>2023-12-30T13:17:54.000Z</time>
      </trkpt>
      <trkpt lat="43.42027" lon="3.43719">
        <ele>41.290722</ele>
        <time>2023-12-30T13:17:55.000Z</time>
      </trkpt>
      <trkpt lat="43.42029" lon="3.43721">
        <ele>41.52565</ele>
        <time>2023-12-30T13:17:56.000Z</time>
      </trkpt>
      <trkpt lat="43.42031" lon="3.43724">
        <ele>41.73263</ele>
        <time>2023-12-30T13:17:57.000Z</time>
      </trkpt>
      <trkpt lat="43.42033" lon="3.43726">
        <ele>41.931516</ele>
        <time>2023-12-30T13:17:58.000Z</time>
      </trkpt>
      <trkpt lat="43.42035" lon="3.43728">
        <ele>42.11717</ele>
        <time>2023-12-30T13:17:59.000Z</time>
      </trkpt>
      <trkpt lat="43.42037" lon="3.4373">
        <ele>42.276005</ele>
        <time>2023-12-30T13:18:00.000Z</time>
      </trkpt>
      <trkpt lat="43.42038" lon="3.43732">
        <ele>42.428535</ele>
        <time>2023-12-30T13:18:01.000Z</time>
      </trkpt>
      <trkpt lat="43.4204" lon="3.43734">
        <ele>42.606947</ele>
        <time>2023-12-30T13:18:02.000Z</time>
      </trkpt>
      <trkpt lat="43.42042" lon="3.43736">
        <ele>42.80654</ele>
        <time>2023-12-30T13:18:03.000Z</time>
      </trkpt>
      <trkpt lat="43.42043" lon="3.43739">
        <ele>42.944376</ele>
        <time>2023-12-30T13:18:04.000Z</time>
      </trkpt>
      <trkpt lat="43.42044" lon="3.43741">
        <ele>43.085833</ele>
        <time>2023-12-30T13:18:05.000Z</time>
      </trkpt>
      <trkpt lat="43.42045" lon="3.43743">
        <ele>43.235527</ele>
        <time>2023-12-30T13:18:06.000Z</time>
      </trkpt>
      <trkpt lat="43.42046" lon="3.43745">
        <ele>43.408702</ele>
        <time>2023-12-30T13:18:07.000Z</time>
      </trkpt>
      <trkpt lat="43.42048" lon="3.43747">
        <ele>43.576822</ele>
        <time>2023-12-30T13:18:08.000Z</time>
      </trkpt>
      <trkpt lat="43.42049" lon="3.43749">
        <ele>43.713703</ele>
        <time>2023-12-30T13:18:09.000Z</time>
      </trkpt>
      <trkpt lat="43.4205" lon="3.43751">
        <ele>43.86784</ele>
        <time>2023-12-30T13:18:10.000Z</time>
      </trkpt>
      <trkpt lat="43.42051" lon="3.43754">
        <ele>44.044693</ele>
        <time>2023-12-30T13:18:11.000Z</time>
      </trkpt>
      <trkpt lat="43.42053" lon="3.43756">
        <ele>44.216946</ele>
        <time>2023-12-30T13:18:12.000Z</time>
      </trkpt>
      <trkpt lat="43.42054" lon="3.43759">
        <ele>44.393623</ele>
        <time>2023-12-30T13:18:13.000Z</time>
      </trkpt>
      <trkpt lat="43.42054" lon="3.43762">
        <ele>44.548969</ele>
        <time>2023-12-30T13:18:14.000Z</time>
      </trkpt>
      <trkpt lat="43.42055" lon="3.43765">
        <ele>44.707161</ele>
        <time>2023-12-30T13:18:15.000Z</time>
      </trkpt>
      <trkpt lat="43.42056" lon="3.43767">
        <ele>44.873593</ele>
        <time>2023-12-30T13:18:16.000Z</time>
      </trkpt>
      <trkpt lat="43.42057" lon="3.4377">
        <ele>45.013302</ele>
        <time>2023-12-30T13:18:17.000Z</time>
      </trkpt>
      <trkpt lat="43.42058" lon="3.43772">
        <ele>45.156169</ele>
        <time>2023-12-30T13:18:18.000Z</time>
      </trkpt>
      <trkpt lat="43.42059" lon="3.43774">
        <ele>45.324739</ele>
        <time>2023-12-30T13:18:19.000Z</time>
      </trkpt>
      <trkpt lat="43.42059" lon="3.43777">
        <ele>45.490637</ele>
        <time>2023-12-30T13:18:20.000Z</time>
      </trkpt>
      <trkpt lat="43.4206" lon="3.4378">
        <ele>45.646955</ele>
        <time>2023-12-30T13:18:21.000Z</time>
      </trkpt>
      <trkpt lat="43.42061" lon="3.43782">
        <ele>45.813387</ele>
        <time>2023-12-30T13:18:22.000Z</time>
      </trkpt>
      <trkpt lat="43.42062" lon="3.43785">
        <ele>45.976752</ele>
        <time>2023-12-30T13:18:23.000Z</time>
      </trkpt>
      <trkpt lat="43.42062" lon="3.43788">
        <ele>46.13113</ele>
        <time>2023-12-30T13:18:24.000Z</time>
      </trkpt>
      <trkpt lat="43.42063" lon="3.43791">
        <ele>46.305455</ele>
        <time>2023-12-30T13:18:25.000Z</time>
      </trkpt>
      <trkpt lat="43.42063" lon="3.43793">
        <ele>46.445726</ele>
        <time>2023-12-30T13:18:26.000Z</time>
      </trkpt>
      <trkpt lat="43.42063" lon="3.43796">
        <ele>46.604289</ele>
        <time>2023-12-30T13:18:27.000Z</time>
      </trkpt>
      <trkpt lat="43.42064" lon="3.43799">
        <ele>46.776727</ele>
        <time>2023-12-30T13:18:28.000Z</time>
      </trkpt>
      <trkpt lat="43.42064" lon="3.43802">
        <ele>46.951083</ele>
        <time>2023-12-30T13:18:29.000Z</time>
      </trkpt>
      <trkpt lat="43.42064" lon="3.43806">
        <ele>47.136121</ele>
        <time>2023-12-30T13:18:30.000Z</time>
      </trkpt>
      <trkpt lat="43.42064" lon="3.43809">
        <ele>47.315562</ele>
        <time>2023-12-30T13:18:31.000Z</time>
      </trkpt>
      <trkpt lat="43.42064" lon="3.43812">
        <ele>47.489406</ele>
        <time>2023-12-30T13:18:32.000Z</time>
      </trkpt>
      <trkpt lat="43.42064" lon="3.43814">
        <ele>47.630311</ele>
        <time>2023-12-30T13:18:33.000Z</time>
      </trkpt>
      <trkpt lat="43.42064" lon="3.43817">
        <ele>47.804155</ele>
        <time>2023-12-30T13:18:34.000Z</time>
      </trkpt>
      <trkpt lat="43.42064" lon="3.4382">
        <ele>47.96121</ele>
        <time>2023-12-30T13:18:35.000Z</time>
      </trkpt>
      <trkpt lat="43.42064" lon="3.43824">
        <ele>48.157897</ele>
        <time>2023-12-30T13:18:36.000Z</time>
      </trkpt>
      <trkpt lat="43.42064" lon="3.43826">
        <ele>48.31092</ele>
        <time>2023-12-30T13:18:37.000Z</time>
      </trkpt>
      <trkpt lat="43.42065" lon="3.43829">
        <ele>48.459813</ele>
        <time>2023-12-30T13:18:38.000Z</time>
      </trkpt>
      <trkpt lat="43.42065" lon="3.43832">
        <ele>48.628589</ele>
        <time>2023-12-30T13:18:39.000Z</time>
      </trkpt>
      <trkpt lat="43.42066" lon="3.43835">
        <ele>48.805119</ele>
        <time>2023-12-30T13:18:40.000Z</time>
      </trkpt>
      <trkpt lat="43.42066" lon="3.43838">
        <ele>48.97405</ele>
        <time>2023-12-30T13:18:41.000Z</time>
      </trkpt>
      <trkpt lat="43.42066" lon="3.43841">
        <ele>49.153987</ele>
        <time>2023-12-30T13:18:42.000Z</time>
      </trkpt>
      <trkpt lat="43.42066" lon="3.43845">
        <ele>49.355818</ele>
        <time>2023-12-30T13:18:43.000Z</time>
      </trkpt>
      <trkpt lat="43.42066" lon="3.43848">
        <ele>49.547698</ele>
        <time>2023-12-30T13:18:44.000Z</time>
      </trkpt>
      <trkpt lat="43.42066" lon="3.43852">
        <ele>49.744386</ele>
        <time>2023-12-30T13:18:45.000Z</time>
      </trkpt>
      <trkpt lat="43.42066" lon="3.43855">
        <ele>49.957414</ele>
        <time>2023-12-30T13:18:46.000Z</time>
      </trkpt>
      <trkpt lat="43.42066" lon="3.43859">
        <ele>50.164844</ele>
        <time>2023-12-30T13:18:47.000Z</time>
      </trkpt>
      <trkpt lat="43.42066" lon="3.43864">
        <ele>50.411467</ele>
        <time>2023-12-30T13:18:48.000Z</time>
      </trkpt>
      <trkpt lat="43.42066" lon="3.43868">
        <ele>50.653477</ele>
        <time>2023-12-30T13:18:49.000Z</time>
      </trkpt>
      <trkpt lat="43.42065" lon="3.43871">
        <ele>50.840509</ele>
        <time>2023-12-30T13:18:50.000Z</time>
      </trkpt>
      <trkpt lat="43.42064" lon="3.43875">
        <ele>51.053806</ele>
        <time>2023-12-30T13:18:51.000Z</time>
      </trkpt>
      <trkpt lat="43.42063" lon="3.43878">
        <ele>51.25179</ele>
        <time>2023-12-30T13:18:52.000Z</time>
      </trkpt>
      <trkpt lat="43.42062" lon="3.43882">
        <ele>51.468066</ele>
        <time>2023-12-30T13:18:53.000Z</time>
      </trkpt>
      <trkpt lat="43.42062" lon="3.43885">
        <ele>51.644458</ele>
        <time>2023-12-30T13:18:54.000Z</time>
      </trkpt>
      <trkpt lat="43.42062" lon="3.43888">
        <ele>51.808565</ele>
        <time>2023-12-30T13:18:55.000Z</time>
      </trkpt>
      <trkpt lat="43.42061" lon="3.4389">
        <ele>51.932374</ele>
        <time>2023-12-30T13:18:56.000Z</time>
      </trkpt>
      <trkpt lat="43.42061" lon="3.43891">
        <ele>51.977193</ele>
        <time>2023-12-30T13:18:57.000Z</time>
      </trkpt>
      <trkpt lat="43.42061" lon="3.43891">
        <ele>51.986726</ele>
        <time>2023-12-30T13:18:58.000Z</time>
      </trkpt>
      <trkpt lat="43.42061" lon="3.43891">
        <ele>51.992328</ele>
        <time>2023-12-30T13:18:59.000Z</time>
      </trkpt>
      <trkpt lat="43.42061" lon="3.43891">
        <ele>51.992328</ele>
        <time>2023-12-30T13:19:00.000Z</time>
      </trkpt>
      <trkpt lat="43.42061" lon="3.43891">
        <ele>52.000041</ele>
        <time>2023-12-30T13:19:01.000Z</time>
      </trkpt>
      <trkpt lat="43.42061" lon="3.43891">
        <ele>52.007755</ele>
        <time>2023-12-30T13:19:02.000Z</time>
      </trkpt>
      <trkpt lat="43.42061" lon="3.43891">
        <ele>52.007755</ele>
        <time>2023-12-30T13:19:03.000Z</time>
      </trkpt>
      <trkpt lat="43.42061" lon="3.43891">
        <ele>52.007755</ele>
        <time>2023-12-30T13:19:04.000Z</time>
      </trkpt>
      <trkpt lat="43.42061" lon="3.43891">
        <ele>52.007755</ele>
        <time>2023-12-30T13:19:05.000Z</time>
      </trkpt>
      <trkpt lat="43.42061" lon="3.43891">
        <ele>52.007755</ele>
        <time>2023-12-30T13:19:06.000Z</time>
      </trkpt>
      <trkpt lat="43.42061" lon="3.43891">
        <ele>52.015468</ele>
        <time>2023-12-30T13:19:07.000Z</time>
      </trkpt>
      <trkpt lat="43.42061" lon="3.43891">
        <ele>52.023181</ele>
        <time>2023-12-30T13:19:08.000Z</time>
      </trkpt>
      <trkpt lat="43.42061" lon="3.43891">
        <ele>52.030894</ele>
        <time>2023-12-30T13:19:09.000Z</time>
      </trkpt>
      <trkpt lat="43.42061" lon="3.43891">
        <ele>52.038608</ele>
        <time>2023-12-30T13:19:10.000Z</time>
      </trkpt>
      <trkpt lat="43.42061" lon="3.43891">
        <ele>52.038608</ele>
        <time>2023-12-30T13:19:11.000Z</time>
      </trkpt>
      <trkpt lat="43.42061" lon="3.43891">
        <ele>52.046321</ele>
        <time>2023-12-30T13:19:12.000Z</time>
      </trkpt>
      <trkpt lat="43.42061" lon="3.43891">
        <ele>52.054034</ele>
        <time>2023-12-30T13:19:13.000Z</time>
      </trkpt>
      <trkpt lat="43.42061" lon="3.43891">
        <ele>52.054034</ele>
        <time>2023-12-30T13:19:14.000Z</time>
      </trkpt>
      <trkpt lat="43.42061" lon="3.43891">
        <ele>52.054034</ele>
        <time>2023-12-30T13:19:15.000Z</time>
      </trkpt>
      <trkpt lat="43.42061" lon="3.43891">
        <ele>52.054034</ele>
        <time>2023-12-30T13:19:16.000Z</time>
      </trkpt>
      <trkpt lat="43.42061" lon="3.43891">
        <ele>52.054034</ele>
        <time>2023-12-30T13:19:17.000Z</time>
      </trkpt>
      <trkpt lat="43.42061" lon="3.43891">
        <ele>52.054034</ele>
        <time>2023-12-30T13:19:18.000Z</time>
      </trkpt>
      <trkpt lat="43.42061" lon="3.43891">
        <ele>52.054034</ele>
        <time>2023-12-30T13:19:19.000Z</time>
      </trkpt>
      <trkpt lat="43.42061" lon="3.43891">
        <ele>52.054034</ele>
        <time>2023-12-30T13:19:20.000Z</time>
      </trkpt>
      <trkpt lat="43.42061" lon="3.43891">
        <ele>52.054034</ele>
        <time>2023-12-30T13:19:21.000Z</time>
      </trkpt>
      <trkpt lat="43.42061" lon="3.43891">
        <ele>52.054034</ele>
        <time>2023-12-30T13:19:22.000Z</time>
      </trkpt>
      <trkpt lat="43.42061" lon="3.43891">
        <ele>52.059637</ele>
        <time>2023-12-30T13:19:23.000Z</time>
      </trkpt>
      <trkpt lat="43.42061" lon="3.43891">
        <ele>52.065239</ele>
        <time>2023-12-30T13:19:24.000Z</time>
      </trkpt>
      <trkpt lat="43.42061" lon="3.43891">
        <ele>52.065239</ele>
        <time>2023-12-30T13:19:25.000Z</time>
      </trkpt>
      <trkpt lat="43.42061" lon="3.43891">
        <ele>52.065239</ele>
        <time>2023-12-30T13:19:26.000Z</time>
      </trkpt>
      <trkpt lat="43.42061" lon="3.43891">
        <ele>52.065239</ele>
        <time>2023-12-30T13:19:27.000Z</time>
      </trkpt>
      <trkpt lat="43.42061" lon="3.43891">
        <ele>52.065239</ele>
        <time>2023-12-30T13:19:28.000Z</time>
      </trkpt>
      <trkpt lat="43.42061" lon="3.43891">
        <ele>52.065239</ele>
        <time>2023-12-30T13:19:29.000Z</time>
      </trkpt>
      <trkpt lat="43.42061" lon="3.43891">
        <ele>52.065239</ele>
        <time>2023-12-30T13:19:30.000Z</time>
      </trkpt>
      <trkpt lat="43.42061" lon="3.43891">
        <ele>52.065239</ele>
        <time>2023-12-30T13:19:31.000Z</time>
      </trkpt>
      <trkpt lat="43.42061" lon="3.43891">
        <ele>52.065239</ele>
        <time>2023-12-30T13:19:32.000Z</time>
      </trkpt>
      <trkpt lat="43.42061" lon="3.43891">
        <ele>52.065239</ele>
        <time>2023-12-30T13:19:33.000Z</time>
      </trkpt>
      <trkpt lat="43.42061" lon="3.43891">
        <ele>52.065239</ele>
        <time>2023-12-30T13:19:34.000Z</time>
      </trkpt>
      <trkpt lat="43.42061" lon="3.43891">
        <ele>52.065239</ele>
        <time>2023-12-30T13:19:35.000Z</time>
      </trkpt>
      <trkpt lat="43.42061" lon="3.43891">
        <ele>52.065239</ele>
        <time>2023-12-30T13:19:36.000Z</time>
      </trkpt>
      <trkpt lat="43.42061" lon="3.43891">
        <ele>52.065239</ele>
        <time>2023-12-30T13:19:37.000Z</time>
      </trkpt>
      <trkpt lat="43.42061" lon="3.43891">
        <ele>52.065239</ele>
        <time>2023-12-30T13:19:38.000Z</time>
      </trkpt>
      <trkpt lat="43.42061" lon="3.43891">
        <ele>52.065239</ele>
        <time>2023-12-30T13:19:39.000Z</time>
      </trkpt>
      <trkpt lat="43.42061" lon="3.43891">
        <ele>52.065239</ele>
        <time>2023-12-30T13:19:40.000Z</time>
      </trkpt>
      <trkpt lat="43.42061" lon="3.43891">
        <ele>52.065239</ele>
        <time>2023-12-30T13:19:41.000Z</time>
      </trkpt>
      <trkpt lat="43.42061" lon="3.43891">
        <ele>52.065239</ele>
        <time>2023-12-30T13:19:42.000Z</time>
      </trkpt>
      <trkpt lat="43.42061" lon="3.43891">
        <ele>52.065239</ele>
        <time>2023-12-30T13:19:43.000Z</time>
      </trkpt>
      <trkpt lat="43.42061" lon="3.43891">
        <ele>52.065239</ele>
        <time>2023-12-30T13:19:44.000Z</time>
      </trkpt>
      <trkpt lat="43.42061" lon="3.43891">
        <ele>52.065239</ele>
        <time>2023-12-30T13:19:45.000Z</time>
      </trkpt>
      <trkpt lat="43.42061" lon="3.43891">
        <ele>52.065239</ele>
        <time>2023-12-30T13:19:46.000Z</time>
      </trkpt>
      <trkpt lat="43.42061" lon="3.43891">
        <ele>52.065239</ele>
        <time>2023-12-30T13:19:47.000Z</time>
      </trkpt>
      <trkpt lat="43.42061" lon="3.43891">
        <ele>52.065239</ele>
        <time>2023-12-30T13:19:48.000Z</time>
      </trkpt>
      <trkpt lat="43.42061" lon="3.43891">
        <ele>52.065239</ele>
        <time>2023-12-30T13:19:49.000Z</time>
      </trkpt>
      <trkpt lat="43.42061" lon="3.43891">
        <ele>52.065239</ele>
        <time>2023-12-30T13:19:50.000Z</time>
      </trkpt>
      <trkpt lat="43.42061" lon="3.43891">
        <ele>52.065239</ele>
        <time>2023-12-30T13:19:51.000Z</time>
      </trkpt>
      <trkpt lat="43.42061" lon="3.43891">
        <ele>52.065239</ele>
        <time>2023-12-30T13:19:52.000Z</time>
      </trkpt>
      <trkpt lat="43.42061" lon="3.43891">
        <ele>52.065239</ele>
        <time>2023-12-30T13:19:53.000Z</time>
      </trkpt>
      <trkpt lat="43.42061" lon="3.43891">
        <ele>52.065239</ele>
        <time>2023-12-30T13:19:54.000Z</time>
      </trkpt>
      <trkpt lat="43.42061" lon="3.43891">
        <ele>52.065239</ele>
        <time>2023-12-30T13:19:55.000Z</time>
      </trkpt>
      <trkpt lat="43.42061" lon="3.43891">
        <ele>52.065239</ele>
        <time>2023-12-30T13:19:56.000Z</time>
      </trkpt>
      <trkpt lat="43.42061" lon="3.43891">
        <ele>52.065239</ele>
        <time>2023-12-30T13:19:57.000Z</time>
      </trkpt>
      <trkpt lat="43.42061" lon="3.43891">
        <ele>52.065239</ele>
        <time>2023-12-30T13:19:58.000Z</time>
      </trkpt>
      <trkpt lat="43.42061" lon="3.43891">
        <ele>52.065239</ele>
        <time>2023-12-30T13:19:59.000Z</time>
      </trkpt>
      <trkpt lat="43.42061" lon="3.43891">
        <ele>52.065239</ele>
        <time>2023-12-30T13:20:00.000Z</time>
      </trkpt>
      <trkpt lat="43.42061" lon="3.43891">
        <ele>52.065239</ele>
        <time>2023-12-30T13:20:01.000Z</time>
      </trkpt>
      <trkpt lat="43.42061" lon="3.43891">
        <ele>52.065239</ele>
        <time>2023-12-30T13:20:02.000Z</time>
      </trkpt>
      <trkpt lat="43.42061" lon="3.43891">
        <ele>52.072952</ele>
        <time>2023-12-30T13:20:03.000Z</time>
      </trkpt>
      <trkpt lat="43.42061" lon="3.4389">
        <ele>52.078554</ele>
        <time>2023-12-30T13:20:04.000Z</time>
      </trkpt>
      <trkpt lat="43.42061" lon="3.4389">
        <ele>52.078554</ele>
        <time>2023-12-30T13:20:05.000Z</time>
      </trkpt>
      <trkpt lat="43.42061" lon="3.4389">
        <ele>52.078554</ele>
        <time>2023-12-30T13:20:06.000Z</time>
      </trkpt>
      <trkpt lat="43.42061" lon="3.4389">
        <ele>52.078554</ele>
        <time>2023-12-30T13:20:07.000Z</time>
      </trkpt>
      <trkpt lat="43.42061" lon="3.4389">
        <ele>52.078554</ele>
        <time>2023-12-30T13:20:08.000Z</time>
      </trkpt>
      <trkpt lat="43.42061" lon="3.4389">
        <ele>52.084157</ele>
        <time>2023-12-30T13:20:09.000Z</time>
      </trkpt>
      <trkpt lat="43.42061" lon="3.4389">
        <ele>52.084157</ele>
        <time>2023-12-30T13:20:10.000Z</time>
      </trkpt>
      <trkpt lat="43.42061" lon="3.43891">
        <ele>52.102649</ele>
        <time>2023-12-30T13:20:11.000Z</time>
      </trkpt>
      <trkpt lat="43.4206" lon="3.43893">
        <ele>52.235499</ele>
        <time>2023-12-30T13:20:12.000Z</time>
      </trkpt>
      <trkpt lat="43.4206" lon="3.43895">
        <ele>52.346324</ele>
        <time>2023-12-30T13:20:13.000Z</time>
      </trkpt>
      <trkpt lat="43.42059" lon="3.43897">
        <ele>52.491216</ele>
        <time>2023-12-30T13:20:14.000Z</time>
      </trkpt>
      <trkpt lat="43.42058" lon="3.439">
        <ele>52.679488</ele>
        <time>2023-12-30T13:20:15.000Z</time>
      </trkpt>
      <trkpt lat="43.42057" lon="3.43903">
        <ele>52.861331</ele>
        <time>2023-12-30T13:20:16.000Z</time>
      </trkpt>
      <trkpt lat="43.42056" lon="3.43906">
        <ele>53.04856</ele>
        <time>2023-12-30T13:20:17.000Z</time>
      </trkpt>
      <trkpt lat="43.42056" lon="3.4391">
        <ele>53.237417</ele>
        <time>2023-12-30T13:20:18.000Z</time>
      </trkpt>
      <trkpt lat="43.42055" lon="3.43913">
        <ele>53.453348</ele>
        <time>2023-12-30T13:20:19.000Z</time>
      </trkpt>
      <trkpt lat="43.42053" lon="3.43917">
        <ele>53.638398</ele>
        <time>2023-12-30T13:20:20.000Z</time>
      </trkpt>
      <trkpt lat="43.42052" lon="3.4392">
        <ele>53.747864</ele>
        <time>2023-12-30T13:20:21.000Z</time>
      </trkpt>
      <trkpt lat="43.42052" lon="3.43925">
        <ele>53.877358</ele>
        <time>2023-12-30T13:20:22.000Z</time>
      </trkpt>
      <trkpt lat="43.42051" lon="3.43928">
        <ele>53.989429</ele>
        <time>2023-12-30T13:20:23.000Z</time>
      </trkpt>
      <trkpt lat="43.42049" lon="3.4393">
        <ele>54.081758</ele>
        <time>2023-12-30T13:20:24.000Z</time>
      </trkpt>
      <trkpt lat="43.42047" lon="3.43932">
        <ele>54.197183</ele>
        <time>2023-12-30T13:20:25.000Z</time>
      </trkpt>
      <trkpt lat="43.42045" lon="3.43935">
        <ele>54.304425</ele>
        <time>2023-12-30T13:20:26.000Z</time>
      </trkpt>
      <trkpt lat="43.42043" lon="3.43937">
        <ele>54.38519</ele>
        <time>2023-12-30T13:20:27.000Z</time>
      </trkpt>
      <trkpt lat="43.42042" lon="3.43938">
        <ele>54.44972</ele>
        <time>2023-12-30T13:20:28.000Z</time>
      </trkpt>
      <trkpt lat="43.42041" lon="3.4394">
        <ele>54.532603</ele>
        <time>2023-12-30T13:20:29.000Z</time>
      </trkpt>
      <trkpt lat="43.42039" lon="3.43943">
        <ele>54.638179</ele>
        <time>2023-12-30T13:20:30.000Z</time>
      </trkpt>
      <trkpt lat="43.42038" lon="3.43947">
        <ele>54.750716</ele>
        <time>2023-12-30T13:20:31.000Z</time>
      </trkpt>
      <trkpt lat="43.42037" lon="3.4395">
        <ele>54.849806</ele>
        <time>2023-12-30T13:20:32.000Z</time>
      </trkpt>
      <trkpt lat="43.42036" lon="3.43952">
        <ele>54.934594</ele>
        <time>2023-12-30T13:20:33.000Z</time>
      </trkpt>
      <trkpt lat="43.42035" lon="3.43955">
        <ele>55.027938</ele>
        <time>2023-12-30T13:20:34.000Z</time>
      </trkpt>
      <trkpt lat="43.42034" lon="3.43959">
        <ele>55.139112</ele>
        <time>2023-12-30T13:20:35.000Z</time>
      </trkpt>
      <trkpt lat="43.42033" lon="3.43962">
        <ele>55.236159</ele>
        <time>2023-12-30T13:20:36.000Z</time>
      </trkpt>
      <trkpt lat="43.42032" lon="3.43965">
        <ele>55.337481</ele>
        <time>2023-12-30T13:20:37.000Z</time>
      </trkpt>
      <trkpt lat="43.4203" lon="3.43966">
        <ele>55.43219</ele>
        <time>2023-12-30T13:20:38.000Z</time>
      </trkpt>
      <trkpt lat="43.42028" lon="3.43969">
        <ele>55.526298</ele>
        <time>2023-12-30T13:20:39.000Z</time>
      </trkpt>
      <trkpt lat="43.42026" lon="3.43971">
        <ele>55.63354</ele>
        <time>2023-12-30T13:20:40.000Z</time>
      </trkpt>
      <trkpt lat="43.42025" lon="3.43974">
        <ele>55.741849</ele>
        <time>2023-12-30T13:20:41.000Z</time>
      </trkpt>
      <trkpt lat="43.42024" lon="3.43978">
        <ele>55.846564</ele>
        <time>2023-12-30T13:20:42.000Z</time>
      </trkpt>
      <trkpt lat="43.42023" lon="3.43981">
        <ele>55.958815</ele>
        <time>2023-12-30T13:20:43.000Z</time>
      </trkpt>
      <trkpt lat="43.42022" lon="3.43985">
        <ele>56.062734</ele>
        <time>2023-12-30T13:20:44.000Z</time>
      </trkpt>
      <trkpt lat="43.42021" lon="3.43988">
        <ele>56.173909</ele>
        <time>2023-12-30T13:20:45.000Z</time>
      </trkpt>
      <trkpt lat="43.42021" lon="3.43992">
        <ele>56.290217</ele>
        <time>2023-12-30T13:20:46.000Z</time>
      </trkpt>
      <trkpt lat="43.42022" lon="3.43996">
        <ele>56.3835</ele>
        <time>2023-12-30T13:20:47.000Z</time>
      </trkpt>
      <trkpt lat="43.42023" lon="3.43999">
        <ele>56.494388</ele>
        <time>2023-12-30T13:20:48.000Z</time>
      </trkpt>
      <trkpt lat="43.42023" lon="3.44003">
        <ele>56.599371</ele>
        <time>2023-12-30T13:20:49.000Z</time>
      </trkpt>
      <trkpt lat="43.42023" lon="3.44006">
        <ele>56.705945</ele>
        <time>2023-12-30T13:20:50.000Z</time>
      </trkpt>
      <trkpt lat="43.42022" lon="3.44009">
        <ele>56.785366</ele>
        <time>2023-12-30T13:20:51.000Z</time>
      </trkpt>
      <trkpt lat="43.42022" lon="3.4401">
        <ele>56.803265</ele>
        <time>2023-12-30T13:20:52.000Z</time>
      </trkpt>
      <trkpt lat="43.42022" lon="3.44009">
        <ele>56.821165</ele>
        <time>2023-12-30T13:20:53.000Z</time>
      </trkpt>
      <trkpt lat="43.42022" lon="3.44009">
        <ele>56.821165</ele>
        <time>2023-12-30T13:20:54.000Z</time>
      </trkpt>
      <trkpt lat="43.42022" lon="3.44009">
        <ele>56.821165</ele>
        <time>2023-12-30T13:20:55.000Z</time>
      </trkpt>
      <trkpt lat="43.42022" lon="3.44009">
        <ele>56.824073</ele>
        <time>2023-12-30T13:20:56.000Z</time>
      </trkpt>
      <trkpt lat="43.42022" lon="3.44009">
        <ele>56.824073</ele>
        <time>2023-12-30T13:20:57.000Z</time>
      </trkpt>
      <trkpt lat="43.42022" lon="3.44009">
        <ele>56.824073</ele>
        <time>2023-12-30T13:20:58.000Z</time>
      </trkpt>
      <trkpt lat="43.42022" lon="3.44009">
        <ele>56.82698</ele>
        <time>2023-12-30T13:20:59.000Z</time>
      </trkpt>
      <trkpt lat="43.42022" lon="3.44009">
        <ele>56.82698</ele>
        <time>2023-12-30T13:21:00.000Z</time>
      </trkpt>
      <trkpt lat="43.42022" lon="3.44009">
        <ele>56.829888</ele>
        <time>2023-12-30T13:21:01.000Z</time>
      </trkpt>
      <trkpt lat="43.42022" lon="3.44009">
        <ele>56.832796</ele>
        <time>2023-12-30T13:21:02.000Z</time>
      </trkpt>
      <trkpt lat="43.42022" lon="3.44009">
        <ele>56.836799</ele>
        <time>2023-12-30T13:21:03.000Z</time>
      </trkpt>
      <trkpt lat="43.42022" lon="3.44009">
        <ele>56.854245</ele>
        <time>2023-12-30T13:21:04.000Z</time>
      </trkpt>
      <trkpt lat="43.42022" lon="3.44013">
        <ele>56.95343</ele>
        <time>2023-12-30T13:21:05.000Z</time>
      </trkpt>
      <trkpt lat="43.42022" lon="3.44016">
        <ele>57.043924</ele>
        <time>2023-12-30T13:21:06.000Z</time>
      </trkpt>
      <trkpt lat="43.42022" lon="3.4402">
        <ele>57.16953</ele>
        <time>2023-12-30T13:21:07.000Z</time>
      </trkpt>
      <trkpt lat="43.42022" lon="3.44023">
        <ele>57.265818</ele>
        <time>2023-12-30T13:21:08.000Z</time>
      </trkpt>
      <trkpt lat="43.42021" lon="3.44027">
        <ele>57.367555</ele>
        <time>2023-12-30T13:21:09.000Z</time>
      </trkpt>
      <trkpt lat="43.42021" lon="3.4403">
        <ele>57.475214</ele>
        <time>2023-12-30T13:21:10.000Z</time>
      </trkpt>
      <trkpt lat="43.42021" lon="3.44035">
        <ele>57.618197</ele>
        <time>2023-12-30T13:21:11.000Z</time>
      </trkpt>
      <trkpt lat="43.4202" lon="3.44039">
        <ele>57.741365</ele>
        <time>2023-12-30T13:21:12.000Z</time>
      </trkpt>
      <trkpt lat="43.4202" lon="3.44044">
        <ele>57.885241</ele>
        <time>2023-12-30T13:21:13.000Z</time>
      </trkpt>
      <trkpt lat="43.42019" lon="3.44049">
        <ele>58.00841</ele>
        <time>2023-12-30T13:21:14.000Z</time>
      </trkpt>
      <trkpt lat="43.4202" lon="3.44053">
        <ele>58.150943</ele>
        <time>2023-12-30T13:21:15.000Z</time>
      </trkpt>
      <trkpt lat="43.4202" lon="3.44057">
        <ele>58.258826</ele>
        <time>2023-12-30T13:21:16.000Z</time>
      </trkpt>
      <trkpt lat="43.4202" lon="3.4406">
        <ele>58.341801</ele>
        <time>2023-12-30T13:21:17.000Z</time>
      </trkpt>
      <trkpt lat="43.42021" lon="3.44063">
        <ele>58.428467</ele>
        <time>2023-12-30T13:21:18.000Z</time>
      </trkpt>
      <trkpt lat="43.42021" lon="3.44066">
        <ele>58.532186</ele>
        <time>2023-12-30T13:21:19.000Z</time>
      </trkpt>
      <trkpt lat="43.42021" lon="3.4407">
        <ele>58.650948</ele>
        <time>2023-12-30T13:21:20.000Z</time>
      </trkpt>
      <trkpt lat="43.42019" lon="3.44075">
        <ele>58.797184</ele>
        <time>2023-12-30T13:21:21.000Z</time>
      </trkpt>
      <trkpt lat="43.42018" lon="3.44078">
        <ele>58.895812</ele>
        <time>2023-12-30T13:21:22.000Z</time>
      </trkpt>
      <trkpt lat="43.42017" lon="3.4408">
        <ele>58.95878</ele>
        <time>2023-12-30T13:21:23.000Z</time>
      </trkpt>
      <trkpt lat="43.42017" lon="3.44081">
        <ele>59.004142</ele>
        <time>2023-12-30T13:21:24.000Z</time>
      </trkpt>
      <trkpt lat="43.42017" lon="3.44083">
        <ele>59.065335</ele>
        <time>2023-12-30T13:21:25.000Z</time>
      </trkpt>
      <trkpt lat="43.42018" lon="3.44086">
        <ele>59.157033</ele>
        <time>2023-12-30T13:21:26.000Z</time>
      </trkpt>
      <trkpt lat="43.42019" lon="3.44089">
        <ele>59.259973</ele>
        <time>2023-12-30T13:21:27.000Z</time>
      </trkpt>
      <trkpt lat="43.42019" lon="3.44092">
        <ele>59.35302</ele>
        <time>2023-12-30T13:21:28.000Z</time>
      </trkpt>
      <trkpt lat="43.42018" lon="3.44095">
        <ele>59.436006</ele>
        <time>2023-12-30T13:21:29.000Z</time>
      </trkpt>
      <trkpt lat="43.42017" lon="3.44098">
        <ele>59.524132</ele>
        <time>2023-12-30T13:21:30.000Z</time>
      </trkpt>
      <trkpt lat="43.42017" lon="3.441">
        <ele>59.59953</ele>
        <time>2023-12-30T13:21:31.000Z</time>
      </trkpt>
      <trkpt lat="43.42018" lon="3.44102">
        <ele>59.68427</ele>
        <time>2023-12-30T13:21:32.000Z</time>
      </trkpt>
      <trkpt lat="43.4202" lon="3.44104">
        <ele>59.77409</ele>
        <time>2023-12-30T13:21:33.000Z</time>
      </trkpt>
      <trkpt lat="43.42022" lon="3.44105">
        <ele>59.850568</ele>
        <time>2023-12-30T13:21:34.000Z</time>
      </trkpt>
      <trkpt lat="43.42023" lon="3.44107">
        <ele>59.924377</ele>
        <time>2023-12-30T13:21:35.000Z</time>
      </trkpt>
      <trkpt lat="43.42025" lon="3.44109">
        <ele>60.005142</ele>
        <time>2023-12-30T13:21:36.000Z</time>
      </trkpt>
      <trkpt lat="43.42026" lon="3.44111">
        <ele>60.083182</ele>
        <time>2023-12-30T13:21:37.000Z</time>
      </trkpt>
      <trkpt lat="43.42027" lon="3.44113">
        <ele>60.153831</ele>
        <time>2023-12-30T13:21:38.000Z</time>
      </trkpt>
      <trkpt lat="43.42028" lon="3.44115">
        <ele>60.219788</ele>
        <time>2023-12-30T13:21:39.000Z</time>
      </trkpt>
      <trkpt lat="43.42029" lon="3.44116">
        <ele>60.274745</ele>
        <time>2023-12-30T13:21:40.000Z</time>
      </trkpt>
      <trkpt lat="43.42029" lon="3.44117">
        <ele>60.295926</ele>
        <time>2023-12-30T13:21:41.000Z</time>
      </trkpt>
      <trkpt lat="43.42029" lon="3.44117">
        <ele>60.310464</ele>
        <time>2023-12-30T13:21:42.000Z</time>
      </trkpt>
      <trkpt lat="43.42029" lon="3.44117">
        <ele>60.310464</ele>
        <time>2023-12-30T13:21:43.000Z</time>
      </trkpt>
      <trkpt lat="43.42029" lon="3.44117">
        <ele>60.310464</ele>
        <time>2023-12-30T13:21:44.000Z</time>
      </trkpt>
      <trkpt lat="43.42029" lon="3.44117">
        <ele>60.310464</ele>
        <time>2023-12-30T13:21:45.000Z</time>
      </trkpt>
      <trkpt lat="43.42029" lon="3.44117">
        <ele>60.310464</ele>
        <time>2023-12-30T13:21:46.000Z</time>
      </trkpt>
      <trkpt lat="43.42029" lon="3.44117">
        <ele>60.310464</ele>
        <time>2023-12-30T13:21:47.000Z</time>
      </trkpt>
      <trkpt lat="43.42029" lon="3.44117">
        <ele>60.310464</ele>
        <time>2023-12-30T13:21:48.000Z</time>
      </trkpt>
      <trkpt lat="43.42029" lon="3.44117">
        <ele>60.310464</ele>
        <time>2023-12-30T13:21:49.000Z</time>
      </trkpt>
      <trkpt lat="43.42029" lon="3.44117">
        <ele>60.310464</ele>
        <time>2023-12-30T13:21:50.000Z</time>
      </trkpt>
      <trkpt lat="43.42029" lon="3.44117">
        <ele>60.310464</ele>
        <time>2023-12-30T13:21:51.000Z</time>
      </trkpt>
      <trkpt lat="43.42029" lon="3.44117">
        <ele>60.310464</ele>
        <time>2023-12-30T13:21:52.000Z</time>
      </trkpt>
      <trkpt lat="43.42029" lon="3.44117">
        <ele>60.310464</ele>
        <time>2023-12-30T13:21:53.000Z</time>
      </trkpt>
      <trkpt lat="43.42029" lon="3.44117">
        <ele>60.310464</ele>
        <time>2023-12-30T13:21:54.000Z</time>
      </trkpt>
      <trkpt lat="43.42029" lon="3.44117">
        <ele>60.310464</ele>
        <time>2023-12-30T13:21:55.000Z</time>
      </trkpt>
      <trkpt lat="43.42029" lon="3.44117">
        <ele>60.310464</ele>
        <time>2023-12-30T13:21:56.000Z</time>
      </trkpt>
      <trkpt lat="43.42029" lon="3.44117">
        <ele>60.310464</ele>
        <time>2023-12-30T13:21:57.000Z</time>
      </trkpt>
      <trkpt lat="43.42029" lon="3.44117">
        <ele>60.310464</ele>
        <time>2023-12-30T13:21:58.000Z</time>
      </trkpt>
      <trkpt lat="43.42029" lon="3.44117">
        <ele>60.310464</ele>
        <time>2023-12-30T13:21:59.000Z</time>
      </trkpt>
      <trkpt lat="43.42029" lon="3.44117">
        <ele>60.310464</ele>
        <time>2023-12-30T13:22:00.000Z</time>
      </trkpt>
      <trkpt lat="43.42029" lon="3.44117">
        <ele>60.310464</ele>
        <time>2023-12-30T13:22:01.000Z</time>
      </trkpt>
      <trkpt lat="43.42029" lon="3.44117">
        <ele>60.310464</ele>
        <time>2023-12-30T13:22:02.000Z</time>
      </trkpt>
      <trkpt lat="43.42029" lon="3.44117">
        <ele>60.310464</ele>
        <time>2023-12-30T13:22:03.000Z</time>
      </trkpt>
      <trkpt lat="43.42029" lon="3.44117">
        <ele>60.310464</ele>
        <time>2023-12-30T13:22:04.000Z</time>
      </trkpt>
      <trkpt lat="43.42029" lon="3.44117">
        <ele>60.310464</ele>
        <time>2023-12-30T13:22:05.000Z</time>
      </trkpt>
      <trkpt lat="43.42029" lon="3.44117">
        <ele>60.310464</ele>
        <time>2023-12-30T13:22:06.000Z</time>
      </trkpt>
      <trkpt lat="43.42029" lon="3.44117">
        <ele>60.310464</ele>
        <time>2023-12-30T13:22:07.000Z</time>
      </trkpt>
      <trkpt lat="43.42029" lon="3.44117">
        <ele>60.310464</ele>
        <time>2023-12-30T13:22:08.000Z</time>
      </trkpt>
      <trkpt lat="43.42029" lon="3.44117">
        <ele>60.310464</ele>
        <time>2023-12-30T13:22:09.000Z</time>
      </trkpt>
      <trkpt lat="43.42029" lon="3.44117">
        <ele>60.310464</ele>
        <time>2023-12-30T13:22:10.000Z</time>
      </trkpt>
      <trkpt lat="43.42029" lon="3.44117">
        <ele>60.310464</ele>
        <time>2023-12-30T13:22:11.000Z</time>
      </trkpt>
      <trkpt lat="43.42029" lon="3.44117">
        <ele>60.310464</ele>
        <time>2023-12-30T13:22:12.000Z</time>
      </trkpt>
      <trkpt lat="43.42029" lon="3.44117">
        <ele>60.310464</ele>
        <time>2023-12-30T13:22:13.000Z</time>
      </trkpt>
      <trkpt lat="43.42029" lon="3.44117">
        <ele>60.310464</ele>
        <time>2023-12-30T13:22:14.000Z</time>
      </trkpt>
      <trkpt lat="43.42029" lon="3.44117">
        <ele>60.310464</ele>
        <time>2023-12-30T13:22:15.000Z</time>
      </trkpt>
      <trkpt lat="43.42029" lon="3.44117">
        <ele>60.310464</ele>
        <time>2023-12-30T13:22:16.000Z</time>
      </trkpt>
      <trkpt lat="43.42029" lon="3.44117">
        <ele>60.310464</ele>
        <time>2023-12-30T13:22:17.000Z</time>
      </trkpt>
      <trkpt lat="43.42029" lon="3.44117">
        <ele>60.310464</ele>
        <time>2023-12-30T13:22:18.000Z</time>
      </trkpt>
      <trkpt lat="43.42029" lon="3.44117">
        <ele>60.310464</ele>
        <time>2023-12-30T13:22:19.000Z</time>
      </trkpt>
      <trkpt lat="43.42029" lon="3.44117">
        <ele>60.310464</ele>
        <time>2023-12-30T13:22:20.000Z</time>
      </trkpt>
      <trkpt lat="43.42029" lon="3.44117">
        <ele>60.310464</ele>
        <time>2023-12-30T13:22:21.000Z</time>
      </trkpt>
      <trkpt lat="43.42029" lon="3.44117">
        <ele>60.310464</ele>
        <time>2023-12-30T13:22:22.000Z</time>
      </trkpt>
      <trkpt lat="43.42029" lon="3.44117">
        <ele>60.310464</ele>
        <time>2023-12-30T13:22:23.000Z</time>
      </trkpt>
      <trkpt lat="43.42029" lon="3.44117">
        <ele>60.310464</ele>
        <time>2023-12-30T13:22:24.000Z</time>
      </trkpt>
      <trkpt lat="43.42029" lon="3.44117">
        <ele>60.310464</ele>
        <time>2023-12-30T13:22:25.000Z</time>
      </trkpt>
      <trkpt lat="43.42029" lon="3.44117">
        <ele>60.310464</ele>
        <time>2023-12-30T13:22:26.000Z</time>
      </trkpt>
      <trkpt lat="43.42029" lon="3.44117">
        <ele>60.310464</ele>
        <time>2023-12-30T13:22:27.000Z</time>
      </trkpt>
      <trkpt lat="43.42029" lon="3.44117">
        <ele>60.310464</ele>
        <time>2023-12-30T13:22:28.000Z</time>
      </trkpt>
      <trkpt lat="43.42029" lon="3.44117">
        <ele>60.310464</ele>
        <time>2023-12-30T13:22:29.000Z</time>
      </trkpt>
      <trkpt lat="43.42029" lon="3.44117">
        <ele>60.310464</ele>
        <time>2023-12-30T13:22:30.000Z</time>
      </trkpt>
      <trkpt lat="43.42029" lon="3.44117">
        <ele>60.310464</ele>
        <time>2023-12-30T13:22:31.000Z</time>
      </trkpt>
      <trkpt lat="43.42029" lon="3.44117">
        <ele>60.310464</ele>
        <time>2023-12-30T13:22:32.000Z</time>
      </trkpt>
      <trkpt lat="43.42029" lon="3.44117">
        <ele>60.310464</ele>
        <time>2023-12-30T13:22:33.000Z</time>
      </trkpt>
      <trkpt lat="43.42029" lon="3.44117">
        <ele>60.310464</ele>
        <time>2023-12-30T13:22:34.000Z</time>
      </trkpt>
      <trkpt lat="43.42029" lon="3.44117">
        <ele>60.314467</ele>
        <time>2023-12-30T13:22:35.000Z</time>
      </trkpt>
      <trkpt lat="43.42029" lon="3.44117">
        <ele>60.314467</ele>
        <time>2023-12-30T13:22:36.000Z</time>
      </trkpt>
      <trkpt lat="43.42029" lon="3.44117">
        <ele>60.318471</ele>
        <time>2023-12-30T13:22:37.000Z</time>
      </trkpt>
      <trkpt lat="43.42029" lon="3.44117">
        <ele>60.322474</ele>
        <time>2023-12-30T13:22:38.000Z</time>
      </trkpt>
      <trkpt lat="43.42029" lon="3.44117">
        <ele>60.322474</ele>
        <time>2023-12-30T13:22:39.000Z</time>
      </trkpt>
      <trkpt lat="43.42029" lon="3.44117">
        <ele>60.322474</ele>
        <time>2023-12-30T13:22:40.000Z</time>
      </trkpt>
      <trkpt lat="43.42029" lon="3.44117">
        <ele>60.322474</ele>
        <time>2023-12-30T13:22:41.000Z</time>
      </trkpt>
      <trkpt lat="43.42029" lon="3.44117">
        <ele>60.322474</ele>
        <time>2023-12-30T13:22:42.000Z</time>
      </trkpt>
      <trkpt lat="43.42029" lon="3.44117">
        <ele>60.326477</ele>
        <time>2023-12-30T13:22:43.000Z</time>
      </trkpt>
      <trkpt lat="43.42029" lon="3.44117">
        <ele>60.329385</ele>
        <time>2023-12-30T13:22:44.000Z</time>
      </trkpt>
      <trkpt lat="43.42029" lon="3.44117">
        <ele>60.3352</ele>
        <time>2023-12-30T13:22:45.000Z</time>
      </trkpt>
      <trkpt lat="43.42029" lon="3.44119">
        <ele>60.384793</ele>
        <time>2023-12-30T13:22:46.000Z</time>
      </trkpt>
      <trkpt lat="43.42029" lon="3.44121">
        <ele>60.445111</ele>
        <time>2023-12-30T13:22:47.000Z</time>
      </trkpt>
      <trkpt lat="43.4203" lon="3.44124">
        <ele>60.519546</ele>
        <time>2023-12-30T13:22:48.000Z</time>
      </trkpt>
      <trkpt lat="43.4203" lon="3.44127">
        <ele>60.609044</ele>
        <time>2023-12-30T13:22:49.000Z</time>
      </trkpt>
      <trkpt lat="43.42031" lon="3.4413">
        <ele>60.707672</ele>
        <time>2023-12-30T13:22:50.000Z</time>
      </trkpt>
      <trkpt lat="43.42032" lon="3.44132">
        <ele>60.792393</ele>
        <time>2023-12-30T13:22:51.000Z</time>
      </trkpt>
      <trkpt lat="43.42033" lon="3.44135">
        <ele>60.593501</ele>
        <time>2023-12-30T13:22:52.000Z</time>
      </trkpt>
      <trkpt lat="43.42034" lon="3.44138">
        <ele>60.409301</ele>
        <time>2023-12-30T13:22:53.000Z</time>
      </trkpt>
      <trkpt lat="43.42035" lon="3.44141">
        <ele>60.206214</ele>
        <time>2023-12-30T13:22:54.000Z</time>
      </trkpt>
      <trkpt lat="43.42035" lon="3.44144">
        <ele>60.028013</ele>
        <time>2023-12-30T13:22:55.000Z</time>
      </trkpt>
      <trkpt lat="43.42036" lon="3.44147">
        <ele>59.774984</ele>
        <time>2023-12-30T13:22:56.000Z</time>
      </trkpt>
      <trkpt lat="43.42036" lon="3.44151">
        <ele>59.54839</ele>
        <time>2023-12-30T13:22:57.000Z</time>
      </trkpt>
      <trkpt lat="43.42037" lon="3.44154">
        <ele>59.313728</ele>
        <time>2023-12-30T13:22:58.000Z</time>
      </trkpt>
      <trkpt lat="43.42038" lon="3.44158">
        <ele>59.065026</ele>
        <time>2023-12-30T13:22:59.000Z</time>
      </trkpt>
      <trkpt lat="43.42039" lon="3.44163">
        <ele>58.770423</ele>
        <time>2023-12-30T13:23:00.000Z</time>
      </trkpt>
      <trkpt lat="43.4204" lon="3.44167">
        <ele>58.494834</ele>
        <time>2023-12-30T13:23:01.000Z</time>
      </trkpt>
      <trkpt lat="43.4204" lon="3.44171">
        <ele>58.214803</ele>
        <time>2023-12-30T13:23:02.000Z</time>
      </trkpt>
      <trkpt lat="43.4204" lon="3.44176">
        <ele>57.920086</ele>
        <time>2023-12-30T13:23:03.000Z</time>
      </trkpt>
      <trkpt lat="43.42039" lon="3.4418">
        <ele>57.660509</ele>
        <time>2023-12-30T13:23:04.000Z</time>
      </trkpt>
      <trkpt lat="43.42039" lon="3.44184">
        <ele>57.370428</ele>
        <time>2023-12-30T13:23:05.000Z</time>
      </trkpt>
      <trkpt lat="43.42038" lon="3.44189">
        <ele>57.076107</ele>
        <time>2023-12-30T13:23:06.000Z</time>
      </trkpt>
      <trkpt lat="43.42037" lon="3.44193">
        <ele>56.771432</ele>
        <time>2023-12-30T13:23:07.000Z</time>
      </trkpt>
      <trkpt lat="43.42036" lon="3.44198">
        <ele>56.468926</ele>
        <time>2023-12-30T13:23:08.000Z</time>
      </trkpt>
      <trkpt lat="43.42036" lon="3.44202">
        <ele>56.210696</ele>
        <time>2023-12-30T13:23:09.000Z</time>
      </trkpt>
      <trkpt lat="43.42035" lon="3.44205">
        <ele>55.970005</ele>
        <time>2023-12-30T13:23:10.000Z</time>
      </trkpt>
      <trkpt lat="43.42034" lon="3.44208">
        <ele>55.793885</ele>
        <time>2023-12-30T13:23:11.000Z</time>
      </trkpt>
      <trkpt lat="43.42034" lon="3.44211">
        <ele>55.576441</ele>
        <time>2023-12-30T13:23:12.000Z</time>
      </trkpt>
      <trkpt lat="43.42035" lon="3.44216">
        <ele>55.293805</ele>
        <time>2023-12-30T13:23:13.000Z</time>
      </trkpt>
      <trkpt lat="43.42035" lon="3.44221">
        <ele>54.960777</ele>
        <time>2023-12-30T13:23:14.000Z</time>
      </trkpt>
      <trkpt lat="43.42035" lon="3.44226">
        <ele>54.628098</ele>
        <time>2023-12-30T13:23:15.000Z</time>
      </trkpt>
      <trkpt lat="43.42035" lon="3.44231">
        <ele>54.292634</ele>
        <time>2023-12-30T13:23:16.000Z</time>
      </trkpt>
      <trkpt lat="43.42036" lon="3.44236">
        <ele>53.971774</ele>
        <time>2023-12-30T13:23:17.000Z</time>
      </trkpt>
      <trkpt lat="43.42036" lon="3.44242">
        <ele>53.606279</ele>
        <time>2023-12-30T13:23:18.000Z</time>
      </trkpt>
      <trkpt lat="43.42038" lon="3.44247">
        <ele>53.256671</ele>
        <time>2023-12-30T13:23:19.000Z</time>
      </trkpt>
      <trkpt lat="43.4204" lon="3.44251">
        <ele>52.9149</ele>
        <time>2023-12-30T13:23:20.000Z</time>
      </trkpt>
      <trkpt lat="43.42041" lon="3.44257">
        <ele>52.531529</ele>
        <time>2023-12-30T13:23:21.000Z</time>
      </trkpt>
      <trkpt lat="43.42041" lon="3.44262">
        <ele>52.205244</ele>
        <time>2023-12-30T13:23:22.000Z</time>
      </trkpt>
      <trkpt lat="43.42041" lon="3.44266">
        <ele>51.958262</ele>
        <time>2023-12-30T13:23:23.000Z</time>
      </trkpt>
      <trkpt lat="43.42042" lon="3.44268">
        <ele>51.758713</ele>
        <time>2023-12-30T13:23:24.000Z</time>
      </trkpt>
      <trkpt lat="43.42043" lon="3.44271">
        <ele>51.530662</ele>
        <time>2023-12-30T13:23:25.000Z</time>
      </trkpt>
      <trkpt lat="43.42044" lon="3.44276">
        <ele>51.244469</ele>
        <time>2023-12-30T13:23:26.000Z</time>
      </trkpt>
      <trkpt lat="43.42043" lon="3.44281">
        <ele>50.91253</ele>
        <time>2023-12-30T13:23:27.000Z</time>
      </trkpt>
      <trkpt lat="43.42042" lon="3.44285">
        <ele>50.62983</ele>
        <time>2023-12-30T13:23:28.000Z</time>
      </trkpt>
      <trkpt lat="43.42042" lon="3.44289">
        <ele>50.379788</ele>
        <time>2023-12-30T13:23:29.000Z</time>
      </trkpt>
      <trkpt lat="43.42043" lon="3.44292">
        <ele>50.127306</ele>
        <time>2023-12-30T13:23:30.000Z</time>
      </trkpt>
      <trkpt lat="43.42045" lon="3.44295">
        <ele>49.906673</ele>
        <time>2023-12-30T13:23:31.000Z</time>
      </trkpt>
      <trkpt lat="43.42046" lon="3.44297">
        <ele>49.692277</ele>
        <time>2023-12-30T13:23:32.000Z</time>
      </trkpt>
      <trkpt lat="43.42049" lon="3.443">
        <ele>49.398447</ele>
        <time>2023-12-30T13:23:33.000Z</time>
      </trkpt>
      <trkpt lat="43.4205" lon="3.44303">
        <ele>49.220246</ele>
        <time>2023-12-30T13:23:34.000Z</time>
      </trkpt>
      <trkpt lat="43.42049" lon="3.44306">
        <ele>48.99839</ele>
        <time>2023-12-30T13:23:35.000Z</time>
      </trkpt>
      <trkpt lat="43.42047" lon="3.4431">
        <ele>48.724121</ele>
        <time>2023-12-30T13:23:36.000Z</time>
      </trkpt>
      <trkpt lat="43.42046" lon="3.44314">
        <ele>48.423539</ele>
        <time>2023-12-30T13:23:37.000Z</time>
      </trkpt>
      <trkpt lat="43.42045" lon="3.44318">
        <ele>48.110456</ele>
        <time>2023-12-30T13:23:38.000Z</time>
      </trkpt>
      <trkpt lat="43.42044" lon="3.44324">
        <ele>47.737051</ele>
        <time>2023-12-30T13:23:39.000Z</time>
      </trkpt>
      <trkpt lat="43.42043" lon="3.44329">
        <ele>47.394001</ele>
        <time>2023-12-30T13:23:40.000Z</time>
      </trkpt>
      <trkpt lat="43.42043" lon="3.44334">
        <ele>47.118998</ele>
        <time>2023-12-30T13:23:41.000Z</time>
      </trkpt>
      <trkpt lat="43.42043" lon="3.44338">
        <ele>46.829057</ele>
        <time>2023-12-30T13:23:42.000Z</time>
      </trkpt>
      <trkpt lat="43.42043" lon="3.44343">
        <ele>46.51126</ele>
        <time>2023-12-30T13:23:43.000Z</time>
      </trkpt>
      <trkpt lat="43.42041" lon="3.44347">
        <ele>46.236827</ele>
        <time>2023-12-30T13:23:44.000Z</time>
      </trkpt>
      <trkpt lat="43.4204" lon="3.44351">
        <ele>45.929612</ele>
        <time>2023-12-30T13:23:45.000Z</time>
      </trkpt>
      <trkpt lat="43.42039" lon="3.44355">
        <ele>45.665104</ele>
        <time>2023-12-30T13:23:46.000Z</time>
      </trkpt>
      <trkpt lat="43.42038" lon="3.4436">
        <ele>45.37276</ele>
        <time>2023-12-30T13:23:47.000Z</time>
      </trkpt>
      <trkpt lat="43.42037" lon="3.44364">
        <ele>45.065545</ele>
        <time>2023-12-30T13:23:48.000Z</time>
      </trkpt>
      <trkpt lat="43.42036" lon="3.44368">
        <ele>44.952683</ele>
        <time>2023-12-30T13:23:49.000Z</time>
      </trkpt>
      <trkpt lat="43.42034" lon="3.44372">
        <ele>44.941061</ele>
        <time>2023-12-30T13:23:50.000Z</time>
      </trkpt>
      <trkpt lat="43.42032" lon="3.44375">
        <ele>44.930406</ele>
        <time>2023-12-30T13:23:51.000Z</time>
      </trkpt>
      <trkpt lat="43.4203" lon="3.44378">
        <ele>44.918544</ele>
        <time>2023-12-30T13:23:52.000Z</time>
      </trkpt>
      <trkpt lat="43.42027" lon="3.44381">
        <ele>44.907894</ele>
        <time>2023-12-30T13:23:53.000Z</time>
      </trkpt>
      <trkpt lat="43.42025" lon="3.44383">
        <ele>44.898523</ele>
        <time>2023-12-30T13:23:54.000Z</time>
      </trkpt>
      <trkpt lat="43.42024" lon="3.44385">
        <ele>44.891339</ele>
        <time>2023-12-30T13:23:55.000Z</time>
      </trkpt>
      <trkpt lat="43.42023" lon="3.44387">
        <ele>44.885513</ele>
        <time>2023-12-30T13:23:56.000Z</time>
      </trkpt>
      <trkpt lat="43.42023" lon="3.44389">
        <ele>44.878651</ele>
        <time>2023-12-30T13:23:57.000Z</time>
      </trkpt>
      <trkpt lat="43.42025" lon="3.44393">
        <ele>44.869185</ele>
        <time>2023-12-30T13:23:58.000Z</time>
      </trkpt>
      <trkpt lat="43.42026" lon="3.44396">
        <ele>44.859493</ele>
        <time>2023-12-30T13:23:59.000Z</time>
      </trkpt>
      <trkpt lat="43.42027" lon="3.44399">
        <ele>44.852203</ele>
        <time>2023-12-30T13:24:00.000Z</time>
      </trkpt>
      <trkpt lat="43.42026" lon="3.44401">
        <ele>44.844913</ele>
        <time>2023-12-30T13:24:01.000Z</time>
      </trkpt>
      <trkpt lat="43.42025" lon="3.44403">
        <ele>44.837361</ele>
        <time>2023-12-30T13:24:02.000Z</time>
      </trkpt>
      <trkpt lat="43.42023" lon="3.44405">
        <ele>44.83032</ele>
        <time>2023-12-30T13:24:03.000Z</time>
      </trkpt>
      <trkpt lat="43.42021" lon="3.44406">
        <ele>44.822026</ele>
        <time>2023-12-30T13:24:04.000Z</time>
      </trkpt>
      <trkpt lat="43.42019" lon="3.44407">
        <ele>44.814281</ele>
        <time>2023-12-30T13:24:05.000Z</time>
      </trkpt>
      <trkpt lat="43.42018" lon="3.44407">
        <ele>44.811911</ele>
        <time>2023-12-30T13:24:06.000Z</time>
      </trkpt>
      <trkpt lat="43.42018" lon="3.44408">
        <ele>44.81086</ele>
        <time>2023-12-30T13:24:07.000Z</time>
      </trkpt>
      <trkpt lat="43.42018" lon="3.44408">
        <ele>44.810421</ele>
        <time>2023-12-30T13:24:08.000Z</time>
      </trkpt>
      <trkpt lat="43.42018" lon="3.44408">
        <ele>44.810421</ele>
        <time>2023-12-30T13:24:09.000Z</time>
      </trkpt>
      <trkpt lat="43.42018" lon="3.44408">
        <ele>44.810065</ele>
        <time>2023-12-30T13:24:10.000Z</time>
      </trkpt>
      <trkpt lat="43.42018" lon="3.44408">
        <ele>44.80971</ele>
        <time>2023-12-30T13:24:11.000Z</time>
      </trkpt>
      <trkpt lat="43.42018" lon="3.44408">
        <ele>44.80971</ele>
        <time>2023-12-30T13:24:12.000Z</time>
      </trkpt>
      <trkpt lat="43.42018" lon="3.44408">
        <ele>44.80971</ele>
        <time>2023-12-30T13:24:13.000Z</time>
      </trkpt>
      <trkpt lat="43.42018" lon="3.44408">
        <ele>44.80971</ele>
        <time>2023-12-30T13:24:14.000Z</time>
      </trkpt>
      <trkpt lat="43.42018" lon="3.44408">
        <ele>44.80971</ele>
        <time>2023-12-30T13:24:15.000Z</time>
      </trkpt>
      <trkpt lat="43.42018" lon="3.44408">
        <ele>44.809451</ele>
        <time>2023-12-30T13:24:16.000Z</time>
      </trkpt>
      <trkpt lat="43.42018" lon="3.44408">
        <ele>44.809451</ele>
        <time>2023-12-30T13:24:17.000Z</time>
      </trkpt>
      <trkpt lat="43.42018" lon="3.44408">
        <ele>44.809451</ele>
        <time>2023-12-30T13:24:18.000Z</time>
      </trkpt>
      <trkpt lat="43.42018" lon="3.44408">
        <ele>44.809451</ele>
        <time>2023-12-30T13:24:19.000Z</time>
      </trkpt>
      <trkpt lat="43.42018" lon="3.44407">
        <ele>44.809193</ele>
        <time>2023-12-30T13:24:20.000Z</time>
      </trkpt>
      <trkpt lat="43.42018" lon="3.44407">
        <ele>44.809193</ele>
        <time>2023-12-30T13:24:21.000Z</time>
      </trkpt>
      <trkpt lat="43.42018" lon="3.44407">
        <ele>44.808838</ele>
        <time>2023-12-30T13:24:22.000Z</time>
      </trkpt>
      <trkpt lat="43.42017" lon="3.44407">
        <ele>44.804503</ele>
        <time>2023-12-30T13:24:23.000Z</time>
      </trkpt>
      <trkpt lat="43.42015" lon="3.44408">
        <ele>44.798686</ele>
        <time>2023-12-30T13:24:24.000Z</time>
      </trkpt>
      <trkpt lat="43.42013" lon="3.44409">
        <ele>44.789666</ele>
        <time>2023-12-30T13:24:25.000Z</time>
      </trkpt>
      <trkpt lat="43.4201" lon="3.44409">
        <ele>44.780597</ele>
        <time>2023-12-30T13:24:26.000Z</time>
      </trkpt>
      <trkpt lat="43.42008" lon="3.44411">
        <ele>44.771521</ele>
        <time>2023-12-30T13:24:27.000Z</time>
      </trkpt>
      <trkpt lat="43.42006" lon="3.44412">
        <ele>44.763535</ele>
        <time>2023-12-30T13:24:28.000Z</time>
      </trkpt>
      <trkpt lat="43.42004" lon="3.44413">
        <ele>44.755452</ele>
        <time>2023-12-30T13:24:29.000Z</time>
      </trkpt>
      <trkpt lat="43.42001" lon="3.44415">
        <ele>44.745541</ele>
        <time>2023-12-30T13:24:30.000Z</time>
      </trkpt>
      <trkpt lat="43.41999" lon="3.44416">
        <ele>44.736042</ele>
        <time>2023-12-30T13:24:31.000Z</time>
      </trkpt>
      <trkpt lat="43.41996" lon="3.44417">
        <ele>44.727387</ele>
        <time>2023-12-30T13:24:32.000Z</time>
      </trkpt>
      <trkpt lat="43.41994" lon="3.44418">
        <ele>44.719525</ele>
        <time>2023-12-30T13:24:33.000Z</time>
      </trkpt>
      <trkpt lat="43.41992" lon="3.4442">
        <ele>44.71174</ele>
        <time>2023-12-30T13:24:34.000Z</time>
      </trkpt>
      <trkpt lat="43.41991" lon="3.44421">
        <ele>44.704515</ele>
        <time>2023-12-30T13:24:35.000Z</time>
      </trkpt>
      <trkpt lat="43.41988" lon="3.44422">
        <ele>44.695772</ele>
        <time>2023-12-30T13:24:36.000Z</time>
      </trkpt>
      <trkpt lat="43.41986" lon="3.44424">
        <ele>44.687478</ele>
        <time>2023-12-30T13:24:37.000Z</time>
      </trkpt>
      <trkpt lat="43.41984" lon="3.44425">
        <ele>44.679067</ele>
        <time>2023-12-30T13:24:38.000Z</time>
      </trkpt>
      <trkpt lat="43.41982" lon="3.44426">
        <ele>44.67239</ele>
        <time>2023-12-30T13:24:39.000Z</time>
      </trkpt>
      <trkpt lat="43.4198" lon="3.44427">
        <ele>44.664635</ele>
        <time>2023-12-30T13:24:40.000Z</time>
      </trkpt>
      <trkpt lat="43.41979" lon="3.44429">
        <ele>44.657166</ele>
        <time>2023-12-30T13:24:41.000Z</time>
      </trkpt>
      <trkpt lat="43.41977" lon="3.4443">
        <ele>44.649305</ele>
        <time>2023-12-30T13:24:42.000Z</time>
      </trkpt>
      <trkpt lat="43.41975" lon="3.44431">
        <ele>44.642405</ele>
        <time>2023-12-30T13:24:43.000Z</time>
      </trkpt>
      <trkpt lat="43.41973" lon="3.44432">
        <ele>44.635598</ele>
        <time>2023-12-30T13:24:44.000Z</time>
      </trkpt>
      <trkpt lat="43.41972" lon="3.44433">
        <ele>44.629557</ele>
        <time>2023-12-30T13:24:45.000Z</time>
      </trkpt>
      <trkpt lat="43.4197" lon="3.44434">
        <ele>44.6232</ele>
        <time>2023-12-30T13:24:46.000Z</time>
      </trkpt>
      <trkpt lat="43.41968" lon="3.44435">
        <ele>44.616617</ele>
        <time>2023-12-30T13:24:47.000Z</time>
      </trkpt>
      <trkpt lat="43.41967" lon="3.44436">
        <ele>44.611655</ele>
        <time>2023-12-30T13:24:48.000Z</time>
      </trkpt>
      <trkpt lat="43.41966" lon="3.44436">
        <ele>44.606781</ele>
        <time>2023-12-30T13:24:49.000Z</time>
      </trkpt>
      <trkpt lat="43.41964" lon="3.44437">
        <ele>44.602737</ele>
        <time>2023-12-30T13:24:50.000Z</time>
      </trkpt>
      <trkpt lat="43.41963" lon="3.44437">
        <ele>44.597939</ele>
        <time>2023-12-30T13:24:51.000Z</time>
      </trkpt>
      <trkpt lat="43.41962" lon="3.44438">
        <ele>44.594062</ele>
        <time>2023-12-30T13:24:52.000Z</time>
      </trkpt>
      <trkpt lat="43.41961" lon="3.44438">
        <ele>44.590075</ele>
        <time>2023-12-30T13:24:53.000Z</time>
      </trkpt>
      <trkpt lat="43.4196" lon="3.44439">
        <ele>44.586198</ele>
        <time>2023-12-30T13:24:54.000Z</time>
      </trkpt>
      <trkpt lat="43.41959" lon="3.44439">
        <ele>44.580986</ele>
        <time>2023-12-30T13:24:55.000Z</time>
      </trkpt>
      <trkpt lat="43.41957" lon="3.4444">
        <ele>44.575356</ele>
        <time>2023-12-30T13:24:56.000Z</time>
      </trkpt>
      <trkpt lat="43.41956" lon="3.44441">
        <ele>44.56911</ele>
        <time>2023-12-30T13:24:57.000Z</time>
      </trkpt>
      <trkpt lat="43.41954" lon="3.44441">
        <ele>44.562872</ele>
        <time>2023-12-30T13:24:58.000Z</time>
      </trkpt>
      <trkpt lat="43.41952" lon="3.44442">
        <ele>44.556391</ele>
        <time>2023-12-30T13:24:59.000Z</time>
      </trkpt>
      <trkpt lat="43.4195" lon="3.44443">
        <ele>44.549742</ele>
        <time>2023-12-30T13:25:00.000Z</time>
      </trkpt>
      <trkpt lat="43.41949" lon="3.44444">
        <ele>44.543544</ele>
        <time>2023-12-30T13:25:01.000Z</time>
      </trkpt>
      <trkpt lat="43.41947" lon="3.44445">
        <ele>44.536544</ele>
        <time>2023-12-30T13:25:02.000Z</time>
      </trkpt>
      <trkpt lat="43.41946" lon="3.44446">
        <ele>44.531555</ele>
        <time>2023-12-30T13:25:03.000Z</time>
      </trkpt>
      <trkpt lat="43.41944" lon="3.44447">
        <ele>44.524832</ele>
        <time>2023-12-30T13:25:04.000Z</time>
      </trkpt>
      <trkpt lat="43.41942" lon="3.44448">
        <ele>44.517014</ele>
        <time>2023-12-30T13:25:05.000Z</time>
      </trkpt>
      <trkpt lat="43.41941" lon="3.44449">
        <ele>44.51041</ele>
        <time>2023-12-30T13:25:06.000Z</time>
      </trkpt>
      <trkpt lat="43.41939" lon="3.4445">
        <ele>44.505237</ele>
        <time>2023-12-30T13:25:07.000Z</time>
      </trkpt>
      <trkpt lat="43.41938" lon="3.44451">
        <ele>44.499313</ele>
        <time>2023-12-30T13:25:08.000Z</time>
      </trkpt>
      <trkpt lat="43.41936" lon="3.44452">
        <ele>44.494101</ele>
        <time>2023-12-30T13:25:09.000Z</time>
      </trkpt>
      <trkpt lat="43.41935" lon="3.44452">
        <ele>44.488009</ele>
        <time>2023-12-30T13:25:10.000Z</time>
      </trkpt>
      <trkpt lat="43.41933" lon="3.44453">
        <ele>44.482041</ele>
        <time>2023-12-30T13:25:11.000Z</time>
      </trkpt>
      <trkpt lat="43.41932" lon="3.44454">
        <ele>44.476179</ele>
        <time>2023-12-30T13:25:12.000Z</time>
      </trkpt>
      <trkpt lat="43.4193" lon="3.44455">
        <ele>44.469179</ele>
        <time>2023-12-30T13:25:13.000Z</time>
      </trkpt>
      <trkpt lat="43.41928" lon="3.44456">
        <ele>44.461192</ele>
        <time>2023-12-30T13:25:14.000Z</time>
      </trkpt>
      <trkpt lat="43.41926" lon="3.44457">
        <ele>44.454609</ele>
        <time>2023-12-30T13:25:15.000Z</time>
      </trkpt>
      <trkpt lat="43.41925" lon="3.44458">
        <ele>44.449777</ele>
        <time>2023-12-30T13:25:16.000Z</time>
      </trkpt>
      <trkpt lat="43.41923" lon="3.44459">
        <ele>44.44245</ele>
        <time>2023-12-30T13:25:17.000Z</time>
      </trkpt>
      <trkpt lat="43.41921" lon="3.44461">
        <ele>44.435101</ele>
        <time>2023-12-30T13:25:18.000Z</time>
      </trkpt>
      <trkpt lat="43.41919" lon="3.44462">
        <ele>44.427446</ele>
        <time>2023-12-30T13:25:19.000Z</time>
      </trkpt>
      <trkpt lat="43.41918" lon="3.44463">
        <ele>44.421004</ele>
        <time>2023-12-30T13:25:20.000Z</time>
      </trkpt>
      <trkpt lat="43.41916" lon="3.44464">
        <ele>44.415274</ele>
        <time>2023-12-30T13:25:21.000Z</time>
      </trkpt>
      <trkpt lat="43.41915" lon="3.44466">
        <ele>44.409076</ele>
        <time>2023-12-30T13:25:22.000Z</time>
      </trkpt>
      <trkpt lat="43.41914" lon="3.44467">
        <ele>44.403652</ele>
        <time>2023-12-30T13:25:23.000Z</time>
      </trkpt>
      <trkpt lat="43.41913" lon="3.44468">
        <ele>44.399811</ele>
        <time>2023-12-30T13:25:24.000Z</time>
      </trkpt>
      <trkpt lat="43.41912" lon="3.44469">
        <ele>44.394518</ele>
        <time>2023-12-30T13:25:25.000Z</time>
      </trkpt>
      <trkpt lat="43.4191" lon="3.4447">
        <ele>44.388351</ele>
        <time>2023-12-30T13:25:26.000Z</time>
      </trkpt>
      <trkpt lat="43.41908" lon="3.44472">
        <ele>44.380256</ele>
        <time>2023-12-30T13:25:27.000Z</time>
      </trkpt>
      <trkpt lat="43.41906" lon="3.44473">
        <ele>44.372501</ele>
        <time>2023-12-30T13:25:28.000Z</time>
      </trkpt>
      <trkpt lat="43.41904" lon="3.44474">
        <ele>44.365471</ele>
        <time>2023-12-30T13:25:29.000Z</time>
      </trkpt>
      <trkpt lat="43.41903" lon="3.44476">
        <ele>44.35976</ele>
        <time>2023-12-30T13:25:30.000Z</time>
      </trkpt>
      <trkpt lat="43.41902" lon="3.44477">
        <ele>44.35317</ele>
        <time>2023-12-30T13:25:31.000Z</time>
      </trkpt>
      <trkpt lat="43.419" lon="3.44478">
        <ele>44.346061</ele>
        <time>2023-12-30T13:25:32.000Z</time>
      </trkpt>
      <trkpt lat="43.41898" lon="3.44481">
        <ele>44.338023</ele>
        <time>2023-12-30T13:25:33.000Z</time>
      </trkpt>
      <trkpt lat="43.41896" lon="3.44483">
        <ele>44.329082</ele>
        <time>2023-12-30T13:25:34.000Z</time>
      </trkpt>
      <trkpt lat="43.41894" lon="3.44484">
        <ele>44.32086</ele>
        <time>2023-12-30T13:25:35.000Z</time>
      </trkpt>
      <trkpt lat="43.41893" lon="3.44486">
        <ele>44.488943</ele>
        <time>2023-12-30T13:25:36.000Z</time>
      </trkpt>
      <trkpt lat="43.41891" lon="3.44486">
        <ele>44.649883</ele>
        <time>2023-12-30T13:25:37.000Z</time>
      </trkpt>
      <trkpt lat="43.4189" lon="3.44488">
        <ele>44.791683</ele>
        <time>2023-12-30T13:25:38.000Z</time>
      </trkpt>
      <trkpt lat="43.41888" lon="3.44489">
        <ele>45.002423</ele>
        <time>2023-12-30T13:25:39.000Z</time>
      </trkpt>
      <trkpt lat="43.41887" lon="3.44491">
        <ele>45.149767</ele>
        <time>2023-12-30T13:25:40.000Z</time>
      </trkpt>
      <trkpt lat="43.41886" lon="3.44492">
        <ele>45.307803</ele>
        <time>2023-12-30T13:25:41.000Z</time>
      </trkpt>
      <trkpt lat="43.41885" lon="3.44493">
        <ele>45.413174</ele>
        <time>2023-12-30T13:25:42.000Z</time>
      </trkpt>
      <trkpt lat="43.41884" lon="3.44494">
        <ele>45.553453</ele>
        <time>2023-12-30T13:25:43.000Z</time>
      </trkpt>
      <trkpt lat="43.41883" lon="3.44495">
        <ele>45.708163</ele>
        <time>2023-12-30T13:25:44.000Z</time>
      </trkpt>
      <trkpt lat="43.41881" lon="3.44497">
        <ele>45.915991</ele>
        <time>2023-12-30T13:25:45.000Z</time>
      </trkpt>
      <trkpt lat="43.4188" lon="3.445">
        <ele>46.096379</ele>
        <time>2023-12-30T13:25:46.000Z</time>
      </trkpt>
      <trkpt lat="43.41879" lon="3.44502">
        <ele>46.287192</ele>
        <time>2023-12-30T13:25:47.000Z</time>
      </trkpt>
      <trkpt lat="43.41878" lon="3.44503">
        <ele>46.470802</ele>
        <time>2023-12-30T13:25:48.000Z</time>
      </trkpt>
      <trkpt lat="43.41876" lon="3.44506">
        <ele>46.681222</ele>
        <time>2023-12-30T13:25:49.000Z</time>
      </trkpt>
      <trkpt lat="43.41874" lon="3.44507">
        <ele>46.887886</ele>
        <time>2023-12-30T13:25:50.000Z</time>
      </trkpt>
      <trkpt lat="43.41873" lon="3.44508">
        <ele>47.060717</ele>
        <time>2023-12-30T13:25:51.000Z</time>
      </trkpt>
      <trkpt lat="43.41871" lon="3.44509">
        <ele>47.237425</ele>
        <time>2023-12-30T13:25:52.000Z</time>
      </trkpt>
      <trkpt lat="43.41869" lon="3.4451">
        <ele>47.454965</ele>
        <time>2023-12-30T13:25:53.000Z</time>
      </trkpt>
      <trkpt lat="43.41867" lon="3.44511">
        <ele>47.636798</ele>
        <time>2023-12-30T13:25:54.000Z</time>
      </trkpt>
      <trkpt lat="43.41866" lon="3.44512">
        <ele>47.82284</ele>
        <time>2023-12-30T13:25:55.000Z</time>
      </trkpt>
      <trkpt lat="43.41863" lon="3.44513">
        <ele>48.061589</ele>
        <time>2023-12-30T13:25:56.000Z</time>
      </trkpt>
      <trkpt lat="43.4186" lon="3.44513">
        <ele>48.347187</ele>
        <time>2023-12-30T13:25:57.000Z</time>
      </trkpt>
      <trkpt lat="43.41858" lon="3.44512">
        <ele>48.596792</ele>
        <time>2023-12-30T13:25:58.000Z</time>
      </trkpt>
      <trkpt lat="43.41856" lon="3.44511">
        <ele>48.838263</ele>
        <time>2023-12-30T13:25:59.000Z</time>
      </trkpt>
      <trkpt lat="43.41855" lon="3.44509">
        <ele>49.017661</ele>
        <time>2023-12-30T13:26:00.000Z</time>
      </trkpt>
      <trkpt lat="43.41855" lon="3.44506">
        <ele>49.214529</ele>
        <time>2023-12-30T13:26:01.000Z</time>
      </trkpt>
      <trkpt lat="43.41856" lon="3.44502">
        <ele>49.476668</ele>
        <time>2023-12-30T13:26:02.000Z</time>
      </trkpt>
      <trkpt lat="43.41857" lon="3.445">
        <ele>49.684996</ele>
        <time>2023-12-30T13:26:03.000Z</time>
      </trkpt>
      <trkpt lat="43.41857" lon="3.44498">
        <ele>49.842881</ele>
        <time>2023-12-30T13:26:04.000Z</time>
      </trkpt>
      <trkpt lat="43.41858" lon="3.44495">
        <ele>50.047697</ele>
        <time>2023-12-30T13:26:05.000Z</time>
      </trkpt>
      <trkpt lat="43.41858" lon="3.44492">
        <ele>50.271127</ele>
        <time>2023-12-30T13:26:06.000Z</time>
      </trkpt>
      <trkpt lat="43.41859" lon="3.44488">
        <ele>50.532982</ele>
        <time>2023-12-30T13:26:07.000Z</time>
      </trkpt>
      <trkpt lat="43.41859" lon="3.44485">
        <ele>50.756412</ele>
        <time>2023-12-30T13:26:08.000Z</time>
      </trkpt>
      <trkpt lat="43.41858" lon="3.44482">
        <ele>51.002022</ele>
        <time>2023-12-30T13:26:09.000Z</time>
      </trkpt>
      <trkpt lat="43.41857" lon="3.44479">
        <ele>51.250568</ele>
        <time>2023-12-30T13:26:10.000Z</time>
      </trkpt>
      <trkpt lat="43.41857" lon="3.44475">
        <ele>51.489078</ele>
        <time>2023-12-30T13:26:11.000Z</time>
      </trkpt>
      <trkpt lat="43.41856" lon="3.44473">
        <ele>51.688419</ele>
        <time>2023-12-30T13:26:12.000Z</time>
      </trkpt>
      <trkpt lat="43.41854" lon="3.44471">
        <ele>51.914621</ele>
        <time>2023-12-30T13:26:13.000Z</time>
      </trkpt>
      <trkpt lat="43.41853" lon="3.44469">
        <ele>52.093585</ele>
        <time>2023-12-30T13:26:14.000Z</time>
      </trkpt>
      <trkpt lat="43.41851" lon="3.44467">
        <ele>52.308285</ele>
        <time>2023-12-30T13:26:15.000Z</time>
      </trkpt>
      <trkpt lat="43.41849" lon="3.44465">
        <ele>52.534487</ele>
        <time>2023-12-30T13:26:16.000Z</time>
      </trkpt>
      <trkpt lat="43.41849" lon="3.44462">
        <ele>52.733829</ele>
        <time>2023-12-30T13:26:17.000Z</time>
      </trkpt>
      <trkpt lat="43.41847" lon="3.4446">
        <ele>52.961254</ele>
        <time>2023-12-30T13:26:18.000Z</time>
      </trkpt>
      <trkpt lat="43.41846" lon="3.44456">
        <ele>53.222046</ele>
        <time>2023-12-30T13:26:19.000Z</time>
      </trkpt>
      <trkpt lat="43.41845" lon="3.44454">
        <ele>53.433604</ele>
        <time>2023-12-30T13:26:20.000Z</time>
      </trkpt>
      <trkpt lat="43.41845" lon="3.44451">
        <ele>53.653504</ele>
        <time>2023-12-30T13:26:21.000Z</time>
      </trkpt>
      <trkpt lat="43.41845" lon="3.44448">
        <ele>53.846651</ele>
        <time>2023-12-30T13:26:22.000Z</time>
      </trkpt>
      <trkpt lat="43.41844" lon="3.44446">
        <ele>54.025028</ele>
        <time>2023-12-30T13:26:23.000Z</time>
      </trkpt>
      <trkpt lat="43.41844" lon="3.44443">
        <ele>54.239583</ele>
        <time>2023-12-30T13:26:24.000Z</time>
      </trkpt>
      <trkpt lat="43.41844" lon="3.4444">
        <ele>54.420612</ele>
        <time>2023-12-30T13:26:25.000Z</time>
      </trkpt>
      <trkpt lat="43.41845" lon="3.44438">
        <ele>54.579013</ele>
        <time>2023-12-30T13:26:26.000Z</time>
      </trkpt>
      <trkpt lat="43.41845" lon="3.44435">
        <ele>54.800487</ele>
        <time>2023-12-30T13:26:27.000Z</time>
      </trkpt>
      <trkpt lat="43.41845" lon="3.44432">
        <ele>54.980175</ele>
        <time>2023-12-30T13:26:28.000Z</time>
      </trkpt>
      <trkpt lat="43.41845" lon="3.4443">
        <ele>55.175316</ele>
        <time>2023-12-30T13:26:29.000Z</time>
      </trkpt>
      <trkpt lat="43.41846" lon="3.44427">
        <ele>55.356651</ele>
        <time>2023-12-30T13:26:30.000Z</time>
      </trkpt>
      <trkpt lat="43.41846" lon="3.44425">
        <ele>55.531247</ele>
        <time>2023-12-30T13:26:31.000Z</time>
      </trkpt>
      <trkpt lat="43.41847" lon="3.44422">
        <ele>55.739811</ele>
        <time>2023-12-30T13:26:32.000Z</time>
      </trkpt>
      <trkpt lat="43.41847" lon="3.44419">
        <ele>55.950699</ele>
        <time>2023-12-30T13:26:33.000Z</time>
      </trkpt>
      <trkpt lat="43.41848" lon="3.44416">
        <ele>56.179016</ele>
        <time>2023-12-30T13:26:34.000Z</time>
      </trkpt>
      <trkpt lat="43.41849" lon="3.44414">
        <ele>56.357177</ele>
        <time>2023-12-30T13:26:35.000Z</time>
      </trkpt>
      <trkpt lat="43.4185" lon="3.44411">
        <ele>56.589106</ele>
        <time>2023-12-30T13:26:36.000Z</time>
      </trkpt>
      <trkpt lat="43.4185" lon="3.44408">
        <ele>56.770441</ele>
        <time>2023-12-30T13:26:37.000Z</time>
      </trkpt>
      <trkpt lat="43.41851" lon="3.44406">
        <ele>56.955212</ele>
        <time>2023-12-30T13:26:38.000Z</time>
      </trkpt>
      <trkpt lat="43.41852" lon="3.44403">
        <ele>57.193721</ele>
        <time>2023-12-30T13:26:39.000Z</time>
      </trkpt>
      <trkpt lat="43.41852" lon="3.444">
        <ele>57.398537</ele>
        <time>2023-12-30T13:26:40.000Z</time>
      </trkpt>
      <trkpt lat="43.41853" lon="3.44398">
        <ele>57.58841</ele>
        <time>2023-12-30T13:26:41.000Z</time>
      </trkpt>
      <trkpt lat="43.41853" lon="3.44395">
        <ele>57.775201</ele>
        <time>2023-12-30T13:26:42.000Z</time>
      </trkpt>
      <trkpt lat="43.41854" lon="3.44392">
        <ele>57.983529</ele>
        <time>2023-12-30T13:26:43.000Z</time>
      </trkpt>
      <trkpt lat="43.41855" lon="3.4439">
        <ele>58.186146</ele>
        <time>2023-12-30T13:26:44.000Z</time>
      </trkpt>
      <trkpt lat="43.41857" lon="3.44388">
        <ele>58.365111</ele>
        <time>2023-12-30T13:26:45.000Z</time>
      </trkpt>
      <trkpt lat="43.41857" lon="3.44387">
        <ele>58.509689</ele>
        <time>2023-12-30T13:26:46.000Z</time>
      </trkpt>
      <trkpt lat="43.41858" lon="3.44385">
        <ele>58.654267</ele>
        <time>2023-12-30T13:26:47.000Z</time>
      </trkpt>
      <trkpt lat="43.4186" lon="3.44384">
        <ele>58.837877</ele>
        <time>2023-12-30T13:26:48.000Z</time>
      </trkpt>
      <trkpt lat="43.41861" lon="3.44382">
        <ele>59.012214</ele>
        <time>2023-12-30T13:26:49.000Z</time>
      </trkpt>
      <trkpt lat="43.41863" lon="3.44381">
        <ele>59.218878</ele>
        <time>2023-12-30T13:26:50.000Z</time>
      </trkpt>
      <trkpt lat="43.41864" lon="3.4438">
        <ele>59.370853</ele>
        <time>2023-12-30T13:26:51.000Z</time>
      </trkpt>
      <trkpt lat="43.41866" lon="3.44379">
        <ele>59.580141</ele>
        <time>2023-12-30T13:26:52.000Z</time>
      </trkpt>
      <trkpt lat="43.41868" lon="3.44378">
        <ele>59.771058</ele>
        <time>2023-12-30T13:26:53.000Z</time>
      </trkpt>
      <trkpt lat="43.41869" lon="3.44377">
        <ele>59.905918</ele>
        <time>2023-12-30T13:26:54.000Z</time>
      </trkpt>
      <trkpt lat="43.4187" lon="3.44376">
        <ele>60.051378</ele>
        <time>2023-12-30T13:26:55.000Z</time>
      </trkpt>
      <trkpt lat="43.41872" lon="3.44374">
        <ele>60.197259</ele>
        <time>2023-12-30T13:26:56.000Z</time>
      </trkpt>
      <trkpt lat="43.41873" lon="3.44373">
        <ele>60.3921</ele>
        <time>2023-12-30T13:26:57.000Z</time>
      </trkpt>
      <trkpt lat="43.41875" lon="3.44372">
        <ele>60.550137</ele>
        <time>2023-12-30T13:26:58.000Z</time>
      </trkpt>
      <trkpt lat="43.41876" lon="3.4437">
        <ele>60.68818</ele>
        <time>2023-12-30T13:26:59.000Z</time>
      </trkpt>
      <trkpt lat="43.41877" lon="3.44369">
        <ele>60.83837</ele>
        <time>2023-12-30T13:27:00.000Z</time>
      </trkpt>
      <trkpt lat="43.41878" lon="3.44367">
        <ele>61.012922</ele>
        <time>2023-12-30T13:27:01.000Z</time>
      </trkpt>
      <trkpt lat="43.41879" lon="3.44366">
        <ele>61.112142</ele>
        <time>2023-12-30T13:27:02.000Z</time>
      </trkpt>
      <trkpt lat="43.4188" lon="3.44365">
        <ele>61.235374</ele>
        <time>2023-12-30T13:27:03.000Z</time>
      </trkpt>
      <trkpt lat="43.4188" lon="3.44364">
        <ele>61.310754</ele>
        <time>2023-12-30T13:27:04.000Z</time>
      </trkpt>
      <trkpt lat="43.41881" lon="3.44363">
        <ele>61.391704</ele>
        <time>2023-12-30T13:27:05.000Z</time>
      </trkpt>
      <trkpt lat="43.41882" lon="3.44362">
        <ele>61.509215</ele>
        <time>2023-12-30T13:27:06.000Z</time>
      </trkpt>
      <trkpt lat="43.41883" lon="3.44362">
        <ele>61.619557</ele>
        <time>2023-12-30T13:27:07.000Z</time>
      </trkpt>
      <trkpt lat="43.41884" lon="3.44361">
        <ele>61.74192</ele>
        <time>2023-12-30T13:27:08.000Z</time>
      </trkpt>
      <trkpt lat="43.41885" lon="3.4436">
        <ele>61.84729</ele>
        <time>2023-12-30T13:27:09.000Z</time>
      </trkpt>
      <trkpt lat="43.41886" lon="3.44359">
        <ele>61.956701</ele>
        <time>2023-12-30T13:27:10.000Z</time>
      </trkpt>
      <trkpt lat="43.41887" lon="3.44358">
        <ele>62.029281</ele>
        <time>2023-12-30T13:27:11.000Z</time>
      </trkpt>
      <trkpt lat="43.41888" lon="3.44358">
        <ele>62.05388</ele>
        <time>2023-12-30T13:27:12.000Z</time>
      </trkpt>
      <trkpt lat="43.4189" lon="3.44357">
        <ele>62.080602</ele>
        <time>2023-12-30T13:27:13.000Z</time>
      </trkpt>
      <trkpt lat="43.41891" lon="3.44356">
        <ele>62.102921</ele>
        <time>2023-12-30T13:27:14.000Z</time>
      </trkpt>
      <trkpt lat="43.41891" lon="3.44356">
        <ele>62.115547</ele>
        <time>2023-12-30T13:27:15.000Z</time>
      </trkpt>
      <trkpt lat="43.41892" lon="3.44356">
        <ele>62.132958</ele>
        <time>2023-12-30T13:27:16.000Z</time>
      </trkpt>
      <trkpt lat="43.41893" lon="3.44355">
        <ele>62.144564</ele>
        <time>2023-12-30T13:27:17.000Z</time>
      </trkpt>
      <trkpt lat="43.41894" lon="3.44354">
        <ele>62.160327</ele>
        <time>2023-12-30T13:27:18.000Z</time>
      </trkpt>
      <trkpt lat="43.41895" lon="3.44353">
        <ele>62.188546</ele>
        <time>2023-12-30T13:27:19.000Z</time>
      </trkpt>
      <trkpt lat="43.41896" lon="3.44351">
        <ele>62.216052</ele>
        <time>2023-12-30T13:27:20.000Z</time>
      </trkpt>
      <trkpt lat="43.41897" lon="3.44351">
        <ele>62.244075</ele>
        <time>2023-12-30T13:27:21.000Z</time>
      </trkpt>
      <trkpt lat="43.41899" lon="3.44349">
        <ele>62.280301</ele>
        <time>2023-12-30T13:27:22.000Z</time>
      </trkpt>
      <trkpt lat="43.419" lon="3.44348">
        <ele>62.307176</ele>
        <time>2023-12-30T13:27:23.000Z</time>
      </trkpt>
      <trkpt lat="43.41901" lon="3.44347">
        <ele>62.330579</ele>
        <time>2023-12-30T13:27:24.000Z</time>
      </trkpt>
      <trkpt lat="43.41902" lon="3.44345">
        <ele>62.361622</ele>
        <time>2023-12-30T13:27:25.000Z</time>
      </trkpt>
      <trkpt lat="43.41903" lon="3.44343">
        <ele>62.394313</ele>
        <time>2023-12-30T13:27:26.000Z</time>
      </trkpt>
      <trkpt lat="43.41905" lon="3.44341">
        <ele>62.428117</ele>
        <time>2023-12-30T13:27:27.000Z</time>
      </trkpt>
      <trkpt lat="43.41906" lon="3.4434">
        <ele>62.454992</ele>
        <time>2023-12-30T13:27:28.000Z</time>
      </trkpt>
      <trkpt lat="43.41907" lon="3.44339">
        <ele>62.478395</ele>
        <time>2023-12-30T13:27:29.000Z</time>
      </trkpt>
      <trkpt lat="43.41907" lon="3.44337">
        <ele>62.504791</ele>
        <time>2023-12-30T13:27:30.000Z</time>
      </trkpt>
      <trkpt lat="43.41908" lon="3.44335">
        <ele>62.527106</ele>
        <time>2023-12-30T13:27:31.000Z</time>
      </trkpt>
      <trkpt lat="43.41909" lon="3.44334">
        <ele>62.547161</ele>
        <time>2023-12-30T13:27:32.000Z</time>
      </trkpt>
      <trkpt lat="43.41909" lon="3.44333">
        <ele>62.561271</ele>
        <time>2023-12-30T13:27:33.000Z</time>
      </trkpt>
      <trkpt lat="43.4191" lon="3.44332">
        <ele>62.585171</ele>
        <time>2023-12-30T13:27:34.000Z</time>
      </trkpt>
      <trkpt lat="43.41911" lon="3.4433">
        <ele>62.612584</ele>
        <time>2023-12-30T13:27:35.000Z</time>
      </trkpt>
      <trkpt lat="43.41911" lon="3.44329">
        <ele>62.634732</ele>
        <time>2023-12-30T13:27:36.000Z</time>
      </trkpt>
      <trkpt lat="43.41912" lon="3.44327">
        <ele>62.659261</ele>
        <time>2023-12-30T13:27:37.000Z</time>
      </trkpt>
      <trkpt lat="43.41912" lon="3.44325">
        <ele>62.682726</ele>
        <time>2023-12-30T13:27:38.000Z</time>
      </trkpt>
      <trkpt lat="43.41913" lon="3.44324">
        <ele>62.701894</ele>
        <time>2023-12-30T13:27:39.000Z</time>
      </trkpt>
      <trkpt lat="43.41913" lon="3.44323">
        <ele>62.712919</ele>
        <time>2023-12-30T13:27:40.000Z</time>
      </trkpt>
      <trkpt lat="43.41913" lon="3.44323">
        <ele>62.717354</ele>
        <time>2023-12-30T13:27:41.000Z</time>
      </trkpt>
      <trkpt lat="43.41913" lon="3.44323">
        <ele>62.719148</ele>
        <time>2023-12-30T13:27:42.000Z</time>
      </trkpt>
      <trkpt lat="43.41913" lon="3.44323">
        <ele>62.720942</ele>
        <time>2023-12-30T13:27:43.000Z</time>
      </trkpt>
      <trkpt lat="43.41913" lon="3.44323">
        <ele>62.720942</ele>
        <time>2023-12-30T13:27:44.000Z</time>
      </trkpt>
      <trkpt lat="43.41913" lon="3.44323">
        <ele>62.720942</ele>
        <time>2023-12-30T13:27:45.000Z</time>
      </trkpt>
      <trkpt lat="43.41913" lon="3.44323">
        <ele>62.720942</ele>
        <time>2023-12-30T13:27:46.000Z</time>
      </trkpt>
      <trkpt lat="43.41913" lon="3.44323">
        <ele>62.720942</ele>
        <time>2023-12-30T13:27:47.000Z</time>
      </trkpt>
      <trkpt lat="43.41913" lon="3.44323">
        <ele>62.720942</ele>
        <time>2023-12-30T13:27:48.000Z</time>
      </trkpt>
      <trkpt lat="43.41913" lon="3.44323">
        <ele>62.720942</ele>
        <time>2023-12-30T13:27:49.000Z</time>
      </trkpt>
      <trkpt lat="43.41913" lon="3.44323">
        <ele>62.720942</ele>
        <time>2023-12-30T13:27:50.000Z</time>
      </trkpt>
      <trkpt lat="43.41913" lon="3.44323">
        <ele>62.720942</ele>
        <time>2023-12-30T13:27:51.000Z</time>
      </trkpt>
      <trkpt lat="43.41913" lon="3.44323">
        <ele>62.720942</ele>
        <time>2023-12-30T13:27:52.000Z</time>
      </trkpt>
      <trkpt lat="43.41913" lon="3.44323">
        <ele>62.720942</ele>
        <time>2023-12-30T13:27:53.000Z</time>
      </trkpt>
      <trkpt lat="43.41913" lon="3.44323">
        <ele>62.720942</ele>
        <time>2023-12-30T13:27:54.000Z</time>
      </trkpt>
      <trkpt lat="43.41913" lon="3.44323">
        <ele>62.720942</ele>
        <time>2023-12-30T13:27:55.000Z</time>
      </trkpt>
      <trkpt lat="43.41913" lon="3.44323">
        <ele>62.720942</ele>
        <time>2023-12-30T13:27:56.000Z</time>
      </trkpt>
      <trkpt lat="43.41913" lon="3.44323">
        <ele>62.720942</ele>
        <time>2023-12-30T13:27:57.000Z</time>
      </trkpt>
      <trkpt lat="43.41913" lon="3.44323">
        <ele>62.720942</ele>
        <time>2023-12-30T13:27:58.000Z</time>
      </trkpt>
      <trkpt lat="43.41913" lon="3.44323">
        <ele>62.720942</ele>
        <time>2023-12-30T13:27:59.000Z</time>
      </trkpt>
      <trkpt lat="43.41913" lon="3.44323">
        <ele>62.722736</ele>
        <time>2023-12-30T13:28:00.000Z</time>
      </trkpt>
      <trkpt lat="43.41913" lon="3.44323">
        <ele>62.722736</ele>
        <time>2023-12-30T13:28:01.000Z</time>
      </trkpt>
      <trkpt lat="43.41913" lon="3.44323">
        <ele>62.722736</ele>
        <time>2023-12-30T13:28:02.000Z</time>
      </trkpt>
      <trkpt lat="43.41913" lon="3.44323">
        <ele>62.722736</ele>
        <time>2023-12-30T13:28:03.000Z</time>
      </trkpt>
      <trkpt lat="43.41913" lon="3.44323">
        <ele>62.722736</ele>
        <time>2023-12-30T13:28:04.000Z</time>
      </trkpt>
      <trkpt lat="43.41913" lon="3.44323">
        <ele>62.724954</ele>
        <time>2023-12-30T13:28:05.000Z</time>
      </trkpt>
      <trkpt lat="43.41913" lon="3.44322">
        <ele>62.739288</ele>
        <time>2023-12-30T13:28:06.000Z</time>
      </trkpt>
      <trkpt lat="43.41913" lon="3.44322">
        <ele>62.740591</ele>
        <time>2023-12-30T13:28:07.000Z</time>
      </trkpt>
      <trkpt lat="43.41913" lon="3.44322">
        <ele>62.740591</ele>
        <time>2023-12-30T13:28:08.000Z</time>
      </trkpt>
      <trkpt lat="43.41913" lon="3.44322">
        <ele>62.740591</ele>
        <time>2023-12-30T13:28:09.000Z</time>
      </trkpt>
      <trkpt lat="43.41913" lon="3.44322">
        <ele>62.740591</ele>
        <time>2023-12-30T13:28:10.000Z</time>
      </trkpt>
      <trkpt lat="43.41913" lon="3.44322">
        <ele>62.740591</ele>
        <time>2023-12-30T13:28:11.000Z</time>
      </trkpt>
      <trkpt lat="43.41913" lon="3.44322">
        <ele>62.740591</ele>
        <time>2023-12-30T13:28:12.000Z</time>
      </trkpt>
      <trkpt lat="43.41913" lon="3.44322">
        <ele>62.740591</ele>
        <time>2023-12-30T13:28:13.000Z</time>
      </trkpt>
      <trkpt lat="43.41913" lon="3.44322">
        <ele>62.740591</ele>
        <time>2023-12-30T13:28:14.000Z</time>
      </trkpt>
      <trkpt lat="43.41913" lon="3.44322">
        <ele>62.740591</ele>
        <time>2023-12-30T13:28:15.000Z</time>
      </trkpt>
      <trkpt lat="43.41913" lon="3.44322">
        <ele>62.740591</ele>
        <time>2023-12-30T13:28:16.000Z</time>
      </trkpt>
      <trkpt lat="43.41913" lon="3.44322">
        <ele>62.740591</ele>
        <time>2023-12-30T13:28:17.000Z</time>
      </trkpt>
      <trkpt lat="43.41913" lon="3.44322">
        <ele>62.740591</ele>
        <time>2023-12-30T13:28:18.000Z</time>
      </trkpt>
      <trkpt lat="43.41913" lon="3.44322">
        <ele>62.740591</ele>
        <time>2023-12-30T13:28:19.000Z</time>
      </trkpt>
      <trkpt lat="43.41913" lon="3.44322">
        <ele>62.740591</ele>
        <time>2023-12-30T13:28:20.000Z</time>
      </trkpt>
      <trkpt lat="43.41913" lon="3.44322">
        <ele>62.740591</ele>
        <time>2023-12-30T13:28:21.000Z</time>
      </trkpt>
      <trkpt lat="43.41913" lon="3.44322">
        <ele>62.740591</ele>
        <time>2023-12-30T13:28:22.000Z</time>
      </trkpt>
      <trkpt lat="43.41913" lon="3.44322">
        <ele>62.740591</ele>
        <time>2023-12-30T13:28:23.000Z</time>
      </trkpt>
      <trkpt lat="43.41913" lon="3.44322">
        <ele>62.740591</ele>
        <time>2023-12-30T13:28:24.000Z</time>
      </trkpt>
      <trkpt lat="43.41913" lon="3.44322">
        <ele>62.740591</ele>
        <time>2023-12-30T13:28:25.000Z</time>
      </trkpt>
      <trkpt lat="43.41913" lon="3.44322">
        <ele>62.740591</ele>
        <time>2023-12-30T13:28:26.000Z</time>
      </trkpt>
      <trkpt lat="43.41913" lon="3.44322">
        <ele>62.740591</ele>
        <time>2023-12-30T13:28:27.000Z</time>
      </trkpt>
      <trkpt lat="43.41913" lon="3.44322">
        <ele>62.740591</ele>
        <time>2023-12-30T13:28:28.000Z</time>
      </trkpt>
      <trkpt lat="43.41913" lon="3.44322">
        <ele>62.740591</ele>
        <time>2023-12-30T13:28:29.000Z</time>
      </trkpt>
      <trkpt lat="43.41913" lon="3.44322">
        <ele>62.740591</ele>
        <time>2023-12-30T13:28:30.000Z</time>
      </trkpt>
      <trkpt lat="43.41913" lon="3.44322">
        <ele>62.740591</ele>
        <time>2023-12-30T13:28:31.000Z</time>
      </trkpt>
      <trkpt lat="43.41913" lon="3.44322">
        <ele>62.740591</ele>
        <time>2023-12-30T13:28:32.000Z</time>
      </trkpt>
      <trkpt lat="43.41913" lon="3.44322">
        <ele>62.740591</ele>
        <time>2023-12-30T13:28:33.000Z</time>
      </trkpt>
      <trkpt lat="43.41913" lon="3.44322">
        <ele>62.740591</ele>
        <time>2023-12-30T13:28:34.000Z</time>
      </trkpt>
      <trkpt lat="43.41913" lon="3.44322">
        <ele>62.740591</ele>
        <time>2023-12-30T13:28:35.000Z</time>
      </trkpt>
      <trkpt lat="43.41913" lon="3.44322">
        <ele>62.740591</ele>
        <time>2023-12-30T13:28:36.000Z</time>
      </trkpt>
      <trkpt lat="43.41913" lon="3.44322">
        <ele>62.740591</ele>
        <time>2023-12-30T13:28:37.000Z</time>
      </trkpt>
      <trkpt lat="43.41913" lon="3.44322">
        <ele>62.740591</ele>
        <time>2023-12-30T13:28:38.000Z</time>
      </trkpt>
      <trkpt lat="43.41913" lon="3.44322">
        <ele>62.740591</ele>
        <time>2023-12-30T13:28:39.000Z</time>
      </trkpt>
      <trkpt lat="43.41913" lon="3.44322">
        <ele>62.740591</ele>
        <time>2023-12-30T13:28:40.000Z</time>
      </trkpt>
      <trkpt lat="43.41913" lon="3.44322">
        <ele>62.740591</ele>
        <time>2023-12-30T13:28:41.000Z</time>
      </trkpt>
      <trkpt lat="43.41913" lon="3.44322">
        <ele>62.740591</ele>
        <time>2023-12-30T13:28:42.000Z</time>
      </trkpt>
      <trkpt lat="43.41913" lon="3.44322">
        <ele>62.740591</ele>
        <time>2023-12-30T13:28:43.000Z</time>
      </trkpt>
      <trkpt lat="43.41913" lon="3.44322">
        <ele>62.740591</ele>
        <time>2023-12-30T13:28:44.000Z</time>
      </trkpt>
      <trkpt lat="43.41913" lon="3.44322">
        <ele>62.740591</ele>
        <time>2023-12-30T13:28:45.000Z</time>
      </trkpt>
      <trkpt lat="43.41913" lon="3.44322">
        <ele>62.740591</ele>
        <time>2023-12-30T13:28:46.000Z</time>
      </trkpt>
      <trkpt lat="43.41913" lon="3.44322">
        <ele>62.740591</ele>
        <time>2023-12-30T13:28:47.000Z</time>
      </trkpt>
      <trkpt lat="43.41913" lon="3.44322">
        <ele>62.740591</ele>
        <time>2023-12-30T13:28:48.000Z</time>
      </trkpt>
      <trkpt lat="43.41913" lon="3.44322">
        <ele>62.740591</ele>
        <time>2023-12-30T13:28:49.000Z</time>
      </trkpt>
      <trkpt lat="43.41913" lon="3.44322">
        <ele>62.742385</ele>
        <time>2023-12-30T13:28:50.000Z</time>
      </trkpt>
      <trkpt lat="43.41913" lon="3.44322">
        <ele>62.742385</ele>
        <time>2023-12-30T13:28:51.000Z</time>
      </trkpt>
      <trkpt lat="43.41913" lon="3.44322">
        <ele>62.742385</ele>
        <time>2023-12-30T13:28:52.000Z</time>
      </trkpt>
      <trkpt lat="43.41913" lon="3.44322">
        <ele>62.742385</ele>
        <time>2023-12-30T13:28:53.000Z</time>
      </trkpt>
      <trkpt lat="43.41913" lon="3.44322">
        <ele>62.742385</ele>
        <time>2023-12-30T13:28:54.000Z</time>
      </trkpt>
      <trkpt lat="43.41913" lon="3.44322">
        <ele>62.743688</ele>
        <time>2023-12-30T13:28:55.000Z</time>
      </trkpt>
      <trkpt lat="43.41913" lon="3.44322">
        <ele>62.744991</ele>
        <time>2023-12-30T13:28:56.000Z</time>
      </trkpt>
      <trkpt lat="43.41913" lon="3.44322">
        <ele>62.744991</ele>
        <time>2023-12-30T13:28:57.000Z</time>
      </trkpt>
      <trkpt lat="43.41913" lon="3.44322">
        <ele>62.746294</ele>
        <time>2023-12-30T13:28:58.000Z</time>
      </trkpt>
      <trkpt lat="43.41913" lon="3.44322">
        <ele>62.746294</ele>
        <time>2023-12-30T13:28:59.000Z</time>
      </trkpt>
      <trkpt lat="43.41913" lon="3.44322">
        <ele>62.749458</ele>
        <time>2023-12-30T13:29:00.000Z</time>
      </trkpt>
      <trkpt lat="43.41914" lon="3.4432">
        <ele>62.780112</ele>
        <time>2023-12-30T13:29:01.000Z</time>
      </trkpt>
      <trkpt lat="43.41915" lon="3.44318">
        <ele>62.801619</ele>
        <time>2023-12-30T13:29:02.000Z</time>
      </trkpt>
      <trkpt lat="43.41915" lon="3.44316">
        <ele>62.833098</ele>
        <time>2023-12-30T13:29:03.000Z</time>
      </trkpt>
      <trkpt lat="43.41915" lon="3.44313">
        <ele>62.865873</ele>
        <time>2023-12-30T13:29:04.000Z</time>
      </trkpt>
      <trkpt lat="43.41915" lon="3.44311">
        <ele>62.902404</ele>
        <time>2023-12-30T13:29:05.000Z</time>
      </trkpt>
      <trkpt lat="43.41915" lon="3.44308">
        <ele>62.941662</ele>
        <time>2023-12-30T13:29:06.000Z</time>
      </trkpt>
      <trkpt lat="43.41916" lon="3.44304">
        <ele>62.98269</ele>
        <time>2023-12-30T13:29:07.000Z</time>
      </trkpt>
      <trkpt lat="43.41916" lon="3.44301">
        <ele>63.026287</ele>
        <time>2023-12-30T13:29:08.000Z</time>
      </trkpt>
      <trkpt lat="43.41917" lon="3.44298">
        <ele>63.068093</ele>
        <time>2023-12-30T13:29:09.000Z</time>
      </trkpt>
      <trkpt lat="43.41918" lon="3.44295">
        <ele>63.11039</ele>
        <time>2023-12-30T13:29:10.000Z</time>
      </trkpt>
      <trkpt lat="43.41918" lon="3.44293">
        <ele>63.144092</ele>
        <time>2023-12-30T13:29:11.000Z</time>
      </trkpt>
      <trkpt lat="43.41919" lon="3.44289">
        <ele>63.191248</ele>
        <time>2023-12-30T13:29:12.000Z</time>
      </trkpt>
      <trkpt lat="43.41921" lon="3.44286">
        <ele>63.235877</ele>
        <time>2023-12-30T13:29:13.000Z</time>
      </trkpt>
      <trkpt lat="43.41922" lon="3.44283">
        <ele>63.281399</ele>
        <time>2023-12-30T13:29:14.000Z</time>
      </trkpt>
      <trkpt lat="43.41923" lon="3.4428">
        <ele>63.326358</ele>
        <time>2023-12-30T13:29:15.000Z</time>
      </trkpt>
      <trkpt lat="43.41924" lon="3.44277">
        <ele>63.369228</ele>
        <time>2023-12-30T13:29:16.000Z</time>
      </trkpt>
      <trkpt lat="43.41925" lon="3.44274">
        <ele>63.412098</ele>
        <time>2023-12-30T13:29:17.000Z</time>
      </trkpt>
      <trkpt lat="43.41925" lon="3.44271">
        <ele>63.455695</ele>
        <time>2023-12-30T13:29:18.000Z</time>
      </trkpt>
      <trkpt lat="43.41925" lon="3.44267">
        <ele>63.498348</ele>
        <time>2023-12-30T13:29:19.000Z</time>
      </trkpt>
      <trkpt lat="43.41926" lon="3.44264">
        <ele>63.539377</ele>
        <time>2023-12-30T13:29:20.000Z</time>
      </trkpt>
      <trkpt lat="43.41926" lon="3.44261">
        <ele>63.585547</ele>
        <time>2023-12-30T13:29:21.000Z</time>
      </trkpt>
      <trkpt lat="43.41927" lon="3.44257">
        <ele>63.638163</ele>
        <time>2023-12-30T13:29:22.000Z</time>
      </trkpt>
      <trkpt lat="43.41927" lon="3.44253">
        <ele>63.685211</ele>
        <time>2023-12-30T13:29:23.000Z</time>
      </trkpt>
      <trkpt lat="43.41927" lon="3.44249">
        <ele>63.736317</ele>
        <time>2023-12-30T13:29:24.000Z</time>
      </trkpt>
      <trkpt lat="43.41927" lon="3.44246">
        <ele>63.779319</ele>
        <time>2023-12-30T13:29:25.000Z</time>
      </trkpt>
      <trkpt lat="43.41927" lon="3.44242">
        <ele>63.826265</ele>
        <time>2023-12-30T13:29:26.000Z</time>
      </trkpt>
      <trkpt lat="43.41927" lon="3.44239">
        <ele>63.866701</ele>
        <time>2023-12-30T13:29:27.000Z</time>
      </trkpt>
      <trkpt lat="43.41927" lon="3.44236">
        <ele>63.91231</ele>
        <time>2023-12-30T13:29:28.000Z</time>
      </trkpt>
      <trkpt lat="43.41927" lon="3.44233">
        <ele>63.953339</ele>
        <time>2023-12-30T13:29:29.000Z</time>
      </trkpt>
      <trkpt lat="43.41927" lon="3.44229">
        <ele>63.996677</ele>
        <time>2023-12-30T13:29:30.000Z</time>
      </trkpt>
      <trkpt lat="43.41926" lon="3.44226">
        <ele>64.042846</ele>
        <time>2023-12-30T13:29:31.000Z</time>
      </trkpt>
      <trkpt lat="43.41926" lon="3.44223">
        <ele>64.086443</ele>
        <time>2023-12-30T13:29:32.000Z</time>
      </trkpt>
      <trkpt lat="43.41926" lon="3.44219">
        <ele>64.131075</ele>
        <time>2023-12-30T13:29:33.000Z</time>
      </trkpt>
      <trkpt lat="43.41925" lon="3.44216">
        <ele>64.175958</ele>
        <time>2023-12-30T13:29:34.000Z</time>
      </trkpt>
      <trkpt lat="43.41925" lon="3.44212">
        <ele>64.221566</ele>
        <time>2023-12-30T13:29:35.000Z</time>
      </trkpt>
      <trkpt lat="43.41926" lon="3.44209">
        <ele>64.265494</ele>
        <time>2023-12-30T13:29:36.000Z</time>
      </trkpt>
      <trkpt lat="43.41926" lon="3.44205">
        <ele>64.313743</ele>
        <time>2023-12-30T13:29:37.000Z</time>
      </trkpt>
      <trkpt lat="43.41926" lon="3.44202">
        <ele>64.358193</ele>
        <time>2023-12-30T13:29:38.000Z</time>
      </trkpt>
      <trkpt lat="43.41926" lon="3.44199">
        <ele>64.403398</ele>
        <time>2023-12-30T13:29:39.000Z</time>
      </trkpt>
      <trkpt lat="43.41927" lon="3.44196">
        <ele>64.443946</ele>
        <time>2023-12-30T13:29:40.000Z</time>
      </trkpt>
      <trkpt lat="43.41927" lon="3.44192">
        <ele>64.488288</ele>
        <time>2023-12-30T13:29:41.000Z</time>
      </trkpt>
      <trkpt lat="43.41926" lon="3.44189">
        <ele>64.535507</ele>
        <time>2023-12-30T13:29:42.000Z</time>
      </trkpt>
      <trkpt lat="43.41926" lon="3.44185">
        <ele>64.582419</ele>
        <time>2023-12-30T13:29:43.000Z</time>
      </trkpt>
      <trkpt lat="43.41926" lon="3.44181">
        <ele>64.630767</ele>
        <time>2023-12-30T13:29:44.000Z</time>
      </trkpt>
      <trkpt lat="43.41926" lon="3.44178">
        <ele>64.675972</ele>
        <time>2023-12-30T13:29:45.000Z</time>
      </trkpt>
      <trkpt lat="43.41925" lon="3.44175">
        <ele>64.721906</ele>
        <time>2023-12-30T13:29:46.000Z</time>
      </trkpt>
      <trkpt lat="43.41924" lon="3.44172">
        <ele>64.760617</ele>
        <time>2023-12-30T13:29:47.000Z</time>
      </trkpt>
      <trkpt lat="43.41923" lon="3.44169">
        <ele>64.797411</ele>
        <time>2023-12-30T13:29:48.000Z</time>
      </trkpt>
      <trkpt lat="43.41923" lon="3.44166">
        <ele>64.834293</ele>
        <time>2023-12-30T13:29:49.000Z</time>
      </trkpt>
      <trkpt lat="43.41923" lon="3.44164">
        <ele>64.870824</ele>
        <time>2023-12-30T13:29:50.000Z</time>
      </trkpt>
      <trkpt lat="43.41923" lon="3.44161">
        <ele>64.910286</ele>
        <time>2023-12-30T13:29:51.000Z</time>
      </trkpt>
      <trkpt lat="43.41922" lon="3.44157">
        <ele>64.951039</ele>
        <time>2023-12-30T13:29:52.000Z</time>
      </trkpt>
      <trkpt lat="43.41922" lon="3.44154">
        <ele>64.990501</ele>
        <time>2023-12-30T13:29:53.000Z</time>
      </trkpt>
      <trkpt lat="43.41922" lon="3.44152">
        <ele>65.02681</ele>
        <time>2023-12-30T13:29:54.000Z</time>
      </trkpt>
      <trkpt lat="43.41921" lon="3.4415">
        <ele>65.058584</ele>
        <time>2023-12-30T13:29:55.000Z</time>
      </trkpt>
      <trkpt lat="43.4192" lon="3.44147">
        <ele>65.098406</ele>
        <time>2023-12-30T13:29:56.000Z</time>
      </trkpt>
      <trkpt lat="43.4192" lon="3.44144">
        <ele>65.133636</ele>
        <time>2023-12-30T13:29:57.000Z</time>
      </trkpt>
      <trkpt lat="43.4192" lon="3.44141">
        <ele>65.177978</ele>
        <time>2023-12-30T13:29:58.000Z</time>
      </trkpt>
      <trkpt lat="43.4192" lon="3.44138">
        <ele>65.215938</ele>
        <time>2023-12-30T13:29:59.000Z</time>
      </trkpt>
      <trkpt lat="43.41919" lon="3.44135">
        <ele>65.203849</ele>
        <time>2023-12-30T13:30:00.000Z</time>
      </trkpt>
      <trkpt lat="43.4192" lon="3.44131">
        <ele>65.103467</ele>
        <time>2023-12-30T13:30:01.000Z</time>
      </trkpt>
      <trkpt lat="43.4192" lon="3.44127">
        <ele>65.001433</ele>
        <time>2023-12-30T13:30:02.000Z</time>
      </trkpt>
      <trkpt lat="43.41921" lon="3.44124">
        <ele>64.910039</ele>
        <time>2023-12-30T13:30:03.000Z</time>
      </trkpt>
      <trkpt lat="43.41921" lon="3.4412">
        <ele>64.809103</ele>
        <time>2023-12-30T13:30:04.000Z</time>
      </trkpt>
      <trkpt lat="43.41921" lon="3.44117">
        <ele>64.708513</ele>
        <time>2023-12-30T13:30:05.000Z</time>
      </trkpt>
      <trkpt lat="43.41921" lon="3.44113">
        <ele>64.59949</ele>
        <time>2023-12-30T13:30:06.000Z</time>
      </trkpt>
      <trkpt lat="43.41922" lon="3.44108">
        <ele>64.484103</ele>
        <time>2023-12-30T13:30:07.000Z</time>
      </trkpt>
      <trkpt lat="43.41922" lon="3.44104">
        <ele>64.366571</ele>
        <time>2023-12-30T13:30:08.000Z</time>
      </trkpt>
      <trkpt lat="43.41923" lon="3.441">
        <ele>64.251728</ele>
        <time>2023-12-30T13:30:09.000Z</time>
      </trkpt>
      <trkpt lat="43.41924" lon="3.44096">
        <ele>64.127797</ele>
        <time>2023-12-30T13:30:10.000Z</time>
      </trkpt>
      <trkpt lat="43.41924" lon="3.44091">
        <ele>64.012954</ele>
        <time>2023-12-30T13:30:11.000Z</time>
      </trkpt>
      <trkpt lat="43.41924" lon="3.44087">
        <ele>63.888018</ele>
        <time>2023-12-30T13:30:12.000Z</time>
      </trkpt>
      <trkpt lat="43.41924" lon="3.44081">
        <ele>63.738718</ele>
        <time>2023-12-30T13:30:13.000Z</time>
      </trkpt>
      <trkpt lat="43.41923" lon="3.44076">
        <ele>63.587932</ele>
        <time>2023-12-30T13:30:14.000Z</time>
      </trkpt>
      <trkpt lat="43.41922" lon="3.4407">
        <ele>63.429098</ele>
        <time>2023-12-30T13:30:15.000Z</time>
      </trkpt>
      <trkpt lat="43.41921" lon="3.44065">
        <ele>63.278012</ele>
        <time>2023-12-30T13:30:16.000Z</time>
      </trkpt>
      <trkpt lat="43.4192" lon="3.44059">
        <ele>63.116396</ele>
        <time>2023-12-30T13:30:17.000Z</time>
      </trkpt>
      <trkpt lat="43.4192" lon="3.44053">
        <ele>62.956339</ele>
        <time>2023-12-30T13:30:18.000Z</time>
      </trkpt>
      <trkpt lat="43.41918" lon="3.44046">
        <ele>62.775394</ele>
        <time>2023-12-30T13:30:19.000Z</time>
      </trkpt>
      <trkpt lat="43.41918" lon="3.4404">
        <ele>62.595996</ele>
        <time>2023-12-30T13:30:20.000Z</time>
      </trkpt>
      <trkpt lat="43.41916" lon="3.44033">
        <ele>62.407979</ele>
        <time>2023-12-30T13:30:21.000Z</time>
      </trkpt>
      <trkpt lat="43.41915" lon="3.44026">
        <ele>62.213184</ele>
        <time>2023-12-30T13:30:22.000Z</time>
      </trkpt>
      <trkpt lat="43.41916" lon="3.44019">
        <ele>62.006596</ele>
        <time>2023-12-30T13:30:23.000Z</time>
      </trkpt>
      <trkpt lat="43.41917" lon="3.44011">
        <ele>61.795712</ele>
        <time>2023-12-30T13:30:24.000Z</time>
      </trkpt>
      <trkpt lat="43.41918" lon="3.44002">
        <ele>61.562828</ele>
        <time>2023-12-30T13:30:25.000Z</time>
      </trkpt>
      <trkpt lat="43.41917" lon="3.43993">
        <ele>61.321507</ele>
        <time>2023-12-30T13:30:26.000Z</time>
      </trkpt>
      <trkpt lat="43.41916" lon="3.43984">
        <ele>61.071161</ele>
        <time>2023-12-30T13:30:27.000Z</time>
      </trkpt>
      <trkpt lat="43.41913" lon="3.43976">
        <ele>60.811083</ele>
        <time>2023-12-30T13:30:28.000Z</time>
      </trkpt>
      <trkpt lat="43.41911" lon="3.43966">
        <ele>60.539551</ele>
        <time>2023-12-30T13:30:29.000Z</time>
      </trkpt>
      <trkpt lat="43.41908" lon="3.43956">
        <ele>60.25414</ele>
        <time>2023-12-30T13:30:30.000Z</time>
      </trkpt>
      <trkpt lat="43.41906" lon="3.43946">
        <ele>59.959712</ele>
        <time>2023-12-30T13:30:31.000Z</time>
      </trkpt>
      <trkpt lat="43.41901" lon="3.43934">
        <ele>59.598571</ele>
        <time>2023-12-30T13:30:32.000Z</time>
      </trkpt>
      <trkpt lat="43.41899" lon="3.43923">
        <ele>59.269737</ele>
        <time>2023-12-30T13:30:33.000Z</time>
      </trkpt>
      <trkpt lat="43.41896" lon="3.43912">
        <ele>58.96139</ele>
        <time>2023-12-30T13:30:34.000Z</time>
      </trkpt>
      <trkpt lat="43.41892" lon="3.43904">
        <ele>58.702524</ele>
        <time>2023-12-30T13:30:35.000Z</time>
      </trkpt>
      <trkpt lat="43.41888" lon="3.43899">
        <ele>58.501972</ele>
        <time>2023-12-30T13:30:36.000Z</time>
      </trkpt>
      <trkpt lat="43.41884" lon="3.43896">
        <ele>58.334476</ele>
        <time>2023-12-30T13:30:37.000Z</time>
      </trkpt>
      <trkpt lat="43.41883" lon="3.43892">
        <ele>58.212907</ele>
        <time>2023-12-30T13:30:38.000Z</time>
      </trkpt>
      <trkpt lat="43.41882" lon="3.43889">
        <ele>58.115118</ele>
        <time>2023-12-30T13:30:39.000Z</time>
      </trkpt>
      <trkpt lat="43.41881" lon="3.43885">
        <ele>57.991356</ele>
        <time>2023-12-30T13:30:40.000Z</time>
      </trkpt>
      <trkpt lat="43.41881" lon="3.4388">
        <ele>57.831986</ele>
        <time>2023-12-30T13:30:41.000Z</time>
      </trkpt>
      <trkpt lat="43.41882" lon="3.43873">
        <ele>57.651735</ele>
        <time>2023-12-30T13:30:42.000Z</time>
      </trkpt>
      <trkpt lat="43.41883" lon="3.43867">
        <ele>57.457695</ele>
        <time>2023-12-30T13:30:43.000Z</time>
      </trkpt>
      <trkpt lat="43.41883" lon="3.43861">
        <ele>57.280666</ele>
        <time>2023-12-30T13:30:44.000Z</time>
      </trkpt>
      <trkpt lat="43.41884" lon="3.43854">
        <ele>57.083024</ele>
        <time>2023-12-30T13:30:45.000Z</time>
      </trkpt>
      <trkpt lat="43.41885" lon="3.43848">
        <ele>56.897497</ele>
        <time>2023-12-30T13:30:46.000Z</time>
      </trkpt>
      <trkpt lat="43.41886" lon="3.43842">
        <ele>56.738998</ele>
        <time>2023-12-30T13:30:47.000Z</time>
      </trkpt>
      <trkpt lat="43.41886" lon="3.43839">
        <ele>56.62855</ele>
        <time>2023-12-30T13:30:48.000Z</time>
      </trkpt>
      <trkpt lat="43.41887" lon="3.43835">
        <ele>56.51188</ele>
        <time>2023-12-30T13:30:49.000Z</time>
      </trkpt>
      <trkpt lat="43.41888" lon="3.43831">
        <ele>56.396359</ele>
        <time>2023-12-30T13:30:50.000Z</time>
      </trkpt>
      <trkpt lat="43.41889" lon="3.43828">
        <ele>56.299894</ele>
        <time>2023-12-30T13:30:51.000Z</time>
      </trkpt>
      <trkpt lat="43.4189" lon="3.43825">
        <ele>56.203454</ele>
        <time>2023-12-30T13:30:52.000Z</time>
      </trkpt>
      <trkpt lat="43.41891" lon="3.43821">
        <ele>56.089133</ele>
        <time>2023-12-30T13:30:53.000Z</time>
      </trkpt>
      <trkpt lat="43.41892" lon="3.43818">
        <ele>55.978939</ele>
        <time>2023-12-30T13:30:54.000Z</time>
      </trkpt>
      <trkpt lat="43.41893" lon="3.43814">
        <ele>55.879603</ele>
        <time>2023-12-30T13:30:55.000Z</time>
      </trkpt>
      <trkpt lat="43.41893" lon="3.43811">
        <ele>55.771917</ele>
        <time>2023-12-30T13:30:56.000Z</time>
      </trkpt>
      <trkpt lat="43.41894" lon="3.43807">
        <ele>55.669804</ele>
        <time>2023-12-30T13:30:57.000Z</time>
      </trkpt>
      <trkpt lat="43.41895" lon="3.43804">
        <ele>55.56026</ele>
        <time>2023-12-30T13:30:58.000Z</time>
      </trkpt>
      <trkpt lat="43.41895" lon="3.438">
        <ele>55.469894</ele>
        <time>2023-12-30T13:30:59.000Z</time>
      </trkpt>
      <trkpt lat="43.41896" lon="3.43797">
        <ele>55.359415</ele>
        <time>2023-12-30T13:31:00.000Z</time>
      </trkpt>
      <trkpt lat="43.41896" lon="3.43793">
        <ele>55.240527</ele>
        <time>2023-12-30T13:31:01.000Z</time>
      </trkpt>
      <trkpt lat="43.41898" lon="3.43789">
        <ele>55.125073</ele>
        <time>2023-12-30T13:31:02.000Z</time>
      </trkpt>
      <trkpt lat="43.41898" lon="3.43786">
        <ele>55.028401</ele>
        <time>2023-12-30T13:31:03.000Z</time>
      </trkpt>
      <trkpt lat="43.41899" lon="3.43783">
        <ele>54.939463</ele>
        <time>2023-12-30T13:31:04.000Z</time>
      </trkpt>
      <trkpt lat="43.41899" lon="3.43781">
        <ele>54.884419</ele>
        <time>2023-12-30T13:31:05.000Z</time>
      </trkpt>
      <trkpt lat="43.41899" lon="3.43781">
        <ele>54.874881</ele>
        <time>2023-12-30T13:31:06.000Z</time>
      </trkpt>
      <trkpt lat="43.41899" lon="3.43781">
        <ele>54.874881</ele>
        <time>2023-12-30T13:31:07.000Z</time>
      </trkpt>
      <trkpt lat="43.41899" lon="3.43781">
        <ele>54.869102</ele>
        <time>2023-12-30T13:31:08.000Z</time>
      </trkpt>
      <trkpt lat="43.41899" lon="3.4378">
        <ele>54.845986</ele>
        <time>2023-12-30T13:31:09.000Z</time>
      </trkpt>
      <trkpt lat="43.41899" lon="3.43778">
        <ele>54.507864</ele>
        <time>2023-12-30T13:35:44.000Z</time>
      </trkpt>
      <trkpt lat="43.41901" lon="3.4377">
        <ele>54.266688</ele>
        <time>2023-12-30T13:35:47.000Z</time>
      </trkpt>
      <trkpt lat="43.41902" lon="3.43767">
        <ele>54.172865</ele>
        <time>2023-12-30T13:35:48.000Z</time>
      </trkpt>
      <trkpt lat="43.41901" lon="3.43763">
        <ele>54.064776</ele>
        <time>2023-12-30T13:35:49.000Z</time>
      </trkpt>
      <trkpt lat="43.41901" lon="3.43759">
        <ele>53.957568</ele>
        <time>2023-12-30T13:35:50.000Z</time>
      </trkpt>
      <trkpt lat="43.41901" lon="3.43755">
        <ele>53.844807</ele>
        <time>2023-12-30T13:35:51.000Z</time>
      </trkpt>
      <trkpt lat="43.419" lon="3.43751">
        <ele>53.706919</ele>
        <time>2023-12-30T13:35:52.000Z</time>
      </trkpt>
      <trkpt lat="43.41899" lon="3.43745">
        <ele>53.540981</ele>
        <time>2023-12-30T13:35:53.000Z</time>
      </trkpt>
      <trkpt lat="43.41897" lon="3.43739">
        <ele>53.324031</ele>
        <time>2023-12-30T13:35:54.000Z</time>
      </trkpt>
      <trkpt lat="43.41893" lon="3.43732">
        <ele>53.080834</ele>
        <time>2023-12-30T13:35:55.000Z</time>
      </trkpt>
      <trkpt lat="43.41888" lon="3.43725">
        <ele>52.81169</ele>
        <time>2023-12-30T13:35:56.000Z</time>
      </trkpt>
      <trkpt lat="43.41882" lon="3.43719">
        <ele>52.519892</ele>
        <time>2023-12-30T13:35:57.000Z</time>
      </trkpt>
      <trkpt lat="43.41875" lon="3.43715">
        <ele>52.222059</ele>
        <time>2023-12-30T13:35:58.000Z</time>
      </trkpt>
      <trkpt lat="43.41868" lon="3.43714">
        <ele>51.942378</ele>
        <time>2023-12-30T13:35:59.000Z</time>
      </trkpt>
      <trkpt lat="43.41861" lon="3.43715">
        <ele>51.651845</ele>
        <time>2023-12-30T13:36:00.000Z</time>
      </trkpt>
      <trkpt lat="43.41855" lon="3.43716">
        <ele>51.403514</ele>
        <time>2023-12-30T13:36:01.000Z</time>
      </trkpt>
      <trkpt lat="43.41849" lon="3.43716">
        <ele>51.107189</ele>
        <time>2023-12-30T13:36:02.000Z</time>
      </trkpt>
      <trkpt lat="43.41844" lon="3.43716">
        <ele>50.816326</ele>
        <time>2023-12-30T13:36:03.000Z</time>
      </trkpt>
      <trkpt lat="43.41838" lon="3.43715">
        <ele>50.534852</ele>
        <time>2023-12-30T13:36:04.000Z</time>
      </trkpt>
      <trkpt lat="43.41833" lon="3.43713">
        <ele>50.243291</ele>
        <time>2023-12-30T13:36:05.000Z</time>
      </trkpt>
      <trkpt lat="43.41827" lon="3.43711">
        <ele>49.923817</ele>
        <time>2023-12-30T13:36:06.000Z</time>
      </trkpt>
      <trkpt lat="43.41822" lon="3.43712">
        <ele>49.632422</ele>
        <time>2023-12-30T13:36:07.000Z</time>
      </trkpt>
      <trkpt lat="43.41816" lon="3.43713">
        <ele>49.324937</ele>
        <time>2023-12-30T13:36:08.000Z</time>
      </trkpt>
      <trkpt lat="43.41811" lon="3.43714">
        <ele>49.04681</ele>
        <time>2023-12-30T13:36:09.000Z</time>
      </trkpt>
      <trkpt lat="43.41806" lon="3.43715">
        <ele>48.779128</ele>
        <time>2023-12-30T13:36:10.000Z</time>
      </trkpt>
      <trkpt lat="43.418" lon="3.43716">
        <ele>48.500391</ele>
        <time>2023-12-30T13:36:11.000Z</time>
      </trkpt>
      <trkpt lat="43.41795" lon="3.43717">
        <ele>48.215092</ele>
        <time>2023-12-30T13:36:12.000Z</time>
      </trkpt>
      <trkpt lat="43.41789" lon="3.43719">
        <ele>47.900777</ele>
        <time>2023-12-30T13:36:13.000Z</time>
      </trkpt>
      <trkpt lat="43.41783" lon="3.4372">
        <ele>47.559811</ele>
        <time>2023-12-30T13:36:14.000Z</time>
      </trkpt>
      <trkpt lat="43.41777" lon="3.43721">
        <ele>47.239287</ele>
        <time>2023-12-30T13:36:15.000Z</time>
      </trkpt>
      <trkpt lat="43.4177" lon="3.43723">
        <ele>46.893074</ele>
        <time>2023-12-30T13:36:16.000Z</time>
      </trkpt>
      <trkpt lat="43.41765" lon="3.43722">
        <ele>46.586357</ele>
        <time>2023-12-30T13:36:17.000Z</time>
      </trkpt>
      <trkpt lat="43.41758" lon="3.43722">
        <ele>46.247995</ele>
        <time>2023-12-30T13:36:18.000Z</time>
      </trkpt>
      <trkpt lat="43.41752" lon="3.43722">
        <ele>45.903832</ele>
        <time>2023-12-30T13:36:19.000Z</time>
      </trkpt>
      <trkpt lat="43.41745" lon="3.43721">
        <ele>45.559433</ele>
        <time>2023-12-30T13:36:20.000Z</time>
      </trkpt>
      <trkpt lat="43.41739" lon="3.4372">
        <ele>45.227887</ele>
        <time>2023-12-30T13:36:21.000Z</time>
      </trkpt>
      <trkpt lat="43.41733" lon="3.43719">
        <ele>44.903128</ele>
        <time>2023-12-30T13:36:22.000Z</time>
      </trkpt>
      <trkpt lat="43.41727" lon="3.43719">
        <ele>44.611961</ele>
        <time>2023-12-30T13:36:23.000Z</time>
      </trkpt>
      <trkpt lat="43.41723" lon="3.43719">
        <ele>44.384509</ele>
        <time>2023-12-30T13:36:24.000Z</time>
      </trkpt>
      <trkpt lat="43.41719" lon="3.43718">
        <ele>44.1451</ele>
        <time>2023-12-30T13:36:25.000Z</time>
      </trkpt>
      <trkpt lat="43.41714" lon="3.43718">
        <ele>43.906091</ele>
        <time>2023-12-30T13:36:26.000Z</time>
      </trkpt>
      <trkpt lat="43.4171" lon="3.43717">
        <ele>43.676157</ele>
        <time>2023-12-30T13:36:27.000Z</time>
      </trkpt>
      <trkpt lat="43.41705" lon="3.43715">
        <ele>43.421099</ele>
        <time>2023-12-30T13:36:28.000Z</time>
      </trkpt>
      <trkpt lat="43.417" lon="3.43714">
        <ele>43.168285</ele>
        <time>2023-12-30T13:36:29.000Z</time>
      </trkpt>
      <trkpt lat="43.41696" lon="3.43713">
        <ele>42.943575</ele>
        <time>2023-12-30T13:36:30.000Z</time>
      </trkpt>
      <trkpt lat="43.41693" lon="3.43712">
        <ele>42.744239</ele>
        <time>2023-12-30T13:36:31.000Z</time>
      </trkpt>
      <trkpt lat="43.4169" lon="3.43711">
        <ele>42.596426</ele>
        <time>2023-12-30T13:36:32.000Z</time>
      </trkpt>
      <trkpt lat="43.41688" lon="3.43709">
        <ele>42.48426</ele>
        <time>2023-12-30T13:36:33.000Z</time>
      </trkpt>
      <trkpt lat="43.41686" lon="3.43709">
        <ele>42.381207</ele>
        <time>2023-12-30T13:36:34.000Z</time>
      </trkpt>
      <trkpt lat="43.41684" lon="3.43708">
        <ele>42.258109</ele>
        <time>2023-12-30T13:36:35.000Z</time>
      </trkpt>
      <trkpt lat="43.41681" lon="3.43709">
        <ele>42.117268</ele>
        <time>2023-12-30T13:36:36.000Z</time>
      </trkpt>
      <trkpt lat="43.41679" lon="3.4371">
        <ele>41.983716</ele>
        <time>2023-12-30T13:36:37.000Z</time>
      </trkpt>
      <trkpt lat="43.41677" lon="3.43709">
        <ele>41.874621</ele>
        <time>2023-12-30T13:36:38.000Z</time>
      </trkpt>
      <trkpt lat="43.41675" lon="3.43709">
        <ele>41.748648</ele>
        <time>2023-12-30T13:36:39.000Z</time>
      </trkpt>
      <trkpt lat="43.41673" lon="3.43708">
        <ele>41.623953</ele>
        <time>2023-12-30T13:36:40.000Z</time>
      </trkpt>
      <trkpt lat="43.41671" lon="3.43708">
        <ele>41.467069</ele>
        <time>2023-12-30T13:36:41.000Z</time>
      </trkpt>
      <trkpt lat="43.41669" lon="3.43708">
        <ele>41.337201</ele>
        <time>2023-12-30T13:36:42.000Z</time>
      </trkpt>
      <trkpt lat="43.41667" lon="3.43708">
        <ele>41.22176</ele>
        <time>2023-12-30T13:36:43.000Z</time>
      </trkpt>
      <trkpt lat="43.41665" lon="3.43708">
        <ele>41.099529</ele>
        <time>2023-12-30T13:36:44.000Z</time>
      </trkpt>
      <trkpt lat="43.41663" lon="3.43707">
        <ele>40.965796</ele>
        <time>2023-12-30T13:36:45.000Z</time>
      </trkpt>
      <trkpt lat="43.41661" lon="3.43707">
        <ele>40.815105</ele>
        <time>2023-12-30T13:36:46.000Z</time>
      </trkpt>
      <trkpt lat="43.41659" lon="3.43706">
        <ele>40.644695</ele>
        <time>2023-12-30T13:36:47.000Z</time>
      </trkpt>
      <trkpt lat="43.41656" lon="3.43705">
        <ele>40.443852</ele>
        <time>2023-12-30T13:36:48.000Z</time>
      </trkpt>
      <trkpt lat="43.41653" lon="3.43705">
        <ele>40.226049</ele>
        <time>2023-12-30T13:36:49.000Z</time>
      </trkpt>
      <trkpt lat="43.41649" lon="3.43704">
        <ele>39.983312</ele>
        <time>2023-12-30T13:36:50.000Z</time>
      </trkpt>
      <trkpt lat="43.41645" lon="3.43703">
        <ele>39.721477</ele>
        <time>2023-12-30T13:36:51.000Z</time>
      </trkpt>
      <trkpt lat="43.41642" lon="3.43702">
        <ele>39.476545</ele>
        <time>2023-12-30T13:36:52.000Z</time>
      </trkpt>
      <trkpt lat="43.41638" lon="3.43702">
        <ele>39.211527</ele>
        <time>2023-12-30T13:36:53.000Z</time>
      </trkpt>
      <trkpt lat="43.41634" lon="3.43701">
        <ele>38.955477</ele>
        <time>2023-12-30T13:36:54.000Z</time>
      </trkpt>
      <trkpt lat="43.4163" lon="3.43699">
        <ele>38.659553</ele>
        <time>2023-12-30T13:36:55.000Z</time>
      </trkpt>
      <trkpt lat="43.41626" lon="3.43698">
        <ele>38.373848</ele>
        <time>2023-12-30T13:36:56.000Z</time>
      </trkpt>
      <trkpt lat="43.41622" lon="3.43697">
        <ele>38.102479</ele>
        <time>2023-12-30T13:36:57.000Z</time>
      </trkpt>
      <trkpt lat="43.41618" lon="3.43695">
        <ele>37.806554</ele>
        <time>2023-12-30T13:36:58.000Z</time>
      </trkpt>
      <trkpt lat="43.41614" lon="3.43694">
        <ele>37.517168</ele>
        <time>2023-12-30T13:36:59.000Z</time>
      </trkpt>
      <trkpt lat="43.41609" lon="3.43691">
        <ele>37.18162</ele>
        <time>2023-12-30T13:37:00.000Z</time>
      </trkpt>
      <trkpt lat="43.41605" lon="3.43688">
        <ele>36.847317</ele>
        <time>2023-12-30T13:37:01.000Z</time>
      </trkpt>
      <trkpt lat="43.41602" lon="3.43684">
        <ele>36.553228</ele>
        <time>2023-12-30T13:37:02.000Z</time>
      </trkpt>
      <trkpt lat="43.41599" lon="3.43678">
        <ele>36.224791</ele>
        <time>2023-12-30T13:37:03.000Z</time>
      </trkpt>
      <trkpt lat="43.41597" lon="3.43672">
        <ele>35.886267</ele>
        <time>2023-12-30T13:37:04.000Z</time>
      </trkpt>
      <trkpt lat="43.41596" lon="3.43665">
        <ele>35.525098</ele>
        <time>2023-12-30T13:37:05.000Z</time>
      </trkpt>
      <trkpt lat="43.41595" lon="3.43657">
        <ele>35.136538</ele>
        <time>2023-12-30T13:37:06.000Z</time>
      </trkpt>
      <trkpt lat="43.41594" lon="3.43648">
        <ele>34.700949</ele>
        <time>2023-12-30T13:37:07.000Z</time>
      </trkpt>
      <trkpt lat="43.41593" lon="3.4364">
        <ele>34.29505</ele>
        <time>2023-12-30T13:37:08.000Z</time>
      </trkpt>
      <trkpt lat="43.4159" lon="3.43633">
        <ele>33.901413</ele>
        <time>2023-12-30T13:37:09.000Z</time>
      </trkpt>
      <trkpt lat="43.41586" lon="3.43627">
        <ele>33.499703</ele>
        <time>2023-12-30T13:37:10.000Z</time>
      </trkpt>
      <trkpt lat="43.41582" lon="3.43624">
        <ele>33.159453</ele>
        <time>2023-12-30T13:37:11.000Z</time>
      </trkpt>
      <trkpt lat="43.41577" lon="3.43623">
        <ele>32.846928</ele>
        <time>2023-12-30T13:37:12.000Z</time>
      </trkpt>
      <trkpt lat="43.41573" lon="3.43625">
        <ele>32.528045</ele>
        <time>2023-12-30T13:37:13.000Z</time>
      </trkpt>
      <trkpt lat="43.41568" lon="3.43627">
        <ele>32.158739</ele>
        <time>2023-12-30T13:37:14.000Z</time>
      </trkpt>
      <trkpt lat="43.41563" lon="3.43631">
        <ele>31.762574</ele>
        <time>2023-12-30T13:37:15.000Z</time>
      </trkpt>
      <trkpt lat="43.41557" lon="3.43636">
        <ele>31.348541</ele>
        <time>2023-12-30T13:37:16.000Z</time>
      </trkpt>
      <trkpt lat="43.41553" lon="3.4364">
        <ele>30.970853</ele>
        <time>2023-12-30T13:37:17.000Z</time>
      </trkpt>
      <trkpt lat="43.4155" lon="3.43645">
        <ele>30.671396</ele>
        <time>2023-12-30T13:37:18.000Z</time>
      </trkpt>
      <trkpt lat="43.41549" lon="3.4365">
        <ele>30.419823</ele>
        <time>2023-12-30T13:37:19.000Z</time>
      </trkpt>
      <trkpt lat="43.41548" lon="3.43654">
        <ele>30.198995</ele>
        <time>2023-12-30T13:37:20.000Z</time>
      </trkpt>
      <trkpt lat="43.41548" lon="3.43658">
        <ele>30.018203</ele>
        <time>2023-12-30T13:37:21.000Z</time>
      </trkpt>
      <trkpt lat="43.41547" lon="3.43661">
        <ele>29.844331</ele>
        <time>2023-12-30T13:37:22.000Z</time>
      </trkpt>
      <trkpt lat="43.41546" lon="3.43665">
        <ele>29.647624</ele>
        <time>2023-12-30T13:37:23.000Z</time>
      </trkpt>
      <trkpt lat="43.41545" lon="3.43669">
        <ele>29.716874</ele>
        <time>2023-12-30T13:37:24.000Z</time>
      </trkpt>
      <trkpt lat="43.41546" lon="3.43674">
        <ele>29.794773</ele>
        <time>2023-12-30T13:37:25.000Z</time>
      </trkpt>
      <trkpt lat="43.41548" lon="3.43678">
        <ele>29.865303</ele>
        <time>2023-12-30T13:37:26.000Z</time>
      </trkpt>
      <trkpt lat="43.41549" lon="3.43681">
        <ele>29.920735</ele>
        <time>2023-12-30T13:37:27.000Z</time>
      </trkpt>
      <trkpt lat="43.4155" lon="3.43685">
        <ele>29.978629</ele>
        <time>2023-12-30T13:37:28.000Z</time>
      </trkpt>
      <trkpt lat="43.41551" lon="3.43689">
        <ele>30.038509</ele>
        <time>2023-12-30T13:37:29.000Z</time>
      </trkpt>
      <trkpt lat="43.41551" lon="3.43692">
        <ele>30.092584</ele>
        <time>2023-12-30T13:37:30.000Z</time>
      </trkpt>
      <trkpt lat="43.41551" lon="3.43696">
        <ele>30.148314</ele>
        <time>2023-12-30T13:37:31.000Z</time>
      </trkpt>
      <trkpt lat="43.41551" lon="3.43699">
        <ele>30.196779</ele>
        <time>2023-12-30T13:37:32.000Z</time>
      </trkpt>
      <trkpt lat="43.41551" lon="3.43703">
        <ele>30.255505</ele>
        <time>2023-12-30T13:37:33.000Z</time>
      </trkpt>
      <trkpt lat="43.4155" lon="3.43708">
        <ele>30.324631</ele>
        <time>2023-12-30T13:37:34.000Z</time>
      </trkpt>
      <trkpt lat="43.4155" lon="3.43712">
        <ele>30.384511</ele>
        <time>2023-12-30T13:37:35.000Z</time>
      </trkpt>
      <trkpt lat="43.41549" lon="3.43715">
        <ele>30.443998</ele>
        <time>2023-12-30T13:37:36.000Z</time>
      </trkpt>
      <trkpt lat="43.41549" lon="3.4372">
        <ele>30.509114</ele>
        <time>2023-12-30T13:37:37.000Z</time>
      </trkpt>
      <trkpt lat="43.41548" lon="3.43724">
        <ele>30.573836</ele>
        <time>2023-12-30T13:37:38.000Z</time>
      </trkpt>
      <trkpt lat="43.41548" lon="3.43728">
        <ele>30.633716</ele>
        <time>2023-12-30T13:37:39.000Z</time>
      </trkpt>
      <trkpt lat="43.41547" lon="3.43732">
        <ele>30.694058</ele>
        <time>2023-12-30T13:37:40.000Z</time>
      </trkpt>
      <trkpt lat="43.41546" lon="3.43736">
        <ele>30.754401</ele>
        <time>2023-12-30T13:37:41.000Z</time>
      </trkpt>
      <trkpt lat="43.41546" lon="3.4374">
        <ele>30.812813</ele>
        <time>2023-12-30T13:37:42.000Z</time>
      </trkpt>
      <trkpt lat="43.41546" lon="3.43743">
        <ele>30.864259</ele>
        <time>2023-12-30T13:37:43.000Z</time>
      </trkpt>
      <trkpt lat="43.41545" lon="3.43746">
        <ele>30.905649</ele>
        <time>2023-12-30T13:37:44.000Z</time>
      </trkpt>
      <trkpt lat="43.41545" lon="3.43748">
        <ele>30.943258</ele>
        <time>2023-12-30T13:37:45.000Z</time>
      </trkpt>
      <trkpt lat="43.41545" lon="3.43751">
        <ele>30.983867</ele>
        <time>2023-12-30T13:37:46.000Z</time>
      </trkpt>
      <trkpt lat="43.41546" lon="3.43753">
        <ele>31.024266</ele>
        <time>2023-12-30T13:37:47.000Z</time>
      </trkpt>
      <trkpt lat="43.41546" lon="3.43755">
        <ele>31.054941</ele>
        <time>2023-12-30T13:37:48.000Z</time>
      </trkpt>
      <trkpt lat="43.41546" lon="3.43758">
        <ele>31.090042</ele>
        <time>2023-12-30T13:37:49.000Z</time>
      </trkpt>
      <trkpt lat="43.41546" lon="3.4376">
        <ele>31.120154</ele>
        <time>2023-12-30T13:37:50.000Z</time>
      </trkpt>
      <trkpt lat="43.41545" lon="3.4376">
        <ele>31.128561</ele>
        <time>2023-12-30T13:37:51.000Z</time>
      </trkpt>
      <trkpt lat="43.41545" lon="3.4376">
        <ele>31.128561</ele>
        <time>2023-12-30T13:37:52.000Z</time>
      </trkpt>
      <trkpt lat="43.41545" lon="3.4376">
        <ele>31.133067</ele>
        <time>2023-12-30T13:37:53.000Z</time>
      </trkpt>
      <trkpt lat="43.41545" lon="3.43762">
        <ele>31.167615</ele>
        <time>2023-12-30T13:37:54.000Z</time>
      </trkpt>
      <trkpt lat="43.41545" lon="3.43765">
        <ele>31.203901</ele>
        <time>2023-12-30T13:37:55.000Z</time>
      </trkpt>
      <trkpt lat="43.41546" lon="3.43767">
        <ele>31.240187</ele>
        <time>2023-12-30T13:37:56.000Z</time>
      </trkpt>
      <trkpt lat="43.41546" lon="3.43769">
        <ele>31.267224</ele>
        <time>2023-12-30T13:37:57.000Z</time>
      </trkpt>
      <trkpt lat="43.41545" lon="3.43771">
        <ele>31.298836</ele>
        <time>2023-12-30T13:37:58.000Z</time>
      </trkpt>
      <trkpt lat="43.41546" lon="3.43773">
        <ele>31.332139</ele>
        <time>2023-12-30T13:37:59.000Z</time>
      </trkpt>
      <trkpt lat="43.41546" lon="3.43775">
        <ele>31.362464</ele>
        <time>2023-12-30T13:38:00.000Z</time>
      </trkpt>
      <trkpt lat="43.41546" lon="3.43778">
        <ele>31.409028</ele>
        <time>2023-12-30T13:38:01.000Z</time>
      </trkpt>
      <trkpt lat="43.41546" lon="3.43781">
        <ele>31.451892</ele>
        <time>2023-12-30T13:38:02.000Z</time>
      </trkpt>
      <trkpt lat="43.41547" lon="3.43783">
        <ele>31.484502</ele>
        <time>2023-12-30T13:38:03.000Z</time>
      </trkpt>
      <trkpt lat="43.41547" lon="3.43786">
        <ele>31.52511</ele>
        <time>2023-12-30T13:38:04.000Z</time>
      </trkpt>
      <trkpt lat="43.41547" lon="3.43788">
        <ele>31.55972</ele>
        <time>2023-12-30T13:38:05.000Z</time>
      </trkpt>
      <trkpt lat="43.41547" lon="3.4379">
        <ele>31.591533</ele>
        <time>2023-12-30T13:38:06.000Z</time>
      </trkpt>
      <trkpt lat="43.41547" lon="3.43793">
        <ele>31.623681</ele>
        <time>2023-12-30T13:38:07.000Z</time>
      </trkpt>
      <trkpt lat="43.41547" lon="3.43795">
        <ele>31.665534</ele>
        <time>2023-12-30T13:38:08.000Z</time>
      </trkpt>
      <trkpt lat="43.41547" lon="3.43798">
        <ele>31.711021</ele>
        <time>2023-12-30T13:38:09.000Z</time>
      </trkpt>
      <trkpt lat="43.41547" lon="3.43801">
        <ele>31.75463</ele>
        <time>2023-12-30T13:38:10.000Z</time>
      </trkpt>
      <trkpt lat="43.41547" lon="3.43804">
        <ele>31.795608</ele>
        <time>2023-12-30T13:38:11.000Z</time>
      </trkpt>
      <trkpt lat="43.41547" lon="3.43806">
        <ele>31.836216</ele>
        <time>2023-12-30T13:38:12.000Z</time>
      </trkpt>
      <trkpt lat="43.41546" lon="3.43809">
        <ele>31.872325</ele>
        <time>2023-12-30T13:38:13.000Z</time>
      </trkpt>
      <trkpt lat="43.41547" lon="3.43811">
        <ele>31.910104</ele>
        <time>2023-12-30T13:38:14.000Z</time>
      </trkpt>
      <trkpt lat="43.41546" lon="3.43815">
        <ele>31.962839</ele>
        <time>2023-12-30T13:38:15.000Z</time>
      </trkpt>
      <trkpt lat="43.41546" lon="3.43817">
        <ele>31.996462</ele>
        <time>2023-12-30T13:38:16.000Z</time>
      </trkpt>
      <trkpt lat="43.41546" lon="3.43819">
        <ele>32.032748</ele>
        <time>2023-12-30T13:38:17.000Z</time>
      </trkpt>
      <trkpt lat="43.41545" lon="3.43822">
        <ele>32.078041</ele>
        <time>2023-12-30T13:38:18.000Z</time>
      </trkpt>
      <trkpt lat="43.41545" lon="3.43825">
        <ele>32.123528</ele>
        <time>2023-12-30T13:38:19.000Z</time>
      </trkpt>
      <trkpt lat="43.41545" lon="3.43828">
        <ele>32.166041</ele>
        <time>2023-12-30T13:38:20.000Z</time>
      </trkpt>
      <trkpt lat="43.41545" lon="3.4383">
        <ele>32.200651</ele>
        <time>2023-12-30T13:38:21.000Z</time>
      </trkpt>
      <trkpt lat="43.41545" lon="3.43834">
        <ele>32.248761</ele>
        <time>2023-12-30T13:38:22.000Z</time>
      </trkpt>
      <trkpt lat="43.41545" lon="3.43836">
        <ele>32.287815</ele>
        <time>2023-12-30T13:38:23.000Z</time>
      </trkpt>
      <trkpt lat="43.41545" lon="3.43839">
        <ele>32.326869</ele>
        <time>2023-12-30T13:38:24.000Z</time>
      </trkpt>
      <trkpt lat="43.41544" lon="3.43841">
        <ele>32.36493</ele>
        <time>2023-12-30T13:38:25.000Z</time>
      </trkpt>
      <trkpt lat="43.41544" lon="3.43844">
        <ele>32.398553</ele>
        <time>2023-12-30T13:38:26.000Z</time>
      </trkpt>
      <trkpt lat="43.41544" lon="3.43846">
        <ele>32.437825</ele>
        <time>2023-12-30T13:38:27.000Z</time>
      </trkpt>
      <trkpt lat="43.41545" lon="3.43849">
        <ele>32.474812</ele>
        <time>2023-12-30T13:38:28.000Z</time>
      </trkpt>
      <trkpt lat="43.41545" lon="3.43851">
        <ele>32.517325</ele>
        <time>2023-12-30T13:38:29.000Z</time>
      </trkpt>
      <trkpt lat="43.41545" lon="3.43855">
        <ele>32.565569</ele>
        <time>2023-12-30T13:38:30.000Z</time>
      </trkpt>
      <trkpt lat="43.41546" lon="3.43858">
        <ele>32.61521</ele>
        <time>2023-12-30T13:38:31.000Z</time>
      </trkpt>
      <trkpt lat="43.41547" lon="3.43861">
        <ele>32.667536</ele>
        <time>2023-12-30T13:38:32.000Z</time>
      </trkpt>
      <trkpt lat="43.41548" lon="3.43864">
        <ele>32.718014</ele>
        <time>2023-12-30T13:38:33.000Z</time>
      </trkpt>
      <trkpt lat="43.41549" lon="3.43867">
        <ele>32.764005</ele>
        <time>2023-12-30T13:38:34.000Z</time>
      </trkpt>
      <trkpt lat="43.4155" lon="3.4387">
        <ele>32.81182</ele>
        <time>2023-12-30T13:38:35.000Z</time>
      </trkpt>
      <trkpt lat="43.41551" lon="3.43872">
        <ele>32.854689</ele>
        <time>2023-12-30T13:38:36.000Z</time>
      </trkpt>
      <trkpt lat="43.41552" lon="3.43875">
        <ele>32.900213</ele>
        <time>2023-12-30T13:38:37.000Z</time>
      </trkpt>
      <trkpt lat="43.41553" lon="3.43878">
        <ele>32.953921</ele>
        <time>2023-12-30T13:38:38.000Z</time>
      </trkpt>
      <trkpt lat="43.41554" lon="3.43881">
        <ele>33.003502</ele>
        <time>2023-12-30T13:38:39.000Z</time>
      </trkpt>
      <trkpt lat="43.41555" lon="3.43884">
        <ele>33.050368</ele>
        <time>2023-12-30T13:38:40.000Z</time>
      </trkpt>
      <trkpt lat="43.41556" lon="3.43886">
        <ele>33.081036</ele>
        <time>2023-12-30T13:38:41.000Z</time>
      </trkpt>
      <trkpt lat="43.41557" lon="3.43888">
        <ele>33.117661</ele>
        <time>2023-12-30T13:38:42.000Z</time>
      </trkpt>
      <trkpt lat="43.41558" lon="3.43889">
        <ele>33.155287</ele>
        <time>2023-12-30T13:38:43.000Z</time>
      </trkpt>
      <trkpt lat="43.4156" lon="3.43891">
        <ele>33.199635</ele>
        <time>2023-12-30T13:38:44.000Z</time>
      </trkpt>
      <trkpt lat="43.41562" lon="3.43893">
        <ele>33.250752</ele>
        <time>2023-12-30T13:38:45.000Z</time>
      </trkpt>
      <trkpt lat="43.41563" lon="3.43895">
        <ele>33.296993</ele>
        <time>2023-12-30T13:38:46.000Z</time>
      </trkpt>
      <trkpt lat="43.41565" lon="3.43897">
        <ele>33.346404</ele>
        <time>2023-12-30T13:38:47.000Z</time>
      </trkpt>
      <trkpt lat="43.41567" lon="3.43898">
        <ele>33.422562</ele>
        <time>2023-12-30T13:38:48.000Z</time>
      </trkpt>
      <trkpt lat="43.41569" lon="3.43899">
        <ele>33.513681</ele>
        <time>2023-12-30T13:38:49.000Z</time>
      </trkpt>
      <trkpt lat="43.41571" lon="3.439">
        <ele>33.603883</ele>
        <time>2023-12-30T13:38:50.000Z</time>
      </trkpt>
      <trkpt lat="43.41573" lon="3.439">
        <ele>33.696147</ele>
        <time>2023-12-30T13:38:51.000Z</time>
      </trkpt>
      <trkpt lat="43.41575" lon="3.439">
        <ele>33.787928</ele>
        <time>2023-12-30T13:38:52.000Z</time>
      </trkpt>
      <trkpt lat="43.41577" lon="3.439">
        <ele>33.884293</ele>
        <time>2023-12-30T13:38:53.000Z</time>
      </trkpt>
      <trkpt lat="43.41579" lon="3.439">
        <ele>33.976256</ele>
        <time>2023-12-30T13:38:54.000Z</time>
      </trkpt>
      <trkpt lat="43.41581" lon="3.439">
        <ele>34.068218</ele>
        <time>2023-12-30T13:38:55.000Z</time>
      </trkpt>
      <trkpt lat="43.41583" lon="3.439">
        <ele>34.156366</ele>
        <time>2023-12-30T13:38:56.000Z</time>
      </trkpt>
      <trkpt lat="43.41585" lon="3.43899">
        <ele>34.239895</ele>
        <time>2023-12-30T13:38:57.000Z</time>
      </trkpt>
      <trkpt lat="43.41587" lon="3.43898">
        <ele>34.331614</ele>
        <time>2023-12-30T13:38:58.000Z</time>
      </trkpt>
      <trkpt lat="43.41588" lon="3.43896">
        <ele>34.411176</ele>
        <time>2023-12-30T13:38:59.000Z</time>
      </trkpt>
      <trkpt lat="43.4159" lon="3.43896">
        <ele>34.484949</ele>
        <time>2023-12-30T13:39:00.000Z</time>
      </trkpt>
      <trkpt lat="43.41591" lon="3.43895">
        <ele>34.564671</ele>
        <time>2023-12-30T13:39:01.000Z</time>
      </trkpt>
      <trkpt lat="43.41593" lon="3.43894">
        <ele>34.661168</ele>
        <time>2023-12-30T13:39:02.000Z</time>
      </trkpt>
      <trkpt lat="43.41595" lon="3.43894">
        <ele>34.744785</ele>
        <time>2023-12-30T13:39:03.000Z</time>
      </trkpt>
      <trkpt lat="43.41597" lon="3.43894">
        <ele>34.818464</ele>
        <time>2023-12-30T13:39:04.000Z</time>
      </trkpt>
      <trkpt lat="43.41599" lon="3.43894">
        <ele>34.905853</ele>
        <time>2023-12-30T13:39:05.000Z</time>
      </trkpt>
      <trkpt lat="43.416" lon="3.43894">
        <ele>34.988671</ele>
        <time>2023-12-30T13:39:06.000Z</time>
      </trkpt>
      <trkpt lat="43.41602" lon="3.43894">
        <ele>35.062123</ele>
        <time>2023-12-30T13:39:07.000Z</time>
      </trkpt>
      <trkpt lat="43.41603" lon="3.43895">
        <ele>35.14341</ele>
        <time>2023-12-30T13:39:08.000Z</time>
      </trkpt>
      <trkpt lat="43.41605" lon="3.43897">
        <ele>35.232185</ele>
        <time>2023-12-30T13:39:09.000Z</time>
      </trkpt>
      <trkpt lat="43.41606" lon="3.43899">
        <ele>35.310545</ele>
        <time>2023-12-30T13:39:10.000Z</time>
      </trkpt>
      <trkpt lat="43.41607" lon="3.439">
        <ele>35.387157</ele>
        <time>2023-12-30T13:39:11.000Z</time>
      </trkpt>
      <trkpt lat="43.41608" lon="3.43903">
        <ele>35.480105</ele>
        <time>2023-12-30T13:39:12.000Z</time>
      </trkpt>
      <trkpt lat="43.41609" lon="3.43905">
        <ele>35.570983</ele>
        <time>2023-12-30T13:39:13.000Z</time>
      </trkpt>
      <trkpt lat="43.41609" lon="3.43908">
        <ele>35.667034</ele>
        <time>2023-12-30T13:39:14.000Z</time>
      </trkpt>
      <trkpt lat="43.4161" lon="3.4391">
        <ele>35.744878</ele>
        <time>2023-12-30T13:39:15.000Z</time>
      </trkpt>
      <trkpt lat="43.4161" lon="3.43913">
        <ele>35.829287</ele>
        <time>2023-12-30T13:39:16.000Z</time>
      </trkpt>
      <trkpt lat="43.4161" lon="3.43915">
        <ele>35.912694</ele>
        <time>2023-12-30T13:39:17.000Z</time>
      </trkpt>
      <trkpt lat="43.4161" lon="3.43918">
        <ele>35.993168</ele>
        <time>2023-12-30T13:39:18.000Z</time>
      </trkpt>
      <trkpt lat="43.4161" lon="3.4392">
        <ele>36.056627</ele>
        <time>2023-12-30T13:39:19.000Z</time>
      </trkpt>
      <trkpt lat="43.4161" lon="3.43922">
        <ele>36.130486</ele>
        <time>2023-12-30T13:39:20.000Z</time>
      </trkpt>
      <trkpt lat="43.4161" lon="3.43925">
        <ele>36.232092</ele>
        <time>2023-12-30T13:39:21.000Z</time>
      </trkpt>
      <trkpt lat="43.41609" lon="3.43927">
        <ele>36.297189</ele>
        <time>2023-12-30T13:39:22.000Z</time>
      </trkpt>
      <trkpt lat="43.41608" lon="3.43929">
        <ele>36.381299</ele>
        <time>2023-12-30T13:39:23.000Z</time>
      </trkpt>
      <trkpt lat="43.41608" lon="3.43932">
        <ele>36.483833</ele>
        <time>2023-12-30T13:39:24.000Z</time>
      </trkpt>
      <trkpt lat="43.41607" lon="3.43934">
        <ele>36.571531</ele>
        <time>2023-12-30T13:39:25.000Z</time>
      </trkpt>
      <trkpt lat="43.41607" lon="3.43937">
        <ele>36.660064</ele>
        <time>2023-12-30T13:39:26.000Z</time>
      </trkpt>
      <trkpt lat="43.41606" lon="3.4394">
        <ele>36.754122</ele>
        <time>2023-12-30T13:39:27.000Z</time>
      </trkpt>
      <trkpt lat="43.41606" lon="3.43943">
        <ele>36.848405</ele>
        <time>2023-12-30T13:39:28.000Z</time>
      </trkpt>
      <trkpt lat="43.41605" lon="3.43945">
        <ele>36.942463</ele>
        <time>2023-12-30T13:39:29.000Z</time>
      </trkpt>
      <trkpt lat="43.41605" lon="3.43948">
        <ele>37.030997</ele>
        <time>2023-12-30T13:39:30.000Z</time>
      </trkpt>
      <trkpt lat="43.41604" lon="3.4395">
        <ele>37.109279</ele>
        <time>2023-12-30T13:39:31.000Z</time>
      </trkpt>
      <trkpt lat="43.41604" lon="3.43953">
        <ele>37.201074</ele>
        <time>2023-12-30T13:39:32.000Z</time>
      </trkpt>
      <trkpt lat="43.41604" lon="3.43955">
        <ele>37.279857</ele>
        <time>2023-12-30T13:39:33.000Z</time>
      </trkpt>
      <trkpt lat="43.41604" lon="3.43957">
        <ele>37.356613</ele>
        <time>2023-12-30T13:39:34.000Z</time>
      </trkpt>
      <trkpt lat="43.41603" lon="3.43959">
        <ele>37.426719</ele>
        <time>2023-12-30T13:39:35.000Z</time>
      </trkpt>
      <trkpt lat="43.41603" lon="3.43962">
        <ele>37.49904</ele>
        <time>2023-12-30T13:39:36.000Z</time>
      </trkpt>
      <trkpt lat="43.41602" lon="3.43964">
        <ele>37.593098</ele>
        <time>2023-12-30T13:39:37.000Z</time>
      </trkpt>
      <trkpt lat="43.41602" lon="3.43966">
        <ele>37.668271</ele>
        <time>2023-12-30T13:39:38.000Z</time>
      </trkpt>
      <trkpt lat="43.41601" lon="3.43969">
        <ele>37.751342</ele>
        <time>2023-12-30T13:39:39.000Z</time>
      </trkpt>
      <trkpt lat="43.41601" lon="3.43971">
        <ele>37.82689</ele>
        <time>2023-12-30T13:39:40.000Z</time>
      </trkpt>
      <trkpt lat="43.416" lon="3.43974">
        <ele>37.921952</ele>
        <time>2023-12-30T13:39:41.000Z</time>
      </trkpt>
      <trkpt lat="43.416" lon="3.43976">
        <ele>38.010485</ele>
        <time>2023-12-30T13:39:42.000Z</time>
      </trkpt>
      <trkpt lat="43.416" lon="3.43979">
        <ele>38.092512</ele>
        <time>2023-12-30T13:39:43.000Z</time>
      </trkpt>
      <trkpt lat="43.41599" lon="3.43981">
        <ele>38.172593</ele>
        <time>2023-12-30T13:39:44.000Z</time>
      </trkpt>
      <trkpt lat="43.41599" lon="3.43984">
        <ele>38.270173</ele>
        <time>2023-12-30T13:39:45.000Z</time>
      </trkpt>
      <trkpt lat="43.41599" lon="3.43987">
        <ele>38.357871</ele>
        <time>2023-12-30T13:39:46.000Z</time>
      </trkpt>
      <trkpt lat="43.41598" lon="3.4399">
        <ele>38.462756</ele>
        <time>2023-12-30T13:39:47.000Z</time>
      </trkpt>
      <trkpt lat="43.41598" lon="3.43992">
        <ele>38.55603</ele>
        <time>2023-12-30T13:39:48.000Z</time>
      </trkpt>
      <trkpt lat="43.41598" lon="3.43995">
        <ele>38.654362</ele>
        <time>2023-12-30T13:39:49.000Z</time>
      </trkpt>
      <trkpt lat="43.41598" lon="3.43998">
        <ele>38.753652</ele>
        <time>2023-12-30T13:39:50.000Z</time>
      </trkpt>
      <trkpt lat="43.41597" lon="3.44001">
        <ele>38.837059</ele>
        <time>2023-12-30T13:39:51.000Z</time>
      </trkpt>
      <trkpt lat="43.41597" lon="3.44004">
        <ele>38.936349</ele>
        <time>2023-12-30T13:39:52.000Z</time>
      </trkpt>
      <trkpt lat="43.41597" lon="3.44006">
        <ele>39.017474</ele>
        <time>2023-12-30T13:39:53.000Z</time>
      </trkpt>
      <trkpt lat="43.41596" lon="3.44009">
        <ele>39.107883</ele>
        <time>2023-12-30T13:39:54.000Z</time>
      </trkpt>
      <trkpt lat="43.41596" lon="3.44011">
        <ele>39.19129</ele>
        <time>2023-12-30T13:39:55.000Z</time>
      </trkpt>
      <trkpt lat="43.41596" lon="3.44013">
        <ele>39.258543</ele>
        <time>2023-12-30T13:39:56.000Z</time>
      </trkpt>
      <trkpt lat="43.41596" lon="3.44016">
        <ele>39.338493</ele>
        <time>2023-12-30T13:39:57.000Z</time>
      </trkpt>
      <trkpt lat="43.41596" lon="3.44019">
        <ele>39.435207</ele>
        <time>2023-12-30T13:39:58.000Z</time>
      </trkpt>
      <trkpt lat="43.41597" lon="3.44021">
        <ele>39.513991</ele>
        <time>2023-12-30T13:39:59.000Z</time>
      </trkpt>
      <trkpt lat="43.41597" lon="3.44023">
        <ele>39.604995</ele>
        <time>2023-12-30T13:40:00.000Z</time>
      </trkpt>
      <trkpt lat="43.41598" lon="3.44026">
        <ele>39.711454</ele>
        <time>2023-12-30T13:40:01.000Z</time>
      </trkpt>
      <trkpt lat="43.41599" lon="3.4403">
        <ele>39.822782</ele>
        <time>2023-12-30T13:40:02.000Z</time>
      </trkpt>
      <trkpt lat="43.416" lon="3.44033">
        <ele>39.940505</ele>
        <time>2023-12-30T13:40:03.000Z</time>
      </trkpt>
      <trkpt lat="43.41601" lon="3.44036">
        <ele>40.054816</ele>
        <time>2023-12-30T13:40:04.000Z</time>
      </trkpt>
      <trkpt lat="43.41601" lon="3.44039">
        <ele>40.156616</ele>
        <time>2023-12-30T13:40:05.000Z</time>
      </trkpt>
      <trkpt lat="43.41602" lon="3.44042">
        <ele>40.256847</ele>
        <time>2023-12-30T13:40:06.000Z</time>
      </trkpt>
      <trkpt lat="43.41603" lon="3.44044">
        <ele>40.35279</ele>
        <time>2023-12-30T13:40:07.000Z</time>
      </trkpt>
      <trkpt lat="43.41604" lon="3.44047">
        <ele>40.437343</ele>
        <time>2023-12-30T13:40:08.000Z</time>
      </trkpt>
      <trkpt lat="43.41604" lon="3.44049">
        <ele>40.516335</ele>
        <time>2023-12-30T13:40:09.000Z</time>
      </trkpt>
      <trkpt lat="43.41605" lon="3.44052">
        <ele>40.612279</ele>
        <time>2023-12-30T13:40:10.000Z</time>
      </trkpt>
      <trkpt lat="43.41606" lon="3.44054">
        <ele>40.705227</ele>
        <time>2023-12-30T13:40:11.000Z</time>
      </trkpt>
      <trkpt lat="43.41607" lon="3.44056">
        <ele>40.790176</ele>
        <time>2023-12-30T13:40:12.000Z</time>
      </trkpt>
      <trkpt lat="43.41608" lon="3.44059">
        <ele>40.874728</ele>
        <time>2023-12-30T13:40:13.000Z</time>
      </trkpt>
      <trkpt lat="43.41608" lon="3.44061">
        <ele>40.965606</ele>
        <time>2023-12-30T13:40:14.000Z</time>
      </trkpt>
      <trkpt lat="43.41608" lon="3.44064">
        <ele>41.04939</ele>
        <time>2023-12-30T13:40:15.000Z</time>
      </trkpt>
      <trkpt lat="43.41609" lon="3.44066">
        <ele>41.123249</ele>
        <time>2023-12-30T13:40:16.000Z</time>
      </trkpt>
      <trkpt lat="43.41609" lon="3.44068">
        <ele>41.186708</ele>
        <time>2023-12-30T13:40:17.000Z</time>
      </trkpt>
      <trkpt lat="43.41609" lon="3.4407">
        <ele>41.263873</ele>
        <time>2023-12-30T13:40:18.000Z</time>
      </trkpt>
      <trkpt lat="43.4161" lon="3.44073">
        <ele>41.361011</ele>
        <time>2023-12-30T13:40:19.000Z</time>
      </trkpt>
      <trkpt lat="43.41611" lon="3.44076">
        <ele>41.46495</ele>
        <time>2023-12-30T13:40:20.000Z</time>
      </trkpt>
      <trkpt lat="43.41612" lon="3.44079">
        <ele>41.579037</ele>
        <time>2023-12-30T13:40:21.000Z</time>
      </trkpt>
      <trkpt lat="43.41613" lon="3.44082">
        <ele>41.658027</ele>
        <time>2023-12-30T13:40:22.000Z</time>
      </trkpt>
      <trkpt lat="43.41614" lon="3.44085">
        <ele>41.718454</ele>
        <time>2023-12-30T13:40:23.000Z</time>
      </trkpt>
      <trkpt lat="43.41615" lon="3.44088">
        <ele>41.786107</ele>
        <time>2023-12-30T13:40:24.000Z</time>
      </trkpt>
      <trkpt lat="43.41616" lon="3.4409">
        <ele>41.847757</ele>
        <time>2023-12-30T13:40:25.000Z</time>
      </trkpt>
      <trkpt lat="43.41617" lon="3.44093">
        <ele>41.901088</ele>
        <time>2023-12-30T13:40:26.000Z</time>
      </trkpt>
      <trkpt lat="43.41618" lon="3.44095">
        <ele>41.949719</ele>
        <time>2023-12-30T13:40:27.000Z</time>
      </trkpt>
      <trkpt lat="43.4162" lon="3.44097">
        <ele>42.0077</ele>
        <time>2023-12-30T13:40:28.000Z</time>
      </trkpt>
      <trkpt lat="43.41621" lon="3.441">
        <ele>42.069001</ele>
        <time>2023-12-30T13:40:29.000Z</time>
      </trkpt>
      <trkpt lat="43.41622" lon="3.44102">
        <ele>42.125608</ele>
        <time>2023-12-30T13:40:30.000Z</time>
      </trkpt>
      <trkpt lat="43.41623" lon="3.44105">
        <ele>42.184303</ele>
        <time>2023-12-30T13:40:31.000Z</time>
      </trkpt>
      <trkpt lat="43.41624" lon="3.44108">
        <ele>42.247102</ele>
        <time>2023-12-30T13:40:32.000Z</time>
      </trkpt>
      <trkpt lat="43.41626" lon="3.4411">
        <ele>42.306646</ele>
        <time>2023-12-30T13:40:33.000Z</time>
      </trkpt>
      <trkpt lat="43.41627" lon="3.44112">
        <ele>42.363086</ele>
        <time>2023-12-30T13:40:34.000Z</time>
      </trkpt>
      <trkpt lat="43.41628" lon="3.44115">
        <ele>42.429413</ele>
        <time>2023-12-30T13:40:35.000Z</time>
      </trkpt>
      <trkpt lat="43.41629" lon="3.44118">
        <ele>42.492273</ele>
        <time>2023-12-30T13:40:36.000Z</time>
      </trkpt>
      <trkpt lat="43.4163" lon="3.44121">
        <ele>42.545858</ele>
        <time>2023-12-30T13:40:37.000Z</time>
      </trkpt>
      <trkpt lat="43.41631" lon="3.44124">
        <ele>42.606932</ele>
        <time>2023-12-30T13:40:38.000Z</time>
      </trkpt>
      <trkpt lat="43.41632" lon="3.44127">
        <ele>42.668007</ele>
        <time>2023-12-30T13:40:39.000Z</time>
      </trkpt>
      <trkpt lat="43.41633" lon="3.44129">
        <ele>42.722692</ele>
        <time>2023-12-30T13:40:40.000Z</time>
      </trkpt>
      <trkpt lat="43.41634" lon="3.44132">
        <ele>42.780225</ele>
        <time>2023-12-30T13:40:41.000Z</time>
      </trkpt>
      <trkpt lat="43.41634" lon="3.44134">
        <ele>42.826149</ele>
        <time>2023-12-30T13:40:42.000Z</time>
      </trkpt>
      <trkpt lat="43.41635" lon="3.44137">
        <ele>42.881927</ele>
        <time>2023-12-30T13:40:43.000Z</time>
      </trkpt>
      <trkpt lat="43.41636" lon="3.4414">
        <ele>42.952245</ele>
        <time>2023-12-30T13:40:44.000Z</time>
      </trkpt>
      <trkpt lat="43.41637" lon="3.44143">
        <ele>43.015116</ele>
        <time>2023-12-30T13:40:45.000Z</time>
      </trkpt>
      <trkpt lat="43.41638" lon="3.44146">
        <ele>43.086176</ele>
        <time>2023-12-30T13:40:46.000Z</time>
      </trkpt>
      <trkpt lat="43.41639" lon="3.4415">
        <ele>43.15991</ele>
        <time>2023-12-30T13:40:47.000Z</time>
      </trkpt>
      <trkpt lat="43.41639" lon="3.44153">
        <ele>43.220172</ele>
        <time>2023-12-30T13:40:48.000Z</time>
      </trkpt>
      <trkpt lat="43.4164" lon="3.44156">
        <ele>43.284895</ele>
        <time>2023-12-30T13:40:49.000Z</time>
      </trkpt>
      <trkpt lat="43.41641" lon="3.44159">
        <ele>43.346544</ele>
        <time>2023-12-30T13:40:50.000Z</time>
      </trkpt>
      <trkpt lat="43.41642" lon="3.44163">
        <ele>43.420401</ele>
        <time>2023-12-30T13:40:51.000Z</time>
      </trkpt>
      <trkpt lat="43.41643" lon="3.44166">
        <ele>43.48698</ele>
        <time>2023-12-30T13:40:52.000Z</time>
      </trkpt>
      <trkpt lat="43.41644" lon="3.44169">
        <ele>43.55989</ele>
        <time>2023-12-30T13:40:53.000Z</time>
      </trkpt>
      <trkpt lat="43.41645" lon="3.44173">
        <ele>43.629972</ele>
        <time>2023-12-30T13:40:54.000Z</time>
      </trkpt>
      <trkpt lat="43.41645" lon="3.44176">
        <ele>43.690996</ele>
        <time>2023-12-30T13:40:55.000Z</time>
      </trkpt>
      <trkpt lat="43.41646" lon="3.4418">
        <ele>43.766564</ele>
        <time>2023-12-30T13:40:56.000Z</time>
      </trkpt>
      <trkpt lat="43.41647" lon="3.44183">
        <ele>43.828063</ele>
        <time>2023-12-30T13:40:57.000Z</time>
      </trkpt>
      <trkpt lat="43.41647" lon="3.44186">
        <ele>43.885786</ele>
        <time>2023-12-30T13:40:58.000Z</time>
      </trkpt>
      <trkpt lat="43.41648" lon="3.44189">
        <ele>43.952969</ele>
        <time>2023-12-30T13:40:59.000Z</time>
      </trkpt>
      <trkpt lat="43.41649" lon="3.44192">
        <ele>44.023052</ele>
        <time>2023-12-30T13:41:00.000Z</time>
      </trkpt>
      <trkpt lat="43.4165" lon="3.44196">
        <ele>44.099762</ele>
        <time>2023-12-30T13:41:01.000Z</time>
      </trkpt>
      <trkpt lat="43.41651" lon="3.442">
        <ele>44.173809</ele>
        <time>2023-12-30T13:41:02.000Z</time>
      </trkpt>
      <trkpt lat="43.41651" lon="3.44203">
        <ele>44.248573</ele>
        <time>2023-12-30T13:41:03.000Z</time>
      </trkpt>
      <trkpt lat="43.41652" lon="3.44206">
        <ele>44.310072</ele>
        <time>2023-12-30T13:41:04.000Z</time>
      </trkpt>
      <trkpt lat="43.41652" lon="3.4421">
        <ele>44.371048</ele>
        <time>2023-12-30T13:41:05.000Z</time>
      </trkpt>
      <trkpt lat="43.41653" lon="3.44213">
        <ele>44.439665</ele>
        <time>2023-12-30T13:41:06.000Z</time>
      </trkpt>
      <trkpt lat="43.41653" lon="3.44217">
        <ele>44.51152</ele>
        <time>2023-12-30T13:41:07.000Z</time>
      </trkpt>
      <trkpt lat="43.41653" lon="3.4422">
        <ele>44.571557</ele>
        <time>2023-12-30T13:41:08.000Z</time>
      </trkpt>
      <trkpt lat="43.41653" lon="3.44223">
        <ele>44.641327</ele>
        <time>2023-12-30T13:41:09.000Z</time>
      </trkpt>
      <trkpt lat="43.41653" lon="3.44227">
        <ele>44.711858</ele>
        <time>2023-12-30T13:41:10.000Z</time>
      </trkpt>
      <trkpt lat="43.41651" lon="3.4423">
        <ele>44.782865</ele>
        <time>2023-12-30T13:41:11.000Z</time>
      </trkpt>
      <trkpt lat="43.4165" lon="3.44233">
        <ele>44.850301</ele>
        <time>2023-12-30T13:41:12.000Z</time>
      </trkpt>
      <trkpt lat="43.41648" lon="3.44236">
        <ele>44.921727</ele>
        <time>2023-12-30T13:41:13.000Z</time>
      </trkpt>
      <trkpt lat="43.41646" lon="3.44238">
        <ele>44.991208</ele>
        <time>2023-12-30T13:41:14.000Z</time>
      </trkpt>
      <trkpt lat="43.41644" lon="3.44241">
        <ele>45.067818</ele>
        <time>2023-12-30T13:41:15.000Z</time>
      </trkpt>
      <trkpt lat="43.41642" lon="3.44243">
        <ele>45.14312</ele>
        <time>2023-12-30T13:41:16.000Z</time>
      </trkpt>
      <trkpt lat="43.4164" lon="3.44246">
        <ele>45.219172</ele>
        <time>2023-12-30T13:41:17.000Z</time>
      </trkpt>
      <trkpt lat="43.41638" lon="3.44249">
        <ele>45.300381</ele>
        <time>2023-12-30T13:41:18.000Z</time>
      </trkpt>
      <trkpt lat="43.41636" lon="3.44252">
        <ele>45.363179</ele>
        <time>2023-12-30T13:41:19.000Z</time>
      </trkpt>
      <trkpt lat="43.41635" lon="3.44254">
        <ele>45.425859</ele>
        <time>2023-12-30T13:41:20.000Z</time>
      </trkpt>
      <trkpt lat="43.41634" lon="3.44257">
        <ele>45.485517</ele>
        <time>2023-12-30T13:41:21.000Z</time>
      </trkpt>
      <trkpt lat="43.41632" lon="3.44259">
        <ele>45.548197</ele>
        <time>2023-12-30T13:41:22.000Z</time>
      </trkpt>
      <trkpt lat="43.41631" lon="3.44263">
        <ele>45.619205</ele>
        <time>2023-12-30T13:41:23.000Z</time>
      </trkpt>
      <trkpt lat="43.4163" lon="3.44266">
        <ele>45.686022</ele>
        <time>2023-12-30T13:41:24.000Z</time>
      </trkpt>
      <trkpt lat="43.41629" lon="3.44269">
        <ele>45.752601</ele>
        <time>2023-12-30T13:41:25.000Z</time>
      </trkpt>
      <trkpt lat="43.41628" lon="3.44272">
        <ele>45.823662</ele>
        <time>2023-12-30T13:41:26.000Z</time>
      </trkpt>
      <trkpt lat="43.41628" lon="3.44276">
        <ele>45.887666</ele>
        <time>2023-12-30T13:41:27.000Z</time>
      </trkpt>
      <trkpt lat="43.41627" lon="3.44278">
        <ele>45.941629</ele>
        <time>2023-12-30T13:41:28.000Z</time>
      </trkpt>
      <trkpt lat="43.41627" lon="3.44281">
        <ele>46.001891</ele>
        <time>2023-12-30T13:41:29.000Z</time>
      </trkpt>
      <trkpt lat="43.41626" lon="3.44285">
        <ele>46.065857</ele>
        <time>2023-12-30T13:41:30.000Z</time>
      </trkpt>
      <trkpt lat="43.41626" lon="3.44288">
        <ele>46.122084</ele>
        <time>2023-12-30T13:41:31.000Z</time>
      </trkpt>
      <trkpt lat="43.41626" lon="3.44291">
        <ele>46.180245</ele>
        <time>2023-12-30T13:41:32.000Z</time>
      </trkpt>
      <trkpt lat="43.41626" lon="3.44294">
        <ele>46.238406</ele>
        <time>2023-12-30T13:41:33.000Z</time>
      </trkpt>
      <trkpt lat="43.41626" lon="3.44297">
        <ele>46.298974</ele>
        <time>2023-12-30T13:41:34.000Z</time>
      </trkpt>
      <trkpt lat="43.41627" lon="3.44299">
        <ele>46.353266</ele>
        <time>2023-12-30T13:41:35.000Z</time>
      </trkpt>
      <trkpt lat="43.41627" lon="3.44302">
        <ele>46.403901</ele>
        <time>2023-12-30T13:41:36.000Z</time>
      </trkpt>
      <trkpt lat="43.41627" lon="3.44304">
        <ele>46.455329</ele>
        <time>2023-12-30T13:41:37.000Z</time>
      </trkpt>
      <trkpt lat="43.41627" lon="3.44308">
        <ele>46.526945</ele>
        <time>2023-12-30T13:41:38.000Z</time>
      </trkpt>
      <trkpt lat="43.41628" lon="3.44311">
        <ele>46.59283</ele>
        <time>2023-12-30T13:41:39.000Z</time>
      </trkpt>
      <trkpt lat="43.41629" lon="3.44313">
        <ele>46.645142</ele>
        <time>2023-12-30T13:41:40.000Z</time>
      </trkpt>
      <trkpt lat="43.41629" lon="3.44316">
        <ele>46.710557</ele>
        <time>2023-12-30T13:41:41.000Z</time>
      </trkpt>
      <trkpt lat="43.4163" lon="3.44319">
        <ele>46.775102</ele>
        <time>2023-12-30T13:41:42.000Z</time>
      </trkpt>
      <trkpt lat="43.4163" lon="3.44322">
        <ele>46.844607</ele>
        <time>2023-12-30T13:41:43.000Z</time>
      </trkpt>
      <trkpt lat="43.41631" lon="3.44325">
        <ele>46.909897</ele>
        <time>2023-12-30T13:41:44.000Z</time>
      </trkpt>
      <trkpt lat="43.41631" lon="3.44328">
        <ele>46.969252</ele>
        <time>2023-12-30T13:41:45.000Z</time>
      </trkpt>
      <trkpt lat="43.41632" lon="3.4433">
        <ele>47.031671</ele>
        <time>2023-12-30T13:41:46.000Z</time>
      </trkpt>
      <trkpt lat="43.41633" lon="3.44333">
        <ele>47.105523</ele>
        <time>2023-12-30T13:41:47.000Z</time>
      </trkpt>
      <trkpt lat="43.41634" lon="3.44336">
        <ele>47.169324</ele>
        <time>2023-12-30T13:41:48.000Z</time>
      </trkpt>
      <trkpt lat="43.41634" lon="3.44339">
        <ele>47.227419</ele>
        <time>2023-12-30T13:41:49.000Z</time>
      </trkpt>
      <trkpt lat="43.41634" lon="3.44342">
        <ele>47.284991</ele>
        <time>2023-12-30T13:41:50.000Z</time>
      </trkpt>
      <trkpt lat="43.41635" lon="3.44344">
        <ele>47.348378</ele>
        <time>2023-12-30T13:41:51.000Z</time>
      </trkpt>
      <trkpt lat="43.41636" lon="3.44347">
        <ele>47.41478</ele>
        <time>2023-12-30T13:41:52.000Z</time>
      </trkpt>
      <trkpt lat="43.41637" lon="3.4435">
        <ele>47.482229</ele>
        <time>2023-12-30T13:41:53.000Z</time>
      </trkpt>
      <trkpt lat="43.41637" lon="3.44353">
        <ele>47.544718</ele>
        <time>2023-12-30T13:41:54.000Z</time>
      </trkpt>
      <trkpt lat="43.41638" lon="3.44356">
        <ele>47.602534</ele>
        <time>2023-12-30T13:41:55.000Z</time>
      </trkpt>
      <trkpt lat="43.41639" lon="3.44358">
        <ele>47.659059</ele>
        <time>2023-12-30T13:41:56.000Z</time>
      </trkpt>
      <trkpt lat="43.4164" lon="3.44361">
        <ele>47.720425</ele>
        <time>2023-12-30T13:41:57.000Z</time>
      </trkpt>
      <trkpt lat="43.41641" lon="3.44364">
        <ele>47.800932</ele>
        <time>2023-12-30T13:41:58.000Z</time>
      </trkpt>
      <trkpt lat="43.41641" lon="3.44367">
        <ele>47.86934</ele>
        <time>2023-12-30T13:41:59.000Z</time>
      </trkpt>
      <trkpt lat="43.41642" lon="3.4437">
        <ele>47.93106</ele>
        <time>2023-12-30T13:42:00.000Z</time>
      </trkpt>
      <trkpt lat="43.41642" lon="3.44373">
        <ele>47.999034</ele>
        <time>2023-12-30T13:42:01.000Z</time>
      </trkpt>
      <trkpt lat="43.41643" lon="3.44376">
        <ele>48.06969</ele>
        <time>2023-12-30T13:42:02.000Z</time>
      </trkpt>
      <trkpt lat="43.41644" lon="3.44379">
        <ele>48.138098</ele>
        <time>2023-12-30T13:42:03.000Z</time>
      </trkpt>
      <trkpt lat="43.41645" lon="3.44382">
        <ele>48.20677</ele>
        <time>2023-12-30T13:42:04.000Z</time>
      </trkpt>
      <trkpt lat="43.41645" lon="3.44385">
        <ele>48.26926</ele>
        <time>2023-12-30T13:42:05.000Z</time>
      </trkpt>
      <trkpt lat="43.41646" lon="3.44387">
        <ele>48.321968</ele>
        <time>2023-12-30T13:42:06.000Z</time>
      </trkpt>
      <trkpt lat="43.41646" lon="3.4439">
        <ele>48.378858</ele>
        <time>2023-12-30T13:42:07.000Z</time>
      </trkpt>
      <trkpt lat="43.41647" lon="3.44392">
        <ele>48.431169</ele>
        <time>2023-12-30T13:42:08.000Z</time>
      </trkpt>
      <trkpt lat="43.41648" lon="3.44395">
        <ele>48.484549</ele>
        <time>2023-12-30T13:42:09.000Z</time>
      </trkpt>
      <trkpt lat="43.41648" lon="3.44397">
        <ele>48.547936</ele>
        <time>2023-12-30T13:42:10.000Z</time>
      </trkpt>
      <trkpt lat="43.41649" lon="3.44401">
        <ele>48.619472</ele>
        <time>2023-12-30T13:42:11.000Z</time>
      </trkpt>
      <trkpt lat="43.41649" lon="3.44403">
        <ele>48.681193</ele>
        <time>2023-12-30T13:42:12.000Z</time>
      </trkpt>
      <trkpt lat="43.4165" lon="3.44407">
        <ele>48.750259</ele>
        <time>2023-12-30T13:42:13.000Z</time>
      </trkpt>
      <trkpt lat="43.4165" lon="3.44409">
        <ele>48.812614</ele>
        <time>2023-12-30T13:42:14.000Z</time>
      </trkpt>
      <trkpt lat="43.4165" lon="3.44412">
        <ele>48.86858</ele>
        <time>2023-12-30T13:42:15.000Z</time>
      </trkpt>
      <trkpt lat="43.4165" lon="3.44415">
        <ele>48.929164</ele>
        <time>2023-12-30T13:42:16.000Z</time>
      </trkpt>
      <trkpt lat="43.41651" lon="3.44418">
        <ele>48.990885</ele>
        <time>2023-12-30T13:42:17.000Z</time>
      </trkpt>
      <trkpt lat="43.41651" lon="3.44421">
        <ele>49.062074</ele>
        <time>2023-12-30T13:42:18.000Z</time>
      </trkpt>
      <trkpt lat="43.41651" lon="3.44424">
        <ele>49.130825</ele>
        <time>2023-12-30T13:42:19.000Z</time>
      </trkpt>
      <trkpt lat="43.41651" lon="3.44428">
        <ele>49.203664</ele>
        <time>2023-12-30T13:42:20.000Z</time>
      </trkpt>
      <trkpt lat="43.41651" lon="3.44431">
        <ele>49.276443</ele>
        <time>2023-12-30T13:42:21.000Z</time>
      </trkpt>
      <trkpt lat="43.41651" lon="3.44434">
        <ele>49.350699</ele>
        <time>2023-12-30T13:42:22.000Z</time>
      </trkpt>
      <trkpt lat="43.41651" lon="3.44437">
        <ele>49.417318</ele>
        <time>2023-12-30T13:42:23.000Z</time>
      </trkpt>
      <trkpt lat="43.4165" lon="3.44441">
        <ele>49.484714</ele>
        <time>2023-12-30T13:42:24.000Z</time>
      </trkpt>
      <trkpt lat="43.4165" lon="3.44444">
        <ele>49.55961</ele>
        <time>2023-12-30T13:42:25.000Z</time>
      </trkpt>
      <trkpt lat="43.41649" lon="3.44447">
        <ele>49.627584</ele>
        <time>2023-12-30T13:42:26.000Z</time>
      </trkpt>
      <trkpt lat="43.41649" lon="3.4445">
        <ele>49.69419</ele>
        <time>2023-12-30T13:42:27.000Z</time>
      </trkpt>
      <trkpt lat="43.41648" lon="3.44453">
        <ele>49.761695</ele>
        <time>2023-12-30T13:42:28.000Z</time>
      </trkpt>
      <trkpt lat="43.41647" lon="3.44456">
        <ele>49.833156</ele>
        <time>2023-12-30T13:42:29.000Z</time>
      </trkpt>
      <trkpt lat="43.41646" lon="3.44459">
        <ele>49.900661</ele>
        <time>2023-12-30T13:42:30.000Z</time>
      </trkpt>
      <trkpt lat="43.41645" lon="3.44462">
        <ele>49.964462</ele>
        <time>2023-12-30T13:42:31.000Z</time>
      </trkpt>
      <trkpt lat="43.41645" lon="3.44465">
        <ele>50.029285</ele>
        <time>2023-12-30T13:42:32.000Z</time>
      </trkpt>
      <trkpt lat="43.41645" lon="3.44468">
        <ele>50.102064</ele>
        <time>2023-12-30T13:42:33.000Z</time>
      </trkpt>
      <trkpt lat="43.41645" lon="3.44472">
        <ele>50.182137</ele>
        <time>2023-12-30T13:42:34.000Z</time>
      </trkpt>
      <trkpt lat="43.41646" lon="3.44475">
        <ele>50.243858</ele>
        <time>2023-12-30T13:42:35.000Z</time>
      </trkpt>
      <trkpt lat="43.41647" lon="3.44478">
        <ele>50.315394</ele>
        <time>2023-12-30T13:42:36.000Z</time>
      </trkpt>
      <trkpt lat="43.41647" lon="3.44481">
        <ele>50.387836</ele>
        <time>2023-12-30T13:42:37.000Z</time>
      </trkpt>
      <trkpt lat="43.41648" lon="3.44484">
        <ele>50.452242</ele>
        <time>2023-12-30T13:42:38.000Z</time>
      </trkpt>
      <trkpt lat="43.41649" lon="3.44487">
        <ele>50.514731</ele>
        <time>2023-12-30T13:42:39.000Z</time>
      </trkpt>
      <trkpt lat="43.41649" lon="3.4449">
        <ele>50.584796</ele>
        <time>2023-12-30T13:42:40.000Z</time>
      </trkpt>
      <trkpt lat="43.4165" lon="3.44493">
        <ele>50.652192</ele>
        <time>2023-12-30T13:42:41.000Z</time>
      </trkpt>
      <trkpt lat="43.4165" lon="3.44496">
        <ele>50.716409</ele>
        <time>2023-12-30T13:42:42.000Z</time>
      </trkpt>
      <trkpt lat="43.4165" lon="3.44499">
        <ele>50.784907</ele>
        <time>2023-12-30T13:42:43.000Z</time>
      </trkpt>
      <trkpt lat="43.4165" lon="3.44502">
        <ele>50.84064</ele>
        <time>2023-12-30T13:42:44.000Z</time>
      </trkpt>
      <trkpt lat="43.41649" lon="3.44505">
        <ele>50.907258</ele>
        <time>2023-12-30T13:42:45.000Z</time>
      </trkpt>
      <trkpt lat="43.4165" lon="3.44508">
        <ele>50.965129</ele>
        <time>2023-12-30T13:42:46.000Z</time>
      </trkpt>
      <trkpt lat="43.41649" lon="3.4451">
        <ele>51.025353</ele>
        <time>2023-12-30T13:42:47.000Z</time>
      </trkpt>
      <trkpt lat="43.41649" lon="3.44514">
        <ele>51.091711</ele>
        <time>2023-12-30T13:42:48.000Z</time>
      </trkpt>
      <trkpt lat="43.4165" lon="3.44517">
        <ele>51.157001</ele>
        <time>2023-12-30T13:42:49.000Z</time>
      </trkpt>
      <trkpt lat="43.4165" lon="3.4452">
        <ele>51.221487</ele>
        <time>2023-12-30T13:42:50.000Z</time>
      </trkpt>
      <trkpt lat="43.4165" lon="3.44522">
        <ele>51.277453</ele>
        <time>2023-12-30T13:42:51.000Z</time>
      </trkpt>
      <trkpt lat="43.4165" lon="3.44525">
        <ele>51.335248</ele>
        <time>2023-12-30T13:42:52.000Z</time>
      </trkpt>
      <trkpt lat="43.41651" lon="3.44528">
        <ele>51.396332</ele>
        <time>2023-12-30T13:42:53.000Z</time>
      </trkpt>
      <trkpt lat="43.41651" lon="3.4453">
        <ele>51.458822</ele>
        <time>2023-12-30T13:42:54.000Z</time>
      </trkpt>
      <trkpt lat="43.41651" lon="3.44533">
        <ele>51.520968</ele>
        <time>2023-12-30T13:42:55.000Z</time>
      </trkpt>
      <trkpt lat="43.41651" lon="3.44537">
        <ele>51.589529</ele>
        <time>2023-12-30T13:42:56.000Z</time>
      </trkpt>
      <trkpt lat="43.41651" lon="3.4454">
        <ele>51.662308</ele>
        <time>2023-12-30T13:42:57.000Z</time>
      </trkpt>
      <trkpt lat="43.41651" lon="3.44543">
        <ele>51.741756</ele>
        <time>2023-12-30T13:42:58.000Z</time>
      </trkpt>
      <trkpt lat="43.41651" lon="3.44546">
        <ele>51.826475</ele>
        <time>2023-12-30T13:42:59.000Z</time>
      </trkpt>
      <trkpt lat="43.41651" lon="3.4455">
        <ele>51.919469</ele>
        <time>2023-12-30T13:43:00.000Z</time>
      </trkpt>
      <trkpt lat="43.41651" lon="3.44554">
        <ele>52.029043</ele>
        <time>2023-12-30T13:43:01.000Z</time>
      </trkpt>
      <trkpt lat="43.41651" lon="3.44557">
        <ele>52.124767</ele>
        <time>2023-12-30T13:43:02.000Z</time>
      </trkpt>
      <trkpt lat="43.41651" lon="3.44561">
        <ele>52.229701</ele>
        <time>2023-12-30T13:43:03.000Z</time>
      </trkpt>
      <trkpt lat="43.41652" lon="3.44565">
        <ele>52.335975</ele>
        <time>2023-12-30T13:43:04.000Z</time>
      </trkpt>
      <trkpt lat="43.41652" lon="3.44569">
        <ele>52.438826</ele>
        <time>2023-12-30T13:43:05.000Z</time>
      </trkpt>
      <trkpt lat="43.41653" lon="3.44572">
        <ele>52.523879</ele>
        <time>2023-12-30T13:43:06.000Z</time>
      </trkpt>
      <trkpt lat="43.41652" lon="3.44575">
        <ele>52.6171</ele>
        <time>2023-12-30T13:43:07.000Z</time>
      </trkpt>
      <trkpt lat="43.41652" lon="3.44578">
        <ele>52.696443</ele>
        <time>2023-12-30T13:43:08.000Z</time>
      </trkpt>
      <trkpt lat="43.41652" lon="3.44582">
        <ele>52.800903</ele>
        <time>2023-12-30T13:43:09.000Z</time>
      </trkpt>
      <trkpt lat="43.41652" lon="3.44585">
        <ele>52.896628</ele>
        <time>2023-12-30T13:43:10.000Z</time>
      </trkpt>
      <trkpt lat="43.41652" lon="3.44588">
        <ele>52.978614</ele>
        <time>2023-12-30T13:43:11.000Z</time>
      </trkpt>
      <trkpt lat="43.41652" lon="3.44592">
        <ele>53.076997</ele>
        <time>2023-12-30T13:43:12.000Z</time>
      </trkpt>
      <trkpt lat="43.41652" lon="3.44596">
        <ele>53.175452</ele>
        <time>2023-12-30T13:43:13.000Z</time>
      </trkpt>
      <trkpt lat="43.41651" lon="3.44598">
        <ele>53.250759</ele>
        <time>2023-12-30T13:43:14.000Z</time>
      </trkpt>
      <trkpt lat="43.41651" lon="3.44601">
        <ele>53.335561</ele>
        <time>2023-12-30T13:43:15.000Z</time>
      </trkpt>
      <trkpt lat="43.41651" lon="3.44605">
        <ele>53.434017</ele>
        <time>2023-12-30T13:43:16.000Z</time>
      </trkpt>
      <trkpt lat="43.41651" lon="3.44609">
        <ele>53.537622</ele>
        <time>2023-12-30T13:43:17.000Z</time>
      </trkpt>
      <trkpt lat="43.41651" lon="3.44612">
        <ele>53.633346</ele>
        <time>2023-12-30T13:43:18.000Z</time>
      </trkpt>
      <trkpt lat="43.41651" lon="3.44615">
        <ele>53.718065</ele>
        <time>2023-12-30T13:43:19.000Z</time>
      </trkpt>
      <trkpt lat="43.41651" lon="3.44619">
        <ele>53.816521</ele>
        <time>2023-12-30T13:43:20.000Z</time>
      </trkpt>
      <trkpt lat="43.41651" lon="3.44622">
        <ele>53.917461</ele>
        <time>2023-12-30T13:43:21.000Z</time>
      </trkpt>
      <trkpt lat="43.41652" lon="3.44626">
        <ele>54.011061</ele>
        <time>2023-12-30T13:43:22.000Z</time>
      </trkpt>
      <trkpt lat="43.41652" lon="3.44629">
        <ele>54.110589</ele>
        <time>2023-12-30T13:43:23.000Z</time>
      </trkpt>
      <trkpt lat="43.41653" lon="3.44633">
        <ele>54.206209</ele>
        <time>2023-12-30T13:43:24.000Z</time>
      </trkpt>
      <trkpt lat="43.41654" lon="3.44636">
        <ele>54.30388</ele>
        <time>2023-12-30T13:43:25.000Z</time>
      </trkpt>
      <trkpt lat="43.41654" lon="3.44639">
        <ele>54.383661</ele>
        <time>2023-12-30T13:43:26.000Z</time>
      </trkpt>
      <trkpt lat="43.41655" lon="3.44642">
        <ele>54.476358</ele>
        <time>2023-12-30T13:43:27.000Z</time>
      </trkpt>
      <trkpt lat="43.41656" lon="3.44645">
        <ele>54.565061</ele>
        <time>2023-12-30T13:43:28.000Z</time>
      </trkpt>
      <trkpt lat="43.41657" lon="3.44648">
        <ele>54.660263</ele>
        <time>2023-12-30T13:43:29.000Z</time>
      </trkpt>
      <trkpt lat="43.41658" lon="3.44651">
        <ele>54.738973</ele>
        <time>2023-12-30T13:43:30.000Z</time>
      </trkpt>
      <trkpt lat="43.41659" lon="3.44654">
        <ele>54.823574</ele>
        <time>2023-12-30T13:43:31.000Z</time>
      </trkpt>
      <trkpt lat="43.4166" lon="3.44656">
        <ele>54.890811</ele>
        <time>2023-12-30T13:43:32.000Z</time>
      </trkpt>
      <trkpt lat="43.41661" lon="3.44658">
        <ele>54.951482</ele>
        <time>2023-12-30T13:43:33.000Z</time>
      </trkpt>
      <trkpt lat="43.41662" lon="3.4466">
        <ele>55.022407</ele>
        <time>2023-12-30T13:43:34.000Z</time>
      </trkpt>
      <trkpt lat="43.41663" lon="3.44663">
        <ele>55.104635</ele>
        <time>2023-12-30T13:43:35.000Z</time>
      </trkpt>
      <trkpt lat="43.41664" lon="3.44665">
        <ele>55.187461</ele>
        <time>2023-12-30T13:43:36.000Z</time>
      </trkpt>
      <trkpt lat="43.41665" lon="3.44668">
        <ele>55.276164</ele>
        <time>2023-12-30T13:43:37.000Z</time>
      </trkpt>
      <trkpt lat="43.41666" lon="3.44672">
        <ele>55.376364</ele>
        <time>2023-12-30T13:43:38.000Z</time>
      </trkpt>
      <trkpt lat="43.41667" lon="3.44675">
        <ele>55.475591</ele>
        <time>2023-12-30T13:43:39.000Z</time>
      </trkpt>
      <trkpt lat="43.41667" lon="3.44678">
        <ele>55.567716</ele>
        <time>2023-12-30T13:43:40.000Z</time>
      </trkpt>
      <trkpt lat="43.41668" lon="3.44682">
        <ele>55.664543</ele>
        <time>2023-12-30T13:43:41.000Z</time>
      </trkpt>
      <trkpt lat="43.41669" lon="3.44685">
        <ele>55.75724</ele>
        <time>2023-12-30T13:43:42.000Z</time>
      </trkpt>
      <trkpt lat="43.4167" lon="3.44688">
        <ele>55.854911</ele>
        <time>2023-12-30T13:43:43.000Z</time>
      </trkpt>
      <trkpt lat="43.4167" lon="3.44691">
        <ele>55.946342</ele>
        <time>2023-12-30T13:43:44.000Z</time>
      </trkpt>
      <trkpt lat="43.4167" lon="3.44695">
        <ele>56.045371</ele>
        <time>2023-12-30T13:43:45.000Z</time>
      </trkpt>
      <trkpt lat="43.41671" lon="3.44699">
        <ele>56.141685</ele>
        <time>2023-12-30T13:43:46.000Z</time>
      </trkpt>
      <trkpt lat="43.41671" lon="3.44702">
        <ele>56.231591</ele>
        <time>2023-12-30T13:43:47.000Z</time>
      </trkpt>
      <trkpt lat="43.41673" lon="3.44705">
        <ele>56.32343</ele>
        <time>2023-12-30T13:43:48.000Z</time>
      </trkpt>
      <trkpt lat="43.41674" lon="3.44708">
        <ele>56.421254</ele>
        <time>2023-12-30T13:43:49.000Z</time>
      </trkpt>
      <trkpt lat="43.41675" lon="3.44711">
        <ele>56.523049</ele>
        <time>2023-12-30T13:43:50.000Z</time>
      </trkpt>
      <trkpt lat="43.41677" lon="3.44714">
        <ele>56.624843</ele>
        <time>2023-12-30T13:43:51.000Z</time>
      </trkpt>
      <trkpt lat="43.41678" lon="3.44717">
        <ele>56.71774</ele>
        <time>2023-12-30T13:43:52.000Z</time>
      </trkpt>
      <trkpt lat="43.4168" lon="3.44719">
        <ele>56.806265</ele>
        <time>2023-12-30T13:43:53.000Z</time>
      </trkpt>
      <trkpt lat="43.41681" lon="3.44722">
        <ele>56.899395</ele>
        <time>2023-12-30T13:43:54.000Z</time>
      </trkpt>
      <trkpt lat="43.41682" lon="3.44726">
        <ele>57.004399</ele>
        <time>2023-12-30T13:43:55.000Z</time>
      </trkpt>
      <trkpt lat="43.41683" lon="3.44729">
        <ele>57.097096</ele>
        <time>2023-12-30T13:43:56.000Z</time>
      </trkpt>
      <trkpt lat="43.41684" lon="3.44732">
        <ele>57.189793</ele>
        <time>2023-12-30T13:43:57.000Z</time>
      </trkpt>
      <trkpt lat="43.41685" lon="3.44735">
        <ele>57.283571</ele>
        <time>2023-12-30T13:43:58.000Z</time>
      </trkpt>
      <trkpt lat="43.41686" lon="3.44738">
        <ele>57.368347</ele>
        <time>2023-12-30T13:43:59.000Z</time>
      </trkpt>
      <trkpt lat="43.41686" lon="3.44741">
        <ele>57.458665</ele>
        <time>2023-12-30T13:44:00.000Z</time>
      </trkpt>
      <trkpt lat="43.41687" lon="3.44744">
        <ele>57.542179</ele>
        <time>2023-12-30T13:44:01.000Z</time>
      </trkpt>
      <trkpt lat="43.41688" lon="3.44747">
        <ele>57.635774</ele>
        <time>2023-12-30T13:44:02.000Z</time>
      </trkpt>
      <trkpt lat="43.41689" lon="3.4475">
        <ele>57.72598</ele>
        <time>2023-12-30T13:44:03.000Z</time>
      </trkpt>
      <trkpt lat="43.4169" lon="3.44753">
        <ele>57.808739</ele>
        <time>2023-12-30T13:44:04.000Z</time>
      </trkpt>
      <trkpt lat="43.4169" lon="3.44755">
        <ele>57.867228</ele>
        <time>2023-12-30T13:44:05.000Z</time>
      </trkpt>
      <trkpt lat="43.4169" lon="3.44758">
        <ele>57.931089</ele>
        <time>2023-12-30T13:44:06.000Z</time>
      </trkpt>
      <trkpt lat="43.4169" lon="3.4476">
        <ele>58.005259</ele>
        <time>2023-12-30T13:44:07.000Z</time>
      </trkpt>
      <trkpt lat="43.41691" lon="3.44764">
        <ele>58.101204</ele>
        <time>2023-12-30T13:44:08.000Z</time>
      </trkpt>
      <trkpt lat="43.41691" lon="3.44767">
        <ele>58.188978</ele>
        <time>2023-12-30T13:44:09.000Z</time>
      </trkpt>
      <trkpt lat="43.41691" lon="3.4477">
        <ele>58.26043</ele>
        <time>2023-12-30T13:44:10.000Z</time>
      </trkpt>
      <trkpt lat="43.41691" lon="3.44772">
        <ele>58.324291</ele>
        <time>2023-12-30T13:44:11.000Z</time>
      </trkpt>
      <trkpt lat="43.41691" lon="3.44775">
        <ele>58.406363</ele>
        <time>2023-12-30T13:44:12.000Z</time>
      </trkpt>
      <trkpt lat="43.41691" lon="3.44778">
        <ele>58.476708</ele>
        <time>2023-12-30T13:44:13.000Z</time>
      </trkpt>
      <trkpt lat="43.41692" lon="3.44781">
        <ele>58.454299</ele>
        <time>2023-12-30T13:44:14.000Z</time>
      </trkpt>
      <trkpt lat="43.41692" lon="3.44784">
        <ele>58.429459</ele>
        <time>2023-12-30T13:44:15.000Z</time>
      </trkpt>
      <trkpt lat="43.41692" lon="3.44787">
        <ele>58.404127</ele>
        <time>2023-12-30T13:44:16.000Z</time>
      </trkpt>
      <trkpt lat="43.41692" lon="3.4479">
        <ele>58.381152</ele>
        <time>2023-12-30T13:44:17.000Z</time>
      </trkpt>
      <trkpt lat="43.41692" lon="3.44793">
        <ele>58.358942</ele>
        <time>2023-12-30T13:44:18.000Z</time>
      </trkpt>
      <trkpt lat="43.41693" lon="3.44796">
        <ele>58.336732</ele>
        <time>2023-12-30T13:44:19.000Z</time>
      </trkpt>
      <trkpt lat="43.41693" lon="3.44799">
        <ele>58.314151</ele>
        <time>2023-12-30T13:44:20.000Z</time>
      </trkpt>
      <trkpt lat="43.41693" lon="3.44801">
        <ele>58.294997</ele>
        <time>2023-12-30T13:44:21.000Z</time>
      </trkpt>
      <trkpt lat="43.41693" lon="3.44804">
        <ele>58.275106</ele>
        <time>2023-12-30T13:44:22.000Z</time>
      </trkpt>
      <trkpt lat="43.41693" lon="3.44807">
        <ele>58.252921</ele>
        <time>2023-12-30T13:44:23.000Z</time>
      </trkpt>
      <trkpt lat="43.41693" lon="3.44809">
        <ele>58.23259</ele>
        <time>2023-12-30T13:44:24.000Z</time>
      </trkpt>
      <trkpt lat="43.41692" lon="3.44812">
        <ele>58.212448</ele>
        <time>2023-12-30T13:44:25.000Z</time>
      </trkpt>
      <trkpt lat="43.41692" lon="3.44814">
        <ele>58.191873</ele>
        <time>2023-12-30T13:44:26.000Z</time>
      </trkpt>
      <trkpt lat="43.41691" lon="3.44817">
        <ele>58.174246</ele>
        <time>2023-12-30T13:44:27.000Z</time>
      </trkpt>
      <trkpt lat="43.41691" lon="3.44819">
        <ele>58.157638</ele>
        <time>2023-12-30T13:44:28.000Z</time>
      </trkpt>
      <trkpt lat="43.41691" lon="3.44821">
        <ele>58.139761</ele>
        <time>2023-12-30T13:44:29.000Z</time>
      </trkpt>
      <trkpt lat="43.41691" lon="3.44823">
        <ele>58.122041</ele>
        <time>2023-12-30T13:44:30.000Z</time>
      </trkpt>
      <trkpt lat="43.4169" lon="3.44826">
        <ele>58.10365</ele>
        <time>2023-12-30T13:44:31.000Z</time>
      </trkpt>
      <trkpt lat="43.4169" lon="3.44828">
        <ele>58.086744</ele>
        <time>2023-12-30T13:44:32.000Z</time>
      </trkpt>
      <trkpt lat="43.4169" lon="3.44831">
        <ele>58.065849</ele>
        <time>2023-12-30T13:44:33.000Z</time>
      </trkpt>
      <trkpt lat="43.41689" lon="3.44833">
        <ele>58.044953</ele>
        <time>2023-12-30T13:44:34.000Z</time>
      </trkpt>
      <trkpt lat="43.41689" lon="3.44836">
        <ele>58.024457</ele>
        <time>2023-12-30T13:44:35.000Z</time>
      </trkpt>
      <trkpt lat="43.41688" lon="3.44839">
        <ele>58.002626</ele>
        <time>2023-12-30T13:44:36.000Z</time>
      </trkpt>
      <trkpt lat="43.41688" lon="3.44841">
        <ele>57.982487</ele>
        <time>2023-12-30T13:44:37.000Z</time>
      </trkpt>
      <trkpt lat="43.41687" lon="3.44844">
        <ele>57.961911</ele>
        <time>2023-12-30T13:44:38.000Z</time>
      </trkpt>
      <trkpt lat="43.41687" lon="3.44847">
        <ele>57.938745</ele>
        <time>2023-12-30T13:44:39.000Z</time>
      </trkpt>
      <trkpt lat="43.41687" lon="3.44849">
        <ele>57.917875</ele>
        <time>2023-12-30T13:44:40.000Z</time>
      </trkpt>
      <trkpt lat="43.41686" lon="3.44852">
        <ele>57.89918</ele>
        <time>2023-12-30T13:44:41.000Z</time>
      </trkpt>
      <trkpt lat="43.41685" lon="3.44854">
        <ele>57.880358</ele>
        <time>2023-12-30T13:44:42.000Z</time>
      </trkpt>
      <trkpt lat="43.41684" lon="3.44857">
        <ele>57.856489</ele>
        <time>2023-12-30T13:44:43.000Z</time>
      </trkpt>
      <trkpt lat="43.41683" lon="3.44859">
        <ele>57.835323</ele>
        <time>2023-12-30T13:44:44.000Z</time>
      </trkpt>
      <trkpt lat="43.41682" lon="3.44862">
        <ele>57.813489</ele>
        <time>2023-12-30T13:44:45.000Z</time>
      </trkpt>
      <trkpt lat="43.41681" lon="3.44865">
        <ele>57.788238</ele>
        <time>2023-12-30T13:44:46.000Z</time>
      </trkpt>
      <trkpt lat="43.4168" lon="3.44868">
        <ele>57.763071</ele>
        <time>2023-12-30T13:44:47.000Z</time>
      </trkpt>
      <trkpt lat="43.4168" lon="3.44871">
        <ele>57.737903</ele>
        <time>2023-12-30T13:44:48.000Z</time>
      </trkpt>
      <trkpt lat="43.41679" lon="3.44874">
        <ele>57.711365</ele>
        <time>2023-12-30T13:44:49.000Z</time>
      </trkpt>
      <trkpt lat="43.41678" lon="3.44878">
        <ele>57.68188</ele>
        <time>2023-12-30T13:44:50.000Z</time>
      </trkpt>
      <trkpt lat="43.41677" lon="3.44882">
        <ele>57.650961</ele>
        <time>2023-12-30T13:44:51.000Z</time>
      </trkpt>
      <trkpt lat="43.41677" lon="3.44886">
        <ele>57.616391</ele>
        <time>2023-12-30T13:44:52.000Z</time>
      </trkpt>
      <trkpt lat="43.41677" lon="3.44891">
        <ele>57.578891</ele>
        <time>2023-12-30T13:44:53.000Z</time>
      </trkpt>
      <trkpt lat="43.41677" lon="3.44895">
        <ele>57.545979</ele>
        <time>2023-12-30T13:44:54.000Z</time>
      </trkpt>
      <trkpt lat="43.41677" lon="3.44899">
        <ele>57.514596</ele>
        <time>2023-12-30T13:44:55.000Z</time>
      </trkpt>
      <trkpt lat="43.41677" lon="3.44904">
        <ele>57.477815</ele>
        <time>2023-12-30T13:44:56.000Z</time>
      </trkpt>
      <trkpt lat="43.41677" lon="3.44908">
        <ele>57.448726</ele>
        <time>2023-12-30T13:44:57.000Z</time>
      </trkpt>
      <trkpt lat="43.41677" lon="3.44912">
        <ele>57.42193</ele>
        <time>2023-12-30T13:44:58.000Z</time>
      </trkpt>
      <trkpt lat="43.41677" lon="3.44914">
        <ele>57.399521</ele>
        <time>2023-12-30T13:44:59.000Z</time>
      </trkpt>
      <trkpt lat="43.41677" lon="3.44917">
        <ele>57.376354</ele>
        <time>2023-12-30T13:45:00.000Z</time>
      </trkpt>
      <trkpt lat="43.41677" lon="3.44921">
        <ele>57.350259</ele>
        <time>2023-12-30T13:45:01.000Z</time>
      </trkpt>
      <trkpt lat="43.41677" lon="3.44924">
        <ele>57.327285</ele>
        <time>2023-12-30T13:45:02.000Z</time>
      </trkpt>
      <trkpt lat="43.41677" lon="3.44927">
        <ele>57.305865</ele>
        <time>2023-12-30T13:45:03.000Z</time>
      </trkpt>
      <trkpt lat="43.41677" lon="3.4493">
        <ele>57.28368</ele>
        <time>2023-12-30T13:45:04.000Z</time>
      </trkpt>
      <trkpt lat="43.41677" lon="3.44933">
        <ele>57.253677</ele>
        <time>2023-12-30T13:45:05.000Z</time>
      </trkpt>
      <trkpt lat="43.41678" lon="3.44938">
        <ele>57.220765</ele>
        <time>2023-12-30T13:45:06.000Z</time>
      </trkpt>
      <trkpt lat="43.41678" lon="3.44942">
        <ele>57.191676</ele>
        <time>2023-12-30T13:45:07.000Z</time>
      </trkpt>
      <trkpt lat="43.41678" lon="3.44945">
        <ele>57.163371</ele>
        <time>2023-12-30T13:45:08.000Z</time>
      </trkpt>
      <trkpt lat="43.41678" lon="3.44949">
        <ele>57.131223</ele>
        <time>2023-12-30T13:45:09.000Z</time>
      </trkpt>
      <trkpt lat="43.41678" lon="3.44954">
        <ele>57.099093</ele>
        <time>2023-12-30T13:45:10.000Z</time>
      </trkpt>
      <trkpt lat="43.41678" lon="3.44958">
        <ele>57.066198</ele>
        <time>2023-12-30T13:45:11.000Z</time>
      </trkpt>
      <trkpt lat="43.41677" lon="3.44962">
        <ele>57.031708</ele>
        <time>2023-12-30T13:45:12.000Z</time>
      </trkpt>
      <trkpt lat="43.41677" lon="3.44967">
        <ele>56.998032</ele>
        <time>2023-12-30T13:45:13.000Z</time>
      </trkpt>
      <trkpt lat="43.41677" lon="3.4497">
        <ele>56.970471</ele>
        <time>2023-12-30T13:45:14.000Z</time>
      </trkpt>
      <trkpt lat="43.41677" lon="3.44975">
        <ele>56.938341</ele>
        <time>2023-12-30T13:45:15.000Z</time>
      </trkpt>
      <trkpt lat="43.41677" lon="3.44979">
        <ele>56.90237</ele>
        <time>2023-12-30T13:45:16.000Z</time>
      </trkpt>
      <trkpt lat="43.41678" lon="3.44984">
        <ele>56.866277</ele>
        <time>2023-12-30T13:45:17.000Z</time>
      </trkpt>
      <trkpt lat="43.41678" lon="3.44989">
        <ele>56.828423</ele>
        <time>2023-12-30T13:45:18.000Z</time>
      </trkpt>
      <trkpt lat="43.41679" lon="3.44994">
        <ele>56.788296</ele>
        <time>2023-12-30T13:45:19.000Z</time>
      </trkpt>
      <trkpt lat="43.41679" lon="3.44999">
        <ele>56.754373</ele>
        <time>2023-12-30T13:45:20.000Z</time>
      </trkpt>
      <trkpt lat="43.41679" lon="3.45003">
        <ele>56.719932</ele>
        <time>2023-12-30T13:45:21.000Z</time>
      </trkpt>
      <trkpt lat="43.41678" lon="3.45008">
        <ele>56.68525</ele>
        <time>2023-12-30T13:45:22.000Z</time>
      </trkpt>
      <trkpt lat="43.41677" lon="3.45012">
        <ele>56.64998</ele>
        <time>2023-12-30T13:45:23.000Z</time>
      </trkpt>
      <trkpt lat="43.41676" lon="3.45016">
        <ele>56.618741</ele>
        <time>2023-12-30T13:45:24.000Z</time>
      </trkpt>
      <trkpt lat="43.41675" lon="3.45019">
        <ele>56.588175</ele>
        <time>2023-12-30T13:45:25.000Z</time>
      </trkpt>
      <trkpt lat="43.41673" lon="3.45023">
        <ele>56.522877</ele>
        <time>2023-12-30T13:45:26.000Z</time>
      </trkpt>
      <trkpt lat="43.41671" lon="3.45026">
        <ele>56.4619</ele>
        <time>2023-12-30T13:45:27.000Z</time>
      </trkpt>
      <trkpt lat="43.4167" lon="3.4503">
        <ele>56.395158</ele>
        <time>2023-12-30T13:45:28.000Z</time>
      </trkpt>
      <trkpt lat="43.41669" lon="3.45034">
        <ele>56.327943</ele>
        <time>2023-12-30T13:45:29.000Z</time>
      </trkpt>
      <trkpt lat="43.41668" lon="3.45039">
        <ele>56.24611</ele>
        <time>2023-12-30T13:45:30.000Z</time>
      </trkpt>
      <trkpt lat="43.41667" lon="3.45044">
        <ele>56.169396</ele>
        <time>2023-12-30T13:45:31.000Z</time>
      </trkpt>
      <trkpt lat="43.41666" lon="3.45049">
        <ele>56.089046</ele>
        <time>2023-12-30T13:45:32.000Z</time>
      </trkpt>
      <trkpt lat="43.41666" lon="3.45054">
        <ele>56.004213</ele>
        <time>2023-12-30T13:45:33.000Z</time>
      </trkpt>
      <trkpt lat="43.41666" lon="3.45059">
        <ele>55.930466</ele>
        <time>2023-12-30T13:45:34.000Z</time>
      </trkpt>
      <trkpt lat="43.41666" lon="3.45063">
        <ele>55.870904</ele>
        <time>2023-12-30T13:45:35.000Z</time>
      </trkpt>
      <trkpt lat="43.41666" lon="3.45066">
        <ele>55.812908</ele>
        <time>2023-12-30T13:45:36.000Z</time>
      </trkpt>
      <trkpt lat="43.41666" lon="3.4507">
        <ele>55.747119</ele>
        <time>2023-12-30T13:45:37.000Z</time>
      </trkpt>
      <trkpt lat="43.41666" lon="3.45075">
        <ele>55.67973</ele>
        <time>2023-12-30T13:45:38.000Z</time>
      </trkpt>
      <trkpt lat="43.41666" lon="3.45079">
        <ele>55.612375</ele>
        <time>2023-12-30T13:45:39.000Z</time>
      </trkpt>
      <trkpt lat="43.41666" lon="3.45084">
        <ele>55.535591</ele>
        <time>2023-12-30T13:45:40.000Z</time>
      </trkpt>
      <trkpt lat="43.41665" lon="3.45089">
        <ele>55.457004</ele>
        <time>2023-12-30T13:45:41.000Z</time>
      </trkpt>
      <trkpt lat="43.41665" lon="3.45094">
        <ele>55.373873</ele>
        <time>2023-12-30T13:45:42.000Z</time>
      </trkpt>
      <trkpt lat="43.41665" lon="3.451">
        <ele>55.289041</ele>
        <time>2023-12-30T13:45:43.000Z</time>
      </trkpt>
      <trkpt lat="43.41665" lon="3.45105">
        <ele>55.20591</ele>
        <time>2023-12-30T13:45:44.000Z</time>
      </trkpt>
      <trkpt lat="43.41664" lon="3.45111">
        <ele>55.11621</ele>
        <time>2023-12-30T13:45:45.000Z</time>
      </trkpt>
      <trkpt lat="43.41664" lon="3.45116">
        <ele>55.025993</ele>
        <time>2023-12-30T13:45:46.000Z</time>
      </trkpt>
      <trkpt lat="43.41663" lon="3.45122">
        <ele>54.940723</ele>
        <time>2023-12-30T13:45:47.000Z</time>
      </trkpt>
      <trkpt lat="43.41662" lon="3.45128">
        <ele>54.840543</ele>
        <time>2023-12-30T13:45:48.000Z</time>
      </trkpt>
      <trkpt lat="43.41662" lon="3.45133">
        <ele>54.758069</ele>
        <time>2023-12-30T13:45:49.000Z</time>
      </trkpt>
      <trkpt lat="43.41661" lon="3.45138">
        <ele>54.681195</ele>
        <time>2023-12-30T13:45:50.000Z</time>
      </trkpt>
      <trkpt lat="43.41661" lon="3.45143">
        <ele>54.605977</ele>
        <time>2023-12-30T13:45:51.000Z</time>
      </trkpt>
      <trkpt lat="43.41661" lon="3.45148">
        <ele>54.533408</ele>
        <time>2023-12-30T13:45:52.000Z</time>
      </trkpt>
      <trkpt lat="43.41661" lon="3.45152">
        <ele>54.456172</ele>
        <time>2023-12-30T13:45:53.000Z</time>
      </trkpt>
      <trkpt lat="43.4166" lon="3.45158">
        <ele>54.376169</ele>
        <time>2023-12-30T13:45:54.000Z</time>
      </trkpt>
      <trkpt lat="43.41661" lon="3.45163">
        <ele>54.293038</ele>
        <time>2023-12-30T13:45:55.000Z</time>
      </trkpt>
      <trkpt lat="43.4166" lon="3.45168">
        <ele>54.206859</ele>
        <time>2023-12-30T13:45:56.000Z</time>
      </trkpt>
      <trkpt lat="43.41661" lon="3.45174">
        <ele>54.125293</ele>
        <time>2023-12-30T13:45:57.000Z</time>
      </trkpt>
      <trkpt lat="43.41661" lon="3.45179">
        <ele>54.046973</ele>
        <time>2023-12-30T13:45:58.000Z</time>
      </trkpt>
      <trkpt lat="43.4166" lon="3.45183">
        <ele>53.970098</ele>
        <time>2023-12-30T13:45:59.000Z</time>
      </trkpt>
      <trkpt lat="43.4166" lon="3.45188">
        <ele>53.896446</ele>
        <time>2023-12-30T13:46:00.000Z</time>
      </trkpt>
      <trkpt lat="43.4166" lon="3.45193">
        <ele>53.817387</ele>
        <time>2023-12-30T13:46:01.000Z</time>
      </trkpt>
      <trkpt lat="43.4166" lon="3.45198">
        <ele>53.735906</ele>
        <time>2023-12-30T13:46:02.000Z</time>
      </trkpt>
      <trkpt lat="43.4166" lon="3.45204">
        <ele>53.652859</ele>
        <time>2023-12-30T13:46:03.000Z</time>
      </trkpt>
      <trkpt lat="43.4166" lon="3.45209">
        <ele>53.566465</ele>
        <time>2023-12-30T13:46:04.000Z</time>
      </trkpt>
      <trkpt lat="43.4166" lon="3.45215">
        <ele>53.480205</ele>
        <time>2023-12-30T13:46:05.000Z</time>
      </trkpt>
      <trkpt lat="43.4166" lon="3.4522">
        <ele>53.401767</ele>
        <time>2023-12-30T13:46:06.000Z</time>
      </trkpt>
      <trkpt lat="43.4166" lon="3.45225">
        <ele>53.319858</ele>
        <time>2023-12-30T13:46:07.000Z</time>
      </trkpt>
      <trkpt lat="43.41659" lon="3.4523">
        <ele>53.245452</ele>
        <time>2023-12-30T13:46:08.000Z</time>
      </trkpt>
      <trkpt lat="43.41659" lon="3.45234">
        <ele>53.178063</ele>
        <time>2023-12-30T13:46:09.000Z</time>
      </trkpt>
      <trkpt lat="43.41659" lon="3.45238">
        <ele>53.110673</ele>
        <time>2023-12-30T13:46:10.000Z</time>
      </trkpt>
      <trkpt lat="43.4166" lon="3.45243">
        <ele>53.033166</ele>
        <time>2023-12-30T13:46:11.000Z</time>
      </trkpt>
      <trkpt lat="43.4166" lon="3.45248">
        <ele>52.951599</ele>
        <time>2023-12-30T13:46:12.000Z</time>
      </trkpt>
      <trkpt lat="43.4166" lon="3.45253">
        <ele>52.870033</ele>
        <time>2023-12-30T13:46:13.000Z</time>
      </trkpt>
      <trkpt lat="43.4166" lon="3.45259">
        <ele>52.78345</ele>
        <time>2023-12-30T13:46:14.000Z</time>
      </trkpt>
      <trkpt lat="43.41659" lon="3.45264">
        <ele>52.701483</ele>
        <time>2023-12-30T13:46:15.000Z</time>
      </trkpt>
      <trkpt lat="43.41659" lon="3.4527">
        <ele>52.594902</ele>
        <time>2023-12-30T13:46:16.000Z</time>
      </trkpt>
      <trkpt lat="43.41658" lon="3.45274">
        <ele>52.499354</ele>
        <time>2023-12-30T13:46:17.000Z</time>
      </trkpt>
      <trkpt lat="43.41657" lon="3.4528">
        <ele>52.389612</ele>
        <time>2023-12-30T13:46:18.000Z</time>
      </trkpt>
      <trkpt lat="43.41656" lon="3.45286">
        <ele>52.282244</ele>
        <time>2023-12-30T13:46:19.000Z</time>
      </trkpt>
      <trkpt lat="43.41656" lon="3.45291">
        <ele>52.177571</ele>
        <time>2023-12-30T13:46:20.000Z</time>
      </trkpt>
      <trkpt lat="43.41656" lon="3.45296">
        <ele>52.073434</ele>
        <time>2023-12-30T13:46:21.000Z</time>
      </trkpt>
      <trkpt lat="43.41655" lon="3.45302">
        <ele>51.967149</ele>
        <time>2023-12-30T13:46:22.000Z</time>
      </trkpt>
      <trkpt lat="43.41655" lon="3.45308">
        <ele>51.857037</ele>
        <time>2023-12-30T13:46:23.000Z</time>
      </trkpt>
      <trkpt lat="43.41654" lon="3.45314">
        <ele>51.739739</ele>
        <time>2023-12-30T13:46:24.000Z</time>
      </trkpt>
      <trkpt lat="43.41654" lon="3.45319">
        <ele>51.62934</ele>
        <time>2023-12-30T13:46:25.000Z</time>
      </trkpt>
      <trkpt lat="43.41652" lon="3.45325">
        <ele>51.512627</ele>
        <time>2023-12-30T13:46:26.000Z</time>
      </trkpt>
      <trkpt lat="43.41651" lon="3.45331">
        <ele>51.395126</ele>
        <time>2023-12-30T13:46:27.000Z</time>
      </trkpt>
      <trkpt lat="43.41648" lon="3.45336">
        <ele>51.281488</ele>
        <time>2023-12-30T13:46:28.000Z</time>
      </trkpt>
      <trkpt lat="43.41646" lon="3.45341">
        <ele>51.158512</ele>
        <time>2023-12-30T13:46:29.000Z</time>
      </trkpt>
      <trkpt lat="43.41643" lon="3.45346">
        <ele>51.041135</ele>
        <time>2023-12-30T13:46:30.000Z</time>
      </trkpt>
      <trkpt lat="43.41641" lon="3.45351">
        <ele>50.925898</ele>
        <time>2023-12-30T13:46:31.000Z</time>
      </trkpt>
      <trkpt lat="43.41639" lon="3.45357">
        <ele>50.812251</ele>
        <time>2023-12-30T13:46:32.000Z</time>
      </trkpt>
      <trkpt lat="43.41637" lon="3.45362">
        <ele>50.699085</ele>
        <time>2023-12-30T13:46:33.000Z</time>
      </trkpt>
      <trkpt lat="43.41636" lon="3.45367">
        <ele>50.591501</ele>
        <time>2023-12-30T13:46:34.000Z</time>
      </trkpt>
      <trkpt lat="43.41634" lon="3.45373">
        <ele>50.473019</ele>
        <time>2023-12-30T13:46:35.000Z</time>
      </trkpt>
      <trkpt lat="43.41633" lon="3.45378">
        <ele>50.360752</ele>
        <time>2023-12-30T13:46:36.000Z</time>
      </trkpt>
      <trkpt lat="43.41632" lon="3.45384">
        <ele>50.259834</ele>
        <time>2023-12-30T13:46:37.000Z</time>
      </trkpt>
      <trkpt lat="43.41631" lon="3.45389">
        <ele>50.152466</ele>
        <time>2023-12-30T13:46:38.000Z</time>
      </trkpt>
      <trkpt lat="43.41631" lon="3.45395">
        <ele>50.033718</ele>
        <time>2023-12-30T13:46:39.000Z</time>
      </trkpt>
      <trkpt lat="43.4163" lon="3.45402">
        <ele>49.908371</ele>
        <time>2023-12-30T13:46:40.000Z</time>
      </trkpt>
      <trkpt lat="43.41629" lon="3.45408">
        <ele>49.792243</ele>
        <time>2023-12-30T13:46:41.000Z</time>
      </trkpt>
      <trkpt lat="43.41629" lon="3.45414">
        <ele>49.674205</ele>
        <time>2023-12-30T13:46:42.000Z</time>
      </trkpt>
      <trkpt lat="43.41629" lon="3.45419">
        <ele>49.566233</ele>
        <time>2023-12-30T13:46:43.000Z</time>
      </trkpt>
      <trkpt lat="43.41628" lon="3.45425">
        <ele>49.458261</ele>
        <time>2023-12-30T13:46:44.000Z</time>
      </trkpt>
      <trkpt lat="43.41628" lon="3.45431">
        <ele>49.346234</ele>
        <time>2023-12-30T13:46:45.000Z</time>
      </trkpt>
      <trkpt lat="43.41627" lon="3.45436">
        <ele>49.243092</ele>
        <time>2023-12-30T13:46:46.000Z</time>
      </trkpt>
      <trkpt lat="43.41627" lon="3.45442">
        <ele>49.13383</ele>
        <time>2023-12-30T13:46:47.000Z</time>
      </trkpt>
      <trkpt lat="43.41626" lon="3.45447">
        <ele>49.029742</ele>
        <time>2023-12-30T13:46:48.000Z</time>
      </trkpt>
      <trkpt lat="43.41625" lon="3.45451">
        <ele>48.937414</ele>
        <time>2023-12-30T13:46:49.000Z</time>
      </trkpt>
      <trkpt lat="43.41624" lon="3.45456">
        <ele>48.836959</ele>
        <time>2023-12-30T13:46:50.000Z</time>
      </trkpt>
      <trkpt lat="43.41622" lon="3.45461">
        <ele>48.735713</ele>
        <time>2023-12-30T13:46:51.000Z</time>
      </trkpt>
      <trkpt lat="43.41621" lon="3.45466">
        <ele>48.637096</ele>
        <time>2023-12-30T13:46:52.000Z</time>
      </trkpt>
      <trkpt lat="43.4162" lon="3.45471">
        <ele>48.538592</ele>
        <time>2023-12-30T13:46:53.000Z</time>
      </trkpt>
      <trkpt lat="43.41618" lon="3.45476">
        <ele>48.437346</ele>
        <time>2023-12-30T13:46:54.000Z</time>
      </trkpt>
      <trkpt lat="43.41617" lon="3.4548">
        <ele>48.347787</ele>
        <time>2023-12-30T13:46:55.000Z</time>
      </trkpt>
      <trkpt lat="43.41616" lon="3.45485">
        <ele>48.252838</ele>
        <time>2023-12-30T13:46:56.000Z</time>
      </trkpt>
      <trkpt lat="43.41615" lon="3.4549">
        <ele>48.153378</ele>
        <time>2023-12-30T13:46:57.000Z</time>
      </trkpt>
      <trkpt lat="43.41613" lon="3.45494">
        <ele>48.054598</ele>
        <time>2023-12-30T13:46:58.000Z</time>
      </trkpt>
      <trkpt lat="43.41611" lon="3.45499">
        <ele>47.950182</ele>
        <time>2023-12-30T13:46:59.000Z</time>
      </trkpt>
      <trkpt lat="43.4161" lon="3.45504">
        <ele>47.871173</ele>
        <time>2023-12-30T13:47:00.000Z</time>
      </trkpt>
      <trkpt lat="43.41608" lon="3.45509">
        <ele>47.787237</ele>
        <time>2023-12-30T13:47:01.000Z</time>
      </trkpt>
      <trkpt lat="43.41607" lon="3.45515">
        <ele>47.704226</ele>
        <time>2023-12-30T13:47:02.000Z</time>
      </trkpt>
      <trkpt lat="43.41605" lon="3.4552">
        <ele>47.613528</ele>
        <time>2023-12-30T13:47:03.000Z</time>
      </trkpt>
      <trkpt lat="43.41603" lon="3.45526">
        <ele>47.522042</ele>
        <time>2023-12-30T13:47:04.000Z</time>
      </trkpt>
      <trkpt lat="43.41601" lon="3.45531">
        <ele>47.437027</ele>
        <time>2023-12-30T13:47:05.000Z</time>
      </trkpt>
      <trkpt lat="43.41599" lon="3.45536">
        <ele>47.352236</ele>
        <time>2023-12-30T13:47:06.000Z</time>
      </trkpt>
      <trkpt lat="43.41596" lon="3.45541">
        <ele>47.257794</ele>
        <time>2023-12-30T13:47:07.000Z</time>
      </trkpt>
      <trkpt lat="43.41594" lon="3.45547">
        <ele>47.159966</ele>
        <time>2023-12-30T13:47:08.000Z</time>
      </trkpt>
      <trkpt lat="43.41591" lon="3.45553">
        <ele>47.050358</ele>
        <time>2023-12-30T13:47:09.000Z</time>
      </trkpt>
      <trkpt lat="43.41587" lon="3.4556">
        <ele>46.915762</ele>
        <time>2023-12-30T13:47:10.000Z</time>
      </trkpt>
      <trkpt lat="43.41583" lon="3.45569">
        <ele>46.764206</ele>
        <time>2023-12-30T13:47:11.000Z</time>
      </trkpt>
      <trkpt lat="43.41579" lon="3.45578">
        <ele>46.606139</ele>
        <time>2023-12-30T13:47:12.000Z</time>
      </trkpt>
      <trkpt lat="43.41574" lon="3.45588">
        <ele>46.437613</ele>
        <time>2023-12-30T13:47:13.000Z</time>
      </trkpt>
      <trkpt lat="43.41571" lon="3.45597">
        <ele>46.28055</ele>
        <time>2023-12-30T13:47:14.000Z</time>
      </trkpt>
      <trkpt lat="43.41567" lon="3.45606">
        <ele>46.133169</ele>
        <time>2023-12-30T13:47:15.000Z</time>
      </trkpt>
      <trkpt lat="43.41564" lon="3.45614">
        <ele>46.003584</ele>
        <time>2023-12-30T13:47:16.000Z</time>
      </trkpt>
      <trkpt lat="43.41561" lon="3.4562">
        <ele>45.896256</ele>
        <time>2023-12-30T13:47:17.000Z</time>
      </trkpt>
      <trkpt lat="43.4156" lon="3.45625">
        <ele>45.809259</ele>
        <time>2023-12-30T13:47:18.000Z</time>
      </trkpt>
      <trkpt lat="43.41559" lon="3.4563">
        <ele>45.737105</ele>
        <time>2023-12-30T13:47:19.000Z</time>
      </trkpt>
      <trkpt lat="43.41561" lon="3.45633">
        <ele>45.691762</ele>
        <time>2023-12-30T13:47:20.000Z</time>
      </trkpt>
      <trkpt lat="43.41562" lon="3.45635">
        <ele>45.646264</ele>
        <time>2023-12-30T13:47:21.000Z</time>
      </trkpt>
      <trkpt lat="43.41563" lon="3.45636">
        <ele>45.614547</ele>
        <time>2023-12-30T13:47:22.000Z</time>
      </trkpt>
      <trkpt lat="43.41565" lon="3.45637">
        <ele>45.587835</ele>
        <time>2023-12-30T13:47:23.000Z</time>
      </trkpt>
      <trkpt lat="43.41564" lon="3.45638">
        <ele>45.583523</ele>
        <time>2023-12-30T13:47:24.000Z</time>
      </trkpt>
      <trkpt lat="43.41564" lon="3.45638">
        <ele>45.583523</ele>
        <time>2023-12-30T13:47:25.000Z</time>
      </trkpt>
      <trkpt lat="43.41564" lon="3.45638">
        <ele>45.583523</ele>
        <time>2023-12-30T13:47:26.000Z</time>
      </trkpt>
      <trkpt lat="43.41564" lon="3.45638">
        <ele>45.583523</ele>
        <time>2023-12-30T13:47:27.000Z</time>
      </trkpt>
      <trkpt lat="43.41564" lon="3.45638">
        <ele>45.583523</ele>
        <time>2023-12-30T13:47:28.000Z</time>
      </trkpt>
      <trkpt lat="43.41564" lon="3.45638">
        <ele>45.583523</ele>
        <time>2023-12-30T13:47:29.000Z</time>
      </trkpt>
      <trkpt lat="43.41564" lon="3.45638">
        <ele>45.583523</ele>
        <time>2023-12-30T13:47:30.000Z</time>
      </trkpt>
      <trkpt lat="43.41564" lon="3.45638">
        <ele>45.583523</ele>
        <time>2023-12-30T13:47:31.000Z</time>
      </trkpt>
      <trkpt lat="43.41564" lon="3.45638">
        <ele>45.583523</ele>
        <time>2023-12-30T13:47:32.000Z</time>
      </trkpt>
      <trkpt lat="43.41564" lon="3.45638">
        <ele>45.583523</ele>
        <time>2023-12-30T13:47:33.000Z</time>
      </trkpt>
      <trkpt lat="43.41564" lon="3.45638">
        <ele>45.583523</ele>
        <time>2023-12-30T13:47:34.000Z</time>
      </trkpt>
      <trkpt lat="43.41564" lon="3.45638">
        <ele>45.583523</ele>
        <time>2023-12-30T13:47:35.000Z</time>
      </trkpt>
      <trkpt lat="43.41564" lon="3.45638">
        <ele>45.583523</ele>
        <time>2023-12-30T13:47:36.000Z</time>
      </trkpt>
      <trkpt lat="43.41564" lon="3.45638">
        <ele>45.583523</ele>
        <time>2023-12-30T13:47:37.000Z</time>
      </trkpt>
      <trkpt lat="43.41564" lon="3.45638">
        <ele>45.583523</ele>
        <time>2023-12-30T13:47:38.000Z</time>
      </trkpt>
      <trkpt lat="43.41564" lon="3.45638">
        <ele>45.583523</ele>
        <time>2023-12-30T13:47:39.000Z</time>
      </trkpt>
      <trkpt lat="43.41564" lon="3.45638">
        <ele>45.583523</ele>
        <time>2023-12-30T13:47:40.000Z</time>
      </trkpt>
      <trkpt lat="43.41564" lon="3.45638">
        <ele>45.583523</ele>
        <time>2023-12-30T13:47:41.000Z</time>
      </trkpt>
      <trkpt lat="43.41564" lon="3.45638">
        <ele>45.583523</ele>
        <time>2023-12-30T13:47:42.000Z</time>
      </trkpt>
      <trkpt lat="43.41564" lon="3.45638">
        <ele>45.583523</ele>
        <time>2023-12-30T13:47:43.000Z</time>
      </trkpt>
      <trkpt lat="43.41564" lon="3.45638">
        <ele>45.583523</ele>
        <time>2023-12-30T13:47:44.000Z</time>
      </trkpt>
      <trkpt lat="43.41564" lon="3.45638">
        <ele>45.583523</ele>
        <time>2023-12-30T13:47:45.000Z</time>
      </trkpt>
      <trkpt lat="43.41564" lon="3.45638">
        <ele>45.583523</ele>
        <time>2023-12-30T13:47:46.000Z</time>
      </trkpt>
      <trkpt lat="43.41564" lon="3.45638">
        <ele>45.583523</ele>
        <time>2023-12-30T13:47:47.000Z</time>
      </trkpt>
      <trkpt lat="43.41564" lon="3.45638">
        <ele>45.583523</ele>
        <time>2023-12-30T13:47:48.000Z</time>
      </trkpt>
      <trkpt lat="43.41564" lon="3.45638">
        <ele>45.583523</ele>
        <time>2023-12-30T13:47:49.000Z</time>
      </trkpt>
      <trkpt lat="43.41564" lon="3.45638">
        <ele>45.583523</ele>
        <time>2023-12-30T13:47:50.000Z</time>
      </trkpt>
      <trkpt lat="43.41564" lon="3.45638">
        <ele>45.583523</ele>
        <time>2023-12-30T13:47:51.000Z</time>
      </trkpt>
      <trkpt lat="43.41564" lon="3.45638">
        <ele>45.583523</ele>
        <time>2023-12-30T13:47:52.000Z</time>
      </trkpt>
      <trkpt lat="43.41564" lon="3.45638">
        <ele>45.583523</ele>
        <time>2023-12-30T13:47:53.000Z</time>
      </trkpt>
      <trkpt lat="43.41564" lon="3.45638">
        <ele>45.583523</ele>
        <time>2023-12-30T13:47:54.000Z</time>
      </trkpt>
      <trkpt lat="43.41564" lon="3.45638">
        <ele>45.583523</ele>
        <time>2023-12-30T13:47:55.000Z</time>
      </trkpt>
      <trkpt lat="43.41564" lon="3.45638">
        <ele>45.583523</ele>
        <time>2023-12-30T13:47:56.000Z</time>
      </trkpt>
      <trkpt lat="43.41564" lon="3.45638">
        <ele>45.583523</ele>
        <time>2023-12-30T13:47:57.000Z</time>
      </trkpt>
      <trkpt lat="43.41564" lon="3.45638">
        <ele>45.583523</ele>
        <time>2023-12-30T13:47:58.000Z</time>
      </trkpt>
      <trkpt lat="43.41564" lon="3.45638">
        <ele>45.583523</ele>
        <time>2023-12-30T13:47:59.000Z</time>
      </trkpt>
      <trkpt lat="43.41564" lon="3.45638">
        <ele>45.583523</ele>
        <time>2023-12-30T13:48:00.000Z</time>
      </trkpt>
      <trkpt lat="43.41564" lon="3.45638">
        <ele>45.583523</ele>
        <time>2023-12-30T13:48:01.000Z</time>
      </trkpt>
      <trkpt lat="43.41564" lon="3.45638">
        <ele>45.583523</ele>
        <time>2023-12-30T13:48:02.000Z</time>
      </trkpt>
      <trkpt lat="43.41564" lon="3.45638">
        <ele>45.583523</ele>
        <time>2023-12-30T13:48:03.000Z</time>
      </trkpt>
      <trkpt lat="43.41564" lon="3.45638">
        <ele>45.583523</ele>
        <time>2023-12-30T13:48:04.000Z</time>
      </trkpt>
      <trkpt lat="43.41564" lon="3.45638">
        <ele>45.583523</ele>
        <time>2023-12-30T13:48:05.000Z</time>
      </trkpt>
      <trkpt lat="43.41564" lon="3.45638">
        <ele>45.583523</ele>
        <time>2023-12-30T13:48:06.000Z</time>
      </trkpt>
      <trkpt lat="43.41564" lon="3.45638">
        <ele>45.583523</ele>
        <time>2023-12-30T13:48:07.000Z</time>
      </trkpt>
      <trkpt lat="43.41564" lon="3.45638">
        <ele>45.583523</ele>
        <time>2023-12-30T13:48:08.000Z</time>
      </trkpt>
      <trkpt lat="43.41564" lon="3.45638">
        <ele>45.583523</ele>
        <time>2023-12-30T13:48:09.000Z</time>
      </trkpt>
      <trkpt lat="43.41564" lon="3.45638">
        <ele>45.583523</ele>
        <time>2023-12-30T13:48:10.000Z</time>
      </trkpt>
      <trkpt lat="43.41564" lon="3.45638">
        <ele>45.583523</ele>
        <time>2023-12-30T13:48:11.000Z</time>
      </trkpt>
      <trkpt lat="43.41564" lon="3.45638">
        <ele>45.583523</ele>
        <time>2023-12-30T13:48:12.000Z</time>
      </trkpt>
      <trkpt lat="43.41564" lon="3.45638">
        <ele>45.583523</ele>
        <time>2023-12-30T13:48:13.000Z</time>
      </trkpt>
      <trkpt lat="43.41564" lon="3.45638">
        <ele>45.583523</ele>
        <time>2023-12-30T13:48:14.000Z</time>
      </trkpt>
      <trkpt lat="43.41564" lon="3.45638">
        <ele>45.583523</ele>
        <time>2023-12-30T13:48:15.000Z</time>
      </trkpt>
      <trkpt lat="43.41564" lon="3.45638">
        <ele>45.583523</ele>
        <time>2023-12-30T13:48:16.000Z</time>
      </trkpt>
      <trkpt lat="43.41564" lon="3.45638">
        <ele>45.583523</ele>
        <time>2023-12-30T13:48:17.000Z</time>
      </trkpt>
      <trkpt lat="43.41564" lon="3.45638">
        <ele>45.583523</ele>
        <time>2023-12-30T13:48:18.000Z</time>
      </trkpt>
      <trkpt lat="43.41564" lon="3.45638">
        <ele>45.583523</ele>
        <time>2023-12-30T13:48:19.000Z</time>
      </trkpt>
      <trkpt lat="43.41564" lon="3.45638">
        <ele>45.583523</ele>
        <time>2023-12-30T13:48:20.000Z</time>
      </trkpt>
      <trkpt lat="43.41564" lon="3.45638">
        <ele>45.583523</ele>
        <time>2023-12-30T13:48:21.000Z</time>
      </trkpt>
      <trkpt lat="43.41564" lon="3.45638">
        <ele>45.583523</ele>
        <time>2023-12-30T13:48:22.000Z</time>
      </trkpt>
      <trkpt lat="43.41564" lon="3.45638">
        <ele>45.583523</ele>
        <time>2023-12-30T13:48:23.000Z</time>
      </trkpt>
      <trkpt lat="43.41564" lon="3.45638">
        <ele>45.583523</ele>
        <time>2023-12-30T13:48:24.000Z</time>
      </trkpt>
      <trkpt lat="43.41564" lon="3.45638">
        <ele>45.583523</ele>
        <time>2023-12-30T13:48:25.000Z</time>
      </trkpt>
      <trkpt lat="43.41564" lon="3.45638">
        <ele>45.583523</ele>
        <time>2023-12-30T13:48:26.000Z</time>
      </trkpt>
      <trkpt lat="43.41564" lon="3.45638">
        <ele>45.581496</ele>
        <time>2023-12-30T13:48:27.000Z</time>
      </trkpt>
      <trkpt lat="43.41564" lon="3.45638">
        <ele>45.581496</ele>
        <time>2023-12-30T13:48:28.000Z</time>
      </trkpt>
      <trkpt lat="43.41564" lon="3.45638">
        <ele>45.581496</ele>
        <time>2023-12-30T13:48:29.000Z</time>
      </trkpt>
      <trkpt lat="43.41564" lon="3.45638">
        <ele>45.581496</ele>
        <time>2023-12-30T13:48:30.000Z</time>
      </trkpt>
      <trkpt lat="43.41564" lon="3.45638">
        <ele>45.581496</ele>
        <time>2023-12-30T13:48:31.000Z</time>
      </trkpt>
      <trkpt lat="43.41564" lon="3.45638">
        <ele>45.581496</ele>
        <time>2023-12-30T13:48:32.000Z</time>
      </trkpt>
      <trkpt lat="43.41564" lon="3.45638">
        <ele>45.581496</ele>
        <time>2023-12-30T13:48:33.000Z</time>
      </trkpt>
      <trkpt lat="43.41564" lon="3.45638">
        <ele>45.581496</ele>
        <time>2023-12-30T13:48:34.000Z</time>
      </trkpt>
      <trkpt lat="43.41564" lon="3.45638">
        <ele>45.57947</ele>
        <time>2023-12-30T13:48:35.000Z</time>
      </trkpt>
      <trkpt lat="43.41565" lon="3.45638">
        <ele>45.557911</ele>
        <time>2023-12-30T13:48:36.000Z</time>
      </trkpt>
      <trkpt lat="43.41567" lon="3.45638">
        <ele>45.5292</ele>
        <time>2023-12-30T13:48:37.000Z</time>
      </trkpt>
      <trkpt lat="43.41568" lon="3.45636">
        <ele>45.497825</ele>
        <time>2023-12-30T13:48:38.000Z</time>
      </trkpt>
      <trkpt lat="43.41569" lon="3.45635">
        <ele>45.462761</ele>
        <time>2023-12-30T13:48:39.000Z</time>
      </trkpt>
      <trkpt lat="43.4157" lon="3.45633">
        <ele>45.432792</ele>
        <time>2023-12-30T13:48:40.000Z</time>
      </trkpt>
      <trkpt lat="43.41571" lon="3.45631">
        <ele>45.395866</ele>
        <time>2023-12-30T13:48:41.000Z</time>
      </trkpt>
      <trkpt lat="43.41573" lon="3.45629">
        <ele>45.346101</ele>
        <time>2023-12-30T13:48:42.000Z</time>
      </trkpt>
      <trkpt lat="43.41575" lon="3.45627">
        <ele>45.288294</ele>
        <time>2023-12-30T13:48:43.000Z</time>
      </trkpt>
      <trkpt lat="43.41577" lon="3.45624">
        <ele>45.238529</ele>
        <time>2023-12-30T13:48:44.000Z</time>
      </trkpt>
      <trkpt lat="43.41579" lon="3.45621">
        <ele>45.181254</ele>
        <time>2023-12-30T13:48:45.000Z</time>
      </trkpt>
      <trkpt lat="43.41581" lon="3.45618">
        <ele>45.116675</ele>
        <time>2023-12-30T13:48:46.000Z</time>
      </trkpt>
      <trkpt lat="43.41583" lon="3.45614">
        <ele>45.049978</ele>
        <time>2023-12-30T13:48:47.000Z</time>
      </trkpt>
      <trkpt lat="43.41585" lon="3.45611">
        <ele>44.993972</ele>
        <time>2023-12-30T13:48:48.000Z</time>
      </trkpt>
      <trkpt lat="43.41587" lon="3.45609">
        <ele>44.937091</ele>
        <time>2023-12-30T13:48:49.000Z</time>
      </trkpt>
      <trkpt lat="43.4159" lon="3.45606">
        <ele>44.871964</ele>
        <time>2023-12-30T13:48:50.000Z</time>
      </trkpt>
      <trkpt lat="43.41592" lon="3.45603">
        <ele>44.801654</ele>
        <time>2023-12-30T13:48:51.000Z</time>
      </trkpt>
      <trkpt lat="43.41595" lon="3.45601">
        <ele>44.733215</ele>
        <time>2023-12-30T13:48:52.000Z</time>
      </trkpt>
      <trkpt lat="43.41598" lon="3.45598">
        <ele>44.661144</ele>
        <time>2023-12-30T13:48:53.000Z</time>
      </trkpt>
      <trkpt lat="43.41601" lon="3.45596">
        <ele>44.592265</ele>
        <time>2023-12-30T13:48:54.000Z</time>
      </trkpt>
      <trkpt lat="43.41604" lon="3.45594">
        <ele>44.527925</ele>
        <time>2023-12-30T13:48:55.000Z</time>
      </trkpt>
      <trkpt lat="43.41606" lon="3.45591">
        <ele>44.464176</ele>
        <time>2023-12-30T13:48:56.000Z</time>
      </trkpt>
      <trkpt lat="43.41609" lon="3.45589">
        <ele>44.40319</ele>
        <time>2023-12-30T13:48:57.000Z</time>
      </trkpt>
      <trkpt lat="43.41611" lon="3.45586">
        <ele>44.341468</ele>
        <time>2023-12-30T13:48:58.000Z</time>
      </trkpt>
      <trkpt lat="43.41612" lon="3.45582">
        <ele>44.398972</ele>
        <time>2023-12-30T13:48:59.000Z</time>
      </trkpt>
      <trkpt lat="43.41614" lon="3.45578">
        <ele>44.658075</ele>
        <time>2023-12-30T13:49:00.000Z</time>
      </trkpt>
      <trkpt lat="43.41615" lon="3.45575">
        <ele>44.826326</ele>
        <time>2023-12-30T13:49:01.000Z</time>
      </trkpt>
      <trkpt lat="43.41616" lon="3.45574">
        <ele>44.951738</ele>
        <time>2023-12-30T13:49:02.000Z</time>
      </trkpt>
      <trkpt lat="43.41617" lon="3.45572">
        <ele>45.149832</ele>
        <time>2023-12-30T13:49:03.000Z</time>
      </trkpt>
      <trkpt lat="43.4162" lon="3.4557">
        <ele>45.37395</ele>
        <time>2023-12-30T13:49:04.000Z</time>
      </trkpt>
      <trkpt lat="43.41622" lon="3.45567">
        <ele>45.612765</ele>
        <time>2023-12-30T13:49:05.000Z</time>
      </trkpt>
      <trkpt lat="43.41624" lon="3.45564">
        <ele>45.871999</ele>
        <time>2023-12-30T13:49:06.000Z</time>
      </trkpt>
      <trkpt lat="43.41626" lon="3.45561">
        <ele>46.113337</ele>
        <time>2023-12-30T13:49:07.000Z</time>
      </trkpt>
      <trkpt lat="43.41627" lon="3.45558">
        <ele>46.359689</ele>
        <time>2023-12-30T13:49:08.000Z</time>
      </trkpt>
      <trkpt lat="43.41629" lon="3.45554">
        <ele>46.621038</ele>
        <time>2023-12-30T13:49:09.000Z</time>
      </trkpt>
      <trkpt lat="43.41632" lon="3.45551">
        <ele>46.88214</ele>
        <time>2023-12-30T13:49:10.000Z</time>
      </trkpt>
      <trkpt lat="43.41634" lon="3.45548">
        <ele>47.125313</ele>
        <time>2023-12-30T13:49:11.000Z</time>
      </trkpt>
      <trkpt lat="43.41636" lon="3.45547">
        <ele>47.351268</ele>
        <time>2023-12-30T13:49:12.000Z</time>
      </trkpt>
      <trkpt lat="43.41639" lon="3.45545">
        <ele>47.579573</ele>
        <time>2023-12-30T13:49:13.000Z</time>
      </trkpt>
      <trkpt lat="43.41641" lon="3.45544">
        <ele>47.829851</ele>
        <time>2023-12-30T13:49:14.000Z</time>
      </trkpt>
      <trkpt lat="43.41643" lon="3.45543">
        <ele>48.012592</ele>
        <time>2023-12-30T13:49:15.000Z</time>
      </trkpt>
      <trkpt lat="43.41645" lon="3.4554">
        <ele>48.222371</ele>
        <time>2023-12-30T13:49:16.000Z</time>
      </trkpt>
      <trkpt lat="43.41646" lon="3.45537">
        <ele>48.429078</ele>
        <time>2023-12-30T13:49:17.000Z</time>
      </trkpt>
      <trkpt lat="43.41649" lon="3.45534">
        <ele>48.682432</ele>
        <time>2023-12-30T13:49:18.000Z</time>
      </trkpt>
      <trkpt lat="43.41651" lon="3.45533">
        <ele>48.934256</ele>
        <time>2023-12-30T13:49:19.000Z</time>
      </trkpt>
      <trkpt lat="43.41654" lon="3.45533">
        <ele>49.168742</ele>
        <time>2023-12-30T13:49:20.000Z</time>
      </trkpt>
      <trkpt lat="43.41657" lon="3.45532">
        <ele>49.386955</ele>
        <time>2023-12-30T13:49:21.000Z</time>
      </trkpt>
      <trkpt lat="43.41659" lon="3.45529">
        <ele>49.636098</ele>
        <time>2023-12-30T13:49:22.000Z</time>
      </trkpt>
      <trkpt lat="43.41661" lon="3.45526">
        <ele>49.877435</ele>
        <time>2023-12-30T13:49:23.000Z</time>
      </trkpt>
      <trkpt lat="43.41663" lon="3.45523">
        <ele>50.109396</ele>
        <time>2023-12-30T13:49:24.000Z</time>
      </trkpt>
      <trkpt lat="43.41665" lon="3.4552">
        <ele>50.383149</ele>
        <time>2023-12-30T13:49:25.000Z</time>
      </trkpt>
      <trkpt lat="43.41667" lon="3.45517">
        <ele>50.646697</ele>
        <time>2023-12-30T13:49:26.000Z</time>
      </trkpt>
      <trkpt lat="43.41669" lon="3.45514">
        <ele>50.882933</ele>
        <time>2023-12-30T13:49:27.000Z</time>
      </trkpt>
      <trkpt lat="43.4167" lon="3.45511">
        <ele>51.109439</ele>
        <time>2023-12-30T13:49:28.000Z</time>
      </trkpt>
      <trkpt lat="43.41671" lon="3.45507">
        <ele>51.370376</ele>
        <time>2023-12-30T13:49:29.000Z</time>
      </trkpt>
      <trkpt lat="43.41673" lon="3.45503">
        <ele>51.631486</ele>
        <time>2023-12-30T13:49:30.000Z</time>
      </trkpt>
      <trkpt lat="43.41675" lon="3.455">
        <ele>51.883616</ele>
        <time>2023-12-30T13:49:31.000Z</time>
      </trkpt>
      <trkpt lat="43.41677" lon="3.45497">
        <ele>52.114992</ele>
        <time>2023-12-30T13:49:32.000Z</time>
      </trkpt>
      <trkpt lat="43.41678" lon="3.45494">
        <ele>52.326558</ele>
        <time>2023-12-30T13:49:33.000Z</time>
      </trkpt>
      <trkpt lat="43.4168" lon="3.45491">
        <ele>52.548532</ele>
        <time>2023-12-30T13:49:34.000Z</time>
      </trkpt>
      <trkpt lat="43.41681" lon="3.45488">
        <ele>52.779784</ele>
        <time>2023-12-30T13:49:35.000Z</time>
      </trkpt>
      <trkpt lat="43.41683" lon="3.45485">
        <ele>53.011036</ele>
        <time>2023-12-30T13:49:36.000Z</time>
      </trkpt>
      <trkpt lat="43.41684" lon="3.45482">
        <ele>53.217299</ele>
        <time>2023-12-30T13:49:37.000Z</time>
      </trkpt>
      <trkpt lat="43.41684" lon="3.45477">
        <ele>53.479316</ele>
        <time>2023-12-30T13:49:38.000Z</time>
      </trkpt>
      <trkpt lat="43.41684" lon="3.45474">
        <ele>53.692314</ele>
        <time>2023-12-30T13:49:39.000Z</time>
      </trkpt>
      <trkpt lat="43.41684" lon="3.45471">
        <ele>53.86258</ele>
        <time>2023-12-30T13:49:40.000Z</time>
      </trkpt>
      <trkpt lat="43.41684" lon="3.45468">
        <ele>54.039127</ele>
        <time>2023-12-30T13:49:41.000Z</time>
      </trkpt>
      <trkpt lat="43.41685" lon="3.45465">
        <ele>54.256456</ele>
        <time>2023-12-30T13:49:42.000Z</time>
      </trkpt>
      <trkpt lat="43.41686" lon="3.45462">
        <ele>54.47843</ele>
        <time>2023-12-30T13:49:43.000Z</time>
      </trkpt>
      <trkpt lat="43.41688" lon="3.45459">
        <ele>54.681045</ele>
        <time>2023-12-30T13:49:44.000Z</time>
      </trkpt>
      <trkpt lat="43.41689" lon="3.45456">
        <ele>54.900038</ele>
        <time>2023-12-30T13:49:45.000Z</time>
      </trkpt>
      <trkpt lat="43.4169" lon="3.45453">
        <ele>55.114388</ele>
        <time>2023-12-30T13:49:46.000Z</time>
      </trkpt>
      <trkpt lat="43.41691" lon="3.4545">
        <ele>55.291909</ele>
        <time>2023-12-30T13:49:47.000Z</time>
      </trkpt>
      <trkpt lat="43.41691" lon="3.45447">
        <ele>55.486242</ele>
        <time>2023-12-30T13:49:48.000Z</time>
      </trkpt>
      <trkpt lat="43.41692" lon="3.45444">
        <ele>55.686962</ele>
        <time>2023-12-30T13:49:49.000Z</time>
      </trkpt>
      <trkpt lat="43.41694" lon="3.45441">
        <ele>55.864702</ele>
        <time>2023-12-30T13:49:50.000Z</time>
      </trkpt>
      <trkpt lat="43.41694" lon="3.45438">
        <ele>56.062078</ele>
        <time>2023-12-30T13:49:51.000Z</time>
      </trkpt>
      <trkpt lat="43.41695" lon="3.45435">
        <ele>56.287853</ele>
        <time>2023-12-30T13:49:52.000Z</time>
      </trkpt>
      <trkpt lat="43.41696" lon="3.45431">
        <ele>56.508203</ele>
        <time>2023-12-30T13:49:53.000Z</time>
      </trkpt>
      <trkpt lat="43.41696" lon="3.45428">
        <ele>56.703512</ele>
        <time>2023-12-30T13:49:54.000Z</time>
      </trkpt>
      <trkpt lat="43.41696" lon="3.45425">
        <ele>56.892208</ele>
        <time>2023-12-30T13:49:55.000Z</time>
      </trkpt>
      <trkpt lat="43.41696" lon="3.45422">
        <ele>57.086978</ele>
        <time>2023-12-30T13:49:56.000Z</time>
      </trkpt>
      <trkpt lat="43.41696" lon="3.45419">
        <ele>57.287823</ele>
        <time>2023-12-30T13:49:57.000Z</time>
      </trkpt>
      <trkpt lat="43.41696" lon="3.45415">
        <ele>57.496095</ele>
        <time>2023-12-30T13:49:58.000Z</time>
      </trkpt>
      <trkpt lat="43.41696" lon="3.45412">
        <ele>57.689196</ele>
        <time>2023-12-30T13:49:59.000Z</time>
      </trkpt>
      <trkpt lat="43.41697" lon="3.45409">
        <ele>57.872557</ele>
        <time>2023-12-30T13:50:00.000Z</time>
      </trkpt>
      <trkpt lat="43.41697" lon="3.45406">
        <ele>58.059726</ele>
        <time>2023-12-30T13:50:01.000Z</time>
      </trkpt>
      <trkpt lat="43.41698" lon="3.45403">
        <ele>58.262949</ele>
        <time>2023-12-30T13:50:02.000Z</time>
      </trkpt>
      <trkpt lat="43.41698" lon="3.454">
        <ele>58.465185</ele>
        <time>2023-12-30T13:50:03.000Z</time>
      </trkpt>
      <trkpt lat="43.41699" lon="3.45396">
        <ele>58.674632</ele>
        <time>2023-12-30T13:50:04.000Z</time>
      </trkpt>
      <trkpt lat="43.41699" lon="3.45393">
        <ele>58.894981</ele>
        <time>2023-12-30T13:50:05.000Z</time>
      </trkpt>
      <trkpt lat="43.41699" lon="3.45389">
        <ele>59.107979</ele>
        <time>2023-12-30T13:50:06.000Z</time>
      </trkpt>
      <trkpt lat="43.41699" lon="3.45386">
        <ele>59.326893</ele>
        <time>2023-12-30T13:50:07.000Z</time>
      </trkpt>
      <trkpt lat="43.41699" lon="3.45383">
        <ele>59.34851</ele>
        <time>2023-12-30T13:50:08.000Z</time>
      </trkpt>
      <trkpt lat="43.41699" lon="3.45379">
        <ele>59.338439</ele>
        <time>2023-12-30T13:50:09.000Z</time>
      </trkpt>
      <trkpt lat="43.417" lon="3.45377">
        <ele>59.328903</ele>
        <time>2023-12-30T13:50:10.000Z</time>
      </trkpt>
      <trkpt lat="43.41701" lon="3.45374">
        <ele>59.319503</ele>
        <time>2023-12-30T13:50:11.000Z</time>
      </trkpt>
      <trkpt lat="43.41701" lon="3.45371">
        <ele>59.310113</ele>
        <time>2023-12-30T13:50:12.000Z</time>
      </trkpt>
      <trkpt lat="43.41702" lon="3.45368">
        <ele>59.300607</ele>
        <time>2023-12-30T13:50:13.000Z</time>
      </trkpt>
      <trkpt lat="43.41702" lon="3.45365">
        <ele>59.290897</ele>
        <time>2023-12-30T13:50:14.000Z</time>
      </trkpt>
      <trkpt lat="43.41703" lon="3.45362">
        <ele>59.279726</ele>
        <time>2023-12-30T13:50:15.000Z</time>
      </trkpt>
      <trkpt lat="43.41703" lon="3.45359">
        <ele>59.269733</ele>
        <time>2023-12-30T13:50:16.000Z</time>
      </trkpt>
      <trkpt lat="43.41703" lon="3.45353">
        <ele>59.249748</ele>
        <time>2023-12-30T13:50:18.000Z</time>
      </trkpt>
      <trkpt lat="43.41703" lon="3.45351">
        <ele>59.245783</ele>
        <time>2023-12-30T13:50:19.000Z</time>
      </trkpt>
      <trkpt lat="43.41703" lon="3.45352">
        <ele>59.243166</ele>
        <time>2023-12-30T13:50:20.000Z</time>
      </trkpt>
      <trkpt lat="43.41703" lon="3.45352">
        <ele>59.242844</ele>
        <time>2023-12-30T13:50:21.000Z</time>
      </trkpt>
      <trkpt lat="43.41703" lon="3.45352">
        <ele>59.242522</ele>
        <time>2023-12-30T13:50:22.000Z</time>
      </trkpt>
      <trkpt lat="43.41703" lon="3.45352">
        <ele>59.242522</ele>
        <time>2023-12-30T13:50:23.000Z</time>
      </trkpt>
      <trkpt lat="43.41703" lon="3.45352">
        <ele>59.242522</ele>
        <time>2023-12-30T13:50:24.000Z</time>
      </trkpt>
      <trkpt lat="43.41703" lon="3.45352">
        <ele>59.242522</ele>
        <time>2023-12-30T13:50:25.000Z</time>
      </trkpt>
      <trkpt lat="43.41703" lon="3.45352">
        <ele>59.242522</ele>
        <time>2023-12-30T13:50:26.000Z</time>
      </trkpt>
      <trkpt lat="43.41703" lon="3.45352">
        <ele>59.242522</ele>
        <time>2023-12-30T13:50:27.000Z</time>
      </trkpt>
      <trkpt lat="43.41703" lon="3.45352">
        <ele>59.242522</ele>
        <time>2023-12-30T13:50:28.000Z</time>
      </trkpt>
      <trkpt lat="43.41703" lon="3.45352">
        <ele>59.242522</ele>
        <time>2023-12-30T13:50:29.000Z</time>
      </trkpt>
      <trkpt lat="43.41703" lon="3.45352">
        <ele>59.242079</ele>
        <time>2023-12-30T13:50:30.000Z</time>
      </trkpt>
      <trkpt lat="43.41703" lon="3.45352">
        <ele>59.242079</ele>
        <time>2023-12-30T13:50:31.000Z</time>
      </trkpt>
      <trkpt lat="43.41703" lon="3.45352">
        <ele>59.241635</ele>
        <time>2023-12-30T13:50:32.000Z</time>
      </trkpt>
      <trkpt lat="43.41703" lon="3.45352">
        <ele>59.241635</ele>
        <time>2023-12-30T13:50:33.000Z</time>
      </trkpt>
      <trkpt lat="43.41703" lon="3.45352">
        <ele>59.241192</ele>
        <time>2023-12-30T13:50:34.000Z</time>
      </trkpt>
      <trkpt lat="43.41703" lon="3.45352">
        <ele>59.24087</ele>
        <time>2023-12-30T13:50:35.000Z</time>
      </trkpt>
      <trkpt lat="43.41703" lon="3.45352">
        <ele>59.240548</ele>
        <time>2023-12-30T13:50:36.000Z</time>
      </trkpt>
      <trkpt lat="43.41703" lon="3.45352">
        <ele>59.240105</ele>
        <time>2023-12-30T13:50:37.000Z</time>
      </trkpt>
      <trkpt lat="43.41703" lon="3.45352">
        <ele>59.239557</ele>
        <time>2023-12-30T13:50:38.000Z</time>
      </trkpt>
      <trkpt lat="43.41703" lon="3.45352">
        <ele>59.239557</ele>
        <time>2023-12-30T13:50:39.000Z</time>
      </trkpt>
      <trkpt lat="43.41703" lon="3.45352">
        <ele>59.239557</ele>
        <time>2023-12-30T13:50:40.000Z</time>
      </trkpt>
      <trkpt lat="43.41703" lon="3.45352">
        <ele>59.239557</ele>
        <time>2023-12-30T13:50:41.000Z</time>
      </trkpt>
      <trkpt lat="43.41703" lon="3.45352">
        <ele>59.239235</ele>
        <time>2023-12-30T13:50:42.000Z</time>
      </trkpt>
      <trkpt lat="43.41703" lon="3.45352">
        <ele>59.238791</ele>
        <time>2023-12-30T13:50:43.000Z</time>
      </trkpt>
      <trkpt lat="43.41703" lon="3.45352">
        <ele>59.23345</ele>
        <time>2023-12-30T13:50:51.000Z</time>
      </trkpt>
      <trkpt lat="43.41703" lon="3.45349">
        <ele>59.188152</ele>
        <time>2023-12-30T13:54:01.000Z</time>
      </trkpt>
      <trkpt lat="43.41703" lon="3.45349">
        <ele>59.1863</ele>
        <time>2023-12-30T13:54:02.000Z</time>
      </trkpt>
      <trkpt lat="43.41703" lon="3.45349">
        <ele>59.184656</ele>
        <time>2023-12-30T13:54:03.000Z</time>
      </trkpt>
      <trkpt lat="43.41703" lon="3.45349">
        <ele>59.184656</ele>
        <time>2023-12-30T13:54:04.000Z</time>
      </trkpt>
      <trkpt lat="43.41703" lon="3.45348">
        <ele>59.182359</ele>
        <time>2023-12-30T13:54:05.000Z</time>
      </trkpt>
      <trkpt lat="43.41702" lon="3.45345">
        <ele>59.171504</ele>
        <time>2023-12-30T13:54:06.000Z</time>
      </trkpt>
      <trkpt lat="43.41702" lon="3.45342">
        <ele>59.162123</ele>
        <time>2023-12-30T13:54:07.000Z</time>
      </trkpt>
      <trkpt lat="43.41702" lon="3.45339">
        <ele>59.150454</ele>
        <time>2023-12-30T13:54:08.000Z</time>
      </trkpt>
      <trkpt lat="43.41702" lon="3.45335">
        <ele>59.137864</ele>
        <time>2023-12-30T13:54:09.000Z</time>
      </trkpt>
      <trkpt lat="43.41701" lon="3.45331">
        <ele>59.126136</ele>
        <time>2023-12-30T13:54:10.000Z</time>
      </trkpt>
      <trkpt lat="43.417" lon="3.45328">
        <ele>59.114627</ele>
        <time>2023-12-30T13:54:11.000Z</time>
      </trkpt>
      <trkpt lat="43.417" lon="3.45324">
        <ele>59.10239</ele>
        <time>2023-12-30T13:54:12.000Z</time>
      </trkpt>
      <trkpt lat="43.417" lon="3.4532">
        <ele>59.089158</ele>
        <time>2023-12-30T13:54:13.000Z</time>
      </trkpt>
      <trkpt lat="43.417" lon="3.45316">
        <ele>59.076849</ele>
        <time>2023-12-30T13:54:14.000Z</time>
      </trkpt>
      <trkpt lat="43.417" lon="3.45312">
        <ele>59.063646</ele>
        <time>2023-12-30T13:54:15.000Z</time>
      </trkpt>
      <trkpt lat="43.417" lon="3.45308">
        <ele>59.051723</ele>
        <time>2023-12-30T13:54:16.000Z</time>
      </trkpt>
      <trkpt lat="43.41701" lon="3.45305">
        <ele>59.040343</ele>
        <time>2023-12-30T13:54:17.000Z</time>
      </trkpt>
      <trkpt lat="43.41701" lon="3.45302">
        <ele>59.029889</ele>
        <time>2023-12-30T13:54:18.000Z</time>
      </trkpt>
      <trkpt lat="43.41702" lon="3.45298">
        <ele>59.019574</ele>
        <time>2023-12-30T13:54:19.000Z</time>
      </trkpt>
      <trkpt lat="43.41702" lon="3.45295">
        <ele>59.008165</ele>
        <time>2023-12-30T13:54:20.000Z</time>
      </trkpt>
      <trkpt lat="43.41703" lon="3.45291">
        <ele>58.995853</ele>
        <time>2023-12-30T13:54:21.000Z</time>
      </trkpt>
      <trkpt lat="43.41703" lon="3.45288">
        <ele>58.983959</ele>
        <time>2023-12-30T13:54:22.000Z</time>
      </trkpt>
      <trkpt lat="43.41704" lon="3.45284">
        <ele>58.970689</ele>
        <time>2023-12-30T13:54:23.000Z</time>
      </trkpt>
      <trkpt lat="43.41704" lon="3.4528">
        <ele>58.958774</ele>
        <time>2023-12-30T13:54:24.000Z</time>
      </trkpt>
      <trkpt lat="43.41704" lon="3.45276">
        <ele>58.947825</ele>
        <time>2023-12-30T13:54:25.000Z</time>
      </trkpt>
      <trkpt lat="43.41703" lon="3.45273">
        <ele>58.936867</ele>
        <time>2023-12-30T13:54:26.000Z</time>
      </trkpt>
      <trkpt lat="43.41703" lon="3.45269">
        <ele>58.924631</ele>
        <time>2023-12-30T13:54:27.000Z</time>
      </trkpt>
      <trkpt lat="43.41703" lon="3.45266">
        <ele>58.914004</ele>
        <time>2023-12-30T13:54:28.000Z</time>
      </trkpt>
      <trkpt lat="43.41704" lon="3.45263">
        <ele>58.903019</ele>
        <time>2023-12-30T13:54:29.000Z</time>
      </trkpt>
      <trkpt lat="43.41704" lon="3.45259">
        <ele>58.890279</ele>
        <time>2023-12-30T13:54:30.000Z</time>
      </trkpt>
      <trkpt lat="43.41705" lon="3.45255">
        <ele>58.87829</ele>
        <time>2023-12-30T13:54:31.000Z</time>
      </trkpt>
      <trkpt lat="43.41704" lon="3.45251">
        <ele>58.86502</ele>
        <time>2023-12-30T13:54:32.000Z</time>
      </trkpt>
      <trkpt lat="43.41704" lon="3.45247">
        <ele>58.853105</ele>
        <time>2023-12-30T13:54:33.000Z</time>
      </trkpt>
      <trkpt lat="43.41704" lon="3.45243">
        <ele>58.839082</ele>
        <time>2023-12-30T13:54:34.000Z</time>
      </trkpt>
      <trkpt lat="43.41704" lon="3.45238">
        <ele>58.824584</ele>
        <time>2023-12-30T13:54:35.000Z</time>
      </trkpt>
      <trkpt lat="43.41704" lon="3.45234">
        <ele>58.810093</ele>
        <time>2023-12-30T13:54:36.000Z</time>
      </trkpt>
      <trkpt lat="43.41704" lon="3.45229">
        <ele>58.795575</ele>
        <time>2023-12-30T13:54:37.000Z</time>
      </trkpt>
      <trkpt lat="43.41704" lon="3.45225">
        <ele>58.781721</ele>
        <time>2023-12-30T13:54:38.000Z</time>
      </trkpt>
      <trkpt lat="43.41704" lon="3.4522">
        <ele>58.764923</ele>
        <time>2023-12-30T13:54:39.000Z</time>
      </trkpt>
      <trkpt lat="43.41705" lon="3.45215">
        <ele>58.748125</ele>
        <time>2023-12-30T13:54:40.000Z</time>
      </trkpt>
      <trkpt lat="43.41705" lon="3.4521">
        <ele>58.731648</ele>
        <time>2023-12-30T13:54:41.000Z</time>
      </trkpt>
      <trkpt lat="43.41705" lon="3.45205">
        <ele>58.716166</ele>
        <time>2023-12-30T13:54:42.000Z</time>
      </trkpt>
      <trkpt lat="43.41705" lon="3.452">
        <ele>58.699075</ele>
        <time>2023-12-30T13:54:43.000Z</time>
      </trkpt>
      <trkpt lat="43.41705" lon="3.45194">
        <ele>58.682557</ele>
        <time>2023-12-30T13:54:44.000Z</time>
      </trkpt>
      <trkpt lat="43.41705" lon="3.45189">
        <ele>58.666128</ele>
        <time>2023-12-30T13:54:45.000Z</time>
      </trkpt>
      <trkpt lat="43.41704" lon="3.45185">
        <ele>58.651308</ele>
        <time>2023-12-30T13:54:46.000Z</time>
      </trkpt>
      <trkpt lat="43.41704" lon="3.4518">
        <ele>58.634417</ele>
        <time>2023-12-30T13:54:47.000Z</time>
      </trkpt>
      <trkpt lat="43.41703" lon="3.45175">
        <ele>58.619282</ele>
        <time>2023-12-30T13:54:48.000Z</time>
      </trkpt>
      <trkpt lat="43.41703" lon="3.45171">
        <ele>58.605894</ele>
        <time>2023-12-30T13:54:49.000Z</time>
      </trkpt>
      <trkpt lat="43.41703" lon="3.45167">
        <ele>58.594627</ele>
        <time>2023-12-30T13:54:50.000Z</time>
      </trkpt>
      <trkpt lat="43.41705" lon="3.45165">
        <ele>58.583278</ele>
        <time>2023-12-30T13:54:51.000Z</time>
      </trkpt>
      <trkpt lat="43.41708" lon="3.45164">
        <ele>58.572255</ele>
        <time>2023-12-30T13:54:52.000Z</time>
      </trkpt>
      <trkpt lat="43.4171" lon="3.45164">
        <ele>58.560617</ele>
        <time>2023-12-30T13:54:53.000Z</time>
      </trkpt>
      <trkpt lat="43.41713" lon="3.45165">
        <ele>58.571864</ele>
        <time>2023-12-30T13:54:54.000Z</time>
      </trkpt>
      <trkpt lat="43.41715" lon="3.45165">
        <ele>58.583753</ele>
        <time>2023-12-30T13:54:55.000Z</time>
      </trkpt>
      <trkpt lat="43.41718" lon="3.45165">
        <ele>58.595642</ele>
        <time>2023-12-30T13:54:56.000Z</time>
      </trkpt>
      <trkpt lat="43.4172" lon="3.45164">
        <ele>58.608692</ele>
        <time>2023-12-30T13:54:57.000Z</time>
      </trkpt>
      <trkpt lat="43.41722" lon="3.45162">
        <ele>58.620755</ele>
        <time>2023-12-30T13:54:58.000Z</time>
      </trkpt>
      <trkpt lat="43.41724" lon="3.4516">
        <ele>58.632817</ele>
        <time>2023-12-30T13:54:59.000Z</time>
      </trkpt>
      <trkpt lat="43.41727" lon="3.4516">
        <ele>58.64337</ele>
        <time>2023-12-30T13:55:00.000Z</time>
      </trkpt>
      <trkpt lat="43.41728" lon="3.45159">
        <ele>58.653575</ele>
        <time>2023-12-30T13:55:01.000Z</time>
      </trkpt>
      <trkpt lat="43.4173" lon="3.4516">
        <ele>58.662941</ele>
        <time>2023-12-30T13:55:02.000Z</time>
      </trkpt>
      <trkpt lat="43.41732" lon="3.45161">
        <ele>58.671796</ele>
        <time>2023-12-30T13:55:03.000Z</time>
      </trkpt>
      <trkpt lat="43.41734" lon="3.45162">
        <ele>58.683852</ele>
        <time>2023-12-30T13:55:04.000Z</time>
      </trkpt>
      <trkpt lat="43.41737" lon="3.45163">
        <ele>58.697216</ele>
        <time>2023-12-30T13:55:05.000Z</time>
      </trkpt>
      <trkpt lat="43.41739" lon="3.45165">
        <ele>58.711736</ele>
        <time>2023-12-30T13:55:06.000Z</time>
      </trkpt>
      <trkpt lat="43.41742" lon="3.45166">
        <ele>58.726939</ele>
        <time>2023-12-30T13:55:07.000Z</time>
      </trkpt>
      <trkpt lat="43.41745" lon="3.45166">
        <ele>58.738958</ele>
        <time>2023-12-30T13:55:08.000Z</time>
      </trkpt>
      <trkpt lat="43.41747" lon="3.45166">
        <ele>58.749381</ele>
        <time>2023-12-30T13:55:09.000Z</time>
      </trkpt>
      <trkpt lat="43.41749" lon="3.45165">
        <ele>58.761946</ele>
        <time>2023-12-30T13:55:10.000Z</time>
      </trkpt>
      <trkpt lat="43.41752" lon="3.45164">
        <ele>58.773785</ele>
        <time>2023-12-30T13:55:11.000Z</time>
      </trkpt>
      <trkpt lat="43.41753" lon="3.45162">
        <ele>58.785138</ele>
        <time>2023-12-30T13:55:12.000Z</time>
      </trkpt>
      <trkpt lat="43.41754" lon="3.45159">
        <ele>58.796522</ele>
        <time>2023-12-30T13:55:13.000Z</time>
      </trkpt>
      <trkpt lat="43.41754" lon="3.45156">
        <ele>58.807682</ele>
        <time>2023-12-30T13:55:14.000Z</time>
      </trkpt>
      <trkpt lat="43.41753" lon="3.45152">
        <ele>58.821928</ele>
        <time>2023-12-30T13:55:15.000Z</time>
      </trkpt>
      <trkpt lat="43.41753" lon="3.4515">
        <ele>58.831639</ele>
        <time>2023-12-30T13:55:16.000Z</time>
      </trkpt>
      <trkpt lat="43.41754" lon="3.45147">
        <ele>58.843956</ele>
        <time>2023-12-30T13:55:17.000Z</time>
      </trkpt>
      <trkpt lat="43.41755" lon="3.45143">
        <ele>58.859225</ele>
        <time>2023-12-30T13:55:18.000Z</time>
      </trkpt>
      <trkpt lat="43.41756" lon="3.45139">
        <ele>58.874439</ele>
        <time>2023-12-30T13:55:19.000Z</time>
      </trkpt>
      <trkpt lat="43.41757" lon="3.45134">
        <ele>58.889708</ele>
        <time>2023-12-30T13:55:20.000Z</time>
      </trkpt>
      <trkpt lat="43.41757" lon="3.4513">
        <ele>58.905324</ele>
        <time>2023-12-30T13:55:21.000Z</time>
      </trkpt>
      <trkpt lat="43.41759" lon="3.45126">
        <ele>58.92206</ele>
        <time>2023-12-30T13:55:22.000Z</time>
      </trkpt>
      <trkpt lat="43.41759" lon="3.45122">
        <ele>58.93675</ele>
        <time>2023-12-30T13:55:23.000Z</time>
      </trkpt>
      <trkpt lat="43.41759" lon="3.45118">
        <ele>58.951495</ele>
        <time>2023-12-30T13:55:24.000Z</time>
      </trkpt>
      <trkpt lat="43.41758" lon="3.45113">
        <ele>58.96746</ele>
        <time>2023-12-30T13:55:25.000Z</time>
      </trkpt>
      <trkpt lat="43.41757" lon="3.45109">
        <ele>58.984407</ele>
        <time>2023-12-30T13:55:26.000Z</time>
      </trkpt>
      <trkpt lat="43.41755" lon="3.45105">
        <ele>58.999894</ele>
        <time>2023-12-30T13:55:27.000Z</time>
      </trkpt>
      <trkpt lat="43.41754" lon="3.45102">
        <ele>59.015766</ele>
        <time>2023-12-30T13:55:28.000Z</time>
      </trkpt>
      <trkpt lat="43.41753" lon="3.45097">
        <ele>59.032842</ele>
        <time>2023-12-30T13:55:29.000Z</time>
      </trkpt>
      <trkpt lat="43.41752" lon="3.45092">
        <ele>59.050576</ele>
        <time>2023-12-30T13:55:30.000Z</time>
      </trkpt>
      <trkpt lat="43.41752" lon="3.45088">
        <ele>59.066829</ele>
        <time>2023-12-30T13:55:31.000Z</time>
      </trkpt>
      <trkpt lat="43.41752" lon="3.45084">
        <ele>59.080505</ele>
        <time>2023-12-30T13:55:32.000Z</time>
      </trkpt>
      <trkpt lat="43.41752" lon="3.4508">
        <ele>59.09461</ele>
        <time>2023-12-30T13:55:33.000Z</time>
      </trkpt>
      <trkpt lat="43.41752" lon="3.45076">
        <ele>59.110442</ele>
        <time>2023-12-30T13:55:34.000Z</time>
      </trkpt>
      <trkpt lat="43.41752" lon="3.45072">
        <ele>59.124504</ele>
        <time>2023-12-30T13:55:35.000Z</time>
      </trkpt>
      <trkpt lat="43.41752" lon="3.45067">
        <ele>59.140756</ele>
        <time>2023-12-30T13:55:36.000Z</time>
      </trkpt>
      <trkpt lat="43.41752" lon="3.45063">
        <ele>59.1573</ele>
        <time>2023-12-30T13:55:37.000Z</time>
      </trkpt>
      <trkpt lat="43.41752" lon="3.45059">
        <ele>59.171686</ele>
        <time>2023-12-30T13:55:38.000Z</time>
      </trkpt>
      <trkpt lat="43.41753" lon="3.45055">
        <ele>59.185222</ele>
        <time>2023-12-30T13:55:39.000Z</time>
      </trkpt>
      <trkpt lat="43.41753" lon="3.45051">
        <ele>59.20037</ele>
        <time>2023-12-30T13:55:40.000Z</time>
      </trkpt>
      <trkpt lat="43.41754" lon="3.45046">
        <ele>59.216334</ele>
        <time>2023-12-30T13:55:41.000Z</time>
      </trkpt>
      <trkpt lat="43.41755" lon="3.45042">
        <ele>59.231729</ele>
        <time>2023-12-30T13:55:42.000Z</time>
      </trkpt>
      <trkpt lat="43.41754" lon="3.45038">
        <ele>59.245618</ele>
        <time>2023-12-30T13:55:43.000Z</time>
      </trkpt>
      <trkpt lat="43.41754" lon="3.45035">
        <ele>59.259428</ele>
        <time>2023-12-30T13:55:44.000Z</time>
      </trkpt>
      <trkpt lat="43.41753" lon="3.45031">
        <ele>59.271792</ele>
        <time>2023-12-30T13:55:45.000Z</time>
      </trkpt>
      <trkpt lat="43.41753" lon="3.45028">
        <ele>59.283702</ele>
        <time>2023-12-30T13:55:46.000Z</time>
      </trkpt>
      <trkpt lat="43.41754" lon="3.45025">
        <ele>59.297418</ele>
        <time>2023-12-30T13:55:47.000Z</time>
      </trkpt>
      <trkpt lat="43.41754" lon="3.4502">
        <ele>59.313723</ele>
        <time>2023-12-30T13:55:48.000Z</time>
      </trkpt>
      <trkpt lat="43.41754" lon="3.45016">
        <ele>59.329687</ele>
        <time>2023-12-30T13:55:49.000Z</time>
      </trkpt>
      <trkpt lat="43.41753" lon="3.45011">
        <ele>59.346943</ele>
        <time>2023-12-30T13:55:50.000Z</time>
      </trkpt>
      <trkpt lat="43.41752" lon="3.45006">
        <ele>59.365367</ele>
        <time>2023-12-30T13:55:51.000Z</time>
      </trkpt>
      <trkpt lat="43.4175" lon="3.45001">
        <ele>59.385582</ele>
        <time>2023-12-30T13:55:52.000Z</time>
      </trkpt>
      <trkpt lat="43.41748" lon="3.44996">
        <ele>59.405407</ele>
        <time>2023-12-30T13:55:53.000Z</time>
      </trkpt>
      <trkpt lat="43.41748" lon="3.44991">
        <ele>59.423367</ele>
        <time>2023-12-30T13:55:54.000Z</time>
      </trkpt>
      <trkpt lat="43.41748" lon="3.44988">
        <ele>59.435606</ele>
        <time>2023-12-30T13:55:55.000Z</time>
      </trkpt>
      <trkpt lat="43.41748" lon="3.44984">
        <ele>59.449641</ele>
        <time>2023-12-30T13:55:56.000Z</time>
      </trkpt>
      <trkpt lat="43.41749" lon="3.4498">
        <ele>59.481124</ele>
        <time>2023-12-30T13:55:57.000Z</time>
      </trkpt>
      <trkpt lat="43.4175" lon="3.44976">
        <ele>59.516326</ele>
        <time>2023-12-30T13:55:58.000Z</time>
      </trkpt>
      <trkpt lat="43.41752" lon="3.44972">
        <ele>59.555651</ele>
        <time>2023-12-30T13:55:59.000Z</time>
      </trkpt>
      <trkpt lat="43.41753" lon="3.44967">
        <ele>59.598366</ele>
        <time>2023-12-30T13:56:00.000Z</time>
      </trkpt>
      <trkpt lat="43.41754" lon="3.44962">
        <ele>59.637491</ele>
        <time>2023-12-30T13:56:01.000Z</time>
      </trkpt>
      <trkpt lat="43.41753" lon="3.44957">
        <ele>59.678698</ele>
        <time>2023-12-30T13:56:02.000Z</time>
      </trkpt>
      <trkpt lat="43.41752" lon="3.44951">
        <ele>59.724524</ele>
        <time>2023-12-30T13:56:03.000Z</time>
      </trkpt>
      <trkpt lat="43.41752" lon="3.44946">
        <ele>59.77017</ele>
        <time>2023-12-30T13:56:04.000Z</time>
      </trkpt>
      <trkpt lat="43.41751" lon="3.44941">
        <ele>59.809123</ele>
        <time>2023-12-30T13:56:05.000Z</time>
      </trkpt>
      <trkpt lat="43.41751" lon="3.44936">
        <ele>59.851928</ele>
        <time>2023-12-30T13:56:06.000Z</time>
      </trkpt>
      <trkpt lat="43.41751" lon="3.44931">
        <ele>59.891352</ele>
        <time>2023-12-30T13:56:07.000Z</time>
      </trkpt>
      <trkpt lat="43.41752" lon="3.44926">
        <ele>59.929893</ele>
        <time>2023-12-30T13:56:08.000Z</time>
      </trkpt>
      <trkpt lat="43.41752" lon="3.44921">
        <ele>59.968162</ele>
        <time>2023-12-30T13:56:09.000Z</time>
      </trkpt>
      <trkpt lat="43.41752" lon="3.44917">
        <ele>60.001901</ele>
        <time>2023-12-30T13:56:10.000Z</time>
      </trkpt>
      <trkpt lat="43.41751" lon="3.44914">
        <ele>60.028182</ele>
        <time>2023-12-30T13:56:11.000Z</time>
      </trkpt>
      <trkpt lat="43.41749" lon="3.44912">
        <ele>60.059416</ele>
        <time>2023-12-30T13:56:12.000Z</time>
      </trkpt>
      <trkpt lat="43.41748" lon="3.44908">
        <ele>60.095578</ele>
        <time>2023-12-30T13:56:13.000Z</time>
      </trkpt>
      <trkpt lat="43.41746" lon="3.44903">
        <ele>60.133736</ele>
        <time>2023-12-30T13:56:14.000Z</time>
      </trkpt>
      <trkpt lat="43.41746" lon="3.44899">
        <ele>60.16524</ele>
        <time>2023-12-30T13:56:15.000Z</time>
      </trkpt>
      <trkpt lat="43.41745" lon="3.44896">
        <ele>60.194706</ele>
        <time>2023-12-30T13:56:16.000Z</time>
      </trkpt>
      <trkpt lat="43.41743" lon="3.44893">
        <ele>60.224146</ele>
        <time>2023-12-30T13:56:17.000Z</time>
      </trkpt>
      <trkpt lat="43.41742" lon="3.4489">
        <ele>60.251521</ele>
        <time>2023-12-30T13:56:18.000Z</time>
      </trkpt>
      <trkpt lat="43.41742" lon="3.44887">
        <ele>60.282928</ele>
        <time>2023-12-30T13:56:19.000Z</time>
      </trkpt>
      <trkpt lat="43.41742" lon="3.44882">
        <ele>60.320292</ele>
        <time>2023-12-30T13:56:20.000Z</time>
      </trkpt>
      <trkpt lat="43.41742" lon="3.44878">
        <ele>60.352424</ele>
        <time>2023-12-30T13:56:21.000Z</time>
      </trkpt>
      <trkpt lat="43.41742" lon="3.44874">
        <ele>60.384575</ele>
        <time>2023-12-30T13:56:22.000Z</time>
      </trkpt>
      <trkpt lat="43.41742" lon="3.4487">
        <ele>60.412713</ele>
        <time>2023-12-30T13:56:23.000Z</time>
      </trkpt>
      <trkpt lat="43.41742" lon="3.44867">
        <ele>60.44085</ele>
        <time>2023-12-30T13:56:24.000Z</time>
      </trkpt>
      <trkpt lat="43.41742" lon="3.44864">
        <ele>60.46337</ele>
        <time>2023-12-30T13:56:25.000Z</time>
      </trkpt>
      <trkpt lat="43.41743" lon="3.44862">
        <ele>60.484975</ele>
        <time>2023-12-30T13:56:26.000Z</time>
      </trkpt>
      <trkpt lat="43.41744" lon="3.44859">
        <ele>60.5084</ele>
        <time>2023-12-30T13:56:27.000Z</time>
      </trkpt>
      <trkpt lat="43.41744" lon="3.44856">
        <ele>60.532343</ele>
        <time>2023-12-30T13:56:28.000Z</time>
      </trkpt>
      <trkpt lat="43.41744" lon="3.44852">
        <ele>60.56225</ele>
        <time>2023-12-30T13:56:29.000Z</time>
      </trkpt>
      <trkpt lat="43.41745" lon="3.44847">
        <ele>60.602658</ele>
        <time>2023-12-30T13:56:30.000Z</time>
      </trkpt>
      <trkpt lat="43.41745" lon="3.44842">
        <ele>60.643865</ele>
        <time>2023-12-30T13:56:31.000Z</time>
      </trkpt>
      <trkpt lat="43.41746" lon="3.44837">
        <ele>60.684466</ele>
        <time>2023-12-30T13:56:32.000Z</time>
      </trkpt>
      <trkpt lat="43.41747" lon="3.44833">
        <ele>60.717794</ele>
        <time>2023-12-30T13:56:33.000Z</time>
      </trkpt>
      <trkpt lat="43.41749" lon="3.4483">
        <ele>60.751014</ele>
        <time>2023-12-30T13:56:34.000Z</time>
      </trkpt>
      <trkpt lat="43.41751" lon="3.44827">
        <ele>60.788021</ele>
        <time>2023-12-30T13:56:35.000Z</time>
      </trkpt>
      <trkpt lat="43.41754" lon="3.44825">
        <ele>60.824541</ele>
        <time>2023-12-30T13:56:36.000Z</time>
      </trkpt>
      <trkpt lat="43.41756" lon="3.44823">
        <ele>60.850901</ele>
        <time>2023-12-30T13:56:37.000Z</time>
      </trkpt>
      <trkpt lat="43.41756" lon="3.44819">
        <ele>60.88001</ele>
        <time>2023-12-30T13:56:38.000Z</time>
      </trkpt>
      <trkpt lat="43.41756" lon="3.44816">
        <ele>60.908125</ele>
        <time>2023-12-30T13:56:39.000Z</time>
      </trkpt>
      <trkpt lat="43.41757" lon="3.44812">
        <ele>60.94073</ele>
        <time>2023-12-30T13:56:40.000Z</time>
      </trkpt>
      <trkpt lat="43.41757" lon="3.44807">
        <ele>60.976387</ele>
        <time>2023-12-30T13:56:41.000Z</time>
      </trkpt>
      <trkpt lat="43.41758" lon="3.44803">
        <ele>61.009715</ele>
        <time>2023-12-30T13:56:42.000Z</time>
      </trkpt>
      <trkpt lat="43.41759" lon="3.448">
        <ele>61.038603</ele>
        <time>2023-12-30T13:56:43.000Z</time>
      </trkpt>
      <trkpt lat="43.41759" lon="3.44796">
        <ele>61.069932</ele>
        <time>2023-12-30T13:56:44.000Z</time>
      </trkpt>
      <trkpt lat="43.41758" lon="3.44792">
        <ele>61.100776</ele>
        <time>2023-12-30T13:56:45.000Z</time>
      </trkpt>
      <trkpt lat="43.41758" lon="3.44788">
        <ele>61.135161</ele>
        <time>2023-12-30T13:56:46.000Z</time>
      </trkpt>
      <trkpt lat="43.41757" lon="3.44784">
        <ele>61.166975</ele>
        <time>2023-12-30T13:56:47.000Z</time>
      </trkpt>
      <trkpt lat="43.41757" lon="3.4478">
        <ele>61.202937</ele>
        <time>2023-12-30T13:56:48.000Z</time>
      </trkpt>
      <trkpt lat="43.41756" lon="3.44776">
        <ele>61.235542</ele>
        <time>2023-12-30T13:56:49.000Z</time>
      </trkpt>
      <trkpt lat="43.41756" lon="3.44771">
        <ele>61.274083</ele>
        <time>2023-12-30T13:56:50.000Z</time>
      </trkpt>
      <trkpt lat="43.41755" lon="3.44766">
        <ele>61.313128</ele>
        <time>2023-12-30T13:56:51.000Z</time>
      </trkpt>
      <trkpt lat="43.41753" lon="3.44762">
        <ele>61.350883</ele>
        <time>2023-12-30T13:56:52.000Z</time>
      </trkpt>
      <trkpt lat="43.41753" lon="3.44757">
        <ele>61.390444</ele>
        <time>2023-12-30T13:56:53.000Z</time>
      </trkpt>
      <trkpt lat="43.41753" lon="3.44753">
        <ele>61.423398</ele>
        <time>2023-12-30T13:56:54.000Z</time>
      </trkpt>
      <trkpt lat="43.41752" lon="3.44748">
        <ele>61.376591</ele>
        <time>2023-12-30T13:56:55.000Z</time>
      </trkpt>
      <trkpt lat="43.41751" lon="3.44744">
        <ele>61.266703</ele>
        <time>2023-12-30T13:56:56.000Z</time>
      </trkpt>
      <trkpt lat="43.4175" lon="3.4474">
        <ele>61.150877</ele>
        <time>2023-12-30T13:56:57.000Z</time>
      </trkpt>
      <trkpt lat="43.4175" lon="3.44734">
        <ele>61.015506</ele>
        <time>2023-12-30T13:56:58.000Z</time>
      </trkpt>
      <trkpt lat="43.4175" lon="3.44729">
        <ele>60.884663</ele>
        <time>2023-12-30T13:56:59.000Z</time>
      </trkpt>
      <trkpt lat="43.4175" lon="3.44723">
        <ele>60.739091</ele>
        <time>2023-12-30T13:57:00.000Z</time>
      </trkpt>
      <trkpt lat="43.41749" lon="3.44718">
        <ele>60.600101</ele>
        <time>2023-12-30T13:57:01.000Z</time>
      </trkpt>
      <trkpt lat="43.41747" lon="3.44713">
        <ele>60.469224</ele>
        <time>2023-12-30T13:57:02.000Z</time>
      </trkpt>
      <trkpt lat="43.41745" lon="3.44708">
        <ele>60.335154</ele>
        <time>2023-12-30T13:57:03.000Z</time>
      </trkpt>
      <trkpt lat="43.41745" lon="3.44704">
        <ele>60.226013</ele>
        <time>2023-12-30T13:57:04.000Z</time>
      </trkpt>
      <trkpt lat="43.41745" lon="3.44699">
        <ele>60.110982</ele>
        <time>2023-12-30T13:57:05.000Z</time>
      </trkpt>
      <trkpt lat="43.41746" lon="3.44694">
        <ele>59.982397</ele>
        <time>2023-12-30T13:57:06.000Z</time>
      </trkpt>
      <trkpt lat="43.41746" lon="3.44689">
        <ele>59.867917</ele>
        <time>2023-12-30T13:57:07.000Z</time>
      </trkpt>
      <trkpt lat="43.41744" lon="3.44685">
        <ele>59.749003</ele>
        <time>2023-12-30T13:57:08.000Z</time>
      </trkpt>
      <trkpt lat="43.41742" lon="3.44681">
        <ele>59.616887</ele>
        <time>2023-12-30T13:57:09.000Z</time>
      </trkpt>
      <trkpt lat="43.41739" lon="3.44677">
        <ele>59.466015</ele>
        <time>2023-12-30T13:57:10.000Z</time>
      </trkpt>
      <trkpt lat="43.41735" lon="3.44675">
        <ele>59.327266</ele>
        <time>2023-12-30T13:57:11.000Z</time>
      </trkpt>
      <trkpt lat="43.41731" lon="3.44675">
        <ele>59.208438</ele>
        <time>2023-12-30T13:57:12.000Z</time>
      </trkpt>
      <trkpt lat="43.41728" lon="3.44674">
        <ele>59.099321</ele>
        <time>2023-12-30T13:57:13.000Z</time>
      </trkpt>
      <trkpt lat="43.41727" lon="3.44671">
        <ele>59.020937</ele>
        <time>2023-12-30T13:57:14.000Z</time>
      </trkpt>
      <trkpt lat="43.41727" lon="3.44668">
        <ele>58.934526</ele>
        <time>2023-12-30T13:57:15.000Z</time>
      </trkpt>
      <trkpt lat="43.41727" lon="3.44664">
        <ele>58.838812</ele>
        <time>2023-12-30T13:57:16.000Z</time>
      </trkpt>
      <trkpt lat="43.41728" lon="3.4466">
        <ele>58.742773</ele>
        <time>2023-12-30T13:57:17.000Z</time>
      </trkpt>
      <trkpt lat="43.4173" lon="3.44656">
        <ele>58.627579</ele>
        <time>2023-12-30T13:57:18.000Z</time>
      </trkpt>
      <trkpt lat="43.41731" lon="3.44651">
        <ele>58.490145</ele>
        <time>2023-12-30T13:57:19.000Z</time>
      </trkpt>
      <trkpt lat="43.41731" lon="3.44644">
        <ele>58.334493</ele>
        <time>2023-12-30T13:57:20.000Z</time>
      </trkpt>
      <trkpt lat="43.41731" lon="3.44637">
        <ele>58.152357</ele>
        <time>2023-12-30T13:57:21.000Z</time>
      </trkpt>
      <trkpt lat="43.4173" lon="3.44629">
        <ele>57.956034</ele>
        <time>2023-12-30T13:57:22.000Z</time>
      </trkpt>
      <trkpt lat="43.41728" lon="3.44621">
        <ele>57.744267</ele>
        <time>2023-12-30T13:57:23.000Z</time>
      </trkpt>
      <trkpt lat="43.41726" lon="3.44613">
        <ele>57.541778</ele>
        <time>2023-12-30T13:57:24.000Z</time>
      </trkpt>
      <trkpt lat="43.41724" lon="3.44605">
        <ele>57.330094</ele>
        <time>2023-12-30T13:57:25.000Z</time>
      </trkpt>
      <trkpt lat="43.41723" lon="3.44597">
        <ele>57.129036</ele>
        <time>2023-12-30T13:57:26.000Z</time>
      </trkpt>
      <trkpt lat="43.41722" lon="3.4459">
        <ele>56.940479</ele>
        <time>2023-12-30T13:57:27.000Z</time>
      </trkpt>
      <trkpt lat="43.41722" lon="3.44583">
        <ele>56.775259</ele>
        <time>2023-12-30T13:57:28.000Z</time>
      </trkpt>
      <trkpt lat="43.41722" lon="3.44578">
        <ele>56.639612</ele>
        <time>2023-12-30T13:57:29.000Z</time>
      </trkpt>
      <trkpt lat="43.41724" lon="3.44573">
        <ele>56.51317</ele>
        <time>2023-12-30T13:57:30.000Z</time>
      </trkpt>
      <trkpt lat="43.41727" lon="3.44569">
        <ele>56.384082</ele>
        <time>2023-12-30T13:57:31.000Z</time>
      </trkpt>
      <trkpt lat="43.41731" lon="3.44567">
        <ele>56.243975</ele>
        <time>2023-12-30T13:57:32.000Z</time>
      </trkpt>
      <trkpt lat="43.41734" lon="3.44565">
        <ele>56.112561</ele>
        <time>2023-12-30T13:57:33.000Z</time>
      </trkpt>
      <trkpt lat="43.41738" lon="3.44564">
        <ele>55.991912</ele>
        <time>2023-12-30T13:57:34.000Z</time>
      </trkpt>
      <trkpt lat="43.41741" lon="3.44563">
        <ele>55.865359</ele>
        <time>2023-12-30T13:57:35.000Z</time>
      </trkpt>
      <trkpt lat="43.41745" lon="3.44563">
        <ele>55.742162</ele>
        <time>2023-12-30T13:57:36.000Z</time>
      </trkpt>
      <trkpt lat="43.41749" lon="3.44563">
        <ele>55.609988</ele>
        <time>2023-12-30T13:57:37.000Z</time>
      </trkpt>
      <trkpt lat="43.41753" lon="3.44564">
        <ele>55.482537</ele>
        <time>2023-12-30T13:57:38.000Z</time>
      </trkpt>
      <trkpt lat="43.41756" lon="3.44567">
        <ele>55.361088</ele>
        <time>2023-12-30T13:57:39.000Z</time>
      </trkpt>
      <trkpt lat="43.41758" lon="3.4457">
        <ele>55.237086</ele>
        <time>2023-12-30T13:57:40.000Z</time>
      </trkpt>
      <trkpt lat="43.4176" lon="3.44575">
        <ele>55.099823</ele>
        <time>2023-12-30T13:57:41.000Z</time>
      </trkpt>
      <trkpt lat="43.41762" lon="3.44581">
        <ele>54.918956</ele>
        <time>2023-12-30T13:57:42.000Z</time>
      </trkpt>
      <trkpt lat="43.41766" lon="3.44587">
        <ele>54.703653</ele>
        <time>2023-12-30T13:57:43.000Z</time>
      </trkpt>
      <trkpt lat="43.4177" lon="3.44593">
        <ele>54.488882</ele>
        <time>2023-12-30T13:57:44.000Z</time>
      </trkpt>
      <trkpt lat="43.41774" lon="3.446">
        <ele>54.258878</ele>
        <time>2023-12-30T13:57:45.000Z</time>
      </trkpt>
      <trkpt lat="43.41778" lon="3.44606">
        <ele>54.040974</ele>
        <time>2023-12-30T13:57:46.000Z</time>
      </trkpt>
      <trkpt lat="43.41783" lon="3.44613">
        <ele>53.810613</ele>
        <time>2023-12-30T13:57:47.000Z</time>
      </trkpt>
      <trkpt lat="43.41787" lon="3.44618">
        <ele>53.596349</ele>
        <time>2023-12-30T13:57:48.000Z</time>
      </trkpt>
      <trkpt lat="43.41792" lon="3.44624">
        <ele>53.371531</ele>
        <time>2023-12-30T13:57:49.000Z</time>
      </trkpt>
      <trkpt lat="43.41797" lon="3.4463">
        <ele>53.145872</ele>
        <time>2023-12-30T13:57:50.000Z</time>
      </trkpt>
      <trkpt lat="43.41801" lon="3.44636">
        <ele>52.907837</ele>
        <time>2023-12-30T13:57:51.000Z</time>
      </trkpt>
      <trkpt lat="43.41806" lon="3.44641">
        <ele>52.691852</ele>
        <time>2023-12-30T13:57:52.000Z</time>
      </trkpt>
      <trkpt lat="43.41811" lon="3.44647">
        <ele>52.462607</ele>
        <time>2023-12-30T13:57:53.000Z</time>
      </trkpt>
      <trkpt lat="43.41815" lon="3.44654">
        <ele>52.2285</ele>
        <time>2023-12-30T13:57:54.000Z</time>
      </trkpt>
      <trkpt lat="43.41819" lon="3.44661">
        <ele>51.995405</ele>
        <time>2023-12-30T13:57:55.000Z</time>
      </trkpt>
      <trkpt lat="43.41824" lon="3.44668">
        <ele>51.746081</ele>
        <time>2023-12-30T13:57:56.000Z</time>
      </trkpt>
      <trkpt lat="43.41828" lon="3.44676">
        <ele>51.476077</ele>
        <time>2023-12-30T13:57:57.000Z</time>
      </trkpt>
      <trkpt lat="43.41832" lon="3.44685">
        <ele>51.218355</ele>
        <time>2023-12-30T13:57:58.000Z</time>
      </trkpt>
      <trkpt lat="43.41835" lon="3.44694">
        <ele>50.968258</ele>
        <time>2023-12-30T13:57:59.000Z</time>
      </trkpt>
      <trkpt lat="43.41837" lon="3.44703">
        <ele>50.707278</ele>
        <time>2023-12-30T13:58:00.000Z</time>
      </trkpt>
      <trkpt lat="43.4184" lon="3.44713">
        <ele>50.442585</ele>
        <time>2023-12-30T13:58:01.000Z</time>
      </trkpt>
      <trkpt lat="43.41841" lon="3.44722">
        <ele>50.181572</ele>
        <time>2023-12-30T13:58:02.000Z</time>
      </trkpt>
      <trkpt lat="43.41844" lon="3.44732">
        <ele>49.926717</ele>
        <time>2023-12-30T13:58:03.000Z</time>
      </trkpt>
      <trkpt lat="43.41841" lon="3.44754">
        <ele>49.137142</ele>
        <time>2023-12-30T13:58:17.000Z</time>
      </trkpt>
      <trkpt lat="43.4184" lon="3.44762">
        <ele>48.916676</ele>
        <time>2023-12-30T13:58:19.000Z</time>
      </trkpt>
      <trkpt lat="43.4184" lon="3.4477">
        <ele>48.841875</ele>
        <time>2023-12-30T13:58:20.000Z</time>
      </trkpt>
      <trkpt lat="43.4184" lon="3.44778">
        <ele>48.783159</ele>
        <time>2023-12-30T13:58:21.000Z</time>
      </trkpt>
      <trkpt lat="43.4184" lon="3.44787">
        <ele>48.717126</ele>
        <time>2023-12-30T13:58:22.000Z</time>
      </trkpt>
      <trkpt lat="43.41838" lon="3.44797">
        <ele>48.641266</ele>
        <time>2023-12-30T13:58:23.000Z</time>
      </trkpt>
      <trkpt lat="43.41836" lon="3.44807">
        <ele>48.569283</ele>
        <time>2023-12-30T13:58:24.000Z</time>
      </trkpt>
      <trkpt lat="43.41835" lon="3.44817">
        <ele>48.497957</ele>
        <time>2023-12-30T13:58:25.000Z</time>
      </trkpt>
      <trkpt lat="43.41834" lon="3.44826">
        <ele>48.427507</ele>
        <time>2023-12-30T13:58:26.000Z</time>
      </trkpt>
      <trkpt lat="43.41831" lon="3.44836">
        <ele>48.352459</ele>
        <time>2023-12-30T13:58:27.000Z</time>
      </trkpt>
      <trkpt lat="43.4183" lon="3.44846">
        <ele>48.28129</ele>
        <time>2023-12-30T13:58:28.000Z</time>
      </trkpt>
      <trkpt lat="43.41827" lon="3.44855">
        <ele>48.211768</ele>
        <time>2023-12-30T13:58:29.000Z</time>
      </trkpt>
      <trkpt lat="43.41825" lon="3.44864">
        <ele>48.142932</ele>
        <time>2023-12-30T13:58:30.000Z</time>
      </trkpt>
      <trkpt lat="43.41823" lon="3.44873">
        <ele>48.069961</ele>
        <time>2023-12-30T13:58:31.000Z</time>
      </trkpt>
      <trkpt lat="43.41821" lon="3.44883">
        <ele>47.994616</ele>
        <time>2023-12-30T13:58:32.000Z</time>
      </trkpt>
      <trkpt lat="43.41819" lon="3.44892">
        <ele>47.928159</ele>
        <time>2023-12-30T13:58:33.000Z</time>
      </trkpt>
      <trkpt lat="43.41817" lon="3.44901">
        <ele>47.855482</ele>
        <time>2023-12-30T13:58:34.000Z</time>
      </trkpt>
      <trkpt lat="43.41814" lon="3.44911">
        <ele>47.782918</ele>
        <time>2023-12-30T13:58:35.000Z</time>
      </trkpt>
      <trkpt lat="43.41813" lon="3.44921">
        <ele>47.711229</ele>
        <time>2023-12-30T13:58:36.000Z</time>
      </trkpt>
      <trkpt lat="43.41812" lon="3.4493">
        <ele>47.645867</ele>
        <time>2023-12-30T13:58:37.000Z</time>
      </trkpt>
      <trkpt lat="43.41812" lon="3.44939">
        <ele>47.57772</ele>
        <time>2023-12-30T13:58:38.000Z</time>
      </trkpt>
      <trkpt lat="43.41812" lon="3.44948">
        <ele>47.512472</ele>
        <time>2023-12-30T13:58:39.000Z</time>
      </trkpt>
      <trkpt lat="43.41813" lon="3.44956">
        <ele>47.452298</ele>
        <time>2023-12-30T13:58:40.000Z</time>
      </trkpt>
      <trkpt lat="43.41813" lon="3.44963">
        <ele>47.400744</ele>
        <time>2023-12-30T13:58:41.000Z</time>
      </trkpt>
      <trkpt lat="43.41814" lon="3.44971">
        <ele>47.347228</ele>
        <time>2023-12-30T13:58:42.000Z</time>
      </trkpt>
      <trkpt lat="43.41815" lon="3.44977">
        <ele>47.29669</ele>
        <time>2023-12-30T13:58:43.000Z</time>
      </trkpt>
      <trkpt lat="43.41818" lon="3.44984">
        <ele>47.244165</ele>
        <time>2023-12-30T13:58:44.000Z</time>
      </trkpt>
      <trkpt lat="43.41819" lon="3.44991">
        <ele>47.190278</ele>
        <time>2023-12-30T13:58:45.000Z</time>
      </trkpt>
      <trkpt lat="43.41819" lon="3.44997">
        <ele>47.142176</ele>
        <time>2023-12-30T13:58:46.000Z</time>
      </trkpt>
      <trkpt lat="43.41819" lon="3.45003">
        <ele>47.097856</ele>
        <time>2023-12-30T13:58:47.000Z</time>
      </trkpt>
      <trkpt lat="43.4182" lon="3.45009">
        <ele>47.190952</ele>
        <time>2023-12-30T13:58:48.000Z</time>
      </trkpt>
      <trkpt lat="43.41821" lon="3.45016">
        <ele>47.307053</ele>
        <time>2023-12-30T13:58:49.000Z</time>
      </trkpt>
      <trkpt lat="43.41821" lon="3.45022">
        <ele>47.425687</ele>
        <time>2023-12-30T13:58:50.000Z</time>
      </trkpt>
      <trkpt lat="43.41822" lon="3.45029">
        <ele>47.543164</ele>
        <time>2023-12-30T13:58:51.000Z</time>
      </trkpt>
      <trkpt lat="43.41823" lon="3.45036">
        <ele>47.670009</ele>
        <time>2023-12-30T13:58:52.000Z</time>
      </trkpt>
      <trkpt lat="43.41824" lon="3.45043">
        <ele>47.798773</ele>
        <time>2023-12-30T13:58:53.000Z</time>
      </trkpt>
      <trkpt lat="43.41826" lon="3.4505">
        <ele>47.932583</ele>
        <time>2023-12-30T13:58:54.000Z</time>
      </trkpt>
      <trkpt lat="43.41827" lon="3.45056">
        <ele>48.04967</ele>
        <time>2023-12-30T13:58:55.000Z</time>
      </trkpt>
      <trkpt lat="43.41828" lon="3.45063">
        <ele>48.177111</ele>
        <time>2023-12-30T13:58:56.000Z</time>
      </trkpt>
      <trkpt lat="43.4183" lon="3.45069">
        <ele>48.293186</ele>
        <time>2023-12-30T13:58:57.000Z</time>
      </trkpt>
      <trkpt lat="43.41831" lon="3.45076">
        <ele>48.417552</ele>
        <time>2023-12-30T13:58:58.000Z</time>
      </trkpt>
      <trkpt lat="43.41834" lon="3.45082">
        <ele>48.540915</ele>
        <time>2023-12-30T13:58:59.000Z</time>
      </trkpt>
      <trkpt lat="43.41836" lon="3.45089">
        <ele>48.665473</ele>
        <time>2023-12-30T13:59:00.000Z</time>
      </trkpt>
      <trkpt lat="43.41837" lon="3.45095">
        <ele>48.780762</ele>
        <time>2023-12-30T13:59:01.000Z</time>
      </trkpt>
      <trkpt lat="43.41838" lon="3.45101">
        <ele>48.897305</ele>
        <time>2023-12-30T13:59:02.000Z</time>
      </trkpt>
      <trkpt lat="43.41838" lon="3.45107">
        <ele>49.007713</ele>
        <time>2023-12-30T13:59:03.000Z</time>
      </trkpt>
      <trkpt lat="43.41839" lon="3.45114">
        <ele>49.120292</ele>
        <time>2023-12-30T13:59:04.000Z</time>
      </trkpt>
      <trkpt lat="43.4184" lon="3.4512">
        <ele>49.233327</ele>
        <time>2023-12-30T13:59:05.000Z</time>
      </trkpt>
      <trkpt lat="43.41842" lon="3.45125">
        <ele>49.332645</ele>
        <time>2023-12-30T13:59:06.000Z</time>
      </trkpt>
      <trkpt lat="43.41843" lon="3.4513">
        <ele>49.429472</ele>
        <time>2023-12-30T13:59:07.000Z</time>
      </trkpt>
      <trkpt lat="43.41843" lon="3.45137">
        <ele>49.545705</ele>
        <time>2023-12-30T13:59:08.000Z</time>
      </trkpt>
      <trkpt lat="43.41842" lon="3.45143">
        <ele>49.659807</ele>
        <time>2023-12-30T13:59:09.000Z</time>
      </trkpt>
      <trkpt lat="43.4184" lon="3.45149">
        <ele>49.774074</ele>
        <time>2023-12-30T13:59:10.000Z</time>
      </trkpt>
      <trkpt lat="43.41839" lon="3.45154">
        <ele>49.869876</ele>
        <time>2023-12-30T13:59:11.000Z</time>
      </trkpt>
      <trkpt lat="43.41837" lon="3.45158">
        <ele>49.955577</ele>
        <time>2023-12-30T13:59:12.000Z</time>
      </trkpt>
      <trkpt lat="43.41836" lon="3.45163">
        <ele>50.046571</ele>
        <time>2023-12-30T13:59:13.000Z</time>
      </trkpt>
      <trkpt lat="43.41836" lon="3.45168">
        <ele>50.133263</ele>
        <time>2023-12-30T13:59:14.000Z</time>
      </trkpt>
      <trkpt lat="43.41836" lon="3.45172">
        <ele>50.211925</ele>
        <time>2023-12-30T13:59:15.000Z</time>
      </trkpt>
      <trkpt lat="43.41837" lon="3.45176">
        <ele>50.287223</ele>
        <time>2023-12-30T13:59:16.000Z</time>
      </trkpt>
      <trkpt lat="43.41838" lon="3.4518">
        <ele>50.362851</ele>
        <time>2023-12-30T13:59:17.000Z</time>
      </trkpt>
      <trkpt lat="43.41839" lon="3.45184">
        <ele>50.430917</ele>
        <time>2023-12-30T13:59:18.000Z</time>
      </trkpt>
      <trkpt lat="43.41839" lon="3.45188">
        <ele>50.50044</ele>
        <time>2023-12-30T13:59:19.000Z</time>
      </trkpt>
      <trkpt lat="43.41839" lon="3.45192">
        <ele>50.575889</ele>
        <time>2023-12-30T13:59:20.000Z</time>
      </trkpt>
      <trkpt lat="43.41839" lon="3.45197">
        <ele>50.665414</ele>
        <time>2023-12-30T13:59:21.000Z</time>
      </trkpt>
      <trkpt lat="43.41838" lon="3.45202">
        <ele>50.757105</ele>
        <time>2023-12-30T13:59:22.000Z</time>
      </trkpt>
      <trkpt lat="43.41836" lon="3.45206">
        <ele>50.844629</ele>
        <time>2023-12-30T13:59:23.000Z</time>
      </trkpt>
      <trkpt lat="43.41836" lon="3.45211">
        <ele>50.93076</ele>
        <time>2023-12-30T13:59:24.000Z</time>
      </trkpt>
      <trkpt lat="43.41837" lon="3.45215">
        <ele>50.998939</ele>
        <time>2023-12-30T13:59:25.000Z</time>
      </trkpt>
      <trkpt lat="43.41839" lon="3.45217">
        <ele>51.060849</ele>
        <time>2023-12-30T13:59:26.000Z</time>
      </trkpt>
      <trkpt lat="43.41841" lon="3.45219">
        <ele>51.12615</ele>
        <time>2023-12-30T13:59:27.000Z</time>
      </trkpt>
      <trkpt lat="43.41843" lon="3.45222">
        <ele>51.195094</ele>
        <time>2023-12-30T13:59:28.000Z</time>
      </trkpt>
      <trkpt lat="43.41845" lon="3.45225">
        <ele>51.263417</ele>
        <time>2023-12-30T13:59:29.000Z</time>
      </trkpt>
      <trkpt lat="43.41845" lon="3.45229">
        <ele>51.336975</ele>
        <time>2023-12-30T13:59:30.000Z</time>
      </trkpt>
      <trkpt lat="43.41846" lon="3.45234">
        <ele>51.421897</ele>
        <time>2023-12-30T13:59:31.000Z</time>
      </trkpt>
      <trkpt lat="43.41846" lon="3.45238">
        <ele>51.495362</ele>
        <time>2023-12-30T13:59:32.000Z</time>
      </trkpt>
      <trkpt lat="43.41845" lon="3.45242">
        <ele>51.457797</ele>
        <time>2023-12-30T13:59:33.000Z</time>
      </trkpt>
      <trkpt lat="43.41844" lon="3.45244">
        <ele>51.37868</ele>
        <time>2023-12-30T13:59:34.000Z</time>
      </trkpt>
      <trkpt lat="43.41844" lon="3.45248">
        <ele>51.291719</ele>
        <time>2023-12-30T13:59:35.000Z</time>
      </trkpt>
      <trkpt lat="43.41843" lon="3.45251">
        <ele>51.200625</ele>
        <time>2023-12-30T13:59:36.000Z</time>
      </trkpt>
      <trkpt lat="43.41844" lon="3.45256">
        <ele>51.096677</ele>
        <time>2023-12-30T13:59:37.000Z</time>
      </trkpt>
      <trkpt lat="43.41844" lon="3.45259">
        <ele>51.001246</ele>
        <time>2023-12-30T13:59:38.000Z</time>
      </trkpt>
      <trkpt lat="43.41844" lon="3.45263">
        <ele>50.920545</ele>
        <time>2023-12-30T13:59:39.000Z</time>
      </trkpt>
      <trkpt lat="43.41843" lon="3.45266">
        <ele>50.825518</ele>
        <time>2023-12-30T13:59:40.000Z</time>
      </trkpt>
      <trkpt lat="43.41842" lon="3.4527">
        <ele>50.731295</ele>
        <time>2023-12-30T13:59:41.000Z</time>
      </trkpt>
      <trkpt lat="43.41842" lon="3.45274">
        <ele>50.633823</ele>
        <time>2023-12-30T13:59:42.000Z</time>
      </trkpt>
      <trkpt lat="43.41842" lon="3.45277">
        <ele>50.559184</ele>
        <time>2023-12-30T13:59:43.000Z</time>
      </trkpt>
      <trkpt lat="43.41842" lon="3.45279">
        <ele>50.501612</ele>
        <time>2023-12-30T13:59:44.000Z</time>
      </trkpt>
      <trkpt lat="43.41842" lon="3.45282">
        <ele>50.434419</ele>
        <time>2023-12-30T13:59:45.000Z</time>
      </trkpt>
      <trkpt lat="43.41842" lon="3.45283">
        <ele>50.409331</ele>
        <time>2023-12-30T13:59:46.000Z</time>
      </trkpt>
      <trkpt lat="43.41842" lon="3.45282">
        <ele>50.398817</ele>
        <time>2023-12-30T13:59:47.000Z</time>
      </trkpt>
      <trkpt lat="43.41842" lon="3.45283">
        <ele>50.388303</ele>
        <time>2023-12-30T13:59:48.000Z</time>
      </trkpt>
      <trkpt lat="43.41842" lon="3.45286">
        <ele>50.321198</ele>
        <time>2023-12-30T13:59:49.000Z</time>
      </trkpt>
      <trkpt lat="43.41841" lon="3.45289">
        <ele>50.224027</ele>
        <time>2023-12-30T13:59:50.000Z</time>
      </trkpt>
      <trkpt lat="43.41841" lon="3.45294">
        <ele>50.109649</ele>
        <time>2023-12-30T13:59:51.000Z</time>
      </trkpt>
      <trkpt lat="43.41841" lon="3.45298">
        <ele>50.012659</ele>
        <time>2023-12-30T13:59:52.000Z</time>
      </trkpt>
      <trkpt lat="43.41844" lon="3.45301">
        <ele>49.905474</ele>
        <time>2023-12-30T13:59:53.000Z</time>
      </trkpt>
      <trkpt lat="43.41846" lon="3.45305">
        <ele>49.774322</ele>
        <time>2023-12-30T13:59:54.000Z</time>
      </trkpt>
      <trkpt lat="43.41848" lon="3.4531">
        <ele>49.637566</ele>
        <time>2023-12-30T13:59:55.000Z</time>
      </trkpt>
      <trkpt lat="43.41849" lon="3.45315">
        <ele>49.506126</ele>
        <time>2023-12-30T13:59:56.000Z</time>
      </trkpt>
      <trkpt lat="43.41849" lon="3.4532">
        <ele>49.374223</ele>
        <time>2023-12-30T13:59:57.000Z</time>
      </trkpt>
      <trkpt lat="43.41847" lon="3.45324">
        <ele>49.250875</ele>
        <time>2023-12-30T13:59:58.000Z</time>
      </trkpt>
      <trkpt lat="43.41846" lon="3.45329">
        <ele>49.123553</ele>
        <time>2023-12-30T13:59:59.000Z</time>
      </trkpt>
      <trkpt lat="43.41844" lon="3.45334">
        <ele>48.998558</ele>
        <time>2023-12-30T14:00:00.000Z</time>
      </trkpt>
      <trkpt lat="43.41843" lon="3.45339">
        <ele>48.861561</ele>
        <time>2023-12-30T14:00:01.000Z</time>
      </trkpt>
      <trkpt lat="43.41843" lon="3.45345">
        <ele>48.714287</ele>
        <time>2023-12-30T14:00:02.000Z</time>
      </trkpt>
      <trkpt lat="43.41842" lon="3.45351">
        <ele>48.562673</ele>
        <time>2023-12-30T14:00:03.000Z</time>
      </trkpt>
      <trkpt lat="43.4184" lon="3.45356">
        <ele>48.421747</ele>
        <time>2023-12-30T14:00:04.000Z</time>
      </trkpt>
      <trkpt lat="43.41838" lon="3.45361">
        <ele>48.278829</ele>
        <time>2023-12-30T14:00:05.000Z</time>
      </trkpt>
      <trkpt lat="43.41837" lon="3.45365">
        <ele>48.169995</ele>
        <time>2023-12-30T14:00:06.000Z</time>
      </trkpt>
      <trkpt lat="43.41838" lon="3.4537">
        <ele>48.048518</ele>
        <time>2023-12-30T14:00:07.000Z</time>
      </trkpt>
      <trkpt lat="43.41839" lon="3.45375">
        <ele>47.926119</ele>
        <time>2023-12-30T14:00:08.000Z</time>
      </trkpt>
      <trkpt lat="43.41838" lon="3.4538">
        <ele>47.792937</ele>
        <time>2023-12-30T14:00:09.000Z</time>
      </trkpt>
      <trkpt lat="43.41835" lon="3.45384">
        <ele>47.651963</ele>
        <time>2023-12-30T14:00:10.000Z</time>
      </trkpt>
      <trkpt lat="43.41833" lon="3.45388">
        <ele>47.532464</ele>
        <time>2023-12-30T14:00:11.000Z</time>
      </trkpt>
      <trkpt lat="43.41833" lon="3.45393">
        <ele>47.399606</ele>
        <time>2023-12-30T14:00:12.000Z</time>
      </trkpt>
      <trkpt lat="43.41832" lon="3.45399">
        <ele>47.250436</ele>
        <time>2023-12-30T14:00:13.000Z</time>
      </trkpt>
      <trkpt lat="43.41831" lon="3.45406">
        <ele>47.091482</ele>
        <time>2023-12-30T14:00:14.000Z</time>
      </trkpt>
      <trkpt lat="43.4183" lon="3.45412">
        <ele>46.941646</ele>
        <time>2023-12-30T14:00:15.000Z</time>
      </trkpt>
      <trkpt lat="43.41829" lon="3.45416">
        <ele>46.820842</ele>
        <time>2023-12-30T14:00:16.000Z</time>
      </trkpt>
      <trkpt lat="43.41829" lon="3.45422">
        <ele>46.679175</ele>
        <time>2023-12-30T14:00:17.000Z</time>
      </trkpt>
      <trkpt lat="43.41829" lon="3.45428">
        <ele>46.529074</ele>
        <time>2023-12-30T14:00:18.000Z</time>
      </trkpt>
      <trkpt lat="43.41827" lon="3.45435">
        <ele>46.357566</ele>
        <time>2023-12-30T14:00:19.000Z</time>
      </trkpt>
      <trkpt lat="43.41826" lon="3.45441">
        <ele>46.194036</ele>
        <time>2023-12-30T14:00:20.000Z</time>
      </trkpt>
      <trkpt lat="43.41824" lon="3.45447">
        <ele>46.033632</ele>
        <time>2023-12-30T14:00:21.000Z</time>
      </trkpt>
      <trkpt lat="43.41822" lon="3.45452">
        <ele>45.881755</ele>
        <time>2023-12-30T14:00:22.000Z</time>
      </trkpt>
      <trkpt lat="43.4182" lon="3.45458">
        <ele>45.732627</ele>
        <time>2023-12-30T14:00:23.000Z</time>
      </trkpt>
      <trkpt lat="43.4182" lon="3.45464">
        <ele>45.586498</ele>
        <time>2023-12-30T14:00:24.000Z</time>
      </trkpt>
      <trkpt lat="43.41819" lon="3.45469">
        <ele>45.446269</ele>
        <time>2023-12-30T14:00:25.000Z</time>
      </trkpt>
      <trkpt lat="43.41817" lon="3.45474">
        <ele>45.273281</ele>
        <time>2023-12-30T14:00:26.000Z</time>
      </trkpt>
      <trkpt lat="43.41816" lon="3.45479">
        <ele>45.050139</ele>
        <time>2023-12-30T14:00:27.000Z</time>
      </trkpt>
      <trkpt lat="43.41816" lon="3.45483">
        <ele>44.868025</ele>
        <time>2023-12-30T14:00:28.000Z</time>
      </trkpt>
      <trkpt lat="43.41815" lon="3.45487">
        <ele>44.69713</ele>
        <time>2023-12-30T14:00:29.000Z</time>
      </trkpt>
      <trkpt lat="43.41815" lon="3.4549">
        <ele>44.544632</ele>
        <time>2023-12-30T14:00:30.000Z</time>
      </trkpt>
      <trkpt lat="43.41815" lon="3.45495">
        <ele>44.336735</ele>
        <time>2023-12-30T14:00:31.000Z</time>
      </trkpt>
      <trkpt lat="43.41814" lon="3.45501">
        <ele>44.078762</ele>
        <time>2023-12-30T14:00:32.000Z</time>
      </trkpt>
      <trkpt lat="43.41813" lon="3.45507">
        <ele>43.826812</ele>
        <time>2023-12-30T14:00:33.000Z</time>
      </trkpt>
      <trkpt lat="43.41811" lon="3.45512">
        <ele>43.567136</ele>
        <time>2023-12-30T14:00:34.000Z</time>
      </trkpt>
      <trkpt lat="43.41809" lon="3.45518">
        <ele>43.28748</ele>
        <time>2023-12-30T14:00:35.000Z</time>
      </trkpt>
      <trkpt lat="43.41807" lon="3.45523">
        <ele>43.007911</ele>
        <time>2023-12-30T14:00:36.000Z</time>
      </trkpt>
      <trkpt lat="43.41804" lon="3.45528">
        <ele>42.77691</ele>
        <time>2023-12-30T14:00:37.000Z</time>
      </trkpt>
      <trkpt lat="43.41802" lon="3.4553">
        <ele>42.608381</ele>
        <time>2023-12-30T14:00:38.000Z</time>
      </trkpt>
      <trkpt lat="43.41802" lon="3.45532">
        <ele>42.527153</ele>
        <time>2023-12-30T14:00:39.000Z</time>
      </trkpt>
      <trkpt lat="43.41802" lon="3.45532">
        <ele>42.512468</ele>
        <time>2023-12-30T14:00:40.000Z</time>
      </trkpt>
      <trkpt lat="43.41802" lon="3.45533">
        <ele>42.497782</ele>
        <time>2023-12-30T14:00:41.000Z</time>
      </trkpt>
      <trkpt lat="43.41802" lon="3.45533">
        <ele>42.497782</ele>
        <time>2023-12-30T14:00:42.000Z</time>
      </trkpt>
      <trkpt lat="43.41802" lon="3.45533">
        <ele>42.497782</ele>
        <time>2023-12-30T14:00:43.000Z</time>
      </trkpt>
      <trkpt lat="43.41802" lon="3.45533">
        <ele>42.493467</ele>
        <time>2023-12-30T14:00:44.000Z</time>
      </trkpt>
      <trkpt lat="43.41802" lon="3.45533">
        <ele>42.493467</ele>
        <time>2023-12-30T14:00:45.000Z</time>
      </trkpt>
      <trkpt lat="43.41802" lon="3.45533">
        <ele>42.493467</ele>
        <time>2023-12-30T14:00:46.000Z</time>
      </trkpt>
      <trkpt lat="43.41802" lon="3.45533">
        <ele>42.493467</ele>
        <time>2023-12-30T14:00:47.000Z</time>
      </trkpt>
      <trkpt lat="43.41802" lon="3.45532">
        <ele>42.489152</ele>
        <time>2023-12-30T14:00:48.000Z</time>
      </trkpt>
      <trkpt lat="43.41802" lon="3.45532">
        <ele>42.489152</ele>
        <time>2023-12-30T14:00:49.000Z</time>
      </trkpt>
      <trkpt lat="43.41802" lon="3.45532">
        <ele>42.489152</ele>
        <time>2023-12-30T14:00:50.000Z</time>
      </trkpt>
      <trkpt lat="43.41802" lon="3.45532">
        <ele>42.484836</ele>
        <time>2023-12-30T14:00:51.000Z</time>
      </trkpt>
      <trkpt lat="43.41802" lon="3.45533">
        <ele>42.46326</ele>
        <time>2023-12-30T14:00:52.000Z</time>
      </trkpt>
      <trkpt lat="43.41802" lon="3.45536">
        <ele>42.345393</ele>
        <time>2023-12-30T14:00:53.000Z</time>
      </trkpt>
      <trkpt lat="43.41803" lon="3.45537">
        <ele>42.262059</ele>
        <time>2023-12-30T14:00:54.000Z</time>
      </trkpt>
      <trkpt lat="43.41806" lon="3.45538">
        <ele>42.090654</ele>
        <time>2023-12-30T14:00:55.000Z</time>
      </trkpt>
      <trkpt lat="43.41808" lon="3.45539">
        <ele>41.966922</ele>
        <time>2023-12-30T14:00:56.000Z</time>
      </trkpt>
      <trkpt lat="43.4181" lon="3.4554">
        <ele>41.831843</ele>
        <time>2023-12-30T14:00:57.000Z</time>
      </trkpt>
      <trkpt lat="43.41812" lon="3.45542">
        <ele>41.684988</ele>
        <time>2023-12-30T14:00:58.000Z</time>
      </trkpt>
      <trkpt lat="43.41814" lon="3.45546">
        <ele>41.475245</ele>
        <time>2023-12-30T14:00:59.000Z</time>
      </trkpt>
      <trkpt lat="43.41814" lon="3.45551">
        <ele>41.263465</ele>
        <time>2023-12-30T14:01:00.000Z</time>
      </trkpt>
      <trkpt lat="43.41814" lon="3.45556">
        <ele>41.038366</ele>
        <time>2023-12-30T14:01:01.000Z</time>
      </trkpt>
      <trkpt lat="43.41815" lon="3.45562">
        <ele>40.774669</ele>
        <time>2023-12-30T14:01:02.000Z</time>
      </trkpt>
      <trkpt lat="43.41818" lon="3.45568">
        <ele>40.491022</ele>
        <time>2023-12-30T14:01:03.000Z</time>
      </trkpt>
      <trkpt lat="43.41821" lon="3.45575">
        <ele>40.130966</ele>
        <time>2023-12-30T14:01:04.000Z</time>
      </trkpt>
      <trkpt lat="43.41825" lon="3.45582">
        <ele>39.720413</ele>
        <time>2023-12-30T14:01:05.000Z</time>
      </trkpt>
      <trkpt lat="43.4183" lon="3.45588">
        <ele>39.345232</ele>
        <time>2023-12-30T14:01:06.000Z</time>
      </trkpt>
      <trkpt lat="43.41834" lon="3.45595">
        <ele>38.975314</ele>
        <time>2023-12-30T14:01:07.000Z</time>
      </trkpt>
      <trkpt lat="43.41837" lon="3.45602">
        <ele>38.614102</ele>
        <time>2023-12-30T14:01:08.000Z</time>
      </trkpt>
      <trkpt lat="43.41838" lon="3.4561">
        <ele>38.259006</ele>
        <time>2023-12-30T14:01:09.000Z</time>
      </trkpt>
      <trkpt lat="43.4184" lon="3.45618">
        <ele>37.904084</ele>
        <time>2023-12-30T14:01:10.000Z</time>
      </trkpt>
      <trkpt lat="43.41842" lon="3.45626">
        <ele>37.549074</ele>
        <time>2023-12-30T14:01:11.000Z</time>
      </trkpt>
      <trkpt lat="43.41844" lon="3.45633">
        <ele>37.191793</ele>
        <time>2023-12-30T14:01:12.000Z</time>
      </trkpt>
      <trkpt lat="43.41846" lon="3.45641">
        <ele>36.855037</ele>
        <time>2023-12-30T14:01:13.000Z</time>
      </trkpt>
      <trkpt lat="43.41848" lon="3.45647">
        <ele>36.560928</ele>
        <time>2023-12-30T14:01:14.000Z</time>
      </trkpt>
      <trkpt lat="43.41852" lon="3.45649">
        <ele>36.308869</ele>
        <time>2023-12-30T14:01:15.000Z</time>
      </trkpt>
      <trkpt lat="43.41855" lon="3.45648">
        <ele>36.107154</ele>
        <time>2023-12-30T14:01:16.000Z</time>
      </trkpt>
      <trkpt lat="43.41857" lon="3.45649">
        <ele>35.997325</ele>
        <time>2023-12-30T14:01:17.000Z</time>
      </trkpt>
      <trkpt lat="43.41858" lon="3.45652">
        <ele>35.866542</ele>
        <time>2023-12-30T14:01:18.000Z</time>
      </trkpt>
      <trkpt lat="43.41859" lon="3.45655">
        <ele>35.720505</ele>
        <time>2023-12-30T14:01:19.000Z</time>
      </trkpt>
      <trkpt lat="43.41861" lon="3.45657">
        <ele>35.549051</ele>
        <time>2023-12-30T14:01:20.000Z</time>
      </trkpt>
      <trkpt lat="43.41864" lon="3.45658">
        <ele>35.406998</ele>
        <time>2023-12-30T14:01:21.000Z</time>
      </trkpt>
      <trkpt lat="43.41866" lon="3.45659">
        <ele>35.278634</ele>
        <time>2023-12-30T14:01:22.000Z</time>
      </trkpt>
      <trkpt lat="43.41868" lon="3.45661">
        <ele>35.134273</ele>
        <time>2023-12-30T14:01:23.000Z</time>
      </trkpt>
      <trkpt lat="43.4187" lon="3.45663">
        <ele>34.950705</ele>
        <time>2023-12-30T14:01:24.000Z</time>
      </trkpt>
      <trkpt lat="43.41872" lon="3.45666">
        <ele>34.77661</ele>
        <time>2023-12-30T14:01:25.000Z</time>
      </trkpt>
      <trkpt lat="43.41875" lon="3.45667">
        <ele>34.712961</ele>
        <time>2023-12-30T14:01:26.000Z</time>
      </trkpt>
      <trkpt lat="43.41877" lon="3.45667">
        <ele>34.789363</ele>
        <time>2023-12-30T14:01:27.000Z</time>
      </trkpt>
      <trkpt lat="43.41879" lon="3.45668">
        <ele>34.861361</ele>
        <time>2023-12-30T14:01:28.000Z</time>
      </trkpt>
      <trkpt lat="43.41881" lon="3.4567">
        <ele>34.929683</ele>
        <time>2023-12-30T14:01:29.000Z</time>
      </trkpt>
      <trkpt lat="43.41882" lon="3.45672">
        <ele>34.98339</ele>
        <time>2023-12-30T14:01:30.000Z</time>
      </trkpt>
      <trkpt lat="43.41883" lon="3.45673">
        <ele>35.031129</ele>
        <time>2023-12-30T14:01:31.000Z</time>
      </trkpt>
      <trkpt lat="43.41884" lon="3.45674">
        <ele>35.099956</ele>
        <time>2023-12-30T14:01:32.000Z</time>
      </trkpt>
      <trkpt lat="43.41887" lon="3.45674">
        <ele>35.182492</ele>
        <time>2023-12-30T14:01:33.000Z</time>
      </trkpt>
      <trkpt lat="43.4189" lon="3.45674">
        <ele>35.27752</ele>
        <time>2023-12-30T14:01:34.000Z</time>
      </trkpt>
      <trkpt lat="43.41892" lon="3.45676">
        <ele>35.35995</ele>
        <time>2023-12-30T14:01:35.000Z</time>
      </trkpt>
      <trkpt lat="43.41893" lon="3.45679">
        <ele>35.444745</ele>
        <time>2023-12-30T14:01:36.000Z</time>
      </trkpt>
      <trkpt lat="43.41893" lon="3.45681">
        <ele>35.511447</ele>
        <time>2023-12-30T14:01:37.000Z</time>
      </trkpt>
      <trkpt lat="43.41893" lon="3.45685">
        <ele>35.590746</ele>
        <time>2023-12-30T14:01:38.000Z</time>
      </trkpt>
      <trkpt lat="43.41894" lon="3.45687">
        <ele>35.64576</ele>
        <time>2023-12-30T14:01:39.000Z</time>
      </trkpt>
      <trkpt lat="43.41894" lon="3.45689">
        <ele>35.697372</ele>
        <time>2023-12-30T14:01:40.000Z</time>
      </trkpt>
      <trkpt lat="43.41893" lon="3.45691">
        <ele>35.764513</ele>
        <time>2023-12-30T14:01:41.000Z</time>
      </trkpt>
      <trkpt lat="43.41892" lon="3.45693">
        <ele>35.808767</ele>
        <time>2023-12-30T14:01:42.000Z</time>
      </trkpt>
      <trkpt lat="43.41892" lon="3.45694">
        <ele>35.824992</ele>
        <time>2023-12-30T14:01:43.000Z</time>
      </trkpt>
      <trkpt lat="43.41892" lon="3.45694">
        <ele>35.824992</ele>
        <time>2023-12-30T14:01:44.000Z</time>
      </trkpt>
      <trkpt lat="43.41892" lon="3.45694">
        <ele>35.824992</ele>
        <time>2023-12-30T14:01:45.000Z</time>
      </trkpt>
      <trkpt lat="43.41892" lon="3.45694">
        <ele>35.824992</ele>
        <time>2023-12-30T14:01:46.000Z</time>
      </trkpt>
      <trkpt lat="43.41892" lon="3.45694">
        <ele>35.824992</ele>
        <time>2023-12-30T14:01:47.000Z</time>
      </trkpt>
      <trkpt lat="43.41892" lon="3.45694">
        <ele>35.824992</ele>
        <time>2023-12-30T14:01:48.000Z</time>
      </trkpt>
      <trkpt lat="43.41892" lon="3.45694">
        <ele>35.824992</ele>
        <time>2023-12-30T14:01:49.000Z</time>
      </trkpt>
      <trkpt lat="43.41892" lon="3.45694">
        <ele>35.824992</ele>
        <time>2023-12-30T14:01:50.000Z</time>
      </trkpt>
      <trkpt lat="43.41892" lon="3.45694">
        <ele>35.824992</ele>
        <time>2023-12-30T14:01:51.000Z</time>
      </trkpt>
      <trkpt lat="43.41892" lon="3.45694">
        <ele>35.824992</ele>
        <time>2023-12-30T14:01:52.000Z</time>
      </trkpt>
      <trkpt lat="43.41892" lon="3.45694">
        <ele>35.824992</ele>
        <time>2023-12-30T14:01:53.000Z</time>
      </trkpt>
      <trkpt lat="43.41892" lon="3.45694">
        <ele>35.824992</ele>
        <time>2023-12-30T14:01:54.000Z</time>
      </trkpt>
      <trkpt lat="43.41892" lon="3.45694">
        <ele>35.824992</ele>
        <time>2023-12-30T14:01:55.000Z</time>
      </trkpt>
      <trkpt lat="43.41892" lon="3.45694">
        <ele>35.824992</ele>
        <time>2023-12-30T14:01:56.000Z</time>
      </trkpt>
      <trkpt lat="43.41892" lon="3.45694">
        <ele>35.824992</ele>
        <time>2023-12-30T14:01:57.000Z</time>
      </trkpt>
      <trkpt lat="43.41892" lon="3.45694">
        <ele>35.824992</ele>
        <time>2023-12-30T14:01:58.000Z</time>
      </trkpt>
      <trkpt lat="43.41892" lon="3.45694">
        <ele>35.824992</ele>
        <time>2023-12-30T14:01:59.000Z</time>
      </trkpt>
      <trkpt lat="43.41892" lon="3.45694">
        <ele>35.828376</ele>
        <time>2023-12-30T14:02:00.000Z</time>
      </trkpt>
      <trkpt lat="43.41892" lon="3.45694">
        <ele>35.83176</ele>
        <time>2023-12-30T14:02:01.000Z</time>
      </trkpt>
      <trkpt lat="43.41892" lon="3.45694">
        <ele>35.83176</ele>
        <time>2023-12-30T14:02:02.000Z</time>
      </trkpt>
      <trkpt lat="43.41892" lon="3.45694">
        <ele>35.834217</ele>
        <time>2023-12-30T14:02:03.000Z</time>
      </trkpt>
      <trkpt lat="43.41892" lon="3.45694">
        <ele>35.836675</ele>
        <time>2023-12-30T14:02:04.000Z</time>
      </trkpt>
      <trkpt lat="43.41892" lon="3.45694">
        <ele>35.836675</ele>
        <time>2023-12-30T14:02:05.000Z</time>
      </trkpt>
      <trkpt lat="43.41892" lon="3.45694">
        <ele>35.836675</ele>
        <time>2023-12-30T14:02:06.000Z</time>
      </trkpt>
      <trkpt lat="43.41892" lon="3.45694">
        <ele>35.839133</ele>
        <time>2023-12-30T14:02:07.000Z</time>
      </trkpt>
      <trkpt lat="43.41892" lon="3.45694">
        <ele>35.841591</ele>
        <time>2023-12-30T14:02:08.000Z</time>
      </trkpt>
      <trkpt lat="43.41892" lon="3.45694">
        <ele>35.841591</ele>
        <time>2023-12-30T14:02:09.000Z</time>
      </trkpt>
      <trkpt lat="43.41892" lon="3.45694">
        <ele>35.844048</ele>
        <time>2023-12-30T14:02:10.000Z</time>
      </trkpt>
      <trkpt lat="43.41892" lon="3.45694">
        <ele>35.846506</ele>
        <time>2023-12-30T14:02:11.000Z</time>
      </trkpt>
      <trkpt lat="43.41892" lon="3.45694">
        <ele>35.846506</ele>
        <time>2023-12-30T14:02:12.000Z</time>
      </trkpt>
      <trkpt lat="43.41892" lon="3.45694">
        <ele>35.846506</ele>
        <time>2023-12-30T14:02:13.000Z</time>
      </trkpt>
      <trkpt lat="43.41892" lon="3.45694">
        <ele>35.846506</ele>
        <time>2023-12-30T14:02:14.000Z</time>
      </trkpt>
      <trkpt lat="43.41892" lon="3.45694">
        <ele>35.848964</ele>
        <time>2023-12-30T14:02:15.000Z</time>
      </trkpt>
      <trkpt lat="43.41892" lon="3.45694">
        <ele>35.851421</ele>
        <time>2023-12-30T14:02:16.000Z</time>
      </trkpt>
      <trkpt lat="43.41892" lon="3.45694">
        <ele>35.851421</ele>
        <time>2023-12-30T14:02:17.000Z</time>
      </trkpt>
      <trkpt lat="43.41892" lon="3.45694">
        <ele>35.851421</ele>
        <time>2023-12-30T14:02:18.000Z</time>
      </trkpt>
      <trkpt lat="43.41892" lon="3.45694">
        <ele>35.851421</ele>
        <time>2023-12-30T14:02:19.000Z</time>
      </trkpt>
      <trkpt lat="43.41892" lon="3.45694">
        <ele>35.851421</ele>
        <time>2023-12-30T14:02:20.000Z</time>
      </trkpt>
      <trkpt lat="43.41892" lon="3.45694">
        <ele>35.851421</ele>
        <time>2023-12-30T14:02:21.000Z</time>
      </trkpt>
      <trkpt lat="43.41892" lon="3.45694">
        <ele>35.851421</ele>
        <time>2023-12-30T14:02:22.000Z</time>
      </trkpt>
      <trkpt lat="43.41892" lon="3.45694">
        <ele>35.851421</ele>
        <time>2023-12-30T14:02:23.000Z</time>
      </trkpt>
      <trkpt lat="43.41892" lon="3.45694">
        <ele>35.851421</ele>
        <time>2023-12-30T14:02:24.000Z</time>
      </trkpt>
      <trkpt lat="43.41892" lon="3.45694">
        <ele>35.851421</ele>
        <time>2023-12-30T14:02:25.000Z</time>
      </trkpt>
      <trkpt lat="43.41892" lon="3.45694">
        <ele>35.851421</ele>
        <time>2023-12-30T14:02:26.000Z</time>
      </trkpt>
      <trkpt lat="43.41892" lon="3.45694">
        <ele>35.851421</ele>
        <time>2023-12-30T14:02:27.000Z</time>
      </trkpt>
      <trkpt lat="43.41892" lon="3.45694">
        <ele>35.851421</ele>
        <time>2023-12-30T14:02:28.000Z</time>
      </trkpt>
      <trkpt lat="43.41892" lon="3.45694">
        <ele>35.851421</ele>
        <time>2023-12-30T14:02:29.000Z</time>
      </trkpt>
      <trkpt lat="43.41892" lon="3.45694">
        <ele>35.851421</ele>
        <time>2023-12-30T14:02:30.000Z</time>
      </trkpt>
      <trkpt lat="43.41892" lon="3.45694">
        <ele>35.851421</ele>
        <time>2023-12-30T14:02:31.000Z</time>
      </trkpt>
      <trkpt lat="43.41892" lon="3.45694">
        <ele>35.851421</ele>
        <time>2023-12-30T14:02:32.000Z</time>
      </trkpt>
      <trkpt lat="43.41892" lon="3.45694">
        <ele>35.851421</ele>
        <time>2023-12-30T14:02:33.000Z</time>
      </trkpt>
      <trkpt lat="43.41892" lon="3.45694">
        <ele>35.851421</ele>
        <time>2023-12-30T14:02:34.000Z</time>
      </trkpt>
      <trkpt lat="43.41892" lon="3.45694">
        <ele>35.851421</ele>
        <time>2023-12-30T14:02:35.000Z</time>
      </trkpt>
      <trkpt lat="43.41892" lon="3.45694">
        <ele>35.851421</ele>
        <time>2023-12-30T14:02:36.000Z</time>
      </trkpt>
      <trkpt lat="43.41892" lon="3.45694">
        <ele>35.851421</ele>
        <time>2023-12-30T14:02:37.000Z</time>
      </trkpt>
      <trkpt lat="43.41892" lon="3.45694">
        <ele>35.851421</ele>
        <time>2023-12-30T14:02:38.000Z</time>
      </trkpt>
      <trkpt lat="43.41892" lon="3.45694">
        <ele>35.851421</ele>
        <time>2023-12-30T14:02:39.000Z</time>
      </trkpt>
      <trkpt lat="43.41892" lon="3.45694">
        <ele>35.851421</ele>
        <time>2023-12-30T14:02:40.000Z</time>
      </trkpt>
      <trkpt lat="43.41892" lon="3.45693">
        <ele>35.853879</ele>
        <time>2023-12-30T14:02:41.000Z</time>
      </trkpt>
      <trkpt lat="43.41892" lon="3.45693">
        <ele>35.853879</ele>
        <time>2023-12-30T14:02:42.000Z</time>
      </trkpt>
      <trkpt lat="43.41892" lon="3.45693">
        <ele>35.853879</ele>
        <time>2023-12-30T14:02:43.000Z</time>
      </trkpt>
      <trkpt lat="43.41892" lon="3.45694">
        <ele>35.858061</ele>
        <time>2023-12-30T14:02:44.000Z</time>
      </trkpt>
      <trkpt lat="43.41892" lon="3.45694">
        <ele>35.871817</ele>
        <time>2023-12-30T14:02:45.000Z</time>
      </trkpt>
      <trkpt lat="43.41891" lon="3.45694">
        <ele>35.882261</ele>
        <time>2023-12-30T14:02:46.000Z</time>
      </trkpt>
      <trkpt lat="43.41891" lon="3.45694">
        <ele>35.900542</ele>
        <time>2023-12-30T14:02:47.000Z</time>
      </trkpt>
      <trkpt lat="43.41891" lon="3.45694">
        <ele>35.908906</ele>
        <time>2023-12-30T14:02:48.000Z</time>
      </trkpt>
      <trkpt lat="43.41891" lon="3.45694">
        <ele>35.908906</ele>
        <time>2023-12-30T14:02:49.000Z</time>
      </trkpt>
      <trkpt lat="43.41891" lon="3.45694">
        <ele>35.91229</ele>
        <time>2023-12-30T14:02:50.000Z</time>
      </trkpt>
      <trkpt lat="43.41891" lon="3.45694">
        <ele>35.91229</ele>
        <time>2023-12-30T14:02:51.000Z</time>
      </trkpt>
      <trkpt lat="43.41891" lon="3.45694">
        <ele>35.91229</ele>
        <time>2023-12-30T14:02:52.000Z</time>
      </trkpt>
      <trkpt lat="43.41891" lon="3.45694">
        <ele>35.91229</ele>
        <time>2023-12-30T14:02:53.000Z</time>
      </trkpt>
      <trkpt lat="43.41891" lon="3.45694">
        <ele>35.91229</ele>
        <time>2023-12-30T14:02:54.000Z</time>
      </trkpt>
      <trkpt lat="43.41891" lon="3.45694">
        <ele>35.91229</ele>
        <time>2023-12-30T14:02:55.000Z</time>
      </trkpt>
      <trkpt lat="43.41891" lon="3.45694">
        <ele>35.91229</ele>
        <time>2023-12-30T14:02:56.000Z</time>
      </trkpt>
      <trkpt lat="43.41891" lon="3.45694">
        <ele>35.91229</ele>
        <time>2023-12-30T14:02:57.000Z</time>
      </trkpt>
      <trkpt lat="43.41891" lon="3.45694">
        <ele>35.91229</ele>
        <time>2023-12-30T14:02:58.000Z</time>
      </trkpt>
      <trkpt lat="43.41891" lon="3.45694">
        <ele>35.91229</ele>
        <time>2023-12-30T14:02:59.000Z</time>
      </trkpt>
      <trkpt lat="43.41891" lon="3.45694">
        <ele>35.91229</ele>
        <time>2023-12-30T14:03:00.000Z</time>
      </trkpt>
      <trkpt lat="43.41891" lon="3.45694">
        <ele>35.91229</ele>
        <time>2023-12-30T14:03:01.000Z</time>
      </trkpt>
      <trkpt lat="43.41891" lon="3.45694">
        <ele>35.91229</ele>
        <time>2023-12-30T14:03:02.000Z</time>
      </trkpt>
      <trkpt lat="43.41891" lon="3.45694">
        <ele>35.915674</ele>
        <time>2023-12-30T14:03:03.000Z</time>
      </trkpt>
      <trkpt lat="43.41891" lon="3.45694">
        <ele>35.915674</ele>
        <time>2023-12-30T14:03:04.000Z</time>
      </trkpt>
      <trkpt lat="43.41891" lon="3.45694">
        <ele>35.915674</ele>
        <time>2023-12-30T14:03:05.000Z</time>
      </trkpt>
      <trkpt lat="43.41891" lon="3.45694">
        <ele>35.919057</ele>
        <time>2023-12-30T14:03:06.000Z</time>
      </trkpt>
      <trkpt lat="43.41891" lon="3.45694">
        <ele>35.919057</ele>
        <time>2023-12-30T14:03:07.000Z</time>
      </trkpt>
      <trkpt lat="43.41891" lon="3.45694">
        <ele>35.919057</ele>
        <time>2023-12-30T14:03:08.000Z</time>
      </trkpt>
      <trkpt lat="43.41891" lon="3.45694">
        <ele>35.919057</ele>
        <time>2023-12-30T14:03:09.000Z</time>
      </trkpt>
      <trkpt lat="43.41891" lon="3.45694">
        <ele>35.919057</ele>
        <time>2023-12-30T14:03:10.000Z</time>
      </trkpt>
      <trkpt lat="43.41891" lon="3.45694">
        <ele>35.919057</ele>
        <time>2023-12-30T14:03:11.000Z</time>
      </trkpt>
      <trkpt lat="43.41891" lon="3.45694">
        <ele>35.919057</ele>
        <time>2023-12-30T14:03:12.000Z</time>
      </trkpt>
      <trkpt lat="43.41891" lon="3.45694">
        <ele>35.919057</ele>
        <time>2023-12-30T14:03:13.000Z</time>
      </trkpt>
      <trkpt lat="43.41891" lon="3.45694">
        <ele>35.919057</ele>
        <time>2023-12-30T14:03:14.000Z</time>
      </trkpt>
      <trkpt lat="43.41891" lon="3.45694">
        <ele>35.922441</ele>
        <time>2023-12-30T14:03:15.000Z</time>
      </trkpt>
      <trkpt lat="43.41891" lon="3.45694">
        <ele>35.925824</ele>
        <time>2023-12-30T14:03:16.000Z</time>
      </trkpt>
      <trkpt lat="43.41891" lon="3.45694">
        <ele>35.929208</ele>
        <time>2023-12-30T14:03:17.000Z</time>
      </trkpt>
      <trkpt lat="43.41891" lon="3.45694">
        <ele>35.932592</ele>
        <time>2023-12-30T14:03:18.000Z</time>
      </trkpt>
      <trkpt lat="43.41891" lon="3.45694">
        <ele>35.932592</ele>
        <time>2023-12-30T14:03:19.000Z</time>
      </trkpt>
      <trkpt lat="43.41891" lon="3.45694">
        <ele>35.932592</ele>
        <time>2023-12-30T14:03:20.000Z</time>
      </trkpt>
      <trkpt lat="43.41891" lon="3.45694">
        <ele>35.932592</ele>
        <time>2023-12-30T14:03:21.000Z</time>
      </trkpt>
      <trkpt lat="43.41891" lon="3.45694">
        <ele>35.932592</ele>
        <time>2023-12-30T14:03:22.000Z</time>
      </trkpt>
      <trkpt lat="43.41891" lon="3.45694">
        <ele>35.932592</ele>
        <time>2023-12-30T14:03:23.000Z</time>
      </trkpt>
      <trkpt lat="43.41891" lon="3.45694">
        <ele>35.935975</ele>
        <time>2023-12-30T14:03:24.000Z</time>
      </trkpt>
      <trkpt lat="43.41891" lon="3.45694">
        <ele>35.939359</ele>
        <time>2023-12-30T14:03:25.000Z</time>
      </trkpt>
      <trkpt lat="43.41891" lon="3.45694">
        <ele>35.939359</ele>
        <time>2023-12-30T14:03:26.000Z</time>
      </trkpt>
      <trkpt lat="43.41891" lon="3.45694">
        <ele>35.939359</ele>
        <time>2023-12-30T14:03:27.000Z</time>
      </trkpt>
      <trkpt lat="43.41891" lon="3.45694">
        <ele>35.939359</ele>
        <time>2023-12-30T14:03:28.000Z</time>
      </trkpt>
      <trkpt lat="43.41891" lon="3.45694">
        <ele>35.939359</ele>
        <time>2023-12-30T14:03:29.000Z</time>
      </trkpt>
      <trkpt lat="43.41891" lon="3.45694">
        <ele>35.939359</ele>
        <time>2023-12-30T14:03:30.000Z</time>
      </trkpt>
      <trkpt lat="43.41891" lon="3.45694">
        <ele>35.939359</ele>
        <time>2023-12-30T14:03:31.000Z</time>
      </trkpt>
      <trkpt lat="43.41891" lon="3.45694">
        <ele>35.939359</ele>
        <time>2023-12-30T14:03:32.000Z</time>
      </trkpt>
      <trkpt lat="43.41891" lon="3.45694">
        <ele>35.939359</ele>
        <time>2023-12-30T14:03:33.000Z</time>
      </trkpt>
      <trkpt lat="43.41891" lon="3.45694">
        <ele>35.942743</ele>
        <time>2023-12-30T14:03:34.000Z</time>
      </trkpt>
      <trkpt lat="43.41891" lon="3.45694">
        <ele>35.942743</ele>
        <time>2023-12-30T14:03:35.000Z</time>
      </trkpt>
      <trkpt lat="43.41891" lon="3.45694">
        <ele>35.946126</ele>
        <time>2023-12-30T14:03:36.000Z</time>
      </trkpt>
      <trkpt lat="43.41891" lon="3.45694">
        <ele>35.946126</ele>
        <time>2023-12-30T14:03:37.000Z</time>
      </trkpt>
      <trkpt lat="43.41891" lon="3.45694">
        <ele>35.946126</ele>
        <time>2023-12-30T14:03:38.000Z</time>
      </trkpt>
      <trkpt lat="43.41891" lon="3.45694">
        <ele>35.946126</ele>
        <time>2023-12-30T14:03:39.000Z</time>
      </trkpt>
      <trkpt lat="43.41891" lon="3.45694">
        <ele>35.946126</ele>
        <time>2023-12-30T14:03:40.000Z</time>
      </trkpt>
      <trkpt lat="43.41891" lon="3.45694">
        <ele>35.946126</ele>
        <time>2023-12-30T14:03:41.000Z</time>
      </trkpt>
      <trkpt lat="43.41891" lon="3.45694">
        <ele>35.946126</ele>
        <time>2023-12-30T14:03:42.000Z</time>
      </trkpt>
      <trkpt lat="43.41891" lon="3.45694">
        <ele>35.946126</ele>
        <time>2023-12-30T14:03:43.000Z</time>
      </trkpt>
      <trkpt lat="43.41891" lon="3.45694">
        <ele>35.946126</ele>
        <time>2023-12-30T14:03:44.000Z</time>
      </trkpt>
      <trkpt lat="43.41891" lon="3.45694">
        <ele>35.946126</ele>
        <time>2023-12-30T14:03:45.000Z</time>
      </trkpt>
      <trkpt lat="43.41891" lon="3.45694">
        <ele>35.946126</ele>
        <time>2023-12-30T14:03:46.000Z</time>
      </trkpt>
      <trkpt lat="43.41891" lon="3.45694">
        <ele>35.946126</ele>
        <time>2023-12-30T14:03:47.000Z</time>
      </trkpt>
      <trkpt lat="43.41891" lon="3.45694">
        <ele>35.946126</ele>
        <time>2023-12-30T14:03:48.000Z</time>
      </trkpt>
      <trkpt lat="43.41891" lon="3.45694">
        <ele>35.946126</ele>
        <time>2023-12-30T14:03:49.000Z</time>
      </trkpt>
      <trkpt lat="43.41891" lon="3.45694">
        <ele>35.946126</ele>
        <time>2023-12-30T14:03:50.000Z</time>
      </trkpt>
      <trkpt lat="43.41891" lon="3.45694">
        <ele>35.946126</ele>
        <time>2023-12-30T14:03:51.000Z</time>
      </trkpt>
      <trkpt lat="43.41891" lon="3.45694">
        <ele>35.946126</ele>
        <time>2023-12-30T14:03:52.000Z</time>
      </trkpt>
      <trkpt lat="43.41891" lon="3.45694">
        <ele>35.946126</ele>
        <time>2023-12-30T14:03:53.000Z</time>
      </trkpt>
      <trkpt lat="43.41891" lon="3.45694">
        <ele>35.946126</ele>
        <time>2023-12-30T14:03:54.000Z</time>
      </trkpt>
      <trkpt lat="43.41891" lon="3.45694">
        <ele>35.94951</ele>
        <time>2023-12-30T14:03:55.000Z</time>
      </trkpt>
      <trkpt lat="43.41891" lon="3.45694">
        <ele>35.94951</ele>
        <time>2023-12-30T14:03:56.000Z</time>
      </trkpt>
      <trkpt lat="43.41891" lon="3.45694">
        <ele>35.952894</ele>
        <time>2023-12-30T14:03:57.000Z</time>
      </trkpt>
      <trkpt lat="43.41891" lon="3.45694">
        <ele>35.956277</ele>
        <time>2023-12-30T14:03:58.000Z</time>
      </trkpt>
      <trkpt lat="43.41891" lon="3.45694">
        <ele>35.956277</ele>
        <time>2023-12-30T14:03:59.000Z</time>
      </trkpt>
      <trkpt lat="43.41891" lon="3.45694">
        <ele>35.959661</ele>
        <time>2023-12-30T14:04:00.000Z</time>
      </trkpt>
      <trkpt lat="43.41891" lon="3.45694">
        <ele>35.959661</ele>
        <time>2023-12-30T14:04:01.000Z</time>
      </trkpt>
      <trkpt lat="43.41891" lon="3.45694">
        <ele>35.959661</ele>
        <time>2023-12-30T14:04:02.000Z</time>
      </trkpt>
      <trkpt lat="43.41891" lon="3.45694">
        <ele>35.959661</ele>
        <time>2023-12-30T14:04:03.000Z</time>
      </trkpt>
      <trkpt lat="43.41891" lon="3.45694">
        <ele>35.959661</ele>
        <time>2023-12-30T14:04:04.000Z</time>
      </trkpt>
      <trkpt lat="43.41891" lon="3.45694">
        <ele>35.959661</ele>
        <time>2023-12-30T14:04:05.000Z</time>
      </trkpt>
      <trkpt lat="43.41891" lon="3.45694">
        <ele>35.959661</ele>
        <time>2023-12-30T14:04:06.000Z</time>
      </trkpt>
      <trkpt lat="43.41891" lon="3.45694">
        <ele>35.959661</ele>
        <time>2023-12-30T14:04:07.000Z</time>
      </trkpt>
      <trkpt lat="43.41891" lon="3.45694">
        <ele>35.959661</ele>
        <time>2023-12-30T14:04:08.000Z</time>
      </trkpt>
      <trkpt lat="43.41891" lon="3.45694">
        <ele>35.959661</ele>
        <time>2023-12-30T14:04:09.000Z</time>
      </trkpt>
      <trkpt lat="43.41891" lon="3.45694">
        <ele>35.959661</ele>
        <time>2023-12-30T14:04:10.000Z</time>
      </trkpt>
      <trkpt lat="43.41891" lon="3.45694">
        <ele>35.963045</ele>
        <time>2023-12-30T14:04:11.000Z</time>
      </trkpt>
      <trkpt lat="43.41891" lon="3.45694">
        <ele>35.966428</ele>
        <time>2023-12-30T14:04:12.000Z</time>
      </trkpt>
      <trkpt lat="43.41891" lon="3.45694">
        <ele>35.966428</ele>
        <time>2023-12-30T14:04:13.000Z</time>
      </trkpt>
      <trkpt lat="43.41891" lon="3.45694">
        <ele>35.966428</ele>
        <time>2023-12-30T14:04:14.000Z</time>
      </trkpt>
      <trkpt lat="43.41891" lon="3.45694">
        <ele>35.966428</ele>
        <time>2023-12-30T14:04:15.000Z</time>
      </trkpt>
      <trkpt lat="43.41891" lon="3.45694">
        <ele>35.966428</ele>
        <time>2023-12-30T14:04:16.000Z</time>
      </trkpt>
      <trkpt lat="43.41891" lon="3.45694">
        <ele>35.966428</ele>
        <time>2023-12-30T14:04:17.000Z</time>
      </trkpt>
      <trkpt lat="43.41891" lon="3.45694">
        <ele>35.966428</ele>
        <time>2023-12-30T14:04:18.000Z</time>
      </trkpt>
      <trkpt lat="43.41891" lon="3.45694">
        <ele>35.966428</ele>
        <time>2023-12-30T14:04:19.000Z</time>
      </trkpt>
      <trkpt lat="43.41891" lon="3.45694">
        <ele>35.966428</ele>
        <time>2023-12-30T14:04:20.000Z</time>
      </trkpt>
      <trkpt lat="43.41891" lon="3.45694">
        <ele>35.966428</ele>
        <time>2023-12-30T14:04:21.000Z</time>
      </trkpt>
      <trkpt lat="43.41891" lon="3.45694">
        <ele>35.966428</ele>
        <time>2023-12-30T14:04:22.000Z</time>
      </trkpt>
      <trkpt lat="43.41891" lon="3.45694">
        <ele>35.966428</ele>
        <time>2023-12-30T14:04:23.000Z</time>
      </trkpt>
      <trkpt lat="43.41891" lon="3.45694">
        <ele>35.966428</ele>
        <time>2023-12-30T14:04:24.000Z</time>
      </trkpt>
      <trkpt lat="43.41891" lon="3.45694">
        <ele>35.966428</ele>
        <time>2023-12-30T14:04:25.000Z</time>
      </trkpt>
      <trkpt lat="43.41891" lon="3.45694">
        <ele>35.966428</ele>
        <time>2023-12-30T14:04:26.000Z</time>
      </trkpt>
      <trkpt lat="43.41891" lon="3.45694">
        <ele>35.966428</ele>
        <time>2023-12-30T14:04:27.000Z</time>
      </trkpt>
      <trkpt lat="43.41891" lon="3.45694">
        <ele>35.966428</ele>
        <time>2023-12-30T14:04:28.000Z</time>
      </trkpt>
      <trkpt lat="43.41891" lon="3.45694">
        <ele>35.966428</ele>
        <time>2023-12-30T14:04:29.000Z</time>
      </trkpt>
      <trkpt lat="43.41891" lon="3.45694">
        <ele>35.966428</ele>
        <time>2023-12-30T14:04:30.000Z</time>
      </trkpt>
      <trkpt lat="43.41891" lon="3.45694">
        <ele>35.966428</ele>
        <time>2023-12-30T14:04:31.000Z</time>
      </trkpt>
      <trkpt lat="43.41891" lon="3.45694">
        <ele>35.966428</ele>
        <time>2023-12-30T14:04:32.000Z</time>
      </trkpt>
      <trkpt lat="43.41891" lon="3.45694">
        <ele>35.966428</ele>
        <time>2023-12-30T14:04:33.000Z</time>
      </trkpt>
      <trkpt lat="43.41891" lon="3.45694">
        <ele>35.966428</ele>
        <time>2023-12-30T14:04:34.000Z</time>
      </trkpt>
      <trkpt lat="43.41891" lon="3.45694">
        <ele>35.966428</ele>
        <time>2023-12-30T14:04:35.000Z</time>
      </trkpt>
      <trkpt lat="43.41891" lon="3.45694">
        <ele>35.966428</ele>
        <time>2023-12-30T14:04:36.000Z</time>
      </trkpt>
      <trkpt lat="43.41891" lon="3.45694">
        <ele>35.966428</ele>
        <time>2023-12-30T14:04:37.000Z</time>
      </trkpt>
      <trkpt lat="43.41891" lon="3.45694">
        <ele>35.966428</ele>
        <time>2023-12-30T14:04:38.000Z</time>
      </trkpt>
      <trkpt lat="43.41891" lon="3.45694">
        <ele>35.966428</ele>
        <time>2023-12-30T14:04:39.000Z</time>
      </trkpt>
      <trkpt lat="43.41891" lon="3.45694">
        <ele>35.966428</ele>
        <time>2023-12-30T14:04:40.000Z</time>
      </trkpt>
      <trkpt lat="43.41891" lon="3.45694">
        <ele>35.966428</ele>
        <time>2023-12-30T14:04:41.000Z</time>
      </trkpt>
      <trkpt lat="43.41891" lon="3.45694">
        <ele>35.966428</ele>
        <time>2023-12-30T14:04:42.000Z</time>
      </trkpt>
      <trkpt lat="43.41891" lon="3.45694">
        <ele>35.966428</ele>
        <time>2023-12-30T14:04:43.000Z</time>
      </trkpt>
      <trkpt lat="43.41891" lon="3.45694">
        <ele>35.966428</ele>
        <time>2023-12-30T14:04:44.000Z</time>
      </trkpt>
      <trkpt lat="43.41891" lon="3.45694">
        <ele>35.966428</ele>
        <time>2023-12-30T14:04:45.000Z</time>
      </trkpt>
      <trkpt lat="43.41891" lon="3.45694">
        <ele>35.966428</ele>
        <time>2023-12-30T14:04:46.000Z</time>
      </trkpt>
      <trkpt lat="43.41891" lon="3.45694">
        <ele>35.966428</ele>
        <time>2023-12-30T14:04:47.000Z</time>
      </trkpt>
      <trkpt lat="43.41891" lon="3.45694">
        <ele>35.966428</ele>
        <time>2023-12-30T14:04:48.000Z</time>
      </trkpt>
      <trkpt lat="43.41891" lon="3.45694">
        <ele>35.966428</ele>
        <time>2023-12-30T14:04:49.000Z</time>
      </trkpt>
      <trkpt lat="43.41891" lon="3.45694">
        <ele>35.966428</ele>
        <time>2023-12-30T14:04:50.000Z</time>
      </trkpt>
      <trkpt lat="43.41891" lon="3.45694">
        <ele>35.966428</ele>
        <time>2023-12-30T14:04:51.000Z</time>
      </trkpt>
      <trkpt lat="43.41891" lon="3.45694">
        <ele>35.966428</ele>
        <time>2023-12-30T14:04:52.000Z</time>
      </trkpt>
      <trkpt lat="43.41891" lon="3.45694">
        <ele>35.966428</ele>
        <time>2023-12-30T14:04:53.000Z</time>
      </trkpt>
      <trkpt lat="43.41891" lon="3.45694">
        <ele>35.966428</ele>
        <time>2023-12-30T14:04:54.000Z</time>
      </trkpt>
      <trkpt lat="43.41891" lon="3.45694">
        <ele>35.966428</ele>
        <time>2023-12-30T14:04:55.000Z</time>
      </trkpt>
      <trkpt lat="43.41891" lon="3.45694">
        <ele>35.966428</ele>
        <time>2023-12-30T14:04:56.000Z</time>
      </trkpt>
      <trkpt lat="43.41891" lon="3.45694">
        <ele>35.966428</ele>
        <time>2023-12-30T14:04:57.000Z</time>
      </trkpt>
      <trkpt lat="43.41891" lon="3.45694">
        <ele>35.966428</ele>
        <time>2023-12-30T14:04:58.000Z</time>
      </trkpt>
      <trkpt lat="43.41891" lon="3.45694">
        <ele>35.966428</ele>
        <time>2023-12-30T14:04:59.000Z</time>
      </trkpt>
      <trkpt lat="43.41891" lon="3.45694">
        <ele>35.966428</ele>
        <time>2023-12-30T14:05:00.000Z</time>
      </trkpt>
      <trkpt lat="43.41891" lon="3.45694">
        <ele>35.966428</ele>
        <time>2023-12-30T14:05:01.000Z</time>
      </trkpt>
      <trkpt lat="43.41891" lon="3.45694">
        <ele>35.966428</ele>
        <time>2023-12-30T14:05:02.000Z</time>
      </trkpt>
      <trkpt lat="43.41891" lon="3.45694">
        <ele>35.966428</ele>
        <time>2023-12-30T14:05:03.000Z</time>
      </trkpt>
      <trkpt lat="43.41891" lon="3.45694">
        <ele>35.966428</ele>
        <time>2023-12-30T14:05:04.000Z</time>
      </trkpt>
      <trkpt lat="43.41891" lon="3.45694">
        <ele>35.966428</ele>
        <time>2023-12-30T14:05:05.000Z</time>
      </trkpt>
      <trkpt lat="43.41891" lon="3.45694">
        <ele>35.966428</ele>
        <time>2023-12-30T14:05:06.000Z</time>
      </trkpt>
      <trkpt lat="43.41891" lon="3.45694">
        <ele>35.966428</ele>
        <time>2023-12-30T14:05:07.000Z</time>
      </trkpt>
      <trkpt lat="43.41891" lon="3.45694">
        <ele>35.966428</ele>
        <time>2023-12-30T14:05:08.000Z</time>
      </trkpt>
      <trkpt lat="43.41891" lon="3.45694">
        <ele>35.966428</ele>
        <time>2023-12-30T14:05:09.000Z</time>
      </trkpt>
      <trkpt lat="43.41891" lon="3.45694">
        <ele>35.966428</ele>
        <time>2023-12-30T14:05:10.000Z</time>
      </trkpt>
      <trkpt lat="43.41891" lon="3.45694">
        <ele>35.966428</ele>
        <time>2023-12-30T14:05:11.000Z</time>
      </trkpt>
      <trkpt lat="43.41891" lon="3.45694">
        <ele>35.966428</ele>
        <time>2023-12-30T14:05:12.000Z</time>
      </trkpt>
      <trkpt lat="43.41891" lon="3.45694">
        <ele>35.966428</ele>
        <time>2023-12-30T14:05:13.000Z</time>
      </trkpt>
      <trkpt lat="43.41891" lon="3.45694">
        <ele>35.966428</ele>
        <time>2023-12-30T14:05:14.000Z</time>
      </trkpt>
      <trkpt lat="43.41891" lon="3.45694">
        <ele>35.966428</ele>
        <time>2023-12-30T14:05:15.000Z</time>
      </trkpt>
      <trkpt lat="43.41891" lon="3.45694">
        <ele>35.966428</ele>
        <time>2023-12-30T14:05:16.000Z</time>
      </trkpt>
      <trkpt lat="43.41891" lon="3.45694">
        <ele>35.966428</ele>
        <time>2023-12-30T14:05:17.000Z</time>
      </trkpt>
      <trkpt lat="43.41891" lon="3.45694">
        <ele>35.966428</ele>
        <time>2023-12-30T14:05:18.000Z</time>
      </trkpt>
      <trkpt lat="43.41891" lon="3.45694">
        <ele>35.966428</ele>
        <time>2023-12-30T14:05:19.000Z</time>
      </trkpt>
      <trkpt lat="43.41891" lon="3.45694">
        <ele>35.966428</ele>
        <time>2023-12-30T14:05:20.000Z</time>
      </trkpt>
      <trkpt lat="43.41891" lon="3.45694">
        <ele>35.966428</ele>
        <time>2023-12-30T14:05:21.000Z</time>
      </trkpt>
      <trkpt lat="43.41891" lon="3.45694">
        <ele>35.966428</ele>
        <time>2023-12-30T14:05:22.000Z</time>
      </trkpt>
      <trkpt lat="43.41891" lon="3.45694">
        <ele>35.966428</ele>
        <time>2023-12-30T14:05:23.000Z</time>
      </trkpt>
      <trkpt lat="43.41891" lon="3.45694">
        <ele>35.966428</ele>
        <time>2023-12-30T14:05:24.000Z</time>
      </trkpt>
      <trkpt lat="43.41891" lon="3.45694">
        <ele>35.966428</ele>
        <time>2023-12-30T14:05:25.000Z</time>
      </trkpt>
      <trkpt lat="43.41891" lon="3.45694">
        <ele>35.966428</ele>
        <time>2023-12-30T14:05:26.000Z</time>
      </trkpt>
      <trkpt lat="43.41891" lon="3.45694">
        <ele>35.966428</ele>
        <time>2023-12-30T14:05:27.000Z</time>
      </trkpt>
      <trkpt lat="43.41891" lon="3.45694">
        <ele>35.966428</ele>
        <time>2023-12-30T14:05:28.000Z</time>
      </trkpt>
      <trkpt lat="43.41891" lon="3.45694">
        <ele>35.966428</ele>
        <time>2023-12-30T14:05:29.000Z</time>
      </trkpt>
      <trkpt lat="43.41891" lon="3.45694">
        <ele>35.966428</ele>
        <time>2023-12-30T14:05:30.000Z</time>
      </trkpt>
      <trkpt lat="43.41891" lon="3.45694">
        <ele>35.966428</ele>
        <time>2023-12-30T14:05:31.000Z</time>
      </trkpt>
      <trkpt lat="43.41891" lon="3.45694">
        <ele>35.966428</ele>
        <time>2023-12-30T14:05:32.000Z</time>
      </trkpt>
      <trkpt lat="43.41891" lon="3.45694">
        <ele>35.966428</ele>
        <time>2023-12-30T14:05:33.000Z</time>
      </trkpt>
      <trkpt lat="43.41891" lon="3.45694">
        <ele>35.966428</ele>
        <time>2023-12-30T14:05:34.000Z</time>
      </trkpt>
      <trkpt lat="43.41891" lon="3.45694">
        <ele>35.966428</ele>
        <time>2023-12-30T14:05:35.000Z</time>
      </trkpt>
      <trkpt lat="43.41891" lon="3.45694">
        <ele>35.966428</ele>
        <time>2023-12-30T14:05:36.000Z</time>
      </trkpt>
      <trkpt lat="43.41891" lon="3.45694">
        <ele>35.966428</ele>
        <time>2023-12-30T14:05:37.000Z</time>
      </trkpt>
      <trkpt lat="43.41891" lon="3.45694">
        <ele>35.966428</ele>
        <time>2023-12-30T14:05:38.000Z</time>
      </trkpt>
      <trkpt lat="43.41891" lon="3.45694">
        <ele>35.966428</ele>
        <time>2023-12-30T14:05:39.000Z</time>
      </trkpt>
      <trkpt lat="43.41891" lon="3.45694">
        <ele>35.966428</ele>
        <time>2023-12-30T14:05:40.000Z</time>
      </trkpt>
      <trkpt lat="43.41891" lon="3.45694">
        <ele>35.966428</ele>
        <time>2023-12-30T14:05:41.000Z</time>
      </trkpt>
      <trkpt lat="43.41891" lon="3.45694">
        <ele>35.966428</ele>
        <time>2023-12-30T14:05:42.000Z</time>
      </trkpt>
      <trkpt lat="43.41891" lon="3.45694">
        <ele>35.966428</ele>
        <time>2023-12-30T14:05:43.000Z</time>
      </trkpt>
      <trkpt lat="43.41891" lon="3.45694">
        <ele>35.966428</ele>
        <time>2023-12-30T14:05:44.000Z</time>
      </trkpt>
      <trkpt lat="43.41891" lon="3.45694">
        <ele>35.966428</ele>
        <time>2023-12-30T14:05:45.000Z</time>
      </trkpt>
      <trkpt lat="43.41891" lon="3.45694">
        <ele>35.966428</ele>
        <time>2023-12-30T14:05:46.000Z</time>
      </trkpt>
      <trkpt lat="43.41891" lon="3.45694">
        <ele>35.966428</ele>
        <time>2023-12-30T14:05:47.000Z</time>
      </trkpt>
      <trkpt lat="43.41891" lon="3.45694">
        <ele>35.966428</ele>
        <time>2023-12-30T14:05:48.000Z</time>
      </trkpt>
      <trkpt lat="43.41891" lon="3.45694">
        <ele>35.966428</ele>
        <time>2023-12-30T14:05:49.000Z</time>
      </trkpt>
      <trkpt lat="43.41891" lon="3.45694">
        <ele>35.966428</ele>
        <time>2023-12-30T14:05:50.000Z</time>
      </trkpt>
      <trkpt lat="43.41891" lon="3.45694">
        <ele>35.966428</ele>
        <time>2023-12-30T14:05:51.000Z</time>
      </trkpt>
      <trkpt lat="43.41891" lon="3.45694">
        <ele>35.969812</ele>
        <time>2023-12-30T14:05:52.000Z</time>
      </trkpt>
      <trkpt lat="43.41891" lon="3.45694">
        <ele>35.969812</ele>
        <time>2023-12-30T14:05:53.000Z</time>
      </trkpt>
      <trkpt lat="43.41891" lon="3.45694">
        <ele>35.969812</ele>
        <time>2023-12-30T14:05:54.000Z</time>
      </trkpt>
      <trkpt lat="43.41891" lon="3.45694">
        <ele>35.97227</ele>
        <time>2023-12-30T14:05:55.000Z</time>
      </trkpt>
      <trkpt lat="43.41891" lon="3.45694">
        <ele>35.97227</ele>
        <time>2023-12-30T14:05:56.000Z</time>
      </trkpt>
      <trkpt lat="43.41891" lon="3.45694">
        <ele>35.97227</ele>
        <time>2023-12-30T14:05:57.000Z</time>
      </trkpt>
      <trkpt lat="43.41891" lon="3.45694">
        <ele>35.975653</ele>
        <time>2023-12-30T14:05:58.000Z</time>
      </trkpt>
      <trkpt lat="43.41891" lon="3.45694">
        <ele>35.975653</ele>
        <time>2023-12-30T14:05:59.000Z</time>
      </trkpt>
      <trkpt lat="43.41891" lon="3.45694">
        <ele>35.975653</ele>
        <time>2023-12-30T14:06:00.000Z</time>
      </trkpt>
      <trkpt lat="43.41891" lon="3.45694">
        <ele>35.979037</ele>
        <time>2023-12-30T14:06:01.000Z</time>
      </trkpt>
      <trkpt lat="43.41891" lon="3.45694">
        <ele>35.981495</ele>
        <time>2023-12-30T14:06:02.000Z</time>
      </trkpt>
      <trkpt lat="43.41891" lon="3.45694">
        <ele>35.985677</ele>
        <time>2023-12-30T14:06:03.000Z</time>
      </trkpt>
      <trkpt lat="43.41891" lon="3.45694">
        <ele>35.991644</ele>
        <time>2023-12-30T14:06:04.000Z</time>
      </trkpt>
      <trkpt lat="43.41891" lon="3.45694">
        <ele>35.999017</ele>
        <time>2023-12-30T14:06:05.000Z</time>
      </trkpt>
      <trkpt lat="43.41892" lon="3.45696">
        <ele>36.037359</ele>
        <time>2023-12-30T14:06:06.000Z</time>
      </trkpt>
      <trkpt lat="43.41892" lon="3.45699">
        <ele>36.103717</ele>
        <time>2023-12-30T14:06:07.000Z</time>
      </trkpt>
      <trkpt lat="43.41892" lon="3.45701">
        <ele>36.166098</ele>
        <time>2023-12-30T14:06:08.000Z</time>
      </trkpt>
      <trkpt lat="43.41892" lon="3.45704">
        <ele>36.242287</ele>
        <time>2023-12-30T14:06:09.000Z</time>
      </trkpt>
      <trkpt lat="43.41892" lon="3.45708">
        <ele>36.33568</ele>
        <time>2023-12-30T14:06:10.000Z</time>
      </trkpt>
      <trkpt lat="43.41892" lon="3.45712">
        <ele>36.426615</ele>
        <time>2023-12-30T14:06:11.000Z</time>
      </trkpt>
      <trkpt lat="43.41892" lon="3.45715">
        <ele>36.510451</ele>
        <time>2023-12-30T14:06:12.000Z</time>
      </trkpt>
      <trkpt lat="43.41893" lon="3.45718">
        <ele>36.597528</ele>
        <time>2023-12-30T14:06:13.000Z</time>
      </trkpt>
      <trkpt lat="43.41894" lon="3.45722">
        <ele>36.678383</ele>
        <time>2023-12-30T14:06:14.000Z</time>
      </trkpt>
      <trkpt lat="43.41894" lon="3.45725">
        <ele>36.767321</ele>
        <time>2023-12-30T14:06:15.000Z</time>
      </trkpt>
      <trkpt lat="43.41895" lon="3.45728">
        <ele>36.851658</ele>
        <time>2023-12-30T14:06:16.000Z</time>
      </trkpt>
      <trkpt lat="43.41896" lon="3.45731">
        <ele>36.939537</ele>
        <time>2023-12-30T14:06:17.000Z</time>
      </trkpt>
      <trkpt lat="43.41897" lon="3.45735">
        <ele>37.038078</ele>
        <time>2023-12-30T14:06:18.000Z</time>
      </trkpt>
      <trkpt lat="43.41897" lon="3.4574">
        <ele>37.149139</ele>
        <time>2023-12-30T14:06:19.000Z</time>
      </trkpt>
      <trkpt lat="43.41897" lon="3.45744">
        <ele>37.245049</ele>
        <time>2023-12-30T14:06:20.000Z</time>
      </trkpt>
      <trkpt lat="43.41896" lon="3.45747">
        <ele>37.331666</ele>
        <time>2023-12-30T14:06:21.000Z</time>
      </trkpt>
      <trkpt lat="43.41896" lon="3.45751">
        <ele>37.430207</ele>
        <time>2023-12-30T14:06:22.000Z</time>
      </trkpt>
      <trkpt lat="43.41896" lon="3.45756">
        <ele>37.535942</ele>
        <time>2023-12-30T14:06:23.000Z</time>
      </trkpt>
      <trkpt lat="43.41896" lon="3.4576">
        <ele>37.649047</ele>
        <time>2023-12-30T14:06:24.000Z</time>
      </trkpt>
      <trkpt lat="43.41896" lon="3.45765">
        <ele>37.769474</ele>
        <time>2023-12-30T14:06:25.000Z</time>
      </trkpt>
      <trkpt lat="43.41896" lon="3.4577">
        <ele>37.889949</ele>
        <time>2023-12-30T14:06:26.000Z</time>
      </trkpt>
      <trkpt lat="43.41896" lon="3.45775">
        <ele>38.012834</ele>
        <time>2023-12-30T14:06:27.000Z</time>
      </trkpt>
      <trkpt lat="43.41896" lon="3.4578">
        <ele>38.128792</ele>
        <time>2023-12-30T14:06:28.000Z</time>
      </trkpt>
      <trkpt lat="43.41897" lon="3.45784">
        <ele>38.232513</ele>
        <time>2023-12-30T14:06:29.000Z</time>
      </trkpt>
      <trkpt lat="43.41897" lon="3.45788">
        <ele>38.326881</ele>
        <time>2023-12-30T14:06:30.000Z</time>
      </trkpt>
      <trkpt lat="43.41897" lon="3.45791">
        <ele>38.410512</ele>
        <time>2023-12-30T14:06:31.000Z</time>
      </trkpt>
      <trkpt lat="43.41897" lon="3.45795">
        <ele>38.504149</ele>
        <time>2023-12-30T14:06:32.000Z</time>
      </trkpt>
      <trkpt lat="43.41897" lon="3.45798">
        <ele>38.58778</ele>
        <time>2023-12-30T14:06:33.000Z</time>
      </trkpt>
      <trkpt lat="43.41897" lon="3.45802">
        <ele>38.668884</ele>
        <time>2023-12-30T14:06:34.000Z</time>
      </trkpt>
      <trkpt lat="43.41897" lon="3.45805">
        <ele>38.759882</ele>
        <time>2023-12-30T14:06:35.000Z</time>
      </trkpt>
      <trkpt lat="43.41898" lon="3.4581">
        <ele>38.863161</ele>
        <time>2023-12-30T14:06:36.000Z</time>
      </trkpt>
      <trkpt lat="43.41898" lon="3.45813">
        <ele>38.959547</ele>
        <time>2023-12-30T14:06:37.000Z</time>
      </trkpt>
      <trkpt lat="43.41898" lon="3.45818">
        <ele>39.063268</ele>
        <time>2023-12-30T14:06:38.000Z</time>
      </trkpt>
      <trkpt lat="43.41898" lon="3.45822">
        <ele>39.17433</ele>
        <time>2023-12-30T14:06:39.000Z</time>
      </trkpt>
      <trkpt lat="43.41899" lon="3.45826">
        <ele>39.271662</ele>
        <time>2023-12-30T14:06:40.000Z</time>
      </trkpt>
      <trkpt lat="43.419" lon="3.4583">
        <ele>39.369639</ele>
        <time>2023-12-30T14:06:41.000Z</time>
      </trkpt>
      <trkpt lat="43.419" lon="3.45834">
        <ele>39.477252</ele>
        <time>2023-12-30T14:06:42.000Z</time>
      </trkpt>
      <trkpt lat="43.41901" lon="3.45837">
        <ele>39.557025</ele>
        <time>2023-12-30T14:06:43.000Z</time>
      </trkpt>
      <trkpt lat="43.41901" lon="3.4584">
        <ele>39.636323</ele>
        <time>2023-12-30T14:06:44.000Z</time>
      </trkpt>
      <trkpt lat="43.41902" lon="3.45843">
        <ele>39.703453</ele>
        <time>2023-12-30T14:06:45.000Z</time>
      </trkpt>
      <trkpt lat="43.41902" lon="3.45845">
        <ele>39.749716</ele>
        <time>2023-12-30T14:06:46.000Z</time>
      </trkpt>
      <trkpt lat="43.41902" lon="3.45847">
        <ele>39.801769</ele>
        <time>2023-12-30T14:06:47.000Z</time>
      </trkpt>
      <trkpt lat="43.41903" lon="3.45849">
        <ele>39.856083</ele>
        <time>2023-12-30T14:06:48.000Z</time>
      </trkpt>
      <trkpt lat="43.41904" lon="3.45852">
        <ele>39.935696</ele>
        <time>2023-12-30T14:06:49.000Z</time>
      </trkpt>
      <trkpt lat="43.41906" lon="3.45855">
        <ele>40.019239</ele>
        <time>2023-12-30T14:06:50.000Z</time>
      </trkpt>
      <trkpt lat="43.41906" lon="3.45858">
        <ele>40.113607</ele>
        <time>2023-12-30T14:06:51.000Z</time>
      </trkpt>
      <trkpt lat="43.41906" lon="3.45863">
        <ele>40.224411</ele>
        <time>2023-12-30T14:06:52.000Z</time>
      </trkpt>
      <trkpt lat="43.41906" lon="3.45867">
        <ele>40.335472</ele>
        <time>2023-12-30T14:06:53.000Z</time>
      </trkpt>
      <trkpt lat="43.41906" lon="3.45871">
        <ele>40.436238</ele>
        <time>2023-12-30T14:06:54.000Z</time>
      </trkpt>
      <trkpt lat="43.41906" lon="3.45875">
        <ele>40.535068</ele>
        <time>2023-12-30T14:06:55.000Z</time>
      </trkpt>
      <trkpt lat="43.41907" lon="3.4588">
        <ele>40.639669</ele>
        <time>2023-12-30T14:06:56.000Z</time>
      </trkpt>
      <trkpt lat="43.41908" lon="3.45884">
        <ele>40.748762</ele>
        <time>2023-12-30T14:06:57.000Z</time>
      </trkpt>
      <trkpt lat="43.41908" lon="3.45888">
        <ele>40.803457</ele>
        <time>2023-12-30T14:06:58.000Z</time>
      </trkpt>
      <trkpt lat="43.4191" lon="3.45892">
        <ele>40.853414</ele>
        <time>2023-12-30T14:06:59.000Z</time>
      </trkpt>
      <trkpt lat="43.41911" lon="3.45897">
        <ele>40.901695</ele>
        <time>2023-12-30T14:07:00.000Z</time>
      </trkpt>
      <trkpt lat="43.41913" lon="3.459">
        <ele>40.946259</ele>
        <time>2023-12-30T14:07:01.000Z</time>
      </trkpt>
      <trkpt lat="43.41914" lon="3.45904">
        <ele>40.995482</ele>
        <time>2023-12-30T14:07:02.000Z</time>
      </trkpt>
      <trkpt lat="43.41916" lon="3.45909">
        <ele>41.043497</ele>
        <time>2023-12-30T14:07:03.000Z</time>
      </trkpt>
      <trkpt lat="43.41917" lon="3.45913">
        <ele>41.093995</ele>
        <time>2023-12-30T14:07:04.000Z</time>
      </trkpt>
      <trkpt lat="43.41917" lon="3.45918">
        <ele>41.144477</ele>
        <time>2023-12-30T14:07:05.000Z</time>
      </trkpt>
      <trkpt lat="43.41916" lon="3.45923">
        <ele>41.193201</ele>
        <time>2023-12-30T14:07:06.000Z</time>
      </trkpt>
      <trkpt lat="43.41916" lon="3.45928">
        <ele>41.247325</ele>
        <time>2023-12-30T14:07:07.000Z</time>
      </trkpt>
      <trkpt lat="43.41915" lon="3.45933">
        <ele>41.299845</ele>
        <time>2023-12-30T14:07:08.000Z</time>
      </trkpt>
      <trkpt lat="43.41914" lon="3.45938">
        <ele>41.354719</ele>
        <time>2023-12-30T14:07:09.000Z</time>
      </trkpt>
      <trkpt lat="43.41913" lon="3.45943">
        <ele>41.407538</ele>
        <time>2023-12-30T14:07:10.000Z</time>
      </trkpt>
      <trkpt lat="43.41913" lon="3.45948">
        <ele>41.467071</ele>
        <time>2023-12-30T14:07:11.000Z</time>
      </trkpt>
      <trkpt lat="43.41912" lon="3.45954">
        <ele>41.524002</ele>
        <time>2023-12-30T14:07:12.000Z</time>
      </trkpt>
      <trkpt lat="43.41911" lon="3.45959">
        <ele>41.579622</ele>
        <time>2023-12-30T14:07:13.000Z</time>
      </trkpt>
      <trkpt lat="43.41911" lon="3.45964">
        <ele>41.637918</ele>
        <time>2023-12-30T14:07:14.000Z</time>
      </trkpt>
      <trkpt lat="43.41911" lon="3.45969">
        <ele>41.690583</ele>
        <time>2023-12-30T14:07:15.000Z</time>
      </trkpt>
      <trkpt lat="43.4191" lon="3.45974">
        <ele>41.740203</ele>
        <time>2023-12-30T14:07:16.000Z</time>
      </trkpt>
      <trkpt lat="43.41911" lon="3.45979">
        <ele>41.792724</ele>
        <time>2023-12-30T14:07:17.000Z</time>
      </trkpt>
      <trkpt lat="43.41911" lon="3.45985">
        <ele>41.858074</ele>
        <time>2023-12-30T14:07:18.000Z</time>
      </trkpt>
      <trkpt lat="43.41911" lon="3.45991">
        <ele>41.924332</ele>
        <time>2023-12-30T14:07:19.000Z</time>
      </trkpt>
      <trkpt lat="43.41911" lon="3.45997">
        <ele>41.982339</ele>
        <time>2023-12-30T14:07:20.000Z</time>
      </trkpt>
      <trkpt lat="43.4191" lon="3.46002">
        <ele>42.041064</ele>
        <time>2023-12-30T14:07:21.000Z</time>
      </trkpt>
      <trkpt lat="43.4191" lon="3.46007">
        <ele>42.093669</ele>
        <time>2023-12-30T14:07:22.000Z</time>
      </trkpt>
      <trkpt lat="43.4191" lon="3.46012">
        <ele>42.14312</ele>
        <time>2023-12-30T14:07:23.000Z</time>
      </trkpt>
      <trkpt lat="43.4191" lon="3.46017">
        <ele>42.199912</ele>
        <time>2023-12-30T14:07:24.000Z</time>
      </trkpt>
      <trkpt lat="43.41911" lon="3.46022">
        <ele>42.24987</ele>
        <time>2023-12-30T14:07:25.000Z</time>
      </trkpt>
      <trkpt lat="43.41912" lon="3.46026">
        <ele>42.296553</ele>
        <time>2023-12-30T14:07:26.000Z</time>
      </trkpt>
      <trkpt lat="43.41912" lon="3.46032">
        <ele>42.351427</ele>
        <time>2023-12-30T14:07:27.000Z</time>
      </trkpt>
      <trkpt lat="43.41913" lon="3.46037">
        <ele>42.407329</ele>
        <time>2023-12-30T14:07:28.000Z</time>
      </trkpt>
      <trkpt lat="43.41915" lon="3.46041">
        <ele>42.46132</ele>
        <time>2023-12-30T14:07:29.000Z</time>
      </trkpt>
      <trkpt lat="43.41916" lon="3.46045">
        <ele>42.504969</ele>
        <time>2023-12-30T14:07:30.000Z</time>
      </trkpt>
      <trkpt lat="43.41918" lon="3.46048">
        <ele>42.542411</ele>
        <time>2023-12-30T14:07:31.000Z</time>
      </trkpt>
      <trkpt lat="43.41919" lon="3.46051">
        <ele>42.584434</ele>
        <time>2023-12-30T14:07:32.000Z</time>
      </trkpt>
      <trkpt lat="43.4192" lon="3.46055">
        <ele>42.628067</ele>
        <time>2023-12-30T14:07:33.000Z</time>
      </trkpt>
      <trkpt lat="43.4192" lon="3.4606">
        <ele>42.673085</ele>
        <time>2023-12-30T14:07:34.000Z</time>
      </trkpt>
      <trkpt lat="43.4192" lon="3.46064">
        <ele>42.714102</ele>
        <time>2023-12-30T14:07:35.000Z</time>
      </trkpt>
      <trkpt lat="43.41921" lon="3.46068">
        <ele>42.757374</ele>
        <time>2023-12-30T14:07:36.000Z</time>
      </trkpt>
      <trkpt lat="43.41921" lon="3.46071">
        <ele>42.794212</ele>
        <time>2023-12-30T14:07:37.000Z</time>
      </trkpt>
      <trkpt lat="43.41921" lon="3.46075">
        <ele>42.833232</ele>
        <time>2023-12-30T14:07:38.000Z</time>
      </trkpt>
      <trkpt lat="43.4192" lon="3.46079">
        <ele>42.875697</ele>
        <time>2023-12-30T14:07:39.000Z</time>
      </trkpt>
      <trkpt lat="43.4192" lon="3.46083">
        <ele>42.919331</ele>
        <time>2023-12-30T14:07:40.000Z</time>
      </trkpt>
      <trkpt lat="43.41919" lon="3.46087">
        <ele>42.966816</ele>
        <time>2023-12-30T14:07:41.000Z</time>
      </trkpt>
      <trkpt lat="43.41918" lon="3.46091">
        <ele>43.011306</ele>
        <time>2023-12-30T14:07:42.000Z</time>
      </trkpt>
      <trkpt lat="43.41917" lon="3.46095">
        <ele>43.049895</ele>
        <time>2023-12-30T14:07:43.000Z</time>
      </trkpt>
      <trkpt lat="43.41916" lon="3.46099">
        <ele>43.095949</ele>
        <time>2023-12-30T14:07:44.000Z</time>
      </trkpt>
      <trkpt lat="43.41915" lon="3.46103">
        <ele>43.143895</ele>
        <time>2023-12-30T14:07:45.000Z</time>
      </trkpt>
      <trkpt lat="43.41913" lon="3.46107">
        <ele>43.197005</ele>
        <time>2023-12-30T14:07:46.000Z</time>
      </trkpt>
      <trkpt lat="43.41911" lon="3.46111">
        <ele>43.242362</ele>
        <time>2023-12-30T14:07:47.000Z</time>
      </trkpt>
      <trkpt lat="43.41907" lon="3.46113">
        <ele>43.298517</ele>
        <time>2023-12-30T14:07:48.000Z</time>
      </trkpt>
      <trkpt lat="43.41903" lon="3.46115">
        <ele>43.363583</ele>
        <time>2023-12-30T14:07:49.000Z</time>
      </trkpt>
      <trkpt lat="43.41899" lon="3.46118">
        <ele>43.375293</ele>
        <time>2023-12-30T14:07:50.000Z</time>
      </trkpt>
      <trkpt lat="43.41895" lon="3.46121">
        <ele>43.380411</ele>
        <time>2023-12-30T14:07:51.000Z</time>
      </trkpt>
      <trkpt lat="43.4189" lon="3.46126">
        <ele>43.386254</ele>
        <time>2023-12-30T14:07:52.000Z</time>
      </trkpt>
      <trkpt lat="43.41886" lon="3.46132">
        <ele>43.392339</ele>
        <time>2023-12-30T14:07:53.000Z</time>
      </trkpt>
      <trkpt lat="43.41883" lon="3.46139">
        <ele>43.398466</ele>
        <time>2023-12-30T14:07:54.000Z</time>
      </trkpt>
      <trkpt lat="43.41881" lon="3.46146">
        <ele>43.404303</ele>
        <time>2023-12-30T14:07:55.000Z</time>
      </trkpt>
      <trkpt lat="43.41881" lon="3.46152">
        <ele>43.409153</ele>
        <time>2023-12-30T14:07:56.000Z</time>
      </trkpt>
      <trkpt lat="43.41881" lon="3.46158">
        <ele>43.41314</ele>
        <time>2023-12-30T14:07:57.000Z</time>
      </trkpt>
      <trkpt lat="43.41882" lon="3.46162">
        <ele>43.416753</ele>
        <time>2023-12-30T14:07:58.000Z</time>
      </trkpt>
      <trkpt lat="43.41883" lon="3.46167">
        <ele>43.420753</ele>
        <time>2023-12-30T14:07:59.000Z</time>
      </trkpt>
      <trkpt lat="43.41884" lon="3.46173">
        <ele>43.42489</ele>
        <time>2023-12-30T14:08:00.000Z</time>
      </trkpt>
      <trkpt lat="43.41884" lon="3.46179">
        <ele>43.42967</ele>
        <time>2023-12-30T14:08:01.000Z</time>
      </trkpt>
      <trkpt lat="43.41884" lon="3.46185">
        <ele>43.434073</ele>
        <time>2023-12-30T14:08:02.000Z</time>
      </trkpt>
      <trkpt lat="43.41883" lon="3.46191">
        <ele>43.438617</ele>
        <time>2023-12-30T14:08:03.000Z</time>
      </trkpt>
      <trkpt lat="43.41883" lon="3.46196">
        <ele>43.442865</ele>
        <time>2023-12-30T14:08:04.000Z</time>
      </trkpt>
      <trkpt lat="43.41882" lon="3.46202">
        <ele>43.447427</ele>
        <time>2023-12-30T14:08:05.000Z</time>
      </trkpt>
      <trkpt lat="43.41882" lon="3.46208">
        <ele>43.451774</ele>
        <time>2023-12-30T14:08:06.000Z</time>
      </trkpt>
      <trkpt lat="43.41881" lon="3.46214">
        <ele>43.456347</ele>
        <time>2023-12-30T14:08:07.000Z</time>
      </trkpt>
      <trkpt lat="43.41881" lon="3.4622">
        <ele>43.460971</ele>
        <time>2023-12-30T14:08:08.000Z</time>
      </trkpt>
      <trkpt lat="43.41881" lon="3.46225">
        <ele>43.464704</ele>
        <time>2023-12-30T14:08:09.000Z</time>
      </trkpt>
      <trkpt lat="43.41881" lon="3.46229">
        <ele>43.467583</ele>
        <time>2023-12-30T14:08:10.000Z</time>
      </trkpt>
      <trkpt lat="43.41881" lon="3.46232">
        <ele>43.470042</ele>
        <time>2023-12-30T14:08:11.000Z</time>
      </trkpt>
      <trkpt lat="43.41881" lon="3.46236">
        <ele>43.472861</ele>
        <time>2023-12-30T14:08:12.000Z</time>
      </trkpt>
      <trkpt lat="43.41881" lon="3.4624">
        <ele>43.47627</ele>
        <time>2023-12-30T14:08:13.000Z</time>
      </trkpt>
      <trkpt lat="43.41882" lon="3.46246">
        <ele>43.480824</ele>
        <time>2023-12-30T14:08:14.000Z</time>
      </trkpt>
      <trkpt lat="43.41882" lon="3.46253">
        <ele>43.485594</ele>
        <time>2023-12-30T14:08:15.000Z</time>
      </trkpt>
      <trkpt lat="43.41882" lon="3.46259">
        <ele>43.49027</ele>
        <time>2023-12-30T14:08:16.000Z</time>
      </trkpt>
      <trkpt lat="43.41883" lon="3.46265">
        <ele>43.495246</ele>
        <time>2023-12-30T14:08:17.000Z</time>
      </trkpt>
      <trkpt lat="43.41884" lon="3.46271">
        <ele>43.499736</ele>
        <time>2023-12-30T14:08:18.000Z</time>
      </trkpt>
      <trkpt lat="43.41885" lon="3.46277">
        <ele>43.504103</ele>
        <time>2023-12-30T14:08:19.000Z</time>
      </trkpt>
      <trkpt lat="43.41886" lon="3.46282">
        <ele>43.508424</ele>
        <time>2023-12-30T14:08:20.000Z</time>
      </trkpt>
      <trkpt lat="43.41887" lon="3.46289">
        <ele>43.513342</ele>
        <time>2023-12-30T14:08:21.000Z</time>
      </trkpt>
      <trkpt lat="43.41887" lon="3.46295">
        <ele>43.518018</ele>
        <time>2023-12-30T14:08:22.000Z</time>
      </trkpt>
      <trkpt lat="43.41889" lon="3.463">
        <ele>43.522325</ele>
        <time>2023-12-30T14:08:23.000Z</time>
      </trkpt>
      <trkpt lat="43.4189" lon="3.46305">
        <ele>43.526471</ele>
        <time>2023-12-30T14:08:24.000Z</time>
      </trkpt>
      <trkpt lat="43.4189" lon="3.46311">
        <ele>43.530888</ele>
        <time>2023-12-30T14:08:25.000Z</time>
      </trkpt>
      <trkpt lat="43.41891" lon="3.46317">
        <ele>43.535284</ele>
        <time>2023-12-30T14:08:26.000Z</time>
      </trkpt>
      <trkpt lat="43.41892" lon="3.46322">
        <ele>43.539196</ele>
        <time>2023-12-30T14:08:27.000Z</time>
      </trkpt>
      <trkpt lat="43.41892" lon="3.46327">
        <ele>43.54336</ele>
        <time>2023-12-30T14:08:28.000Z</time>
      </trkpt>
      <trkpt lat="43.41892" lon="3.46333">
        <ele>43.547688</ele>
        <time>2023-12-30T14:08:29.000Z</time>
      </trkpt>
      <trkpt lat="43.41891" lon="3.46339">
        <ele>43.552009</ele>
        <time>2023-12-30T14:08:30.000Z</time>
      </trkpt>
      <trkpt lat="43.4189" lon="3.46344">
        <ele>43.556182</ele>
        <time>2023-12-30T14:08:31.000Z</time>
      </trkpt>
      <trkpt lat="43.41889" lon="3.46349">
        <ele>43.62313</ele>
        <time>2023-12-30T14:08:32.000Z</time>
      </trkpt>
      <trkpt lat="43.41888" lon="3.46354">
        <ele>43.755394</ele>
        <time>2023-12-30T14:08:33.000Z</time>
      </trkpt>
      <trkpt lat="43.41887" lon="3.46359">
        <ele>43.882041</ele>
        <time>2023-12-30T14:08:34.000Z</time>
      </trkpt>
      <trkpt lat="43.41886" lon="3.46364">
        <ele>44.005469</ele>
        <time>2023-12-30T14:08:35.000Z</time>
      </trkpt>
      <trkpt lat="43.41884" lon="3.46369">
        <ele>44.131786</ele>
        <time>2023-12-30T14:08:36.000Z</time>
      </trkpt>
      <trkpt lat="43.41883" lon="3.46373">
        <ele>44.251342</ele>
        <time>2023-12-30T14:08:37.000Z</time>
      </trkpt>
      <trkpt lat="43.41881" lon="3.46378">
        <ele>44.367833</ele>
        <time>2023-12-30T14:08:38.000Z</time>
      </trkpt>
      <trkpt lat="43.4188" lon="3.46382">
        <ele>44.477082</ele>
        <time>2023-12-30T14:08:39.000Z</time>
      </trkpt>
      <trkpt lat="43.41879" lon="3.46386">
        <ele>44.588574</ele>
        <time>2023-12-30T14:08:40.000Z</time>
      </trkpt>
      <trkpt lat="43.41877" lon="3.4639">
        <ele>44.697605</ele>
        <time>2023-12-30T14:08:41.000Z</time>
      </trkpt>
      <trkpt lat="43.41876" lon="3.46394">
        <ele>44.808936</ele>
        <time>2023-12-30T14:08:42.000Z</time>
      </trkpt>
      <trkpt lat="43.41875" lon="3.46399">
        <ele>44.926001</ele>
        <time>2023-12-30T14:08:43.000Z</time>
      </trkpt>
      <trkpt lat="43.41874" lon="3.46403">
        <ele>45.038589</ele>
        <time>2023-12-30T14:08:44.000Z</time>
      </trkpt>
      <trkpt lat="43.41873" lon="3.46408">
        <ele>45.151178</ele>
        <time>2023-12-30T14:08:45.000Z</time>
      </trkpt>
      <trkpt lat="43.41872" lon="3.46412">
        <ele>45.258115</ele>
        <time>2023-12-30T14:08:46.000Z</time>
      </trkpt>
      <trkpt lat="43.41871" lon="3.46416">
        <ele>45.370967</ele>
        <time>2023-12-30T14:08:47.000Z</time>
      </trkpt>
      <trkpt lat="43.4187" lon="3.4642">
        <ele>45.480249</ele>
        <time>2023-12-30T14:08:48.000Z</time>
      </trkpt>
      <trkpt lat="43.41869" lon="3.46424">
        <ele>45.579993</ele>
        <time>2023-12-30T14:08:49.000Z</time>
      </trkpt>
      <trkpt lat="43.41868" lon="3.46428">
        <ele>45.685612</ele>
        <time>2023-12-30T14:08:50.000Z</time>
      </trkpt>
      <trkpt lat="43.41867" lon="3.46432">
        <ele>45.791299</ele>
        <time>2023-12-30T14:08:51.000Z</time>
      </trkpt>
      <trkpt lat="43.41866" lon="3.46437">
        <ele>45.901516</ele>
        <time>2023-12-30T14:08:52.000Z</time>
      </trkpt>
      <trkpt lat="43.41865" lon="3.46441">
        <ele>46.015258</ele>
        <time>2023-12-30T14:08:53.000Z</time>
      </trkpt>
      <trkpt lat="43.41863" lon="3.46445">
        <ele>46.120945</ele>
        <time>2023-12-30T14:08:54.000Z</time>
      </trkpt>
      <trkpt lat="43.41862" lon="3.46449">
        <ele>46.232277</ele>
        <time>2023-12-30T14:08:55.000Z</time>
      </trkpt>
      <trkpt lat="43.41861" lon="3.46453">
        <ele>46.342494</ele>
        <time>2023-12-30T14:08:56.000Z</time>
      </trkpt>
      <trkpt lat="43.4186" lon="3.46458">
        <ele>46.454987</ele>
        <time>2023-12-30T14:08:57.000Z</time>
      </trkpt>
      <trkpt lat="43.41859" lon="3.46462">
        <ele>46.569908</ele>
        <time>2023-12-30T14:08:58.000Z</time>
      </trkpt>
      <trkpt lat="43.41858" lon="3.46467">
        <ele>46.68124</ele>
        <time>2023-12-30T14:08:59.000Z</time>
      </trkpt>
      <trkpt lat="43.41857" lon="3.46471">
        <ele>46.788854</ele>
        <time>2023-12-30T14:09:00.000Z</time>
      </trkpt>
      <trkpt lat="43.41857" lon="3.46475">
        <ele>46.887057</ele>
        <time>2023-12-30T14:09:01.000Z</time>
      </trkpt>
      <trkpt lat="43.41857" lon="3.46479">
        <ele>46.994561</ele>
        <time>2023-12-30T14:09:02.000Z</time>
      </trkpt>
      <trkpt lat="43.41857" lon="3.46483">
        <ele>47.092763</ele>
        <time>2023-12-30T14:09:03.000Z</time>
      </trkpt>
      <trkpt lat="43.41857" lon="3.46487">
        <ele>47.188242</ele>
        <time>2023-12-30T14:09:04.000Z</time>
      </trkpt>
      <trkpt lat="43.41858" lon="3.46491">
        <ele>47.276221</ele>
        <time>2023-12-30T14:09:05.000Z</time>
      </trkpt>
      <trkpt lat="43.41858" lon="3.46495">
        <ele>47.371521</ele>
        <time>2023-12-30T14:09:06.000Z</time>
      </trkpt>
      <trkpt lat="43.41858" lon="3.46498">
        <ele>47.462873</ele>
        <time>2023-12-30T14:09:07.000Z</time>
      </trkpt>
      <trkpt lat="43.41858" lon="3.46502">
        <ele>47.554226</ele>
        <time>2023-12-30T14:09:08.000Z</time>
      </trkpt>
      <trkpt lat="43.41859" lon="3.46506">
        <ele>47.648535</ele>
        <time>2023-12-30T14:09:09.000Z</time>
      </trkpt>
      <trkpt lat="43.41859" lon="3.4651">
        <ele>47.746737</ele>
        <time>2023-12-30T14:09:10.000Z</time>
      </trkpt>
      <trkpt lat="43.41859" lon="3.46513">
        <ele>47.827326</ele>
        <time>2023-12-30T14:09:11.000Z</time>
      </trkpt>
      <trkpt lat="43.41859" lon="3.46517">
        <ele>47.92524</ele>
        <time>2023-12-30T14:09:12.000Z</time>
      </trkpt>
      <trkpt lat="43.4186" lon="3.46521">
        <ele>48.01566</ele>
        <time>2023-12-30T14:09:13.000Z</time>
      </trkpt>
      <trkpt lat="43.4186" lon="3.46525">
        <ele>48.106079</ele>
        <time>2023-12-30T14:09:14.000Z</time>
      </trkpt>
      <trkpt lat="43.4186" lon="3.46528">
        <ele>48.184225</ele>
        <time>2023-12-30T14:09:15.000Z</time>
      </trkpt>
      <trkpt lat="43.4186" lon="3.46532">
        <ele>48.277085</ele>
        <time>2023-12-30T14:09:16.000Z</time>
      </trkpt>
      <trkpt lat="43.4186" lon="3.46535">
        <ele>48.367442</ele>
        <time>2023-12-30T14:09:17.000Z</time>
      </trkpt>
      <trkpt lat="43.4186" lon="3.46539">
        <ele>48.465356</ele>
        <time>2023-12-30T14:09:18.000Z</time>
      </trkpt>
      <trkpt lat="43.41859" lon="3.46543">
        <ele>48.559125</ele>
        <time>2023-12-30T14:09:19.000Z</time>
      </trkpt>
      <trkpt lat="43.41858" lon="3.46547">
        <ele>48.650135</ele>
        <time>2023-12-30T14:09:20.000Z</time>
      </trkpt>
      <trkpt lat="43.41858" lon="3.4655">
        <ele>48.734248</ele>
        <time>2023-12-30T14:09:21.000Z</time>
      </trkpt>
      <trkpt lat="43.41857" lon="3.46554">
        <ele>48.827224</ele>
        <time>2023-12-30T14:09:22.000Z</time>
      </trkpt>
      <trkpt lat="43.41856" lon="3.46558">
        <ele>48.92533</ele>
        <time>2023-12-30T14:09:23.000Z</time>
      </trkpt>
      <trkpt lat="43.41856" lon="3.46562">
        <ele>49.025809</ele>
        <time>2023-12-30T14:09:24.000Z</time>
      </trkpt>
      <trkpt lat="43.41855" lon="3.46565">
        <ele>49.112333</ele>
        <time>2023-12-30T14:09:25.000Z</time>
      </trkpt>
      <trkpt lat="43.41855" lon="3.46569">
        <ele>49.20807</ele>
        <time>2023-12-30T14:09:26.000Z</time>
      </trkpt>
      <trkpt lat="43.41854" lon="3.46573">
        <ele>49.305677</ele>
        <time>2023-12-30T14:09:27.000Z</time>
      </trkpt>
      <trkpt lat="43.41853" lon="3.46576">
        <ele>49.395185</ele>
        <time>2023-12-30T14:09:28.000Z</time>
      </trkpt>
      <trkpt lat="43.41853" lon="3.4658">
        <ele>49.483677</ele>
        <time>2023-12-30T14:09:29.000Z</time>
      </trkpt>
      <trkpt lat="43.41852" lon="3.46584">
        <ele>49.587613</ele>
        <time>2023-12-30T14:09:30.000Z</time>
      </trkpt>
      <trkpt lat="43.41851" lon="3.46588">
        <ele>49.640971</ele>
        <time>2023-12-30T14:09:31.000Z</time>
      </trkpt>
      <trkpt lat="43.41851" lon="3.46592">
        <ele>49.681654</ele>
        <time>2023-12-30T14:09:32.000Z</time>
      </trkpt>
      <trkpt lat="43.41851" lon="3.46596">
        <ele>49.720844</ele>
        <time>2023-12-30T14:09:33.000Z</time>
      </trkpt>
      <trkpt lat="43.41851" lon="3.466">
        <ele>49.763146</ele>
        <time>2023-12-30T14:09:34.000Z</time>
      </trkpt>
      <trkpt lat="43.41851" lon="3.46605">
        <ele>49.810438</ele>
        <time>2023-12-30T14:09:35.000Z</time>
      </trkpt>
      <trkpt lat="43.4185" lon="3.4661">
        <ele>49.864009</ele>
        <time>2023-12-30T14:09:36.000Z</time>
      </trkpt>
      <trkpt lat="43.4185" lon="3.46615">
        <ele>49.909639</ele>
        <time>2023-12-30T14:09:37.000Z</time>
      </trkpt>
      <trkpt lat="43.4185" lon="3.46619">
        <ele>49.953765</ele>
        <time>2023-12-30T14:09:38.000Z</time>
      </trkpt>
      <trkpt lat="43.4185" lon="3.46624">
        <ele>50.000896</ele>
        <time>2023-12-30T14:09:39.000Z</time>
      </trkpt>
      <trkpt lat="43.41849" lon="3.46628">
        <ele>50.04577</ele>
        <time>2023-12-30T14:09:40.000Z</time>
      </trkpt>
      <trkpt lat="43.41848" lon="3.46632">
        <ele>50.090262</ele>
        <time>2023-12-30T14:09:41.000Z</time>
      </trkpt>
      <trkpt lat="43.41847" lon="3.46637">
        <ele>50.138805</ele>
        <time>2023-12-30T14:09:42.000Z</time>
      </trkpt>
      <trkpt lat="43.41846" lon="3.46642">
        <ele>50.189724</ele>
        <time>2023-12-30T14:09:43.000Z</time>
      </trkpt>
      <trkpt lat="43.41845" lon="3.46647">
        <ele>50.241556</ele>
        <time>2023-12-30T14:09:44.000Z</time>
      </trkpt>
      <trkpt lat="43.41843" lon="3.46652">
        <ele>50.299119</ele>
        <time>2023-12-30T14:09:45.000Z</time>
      </trkpt>
      <trkpt lat="43.41842" lon="3.46657">
        <ele>50.352854</ele>
        <time>2023-12-30T14:09:46.000Z</time>
      </trkpt>
      <trkpt lat="43.4184" lon="3.46662">
        <ele>50.40853</ele>
        <time>2023-12-30T14:09:47.000Z</time>
      </trkpt>
      <trkpt lat="43.41839" lon="3.46667">
        <ele>50.462961</ele>
        <time>2023-12-30T14:09:48.000Z</time>
      </trkpt>
      <trkpt lat="43.41838" lon="3.46671">
        <ele>50.506853</ele>
        <time>2023-12-30T14:09:49.000Z</time>
      </trkpt>
      <trkpt lat="43.41837" lon="3.46675">
        <ele>50.544552</ele>
        <time>2023-12-30T14:09:50.000Z</time>
      </trkpt>
      <trkpt lat="43.41835" lon="3.46678">
        <ele>50.583956</ele>
        <time>2023-12-30T14:09:51.000Z</time>
      </trkpt>
      <trkpt lat="43.41834" lon="3.46682">
        <ele>50.62035</ele>
        <time>2023-12-30T14:09:52.000Z</time>
      </trkpt>
      <trkpt lat="43.41834" lon="3.46685">
        <ele>50.657846</ele>
        <time>2023-12-30T14:09:53.000Z</time>
      </trkpt>
      <trkpt lat="43.41833" lon="3.46689">
        <ele>50.698319</ele>
        <time>2023-12-30T14:09:54.000Z</time>
      </trkpt>
      <trkpt lat="43.41833" lon="3.46694">
        <ele>50.746706</ele>
        <time>2023-12-30T14:09:55.000Z</time>
      </trkpt>
      <trkpt lat="43.41831" lon="3.46698">
        <ele>50.794319</ele>
        <time>2023-12-30T14:09:56.000Z</time>
      </trkpt>
      <trkpt lat="43.4183" lon="3.46703">
        <ele>50.841429</ele>
        <time>2023-12-30T14:09:57.000Z</time>
      </trkpt>
      <trkpt lat="43.4183" lon="3.46707">
        <ele>50.884089</ele>
        <time>2023-12-30T14:09:58.000Z</time>
      </trkpt>
      <trkpt lat="43.41829" lon="3.46711">
        <ele>50.928582</ele>
        <time>2023-12-30T14:09:59.000Z</time>
      </trkpt>
      <trkpt lat="43.41828" lon="3.46715">
        <ele>50.969824</ele>
        <time>2023-12-30T14:10:00.000Z</time>
      </trkpt>
      <trkpt lat="43.41827" lon="3.46719">
        <ele>51.012756</ele>
        <time>2023-12-30T14:10:01.000Z</time>
      </trkpt>
      <trkpt lat="43.41826" lon="3.46723">
        <ele>51.056108</ele>
        <time>2023-12-30T14:10:02.000Z</time>
      </trkpt>
      <trkpt lat="43.41825" lon="3.46728">
        <ele>51.101347</ele>
        <time>2023-12-30T14:10:03.000Z</time>
      </trkpt>
      <trkpt lat="43.41824" lon="3.46732">
        <ele>51.146099</ele>
        <time>2023-12-30T14:10:04.000Z</time>
      </trkpt>
      <trkpt lat="43.41823" lon="3.46736">
        <ele>51.189451</ele>
        <time>2023-12-30T14:10:05.000Z</time>
      </trkpt>
      <trkpt lat="43.41822" lon="3.4674">
        <ele>51.233262</ele>
        <time>2023-12-30T14:10:06.000Z</time>
      </trkpt>
      <trkpt lat="43.41821" lon="3.46744">
        <ele>51.274265</ele>
        <time>2023-12-30T14:10:07.000Z</time>
      </trkpt>
      <trkpt lat="43.4182" lon="3.46748">
        <ele>51.319521</ele>
        <time>2023-12-30T14:10:08.000Z</time>
      </trkpt>
      <trkpt lat="43.41819" lon="3.46753">
        <ele>51.368242</ele>
        <time>2023-12-30T14:10:09.000Z</time>
      </trkpt>
      <trkpt lat="43.41818" lon="3.46757">
        <ele>51.416292</ele>
        <time>2023-12-30T14:10:10.000Z</time>
      </trkpt>
      <trkpt lat="43.41817" lon="3.46762">
        <ele>51.460185</ele>
        <time>2023-12-30T14:10:11.000Z</time>
      </trkpt>
      <trkpt lat="43.41816" lon="3.46766">
        <ele>51.503708</ele>
        <time>2023-12-30T14:10:12.000Z</time>
      </trkpt>
      <trkpt lat="43.41815" lon="3.4677">
        <ele>51.549172</ele>
        <time>2023-12-30T14:10:13.000Z</time>
      </trkpt>
      <trkpt lat="43.41814" lon="3.46774">
        <ele>51.593343</ele>
        <time>2023-12-30T14:10:14.000Z</time>
      </trkpt>
      <trkpt lat="43.41814" lon="3.46779">
        <ele>51.640755</ele>
        <time>2023-12-30T14:10:15.000Z</time>
      </trkpt>
      <trkpt lat="43.41813" lon="3.46783">
        <ele>51.683948</ele>
        <time>2023-12-30T14:10:16.000Z</time>
      </trkpt>
      <trkpt lat="43.41812" lon="3.46788">
        <ele>51.734001</ele>
        <time>2023-12-30T14:10:17.000Z</time>
      </trkpt>
      <trkpt lat="43.41811" lon="3.46793">
        <ele>51.780786</ele>
        <time>2023-12-30T14:10:18.000Z</time>
      </trkpt>
      <trkpt lat="43.4181" lon="3.46797">
        <ele>51.827956</ele>
        <time>2023-12-30T14:10:19.000Z</time>
      </trkpt>
      <trkpt lat="43.41809" lon="3.46802">
        <ele>51.876006</ele>
        <time>2023-12-30T14:10:20.000Z</time>
      </trkpt>
      <trkpt lat="43.41808" lon="3.46806">
        <ele>51.925697</ele>
        <time>2023-12-30T14:10:21.000Z</time>
      </trkpt>
      <trkpt lat="43.41807" lon="3.46811">
        <ele>51.975634</ele>
        <time>2023-12-30T14:10:22.000Z</time>
      </trkpt>
      <trkpt lat="43.41806" lon="3.46815">
        <ele>52.021807</ele>
        <time>2023-12-30T14:10:23.000Z</time>
      </trkpt>
      <trkpt lat="43.41804" lon="3.4682">
        <ele>52.067046</ele>
        <time>2023-12-30T14:10:24.000Z</time>
      </trkpt>
      <trkpt lat="43.41803" lon="3.46824">
        <ele>52.157081</ele>
        <time>2023-12-30T14:10:25.000Z</time>
      </trkpt>
      <trkpt lat="43.41801" lon="3.46829">
        <ele>52.279003</ele>
        <time>2023-12-30T14:10:26.000Z</time>
      </trkpt>
      <trkpt lat="43.418" lon="3.46833">
        <ele>52.396035</ele>
        <time>2023-12-30T14:10:27.000Z</time>
      </trkpt>
      <trkpt lat="43.41798" lon="3.46837">
        <ele>52.508682</ele>
        <time>2023-12-30T14:10:28.000Z</time>
      </trkpt>
      <trkpt lat="43.41797" lon="3.46842">
        <ele>52.6188</ele>
        <time>2023-12-30T14:10:29.000Z</time>
      </trkpt>
      <trkpt lat="43.41796" lon="3.46846">
        <ele>52.724469</ele>
        <time>2023-12-30T14:10:30.000Z</time>
      </trkpt>
      <trkpt lat="43.41795" lon="3.46849">
        <ele>52.817747</ele>
        <time>2023-12-30T14:10:31.000Z</time>
      </trkpt>
      <trkpt lat="43.41794" lon="3.46853">
        <ele>52.921203</ele>
        <time>2023-12-30T14:10:32.000Z</time>
      </trkpt>
      <trkpt lat="43.41793" lon="3.46857">
        <ele>53.01808</ele>
        <time>2023-12-30T14:10:33.000Z</time>
      </trkpt>
      <trkpt lat="43.41792" lon="3.46861">
        <ele>53.116437</ele>
        <time>2023-12-30T14:10:34.000Z</time>
      </trkpt>
      <trkpt lat="43.41792" lon="3.46865">
        <ele>53.211736</ele>
        <time>2023-12-30T14:10:35.000Z</time>
      </trkpt>
      <trkpt lat="43.41791" lon="3.46869">
        <ele>53.307035</ele>
        <time>2023-12-30T14:10:36.000Z</time>
      </trkpt>
      <trkpt lat="43.4179" lon="3.46873">
        <ele>53.399996</ele>
        <time>2023-12-30T14:10:37.000Z</time>
      </trkpt>
      <trkpt lat="43.4179" lon="3.46877">
        <ele>53.495295</ele>
        <time>2023-12-30T14:10:38.000Z</time>
      </trkpt>
      <trkpt lat="43.41789" lon="3.46881">
        <ele>53.596782</ele>
        <time>2023-12-30T14:10:39.000Z</time>
      </trkpt>
      <trkpt lat="43.41789" lon="3.46885">
        <ele>53.690937</ele>
        <time>2023-12-30T14:10:40.000Z</time>
      </trkpt>
      <trkpt lat="43.41788" lon="3.46888">
        <ele>53.776904</ele>
        <time>2023-12-30T14:10:41.000Z</time>
      </trkpt>
      <trkpt lat="43.41787" lon="3.46892">
        <ele>53.866901</ele>
        <time>2023-12-30T14:10:42.000Z</time>
      </trkpt>
      <trkpt lat="43.41786" lon="3.46895">
        <ele>53.943297</ele>
        <time>2023-12-30T14:10:43.000Z</time>
      </trkpt>
      <trkpt lat="43.41786" lon="3.46898">
        <ele>54.023188</ele>
        <time>2023-12-30T14:10:44.000Z</time>
      </trkpt>
      <trkpt lat="43.41785" lon="3.46902">
        <ele>54.10997</ele>
        <time>2023-12-30T14:10:45.000Z</time>
      </trkpt>
      <trkpt lat="43.41784" lon="3.46905">
        <ele>54.195242</ele>
        <time>2023-12-30T14:10:46.000Z</time>
      </trkpt>
      <trkpt lat="43.41784" lon="3.46908">
        <ele>54.265806</ele>
        <time>2023-12-30T14:10:47.000Z</time>
      </trkpt>
      <trkpt lat="43.41783" lon="3.46911">
        <ele>54.347989</ele>
        <time>2023-12-30T14:10:48.000Z</time>
      </trkpt>
      <trkpt lat="43.41783" lon="3.46914">
        <ele>54.416917</ele>
        <time>2023-12-30T14:10:49.000Z</time>
      </trkpt>
      <trkpt lat="43.41782" lon="3.46917">
        <ele>54.499844</ele>
        <time>2023-12-30T14:10:50.000Z</time>
      </trkpt>
      <trkpt lat="43.41782" lon="3.46921">
        <ele>54.579735</ele>
        <time>2023-12-30T14:10:51.000Z</time>
      </trkpt>
      <trkpt lat="43.41781" lon="3.46924">
        <ele>54.659713</ele>
        <time>2023-12-30T14:10:52.000Z</time>
      </trkpt>
      <trkpt lat="43.41781" lon="3.46927">
        <ele>54.733893</ele>
        <time>2023-12-30T14:10:53.000Z</time>
      </trkpt>
      <trkpt lat="43.41781" lon="3.4693">
        <ele>54.808291</ele>
        <time>2023-12-30T14:10:54.000Z</time>
      </trkpt>
      <trkpt lat="43.41781" lon="3.46933">
        <ele>54.884788</ele>
        <time>2023-12-30T14:10:55.000Z</time>
      </trkpt>
      <trkpt lat="43.41781" lon="3.46937">
        <ele>54.966133</ele>
        <time>2023-12-30T14:10:56.000Z</time>
      </trkpt>
      <trkpt lat="43.41781" lon="3.4694">
        <ele>55.042701</ele>
        <time>2023-12-30T14:10:57.000Z</time>
      </trkpt>
      <trkpt lat="43.41781" lon="3.46943">
        <ele>55.119268</ele>
        <time>2023-12-30T14:10:58.000Z</time>
      </trkpt>
      <trkpt lat="43.41781" lon="3.46947">
        <ele>55.206051</ele>
        <time>2023-12-30T14:10:59.000Z</time>
      </trkpt>
      <trkpt lat="43.4178" lon="3.4695">
        <ele>55.296678</ele>
        <time>2023-12-30T14:11:00.000Z</time>
      </trkpt>
      <trkpt lat="43.4178" lon="3.46953">
        <ele>55.371945</ele>
        <time>2023-12-30T14:11:01.000Z</time>
      </trkpt>
      <trkpt lat="43.41779" lon="3.46957">
        <ele>55.463734</ele>
        <time>2023-12-30T14:11:02.000Z</time>
      </trkpt>
      <trkpt lat="43.41779" lon="3.46961">
        <ele>55.559864</ele>
        <time>2023-12-30T14:11:03.000Z</time>
      </trkpt>
      <trkpt lat="43.41779" lon="3.46965">
        <ele>55.639367</ele>
        <time>2023-12-30T14:11:04.000Z</time>
      </trkpt>
      <trkpt lat="43.41778" lon="3.46968">
        <ele>55.721704</ele>
        <time>2023-12-30T14:11:05.000Z</time>
      </trkpt>
      <trkpt lat="43.41778" lon="3.46971">
        <ele>55.795884</ele>
        <time>2023-12-30T14:11:06.000Z</time>
      </trkpt>
      <trkpt lat="43.41778" lon="3.46974">
        <ele>55.868276</ele>
        <time>2023-12-30T14:11:07.000Z</time>
      </trkpt>
      <trkpt lat="43.41778" lon="3.46977">
        <ele>55.940294</ele>
        <time>2023-12-30T14:11:08.000Z</time>
      </trkpt>
      <trkpt lat="43.41777" lon="3.4698">
        <ele>56.017915</ele>
        <time>2023-12-30T14:11:09.000Z</time>
      </trkpt>
      <trkpt lat="43.41777" lon="3.46983">
        <ele>56.082794</ele>
        <time>2023-12-30T14:11:10.000Z</time>
      </trkpt>
      <trkpt lat="43.41777" lon="3.46985">
        <ele>56.137009</ele>
        <time>2023-12-30T14:11:11.000Z</time>
      </trkpt>
      <trkpt lat="43.41777" lon="3.46987">
        <ele>56.190519</ele>
        <time>2023-12-30T14:11:12.000Z</time>
      </trkpt>
      <trkpt lat="43.41776" lon="3.4699">
        <ele>56.256805</ele>
        <time>2023-12-30T14:11:13.000Z</time>
      </trkpt>
      <trkpt lat="43.41776" lon="3.46994">
        <ele>56.343866</ele>
        <time>2023-12-30T14:11:14.000Z</time>
      </trkpt>
      <trkpt lat="43.41775" lon="3.46997">
        <ele>56.433833</ele>
        <time>2023-12-30T14:11:15.000Z</time>
      </trkpt>
      <trkpt lat="43.41775" lon="3.47">
        <ele>56.506748</ele>
        <time>2023-12-30T14:11:16.000Z</time>
      </trkpt>
      <trkpt lat="43.41775" lon="3.47003">
        <ele>56.576151</ele>
        <time>2023-12-30T14:11:17.000Z</time>
      </trkpt>
      <trkpt lat="43.41774" lon="3.47006">
        <ele>56.657473</ele>
        <time>2023-12-30T14:11:18.000Z</time>
      </trkpt>
      <trkpt lat="43.41774" lon="3.4701">
        <ele>56.73981</ele>
        <time>2023-12-30T14:11:19.000Z</time>
      </trkpt>
      <trkpt lat="43.41774" lon="3.47013">
        <ele>56.815077</ele>
        <time>2023-12-30T14:11:20.000Z</time>
      </trkpt>
      <trkpt lat="43.41773" lon="3.47016">
        <ele>56.889838</ele>
        <time>2023-12-30T14:11:21.000Z</time>
      </trkpt>
      <trkpt lat="43.41773" lon="3.47019">
        <ele>56.963418</ele>
        <time>2023-12-30T14:11:22.000Z</time>
      </trkpt>
      <trkpt lat="43.41772" lon="3.47022">
        <ele>57.042423</ele>
        <time>2023-12-30T14:11:23.000Z</time>
      </trkpt>
      <trkpt lat="43.41772" lon="3.47025">
        <ele>57.106718</ele>
        <time>2023-12-30T14:11:24.000Z</time>
      </trkpt>
      <trkpt lat="43.41772" lon="3.47028">
        <ele>57.190452</ele>
        <time>2023-12-30T14:11:25.000Z</time>
      </trkpt>
      <trkpt lat="43.41771" lon="3.47032">
        <ele>57.267584</ele>
        <time>2023-12-30T14:11:26.000Z</time>
      </trkpt>
      <trkpt lat="43.41771" lon="3.47035">
        <ele>57.344276</ele>
        <time>2023-12-30T14:11:27.000Z</time>
      </trkpt>
      <trkpt lat="43.4177" lon="3.47038">
        <ele>57.419038</ele>
        <time>2023-12-30T14:11:28.000Z</time>
      </trkpt>
      <trkpt lat="43.4177" lon="3.47041">
        <ele>57.500913</ele>
        <time>2023-12-30T14:11:29.000Z</time>
      </trkpt>
      <trkpt lat="43.4177" lon="3.47044">
        <ele>57.570938</ele>
        <time>2023-12-30T14:11:30.000Z</time>
      </trkpt>
      <trkpt lat="43.4177" lon="3.47047">
        <ele>57.647718</ele>
        <time>2023-12-30T14:11:31.000Z</time>
      </trkpt>
      <trkpt lat="43.4177" lon="3.4705">
        <ele>57.719434</ele>
        <time>2023-12-30T14:11:32.000Z</time>
      </trkpt>
      <trkpt lat="43.41769" lon="3.47053">
        <ele>57.784314</ele>
        <time>2023-12-30T14:11:33.000Z</time>
      </trkpt>
      <trkpt lat="43.41769" lon="3.47056">
        <ele>57.846468</ele>
        <time>2023-12-30T14:11:34.000Z</time>
      </trkpt>
      <trkpt lat="43.41769" lon="3.47058">
        <ele>57.903935</ele>
        <time>2023-12-30T14:11:35.000Z</time>
      </trkpt>
      <trkpt lat="43.41769" lon="3.47061">
        <ele>57.978696</ele>
        <time>2023-12-30T14:11:36.000Z</time>
      </trkpt>
      <trkpt lat="43.41769" lon="3.47064">
        <ele>58.044737</ele>
        <time>2023-12-30T14:11:37.000Z</time>
      </trkpt>
      <trkpt lat="43.41769" lon="3.47067">
        <ele>58.090471</ele>
        <time>2023-12-30T14:11:38.000Z</time>
      </trkpt>
      <trkpt lat="43.41769" lon="3.4707">
        <ele>58.133046</ele>
        <time>2023-12-30T14:11:39.000Z</time>
      </trkpt>
      <trkpt lat="43.41769" lon="3.47072">
        <ele>58.175814</ele>
        <time>2023-12-30T14:11:40.000Z</time>
      </trkpt>
      <trkpt lat="43.4177" lon="3.47075">
        <ele>58.221548</ele>
        <time>2023-12-30T14:11:41.000Z</time>
      </trkpt>
      <trkpt lat="43.41771" lon="3.47078">
        <ele>58.277745</ele>
        <time>2023-12-30T14:11:42.000Z</time>
      </trkpt>
      <trkpt lat="43.41771" lon="3.47081">
        <ele>58.330457</ele>
        <time>2023-12-30T14:11:43.000Z</time>
      </trkpt>
      <trkpt lat="43.4177" lon="3.47084">
        <ele>58.379991</ele>
        <time>2023-12-30T14:11:44.000Z</time>
      </trkpt>
      <trkpt lat="43.4177" lon="3.47086">
        <ele>58.418054</ele>
        <time>2023-12-30T14:11:45.000Z</time>
      </trkpt>
      <trkpt lat="43.4177" lon="3.47089">
        <ele>58.460564</ele>
        <time>2023-12-30T14:11:46.000Z</time>
      </trkpt>
      <trkpt lat="43.4177" lon="3.4709">
        <ele>58.491172</ele>
        <time>2023-12-30T14:11:47.000Z</time>
      </trkpt>
      <trkpt lat="43.4177" lon="3.47093">
        <ele>58.528581</ele>
        <time>2023-12-30T14:11:48.000Z</time>
      </trkpt>
      <trkpt lat="43.4177" lon="3.47096">
        <ele>58.580446</ele>
        <time>2023-12-30T14:11:49.000Z</time>
      </trkpt>
      <trkpt lat="43.41769" lon="3.47098">
        <ele>58.62618</ele>
        <time>2023-12-30T14:11:50.000Z</time>
      </trkpt>
      <trkpt lat="43.41768" lon="3.47101">
        <ele>58.677342</ele>
        <time>2023-12-30T14:11:51.000Z</time>
      </trkpt>
      <trkpt lat="43.41767" lon="3.47103">
        <ele>58.72004</ele>
        <time>2023-12-30T14:11:52.000Z</time>
      </trkpt>
      <trkpt lat="43.41766" lon="3.47106">
        <ele>58.770067</ele>
        <time>2023-12-30T14:11:53.000Z</time>
      </trkpt>
      <trkpt lat="43.41766" lon="3.47108">
        <ele>58.811937</ele>
        <time>2023-12-30T14:11:54.000Z</time>
      </trkpt>
      <trkpt lat="43.41765" lon="3.4711">
        <ele>58.847903</ele>
        <time>2023-12-30T14:11:55.000Z</time>
      </trkpt>
      <trkpt lat="43.41765" lon="3.47112">
        <ele>58.889459</ele>
        <time>2023-12-30T14:11:56.000Z</time>
      </trkpt>
      <trkpt lat="43.41764" lon="3.47114">
        <ele>58.931004</ele>
        <time>2023-12-30T14:11:57.000Z</time>
      </trkpt>
      <trkpt lat="43.41762" lon="3.47117">
        <ele>58.988804</ele>
        <time>2023-12-30T14:11:58.000Z</time>
      </trkpt>
      <trkpt lat="43.41761" lon="3.4712">
        <ele>59.04704</ele>
        <time>2023-12-30T14:11:59.000Z</time>
      </trkpt>
      <trkpt lat="43.4176" lon="3.47122">
        <ele>59.0926</ele>
        <time>2023-12-30T14:12:00.000Z</time>
      </trkpt>
      <trkpt lat="43.41761" lon="3.47124">
        <ele>59.119771</ele>
        <time>2023-12-30T14:12:01.000Z</time>
      </trkpt>
      <trkpt lat="43.4176" lon="3.47126">
        <ele>59.161326</ele>
        <time>2023-12-30T14:12:02.000Z</time>
      </trkpt>
      <trkpt lat="43.41759" lon="3.47128">
        <ele>59.208109</ele>
        <time>2023-12-30T14:12:03.000Z</time>
      </trkpt>
      <trkpt lat="43.41757" lon="3.47131">
        <ele>59.262261</ele>
        <time>2023-12-30T14:12:04.000Z</time>
      </trkpt>
      <trkpt lat="43.41755" lon="3.47134">
        <ele>59.336561</ele>
        <time>2023-12-30T14:12:05.000Z</time>
      </trkpt>
      <trkpt lat="43.41754" lon="3.47137">
        <ele>59.396292</ele>
        <time>2023-12-30T14:12:06.000Z</time>
      </trkpt>
      <trkpt lat="43.41754" lon="3.4714">
        <ele>59.445321</ele>
        <time>2023-12-30T14:12:07.000Z</time>
      </trkpt>
      <trkpt lat="43.41753" lon="3.47143">
        <ele>59.502149</ele>
        <time>2023-12-30T14:12:08.000Z</time>
      </trkpt>
      <trkpt lat="43.41752" lon="3.47146">
        <ele>59.556146</ele>
        <time>2023-12-30T14:12:09.000Z</time>
      </trkpt>
      <trkpt lat="43.41752" lon="3.47149">
        <ele>59.609726</ele>
        <time>2023-12-30T14:12:10.000Z</time>
      </trkpt>
      <trkpt lat="43.41751" lon="3.47153">
        <ele>59.669817</ele>
        <time>2023-12-30T14:12:11.000Z</time>
      </trkpt>
      <trkpt lat="43.41751" lon="3.47156">
        <ele>59.717944</ele>
        <time>2023-12-30T14:12:12.000Z</time>
      </trkpt>
      <trkpt lat="43.4175" lon="3.47159">
        <ele>59.770283</ele>
        <time>2023-12-30T14:12:13.000Z</time>
      </trkpt>
      <trkpt lat="43.4175" lon="3.47162">
        <ele>59.822621</ele>
        <time>2023-12-30T14:12:14.000Z</time>
      </trkpt>
      <trkpt lat="43.41749" lon="3.47165">
        <ele>59.877486</ele>
        <time>2023-12-30T14:12:15.000Z</time>
      </trkpt>
      <trkpt lat="43.41749" lon="3.47168">
        <ele>59.92702</ele>
        <time>2023-12-30T14:12:16.000Z</time>
      </trkpt>
      <trkpt lat="43.41749" lon="3.4717">
        <ele>59.972991</ele>
        <time>2023-12-30T14:12:17.000Z</time>
      </trkpt>
      <trkpt lat="43.41749" lon="3.47173">
        <ele>60.014068</ele>
        <time>2023-12-30T14:12:18.000Z</time>
      </trkpt>
      <trkpt lat="43.41749" lon="3.47175">
        <ele>60.058526</ele>
        <time>2023-12-30T14:12:19.000Z</time>
      </trkpt>
      <trkpt lat="43.41749" lon="3.47178">
        <ele>60.102799</ele>
        <time>2023-12-30T14:12:20.000Z</time>
      </trkpt>
      <trkpt lat="43.41749" lon="3.4718">
        <ele>60.143677</ele>
        <time>2023-12-30T14:12:21.000Z</time>
      </trkpt>
      <trkpt lat="43.41749" lon="3.47183">
        <ele>60.186251</ele>
        <time>2023-12-30T14:12:22.000Z</time>
      </trkpt>
      <trkpt lat="43.41749" lon="3.47185">
        <ele>60.231017</ele>
        <time>2023-12-30T14:12:23.000Z</time>
      </trkpt>
      <trkpt lat="43.41749" lon="3.47188">
        <ele>60.272887</ele>
        <time>2023-12-30T14:12:24.000Z</time>
      </trkpt>
      <trkpt lat="43.41748" lon="3.4719">
        <ele>60.311259</ele>
        <time>2023-12-30T14:12:25.000Z</time>
      </trkpt>
      <trkpt lat="43.41747" lon="3.47192">
        <ele>60.354419</ele>
        <time>2023-12-30T14:12:26.000Z</time>
      </trkpt>
      <trkpt lat="43.41747" lon="3.47195">
        <ele>60.397781</ele>
        <time>2023-12-30T14:12:27.000Z</time>
      </trkpt>
      <trkpt lat="43.41746" lon="3.47196">
        <ele>60.418554</ele>
        <time>2023-12-30T14:12:28.000Z</time>
      </trkpt>
      <trkpt lat="43.41745" lon="3.47197">
        <ele>60.450381</ele>
        <time>2023-12-30T14:12:29.000Z</time>
      </trkpt>
      <trkpt lat="43.41744" lon="3.47198">
        <ele>60.491203</ele>
        <time>2023-12-30T14:12:30.000Z</time>
      </trkpt>
      <trkpt lat="43.41742" lon="3.472">
        <ele>60.53171</ele>
        <time>2023-12-30T14:12:31.000Z</time>
      </trkpt>
      <trkpt lat="43.41741" lon="3.47202">
        <ele>60.577731</ele>
        <time>2023-12-30T14:12:32.000Z</time>
      </trkpt>
      <trkpt lat="43.41739" lon="3.47204">
        <ele>60.633722</ele>
        <time>2023-12-30T14:12:33.000Z</time>
      </trkpt>
      <trkpt lat="43.41737" lon="3.47205">
        <ele>60.677695</ele>
        <time>2023-12-30T14:12:34.000Z</time>
      </trkpt>
      <trkpt lat="43.41736" lon="3.47206">
        <ele>60.71883</ele>
        <time>2023-12-30T14:12:35.000Z</time>
      </trkpt>
      <trkpt lat="43.41734" lon="3.47206">
        <ele>60.748181</ele>
        <time>2023-12-30T14:12:36.000Z</time>
      </trkpt>
      <trkpt lat="43.41733" lon="3.47207">
        <ele>60.786249</ele>
        <time>2023-12-30T14:12:37.000Z</time>
      </trkpt>
      <trkpt lat="43.41731" lon="3.47207">
        <ele>60.829237</ele>
        <time>2023-12-30T14:12:38.000Z</time>
      </trkpt>
      <trkpt lat="43.41729" lon="3.47208">
        <ele>60.870321</ele>
        <time>2023-12-30T14:12:39.000Z</time>
      </trkpt>
      <trkpt lat="43.41727" lon="3.47208">
        <ele>60.926736</ele>
        <time>2023-12-30T14:12:40.000Z</time>
      </trkpt>
      <trkpt lat="43.41724" lon="3.47208">
        <ele>60.985483</ele>
        <time>2023-12-30T14:12:41.000Z</time>
      </trkpt>
      <trkpt lat="43.41722" lon="3.47209">
        <ele>61.051383</ele>
        <time>2023-12-30T14:12:42.000Z</time>
      </trkpt>
      <trkpt lat="43.41719" lon="3.47209">
        <ele>61.114612</ele>
        <time>2023-12-30T14:12:43.000Z</time>
      </trkpt>
      <trkpt lat="43.41716" lon="3.47209">
        <ele>61.184925</ele>
        <time>2023-12-30T14:12:44.000Z</time>
      </trkpt>
      <trkpt lat="43.41714" lon="3.47209">
        <ele>61.236455</ele>
        <time>2023-12-30T14:12:45.000Z</time>
      </trkpt>
      <trkpt lat="43.41711" lon="3.47209">
        <ele>61.290539</ele>
        <time>2023-12-30T14:12:46.000Z</time>
      </trkpt>
      <trkpt lat="43.41709" lon="3.4721">
        <ele>61.34112</ele>
        <time>2023-12-30T14:12:47.000Z</time>
      </trkpt>
      <trkpt lat="43.41707" lon="3.4721">
        <ele>61.395205</ele>
        <time>2023-12-30T14:12:48.000Z</time>
      </trkpt>
      <trkpt lat="43.41705" lon="3.47211">
        <ele>61.442148</ele>
        <time>2023-12-30T14:12:49.000Z</time>
      </trkpt>
      <trkpt lat="43.41703" lon="3.47211">
        <ele>61.491573</ele>
        <time>2023-12-30T14:12:50.000Z</time>
      </trkpt>
      <trkpt lat="43.41701" lon="3.47211">
        <ele>61.536182</ele>
        <time>2023-12-30T14:12:51.000Z</time>
      </trkpt>
      <trkpt lat="43.41699" lon="3.47211">
        <ele>61.583002</ele>
        <time>2023-12-30T14:12:52.000Z</time>
      </trkpt>
      <trkpt lat="43.41697" lon="3.47211">
        <ele>61.62514</ele>
        <time>2023-12-30T14:12:53.000Z</time>
      </trkpt>
      <trkpt lat="43.41695" lon="3.47212">
        <ele>61.670774</ele>
        <time>2023-12-30T14:12:54.000Z</time>
      </trkpt>
      <trkpt lat="43.41693" lon="3.47212">
        <ele>61.71577</ele>
        <time>2023-12-30T14:12:55.000Z</time>
      </trkpt>
      <trkpt lat="43.41691" lon="3.47213">
        <ele>61.765661</ele>
        <time>2023-12-30T14:12:56.000Z</time>
      </trkpt>
      <trkpt lat="43.41689" lon="3.47213">
        <ele>61.81397</ele>
        <time>2023-12-30T14:12:57.000Z</time>
      </trkpt>
      <trkpt lat="43.41687" lon="3.47214">
        <ele>61.866473</ele>
        <time>2023-12-30T14:12:58.000Z</time>
      </trkpt>
      <trkpt lat="43.41685" lon="3.47214">
        <ele>61.918087</ele>
        <time>2023-12-30T14:12:59.000Z</time>
      </trkpt>
      <trkpt lat="43.41683" lon="3.47215">
        <ele>61.972597</ele>
        <time>2023-12-30T14:13:00.000Z</time>
      </trkpt>
      <trkpt lat="43.41681" lon="3.47215">
        <ele>62.017206</ele>
        <time>2023-12-30T14:13:01.000Z</time>
      </trkpt>
      <trkpt lat="43.41679" lon="3.47215">
        <ele>62.064303</ele>
        <time>2023-12-30T14:13:02.000Z</time>
      </trkpt>
      <trkpt lat="43.41677" lon="3.47216">
        <ele>62.114512</ele>
        <time>2023-12-30T14:13:03.000Z</time>
      </trkpt>
      <trkpt lat="43.41674" lon="3.47217">
        <ele>62.166</ele>
        <time>2023-12-30T14:13:04.000Z</time>
      </trkpt>
      <trkpt lat="43.41672" lon="3.47217">
        <ele>62.21806</ele>
        <time>2023-12-30T14:13:05.000Z</time>
      </trkpt>
      <trkpt lat="43.4167" lon="3.47217">
        <ele>62.259983</ele>
        <time>2023-12-30T14:13:06.000Z</time>
      </trkpt>
      <trkpt lat="43.41667" lon="3.47218">
        <ele>62.302514</ele>
        <time>2023-12-30T14:13:07.000Z</time>
      </trkpt>
      <trkpt lat="43.41665" lon="3.47219">
        <ele>62.341885</ele>
        <time>2023-12-30T14:13:08.000Z</time>
      </trkpt>
      <trkpt lat="43.41663" lon="3.47219">
        <ele>62.380328</ele>
        <time>2023-12-30T14:13:09.000Z</time>
      </trkpt>
      <trkpt lat="43.41661" lon="3.47219">
        <ele>62.418708</ele>
        <time>2023-12-30T14:13:10.000Z</time>
      </trkpt>
      <trkpt lat="43.41659" lon="3.47219">
        <ele>62.451861</ele>
        <time>2023-12-30T14:13:11.000Z</time>
      </trkpt>
      <trkpt lat="43.41657" lon="3.4722">
        <ele>62.486156</ele>
        <time>2023-12-30T14:13:12.000Z</time>
      </trkpt>
      <trkpt lat="43.41655" lon="3.4722">
        <ele>62.523552</ele>
        <time>2023-12-30T14:13:13.000Z</time>
      </trkpt>
      <trkpt lat="43.41653" lon="3.47221">
        <ele>62.553436</ele>
        <time>2023-12-30T14:13:14.000Z</time>
      </trkpt>
      <trkpt lat="43.41652" lon="3.47221">
        <ele>62.583507</ele>
        <time>2023-12-30T14:13:15.000Z</time>
      </trkpt>
      <trkpt lat="43.41649" lon="3.47221">
        <ele>62.62021</ele>
        <time>2023-12-30T14:13:16.000Z</time>
      </trkpt>
      <trkpt lat="43.41648" lon="3.47222">
        <ele>62.65319</ele>
        <time>2023-12-30T14:13:17.000Z</time>
      </trkpt>
      <trkpt lat="43.41646" lon="3.47223">
        <ele>62.685482</ele>
        <time>2023-12-30T14:13:18.000Z</time>
      </trkpt>
      <trkpt lat="43.41644" lon="3.47223">
        <ele>62.72072</ele>
        <time>2023-12-30T14:13:19.000Z</time>
      </trkpt>
      <trkpt lat="43.41642" lon="3.47223">
        <ele>62.757424</ele>
        <time>2023-12-30T14:13:20.000Z</time>
      </trkpt>
      <trkpt lat="43.41639" lon="3.47223">
        <ele>62.797706</ele>
        <time>2023-12-30T14:13:21.000Z</time>
      </trkpt>
      <trkpt lat="43.41637" lon="3.47223">
        <ele>62.84137</ele>
        <time>2023-12-30T14:13:22.000Z</time>
      </trkpt>
      <trkpt lat="43.41634" lon="3.47222">
        <ele>62.885618</ele>
        <time>2023-12-30T14:13:23.000Z</time>
      </trkpt>
      <trkpt lat="43.41632" lon="3.47222">
        <ele>62.922256</ele>
        <time>2023-12-30T14:13:24.000Z</time>
      </trkpt>
      <trkpt lat="43.4163" lon="3.47221">
        <ele>62.956899</ele>
        <time>2023-12-30T14:13:25.000Z</time>
      </trkpt>
      <trkpt lat="43.41628" lon="3.4722">
        <ele>62.994451</ele>
        <time>2023-12-30T14:13:26.000Z</time>
      </trkpt>
      <trkpt lat="43.41627" lon="3.47219">
        <ele>63.029919</ele>
        <time>2023-12-30T14:13:27.000Z</time>
      </trkpt>
      <trkpt lat="43.41625" lon="3.47218">
        <ele>63.063309</ele>
        <time>2023-12-30T14:13:28.000Z</time>
      </trkpt>
      <trkpt lat="43.41623" lon="3.47217">
        <ele>63.100862</ele>
        <time>2023-12-30T14:13:29.000Z</time>
      </trkpt>
      <trkpt lat="43.41621" lon="3.47216">
        <ele>63.143121</ele>
        <time>2023-12-30T14:13:30.000Z</time>
      </trkpt>
      <trkpt lat="43.41618" lon="3.47214">
        <ele>63.184382</ele>
        <time>2023-12-30T14:13:31.000Z</time>
      </trkpt>
      <trkpt lat="43.41616" lon="3.47213">
        <ele>63.221376</ele>
        <time>2023-12-30T14:13:32.000Z</time>
      </trkpt>
      <trkpt lat="43.41614" lon="3.47212">
        <ele>63.258477</ele>
        <time>2023-12-30T14:13:33.000Z</time>
      </trkpt>
      <trkpt lat="43.41612" lon="3.47211">
        <ele>63.296469</ele>
        <time>2023-12-30T14:13:34.000Z</time>
      </trkpt>
      <trkpt lat="43.4161" lon="3.4721">
        <ele>63.336865</ele>
        <time>2023-12-30T14:13:35.000Z</time>
      </trkpt>
      <trkpt lat="43.41608" lon="3.47209">
        <ele>63.376577</ele>
        <time>2023-12-30T14:13:36.000Z</time>
      </trkpt>
      <trkpt lat="43.41606" lon="3.47208">
        <ele>63.41832</ele>
        <time>2023-12-30T14:13:37.000Z</time>
      </trkpt>
      <trkpt lat="43.41604" lon="3.47206">
        <ele>63.460064</ele>
        <time>2023-12-30T14:13:38.000Z</time>
      </trkpt>
      <trkpt lat="43.41602" lon="3.47205">
        <ele>63.493972</ele>
        <time>2023-12-30T14:13:39.000Z</time>
      </trkpt>
      <trkpt lat="43.416" lon="3.47204">
        <ele>63.533148</ele>
        <time>2023-12-30T14:13:40.000Z</time>
      </trkpt>
      <trkpt lat="43.41598" lon="3.47202">
        <ele>63.564746</ele>
        <time>2023-12-30T14:13:41.000Z</time>
      </trkpt>
      <trkpt lat="43.41597" lon="3.47202">
        <ele>63.597726</ele>
        <time>2023-12-30T14:13:42.000Z</time>
      </trkpt>
      <trkpt lat="43.41595" lon="3.472">
        <ele>63.631037</ele>
        <time>2023-12-30T14:13:43.000Z</time>
      </trkpt>
      <trkpt lat="43.41593" lon="3.472">
        <ele>63.664428</ele>
        <time>2023-12-30T14:13:44.000Z</time>
      </trkpt>
      <trkpt lat="43.41591" lon="3.47199">
        <ele>63.696186</ele>
        <time>2023-12-30T14:13:45.000Z</time>
      </trkpt>
      <trkpt lat="43.4159" lon="3.47198">
        <ele>63.724292</ele>
        <time>2023-12-30T14:13:46.000Z</time>
      </trkpt>
      <trkpt lat="43.41588" lon="3.47198">
        <ele>63.762735</ele>
        <time>2023-12-30T14:13:47.000Z</time>
      </trkpt>
      <trkpt lat="43.41585" lon="3.47198">
        <ele>63.804601</ele>
        <time>2023-12-30T14:13:48.000Z</time>
      </trkpt>
      <trkpt lat="43.41583" lon="3.47199">
        <ele>63.847407</ele>
        <time>2023-12-30T14:13:49.000Z</time>
      </trkpt>
      <trkpt lat="43.41581" lon="3.47201">
        <ele>63.88911</ele>
        <time>2023-12-30T14:13:50.000Z</time>
      </trkpt>
      <trkpt lat="43.4158" lon="3.47204">
        <ele>63.936287</ele>
        <time>2023-12-30T14:13:51.000Z</time>
      </trkpt>
      <trkpt lat="43.41579" lon="3.47208">
        <ele>63.984163</ele>
        <time>2023-12-30T14:13:52.000Z</time>
      </trkpt>
      <trkpt lat="43.41578" lon="3.4721">
        <ele>64.018763</ele>
        <time>2023-12-30T14:13:53.000Z</time>
      </trkpt>
      <trkpt lat="43.41577" lon="3.47213">
        <ele>64.059421</ele>
        <time>2023-12-30T14:13:54.000Z</time>
      </trkpt>
      <trkpt lat="43.41576" lon="3.47216">
        <ele>64.099329</ele>
        <time>2023-12-30T14:13:55.000Z</time>
      </trkpt>
      <trkpt lat="43.41576" lon="3.47219">
        <ele>64.138739</ele>
        <time>2023-12-30T14:13:56.000Z</time>
      </trkpt>
      <trkpt lat="43.41575" lon="3.47223">
        <ele>64.183917</ele>
        <time>2023-12-30T14:13:57.000Z</time>
      </trkpt>
      <trkpt lat="43.41574" lon="3.47226">
        <ele>64.225033</ele>
        <time>2023-12-30T14:13:58.000Z</time>
      </trkpt>
      <trkpt lat="43.41574" lon="3.47228">
        <ele>64.260795</ele>
        <time>2023-12-30T14:13:59.000Z</time>
      </trkpt>
      <trkpt lat="43.41573" lon="3.47231">
        <ele>64.294745</ele>
        <time>2023-12-30T14:14:00.000Z</time>
      </trkpt>
      <trkpt lat="43.41572" lon="3.47233">
        <ele>64.328679</ele>
        <time>2023-12-30T14:14:01.000Z</time>
      </trkpt>
      <trkpt lat="43.41571" lon="3.47235">
        <ele>64.360263</ele>
        <time>2023-12-30T14:14:02.000Z</time>
      </trkpt>
      <trkpt lat="43.4157" lon="3.47238">
        <ele>64.393708</ele>
        <time>2023-12-30T14:14:03.000Z</time>
      </trkpt>
      <trkpt lat="43.4157" lon="3.4724">
        <ele>64.422625</ele>
        <time>2023-12-30T14:14:04.000Z</time>
      </trkpt>
      <trkpt lat="43.41569" lon="3.47242">
        <ele>64.456834</ele>
        <time>2023-12-30T14:14:05.000Z</time>
      </trkpt>
      <trkpt lat="43.41568" lon="3.47244">
        <ele>64.491711</ele>
        <time>2023-12-30T14:14:06.000Z</time>
      </trkpt>
      <trkpt lat="43.41567" lon="3.47247">
        <ele>64.524581</ele>
        <time>2023-12-30T14:14:07.000Z</time>
      </trkpt>
      <trkpt lat="43.41566" lon="3.47249">
        <ele>64.5597</ele>
        <time>2023-12-30T14:14:08.000Z</time>
      </trkpt>
      <trkpt lat="43.41565" lon="3.47252">
        <ele>64.596632</ele>
        <time>2023-12-30T14:14:09.000Z</time>
      </trkpt>
      <trkpt lat="43.41564" lon="3.47254">
        <ele>64.62972</ele>
        <time>2023-12-30T14:14:10.000Z</time>
      </trkpt>
      <trkpt lat="43.41563" lon="3.47257">
        <ele>64.66981</ele>
        <time>2023-12-30T14:14:11.000Z</time>
      </trkpt>
      <trkpt lat="43.41562" lon="3.4726">
        <ele>64.704929</ele>
        <time>2023-12-30T14:14:12.000Z</time>
      </trkpt>
      <trkpt lat="43.41562" lon="3.47262">
        <ele>64.732426</ele>
        <time>2023-12-30T14:14:13.000Z</time>
      </trkpt>
      <trkpt lat="43.41561" lon="3.47263">
        <ele>64.754486</ele>
        <time>2023-12-30T14:14:14.000Z</time>
      </trkpt>
      <trkpt lat="43.41561" lon="3.47265">
        <ele>64.779877</ele>
        <time>2023-12-30T14:14:15.000Z</time>
      </trkpt>
      <trkpt lat="43.41561" lon="3.47267">
        <ele>64.804503</ele>
        <time>2023-12-30T14:14:16.000Z</time>
      </trkpt>
      <trkpt lat="43.4156" lon="3.47269">
        <ele>64.828441</ele>
        <time>2023-12-30T14:14:17.000Z</time>
      </trkpt>
      <trkpt lat="43.4156" lon="3.47271">
        <ele>64.854306</ele>
        <time>2023-12-30T14:14:18.000Z</time>
      </trkpt>
      <trkpt lat="43.4156" lon="3.47273">
        <ele>64.884713</ele>
        <time>2023-12-30T14:14:19.000Z</time>
      </trkpt>
      <trkpt lat="43.41559" lon="3.47275">
        <ele>64.910104</ele>
        <time>2023-12-30T14:14:20.000Z</time>
      </trkpt>
      <trkpt lat="43.41559" lon="3.47277">
        <ele>64.931635</ele>
        <time>2023-12-30T14:14:21.000Z</time>
      </trkpt>
      <trkpt lat="43.41559" lon="3.47279">
        <ele>64.95723</ele>
        <time>2023-12-30T14:14:22.000Z</time>
      </trkpt>
      <trkpt lat="43.41558" lon="3.4728">
        <ele>64.984656</ele>
        <time>2023-12-30T14:14:23.000Z</time>
      </trkpt>
      <trkpt lat="43.41556" lon="3.47281">
        <ele>65.013716</ele>
        <time>2023-12-30T14:14:24.000Z</time>
      </trkpt>
      <trkpt lat="43.41555" lon="3.47281">
        <ele>65.034639</ele>
        <time>2023-12-30T14:14:25.000Z</time>
      </trkpt>
      <trkpt lat="43.41554" lon="3.47281">
        <ele>65.060205</ele>
        <time>2023-12-30T14:14:26.000Z</time>
      </trkpt>
      <trkpt lat="43.41553" lon="3.47279">
        <ele>65.087911</ele>
        <time>2023-12-30T14:14:27.000Z</time>
      </trkpt>
      <trkpt lat="43.41552" lon="3.47276">
        <ele>65.122511</ele>
        <time>2023-12-30T14:14:28.000Z</time>
      </trkpt>
      <trkpt lat="43.41551" lon="3.47274">
        <ele>65.156445</ele>
        <time>2023-12-30T14:14:29.000Z</time>
      </trkpt>
      <trkpt lat="43.41551" lon="3.47271">
        <ele>65.19334</ele>
        <time>2023-12-30T14:14:30.000Z</time>
      </trkpt>
      <trkpt lat="43.41551" lon="3.47268">
        <ele>65.225433</ele>
        <time>2023-12-30T14:14:31.000Z</time>
      </trkpt>
      <trkpt lat="43.41551" lon="3.47266">
        <ele>65.259674</ele>
        <time>2023-12-30T14:14:32.000Z</time>
      </trkpt>
      <trkpt lat="43.4155" lon="3.47263">
        <ele>65.29771</ele>
        <time>2023-12-30T14:14:33.000Z</time>
      </trkpt>
      <trkpt lat="43.4155" lon="3.4726">
        <ele>65.333216</ele>
        <time>2023-12-30T14:14:34.000Z</time>
      </trkpt>
      <trkpt lat="43.41551" lon="3.47258">
        <ele>65.351845</ele>
        <time>2023-12-30T14:14:35.000Z</time>
      </trkpt>
      <trkpt lat="43.41551" lon="3.47256">
        <ele>65.340946</ele>
        <time>2023-12-30T14:14:36.000Z</time>
      </trkpt>
      <trkpt lat="43.41552" lon="3.47254">
        <ele>65.327051</ele>
        <time>2023-12-30T14:14:37.000Z</time>
      </trkpt>
      <trkpt lat="43.41553" lon="3.47251">
        <ele>65.311004</ele>
        <time>2023-12-30T14:14:38.000Z</time>
      </trkpt>
      <trkpt lat="43.41554" lon="3.47248">
        <ele>65.292839</ele>
        <time>2023-12-30T14:14:39.000Z</time>
      </trkpt>
      <trkpt lat="43.41555" lon="3.47245">
        <ele>65.27253</ele>
        <time>2023-12-30T14:14:40.000Z</time>
      </trkpt>
      <trkpt lat="43.41556" lon="3.47242">
        <ele>65.255175</ele>
        <time>2023-12-30T14:14:41.000Z</time>
      </trkpt>
      <trkpt lat="43.41557" lon="3.47239">
        <ele>65.238827</ele>
        <time>2023-12-30T14:14:42.000Z</time>
      </trkpt>
      <trkpt lat="43.41558" lon="3.47237">
        <ele>65.221977</ele>
        <time>2023-12-30T14:14:43.000Z</time>
      </trkpt>
      <trkpt lat="43.41559" lon="3.47234">
        <ele>65.207744</ele>
        <time>2023-12-30T14:14:44.000Z</time>
      </trkpt>
      <trkpt lat="43.41559" lon="3.47232">
        <ele>65.193776</ele>
        <time>2023-12-30T14:14:45.000Z</time>
      </trkpt>
      <trkpt lat="43.4156" lon="3.47229">
        <ele>65.179032</ele>
        <time>2023-12-30T14:14:46.000Z</time>
      </trkpt>
      <trkpt lat="43.41561" lon="3.47227">
        <ele>65.162736</ele>
        <time>2023-12-30T14:14:47.000Z</time>
      </trkpt>
      <trkpt lat="43.41562" lon="3.47224">
        <ele>65.145381</ele>
        <time>2023-12-30T14:14:48.000Z</time>
      </trkpt>
      <trkpt lat="43.41563" lon="3.47221">
        <ele>65.128703</ele>
        <time>2023-12-30T14:14:49.000Z</time>
      </trkpt>
      <trkpt lat="43.41563" lon="3.47218">
        <ele>65.111348</ele>
        <time>2023-12-30T14:14:50.000Z</time>
      </trkpt>
      <trkpt lat="43.41565" lon="3.47215">
        <ele>65.091649</ele>
        <time>2023-12-30T14:14:51.000Z</time>
      </trkpt>
      <trkpt lat="43.41566" lon="3.47212">
        <ele>65.074131</ele>
        <time>2023-12-30T14:14:52.000Z</time>
      </trkpt>
      <trkpt lat="43.41567" lon="3.4721">
        <ele>65.059849</ele>
        <time>2023-12-30T14:14:53.000Z</time>
      </trkpt>
      <trkpt lat="43.41568" lon="3.47207">
        <ele>65.042509</ele>
        <time>2023-12-30T14:14:54.000Z</time>
      </trkpt>
      <trkpt lat="43.41569" lon="3.47204">
        <ele>65.023338</ele>
        <time>2023-12-30T14:14:55.000Z</time>
      </trkpt>
      <trkpt lat="43.4157" lon="3.472">
        <ele>65.001337</ele>
        <time>2023-12-30T14:14:56.000Z</time>
      </trkpt>
      <trkpt lat="43.41571" lon="3.47197">
        <ele>64.982671</ele>
        <time>2023-12-30T14:14:57.000Z</time>
      </trkpt>
      <trkpt lat="43.41571" lon="3.47194">
        <ele>64.963752</ele>
        <time>2023-12-30T14:14:58.000Z</time>
      </trkpt>
      <trkpt lat="43.41573" lon="3.4719">
        <ele>64.940304</ele>
        <time>2023-12-30T14:14:59.000Z</time>
      </trkpt>
      <trkpt lat="43.41574" lon="3.47187">
        <ele>64.922139</ele>
        <time>2023-12-30T14:15:00.000Z</time>
      </trkpt>
      <trkpt lat="43.41574" lon="3.47184">
        <ele>64.90688</ele>
        <time>2023-12-30T14:15:01.000Z</time>
      </trkpt>
      <trkpt lat="43.41575" lon="3.47182">
        <ele>64.891546</ele>
        <time>2023-12-30T14:15:02.000Z</time>
      </trkpt>
      <trkpt lat="43.41576" lon="3.47178">
        <ele>64.872559</ele>
        <time>2023-12-30T14:15:03.000Z</time>
      </trkpt>
      <trkpt lat="43.41577" lon="3.47175">
        <ele>64.853077</ele>
        <time>2023-12-30T14:15:04.000Z</time>
      </trkpt>
      <trkpt lat="43.41578" lon="3.47173">
        <ele>64.841661</ele>
        <time>2023-12-30T14:15:05.000Z</time>
      </trkpt>
      <trkpt lat="43.41578" lon="3.47171">
        <ele>64.825884</ele>
        <time>2023-12-30T14:15:06.000Z</time>
      </trkpt>
      <trkpt lat="43.41578" lon="3.47167">
        <ele>64.808757</ele>
        <time>2023-12-30T14:15:07.000Z</time>
      </trkpt>
      <trkpt lat="43.41578" lon="3.47165">
        <ele>64.792727</ele>
        <time>2023-12-30T14:15:08.000Z</time>
      </trkpt>
      <trkpt lat="43.41578" lon="3.47162">
        <ele>64.781071</ele>
        <time>2023-12-30T14:15:09.000Z</time>
      </trkpt>
      <trkpt lat="43.41578" lon="3.47161">
        <ele>64.771594</ele>
        <time>2023-12-30T14:15:10.000Z</time>
      </trkpt>
      <trkpt lat="43.41579" lon="3.47159">
        <ele>64.7628</ele>
        <time>2023-12-30T14:15:11.000Z</time>
      </trkpt>
      <trkpt lat="43.41579" lon="3.47158">
        <ele>64.754234</ele>
        <time>2023-12-30T14:15:12.000Z</time>
      </trkpt>
      <trkpt lat="43.4158" lon="3.47157">
        <ele>64.744858</ele>
        <time>2023-12-30T14:15:13.000Z</time>
      </trkpt>
      <trkpt lat="43.41581" lon="3.47155">
        <ele>64.732202</ele>
        <time>2023-12-30T14:15:14.000Z</time>
      </trkpt>
      <trkpt lat="43.41583" lon="3.47154">
        <ele>64.719697</ele>
        <time>2023-12-30T14:15:15.000Z</time>
      </trkpt>
      <trkpt lat="43.41584" lon="3.47152">
        <ele>64.70409</ele>
        <time>2023-12-30T14:15:16.000Z</time>
      </trkpt>
      <trkpt lat="43.41585" lon="3.47148">
        <ele>64.684423</ele>
        <time>2023-12-30T14:15:17.000Z</time>
      </trkpt>
      <trkpt lat="43.41586" lon="3.47144">
        <ele>64.661378</ele>
        <time>2023-12-30T14:15:18.000Z</time>
      </trkpt>
      <trkpt lat="43.41587" lon="3.4714">
        <ele>64.638575</ele>
        <time>2023-12-30T14:15:19.000Z</time>
      </trkpt>
      <trkpt lat="43.41588" lon="3.47136">
        <ele>64.613957</ele>
        <time>2023-12-30T14:15:20.000Z</time>
      </trkpt>
      <trkpt lat="43.41589" lon="3.47132">
        <ele>64.588092</ele>
        <time>2023-12-30T14:15:21.000Z</time>
      </trkpt>
      <trkpt lat="43.4159" lon="3.47127">
        <ele>64.558675</ele>
        <time>2023-12-30T14:15:22.000Z</time>
      </trkpt>
      <trkpt lat="43.41591" lon="3.47122">
        <ele>64.531501</ele>
        <time>2023-12-30T14:15:23.000Z</time>
      </trkpt>
      <trkpt lat="43.41592" lon="3.47117">
        <ele>64.501899</ele>
        <time>2023-12-30T14:15:24.000Z</time>
      </trkpt>
      <trkpt lat="43.41593" lon="3.47112">
        <ele>64.475934</ele>
        <time>2023-12-30T14:15:25.000Z</time>
      </trkpt>
      <trkpt lat="43.41592" lon="3.47108">
        <ele>64.450518</ele>
        <time>2023-12-30T14:15:26.000Z</time>
      </trkpt>
      <trkpt lat="43.41594" lon="3.47102">
        <ele>64.419441</ele>
        <time>2023-12-30T14:15:27.000Z</time>
      </trkpt>
      <trkpt lat="43.41596" lon="3.47098">
        <ele>64.387662</ele>
        <time>2023-12-30T14:15:28.000Z</time>
      </trkpt>
      <trkpt lat="43.41599" lon="3.47095">
        <ele>64.361603</ele>
        <time>2023-12-30T14:15:29.000Z</time>
      </trkpt>
      <trkpt lat="43.41601" lon="3.47091">
        <ele>64.337044</ele>
        <time>2023-12-30T14:15:30.000Z</time>
      </trkpt>
      <trkpt lat="43.41602" lon="3.47086">
        <ele>64.309881</ele>
        <time>2023-12-30T14:15:31.000Z</time>
      </trkpt>
      <trkpt lat="43.41603" lon="3.47082">
        <ele>64.282941</ele>
        <time>2023-12-30T14:15:32.000Z</time>
      </trkpt>
      <trkpt lat="43.41605" lon="3.47078">
        <ele>64.258825</ele>
        <time>2023-12-30T14:15:33.000Z</time>
      </trkpt>
      <trkpt lat="43.41607" lon="3.47074">
        <ele>64.231647</ele>
        <time>2023-12-30T14:15:34.000Z</time>
      </trkpt>
      <trkpt lat="43.41609" lon="3.47071">
        <ele>64.205011</ele>
        <time>2023-12-30T14:15:35.000Z</time>
      </trkpt>
      <trkpt lat="43.41611" lon="3.47068">
        <ele>64.183108</ele>
        <time>2023-12-30T14:15:36.000Z</time>
      </trkpt>
      <trkpt lat="43.41613" lon="3.47064">
        <ele>64.15768</ele>
        <time>2023-12-30T14:15:37.000Z</time>
      </trkpt>
      <trkpt lat="43.41614" lon="3.47059">
        <ele>64.130334</ele>
        <time>2023-12-30T14:15:38.000Z</time>
      </trkpt>
      <trkpt lat="43.41614" lon="3.47054">
        <ele>64.105466</ele>
        <time>2023-12-30T14:15:39.000Z</time>
      </trkpt>
      <trkpt lat="43.41614" lon="3.47051">
        <ele>64.084336</ele>
        <time>2023-12-30T14:15:40.000Z</time>
      </trkpt>
      <trkpt lat="43.41616" lon="3.47047">
        <ele>64.062037</ele>
        <time>2023-12-30T14:15:41.000Z</time>
      </trkpt>
      <trkpt lat="43.41618" lon="3.47044">
        <ele>64.039628</ele>
        <time>2023-12-30T14:15:42.000Z</time>
      </trkpt>
      <trkpt lat="43.4162" lon="3.47041">
        <ele>64.015624</ele>
        <time>2023-12-30T14:15:43.000Z</time>
      </trkpt>
      <trkpt lat="43.41623" lon="3.47038">
        <ele>63.991712</ele>
        <time>2023-12-30T14:15:44.000Z</time>
      </trkpt>
      <trkpt lat="43.41625" lon="3.47034">
        <ele>64.020945</ele>
        <time>2023-12-30T14:15:45.000Z</time>
      </trkpt>
      <trkpt lat="43.41627" lon="3.4703">
        <ele>64.053227</ele>
        <time>2023-12-30T14:15:46.000Z</time>
      </trkpt>
      <trkpt lat="43.41628" lon="3.47026">
        <ele>64.081911</ele>
        <time>2023-12-30T14:15:47.000Z</time>
      </trkpt>
      <trkpt lat="43.4163" lon="3.47022">
        <ele>64.109174</ele>
        <time>2023-12-30T14:15:48.000Z</time>
      </trkpt>
      <trkpt lat="43.41632" lon="3.47018">
        <ele>64.141447</ele>
        <time>2023-12-30T14:15:49.000Z</time>
      </trkpt>
      <trkpt lat="43.41634" lon="3.47014">
        <ele>64.174379</ele>
        <time>2023-12-30T14:15:50.000Z</time>
      </trkpt>
      <trkpt lat="43.41636" lon="3.47011">
        <ele>64.202078</ele>
        <time>2023-12-30T14:15:51.000Z</time>
      </trkpt>
      <trkpt lat="43.41639" lon="3.47008">
        <ele>64.233335</ele>
        <time>2023-12-30T14:15:52.000Z</time>
      </trkpt>
      <trkpt lat="43.41641" lon="3.47004">
        <ele>64.262164</ele>
        <time>2023-12-30T14:15:53.000Z</time>
      </trkpt>
      <trkpt lat="43.41643" lon="3.47">
        <ele>64.28914</ele>
        <time>2023-12-30T14:15:54.000Z</time>
      </trkpt>
      <trkpt lat="43.41643" lon="3.46996">
        <ele>64.318472</ele>
        <time>2023-12-30T14:15:55.000Z</time>
      </trkpt>
      <trkpt lat="43.41645" lon="3.46991">
        <ele>64.348533</ele>
        <time>2023-12-30T14:15:56.000Z</time>
      </trkpt>
      <trkpt lat="43.41647" lon="3.46987">
        <ele>64.380329</ele>
        <time>2023-12-30T14:15:57.000Z</time>
      </trkpt>
      <trkpt lat="43.41648" lon="3.46983">
        <ele>64.411325</ele>
        <time>2023-12-30T14:15:58.000Z</time>
      </trkpt>
      <trkpt lat="43.41649" lon="3.46978">
        <ele>64.443324</ele>
        <time>2023-12-30T14:15:59.000Z</time>
      </trkpt>
      <trkpt lat="43.4165" lon="3.46973">
        <ele>64.477544</ele>
        <time>2023-12-30T14:16:00.000Z</time>
      </trkpt>
      <trkpt lat="43.41653" lon="3.46969">
        <ele>64.512003</ele>
        <time>2023-12-30T14:16:01.000Z</time>
      </trkpt>
      <trkpt lat="43.41656" lon="3.46966">
        <ele>64.54432</ele>
        <time>2023-12-30T14:16:02.000Z</time>
      </trkpt>
      <trkpt lat="43.41659" lon="3.46963">
        <ele>64.576862</ele>
        <time>2023-12-30T14:16:03.000Z</time>
      </trkpt>
      <trkpt lat="43.4166" lon="3.46959">
        <ele>64.603276</ele>
        <time>2023-12-30T14:16:04.000Z</time>
      </trkpt>
      <trkpt lat="43.41662" lon="3.46954">
        <ele>64.634853</ele>
        <time>2023-12-30T14:16:05.000Z</time>
      </trkpt>
      <trkpt lat="43.41663" lon="3.4695">
        <ele>64.667601</ele>
        <time>2023-12-30T14:16:06.000Z</time>
      </trkpt>
      <trkpt lat="43.41664" lon="3.46944">
        <ele>64.700937</ele>
        <time>2023-12-30T14:16:07.000Z</time>
      </trkpt>
      <trkpt lat="43.41664" lon="3.46939">
        <ele>64.733797</ele>
        <time>2023-12-30T14:16:08.000Z</time>
      </trkpt>
      <trkpt lat="43.41666" lon="3.46935">
        <ele>64.766474</ele>
        <time>2023-12-30T14:16:09.000Z</time>
      </trkpt>
      <trkpt lat="43.41669" lon="3.46933">
        <ele>64.792749</ele>
        <time>2023-12-30T14:16:10.000Z</time>
      </trkpt>
      <trkpt lat="43.4167" lon="3.4693">
        <ele>64.812733</ele>
        <time>2023-12-30T14:16:11.000Z</time>
      </trkpt>
      <trkpt lat="43.41671" lon="3.46925">
        <ele>64.842181</ele>
        <time>2023-12-30T14:16:12.000Z</time>
      </trkpt>
      <trkpt lat="43.4167" lon="3.4692">
        <ele>64.878943</ele>
        <time>2023-12-30T14:16:13.000Z</time>
      </trkpt>
      <trkpt lat="43.41671" lon="3.46913">
        <ele>64.918812</ele>
        <time>2023-12-30T14:16:14.000Z</time>
      </trkpt>
      <trkpt lat="43.41673" lon="3.46908">
        <ele>64.957501</ele>
        <time>2023-12-30T14:16:15.000Z</time>
      </trkpt>
      <trkpt lat="43.41675" lon="3.46903">
        <ele>64.992536</ele>
        <time>2023-12-30T14:16:16.000Z</time>
      </trkpt>
      <trkpt lat="43.41676" lon="3.46897">
        <ele>65.029502</ele>
        <time>2023-12-30T14:16:17.000Z</time>
      </trkpt>
      <trkpt lat="43.41677" lon="3.46892">
        <ele>65.065967</ele>
        <time>2023-12-30T14:16:18.000Z</time>
      </trkpt>
      <trkpt lat="43.41677" lon="3.46886">
        <ele>65.1002</ele>
        <time>2023-12-30T14:16:19.000Z</time>
      </trkpt>
      <trkpt lat="43.41677" lon="3.46882">
        <ele>65.129324</ele>
        <time>2023-12-30T14:16:20.000Z</time>
      </trkpt>
      <trkpt lat="43.41678" lon="3.46878">
        <ele>65.154913</ele>
        <time>2023-12-30T14:16:21.000Z</time>
      </trkpt>
      <trkpt lat="43.4168" lon="3.46874">
        <ele>65.185745</ele>
        <time>2023-12-30T14:16:22.000Z</time>
      </trkpt>
      <trkpt lat="43.41683" lon="3.46872">
        <ele>65.213758</ele>
        <time>2023-12-30T14:16:23.000Z</time>
      </trkpt>
      <trkpt lat="43.41685" lon="3.46869">
        <ele>65.239301</ele>
        <time>2023-12-30T14:16:24.000Z</time>
      </trkpt>
      <trkpt lat="43.41687" lon="3.46867">
        <ele>65.264456</ele>
        <time>2023-12-30T14:16:25.000Z</time>
      </trkpt>
      <trkpt lat="43.41689" lon="3.46863">
        <ele>65.289576</ele>
        <time>2023-12-30T14:16:26.000Z</time>
      </trkpt>
      <trkpt lat="43.4169" lon="3.46859">
        <ele>65.320962</ele>
        <time>2023-12-30T14:16:27.000Z</time>
      </trkpt>
      <trkpt lat="43.41691" lon="3.46853">
        <ele>65.35578</ele>
        <time>2023-12-30T14:16:28.000Z</time>
      </trkpt>
      <trkpt lat="43.41694" lon="3.46849">
        <ele>65.391638</ele>
        <time>2023-12-30T14:16:29.000Z</time>
      </trkpt>
      <trkpt lat="43.41695" lon="3.46844">
        <ele>65.425858</ele>
        <time>2023-12-30T14:16:30.000Z</time>
      </trkpt>
      <trkpt lat="43.41696" lon="3.46838">
        <ele>65.462368</ele>
        <time>2023-12-30T14:16:31.000Z</time>
      </trkpt>
      <trkpt lat="43.41698" lon="3.46833">
        <ele>65.497535</ele>
        <time>2023-12-30T14:16:32.000Z</time>
      </trkpt>
      <trkpt lat="43.417" lon="3.46829">
        <ele>65.529298</ele>
        <time>2023-12-30T14:16:33.000Z</time>
      </trkpt>
      <trkpt lat="43.41701" lon="3.46825">
        <ele>65.557981</ele>
        <time>2023-12-30T14:16:34.000Z</time>
      </trkpt>
      <trkpt lat="43.41702" lon="3.46821">
        <ele>65.53703</ele>
        <time>2023-12-30T14:16:35.000Z</time>
      </trkpt>
      <trkpt lat="43.41703" lon="3.46817">
        <ele>65.512132</ele>
        <time>2023-12-30T14:16:36.000Z</time>
      </trkpt>
      <trkpt lat="43.41704" lon="3.46812">
        <ele>65.484125</ele>
        <time>2023-12-30T14:16:37.000Z</time>
      </trkpt>
      <trkpt lat="43.41706" lon="3.46807">
        <ele>65.45543</ele>
        <time>2023-12-30T14:16:38.000Z</time>
      </trkpt>
      <trkpt lat="43.41709" lon="3.46802">
        <ele>65.423525</ele>
        <time>2023-12-30T14:16:39.000Z</time>
      </trkpt>
      <trkpt lat="43.41711" lon="3.46798">
        <ele>65.394831</ele>
        <time>2023-12-30T14:16:40.000Z</time>
      </trkpt>
      <trkpt lat="43.41712" lon="3.46793">
        <ele>65.367106</ele>
        <time>2023-12-30T14:16:41.000Z</time>
      </trkpt>
      <trkpt lat="43.41714" lon="3.46788">
        <ele>65.339233</ele>
        <time>2023-12-30T14:16:42.000Z</time>
      </trkpt>
      <trkpt lat="43.41715" lon="3.46783">
        <ele>65.309465</ele>
        <time>2023-12-30T14:16:43.000Z</time>
      </trkpt>
      <trkpt lat="43.41716" lon="3.46777">
        <ele>65.278246</ele>
        <time>2023-12-30T14:16:44.000Z</time>
      </trkpt>
      <trkpt lat="43.41717" lon="3.46772">
        <ele>65.249514</ele>
        <time>2023-12-30T14:16:45.000Z</time>
      </trkpt>
      <trkpt lat="43.41718" lon="3.46767">
        <ele>65.221301</ele>
        <time>2023-12-30T14:16:46.000Z</time>
      </trkpt>
      <trkpt lat="43.41719" lon="3.46763">
        <ele>65.196402</ele>
        <time>2023-12-30T14:16:47.000Z</time>
      </trkpt>
      <trkpt lat="43.4172" lon="3.4676">
        <ele>65.176735</ele>
        <time>2023-12-30T14:16:48.000Z</time>
      </trkpt>
      <trkpt lat="43.41722" lon="3.46758">
        <ele>65.16083</ele>
        <time>2023-12-30T14:16:49.000Z</time>
      </trkpt>
      <trkpt lat="43.41724" lon="3.46755">
        <ele>65.138543</ele>
        <time>2023-12-30T14:16:50.000Z</time>
      </trkpt>
      <trkpt lat="43.41725" lon="3.46751">
        <ele>65.114822</ele>
        <time>2023-12-30T14:16:51.000Z</time>
      </trkpt>
      <trkpt lat="43.41725" lon="3.46746">
        <ele>65.088318</ele>
        <time>2023-12-30T14:16:52.000Z</time>
      </trkpt>
      <trkpt lat="43.41725" lon="3.46742">
        <ele>65.065048</ele>
        <time>2023-12-30T14:16:53.000Z</time>
      </trkpt>
      <trkpt lat="43.41725" lon="3.46737">
        <ele>65.040162</ele>
        <time>2023-12-30T14:16:54.000Z</time>
      </trkpt>
      <trkpt lat="43.41724" lon="3.46733">
        <ele>65.017631</ele>
        <time>2023-12-30T14:16:55.000Z</time>
      </trkpt>
      <trkpt lat="43.41724" lon="3.46729">
        <ele>64.995489</ele>
        <time>2023-12-30T14:16:56.000Z</time>
      </trkpt>
      <trkpt lat="43.41726" lon="3.46725">
        <ele>64.970131</ele>
        <time>2023-12-30T14:16:57.000Z</time>
      </trkpt>
      <trkpt lat="43.41729" lon="3.46721">
        <ele>64.940641</ele>
        <time>2023-12-30T14:16:58.000Z</time>
      </trkpt>
      <trkpt lat="43.41731" lon="3.46717">
        <ele>64.911593</ele>
        <time>2023-12-30T14:16:59.000Z</time>
      </trkpt>
      <trkpt lat="43.41733" lon="3.46711">
        <ele>64.879674</ele>
        <time>2023-12-30T14:17:00.000Z</time>
      </trkpt>
      <trkpt lat="43.41735" lon="3.46706">
        <ele>64.848848</ele>
        <time>2023-12-30T14:17:01.000Z</time>
      </trkpt>
      <trkpt lat="43.41736" lon="3.46701">
        <ele>64.818711</ele>
        <time>2023-12-30T14:17:02.000Z</time>
      </trkpt>
      <trkpt lat="43.41737" lon="3.46696">
        <ele>64.788556</ele>
        <time>2023-12-30T14:17:03.000Z</time>
      </trkpt>
      <trkpt lat="43.41737" lon="3.46691">
        <ele>64.760974</ele>
        <time>2023-12-30T14:17:04.000Z</time>
      </trkpt>
      <trkpt lat="43.41739" lon="3.46687">
        <ele>64.734252</ele>
        <time>2023-12-30T14:17:05.000Z</time>
      </trkpt>
      <trkpt lat="43.41742" lon="3.46683">
        <ele>64.706701</ele>
        <time>2023-12-30T14:17:06.000Z</time>
      </trkpt>
      <trkpt lat="43.41743" lon="3.46678">
        <ele>64.677653</ele>
        <time>2023-12-30T14:17:07.000Z</time>
      </trkpt>
      <trkpt lat="43.41744" lon="3.46673">
        <ele>64.649861</ele>
        <time>2023-12-30T14:17:08.000Z</time>
      </trkpt>
      <trkpt lat="43.41744" lon="3.46667">
        <ele>64.620689</ele>
        <time>2023-12-30T14:17:09.000Z</time>
      </trkpt>
      <trkpt lat="43.41744" lon="3.46663">
        <ele>64.594671</ele>
        <time>2023-12-30T14:17:10.000Z</time>
      </trkpt>
      <trkpt lat="43.41745" lon="3.46658">
        <ele>64.565456</ele>
        <time>2023-12-30T14:17:11.000Z</time>
      </trkpt>
      <trkpt lat="43.41746" lon="3.46652">
        <ele>64.534491</ele>
        <time>2023-12-30T14:17:12.000Z</time>
      </trkpt>
      <trkpt lat="43.41747" lon="3.46647">
        <ele>64.505244</ele>
        <time>2023-12-30T14:17:13.000Z</time>
      </trkpt>
      <trkpt lat="43.41747" lon="3.46642">
        <ele>64.479279</ele>
        <time>2023-12-30T14:17:14.000Z</time>
      </trkpt>
      <trkpt lat="43.41747" lon="3.46637">
        <ele>64.452113</ele>
        <time>2023-12-30T14:17:15.000Z</time>
      </trkpt>
      <trkpt lat="43.41747" lon="3.46632">
        <ele>64.42726</ele>
        <time>2023-12-30T14:17:16.000Z</time>
      </trkpt>
      <trkpt lat="43.41747" lon="3.46628">
        <ele>64.403486</ele>
        <time>2023-12-30T14:17:17.000Z</time>
      </trkpt>
      <trkpt lat="43.41747" lon="3.46625">
        <ele>64.386189</ele>
        <time>2023-12-30T14:17:18.000Z</time>
      </trkpt>
      <trkpt lat="43.41748" lon="3.46623">
        <ele>64.372991</ele>
        <time>2023-12-30T14:17:19.000Z</time>
      </trkpt>
      <trkpt lat="43.41749" lon="3.4662">
        <ele>64.355943</ele>
        <time>2023-12-30T14:17:20.000Z</time>
      </trkpt>
      <trkpt lat="43.41751" lon="3.46617">
        <ele>64.338028</ele>
        <time>2023-12-30T14:17:21.000Z</time>
      </trkpt>
      <trkpt lat="43.41752" lon="3.46614">
        <ele>64.319395</ele>
        <time>2023-12-30T14:17:22.000Z</time>
      </trkpt>
      <trkpt lat="43.41752" lon="3.4661">
        <ele>64.298008</ele>
        <time>2023-12-30T14:17:23.000Z</time>
      </trkpt>
      <trkpt lat="43.41753" lon="3.46607">
        <ele>64.279112</ele>
        <time>2023-12-30T14:17:24.000Z</time>
      </trkpt>
      <trkpt lat="43.41753" lon="3.46603">
        <ele>64.259007</ele>
        <time>2023-12-30T14:17:25.000Z</time>
      </trkpt>
      <trkpt lat="43.41753" lon="3.466">
        <ele>64.238682</ele>
        <time>2023-12-30T14:17:26.000Z</time>
      </trkpt>
      <trkpt lat="43.41752" lon="3.46594">
        <ele>64.175313</ele>
        <time>2023-12-30T14:17:27.000Z</time>
      </trkpt>
      <trkpt lat="43.41752" lon="3.46589">
        <ele>64.052792</ele>
        <time>2023-12-30T14:17:28.000Z</time>
      </trkpt>
      <trkpt lat="43.41754" lon="3.46585">
        <ele>63.946489</ele>
        <time>2023-12-30T14:17:29.000Z</time>
      </trkpt>
      <trkpt lat="43.41754" lon="3.4658">
        <ele>63.827445</ele>
        <time>2023-12-30T14:17:30.000Z</time>
      </trkpt>
      <trkpt lat="43.41754" lon="3.46575">
        <ele>63.707278</ele>
        <time>2023-12-30T14:17:31.000Z</time>
      </trkpt>
      <trkpt lat="43.41754" lon="3.46571">
        <ele>63.60344</ele>
        <time>2023-12-30T14:17:32.000Z</time>
      </trkpt>
      <trkpt lat="43.41755" lon="3.46566">
        <ele>63.503195</ele>
        <time>2023-12-30T14:17:33.000Z</time>
      </trkpt>
      <trkpt lat="43.41755" lon="3.46562">
        <ele>63.401708</ele>
        <time>2023-12-30T14:17:34.000Z</time>
      </trkpt>
      <trkpt lat="43.41756" lon="3.46559">
        <ele>63.312673</ele>
        <time>2023-12-30T14:17:35.000Z</time>
      </trkpt>
      <trkpt lat="43.41758" lon="3.46557">
        <ele>63.228459</ele>
        <time>2023-12-30T14:17:36.000Z</time>
      </trkpt>
      <trkpt lat="43.4176" lon="3.46555">
        <ele>63.152241</ele>
        <time>2023-12-30T14:17:37.000Z</time>
      </trkpt>
      <trkpt lat="43.41762" lon="3.46552">
        <ele>63.072177</ele>
        <time>2023-12-30T14:17:38.000Z</time>
      </trkpt>
      <trkpt lat="43.41762" lon="3.46549">
        <ele>62.986828</ele>
        <time>2023-12-30T14:17:39.000Z</time>
      </trkpt>
      <trkpt lat="43.41762" lon="3.46545">
        <ele>62.906484</ele>
        <time>2023-12-30T14:17:40.000Z</time>
      </trkpt>
      <trkpt lat="43.41762" lon="3.46541">
        <ele>62.809426</ele>
        <time>2023-12-30T14:17:41.000Z</time>
      </trkpt>
      <trkpt lat="43.41763" lon="3.46537">
        <ele>62.691954</ele>
        <time>2023-12-30T14:17:42.000Z</time>
      </trkpt>
      <trkpt lat="43.41765" lon="3.46533">
        <ele>62.575707</ele>
        <time>2023-12-30T14:17:43.000Z</time>
      </trkpt>
      <trkpt lat="43.41765" lon="3.46529">
        <ele>62.479084</ele>
        <time>2023-12-30T14:17:44.000Z</time>
      </trkpt>
      <trkpt lat="43.41765" lon="3.46525">
        <ele>62.387168</ele>
        <time>2023-12-30T14:17:45.000Z</time>
      </trkpt>
      <trkpt lat="43.41765" lon="3.4652">
        <ele>62.285836</ele>
        <time>2023-12-30T14:17:46.000Z</time>
      </trkpt>
      <trkpt lat="43.41764" lon="3.46515">
        <ele>62.15827</ele>
        <time>2023-12-30T14:17:47.000Z</time>
      </trkpt>
      <trkpt lat="43.41764" lon="3.4651">
        <ele>62.037972</ele>
        <time>2023-12-30T14:17:48.000Z</time>
      </trkpt>
      <trkpt lat="43.41764" lon="3.46505">
        <ele>61.907417</ele>
        <time>2023-12-30T14:17:49.000Z</time>
      </trkpt>
      <trkpt lat="43.41765" lon="3.46499">
        <ele>61.771591</ele>
        <time>2023-12-30T14:17:50.000Z</time>
      </trkpt>
      <trkpt lat="43.41766" lon="3.46493">
        <ele>61.621478</ele>
        <time>2023-12-30T14:17:51.000Z</time>
      </trkpt>
      <trkpt lat="43.41766" lon="3.46487">
        <ele>61.484868</ele>
        <time>2023-12-30T14:17:52.000Z</time>
      </trkpt>
      <trkpt lat="43.41765" lon="3.46483">
        <ele>61.390175</ele>
        <time>2023-12-30T14:17:53.000Z</time>
      </trkpt>
      <trkpt lat="43.41763" lon="3.46479">
        <ele>61.258641</ele>
        <time>2023-12-30T14:17:54.000Z</time>
      </trkpt>
      <trkpt lat="43.41761" lon="3.46473">
        <ele>61.105884</ele>
        <time>2023-12-30T14:17:55.000Z</time>
      </trkpt>
      <trkpt lat="43.41759" lon="3.46467">
        <ele>60.955928</ele>
        <time>2023-12-30T14:17:56.000Z</time>
      </trkpt>
      <trkpt lat="43.41757" lon="3.46463">
        <ele>60.841446</ele>
        <time>2023-12-30T14:17:57.000Z</time>
      </trkpt>
      <trkpt lat="43.41757" lon="3.46458">
        <ele>60.742937</ele>
        <time>2023-12-30T14:17:58.000Z</time>
      </trkpt>
      <trkpt lat="43.41756" lon="3.46455">
        <ele>60.669633</ele>
        <time>2023-12-30T14:17:59.000Z</time>
      </trkpt>
      <trkpt lat="43.41757" lon="3.46453">
        <ele>60.600952</ele>
        <time>2023-12-30T14:18:00.000Z</time>
      </trkpt>
      <trkpt lat="43.41757" lon="3.4645">
        <ele>60.532339</ele>
        <time>2023-12-30T14:18:01.000Z</time>
      </trkpt>
      <trkpt lat="43.41756" lon="3.46448">
        <ele>60.462262</ele>
        <time>2023-12-30T14:18:02.000Z</time>
      </trkpt>
      <trkpt lat="43.41754" lon="3.46448">
        <ele>60.410166</ele>
        <time>2023-12-30T14:18:03.000Z</time>
      </trkpt>
      <trkpt lat="43.41753" lon="3.46448">
        <ele>60.360622</ele>
        <time>2023-12-30T14:18:04.000Z</time>
      </trkpt>
      <trkpt lat="43.4175" lon="3.46447">
        <ele>60.285448</ele>
        <time>2023-12-30T14:18:05.000Z</time>
      </trkpt>
      <trkpt lat="43.41748" lon="3.46447">
        <ele>60.194379</ele>
        <time>2023-12-30T14:18:06.000Z</time>
      </trkpt>
      <trkpt lat="43.41745" lon="3.46447">
        <ele>60.102824</ele>
        <time>2023-12-30T14:18:07.000Z</time>
      </trkpt>
      <trkpt lat="43.41742" lon="3.46446">
        <ele>60.006427</ele>
        <time>2023-12-30T14:18:08.000Z</time>
      </trkpt>
      <trkpt lat="43.4174" lon="3.46445">
        <ele>59.927331</ele>
        <time>2023-12-30T14:18:09.000Z</time>
      </trkpt>
      <trkpt lat="43.41737" lon="3.46444">
        <ele>59.847723</ele>
        <time>2023-12-30T14:18:10.000Z</time>
      </trkpt>
      <trkpt lat="43.41736" lon="3.46442">
        <ele>59.771216</ele>
        <time>2023-12-30T14:18:11.000Z</time>
      </trkpt>
      <trkpt lat="43.41734" lon="3.46439">
        <ele>59.692604</ele>
        <time>2023-12-30T14:18:12.000Z</time>
      </trkpt>
      <trkpt lat="43.41735" lon="3.46436">
        <ele>59.623844</ele>
        <time>2023-12-30T14:18:13.000Z</time>
      </trkpt>
      <trkpt lat="43.41736" lon="3.46432">
        <ele>59.530657</ele>
        <time>2023-12-30T14:18:14.000Z</time>
      </trkpt>
      <trkpt lat="43.41737" lon="3.46429">
        <ele>59.436516</ele>
        <time>2023-12-30T14:18:15.000Z</time>
      </trkpt>
      <trkpt lat="43.41738" lon="3.46425">
        <ele>59.331018</ele>
        <time>2023-12-30T14:18:16.000Z</time>
      </trkpt>
      <trkpt lat="43.41739" lon="3.46422">
        <ele>59.24828</ele>
        <time>2023-12-30T14:18:17.000Z</time>
      </trkpt>
      <trkpt lat="43.41741" lon="3.46418">
        <ele>59.160614</ele>
        <time>2023-12-30T14:18:18.000Z</time>
      </trkpt>
      <trkpt lat="43.41743" lon="3.46414">
        <ele>59.048151</ele>
        <time>2023-12-30T14:18:19.000Z</time>
      </trkpt>
      <trkpt lat="43.41745" lon="3.46411">
        <ele>58.933446</ele>
        <time>2023-12-30T14:18:20.000Z</time>
      </trkpt>
      <trkpt lat="43.41746" lon="3.46408">
        <ele>58.858174</ele>
        <time>2023-12-30T14:18:21.000Z</time>
      </trkpt>
      <trkpt lat="43.41746" lon="3.46404">
        <ele>58.761387</ele>
        <time>2023-12-30T14:18:22.000Z</time>
      </trkpt>
      <trkpt lat="43.41747" lon="3.46399">
        <ele>58.655295</ele>
        <time>2023-12-30T14:18:23.000Z</time>
      </trkpt>
      <trkpt lat="43.41748" lon="3.46394">
        <ele>58.536745</ele>
        <time>2023-12-30T14:18:24.000Z</time>
      </trkpt>
      <trkpt lat="43.41749" lon="3.46391">
        <ele>58.441304</ele>
        <time>2023-12-30T14:18:25.000Z</time>
      </trkpt>
      <trkpt lat="43.41751" lon="3.46387">
        <ele>58.350683</ele>
        <time>2023-12-30T14:18:26.000Z</time>
      </trkpt>
      <trkpt lat="43.41753" lon="3.46382">
        <ele>58.262791</ele>
        <time>2023-12-30T14:18:27.000Z</time>
      </trkpt>
      <trkpt lat="43.41755" lon="3.46377">
        <ele>58.162516</ele>
        <time>2023-12-30T14:18:28.000Z</time>
      </trkpt>
      <trkpt lat="43.41757" lon="3.46373">
        <ele>58.074893</ele>
        <time>2023-12-30T14:18:29.000Z</time>
      </trkpt>
      <trkpt lat="43.41758" lon="3.46369">
        <ele>58.008507</ele>
        <time>2023-12-30T14:18:30.000Z</time>
      </trkpt>
      <trkpt lat="43.41759" lon="3.46365">
        <ele>57.932962</ele>
        <time>2023-12-30T14:18:31.000Z</time>
      </trkpt>
      <trkpt lat="43.41761" lon="3.46361">
        <ele>57.854964</ele>
        <time>2023-12-30T14:18:32.000Z</time>
      </trkpt>
      <trkpt lat="43.41764" lon="3.46357">
        <ele>57.764895</ele>
        <time>2023-12-30T14:18:33.000Z</time>
      </trkpt>
      <trkpt lat="43.41766" lon="3.46352">
        <ele>57.669473</ele>
        <time>2023-12-30T14:18:34.000Z</time>
      </trkpt>
      <trkpt lat="43.41768" lon="3.46348">
        <ele>57.583262</ele>
        <time>2023-12-30T14:18:35.000Z</time>
      </trkpt>
      <trkpt lat="43.41769" lon="3.46343">
        <ele>57.507542</ele>
        <time>2023-12-30T14:18:36.000Z</time>
      </trkpt>
      <trkpt lat="43.4177" lon="3.46339">
        <ele>57.428416</ele>
        <time>2023-12-30T14:18:37.000Z</time>
      </trkpt>
      <trkpt lat="43.41772" lon="3.46335">
        <ele>57.354112</ele>
        <time>2023-12-30T14:18:38.000Z</time>
      </trkpt>
      <trkpt lat="43.41773" lon="3.46331">
        <ele>57.281517</ele>
        <time>2023-12-30T14:18:39.000Z</time>
      </trkpt>
      <trkpt lat="43.41775" lon="3.46327">
        <ele>57.214148</ele>
        <time>2023-12-30T14:18:40.000Z</time>
      </trkpt>
      <trkpt lat="43.41776" lon="3.46324">
        <ele>57.15781</ele>
        <time>2023-12-30T14:18:41.000Z</time>
      </trkpt>
      <trkpt lat="43.41776" lon="3.4632">
        <ele>57.084158</ele>
        <time>2023-12-30T14:18:42.000Z</time>
      </trkpt>
      <trkpt lat="43.41777" lon="3.46316">
        <ele>57.009833</ele>
        <time>2023-12-30T14:18:43.000Z</time>
      </trkpt>
      <trkpt lat="43.41778" lon="3.46311">
        <ele>56.934113</ele>
        <time>2023-12-30T14:18:44.000Z</time>
      </trkpt>
      <trkpt lat="43.41777" lon="3.46307">
        <ele>56.855551</ele>
        <time>2023-12-30T14:18:45.000Z</time>
      </trkpt>
      <trkpt lat="43.41776" lon="3.46304">
        <ele>56.795059</ele>
        <time>2023-12-30T14:18:46.000Z</time>
      </trkpt>
      <trkpt lat="43.41775" lon="3.463">
        <ele>56.725105</ele>
        <time>2023-12-30T14:18:47.000Z</time>
      </trkpt>
      <trkpt lat="43.41775" lon="3.46295">
        <ele>56.640274</ele>
        <time>2023-12-30T14:18:48.000Z</time>
      </trkpt>
      <trkpt lat="43.41776" lon="3.46289">
        <ele>56.54385</ele>
        <time>2023-12-30T14:18:49.000Z</time>
      </trkpt>
      <trkpt lat="43.41777" lon="3.46282">
        <ele>56.435988</ele>
        <time>2023-12-30T14:18:50.000Z</time>
      </trkpt>
      <trkpt lat="43.41778" lon="3.46276">
        <ele>56.332602</ele>
        <time>2023-12-30T14:18:51.000Z</time>
      </trkpt>
      <trkpt lat="43.41778" lon="3.46269">
        <ele>56.21524</ele>
        <time>2023-12-30T14:18:52.000Z</time>
      </trkpt>
      <trkpt lat="43.41779" lon="3.46262">
        <ele>56.094587</ele>
        <time>2023-12-30T14:18:53.000Z</time>
      </trkpt>
      <trkpt lat="43.41779" lon="3.46254">
        <ele>55.964853</ele>
        <time>2023-12-30T14:18:54.000Z</time>
      </trkpt>
      <trkpt lat="43.4178" lon="3.46247">
        <ele>55.848798</ele>
        <time>2023-12-30T14:18:55.000Z</time>
      </trkpt>
      <trkpt lat="43.41781" lon="3.46241">
        <ele>55.746557</ele>
        <time>2023-12-30T14:18:56.000Z</time>
      </trkpt>
      <trkpt lat="43.4178" lon="3.46236">
        <ele>55.653407</ele>
        <time>2023-12-30T14:18:57.000Z</time>
      </trkpt>
      <trkpt lat="43.41779" lon="3.4623">
        <ele>55.554396</ele>
        <time>2023-12-30T14:18:58.000Z</time>
      </trkpt>
      <trkpt lat="43.41778" lon="3.46225">
        <ele>55.459602</ele>
        <time>2023-12-30T14:18:59.000Z</time>
      </trkpt>
      <trkpt lat="43.41776" lon="3.46218">
        <ele>55.347835</ele>
        <time>2023-12-30T14:19:00.000Z</time>
      </trkpt>
      <trkpt lat="43.41774" lon="3.46213">
        <ele>55.244602</ele>
        <time>2023-12-30T14:19:01.000Z</time>
      </trkpt>
      <trkpt lat="43.41772" lon="3.46207">
        <ele>55.144943</ele>
        <time>2023-12-30T14:19:02.000Z</time>
      </trkpt>
      <trkpt lat="43.4177" lon="3.46202">
        <ele>55.045236</ele>
        <time>2023-12-30T14:19:03.000Z</time>
      </trkpt>
      <trkpt lat="43.41767" lon="3.46197">
        <ele>54.944416</ele>
        <time>2023-12-30T14:19:04.000Z</time>
      </trkpt>
      <trkpt lat="43.41765" lon="3.46193">
        <ele>54.856492</ele>
        <time>2023-12-30T14:19:05.000Z</time>
      </trkpt>
      <trkpt lat="43.41764" lon="3.4619">
        <ele>54.795197</ele>
        <time>2023-12-30T14:19:06.000Z</time>
      </trkpt>
      <trkpt lat="43.41763" lon="3.46186">
        <ele>54.719273</ele>
        <time>2023-12-30T14:19:07.000Z</time>
      </trkpt>
      <trkpt lat="43.41762" lon="3.46181">
        <ele>54.637929</ele>
        <time>2023-12-30T14:19:08.000Z</time>
      </trkpt>
      <trkpt lat="43.41762" lon="3.46177">
        <ele>54.571716</ele>
        <time>2023-12-30T14:19:09.000Z</time>
      </trkpt>
      <trkpt lat="43.41765" lon="3.46174">
        <ele>54.503207</ele>
        <time>2023-12-30T14:19:10.000Z</time>
      </trkpt>
      <trkpt lat="43.41767" lon="3.46172">
        <ele>54.431826</ele>
        <time>2023-12-30T14:19:11.000Z</time>
      </trkpt>
      <trkpt lat="43.41769" lon="3.46169">
        <ele>54.364602</ele>
        <time>2023-12-30T14:19:12.000Z</time>
      </trkpt>
      <trkpt lat="43.41771" lon="3.46166">
        <ele>54.310846</ele>
        <time>2023-12-30T14:19:13.000Z</time>
      </trkpt>
      <trkpt lat="43.41772" lon="3.46163">
        <ele>54.228055</ele>
        <time>2023-12-30T14:19:14.000Z</time>
      </trkpt>
      <trkpt lat="43.41773" lon="3.46159">
        <ele>54.146492</ele>
        <time>2023-12-30T14:19:15.000Z</time>
      </trkpt>
      <trkpt lat="43.41773" lon="3.46155">
        <ele>54.062825</ele>
        <time>2023-12-30T14:19:16.000Z</time>
      </trkpt>
      <trkpt lat="43.41775" lon="3.46153">
        <ele>54.001473</ele>
        <time>2023-12-30T14:19:17.000Z</time>
      </trkpt>
      <trkpt lat="43.41776" lon="3.4615">
        <ele>53.939074</ele>
        <time>2023-12-30T14:19:18.000Z</time>
      </trkpt>
      <trkpt lat="43.41777" lon="3.46147">
        <ele>53.859989</ele>
        <time>2023-12-30T14:19:19.000Z</time>
      </trkpt>
      <trkpt lat="43.41779" lon="3.46144">
        <ele>53.77222</ele>
        <time>2023-12-30T14:19:20.000Z</time>
      </trkpt>
      <trkpt lat="43.4178" lon="3.46142">
        <ele>53.707207</ele>
        <time>2023-12-30T14:19:21.000Z</time>
      </trkpt>
      <trkpt lat="43.4178" lon="3.4614">
        <ele>53.678602</ele>
        <time>2023-12-30T14:19:22.000Z</time>
      </trkpt>
      <trkpt lat="43.4178" lon="3.4614">
        <ele>53.668081</ele>
        <time>2023-12-30T14:19:23.000Z</time>
      </trkpt>
      <trkpt lat="43.4178" lon="3.4614">
        <ele>53.668081</ele>
        <time>2023-12-30T14:19:24.000Z</time>
      </trkpt>
      <trkpt lat="43.4178" lon="3.4614">
        <ele>53.668081</ele>
        <time>2023-12-30T14:19:25.000Z</time>
      </trkpt>
      <trkpt lat="43.4178" lon="3.4614">
        <ele>53.668081</ele>
        <time>2023-12-30T14:19:26.000Z</time>
      </trkpt>
      <trkpt lat="43.4178" lon="3.4614">
        <ele>53.668081</ele>
        <time>2023-12-30T14:19:27.000Z</time>
      </trkpt>
      <trkpt lat="43.4178" lon="3.4614">
        <ele>53.668081</ele>
        <time>2023-12-30T14:19:28.000Z</time>
      </trkpt>
      <trkpt lat="43.4178" lon="3.4614">
        <ele>53.668081</ele>
        <time>2023-12-30T14:19:29.000Z</time>
      </trkpt>
      <trkpt lat="43.4178" lon="3.4614">
        <ele>53.668081</ele>
        <time>2023-12-30T14:19:30.000Z</time>
      </trkpt>
      <trkpt lat="43.4178" lon="3.4614">
        <ele>53.668081</ele>
        <time>2023-12-30T14:19:31.000Z</time>
      </trkpt>
      <trkpt lat="43.4178" lon="3.4614">
        <ele>53.668081</ele>
        <time>2023-12-30T14:19:32.000Z</time>
      </trkpt>
      <trkpt lat="43.4178" lon="3.4614">
        <ele>53.668081</ele>
        <time>2023-12-30T14:19:33.000Z</time>
      </trkpt>
      <trkpt lat="43.4178" lon="3.4614">
        <ele>53.668081</ele>
        <time>2023-12-30T14:19:34.000Z</time>
      </trkpt>
      <trkpt lat="43.4178" lon="3.4614">
        <ele>53.668081</ele>
        <time>2023-12-30T14:19:35.000Z</time>
      </trkpt>
      <trkpt lat="43.4178" lon="3.4614">
        <ele>53.668081</ele>
        <time>2023-12-30T14:19:36.000Z</time>
      </trkpt>
      <trkpt lat="43.4178" lon="3.4614">
        <ele>53.668081</ele>
        <time>2023-12-30T14:19:37.000Z</time>
      </trkpt>
      <trkpt lat="43.4178" lon="3.4614">
        <ele>53.668081</ele>
        <time>2023-12-30T14:19:38.000Z</time>
      </trkpt>
      <trkpt lat="43.4178" lon="3.4614">
        <ele>53.665915</ele>
        <time>2023-12-30T14:19:39.000Z</time>
      </trkpt>
      <trkpt lat="43.4178" lon="3.4614">
        <ele>53.665915</ele>
        <time>2023-12-30T14:19:40.000Z</time>
      </trkpt>
      <trkpt lat="43.4178" lon="3.4614">
        <ele>53.665915</ele>
        <time>2023-12-30T14:19:41.000Z</time>
      </trkpt>
      <trkpt lat="43.4178" lon="3.4614">
        <ele>53.660655</ele>
        <time>2023-12-30T14:19:42.000Z</time>
      </trkpt>
      <trkpt lat="43.41782" lon="3.46138">
        <ele>53.595548</ele>
        <time>2023-12-30T14:19:43.000Z</time>
      </trkpt>
      <trkpt lat="43.41784" lon="3.46137">
        <ele>53.526554</ele>
        <time>2023-12-30T14:19:44.000Z</time>
      </trkpt>
      <trkpt lat="43.41786" lon="3.46134">
        <ele>53.438647</ele>
        <time>2023-12-30T14:19:45.000Z</time>
      </trkpt>
      <trkpt lat="43.41788" lon="3.46131">
        <ele>53.359562</ele>
        <time>2023-12-30T14:19:46.000Z</time>
      </trkpt>
      <trkpt lat="43.41788" lon="3.46127">
        <ele>53.273847</ele>
        <time>2023-12-30T14:19:47.000Z</time>
      </trkpt>
      <trkpt lat="43.41789" lon="3.46123">
        <ele>53.191713</ele>
        <time>2023-12-30T14:19:48.000Z</time>
      </trkpt>
      <trkpt lat="43.41789" lon="3.4612">
        <ele>53.111552</ele>
        <time>2023-12-30T14:19:49.000Z</time>
      </trkpt>
      <trkpt lat="43.41788" lon="3.46116">
        <ele>53.020305</ele>
        <time>2023-12-30T14:19:50.000Z</time>
      </trkpt>
      <trkpt lat="43.41787" lon="3.46111">
        <ele>52.9007</ele>
        <time>2023-12-30T14:19:51.000Z</time>
      </trkpt>
      <trkpt lat="43.41786" lon="3.46106">
        <ele>52.787515</ele>
        <time>2023-12-30T14:19:52.000Z</time>
      </trkpt>
      <trkpt lat="43.41785" lon="3.461">
        <ele>52.669594</ele>
        <time>2023-12-30T14:19:53.000Z</time>
      </trkpt>
      <trkpt lat="43.41782" lon="3.46097">
        <ele>52.568935</ele>
        <time>2023-12-30T14:19:54.000Z</time>
      </trkpt>
      <trkpt lat="43.4178" lon="3.46093">
        <ele>52.465064</ele>
        <time>2023-12-30T14:19:55.000Z</time>
      </trkpt>
      <trkpt lat="43.41779" lon="3.46089">
        <ele>52.361677</ele>
        <time>2023-12-30T14:19:56.000Z</time>
      </trkpt>
      <trkpt lat="43.4178" lon="3.46083">
        <ele>52.24497</ele>
        <time>2023-12-30T14:19:57.000Z</time>
      </trkpt>
      <trkpt lat="43.41781" lon="3.46078">
        <ele>52.119726</ele>
        <time>2023-12-30T14:19:58.000Z</time>
      </trkpt>
      <trkpt lat="43.41782" lon="3.46071">
        <ele>51.984246</ele>
        <time>2023-12-30T14:19:59.000Z</time>
      </trkpt>
      <trkpt lat="43.41783" lon="3.46066">
        <ele>51.855753</ele>
        <time>2023-12-30T14:20:00.000Z</time>
      </trkpt>
      <trkpt lat="43.41784" lon="3.4606">
        <ele>51.725721</ele>
        <time>2023-12-30T14:20:01.000Z</time>
      </trkpt>
      <trkpt lat="43.41784" lon="3.46053">
        <ele>51.587161</ele>
        <time>2023-12-30T14:20:02.000Z</time>
      </trkpt>
      <trkpt lat="43.41785" lon="3.46047">
        <ele>51.441241</ele>
        <time>2023-12-30T14:20:03.000Z</time>
      </trkpt>
      <trkpt lat="43.41785" lon="3.4604">
        <ele>51.295963</ele>
        <time>2023-12-30T14:20:04.000Z</time>
      </trkpt>
      <trkpt lat="43.41785" lon="3.46033">
        <ele>51.144278</ele>
        <time>2023-12-30T14:20:05.000Z</time>
      </trkpt>
      <trkpt lat="43.41785" lon="3.46026">
        <ele>50.981544</ele>
        <time>2023-12-30T14:20:06.000Z</time>
      </trkpt>
      <trkpt lat="43.41786" lon="3.46018">
        <ele>50.820227</ele>
        <time>2023-12-30T14:20:07.000Z</time>
      </trkpt>
      <trkpt lat="43.41787" lon="3.46012">
        <ele>50.676281</ele>
        <time>2023-12-30T14:20:08.000Z</time>
      </trkpt>
      <trkpt lat="43.41788" lon="3.46005">
        <ele>50.531686</ele>
        <time>2023-12-30T14:20:09.000Z</time>
      </trkpt>
      <trkpt lat="43.41788" lon="3.45999">
        <ele>50.396176</ele>
        <time>2023-12-30T14:20:10.000Z</time>
      </trkpt>
      <trkpt lat="43.41789" lon="3.45994">
        <ele>50.281003</ele>
        <time>2023-12-30T14:20:11.000Z</time>
      </trkpt>
      <trkpt lat="43.41789" lon="3.45988">
        <ele>50.156616</ele>
        <time>2023-12-30T14:20:12.000Z</time>
      </trkpt>
      <trkpt lat="43.4179" lon="3.45982">
        <ele>50.032228</ele>
        <time>2023-12-30T14:20:13.000Z</time>
      </trkpt>
      <trkpt lat="43.4179" lon="3.45976">
        <ele>49.899936</ele>
        <time>2023-12-30T14:20:14.000Z</time>
      </trkpt>
      <trkpt lat="43.41791" lon="3.4597">
        <ele>49.756578</ele>
        <time>2023-12-30T14:20:15.000Z</time>
      </trkpt>
      <trkpt lat="43.41792" lon="3.45963">
        <ele>49.60683</ele>
        <time>2023-12-30T14:20:16.000Z</time>
      </trkpt>
      <trkpt lat="43.41792" lon="3.45956">
        <ele>49.467662</ele>
        <time>2023-12-30T14:20:17.000Z</time>
      </trkpt>
      <trkpt lat="43.41793" lon="3.4595">
        <ele>49.33036</ele>
        <time>2023-12-30T14:20:18.000Z</time>
      </trkpt>
      <trkpt lat="43.41793" lon="3.45944">
        <ele>49.19485</ele>
        <time>2023-12-30T14:20:19.000Z</time>
      </trkpt>
      <trkpt lat="43.41794" lon="3.45938">
        <ele>49.055044</ele>
        <time>2023-12-30T14:20:20.000Z</time>
      </trkpt>
      <trkpt lat="43.41794" lon="3.45931">
        <ele>48.914824</ele>
        <time>2023-12-30T14:20:21.000Z</time>
      </trkpt>
      <trkpt lat="43.41795" lon="3.45924">
        <ele>48.645916</ele>
        <time>2023-12-30T14:20:22.000Z</time>
      </trkpt>
      <trkpt lat="43.41796" lon="3.45918">
        <ele>48.382125</ele>
        <time>2023-12-30T14:20:23.000Z</time>
      </trkpt>
      <trkpt lat="43.41796" lon="3.45912">
        <ele>48.167718</ele>
        <time>2023-12-30T14:20:24.000Z</time>
      </trkpt>
      <trkpt lat="43.41795" lon="3.45907">
        <ele>47.96697</ele>
        <time>2023-12-30T14:20:25.000Z</time>
      </trkpt>
      <trkpt lat="43.41793" lon="3.45903">
        <ele>47.758527</ele>
        <time>2023-12-30T14:20:26.000Z</time>
      </trkpt>
      <trkpt lat="43.41791" lon="3.45898">
        <ele>47.53734</ele>
        <time>2023-12-30T14:20:27.000Z</time>
      </trkpt>
      <trkpt lat="43.4179" lon="3.45893">
        <ele>47.332125</ele>
        <time>2023-12-30T14:20:28.000Z</time>
      </trkpt>
      <trkpt lat="43.41789" lon="3.45888">
        <ele>47.162417</ele>
        <time>2023-12-30T14:20:29.000Z</time>
      </trkpt>
      <trkpt lat="43.41789" lon="3.45885">
        <ele>47.023406</ele>
        <time>2023-12-30T14:20:30.000Z</time>
      </trkpt>
      <trkpt lat="43.41788" lon="3.45882">
        <ele>46.898381</ele>
        <time>2023-12-30T14:20:31.000Z</time>
      </trkpt>
      <trkpt lat="43.41788" lon="3.45878">
        <ele>46.7463</ele>
        <time>2023-12-30T14:20:32.000Z</time>
      </trkpt>
      <trkpt lat="43.4179" lon="3.45874">
        <ele>46.566226</ele>
        <time>2023-12-30T14:20:33.000Z</time>
      </trkpt>
      <trkpt lat="43.41792" lon="3.45869">
        <ele>46.344508</ele>
        <time>2023-12-30T14:20:34.000Z</time>
      </trkpt>
      <trkpt lat="43.41793" lon="3.45864">
        <ele>46.129733</ele>
        <time>2023-12-30T14:20:35.000Z</time>
      </trkpt>
      <trkpt lat="43.41793" lon="3.45858">
        <ele>45.911496</ele>
        <time>2023-12-30T14:20:36.000Z</time>
      </trkpt>
      <trkpt lat="43.41793" lon="3.45854">
        <ele>45.744683</ele>
        <time>2023-12-30T14:20:37.000Z</time>
      </trkpt>
      <trkpt lat="43.41794" lon="3.45849">
        <ele>45.527509</ele>
        <time>2023-12-30T14:20:38.000Z</time>
      </trkpt>
      <trkpt lat="43.41796" lon="3.45843">
        <ele>45.272429</ele>
        <time>2023-12-30T14:20:39.000Z</time>
      </trkpt>
      <trkpt lat="43.41797" lon="3.45837">
        <ele>45.044118</ele>
        <time>2023-12-30T14:20:40.000Z</time>
      </trkpt>
      <trkpt lat="43.41796" lon="3.45832">
        <ele>44.843565</ele>
        <time>2023-12-30T14:20:41.000Z</time>
      </trkpt>
      <trkpt lat="43.41795" lon="3.45826">
        <ele>44.599863</ele>
        <time>2023-12-30T14:20:42.000Z</time>
      </trkpt>
      <trkpt lat="43.41795" lon="3.45819">
        <ele>44.347639</ele>
        <time>2023-12-30T14:20:43.000Z</time>
      </trkpt>
      <trkpt lat="43.41795" lon="3.45813">
        <ele>44.117648</ele>
        <time>2023-12-30T14:20:44.000Z</time>
      </trkpt>
      <trkpt lat="43.41794" lon="3.45808">
        <ele>43.889127</ele>
        <time>2023-12-30T14:20:45.000Z</time>
      </trkpt>
      <trkpt lat="43.41794" lon="3.45802">
        <ele>43.690376</ele>
        <time>2023-12-30T14:20:46.000Z</time>
      </trkpt>
      <trkpt lat="43.41795" lon="3.45797">
        <ele>43.46806</ele>
        <time>2023-12-30T14:20:47.000Z</time>
      </trkpt>
      <trkpt lat="43.41795" lon="3.4579">
        <ele>43.184206</ele>
        <time>2023-12-30T14:20:48.000Z</time>
      </trkpt>
      <trkpt lat="43.41796" lon="3.45784">
        <ele>42.94163</ele>
        <time>2023-12-30T14:20:49.000Z</time>
      </trkpt>
      <trkpt lat="43.41796" lon="3.45778">
        <ele>42.733972</ele>
        <time>2023-12-30T14:20:50.000Z</time>
      </trkpt>
      <trkpt lat="43.41796" lon="3.45774">
        <ele>42.557867</ele>
        <time>2023-12-30T14:20:51.000Z</time>
      </trkpt>
      <trkpt lat="43.41795" lon="3.45769">
        <ele>42.358341</ele>
        <time>2023-12-30T14:20:52.000Z</time>
      </trkpt>
      <trkpt lat="43.41795" lon="3.45764">
        <ele>42.17059</ele>
        <time>2023-12-30T14:20:53.000Z</time>
      </trkpt>
      <trkpt lat="43.41795" lon="3.4576">
        <ele>42.013237</ele>
        <time>2023-12-30T14:20:54.000Z</time>
      </trkpt>
      <trkpt lat="43.41795" lon="3.45754">
        <ele>41.778858</ele>
        <time>2023-12-30T14:20:55.000Z</time>
      </trkpt>
      <trkpt lat="43.41794" lon="3.45747">
        <ele>41.518094</ele>
        <time>2023-12-30T14:20:56.000Z</time>
      </trkpt>
      <trkpt lat="43.41793" lon="3.45741">
        <ele>41.275524</ele>
        <time>2023-12-30T14:20:57.000Z</time>
      </trkpt>
      <trkpt lat="43.41794" lon="3.45734">
        <ele>41.002254</ele>
        <time>2023-12-30T14:20:58.000Z</time>
      </trkpt>
      <trkpt lat="43.41794" lon="3.45729">
        <ele>40.810095</ele>
        <time>2023-12-30T14:20:59.000Z</time>
      </trkpt>
      <trkpt lat="43.41794" lon="3.45726">
        <ele>40.68881</ele>
        <time>2023-12-30T14:21:00.000Z</time>
      </trkpt>
      <trkpt lat="43.41794" lon="3.45724">
        <ele>40.585238</ele>
        <time>2023-12-30T14:21:01.000Z</time>
      </trkpt>
      <trkpt lat="43.41793" lon="3.45722">
        <ele>40.509082</ele>
        <time>2023-12-30T14:21:02.000Z</time>
      </trkpt>
      <trkpt lat="43.41793" lon="3.4572">
        <ele>40.415482</ele>
        <time>2023-12-30T14:21:03.000Z</time>
      </trkpt>
      <trkpt lat="43.41792" lon="3.45717">
        <ele>40.309019</ele>
        <time>2023-12-30T14:21:04.000Z</time>
      </trkpt>
      <trkpt lat="43.4179" lon="3.45715">
        <ele>40.184909</ele>
        <time>2023-12-30T14:21:05.000Z</time>
      </trkpt>
      <trkpt lat="43.41788" lon="3.45714">
        <ele>40.054275</ele>
        <time>2023-12-30T14:21:06.000Z</time>
      </trkpt>
      <trkpt lat="43.41786" lon="3.45713">
        <ele>39.936273</ele>
        <time>2023-12-30T14:21:07.000Z</time>
      </trkpt>
      <trkpt lat="43.41784" lon="3.45712">
        <ele>39.817053</ele>
        <time>2023-12-30T14:21:08.000Z</time>
      </trkpt>
      <trkpt lat="43.41781" lon="3.4571">
        <ele>39.676994</ele>
        <time>2023-12-30T14:21:09.000Z</time>
      </trkpt>
      <trkpt lat="43.41779" lon="3.45709">
        <ele>39.552888</ele>
        <time>2023-12-30T14:21:10.000Z</time>
      </trkpt>
      <trkpt lat="43.41778" lon="3.45707">
        <ele>39.459332</ele>
        <time>2023-12-30T14:21:11.000Z</time>
      </trkpt>
      <trkpt lat="43.41777" lon="3.45705">
        <ele>39.352014</ele>
        <time>2023-12-30T14:21:12.000Z</time>
      </trkpt>
      <trkpt lat="43.41776" lon="3.45704">
        <ele>39.291352</ele>
        <time>2023-12-30T14:21:13.000Z</time>
      </trkpt>
      <trkpt lat="43.41776" lon="3.45703">
        <ele>39.272427</ele>
        <time>2023-12-30T14:21:14.000Z</time>
      </trkpt>
      <trkpt lat="43.41776" lon="3.45703">
        <ele>39.265796</ele>
        <time>2023-12-30T14:21:15.000Z</time>
      </trkpt>
      <trkpt lat="43.41776" lon="3.45703">
        <ele>39.265796</ele>
        <time>2023-12-30T14:21:16.000Z</time>
      </trkpt>
      <trkpt lat="43.41776" lon="3.45703">
        <ele>39.265796</ele>
        <time>2023-12-30T14:21:17.000Z</time>
      </trkpt>
      <trkpt lat="43.41776" lon="3.45703">
        <ele>39.265796</ele>
        <time>2023-12-30T14:21:18.000Z</time>
      </trkpt>
      <trkpt lat="43.41776" lon="3.45703">
        <ele>39.261114</ele>
        <time>2023-12-30T14:21:19.000Z</time>
      </trkpt>
      <trkpt lat="43.41776" lon="3.45703">
        <ele>39.259843</ele>
        <time>2023-12-30T14:21:20.000Z</time>
      </trkpt>
      <trkpt lat="43.41776" lon="3.45703">
        <ele>39.259843</ele>
        <time>2023-12-30T14:21:21.000Z</time>
      </trkpt>
      <trkpt lat="43.41776" lon="3.45704">
        <ele>39.257679</ele>
        <time>2023-12-30T14:21:22.000Z</time>
      </trkpt>
      <trkpt lat="43.41776" lon="3.45704">
        <ele>39.257679</ele>
        <time>2023-12-30T14:21:23.000Z</time>
      </trkpt>
      <trkpt lat="43.41776" lon="3.45703">
        <ele>39.252301</ele>
        <time>2023-12-30T14:21:24.000Z</time>
      </trkpt>
      <trkpt lat="43.41775" lon="3.45701">
        <ele>39.219419</ele>
        <time>2023-12-30T14:21:25.000Z</time>
      </trkpt>
      <trkpt lat="43.41774" lon="3.45699">
        <ele>39.181699</ele>
        <time>2023-12-30T14:21:26.000Z</time>
      </trkpt>
      <trkpt lat="43.41772" lon="3.45698">
        <ele>39.139875</ele>
        <time>2023-12-30T14:21:27.000Z</time>
      </trkpt>
      <trkpt lat="43.41769" lon="3.45696">
        <ele>39.093729</ele>
        <time>2023-12-30T14:21:28.000Z</time>
      </trkpt>
      <trkpt lat="43.41767" lon="3.45693">
        <ele>39.043798</ele>
        <time>2023-12-30T14:21:29.000Z</time>
      </trkpt>
      <trkpt lat="43.41765" lon="3.45691">
        <ele>38.994693</ele>
        <time>2023-12-30T14:21:30.000Z</time>
      </trkpt>
      <trkpt lat="43.41763" lon="3.45688">
        <ele>38.950459</ele>
        <time>2023-12-30T14:21:31.000Z</time>
      </trkpt>
      <trkpt lat="43.41763" lon="3.45685">
        <ele>38.906751</ele>
        <time>2023-12-30T14:21:32.000Z</time>
      </trkpt>
      <trkpt lat="43.41762" lon="3.45681">
        <ele>38.860947</ele>
        <time>2023-12-30T14:21:33.000Z</time>
      </trkpt>
      <trkpt lat="43.41761" lon="3.45678">
        <ele>38.813626</ele>
        <time>2023-12-30T14:21:34.000Z</time>
      </trkpt>
      <trkpt lat="43.4176" lon="3.45675">
        <ele>38.764154</ele>
        <time>2023-12-30T14:21:35.000Z</time>
      </trkpt>
      <trkpt lat="43.41757" lon="3.45674">
        <ele>38.722924</ele>
        <time>2023-12-30T14:21:36.000Z</time>
      </trkpt>
      <trkpt lat="43.41755" lon="3.45673">
        <ele>38.677998</ele>
        <time>2023-12-30T14:21:37.000Z</time>
      </trkpt>
      <trkpt lat="43.41753" lon="3.45671">
        <ele>38.635013</ele>
        <time>2023-12-30T14:21:38.000Z</time>
      </trkpt>
      <trkpt lat="43.4175" lon="3.45671">
        <ele>38.580218</ele>
        <time>2023-12-30T14:21:39.000Z</time>
      </trkpt>
      <trkpt lat="43.41748" lon="3.4567">
        <ele>38.540695</ele>
        <time>2023-12-30T14:21:40.000Z</time>
      </trkpt>
      <trkpt lat="43.41745" lon="3.45668">
        <ele>38.496678</ele>
        <time>2023-12-30T14:21:41.000Z</time>
      </trkpt>
      <trkpt lat="43.41743" lon="3.45667">
        <ele>38.454059</ele>
        <time>2023-12-30T14:21:42.000Z</time>
      </trkpt>
      <trkpt lat="43.4174" lon="3.45667">
        <ele>38.406374</ele>
        <time>2023-12-30T14:21:43.000Z</time>
      </trkpt>
      <trkpt lat="43.41737" lon="3.45667">
        <ele>38.348556</ele>
        <time>2023-12-30T14:21:44.000Z</time>
      </trkpt>
      <trkpt lat="43.41733" lon="3.45665">
        <ele>38.282721</ele>
        <time>2023-12-30T14:21:45.000Z</time>
      </trkpt>
      <trkpt lat="43.41731" lon="3.45662">
        <ele>38.22898</ele>
        <time>2023-12-30T14:21:46.000Z</time>
      </trkpt>
      <trkpt lat="43.4173" lon="3.45659">
        <ele>38.177063</ele>
        <time>2023-12-30T14:21:47.000Z</time>
      </trkpt>
      <trkpt lat="43.41728" lon="3.45656">
        <ele>38.131727</ele>
        <time>2023-12-30T14:21:48.000Z</time>
      </trkpt>
      <trkpt lat="43.41726" lon="3.45654">
        <ele>38.083471</ele>
        <time>2023-12-30T14:21:49.000Z</time>
      </trkpt>
      <trkpt lat="43.41723" lon="3.45653">
        <ele>38.028786</ele>
        <time>2023-12-30T14:21:50.000Z</time>
      </trkpt>
      <trkpt lat="43.4172" lon="3.4565">
        <ele>37.961594</ele>
        <time>2023-12-30T14:21:51.000Z</time>
      </trkpt>
      <trkpt lat="43.41717" lon="3.45648">
        <ele>37.904809</ele>
        <time>2023-12-30T14:21:52.000Z</time>
      </trkpt>
      <trkpt lat="43.41714" lon="3.45646">
        <ele>37.85213</ele>
        <time>2023-12-30T14:21:53.000Z</time>
      </trkpt>
      <trkpt lat="43.41711" lon="3.45642">
        <ele>37.784626</ele>
        <time>2023-12-30T14:21:54.000Z</time>
      </trkpt>
      <trkpt lat="43.41708" lon="3.45639">
        <ele>37.716612</ele>
        <time>2023-12-30T14:21:55.000Z</time>
      </trkpt>
      <trkpt lat="43.41705" lon="3.45636">
        <ele>37.648792</ele>
        <time>2023-12-30T14:21:56.000Z</time>
      </trkpt>
      <trkpt lat="43.41702" lon="3.45635">
        <ele>37.591355</ele>
        <time>2023-12-30T14:21:57.000Z</time>
      </trkpt>
      <trkpt lat="43.417" lon="3.45634">
        <ele>37.549174</ele>
        <time>2023-12-30T14:21:58.000Z</time>
      </trkpt>
      <trkpt lat="43.41697" lon="3.45635">
        <ele>37.505284</ele>
        <time>2023-12-30T14:21:59.000Z</time>
      </trkpt>
      <trkpt lat="43.41695" lon="3.45635">
        <ele>37.457598</ele>
        <time>2023-12-30T14:22:00.000Z</time>
      </trkpt>
      <trkpt lat="43.41692" lon="3.45632">
        <ele>37.403514</ele>
        <time>2023-12-30T14:22:01.000Z</time>
      </trkpt>
      <trkpt lat="43.41688" lon="3.4563">
        <ele>37.336474</ele>
        <time>2023-12-30T14:22:02.000Z</time>
      </trkpt>
      <trkpt lat="43.41685" lon="3.4563">
        <ele>37.274568</ele>
        <time>2023-12-30T14:22:03.000Z</time>
      </trkpt>
      <trkpt lat="43.41682" lon="3.45629">
        <ele>37.218203</ele>
        <time>2023-12-30T14:22:04.000Z</time>
      </trkpt>
      <trkpt lat="43.41678" lon="3.45628">
        <ele>37.158029</ele>
        <time>2023-12-30T14:22:05.000Z</time>
      </trkpt>
      <trkpt lat="43.41674" lon="3.45629">
        <ele>37.082239</ele>
        <time>2023-12-30T14:22:06.000Z</time>
      </trkpt>
      <trkpt lat="43.4167" lon="3.45629">
        <ele>37.009925</ele>
        <time>2023-12-30T14:22:07.000Z</time>
      </trkpt>
      <trkpt lat="43.41667" lon="3.45629">
        <ele>36.948649</ele>
        <time>2023-12-30T14:22:08.000Z</time>
      </trkpt>
      <trkpt lat="43.41663" lon="3.45629">
        <ele>36.89258</ele>
        <time>2023-12-30T14:22:09.000Z</time>
      </trkpt>
      <trkpt lat="43.4166" lon="3.45631">
        <ele>36.827747</ele>
        <time>2023-12-30T14:22:10.000Z</time>
      </trkpt>
      <trkpt lat="43.41656" lon="3.45633">
        <ele>36.754447</ele>
        <time>2023-12-30T14:22:11.000Z</time>
      </trkpt>
      <trkpt lat="43.41652" lon="3.45635">
        <ele>36.6786</ele>
        <time>2023-12-30T14:22:12.000Z</time>
      </trkpt>
      <trkpt lat="43.41648" lon="3.45639">
        <ele>36.602185</ele>
        <time>2023-12-30T14:22:13.000Z</time>
      </trkpt>
      <trkpt lat="43.41645" lon="3.45642">
        <ele>36.532966</ele>
        <time>2023-12-30T14:22:14.000Z</time>
      </trkpt>
      <trkpt lat="43.41641" lon="3.45643">
        <ele>36.465475</ele>
        <time>2023-12-30T14:22:15.000Z</time>
      </trkpt>
      <trkpt lat="43.41638" lon="3.45642">
        <ele>36.411155</ele>
        <time>2023-12-30T14:22:16.000Z</time>
      </trkpt>
      <trkpt lat="43.41636" lon="3.45645">
        <ele>36.366345</ele>
        <time>2023-12-30T14:22:17.000Z</time>
      </trkpt>
      <trkpt lat="43.41635" lon="3.45647">
        <ele>36.328192</ele>
        <time>2023-12-30T14:22:18.000Z</time>
      </trkpt>
      <trkpt lat="43.41632" lon="3.45648">
        <ele>36.283917</ele>
        <time>2023-12-30T14:22:19.000Z</time>
      </trkpt>
      <trkpt lat="43.41629" lon="3.45649">
        <ele>36.216967</ele>
        <time>2023-12-30T14:22:20.000Z</time>
      </trkpt>
      <trkpt lat="43.41625" lon="3.4565">
        <ele>36.146089</ele>
        <time>2023-12-30T14:22:21.000Z</time>
      </trkpt>
      <trkpt lat="43.41621" lon="3.45651">
        <ele>36.148899</ele>
        <time>2023-12-30T14:22:22.000Z</time>
      </trkpt>
      <trkpt lat="43.41617" lon="3.45653">
        <ele>36.206398</ele>
        <time>2023-12-30T14:22:23.000Z</time>
      </trkpt>
      <trkpt lat="43.41614" lon="3.45655">
        <ele>36.269879</ele>
        <time>2023-12-30T14:22:24.000Z</time>
      </trkpt>
      <trkpt lat="43.41611" lon="3.45656">
        <ele>36.326239</ele>
        <time>2023-12-30T14:22:25.000Z</time>
      </trkpt>
      <trkpt lat="43.41608" lon="3.45658">
        <ele>36.37457</ele>
        <time>2023-12-30T14:22:26.000Z</time>
      </trkpt>
      <trkpt lat="43.41606" lon="3.45659">
        <ele>36.412688</ele>
        <time>2023-12-30T14:22:27.000Z</time>
      </trkpt>
      <trkpt lat="43.41605" lon="3.45659">
        <ele>36.424969</ele>
        <time>2023-12-30T14:22:28.000Z</time>
      </trkpt>
      <trkpt lat="43.41605" lon="3.45659">
        <ele>36.43178</ele>
        <time>2023-12-30T14:22:29.000Z</time>
      </trkpt>
      <trkpt lat="43.41603" lon="3.45659">
        <ele>36.465283</ele>
        <time>2023-12-30T14:22:30.000Z</time>
      </trkpt>
      <trkpt lat="43.41601" lon="3.4566">
        <ele>36.500928</ele>
        <time>2023-12-30T14:22:31.000Z</time>
      </trkpt>
      <trkpt lat="43.41599" lon="3.45662">
        <ele>36.545092</ele>
        <time>2023-12-30T14:22:32.000Z</time>
      </trkpt>
      <trkpt lat="43.41597" lon="3.45665">
        <ele>36.592648</ele>
        <time>2023-12-30T14:22:33.000Z</time>
      </trkpt>
      <trkpt lat="43.41594" lon="3.45669">
        <ele>36.66056</ele>
        <time>2023-12-30T14:22:34.000Z</time>
      </trkpt>
      <trkpt lat="43.41592" lon="3.45673">
        <ele>36.722946</ele>
        <time>2023-12-30T14:22:35.000Z</time>
      </trkpt>
      <trkpt lat="43.4159" lon="3.45677">
        <ele>36.780082</ele>
        <time>2023-12-30T14:22:36.000Z</time>
      </trkpt>
      <trkpt lat="43.41587" lon="3.4568">
        <ele>36.83777</ele>
        <time>2023-12-30T14:22:37.000Z</time>
      </trkpt>
      <trkpt lat="43.41585" lon="3.45682">
        <ele>36.885607</ele>
        <time>2023-12-30T14:22:38.000Z</time>
      </trkpt>
      <trkpt lat="43.41582" lon="3.45684">
        <ele>36.93845</ele>
        <time>2023-12-30T14:22:39.000Z</time>
      </trkpt>
      <trkpt lat="43.4158" lon="3.45687">
        <ele>36.989644</ele>
        <time>2023-12-30T14:22:40.000Z</time>
      </trkpt>
      <trkpt lat="43.41579" lon="3.45691">
        <ele>37.040408</ele>
        <time>2023-12-30T14:22:41.000Z</time>
      </trkpt>
      <trkpt lat="43.41578" lon="3.45694">
        <ele>37.083917</ele>
        <time>2023-12-30T14:22:42.000Z</time>
      </trkpt>
      <trkpt lat="43.41577" lon="3.45697">
        <ele>37.122804</ele>
        <time>2023-12-30T14:22:43.000Z</time>
      </trkpt>
      <trkpt lat="43.41576" lon="3.457">
        <ele>37.157688</ele>
        <time>2023-12-30T14:22:44.000Z</time>
      </trkpt>
      <trkpt lat="43.41577" lon="3.45704">
        <ele>37.203483</ele>
        <time>2023-12-30T14:22:45.000Z</time>
      </trkpt>
      <trkpt lat="43.41577" lon="3.45707">
        <ele>37.242123</ele>
        <time>2023-12-30T14:22:46.000Z</time>
      </trkpt>
      <trkpt lat="43.41577" lon="3.45711">
        <ele>37.289697</ele>
        <time>2023-12-30T14:22:47.000Z</time>
      </trkpt>
      <trkpt lat="43.41576" lon="3.45715">
        <ele>37.344024</ele>
        <time>2023-12-30T14:22:48.000Z</time>
      </trkpt>
      <trkpt lat="43.41575" lon="3.45719">
        <ele>37.389372</ele>
        <time>2023-12-30T14:22:49.000Z</time>
      </trkpt>
      <trkpt lat="43.41575" lon="3.45722">
        <ele>37.435896</ele>
        <time>2023-12-30T14:22:50.000Z</time>
      </trkpt>
      <trkpt lat="43.41574" lon="3.45726">
        <ele>37.482407</ele>
        <time>2023-12-30T14:22:51.000Z</time>
      </trkpt>
      <trkpt lat="43.41574" lon="3.45729">
        <ele>37.517735</ele>
        <time>2023-12-30T14:22:52.000Z</time>
      </trkpt>
      <trkpt lat="43.41575" lon="3.4573">
        <ele>37.5309</ele>
        <time>2023-12-30T14:22:53.000Z</time>
      </trkpt>
      <trkpt lat="43.41575" lon="3.4573">
        <ele>37.536048</ele>
        <time>2023-12-30T14:22:54.000Z</time>
      </trkpt>
      <trkpt lat="43.41575" lon="3.4573">
        <ele>37.540915</ele>
        <time>2023-12-30T14:22:55.000Z</time>
      </trkpt>
      <trkpt lat="43.41575" lon="3.45732">
        <ele>37.567685</ele>
        <time>2023-12-30T14:22:56.000Z</time>
      </trkpt>
      <trkpt lat="43.41575" lon="3.45734">
        <ele>37.592535</ele>
        <time>2023-12-30T14:22:57.000Z</time>
      </trkpt>
      <trkpt lat="43.41574" lon="3.45738">
        <ele>37.634042</ele>
        <time>2023-12-30T14:22:58.000Z</time>
      </trkpt>
      <trkpt lat="43.41574" lon="3.45741">
        <ele>37.673871</ele>
        <time>2023-12-30T14:22:59.000Z</time>
      </trkpt>
      <trkpt lat="43.41574" lon="3.45745">
        <ele>37.721356</ele>
        <time>2023-12-30T14:23:00.000Z</time>
      </trkpt>
      <trkpt lat="43.41573" lon="3.45748">
        <ele>37.763267</ele>
        <time>2023-12-30T14:23:01.000Z</time>
      </trkpt>
      <trkpt lat="43.41572" lon="3.45752">
        <ele>37.81882</ele>
        <time>2023-12-30T14:23:02.000Z</time>
      </trkpt>
      <trkpt lat="43.41571" lon="3.45757">
        <ele>37.874872</ele>
        <time>2023-12-30T14:23:03.000Z</time>
      </trkpt>
      <trkpt lat="43.4157" lon="3.4576">
        <ele>37.921003</ele>
        <time>2023-12-30T14:23:04.000Z</time>
      </trkpt>
      <trkpt lat="43.4157" lon="3.45764">
        <ele>37.962914</ele>
        <time>2023-12-30T14:23:05.000Z</time>
      </trkpt>
      <trkpt lat="43.41569" lon="3.45767">
        <ele>38.008262</ele>
        <time>2023-12-30T14:23:06.000Z</time>
      </trkpt>
      <trkpt lat="43.41568" lon="3.45771">
        <ele>38.05795</ele>
        <time>2023-12-30T14:23:07.000Z</time>
      </trkpt>
      <trkpt lat="43.41567" lon="3.45774">
        <ele>38.099782</ele>
        <time>2023-12-30T14:23:08.000Z</time>
      </trkpt>
      <trkpt lat="43.41566" lon="3.45777">
        <ele>38.142152</ele>
        <time>2023-12-30T14:23:09.000Z</time>
      </trkpt>
      <trkpt lat="43.41564" lon="3.45781">
        <ele>38.19532</ele>
        <time>2023-12-30T14:23:10.000Z</time>
      </trkpt>
      <trkpt lat="43.41562" lon="3.45785">
        <ele>38.25837</ele>
        <time>2023-12-30T14:23:11.000Z</time>
      </trkpt>
      <trkpt lat="43.41561" lon="3.45789">
        <ele>38.314993</ele>
        <time>2023-12-30T14:23:12.000Z</time>
      </trkpt>
      <trkpt lat="43.4156" lon="3.45794">
        <ele>38.376658</ele>
        <time>2023-12-30T14:23:13.000Z</time>
      </trkpt>
      <trkpt lat="43.41559" lon="3.458">
        <ele>38.443731</ele>
        <time>2023-12-30T14:23:14.000Z</time>
      </trkpt>
      <trkpt lat="43.41557" lon="3.45805">
        <ele>38.510214</ele>
        <time>2023-12-30T14:23:15.000Z</time>
      </trkpt>
      <trkpt lat="43.41556" lon="3.45809">
        <ele>38.573016</ele>
        <time>2023-12-30T14:23:16.000Z</time>
      </trkpt>
      <trkpt lat="43.41555" lon="3.45814">
        <ele>38.638286</ele>
        <time>2023-12-30T14:23:17.000Z</time>
      </trkpt>
      <trkpt lat="43.41555" lon="3.4582">
        <ele>38.702973</ele>
        <time>2023-12-30T14:23:18.000Z</time>
      </trkpt>
      <trkpt lat="43.41555" lon="3.45825">
        <ele>38.76627</ele>
        <time>2023-12-30T14:23:19.000Z</time>
      </trkpt>
      <trkpt lat="43.41555" lon="3.4583">
        <ele>38.828351</ele>
        <time>2023-12-30T14:23:20.000Z</time>
      </trkpt>
      <trkpt lat="43.41554" lon="3.45835">
        <ele>38.891032</ele>
        <time>2023-12-30T14:23:21.000Z</time>
      </trkpt>
      <trkpt lat="43.41554" lon="3.4584">
        <ele>38.958093</ele>
        <time>2023-12-30T14:23:22.000Z</time>
      </trkpt>
      <trkpt lat="43.41553" lon="3.45845">
        <ele>39.017812</ele>
        <time>2023-12-30T14:23:23.000Z</time>
      </trkpt>
      <trkpt lat="43.41553" lon="3.4585">
        <ele>39.072287</ele>
        <time>2023-12-30T14:23:24.000Z</time>
      </trkpt>
      <trkpt lat="43.41551" lon="3.45854">
        <ele>39.126252</ele>
        <time>2023-12-30T14:23:25.000Z</time>
      </trkpt>
      <trkpt lat="43.4155" lon="3.45857">
        <ele>39.146728</ele>
        <time>2023-12-30T14:23:26.000Z</time>
      </trkpt>
      <trkpt lat="43.4155" lon="3.45862">
        <ele>39.168967</ele>
        <time>2023-12-30T14:23:27.000Z</time>
      </trkpt>
      <trkpt lat="43.4155" lon="3.45867">
        <ele>39.192647</ele>
        <time>2023-12-30T14:23:28.000Z</time>
      </trkpt>
      <trkpt lat="43.4155" lon="3.45872">
        <ele>39.218742</ele>
        <time>2023-12-30T14:23:29.000Z</time>
      </trkpt>
      <trkpt lat="43.4155" lon="3.45877">
        <ele>39.242431</ele>
        <time>2023-12-30T14:23:30.000Z</time>
      </trkpt>
      <trkpt lat="43.41549" lon="3.45882">
        <ele>39.265385</ele>
        <time>2023-12-30T14:23:31.000Z</time>
      </trkpt>
      <trkpt lat="43.41549" lon="3.45886">
        <ele>39.286648</ele>
        <time>2023-12-30T14:23:32.000Z</time>
      </trkpt>
      <trkpt lat="43.41549" lon="3.45891">
        <ele>39.308486</ele>
        <time>2023-12-30T14:23:33.000Z</time>
      </trkpt>
      <trkpt lat="43.41548" lon="3.45896">
        <ele>39.333849</ele>
        <time>2023-12-30T14:23:34.000Z</time>
      </trkpt>
      <trkpt lat="43.41547" lon="3.45901">
        <ele>39.357507</ele>
        <time>2023-12-30T14:23:35.000Z</time>
      </trkpt>
      <trkpt lat="43.41547" lon="3.45906">
        <ele>39.383738</ele>
        <time>2023-12-30T14:23:36.000Z</time>
      </trkpt>
      <trkpt lat="43.41547" lon="3.45912">
        <ele>39.410317</ele>
        <time>2023-12-30T14:23:37.000Z</time>
      </trkpt>
      <trkpt lat="43.41547" lon="3.45917">
        <ele>39.437862</ele>
        <time>2023-12-30T14:23:38.000Z</time>
      </trkpt>
      <trkpt lat="43.41547" lon="3.45922">
        <ele>39.46121</ele>
        <time>2023-12-30T14:23:39.000Z</time>
      </trkpt>
      <trkpt lat="43.41546" lon="3.45927">
        <ele>39.483449</ele>
        <time>2023-12-30T14:23:40.000Z</time>
      </trkpt>
      <trkpt lat="43.41545" lon="3.45931">
        <ele>39.505559</ele>
        <time>2023-12-30T14:23:41.000Z</time>
      </trkpt>
      <trkpt lat="43.41543" lon="3.45935">
        <ele>39.529881</ele>
        <time>2023-12-30T14:23:42.000Z</time>
      </trkpt>
      <trkpt lat="43.41542" lon="3.4594">
        <ele>39.553734</ele>
        <time>2023-12-30T14:23:43.000Z</time>
      </trkpt>
      <trkpt lat="43.41541" lon="3.45946">
        <ele>39.581302</ele>
        <time>2023-12-30T14:23:44.000Z</time>
      </trkpt>
      <trkpt lat="43.41539" lon="3.45952">
        <ele>39.612189</ele>
        <time>2023-12-30T14:23:45.000Z</time>
      </trkpt>
      <trkpt lat="43.41537" lon="3.45957">
        <ele>39.643808</ele>
        <time>2023-12-30T14:23:46.000Z</time>
      </trkpt>
      <trkpt lat="43.41536" lon="3.45963">
        <ele>39.674242</ele>
        <time>2023-12-30T14:23:47.000Z</time>
      </trkpt>
      <trkpt lat="43.41535" lon="3.45969">
        <ele>39.702772</ele>
        <time>2023-12-30T14:23:48.000Z</time>
      </trkpt>
      <trkpt lat="43.41534" lon="3.45974">
        <ele>39.728693</ele>
        <time>2023-12-30T14:23:49.000Z</time>
      </trkpt>
      <trkpt lat="43.41534" lon="3.4598">
        <ele>39.754041</ele>
        <time>2023-12-30T14:23:50.000Z</time>
      </trkpt>
      <trkpt lat="43.41532" lon="3.45984">
        <ele>39.778364</ele>
        <time>2023-12-30T14:23:51.000Z</time>
      </trkpt>
      <trkpt lat="43.4153" lon="3.45988">
        <ele>39.803857</ele>
        <time>2023-12-30T14:23:52.000Z</time>
      </trkpt>
      <trkpt lat="43.41528" lon="3.45994">
        <ele>39.832609</ele>
        <time>2023-12-30T14:23:53.000Z</time>
      </trkpt>
      <trkpt lat="43.41526" lon="3.46">
        <ele>39.865574</ele>
        <time>2023-12-30T14:23:54.000Z</time>
      </trkpt>
      <trkpt lat="43.41525" lon="3.46007">
        <ele>39.899575</ele>
        <time>2023-12-30T14:23:55.000Z</time>
      </trkpt>
      <trkpt lat="43.41524" lon="3.46013">
        <ele>39.931099</ele>
        <time>2023-12-30T14:23:56.000Z</time>
      </trkpt>
      <trkpt lat="43.41523" lon="3.46018">
        <ele>39.956763</ele>
        <time>2023-12-30T14:23:57.000Z</time>
      </trkpt>
      <trkpt lat="43.41522" lon="3.46022">
        <ele>39.978408</ele>
        <time>2023-12-30T14:23:58.000Z</time>
      </trkpt>
      <trkpt lat="43.41519" lon="3.46025">
        <ele>40.000508</ele>
        <time>2023-12-30T14:23:59.000Z</time>
      </trkpt>
      <trkpt lat="43.41517" lon="3.46028">
        <ele>40.02189</ele>
        <time>2023-12-30T14:24:00.000Z</time>
      </trkpt>
      <trkpt lat="43.41513" lon="3.4603">
        <ele>40.045474</ele>
        <time>2023-12-30T14:24:01.000Z</time>
      </trkpt>
      <trkpt lat="43.41509" lon="3.4603">
        <ele>40.072124</ele>
        <time>2023-12-30T14:24:02.000Z</time>
      </trkpt>
      <trkpt lat="43.41505" lon="3.4603">
        <ele>40.098753</ele>
        <time>2023-12-30T14:24:03.000Z</time>
      </trkpt>
      <trkpt lat="43.41502" lon="3.46031">
        <ele>40.123185</ele>
        <time>2023-12-30T14:24:04.000Z</time>
      </trkpt>
      <trkpt lat="43.41498" lon="3.46032">
        <ele>40.146966</ele>
        <time>2023-12-30T14:24:05.000Z</time>
      </trkpt>
      <trkpt lat="43.41495" lon="3.46032">
        <ele>40.169005</ele>
        <time>2023-12-30T14:24:06.000Z</time>
      </trkpt>
      <trkpt lat="43.41492" lon="3.46035">
        <ele>40.193248</ele>
        <time>2023-12-30T14:24:07.000Z</time>
      </trkpt>
      <trkpt lat="43.4149" lon="3.46039">
        <ele>40.215942</ele>
        <time>2023-12-30T14:24:08.000Z</time>
      </trkpt>
      <trkpt lat="43.41488" lon="3.46044">
        <ele>40.245535</ele>
        <time>2023-12-30T14:24:09.000Z</time>
      </trkpt>
      <trkpt lat="43.41487" lon="3.46051">
        <ele>40.277574</ele>
        <time>2023-12-30T14:24:10.000Z</time>
      </trkpt>
      <trkpt lat="43.41485" lon="3.46057">
        <ele>40.310993</ele>
        <time>2023-12-30T14:24:11.000Z</time>
      </trkpt>
      <trkpt lat="43.41483" lon="3.46063">
        <ele>40.319957</ele>
        <time>2023-12-30T14:24:12.000Z</time>
      </trkpt>
      <trkpt lat="43.41482" lon="3.46069">
        <ele>40.315733</ele>
        <time>2023-12-30T14:24:13.000Z</time>
      </trkpt>
      <trkpt lat="43.4148" lon="3.46074">
        <ele>40.311661</ele>
        <time>2023-12-30T14:24:14.000Z</time>
      </trkpt>
      <trkpt lat="43.41478" lon="3.46079">
        <ele>40.307795</ele>
        <time>2023-12-30T14:24:15.000Z</time>
      </trkpt>
      <trkpt lat="43.41477" lon="3.46085">
        <ele>40.303968</ele>
        <time>2023-12-30T14:24:16.000Z</time>
      </trkpt>
      <trkpt lat="43.41476" lon="3.4609">
        <ele>40.300043</ele>
        <time>2023-12-30T14:24:17.000Z</time>
      </trkpt>
      <trkpt lat="43.41474" lon="3.46096">
        <ele>40.295725</ele>
        <time>2023-12-30T14:24:18.000Z</time>
      </trkpt>
      <trkpt lat="43.41472" lon="3.46101">
        <ele>40.291336</ele>
        <time>2023-12-30T14:24:19.000Z</time>
      </trkpt>
      <trkpt lat="43.41471" lon="3.46107">
        <ele>40.287231</ele>
        <time>2023-12-30T14:24:20.000Z</time>
      </trkpt>
      <trkpt lat="43.4147" lon="3.46113">
        <ele>40.282986</ele>
        <time>2023-12-30T14:24:21.000Z</time>
      </trkpt>
      <trkpt lat="43.41468" lon="3.46119">
        <ele>40.278558</ele>
        <time>2023-12-30T14:24:22.000Z</time>
      </trkpt>
      <trkpt lat="43.41466" lon="3.46125">
        <ele>40.274027</ele>
        <time>2023-12-30T14:24:23.000Z</time>
      </trkpt>
      <trkpt lat="43.41465" lon="3.46131">
        <ele>40.269509</ele>
        <time>2023-12-30T14:24:24.000Z</time>
      </trkpt>
      <trkpt lat="43.41463" lon="3.46136">
        <ele>40.265551</ele>
        <time>2023-12-30T14:24:25.000Z</time>
      </trkpt>
      <trkpt lat="43.41462" lon="3.46141">
        <ele>40.261657</ele>
        <time>2023-12-30T14:24:26.000Z</time>
      </trkpt>
      <trkpt lat="43.4146" lon="3.46146">
        <ele>40.257981</ele>
        <time>2023-12-30T14:24:27.000Z</time>
      </trkpt>
      <trkpt lat="43.41459" lon="3.46152">
        <ele>40.254103</ele>
        <time>2023-12-30T14:24:28.000Z</time>
      </trkpt>
      <trkpt lat="43.41458" lon="3.46157">
        <ele>40.25021</ele>
        <time>2023-12-30T14:24:29.000Z</time>
      </trkpt>
      <trkpt lat="43.41457" lon="3.46162">
        <ele>40.246574</ele>
        <time>2023-12-30T14:24:30.000Z</time>
      </trkpt>
      <trkpt lat="43.41455" lon="3.46167">
        <ele>40.243042</ele>
        <time>2023-12-30T14:24:31.000Z</time>
      </trkpt>
      <trkpt lat="43.41454" lon="3.46171">
        <ele>40.239901</ele>
        <time>2023-12-30T14:24:32.000Z</time>
      </trkpt>
      <trkpt lat="43.41453" lon="3.46175">
        <ele>40.236889</ele>
        <time>2023-12-30T14:24:33.000Z</time>
      </trkpt>
      <trkpt lat="43.41452" lon="3.46178">
        <ele>40.234047</ele>
        <time>2023-12-30T14:24:34.000Z</time>
      </trkpt>
      <trkpt lat="43.4145" lon="3.46182">
        <ele>40.23111</ele>
        <time>2023-12-30T14:24:35.000Z</time>
      </trkpt>
      <trkpt lat="43.41448" lon="3.46185">
        <ele>40.228287</ele>
        <time>2023-12-30T14:24:36.000Z</time>
      </trkpt>
      <trkpt lat="43.41446" lon="3.46188">
        <ele>40.225525</ele>
        <time>2023-12-30T14:24:37.000Z</time>
      </trkpt>
      <trkpt lat="43.41445" lon="3.46192">
        <ele>40.222816</ele>
        <time>2023-12-30T14:24:38.000Z</time>
      </trkpt>
      <trkpt lat="43.41443" lon="3.46195">
        <ele>40.220113</ele>
        <time>2023-12-30T14:24:39.000Z</time>
      </trkpt>
      <trkpt lat="43.41441" lon="3.46197">
        <ele>40.217642</ele>
        <time>2023-12-30T14:24:40.000Z</time>
      </trkpt>
      <trkpt lat="43.4144" lon="3.462">
        <ele>40.215271</ele>
        <time>2023-12-30T14:24:41.000Z</time>
      </trkpt>
      <trkpt lat="43.41438" lon="3.46201">
        <ele>40.213495</ele>
        <time>2023-12-30T14:24:42.000Z</time>
      </trkpt>
      <trkpt lat="43.41437" lon="3.46203">
        <ele>40.211972</ele>
        <time>2023-12-30T14:24:43.000Z</time>
      </trkpt>
      <trkpt lat="43.41437" lon="3.46203">
        <ele>40.211685</ele>
        <time>2023-12-30T14:24:44.000Z</time>
      </trkpt>
      <trkpt lat="43.41437" lon="3.46203">
        <ele>40.211546</ele>
        <time>2023-12-30T14:24:45.000Z</time>
      </trkpt>
      <trkpt lat="43.41437" lon="3.46203">
        <ele>40.211476</ele>
        <time>2023-12-30T14:24:46.000Z</time>
      </trkpt>
      <trkpt lat="43.41437" lon="3.46203">
        <ele>40.211476</ele>
        <time>2023-12-30T14:24:47.000Z</time>
      </trkpt>
      <trkpt lat="43.41437" lon="3.46203">
        <ele>40.211476</ele>
        <time>2023-12-30T14:24:48.000Z</time>
      </trkpt>
      <trkpt lat="43.41437" lon="3.46203">
        <ele>40.211476</ele>
        <time>2023-12-30T14:24:49.000Z</time>
      </trkpt>
      <trkpt lat="43.41437" lon="3.46203">
        <ele>40.211476</ele>
        <time>2023-12-30T14:24:50.000Z</time>
      </trkpt>
      <trkpt lat="43.41437" lon="3.46203">
        <ele>40.211476</ele>
        <time>2023-12-30T14:24:51.000Z</time>
      </trkpt>
      <trkpt lat="43.41437" lon="3.46203">
        <ele>40.211476</ele>
        <time>2023-12-30T14:24:52.000Z</time>
      </trkpt>
      <trkpt lat="43.41437" lon="3.46203">
        <ele>40.211476</ele>
        <time>2023-12-30T14:24:53.000Z</time>
      </trkpt>
      <trkpt lat="43.41437" lon="3.46203">
        <ele>40.211476</ele>
        <time>2023-12-30T14:24:54.000Z</time>
      </trkpt>
      <trkpt lat="43.41437" lon="3.46203">
        <ele>40.211476</ele>
        <time>2023-12-30T14:24:55.000Z</time>
      </trkpt>
      <trkpt lat="43.41437" lon="3.46203">
        <ele>40.211476</ele>
        <time>2023-12-30T14:24:56.000Z</time>
      </trkpt>
      <trkpt lat="43.41437" lon="3.46203">
        <ele>40.21138</ele>
        <time>2023-12-30T14:24:57.000Z</time>
      </trkpt>
      <trkpt lat="43.41437" lon="3.46203">
        <ele>40.21138</ele>
        <time>2023-12-30T14:24:58.000Z</time>
      </trkpt>
      <trkpt lat="43.41437" lon="3.46203">
        <ele>40.21138</ele>
        <time>2023-12-30T14:24:59.000Z</time>
      </trkpt>
      <trkpt lat="43.41437" lon="3.46203">
        <ele>40.21138</ele>
        <time>2023-12-30T14:25:00.000Z</time>
      </trkpt>
      <trkpt lat="43.41437" lon="3.46203">
        <ele>40.21138</ele>
        <time>2023-12-30T14:25:01.000Z</time>
      </trkpt>
      <trkpt lat="43.41437" lon="3.46203">
        <ele>40.21138</ele>
        <time>2023-12-30T14:25:02.000Z</time>
      </trkpt>
      <trkpt lat="43.41437" lon="3.46203">
        <ele>40.21138</ele>
        <time>2023-12-30T14:25:03.000Z</time>
      </trkpt>
      <trkpt lat="43.41437" lon="3.46203">
        <ele>40.21138</ele>
        <time>2023-12-30T14:25:04.000Z</time>
      </trkpt>
      <trkpt lat="43.41437" lon="3.46203">
        <ele>40.211311</ele>
        <time>2023-12-30T14:25:05.000Z</time>
      </trkpt>
      <trkpt lat="43.41437" lon="3.46203">
        <ele>40.211215</ele>
        <time>2023-12-30T14:25:06.000Z</time>
      </trkpt>
      <trkpt lat="43.41437" lon="3.46203">
        <ele>40.211215</ele>
        <time>2023-12-30T14:25:07.000Z</time>
      </trkpt>
      <trkpt lat="43.41437" lon="3.46203">
        <ele>40.211215</ele>
        <time>2023-12-30T14:25:08.000Z</time>
      </trkpt>
      <trkpt lat="43.41437" lon="3.46203">
        <ele>40.211215</ele>
        <time>2023-12-30T14:25:09.000Z</time>
      </trkpt>
      <trkpt lat="43.41437" lon="3.46203">
        <ele>40.211096</ele>
        <time>2023-12-30T14:25:10.000Z</time>
      </trkpt>
      <trkpt lat="43.41436" lon="3.46204">
        <ele>40.21053</ele>
        <time>2023-12-30T14:25:11.000Z</time>
      </trkpt>
      <trkpt lat="43.41436" lon="3.46205">
        <ele>40.209338</ele>
        <time>2023-12-30T14:25:12.000Z</time>
      </trkpt>
      <trkpt lat="43.41435" lon="3.46206">
        <ele>40.208538</ele>
        <time>2023-12-30T14:25:13.000Z</time>
      </trkpt>
      <trkpt lat="43.41435" lon="3.46206">
        <ele>40.207827</ele>
        <time>2023-12-30T14:25:14.000Z</time>
      </trkpt>
      <trkpt lat="43.41434" lon="3.46207">
        <ele>40.207419</ele>
        <time>2023-12-30T14:25:15.000Z</time>
      </trkpt>
      <trkpt lat="43.41434" lon="3.46207">
        <ele>40.207301</ele>
        <time>2023-12-30T14:25:16.000Z</time>
      </trkpt>
      <trkpt lat="43.41433" lon="3.46208">
        <ele>40.206148</ele>
        <time>2023-12-30T14:25:17.000Z</time>
      </trkpt>
      <trkpt lat="43.41432" lon="3.46209">
        <ele>40.204434</ele>
        <time>2023-12-30T14:25:18.000Z</time>
      </trkpt>
      <trkpt lat="43.4143" lon="3.4621">
        <ele>40.202487</ele>
        <time>2023-12-30T14:25:19.000Z</time>
      </trkpt>
      <trkpt lat="43.41428" lon="3.46211">
        <ele>40.200583</ele>
        <time>2023-12-30T14:25:20.000Z</time>
      </trkpt>
      <trkpt lat="43.41426" lon="3.46212">
        <ele>40.198513</ele>
        <time>2023-12-30T14:25:21.000Z</time>
      </trkpt>
      <trkpt lat="43.41424" lon="3.46212">
        <ele>40.196309</ele>
        <time>2023-12-30T14:25:22.000Z</time>
      </trkpt>
      <trkpt lat="43.41421" lon="3.46211">
        <ele>40.194066</ele>
        <time>2023-12-30T14:25:23.000Z</time>
      </trkpt>
      <trkpt lat="43.41419" lon="3.4621">
        <ele>40.191595</ele>
        <time>2023-12-30T14:25:24.000Z</time>
      </trkpt>
      <trkpt lat="43.41416" lon="3.46209">
        <ele>40.188528</ele>
        <time>2023-12-30T14:25:25.000Z</time>
      </trkpt>
      <trkpt lat="43.41413" lon="3.46208">
        <ele>40.186069</ele>
        <time>2023-12-30T14:25:26.000Z</time>
      </trkpt>
      <trkpt lat="43.4141" lon="3.46207">
        <ele>40.183034</ele>
        <time>2023-12-30T14:25:27.000Z</time>
      </trkpt>
      <trkpt lat="43.41407" lon="3.46205">
        <ele>40.179885</ele>
        <time>2023-12-30T14:25:28.000Z</time>
      </trkpt>
      <trkpt lat="43.41405" lon="3.46205">
        <ele>40.177595</ele>
        <time>2023-12-30T14:25:29.000Z</time>
      </trkpt>
      <trkpt lat="43.41402" lon="3.46203">
        <ele>40.175148</ele>
        <time>2023-12-30T14:25:30.000Z</time>
      </trkpt>
      <trkpt lat="43.414" lon="3.46203">
        <ele>40.172798</ele>
        <time>2023-12-30T14:25:31.000Z</time>
      </trkpt>
      <trkpt lat="43.41397" lon="3.46202">
        <ele>40.170322</ele>
        <time>2023-12-30T14:25:32.000Z</time>
      </trkpt>
      <trkpt lat="43.41395" lon="3.46201">
        <ele>40.167828</ele>
        <time>2023-12-30T14:25:33.000Z</time>
      </trkpt>
      <trkpt lat="43.41393" lon="3.462">
        <ele>40.165537</ele>
        <time>2023-12-30T14:25:34.000Z</time>
      </trkpt>
      <trkpt lat="43.4139" lon="3.46199">
        <ele>40.163043</ele>
        <time>2023-12-30T14:25:35.000Z</time>
      </trkpt>
      <trkpt lat="43.41388" lon="3.46198">
        <ele>40.1608</ele>
        <time>2023-12-30T14:25:36.000Z</time>
      </trkpt>
      <trkpt lat="43.41386" lon="3.46197">
        <ele>40.158875</ele>
        <time>2023-12-30T14:25:37.000Z</time>
      </trkpt>
      <trkpt lat="43.41384" lon="3.46197">
        <ele>40.156939</ele>
        <time>2023-12-30T14:25:38.000Z</time>
      </trkpt>
      <trkpt lat="43.41382" lon="3.46196">
        <ele>40.154666</ele>
        <time>2023-12-30T14:25:39.000Z</time>
      </trkpt>
      <trkpt lat="43.41379" lon="3.46195">
        <ele>40.152446</ele>
        <time>2023-12-30T14:25:40.000Z</time>
      </trkpt>
      <trkpt lat="43.41377" lon="3.46194">
        <ele>40.157729</ele>
        <time>2023-12-30T14:25:41.000Z</time>
      </trkpt>
      <trkpt lat="43.41375" lon="3.46193">
        <ele>40.198623</ele>
        <time>2023-12-30T14:25:42.000Z</time>
      </trkpt>
      <trkpt lat="43.41372" lon="3.46192">
        <ele>40.239679</ele>
        <time>2023-12-30T14:25:43.000Z</time>
      </trkpt>
      <trkpt lat="43.4137" lon="3.46191">
        <ele>40.284901</ele>
        <time>2023-12-30T14:25:44.000Z</time>
      </trkpt>
      <trkpt lat="43.41367" lon="3.4619">
        <ele>40.326957</ele>
        <time>2023-12-30T14:25:45.000Z</time>
      </trkpt>
      <trkpt lat="43.41365" lon="3.46189">
        <ele>40.36941</ele>
        <time>2023-12-30T14:25:46.000Z</time>
      </trkpt>
      <trkpt lat="43.41363" lon="3.46188">
        <ele>40.408851</ele>
        <time>2023-12-30T14:25:47.000Z</time>
      </trkpt>
      <trkpt lat="43.4136" lon="3.46187">
        <ele>40.446392</ele>
        <time>2023-12-30T14:25:48.000Z</time>
      </trkpt>
      <trkpt lat="43.41358" lon="3.46187">
        <ele>40.48368</ele>
        <time>2023-12-30T14:25:49.000Z</time>
      </trkpt>
      <trkpt lat="43.41355" lon="3.46186">
        <ele>40.534082</ele>
        <time>2023-12-30T14:25:50.000Z</time>
      </trkpt>
      <trkpt lat="43.41352" lon="3.46186">
        <ele>40.586129</ele>
        <time>2023-12-30T14:25:51.000Z</time>
      </trkpt>
      <trkpt lat="43.41349" lon="3.46185">
        <ele>40.632316</ele>
        <time>2023-12-30T14:25:52.000Z</time>
      </trkpt>
      <trkpt lat="43.41347" lon="3.46184">
        <ele>40.682021</ele>
        <time>2023-12-30T14:25:53.000Z</time>
      </trkpt>
      <trkpt lat="43.41344" lon="3.46183">
        <ele>40.724213</ele>
        <time>2023-12-30T14:25:54.000Z</time>
      </trkpt>
      <trkpt lat="43.41341" lon="3.46183">
        <ele>40.772564</ele>
        <time>2023-12-30T14:25:55.000Z</time>
      </trkpt>
      <trkpt lat="43.41339" lon="3.46182">
        <ele>40.814565</ele>
        <time>2023-12-30T14:25:56.000Z</time>
      </trkpt>
      <trkpt lat="43.41336" lon="3.46182">
        <ele>40.852881</ele>
        <time>2023-12-30T14:25:57.000Z</time>
      </trkpt>
      <trkpt lat="43.41334" lon="3.46182">
        <ele>40.896528</ele>
        <time>2023-12-30T14:25:58.000Z</time>
      </trkpt>
      <trkpt lat="43.41332" lon="3.46181">
        <ele>40.931775</ele>
        <time>2023-12-30T14:25:59.000Z</time>
      </trkpt>
      <trkpt lat="43.41329" lon="3.46181">
        <ele>40.971968</ele>
        <time>2023-12-30T14:26:00.000Z</time>
      </trkpt>
      <trkpt lat="43.41327" lon="3.4618">
        <ele>41.01744</ele>
        <time>2023-12-30T14:26:01.000Z</time>
      </trkpt>
      <trkpt lat="43.41324" lon="3.4618">
        <ele>41.065896</ele>
        <time>2023-12-30T14:26:02.000Z</time>
      </trkpt>
      <trkpt lat="43.41321" lon="3.46179">
        <ele>41.111814</ele>
        <time>2023-12-30T14:26:03.000Z</time>
      </trkpt>
      <trkpt lat="43.41318" lon="3.46178">
        <ele>41.157285</ele>
        <time>2023-12-30T14:26:04.000Z</time>
      </trkpt>
      <trkpt lat="43.41316" lon="3.46177">
        <ele>41.198179</ele>
        <time>2023-12-30T14:26:05.000Z</time>
      </trkpt>
      <trkpt lat="43.41313" lon="3.46176">
        <ele>41.242225</ele>
        <time>2023-12-30T14:26:06.000Z</time>
      </trkpt>
      <trkpt lat="43.41311" lon="3.46176">
        <ele>41.286056</ele>
        <time>2023-12-30T14:26:07.000Z</time>
      </trkpt>
      <trkpt lat="43.41308" lon="3.46175">
        <ele>41.331279</ele>
        <time>2023-12-30T14:26:08.000Z</time>
      </trkpt>
      <trkpt lat="43.41306" lon="3.46174">
        <ele>41.375325</ele>
        <time>2023-12-30T14:26:09.000Z</time>
      </trkpt>
      <trkpt lat="43.41303" lon="3.46173">
        <ele>41.414488</ele>
        <time>2023-12-30T14:26:10.000Z</time>
      </trkpt>
      <trkpt lat="43.41301" lon="3.46173">
        <ele>41.457783</ele>
        <time>2023-12-30T14:26:11.000Z</time>
      </trkpt>
      <trkpt lat="43.41298" lon="3.46173">
        <ele>41.499505</ele>
        <time>2023-12-30T14:26:12.000Z</time>
      </trkpt>
      <trkpt lat="43.41296" lon="3.46173">
        <ele>41.529529</ele>
        <time>2023-12-30T14:26:13.000Z</time>
      </trkpt>
      <trkpt lat="43.41295" lon="3.46172">
        <ele>41.559675</ele>
        <time>2023-12-30T14:26:14.000Z</time>
      </trkpt>
      <trkpt lat="43.41292" lon="3.46172">
        <ele>41.595107</ele>
        <time>2023-12-30T14:26:15.000Z</time>
      </trkpt>
      <trkpt lat="43.4129" lon="3.46171">
        <ele>41.634862</ele>
        <time>2023-12-30T14:26:16.000Z</time>
      </trkpt>
      <trkpt lat="43.41288" lon="3.4617">
        <ele>41.671429</ele>
        <time>2023-12-30T14:26:17.000Z</time>
      </trkpt>
      <trkpt lat="43.41286" lon="3.46169">
        <ele>41.710764</ele>
        <time>2023-12-30T14:26:18.000Z</time>
      </trkpt>
      <trkpt lat="43.41285" lon="3.46166">
        <ele>41.747005</ele>
        <time>2023-12-30T14:26:19.000Z</time>
      </trkpt>
      <trkpt lat="43.41283" lon="3.46164">
        <ele>41.785129</ele>
        <time>2023-12-30T14:26:20.000Z</time>
      </trkpt>
      <trkpt lat="43.41282" lon="3.46161">
        <ele>41.82425</ele>
        <time>2023-12-30T14:26:21.000Z</time>
      </trkpt>
      <trkpt lat="43.41281" lon="3.46158">
        <ele>41.861933</ele>
        <time>2023-12-30T14:26:22.000Z</time>
      </trkpt>
      <trkpt lat="43.4128" lon="3.46155">
        <ele>41.898771</ele>
        <time>2023-12-30T14:26:23.000Z</time>
      </trkpt>
      <trkpt lat="43.4128" lon="3.46152">
        <ele>41.939834</ele>
        <time>2023-12-30T14:26:24.000Z</time>
      </trkpt>
      <trkpt lat="43.41281" lon="3.46149">
        <ele>41.977008</ele>
        <time>2023-12-30T14:26:25.000Z</time>
      </trkpt>
      <trkpt lat="43.41282" lon="3.46146">
        <ele>42.018527</ele>
        <time>2023-12-30T14:26:26.000Z</time>
      </trkpt>
      <trkpt lat="43.41282" lon="3.46143">
        <ele>42.054291</ele>
        <time>2023-12-30T14:26:27.000Z</time>
      </trkpt>
      <trkpt lat="43.41283" lon="3.4614">
        <ele>42.095256</ele>
        <time>2023-12-30T14:26:28.000Z</time>
      </trkpt>
      <trkpt lat="43.41284" lon="3.46137">
        <ele>42.136924</ele>
        <time>2023-12-30T14:26:29.000Z</time>
      </trkpt>
      <trkpt lat="43.41286" lon="3.46133">
        <ele>42.182263</ele>
        <time>2023-12-30T14:26:30.000Z</time>
      </trkpt>
      <trkpt lat="43.41287" lon="3.4613">
        <ele>42.232113</ele>
        <time>2023-12-30T14:26:31.000Z</time>
      </trkpt>
      <trkpt lat="43.41288" lon="3.46126">
        <ele>42.282687</ele>
        <time>2023-12-30T14:26:32.000Z</time>
      </trkpt>
      <trkpt lat="43.41289" lon="3.46122">
        <ele>42.329236</ele>
        <time>2023-12-30T14:26:33.000Z</time>
      </trkpt>
      <trkpt lat="43.4129" lon="3.46119">
        <ele>42.376362</ele>
        <time>2023-12-30T14:26:34.000Z</time>
      </trkpt>
      <trkpt lat="43.41291" lon="3.46115">
        <ele>42.425765</ele>
        <time>2023-12-30T14:26:35.000Z</time>
      </trkpt>
      <trkpt lat="43.41293" lon="3.46111">
        <ele>42.480132</ele>
        <time>2023-12-30T14:26:36.000Z</time>
      </trkpt>
      <trkpt lat="43.41294" lon="3.46107">
        <ele>42.530082</ele>
        <time>2023-12-30T14:26:37.000Z</time>
      </trkpt>
      <trkpt lat="43.41295" lon="3.46102">
        <ele>42.585289</ele>
        <time>2023-12-30T14:26:38.000Z</time>
      </trkpt>
      <trkpt lat="43.41296" lon="3.46099">
        <ele>42.630712</ele>
        <time>2023-12-30T14:26:39.000Z</time>
      </trkpt>
      <trkpt lat="43.41297" lon="3.46096">
        <ele>42.673469</ele>
        <time>2023-12-30T14:26:40.000Z</time>
      </trkpt>
      <trkpt lat="43.41298" lon="3.46092">
        <ele>42.716149</ele>
        <time>2023-12-30T14:26:41.000Z</time>
      </trkpt>
      <trkpt lat="43.41299" lon="3.46089">
        <ele>42.761572</ele>
        <time>2023-12-30T14:26:42.000Z</time>
      </trkpt>
      <trkpt lat="43.41299" lon="3.46085">
        <ele>42.804253</ele>
        <time>2023-12-30T14:26:43.000Z</time>
      </trkpt>
      <trkpt lat="43.413" lon="3.46082">
        <ele>42.846269</ele>
        <time>2023-12-30T14:26:44.000Z</time>
      </trkpt>
      <trkpt lat="43.41301" lon="3.46079">
        <ele>42.891278</ele>
        <time>2023-12-30T14:26:45.000Z</time>
      </trkpt>
      <trkpt lat="43.41302" lon="3.46075">
        <ele>42.935592</ele>
        <time>2023-12-30T14:26:46.000Z</time>
      </trkpt>
      <trkpt lat="43.41303" lon="3.46071">
        <ele>42.984147</ele>
        <time>2023-12-30T14:26:47.000Z</time>
      </trkpt>
      <trkpt lat="43.41304" lon="3.46068">
        <ele>43.031984</ele>
        <time>2023-12-30T14:26:48.000Z</time>
      </trkpt>
      <trkpt lat="43.41305" lon="3.46064">
        <ele>43.081934</ele>
        <time>2023-12-30T14:26:49.000Z</time>
      </trkpt>
      <trkpt lat="43.41306" lon="3.4606">
        <ele>43.133087</ele>
        <time>2023-12-30T14:26:50.000Z</time>
      </trkpt>
      <trkpt lat="43.41307" lon="3.46056">
        <ele>43.133061</ele>
        <time>2023-12-30T14:26:51.000Z</time>
      </trkpt>
      <trkpt lat="43.41308" lon="3.46052">
        <ele>43.124115</ele>
        <time>2023-12-30T14:26:52.000Z</time>
      </trkpt>
      <trkpt lat="43.41309" lon="3.46048">
        <ele>43.114635</ele>
        <time>2023-12-30T14:26:53.000Z</time>
      </trkpt>
      <trkpt lat="43.4131" lon="3.46044">
        <ele>43.105666</ele>
        <time>2023-12-30T14:26:54.000Z</time>
      </trkpt>
      <trkpt lat="43.41311" lon="3.4604">
        <ele>43.095757</ele>
        <time>2023-12-30T14:26:55.000Z</time>
      </trkpt>
      <trkpt lat="43.41311" lon="3.46036">
        <ele>43.086991</ele>
        <time>2023-12-30T14:26:56.000Z</time>
      </trkpt>
      <trkpt lat="43.41312" lon="3.46032">
        <ele>43.078711</ele>
        <time>2023-12-30T14:26:57.000Z</time>
      </trkpt>
      <trkpt lat="43.41312" lon="3.46029">
        <ele>43.070702</ele>
        <time>2023-12-30T14:26:58.000Z</time>
      </trkpt>
      <trkpt lat="43.41314" lon="3.46026">
        <ele>43.062731</ele>
        <time>2023-12-30T14:26:59.000Z</time>
      </trkpt>
      <trkpt lat="43.41315" lon="3.46021">
        <ele>43.052103</ele>
        <time>2023-12-30T14:27:00.000Z</time>
      </trkpt>
      <trkpt lat="43.41316" lon="3.46017">
        <ele>43.042729</ele>
        <time>2023-12-30T14:27:01.000Z</time>
      </trkpt>
      <trkpt lat="43.41317" lon="3.46014">
        <ele>43.033495</ele>
        <time>2023-12-30T14:27:02.000Z</time>
      </trkpt>
      <trkpt lat="43.41319" lon="3.4601">
        <ele>43.023727</ele>
        <time>2023-12-30T14:27:03.000Z</time>
      </trkpt>
      <trkpt lat="43.4132" lon="3.46006">
        <ele>43.014155</ele>
        <time>2023-12-30T14:27:04.000Z</time>
      </trkpt>
      <trkpt lat="43.41321" lon="3.46001">
        <ele>43.004253</ele>
        <time>2023-12-30T14:27:05.000Z</time>
      </trkpt>
      <trkpt lat="43.41322" lon="3.45997">
        <ele>42.993328</ele>
        <time>2023-12-30T14:27:06.000Z</time>
      </trkpt>
      <trkpt lat="43.41324" lon="3.45992">
        <ele>42.981639</ele>
        <time>2023-12-30T14:27:07.000Z</time>
      </trkpt>
      <trkpt lat="43.41325" lon="3.45987">
        <ele>42.970714</ele>
        <time>2023-12-30T14:27:08.000Z</time>
      </trkpt>
      <trkpt lat="43.41327" lon="3.45982">
        <ele>42.958124</ele>
        <time>2023-12-30T14:27:09.000Z</time>
      </trkpt>
      <trkpt lat="43.41329" lon="3.45977">
        <ele>42.944974</ele>
        <time>2023-12-30T14:27:10.000Z</time>
      </trkpt>
      <trkpt lat="43.4133" lon="3.45972">
        <ele>42.933843</ele>
        <time>2023-12-30T14:27:11.000Z</time>
      </trkpt>
      <trkpt lat="43.41331" lon="3.45968">
        <ele>42.923638</ele>
        <time>2023-12-30T14:27:12.000Z</time>
      </trkpt>
      <trkpt lat="43.41332" lon="3.45963">
        <ele>42.913885</ele>
        <time>2023-12-30T14:27:13.000Z</time>
      </trkpt>
      <trkpt lat="43.41331" lon="3.4596">
        <ele>42.906207</ele>
        <time>2023-12-30T14:27:14.000Z</time>
      </trkpt>
      <trkpt lat="43.41331" lon="3.45956">
        <ele>42.898406</ele>
        <time>2023-12-30T14:27:15.000Z</time>
      </trkpt>
      <trkpt lat="43.4133" lon="3.45953">
        <ele>42.890968</ele>
        <time>2023-12-30T14:27:16.000Z</time>
      </trkpt>
      <trkpt lat="43.41329" lon="3.4595">
        <ele>42.88408</ele>
        <time>2023-12-30T14:27:17.000Z</time>
      </trkpt>
      <trkpt lat="43.41329" lon="3.45947">
        <ele>42.877051</ele>
        <time>2023-12-30T14:27:18.000Z</time>
      </trkpt>
      <trkpt lat="43.41328" lon="3.45944">
        <ele>42.869946</ele>
        <time>2023-12-30T14:27:19.000Z</time>
      </trkpt>
      <trkpt lat="43.41327" lon="3.45941">
        <ele>42.862023</ele>
        <time>2023-12-30T14:27:20.000Z</time>
      </trkpt>
      <trkpt lat="43.41326" lon="3.45938">
        <ele>42.854223</ele>
        <time>2023-12-30T14:27:21.000Z</time>
      </trkpt>
      <trkpt lat="43.41326" lon="3.45935">
        <ele>42.846941</ele>
        <time>2023-12-30T14:27:22.000Z</time>
      </trkpt>
      <trkpt lat="43.41325" lon="3.45932">
        <ele>42.841297</ele>
        <time>2023-12-30T14:27:23.000Z</time>
      </trkpt>
      <trkpt lat="43.41325" lon="3.45931">
        <ele>42.837313</ele>
        <time>2023-12-30T14:27:24.000Z</time>
      </trkpt>
      <trkpt lat="43.41324" lon="3.4593">
        <ele>42.835341</ele>
        <time>2023-12-30T14:27:25.000Z</time>
      </trkpt>
      <trkpt lat="43.41325" lon="3.4593">
        <ele>42.834045</ele>
        <time>2023-12-30T14:27:26.000Z</time>
      </trkpt>
      <trkpt lat="43.41325" lon="3.4593">
        <ele>42.83374</ele>
        <time>2023-12-30T14:27:27.000Z</time>
      </trkpt>
      <trkpt lat="43.41325" lon="3.4593">
        <ele>42.83374</ele>
        <time>2023-12-30T14:27:28.000Z</time>
      </trkpt>
      <trkpt lat="43.41325" lon="3.4593">
        <ele>42.83374</ele>
        <time>2023-12-30T14:27:29.000Z</time>
      </trkpt>
      <trkpt lat="43.41325" lon="3.4593">
        <ele>42.833519</ele>
        <time>2023-12-30T14:27:30.000Z</time>
      </trkpt>
      <trkpt lat="43.41325" lon="3.4593">
        <ele>42.833519</ele>
        <time>2023-12-30T14:27:31.000Z</time>
      </trkpt>
      <trkpt lat="43.41325" lon="3.4593">
        <ele>42.833519</ele>
        <time>2023-12-30T14:27:32.000Z</time>
      </trkpt>
      <trkpt lat="43.41325" lon="3.4593">
        <ele>42.833297</ele>
        <time>2023-12-30T14:27:33.000Z</time>
      </trkpt>
      <trkpt lat="43.41325" lon="3.4593">
        <ele>42.833297</ele>
        <time>2023-12-30T14:27:34.000Z</time>
      </trkpt>
      <trkpt lat="43.41325" lon="3.4593">
        <ele>42.833076</ele>
        <time>2023-12-30T14:27:35.000Z</time>
      </trkpt>
      <trkpt lat="43.41325" lon="3.4593">
        <ele>42.833076</ele>
        <time>2023-12-30T14:27:36.000Z</time>
      </trkpt>
      <trkpt lat="43.41325" lon="3.45929">
        <ele>42.831928</ele>
        <time>2023-12-30T14:27:37.000Z</time>
      </trkpt>
      <trkpt lat="43.41325" lon="3.45926">
        <ele>42.825225</ele>
        <time>2023-12-30T14:27:38.000Z</time>
      </trkpt>
      <trkpt lat="43.41325" lon="3.45923">
        <ele>42.818197</ele>
        <time>2023-12-30T14:27:39.000Z</time>
      </trkpt>
      <trkpt lat="43.41324" lon="3.45919">
        <ele>42.807683</ele>
        <time>2023-12-30T14:27:40.000Z</time>
      </trkpt>
      <trkpt lat="43.41323" lon="3.45913">
        <ele>42.794616</ele>
        <time>2023-12-30T14:27:41.000Z</time>
      </trkpt>
      <trkpt lat="43.41323" lon="3.45907">
        <ele>42.781764</ele>
        <time>2023-12-30T14:27:42.000Z</time>
      </trkpt>
      <trkpt lat="43.41323" lon="3.45901">
        <ele>42.769056</ele>
        <time>2023-12-30T14:27:43.000Z</time>
      </trkpt>
      <trkpt lat="43.41322" lon="3.45895">
        <ele>42.755994</ele>
        <time>2023-12-30T14:27:44.000Z</time>
      </trkpt>
      <trkpt lat="43.41322" lon="3.4589">
        <ele>42.743378</ele>
        <time>2023-12-30T14:27:45.000Z</time>
      </trkpt>
      <trkpt lat="43.41323" lon="3.45884">
        <ele>42.730747</ele>
        <time>2023-12-30T14:27:46.000Z</time>
      </trkpt>
      <trkpt lat="43.41323" lon="3.45878">
        <ele>42.718127</ele>
        <time>2023-12-30T14:27:47.000Z</time>
      </trkpt>
      <trkpt lat="43.41322" lon="3.45874">
        <ele>42.708369</ele>
        <time>2023-12-30T14:27:48.000Z</time>
      </trkpt>
      <trkpt lat="43.41322" lon="3.4587">
        <ele>42.699073</ele>
        <time>2023-12-30T14:27:49.000Z</time>
      </trkpt>
      <trkpt lat="43.41323" lon="3.45866">
        <ele>42.690861</ele>
        <time>2023-12-30T14:27:50.000Z</time>
      </trkpt>
      <trkpt lat="43.41323" lon="3.45862">
        <ele>42.682229</ele>
        <time>2023-12-30T14:27:51.000Z</time>
      </trkpt>
      <trkpt lat="43.41323" lon="3.45858">
        <ele>42.67337</ele>
        <time>2023-12-30T14:27:52.000Z</time>
      </trkpt>
      <trkpt lat="43.41323" lon="3.45854">
        <ele>42.66341</ele>
        <time>2023-12-30T14:27:53.000Z</time>
      </trkpt>
      <trkpt lat="43.41323" lon="3.45849">
        <ele>42.653671</ele>
        <time>2023-12-30T14:27:54.000Z</time>
      </trkpt>
      <trkpt lat="43.41323" lon="3.45845">
        <ele>42.643706</ele>
        <time>2023-12-30T14:27:55.000Z</time>
      </trkpt>
      <trkpt lat="43.41322" lon="3.4584">
        <ele>42.633012</ele>
        <time>2023-12-30T14:27:56.000Z</time>
      </trkpt>
      <trkpt lat="43.41321" lon="3.45835">
        <ele>42.621986</ele>
        <time>2023-12-30T14:27:57.000Z</time>
      </trkpt>
      <trkpt lat="43.41319" lon="3.45831">
        <ele>42.610163</ele>
        <time>2023-12-30T14:27:58.000Z</time>
      </trkpt>
      <trkpt lat="43.41316" lon="3.45828">
        <ele>42.598733</ele>
        <time>2023-12-30T14:27:59.000Z</time>
      </trkpt>
      <trkpt lat="43.41312" lon="3.45827">
        <ele>42.541362</ele>
        <time>2023-12-30T14:28:00.000Z</time>
      </trkpt>
      <trkpt lat="43.41308" lon="3.45827">
        <ele>42.432402</ele>
        <time>2023-12-30T14:28:01.000Z</time>
      </trkpt>
      <trkpt lat="43.41305" lon="3.45828">
        <ele>42.335035</ele>
        <time>2023-12-30T14:28:02.000Z</time>
      </trkpt>
      <trkpt lat="43.41301" lon="3.45828">
        <ele>42.237668</ele>
        <time>2023-12-30T14:28:03.000Z</time>
      </trkpt>
      <trkpt lat="43.41298" lon="3.45829">
        <ele>42.152823</ele>
        <time>2023-12-30T14:28:04.000Z</time>
      </trkpt>
      <trkpt lat="43.41295" lon="3.45829">
        <ele>42.057051</ele>
        <time>2023-12-30T14:28:05.000Z</time>
      </trkpt>
      <trkpt lat="43.41291" lon="3.45831">
        <ele>41.96056</ele>
        <time>2023-12-30T14:28:06.000Z</time>
      </trkpt>
      <trkpt lat="43.41288" lon="3.45831">
        <ele>41.87114</ele>
        <time>2023-12-30T14:28:07.000Z</time>
      </trkpt>
      <trkpt lat="43.41285" lon="3.45833">
        <ele>41.778502</ele>
        <time>2023-12-30T14:28:08.000Z</time>
      </trkpt>
      <trkpt lat="43.41282" lon="3.45834">
        <ele>41.681527</ele>
        <time>2023-12-30T14:28:09.000Z</time>
      </trkpt>
      <trkpt lat="43.41278" lon="3.45835">
        <ele>41.584994</ele>
        <time>2023-12-30T14:28:10.000Z</time>
      </trkpt>
      <trkpt lat="43.41275" lon="3.45836">
        <ele>41.495016</ele>
        <time>2023-12-30T14:28:11.000Z</time>
      </trkpt>
      <trkpt lat="43.41272" lon="3.45837">
        <ele>41.402379</ele>
        <time>2023-12-30T14:28:12.000Z</time>
      </trkpt>
      <trkpt lat="43.41268" lon="3.45838">
        <ele>41.303519</ele>
        <time>2023-12-30T14:28:13.000Z</time>
      </trkpt>
      <trkpt lat="43.41265" lon="3.4584">
        <ele>41.204984</ele>
        <time>2023-12-30T14:28:14.000Z</time>
      </trkpt>
      <trkpt lat="43.41262" lon="3.45841">
        <ele>41.102586</ele>
        <time>2023-12-30T14:28:15.000Z</time>
      </trkpt>
      <trkpt lat="43.41258" lon="3.45843">
        <ele>40.99755</ele>
        <time>2023-12-30T14:28:16.000Z</time>
      </trkpt>
      <trkpt lat="43.41254" lon="3.45844">
        <ele>40.892005</ele>
        <time>2023-12-30T14:28:17.000Z</time>
      </trkpt>
      <trkpt lat="43.41251" lon="3.45845">
        <ele>40.79455</ele>
        <time>2023-12-30T14:28:18.000Z</time>
      </trkpt>
      <trkpt lat="43.41247" lon="3.45847">
        <ele>40.69277</ele>
        <time>2023-12-30T14:28:19.000Z</time>
      </trkpt>
      <trkpt lat="43.41244" lon="3.45848">
        <ele>40.597466</ele>
        <time>2023-12-30T14:28:20.000Z</time>
      </trkpt>
      <trkpt lat="43.41241" lon="3.45849">
        <ele>40.504828</ele>
        <time>2023-12-30T14:28:21.000Z</time>
      </trkpt>
      <trkpt lat="43.41238" lon="3.4585">
        <ele>40.413718</ele>
        <time>2023-12-30T14:28:22.000Z</time>
      </trkpt>
      <trkpt lat="43.41234" lon="3.45852">
        <ele>40.310668</ele>
        <time>2023-12-30T14:28:23.000Z</time>
      </trkpt>
      <trkpt lat="43.41231" lon="3.45854">
        <ele>40.20827</ele>
        <time>2023-12-30T14:28:24.000Z</time>
      </trkpt>
      <trkpt lat="43.41227" lon="3.45855">
        <ele>40.104403</ele>
        <time>2023-12-30T14:28:25.000Z</time>
      </trkpt>
      <trkpt lat="43.41224" lon="3.45857">
        <ele>40.005271</ele>
        <time>2023-12-30T14:28:26.000Z</time>
      </trkpt>
      <trkpt lat="43.4122" lon="3.45858">
        <ele>39.902426</ele>
        <time>2023-12-30T14:28:27.000Z</time>
      </trkpt>
      <trkpt lat="43.41216" lon="3.45859">
        <ele>39.799089</ele>
        <time>2023-12-30T14:28:28.000Z</time>
      </trkpt>
      <trkpt lat="43.41213" lon="3.4586">
        <ele>39.69084</ele>
        <time>2023-12-30T14:28:29.000Z</time>
      </trkpt>
      <trkpt lat="43.41209" lon="3.45862">
        <ele>39.590692</ele>
        <time>2023-12-30T14:28:30.000Z</time>
      </trkpt>
      <trkpt lat="43.41206" lon="3.45863">
        <ele>39.49156</ele>
        <time>2023-12-30T14:28:31.000Z</time>
      </trkpt>
      <trkpt lat="43.41202" lon="3.45864">
        <ele>39.382338</ele>
        <time>2023-12-30T14:28:32.000Z</time>
      </trkpt>
      <trkpt lat="43.41198" lon="3.45866">
        <ele>39.272004</ele>
        <time>2023-12-30T14:28:33.000Z</time>
      </trkpt>
      <trkpt lat="43.41195" lon="3.45867">
        <ele>39.175471</ele>
        <time>2023-12-30T14:28:34.000Z</time>
      </trkpt>
      <trkpt lat="43.41191" lon="3.45868">
        <ele>39.080167</ele>
        <time>2023-12-30T14:28:35.000Z</time>
      </trkpt>
      <trkpt lat="43.41188" lon="3.45869">
        <ele>38.988589</ele>
        <time>2023-12-30T14:28:36.000Z</time>
      </trkpt>
      <trkpt lat="43.41185" lon="3.45871">
        <ele>38.894315</ele>
        <time>2023-12-30T14:28:37.000Z</time>
      </trkpt>
      <trkpt lat="43.41182" lon="3.45872">
        <ele>38.805429</ele>
        <time>2023-12-30T14:28:38.000Z</time>
      </trkpt>
      <trkpt lat="43.41179" lon="3.45873">
        <ele>38.713851</ele>
        <time>2023-12-30T14:28:39.000Z</time>
      </trkpt>
      <trkpt lat="43.41176" lon="3.45874">
        <ele>38.629772</ele>
        <time>2023-12-30T14:28:40.000Z</time>
      </trkpt>
      <trkpt lat="43.41173" lon="3.45875">
        <ele>38.538194</ele>
        <time>2023-12-30T14:28:41.000Z</time>
      </trkpt>
      <trkpt lat="43.41169" lon="3.45876">
        <ele>38.448774</ele>
        <time>2023-12-30T14:28:42.000Z</time>
      </trkpt>
      <trkpt lat="43.41166" lon="3.45876">
        <ele>38.355367</ele>
        <time>2023-12-30T14:28:43.000Z</time>
      </trkpt>
      <trkpt lat="43.41163" lon="3.45877">
        <ele>38.258834</ele>
        <time>2023-12-30T14:28:44.000Z</time>
      </trkpt>
      <trkpt lat="43.41159" lon="3.45878">
        <ele>38.166854</ele>
        <time>2023-12-30T14:28:45.000Z</time>
      </trkpt>
      <trkpt lat="43.41157" lon="3.45878">
        <ele>38.088693</ele>
        <time>2023-12-30T14:28:46.000Z</time>
      </trkpt>
      <trkpt lat="43.41154" lon="3.45879">
        <ele>38.017429</ele>
        <time>2023-12-30T14:28:47.000Z</time>
      </trkpt>
      <trkpt lat="43.41152" lon="3.4588">
        <ele>37.946164</ele>
        <time>2023-12-30T14:28:48.000Z</time>
      </trkpt>
      <trkpt lat="43.41149" lon="3.45881">
        <ele>37.869031</ele>
        <time>2023-12-30T14:28:49.000Z</time>
      </trkpt>
      <trkpt lat="43.41146" lon="3.45881">
        <ele>37.791052</ele>
        <time>2023-12-30T14:28:50.000Z</time>
      </trkpt>
      <trkpt lat="43.41144" lon="3.45881">
        <ele>37.721376</ele>
        <time>2023-12-30T14:28:51.000Z</time>
      </trkpt>
      <trkpt lat="43.41141" lon="3.45882">
        <ele>37.651495</ele>
        <time>2023-12-30T14:28:52.000Z</time>
      </trkpt>
      <trkpt lat="43.41139" lon="3.45882">
        <ele>37.582663</ele>
        <time>2023-12-30T14:28:53.000Z</time>
      </trkpt>
      <trkpt lat="43.41136" lon="3.45883">
        <ele>37.497759</ele>
        <time>2023-12-30T14:28:54.000Z</time>
      </trkpt>
      <trkpt lat="43.41134" lon="3.45884">
        <ele>37.419915</ele>
        <time>2023-12-30T14:28:55.000Z</time>
      </trkpt>
      <trkpt lat="43.41131" lon="3.45884">
        <ele>37.326102</ele>
        <time>2023-12-30T14:28:56.000Z</time>
      </trkpt>
      <trkpt lat="43.41127" lon="3.45885">
        <ele>37.225136</ele>
        <time>2023-12-30T14:28:57.000Z</time>
      </trkpt>
      <trkpt lat="43.41124" lon="3.45886">
        <ele>37.133318</ele>
        <time>2023-12-30T14:28:58.000Z</time>
      </trkpt>
      <trkpt lat="43.41122" lon="3.45886">
        <ele>37.055185</ele>
        <time>2023-12-30T14:28:59.000Z</time>
      </trkpt>
      <trkpt lat="43.41119" lon="3.45886">
        <ele>36.965129</ele>
        <time>2023-12-30T14:29:00.000Z</time>
      </trkpt>
      <trkpt lat="43.41116" lon="3.45887">
        <ele>36.868234</ele>
        <time>2023-12-30T14:29:01.000Z</time>
      </trkpt>
      <trkpt lat="43.41113" lon="3.45887">
        <ele>36.764899</ele>
        <time>2023-12-30T14:29:02.000Z</time>
      </trkpt>
      <trkpt lat="43.41109" lon="3.45888">
        <ele>36.639075</ele>
        <time>2023-12-30T14:29:03.000Z</time>
      </trkpt>
      <trkpt lat="43.41105" lon="3.45889">
        <ele>36.53653</ele>
        <time>2023-12-30T14:29:04.000Z</time>
      </trkpt>
      <trkpt lat="43.41102" lon="3.45889">
        <ele>36.440187</ele>
        <time>2023-12-30T14:29:05.000Z</time>
      </trkpt>
      <trkpt lat="43.411" lon="3.45889">
        <ele>36.359441</ele>
        <time>2023-12-30T14:29:06.000Z</time>
      </trkpt>
      <trkpt lat="43.41098" lon="3.45889">
        <ele>36.297189</ele>
        <time>2023-12-30T14:29:07.000Z</time>
      </trkpt>
      <trkpt lat="43.41096" lon="3.45889">
        <ele>36.243983</ele>
        <time>2023-12-30T14:29:08.000Z</time>
      </trkpt>
      <trkpt lat="43.41094" lon="3.45889">
        <ele>36.194261</ele>
        <time>2023-12-30T14:29:09.000Z</time>
      </trkpt>
      <trkpt lat="43.41094" lon="3.4589">
        <ele>36.166017</ele>
        <time>2023-12-30T14:29:10.000Z</time>
      </trkpt>
      <trkpt lat="43.41093" lon="3.45891">
        <ele>36.136754</ele>
        <time>2023-12-30T14:29:11.000Z</time>
      </trkpt>
      <trkpt lat="43.41093" lon="3.45892">
        <ele>36.113363</ele>
        <time>2023-12-30T14:29:12.000Z</time>
      </trkpt>
      <trkpt lat="43.41093" lon="3.45892">
        <ele>36.101668</ele>
        <time>2023-12-30T14:29:13.000Z</time>
      </trkpt>
      <trkpt lat="43.41093" lon="3.45892">
        <ele>36.101668</ele>
        <time>2023-12-30T14:29:14.000Z</time>
      </trkpt>
      <trkpt lat="43.41093" lon="3.45892">
        <ele>36.101668</ele>
        <time>2023-12-30T14:29:15.000Z</time>
      </trkpt>
      <trkpt lat="43.41093" lon="3.45892">
        <ele>36.101668</ele>
        <time>2023-12-30T14:29:16.000Z</time>
      </trkpt>
      <trkpt lat="43.41093" lon="3.45892">
        <ele>36.101668</ele>
        <time>2023-12-30T14:29:17.000Z</time>
      </trkpt>
      <trkpt lat="43.41093" lon="3.45892">
        <ele>36.101668</ele>
        <time>2023-12-30T14:29:18.000Z</time>
      </trkpt>
      <trkpt lat="43.41093" lon="3.45892">
        <ele>36.101668</ele>
        <time>2023-12-30T14:29:19.000Z</time>
      </trkpt>
      <trkpt lat="43.41093" lon="3.45892">
        <ele>36.101668</ele>
        <time>2023-12-30T14:29:20.000Z</time>
      </trkpt>
      <trkpt lat="43.41093" lon="3.45892">
        <ele>36.101668</ele>
        <time>2023-12-30T14:29:21.000Z</time>
      </trkpt>
      <trkpt lat="43.41093" lon="3.45892">
        <ele>36.101668</ele>
        <time>2023-12-30T14:29:22.000Z</time>
      </trkpt>
      <trkpt lat="43.41093" lon="3.45892">
        <ele>36.101668</ele>
        <time>2023-12-30T14:29:23.000Z</time>
      </trkpt>
      <trkpt lat="43.41093" lon="3.45892">
        <ele>36.101668</ele>
        <time>2023-12-30T14:29:24.000Z</time>
      </trkpt>
      <trkpt lat="43.41093" lon="3.45892">
        <ele>36.101668</ele>
        <time>2023-12-30T14:29:25.000Z</time>
      </trkpt>
      <trkpt lat="43.41093" lon="3.45892">
        <ele>36.098563</ele>
        <time>2023-12-30T14:29:26.000Z</time>
      </trkpt>
      <trkpt lat="43.41093" lon="3.45892">
        <ele>36.095459</ele>
        <time>2023-12-30T14:29:27.000Z</time>
      </trkpt>
      <trkpt lat="43.41093" lon="3.45892">
        <ele>36.095459</ele>
        <time>2023-12-30T14:29:28.000Z</time>
      </trkpt>
      <trkpt lat="43.41093" lon="3.45892">
        <ele>36.092354</ele>
        <time>2023-12-30T14:29:29.000Z</time>
      </trkpt>
      <trkpt lat="43.41093" lon="3.45892">
        <ele>36.092354</ele>
        <time>2023-12-30T14:29:30.000Z</time>
      </trkpt>
      <trkpt lat="43.41093" lon="3.45892">
        <ele>36.08925</ele>
        <time>2023-12-30T14:29:31.000Z</time>
      </trkpt>
      <trkpt lat="43.41093" lon="3.45892">
        <ele>36.08925</ele>
        <time>2023-12-30T14:29:32.000Z</time>
      </trkpt>
      <trkpt lat="43.41093" lon="3.45892">
        <ele>36.086146</ele>
        <time>2023-12-30T14:29:33.000Z</time>
      </trkpt>
      <trkpt lat="43.41093" lon="3.45892">
        <ele>36.083041</ele>
        <time>2023-12-30T14:29:34.000Z</time>
      </trkpt>
      <trkpt lat="43.41093" lon="3.45892">
        <ele>36.083041</ele>
        <time>2023-12-30T14:29:35.000Z</time>
      </trkpt>
      <trkpt lat="43.41093" lon="3.45892">
        <ele>36.083041</ele>
        <time>2023-12-30T14:29:36.000Z</time>
      </trkpt>
      <trkpt lat="43.41093" lon="3.45892">
        <ele>36.083041</ele>
        <time>2023-12-30T14:29:37.000Z</time>
      </trkpt>
      <trkpt lat="43.41093" lon="3.45892">
        <ele>36.083041</ele>
        <time>2023-12-30T14:29:38.000Z</time>
      </trkpt>
      <trkpt lat="43.41093" lon="3.45892">
        <ele>36.083041</ele>
        <time>2023-12-30T14:29:39.000Z</time>
      </trkpt>
      <trkpt lat="43.41093" lon="3.45892">
        <ele>36.083041</ele>
        <time>2023-12-30T14:29:40.000Z</time>
      </trkpt>
      <trkpt lat="43.41093" lon="3.45892">
        <ele>36.079937</ele>
        <time>2023-12-30T14:29:41.000Z</time>
      </trkpt>
      <trkpt lat="43.41093" lon="3.45892">
        <ele>36.076832</ele>
        <time>2023-12-30T14:29:42.000Z</time>
      </trkpt>
      <trkpt lat="43.41093" lon="3.45892">
        <ele>36.073728</ele>
        <time>2023-12-30T14:29:43.000Z</time>
      </trkpt>
      <trkpt lat="43.41093" lon="3.45892">
        <ele>36.070623</ele>
        <time>2023-12-30T14:29:44.000Z</time>
      </trkpt>
      <trkpt lat="43.41093" lon="3.45892">
        <ele>36.067519</ele>
        <time>2023-12-30T14:29:45.000Z</time>
      </trkpt>
      <trkpt lat="43.41093" lon="3.45892">
        <ele>36.067519</ele>
        <time>2023-12-30T14:29:46.000Z</time>
      </trkpt>
      <trkpt lat="43.41093" lon="3.45892">
        <ele>36.067519</ele>
        <time>2023-12-30T14:29:47.000Z</time>
      </trkpt>
      <trkpt lat="43.41093" lon="3.45892">
        <ele>36.067519</ele>
        <time>2023-12-30T14:29:48.000Z</time>
      </trkpt>
      <trkpt lat="43.41093" lon="3.45892">
        <ele>36.067519</ele>
        <time>2023-12-30T14:29:49.000Z</time>
      </trkpt>
      <trkpt lat="43.41093" lon="3.45892">
        <ele>36.067519</ele>
        <time>2023-12-30T14:29:50.000Z</time>
      </trkpt>
      <trkpt lat="43.41093" lon="3.45892">
        <ele>36.067519</ele>
        <time>2023-12-30T14:29:51.000Z</time>
      </trkpt>
      <trkpt lat="43.41093" lon="3.45892">
        <ele>36.067519</ele>
        <time>2023-12-30T14:29:52.000Z</time>
      </trkpt>
      <trkpt lat="43.41093" lon="3.45892">
        <ele>36.067519</ele>
        <time>2023-12-30T14:29:53.000Z</time>
      </trkpt>
      <trkpt lat="43.41093" lon="3.45892">
        <ele>36.067519</ele>
        <time>2023-12-30T14:29:54.000Z</time>
      </trkpt>
      <trkpt lat="43.41093" lon="3.45892">
        <ele>36.067519</ele>
        <time>2023-12-30T14:29:55.000Z</time>
      </trkpt>
      <trkpt lat="43.41093" lon="3.45892">
        <ele>36.067519</ele>
        <time>2023-12-30T14:29:56.000Z</time>
      </trkpt>
      <trkpt lat="43.41093" lon="3.45892">
        <ele>36.067519</ele>
        <time>2023-12-30T14:29:57.000Z</time>
      </trkpt>
      <trkpt lat="43.41093" lon="3.45892">
        <ele>36.067519</ele>
        <time>2023-12-30T14:29:58.000Z</time>
      </trkpt>
      <trkpt lat="43.41093" lon="3.45892">
        <ele>36.067519</ele>
        <time>2023-12-30T14:29:59.000Z</time>
      </trkpt>
      <trkpt lat="43.41093" lon="3.45892">
        <ele>36.067519</ele>
        <time>2023-12-30T14:30:00.000Z</time>
      </trkpt>
      <trkpt lat="43.41093" lon="3.45892">
        <ele>36.067519</ele>
        <time>2023-12-30T14:30:01.000Z</time>
      </trkpt>
      <trkpt lat="43.41093" lon="3.45892">
        <ele>36.067519</ele>
        <time>2023-12-30T14:30:02.000Z</time>
      </trkpt>
      <trkpt lat="43.41093" lon="3.45892">
        <ele>36.067519</ele>
        <time>2023-12-30T14:30:03.000Z</time>
      </trkpt>
      <trkpt lat="43.41093" lon="3.45892">
        <ele>36.067519</ele>
        <time>2023-12-30T14:30:04.000Z</time>
      </trkpt>
      <trkpt lat="43.41093" lon="3.45892">
        <ele>36.067519</ele>
        <time>2023-12-30T14:30:05.000Z</time>
      </trkpt>
      <trkpt lat="43.41093" lon="3.45892">
        <ele>36.067519</ele>
        <time>2023-12-30T14:30:06.000Z</time>
      </trkpt>
      <trkpt lat="43.41093" lon="3.45892">
        <ele>36.064415</ele>
        <time>2023-12-30T14:30:07.000Z</time>
      </trkpt>
      <trkpt lat="43.41093" lon="3.45892">
        <ele>36.064415</ele>
        <time>2023-12-30T14:30:08.000Z</time>
      </trkpt>
      <trkpt lat="43.41093" lon="3.45892">
        <ele>36.064415</ele>
        <time>2023-12-30T14:30:09.000Z</time>
      </trkpt>
      <trkpt lat="43.41093" lon="3.45892">
        <ele>36.064415</ele>
        <time>2023-12-30T14:30:10.000Z</time>
      </trkpt>
      <trkpt lat="43.41093" lon="3.45892">
        <ele>36.064415</ele>
        <time>2023-12-30T14:30:11.000Z</time>
      </trkpt>
      <trkpt lat="43.41093" lon="3.45892">
        <ele>36.064415</ele>
        <time>2023-12-30T14:30:12.000Z</time>
      </trkpt>
      <trkpt lat="43.41093" lon="3.45892">
        <ele>36.064415</ele>
        <time>2023-12-30T14:30:13.000Z</time>
      </trkpt>
      <trkpt lat="43.41093" lon="3.45892">
        <ele>36.064415</ele>
        <time>2023-12-30T14:30:14.000Z</time>
      </trkpt>
      <trkpt lat="43.41093" lon="3.45892">
        <ele>36.064415</ele>
        <time>2023-12-30T14:30:15.000Z</time>
      </trkpt>
      <trkpt lat="43.41093" lon="3.45892">
        <ele>36.064415</ele>
        <time>2023-12-30T14:30:16.000Z</time>
      </trkpt>
      <trkpt lat="43.41093" lon="3.45892">
        <ele>36.064415</ele>
        <time>2023-12-30T14:30:17.000Z</time>
      </trkpt>
      <trkpt lat="43.41093" lon="3.45892">
        <ele>36.064415</ele>
        <time>2023-12-30T14:30:18.000Z</time>
      </trkpt>
      <trkpt lat="43.41093" lon="3.45892">
        <ele>36.064415</ele>
        <time>2023-12-30T14:30:19.000Z</time>
      </trkpt>
      <trkpt lat="43.41093" lon="3.45892">
        <ele>36.064415</ele>
        <time>2023-12-30T14:30:20.000Z</time>
      </trkpt>
      <trkpt lat="43.41093" lon="3.45892">
        <ele>36.064415</ele>
        <time>2023-12-30T14:30:21.000Z</time>
      </trkpt>
      <trkpt lat="43.41093" lon="3.45892">
        <ele>36.064415</ele>
        <time>2023-12-30T14:30:22.000Z</time>
      </trkpt>
      <trkpt lat="43.41093" lon="3.45892">
        <ele>36.06131</ele>
        <time>2023-12-30T14:30:23.000Z</time>
      </trkpt>
      <trkpt lat="43.41093" lon="3.45892">
        <ele>36.06131</ele>
        <time>2023-12-30T14:30:24.000Z</time>
      </trkpt>
      <trkpt lat="43.41093" lon="3.45892">
        <ele>36.06131</ele>
        <time>2023-12-30T14:30:25.000Z</time>
      </trkpt>
      <trkpt lat="43.41093" lon="3.45892">
        <ele>36.06131</ele>
        <time>2023-12-30T14:30:26.000Z</time>
      </trkpt>
      <trkpt lat="43.41093" lon="3.45892">
        <ele>36.06131</ele>
        <time>2023-12-30T14:30:27.000Z</time>
      </trkpt>
      <trkpt lat="43.41093" lon="3.45892">
        <ele>36.06131</ele>
        <time>2023-12-30T14:30:28.000Z</time>
      </trkpt>
      <trkpt lat="43.41093" lon="3.45892">
        <ele>36.06131</ele>
        <time>2023-12-30T14:30:29.000Z</time>
      </trkpt>
      <trkpt lat="43.41093" lon="3.45892">
        <ele>36.06131</ele>
        <time>2023-12-30T14:30:30.000Z</time>
      </trkpt>
      <trkpt lat="43.41093" lon="3.45892">
        <ele>36.06131</ele>
        <time>2023-12-30T14:30:31.000Z</time>
      </trkpt>
      <trkpt lat="43.41093" lon="3.45892">
        <ele>36.06131</ele>
        <time>2023-12-30T14:30:32.000Z</time>
      </trkpt>
      <trkpt lat="43.41093" lon="3.45892">
        <ele>36.06131</ele>
        <time>2023-12-30T14:30:33.000Z</time>
      </trkpt>
      <trkpt lat="43.41093" lon="3.45892">
        <ele>36.06131</ele>
        <time>2023-12-30T14:30:34.000Z</time>
      </trkpt>
      <trkpt lat="43.41093" lon="3.45892">
        <ele>36.058206</ele>
        <time>2023-12-30T14:30:35.000Z</time>
      </trkpt>
      <trkpt lat="43.41093" lon="3.45892">
        <ele>36.055101</ele>
        <time>2023-12-30T14:30:36.000Z</time>
      </trkpt>
      <trkpt lat="43.41093" lon="3.45892">
        <ele>36.051997</ele>
        <time>2023-12-30T14:30:37.000Z</time>
      </trkpt>
      <trkpt lat="43.41093" lon="3.45892">
        <ele>36.048893</ele>
        <time>2023-12-30T14:30:38.000Z</time>
      </trkpt>
      <trkpt lat="43.41093" lon="3.45892">
        <ele>36.045788</ele>
        <time>2023-12-30T14:30:39.000Z</time>
      </trkpt>
      <trkpt lat="43.41093" lon="3.45892">
        <ele>36.042684</ele>
        <time>2023-12-30T14:30:40.000Z</time>
      </trkpt>
      <trkpt lat="43.41093" lon="3.45892">
        <ele>36.042684</ele>
        <time>2023-12-30T14:30:41.000Z</time>
      </trkpt>
      <trkpt lat="43.41093" lon="3.45892">
        <ele>36.039579</ele>
        <time>2023-12-30T14:30:42.000Z</time>
      </trkpt>
      <trkpt lat="43.41093" lon="3.45892">
        <ele>36.039579</ele>
        <time>2023-12-30T14:30:43.000Z</time>
      </trkpt>
      <trkpt lat="43.41093" lon="3.45892">
        <ele>36.039579</ele>
        <time>2023-12-30T14:30:44.000Z</time>
      </trkpt>
      <trkpt lat="43.41093" lon="3.45892">
        <ele>36.039579</ele>
        <time>2023-12-30T14:30:45.000Z</time>
      </trkpt>
      <trkpt lat="43.41093" lon="3.45892">
        <ele>36.036475</ele>
        <time>2023-12-30T14:30:46.000Z</time>
      </trkpt>
      <trkpt lat="43.41093" lon="3.45892">
        <ele>36.033371</ele>
        <time>2023-12-30T14:30:47.000Z</time>
      </trkpt>
      <trkpt lat="43.41093" lon="3.45892">
        <ele>36.030266</ele>
        <time>2023-12-30T14:30:48.000Z</time>
      </trkpt>
      <trkpt lat="43.41093" lon="3.45892">
        <ele>36.030266</ele>
        <time>2023-12-30T14:30:49.000Z</time>
      </trkpt>
      <trkpt lat="43.41093" lon="3.45892">
        <ele>36.030266</ele>
        <time>2023-12-30T14:30:50.000Z</time>
      </trkpt>
      <trkpt lat="43.41093" lon="3.45892">
        <ele>36.030266</ele>
        <time>2023-12-30T14:30:51.000Z</time>
      </trkpt>
      <trkpt lat="43.41093" lon="3.45892">
        <ele>36.030266</ele>
        <time>2023-12-30T14:30:52.000Z</time>
      </trkpt>
      <trkpt lat="43.41093" lon="3.45892">
        <ele>36.030266</ele>
        <time>2023-12-30T14:30:53.000Z</time>
      </trkpt>
      <trkpt lat="43.41093" lon="3.45892">
        <ele>36.030266</ele>
        <time>2023-12-30T14:30:54.000Z</time>
      </trkpt>
      <trkpt lat="43.41093" lon="3.45892">
        <ele>36.030266</ele>
        <time>2023-12-30T14:30:55.000Z</time>
      </trkpt>
      <trkpt lat="43.41093" lon="3.45892">
        <ele>36.030266</ele>
        <time>2023-12-30T14:30:56.000Z</time>
      </trkpt>
      <trkpt lat="43.41093" lon="3.45892">
        <ele>36.030266</ele>
        <time>2023-12-30T14:30:57.000Z</time>
      </trkpt>
      <trkpt lat="43.41093" lon="3.45892">
        <ele>36.030266</ele>
        <time>2023-12-30T14:30:58.000Z</time>
      </trkpt>
      <trkpt lat="43.41093" lon="3.45892">
        <ele>36.030266</ele>
        <time>2023-12-30T14:30:59.000Z</time>
      </trkpt>
      <trkpt lat="43.41093" lon="3.45892">
        <ele>36.030266</ele>
        <time>2023-12-30T14:31:00.000Z</time>
      </trkpt>
      <trkpt lat="43.41093" lon="3.45892">
        <ele>36.027162</ele>
        <time>2023-12-30T14:31:01.000Z</time>
      </trkpt>
      <trkpt lat="43.41093" lon="3.45892">
        <ele>36.027162</ele>
        <time>2023-12-30T14:31:02.000Z</time>
      </trkpt>
      <trkpt lat="43.41093" lon="3.45892">
        <ele>36.024057</ele>
        <time>2023-12-30T14:31:03.000Z</time>
      </trkpt>
      <trkpt lat="43.41093" lon="3.45892">
        <ele>36.024057</ele>
        <time>2023-12-30T14:31:04.000Z</time>
      </trkpt>
      <trkpt lat="43.41093" lon="3.45892">
        <ele>36.021802</ele>
        <time>2023-12-30T14:31:05.000Z</time>
      </trkpt>
      <trkpt lat="43.41093" lon="3.45892">
        <ele>36.019547</ele>
        <time>2023-12-30T14:31:06.000Z</time>
      </trkpt>
      <trkpt lat="43.41093" lon="3.45892">
        <ele>36.016443</ele>
        <time>2023-12-30T14:31:07.000Z</time>
      </trkpt>
      <trkpt lat="43.41093" lon="3.45892">
        <ele>36.016443</ele>
        <time>2023-12-30T14:31:08.000Z</time>
      </trkpt>
      <trkpt lat="43.41093" lon="3.45892">
        <ele>36.016443</ele>
        <time>2023-12-30T14:31:09.000Z</time>
      </trkpt>
      <trkpt lat="43.41093" lon="3.45892">
        <ele>36.016443</ele>
        <time>2023-12-30T14:31:10.000Z</time>
      </trkpt>
      <trkpt lat="43.41093" lon="3.45892">
        <ele>36.013338</ele>
        <time>2023-12-30T14:31:11.000Z</time>
      </trkpt>
      <trkpt lat="43.41093" lon="3.45892">
        <ele>36.010234</ele>
        <time>2023-12-30T14:31:12.000Z</time>
      </trkpt>
      <trkpt lat="43.41093" lon="3.45892">
        <ele>36.010234</ele>
        <time>2023-12-30T14:31:13.000Z</time>
      </trkpt>
      <trkpt lat="43.41093" lon="3.45892">
        <ele>36.007129</ele>
        <time>2023-12-30T14:31:14.000Z</time>
      </trkpt>
      <trkpt lat="43.41093" lon="3.45892">
        <ele>36.007129</ele>
        <time>2023-12-30T14:31:15.000Z</time>
      </trkpt>
      <trkpt lat="43.41093" lon="3.45892">
        <ele>36.007129</ele>
        <time>2023-12-30T14:31:16.000Z</time>
      </trkpt>
      <trkpt lat="43.41093" lon="3.45892">
        <ele>36.007129</ele>
        <time>2023-12-30T14:31:17.000Z</time>
      </trkpt>
      <trkpt lat="43.41093" lon="3.45892">
        <ele>36.003292</ele>
        <time>2023-12-30T14:31:18.000Z</time>
      </trkpt>
      <trkpt lat="43.41093" lon="3.45892">
        <ele>35.999455</ele>
        <time>2023-12-30T14:31:19.000Z</time>
      </trkpt>
      <trkpt lat="43.41093" lon="3.45892">
        <ele>35.999455</ele>
        <time>2023-12-30T14:31:20.000Z</time>
      </trkpt>
      <trkpt lat="43.41093" lon="3.45892">
        <ele>35.999455</ele>
        <time>2023-12-30T14:31:21.000Z</time>
      </trkpt>
      <trkpt lat="43.41093" lon="3.45892">
        <ele>35.999455</ele>
        <time>2023-12-30T14:31:22.000Z</time>
      </trkpt>
      <trkpt lat="43.41093" lon="3.45892">
        <ele>35.999455</ele>
        <time>2023-12-30T14:31:23.000Z</time>
      </trkpt>
      <trkpt lat="43.41093" lon="3.45892">
        <ele>35.999455</ele>
        <time>2023-12-30T14:31:24.000Z</time>
      </trkpt>
      <trkpt lat="43.41093" lon="3.45892">
        <ele>35.999455</ele>
        <time>2023-12-30T14:31:25.000Z</time>
      </trkpt>
      <trkpt lat="43.41093" lon="3.45892">
        <ele>35.999455</ele>
        <time>2023-12-30T14:31:26.000Z</time>
      </trkpt>
      <trkpt lat="43.41093" lon="3.45892">
        <ele>35.999455</ele>
        <time>2023-12-30T14:31:27.000Z</time>
      </trkpt>
      <trkpt lat="43.41093" lon="3.45892">
        <ele>35.999455</ele>
        <time>2023-12-30T14:31:28.000Z</time>
      </trkpt>
      <trkpt lat="43.41093" lon="3.45892">
        <ele>35.999455</ele>
        <time>2023-12-30T14:31:29.000Z</time>
      </trkpt>
      <trkpt lat="43.41093" lon="3.45892">
        <ele>35.999455</ele>
        <time>2023-12-30T14:31:30.000Z</time>
      </trkpt>
      <trkpt lat="43.41093" lon="3.45892">
        <ele>35.999455</ele>
        <time>2023-12-30T14:31:31.000Z</time>
      </trkpt>
      <trkpt lat="43.41093" lon="3.45892">
        <ele>35.999455</ele>
        <time>2023-12-30T14:31:32.000Z</time>
      </trkpt>
      <trkpt lat="43.41093" lon="3.45892">
        <ele>35.999455</ele>
        <time>2023-12-30T14:31:33.000Z</time>
      </trkpt>
      <trkpt lat="43.41093" lon="3.45892">
        <ele>35.995618</ele>
        <time>2023-12-30T14:31:34.000Z</time>
      </trkpt>
      <trkpt lat="43.41093" lon="3.45892">
        <ele>35.993363</ele>
        <time>2023-12-30T14:31:35.000Z</time>
      </trkpt>
      <trkpt lat="43.41093" lon="3.45892">
        <ele>35.993363</ele>
        <time>2023-12-30T14:31:36.000Z</time>
      </trkpt>
      <trkpt lat="43.41093" lon="3.45892">
        <ele>35.993363</ele>
        <time>2023-12-30T14:31:37.000Z</time>
      </trkpt>
      <trkpt lat="43.41093" lon="3.45892">
        <ele>35.993363</ele>
        <time>2023-12-30T14:31:38.000Z</time>
      </trkpt>
      <trkpt lat="43.41093" lon="3.45892">
        <ele>35.993363</ele>
        <time>2023-12-30T14:31:39.000Z</time>
      </trkpt>
      <trkpt lat="43.41093" lon="3.45892">
        <ele>35.990258</ele>
        <time>2023-12-30T14:31:40.000Z</time>
      </trkpt>
      <trkpt lat="43.41093" lon="3.45892">
        <ele>35.987154</ele>
        <time>2023-12-30T14:31:41.000Z</time>
      </trkpt>
      <trkpt lat="43.41093" lon="3.45892">
        <ele>35.987154</ele>
        <time>2023-12-30T14:31:42.000Z</time>
      </trkpt>
      <trkpt lat="43.41093" lon="3.45892">
        <ele>35.987154</ele>
        <time>2023-12-30T14:31:43.000Z</time>
      </trkpt>
      <trkpt lat="43.41093" lon="3.45892">
        <ele>35.987154</ele>
        <time>2023-12-30T14:31:44.000Z</time>
      </trkpt>
      <trkpt lat="43.41093" lon="3.45892">
        <ele>35.987154</ele>
        <time>2023-12-30T14:31:45.000Z</time>
      </trkpt>
      <trkpt lat="43.41093" lon="3.45892">
        <ele>35.984899</ele>
        <time>2023-12-30T14:31:46.000Z</time>
      </trkpt>
      <trkpt lat="43.41093" lon="3.45892">
        <ele>35.982644</ele>
        <time>2023-12-30T14:31:47.000Z</time>
      </trkpt>
      <trkpt lat="43.41093" lon="3.45892">
        <ele>35.982644</ele>
        <time>2023-12-30T14:31:48.000Z</time>
      </trkpt>
      <trkpt lat="43.41093" lon="3.45892">
        <ele>35.982644</ele>
        <time>2023-12-30T14:31:49.000Z</time>
      </trkpt>
      <trkpt lat="43.41093" lon="3.45892">
        <ele>35.982644</ele>
        <time>2023-12-30T14:31:50.000Z</time>
      </trkpt>
      <trkpt lat="43.41093" lon="3.45892">
        <ele>35.982644</ele>
        <time>2023-12-30T14:31:51.000Z</time>
      </trkpt>
      <trkpt lat="43.41093" lon="3.45892">
        <ele>35.982644</ele>
        <time>2023-12-30T14:31:52.000Z</time>
      </trkpt>
      <trkpt lat="43.41093" lon="3.45892">
        <ele>35.982644</ele>
        <time>2023-12-30T14:31:53.000Z</time>
      </trkpt>
      <trkpt lat="43.41093" lon="3.45892">
        <ele>35.980388</ele>
        <time>2023-12-30T14:31:54.000Z</time>
      </trkpt>
      <trkpt lat="43.41093" lon="3.45892">
        <ele>35.980388</ele>
        <time>2023-12-30T14:31:55.000Z</time>
      </trkpt>
      <trkpt lat="43.41093" lon="3.45892">
        <ele>35.980388</ele>
        <time>2023-12-30T14:31:56.000Z</time>
      </trkpt>
      <trkpt lat="43.41093" lon="3.45892">
        <ele>35.980388</ele>
        <time>2023-12-30T14:31:57.000Z</time>
      </trkpt>
      <trkpt lat="43.41093" lon="3.45892">
        <ele>35.978133</ele>
        <time>2023-12-30T14:31:58.000Z</time>
      </trkpt>
      <trkpt lat="43.41093" lon="3.45892">
        <ele>35.978133</ele>
        <time>2023-12-30T14:31:59.000Z</time>
      </trkpt>
      <trkpt lat="43.41093" lon="3.45892">
        <ele>35.974296</ele>
        <time>2023-12-30T14:32:00.000Z</time>
      </trkpt>
      <trkpt lat="43.41093" lon="3.45892">
        <ele>35.962601</ele>
        <time>2023-12-30T14:32:01.000Z</time>
      </trkpt>
      <trkpt lat="43.41092" lon="3.45896">
        <ele>35.873275</ele>
        <time>2023-12-30T14:32:02.000Z</time>
      </trkpt>
      <trkpt lat="43.41091" lon="3.45899">
        <ele>35.802157</ele>
        <time>2023-12-30T14:32:03.000Z</time>
      </trkpt>
      <trkpt lat="43.4109" lon="3.45902">
        <ele>35.723251</ele>
        <time>2023-12-30T14:32:04.000Z</time>
      </trkpt>
      <trkpt lat="43.4109" lon="3.45905">
        <ele>35.652723</ele>
        <time>2023-12-30T14:32:05.000Z</time>
      </trkpt>
      <trkpt lat="43.4109" lon="3.45908">
        <ele>35.587249</ele>
        <time>2023-12-30T14:32:06.000Z</time>
      </trkpt>
      <trkpt lat="43.4109" lon="3.45911">
        <ele>35.517269</ele>
        <time>2023-12-30T14:32:07.000Z</time>
      </trkpt>
      <trkpt lat="43.4109" lon="3.45915">
        <ele>35.424599</ele>
        <time>2023-12-30T14:32:08.000Z</time>
      </trkpt>
      <trkpt lat="43.41089" lon="3.4592">
        <ele>35.311456</ele>
        <time>2023-12-30T14:32:09.000Z</time>
      </trkpt>
      <trkpt lat="43.41089" lon="3.45927">
        <ele>35.166292</ele>
        <time>2023-12-30T14:32:10.000Z</time>
      </trkpt>
      <trkpt lat="43.41088" lon="3.45933">
        <ele>35.024282</ele>
        <time>2023-12-30T14:32:11.000Z</time>
      </trkpt>
      <trkpt lat="43.41087" lon="3.4594">
        <ele>34.867165</ele>
        <time>2023-12-30T14:32:12.000Z</time>
      </trkpt>
      <trkpt lat="43.41087" lon="3.45946">
        <ele>34.724243</ele>
        <time>2023-12-30T14:32:13.000Z</time>
      </trkpt>
      <trkpt lat="43.41086" lon="3.45952">
        <ele>34.590609</ele>
        <time>2023-12-30T14:32:14.000Z</time>
      </trkpt>
      <trkpt lat="43.41086" lon="3.45958">
        <ele>34.44242</ele>
        <time>2023-12-30T14:32:15.000Z</time>
      </trkpt>
      <trkpt lat="43.41085" lon="3.45965">
        <ele>34.290179</ele>
        <time>2023-12-30T14:32:16.000Z</time>
      </trkpt>
      <trkpt lat="43.41085" lon="3.45972">
        <ele>34.122834</ele>
        <time>2023-12-30T14:32:17.000Z</time>
      </trkpt>
      <trkpt lat="43.41084" lon="3.45981">
        <ele>33.932992</ele>
        <time>2023-12-30T14:32:18.000Z</time>
      </trkpt>
      <trkpt lat="43.41084" lon="3.4599">
        <ele>33.736791</ele>
        <time>2023-12-30T14:32:19.000Z</time>
      </trkpt>
      <trkpt lat="43.41084" lon="3.45999">
        <ele>33.529106</ele>
        <time>2023-12-30T14:32:20.000Z</time>
      </trkpt>
      <trkpt lat="43.41083" lon="3.46007">
        <ele>33.330925</ele>
        <time>2023-12-30T14:32:21.000Z</time>
      </trkpt>
      <trkpt lat="43.41082" lon="3.46016">
        <ele>33.142488</ele>
        <time>2023-12-30T14:32:22.000Z</time>
      </trkpt>
      <trkpt lat="43.41082" lon="3.46024">
        <ele>32.962151</ele>
        <time>2023-12-30T14:32:23.000Z</time>
      </trkpt>
      <trkpt lat="43.4108" lon="3.46032">
        <ele>32.773511</ele>
        <time>2023-12-30T14:32:24.000Z</time>
      </trkpt>
      <trkpt lat="43.41079" lon="3.4604">
        <ele>32.580447</ele>
        <time>2023-12-30T14:32:25.000Z</time>
      </trkpt>
      <trkpt lat="43.41078" lon="3.46049">
        <ele>32.390177</ele>
        <time>2023-12-30T14:32:26.000Z</time>
      </trkpt>
      <trkpt lat="43.41077" lon="3.46057">
        <ele>32.197688</ele>
        <time>2023-12-30T14:32:27.000Z</time>
      </trkpt>
      <trkpt lat="43.41076" lon="3.46065">
        <ele>32.011698</ele>
        <time>2023-12-30T14:32:28.000Z</time>
      </trkpt>
      <trkpt lat="43.41075" lon="3.46073">
        <ele>31.960606</ele>
        <time>2023-12-30T14:32:29.000Z</time>
      </trkpt>
      <trkpt lat="43.41074" lon="3.46081">
        <ele>31.911286</ele>
        <time>2023-12-30T14:32:30.000Z</time>
      </trkpt>
      <trkpt lat="43.41073" lon="3.46089">
        <ele>31.858566</ele>
        <time>2023-12-30T14:32:31.000Z</time>
      </trkpt>
      <trkpt lat="43.41072" lon="3.46097">
        <ele>31.805968</ele>
        <time>2023-12-30T14:32:32.000Z</time>
      </trkpt>
      <trkpt lat="43.41071" lon="3.46106">
        <ele>31.753096</ele>
        <time>2023-12-30T14:32:33.000Z</time>
      </trkpt>
      <trkpt lat="43.4107" lon="3.46114">
        <ele>31.69662</ele>
        <time>2023-12-30T14:32:34.000Z</time>
      </trkpt>
      <trkpt lat="43.41068" lon="3.46123">
        <ele>31.640541</ele>
        <time>2023-12-30T14:32:35.000Z</time>
      </trkpt>
      <trkpt lat="43.41067" lon="3.46132">
        <ele>31.583421</ele>
        <time>2023-12-30T14:32:36.000Z</time>
      </trkpt>
      <trkpt lat="43.41066" lon="3.46141">
        <ele>31.526649</ele>
        <time>2023-12-30T14:32:37.000Z</time>
      </trkpt>
      <trkpt lat="43.41065" lon="3.46149">
        <ele>31.470951</ele>
        <time>2023-12-30T14:32:38.000Z</time>
      </trkpt>
      <trkpt lat="43.41063" lon="3.46158">
        <ele>31.415874</ele>
        <time>2023-12-30T14:32:39.000Z</time>
      </trkpt>
      <trkpt lat="43.41062" lon="3.46166">
        <ele>31.362215</ele>
        <time>2023-12-30T14:32:40.000Z</time>
      </trkpt>
      <trkpt lat="43.41061" lon="3.46174">
        <ele>31.307758</ele>
        <time>2023-12-30T14:32:41.000Z</time>
      </trkpt>
      <trkpt lat="43.4106" lon="3.46182">
        <ele>31.256755</ele>
        <time>2023-12-30T14:32:42.000Z</time>
      </trkpt>
      <trkpt lat="43.41059" lon="3.4619">
        <ele>31.204506</ele>
        <time>2023-12-30T14:32:43.000Z</time>
      </trkpt>
      <trkpt lat="43.41057" lon="3.46198">
        <ele>31.154571</ele>
        <time>2023-12-30T14:32:44.000Z</time>
      </trkpt>
      <trkpt lat="43.41056" lon="3.46206">
        <ele>31.106371</ele>
        <time>2023-12-30T14:32:45.000Z</time>
      </trkpt>
      <trkpt lat="43.41055" lon="3.46213">
        <ele>31.055668</ele>
        <time>2023-12-30T14:32:46.000Z</time>
      </trkpt>
      <trkpt lat="43.41054" lon="3.46222">
        <ele>31.002322</ele>
        <time>2023-12-30T14:32:47.000Z</time>
      </trkpt>
      <trkpt lat="43.41053" lon="3.4623">
        <ele>30.949601</ele>
        <time>2023-12-30T14:32:48.000Z</time>
      </trkpt>
      <trkpt lat="43.41052" lon="3.46238">
        <ele>30.89688</ele>
        <time>2023-12-30T14:32:49.000Z</time>
      </trkpt>
      <trkpt lat="43.41051" lon="3.46246">
        <ele>30.844297</ele>
        <time>2023-12-30T14:32:50.000Z</time>
      </trkpt>
      <trkpt lat="43.41051" lon="3.46254">
        <ele>30.797715</ele>
        <time>2023-12-30T14:32:51.000Z</time>
      </trkpt>
      <trkpt lat="43.4105" lon="3.46258">
        <ele>30.766489</ele>
        <time>2023-12-30T14:32:52.000Z</time>
      </trkpt>
      <trkpt lat="43.4105" lon="3.46261">
        <ele>30.751171</ele>
        <time>2023-12-30T14:32:53.000Z</time>
      </trkpt>
      <trkpt lat="43.4105" lon="3.46262">
        <ele>30.740877</ele>
        <time>2023-12-30T14:32:54.000Z</time>
      </trkpt>
      <trkpt lat="43.41049" lon="3.46263">
        <ele>30.735513</ele>
        <time>2023-12-30T14:32:55.000Z</time>
      </trkpt>
      <trkpt lat="43.41049" lon="3.46262">
        <ele>30.730366</ele>
        <time>2023-12-30T14:32:56.000Z</time>
      </trkpt>
      <trkpt lat="43.41049" lon="3.46262">
        <ele>30.730366</ele>
        <time>2023-12-30T14:32:57.000Z</time>
      </trkpt>
      <trkpt lat="43.4105" lon="3.46262">
        <ele>30.729493</ele>
        <time>2023-12-30T14:32:58.000Z</time>
      </trkpt>
      <trkpt lat="43.4105" lon="3.46262">
        <ele>30.729493</ele>
        <time>2023-12-30T14:32:59.000Z</time>
      </trkpt>
      <trkpt lat="43.4105" lon="3.46262">
        <ele>30.729493</ele>
        <time>2023-12-30T14:33:00.000Z</time>
      </trkpt>
      <trkpt lat="43.4105" lon="3.46262">
        <ele>30.729493</ele>
        <time>2023-12-30T14:33:01.000Z</time>
      </trkpt>
      <trkpt lat="43.41049" lon="3.46262">
        <ele>30.728414</ele>
        <time>2023-12-30T14:33:02.000Z</time>
      </trkpt>
      <trkpt lat="43.4105" lon="3.46262">
        <ele>30.727541</ele>
        <time>2023-12-30T14:33:03.000Z</time>
      </trkpt>
      <trkpt lat="43.4105" lon="3.46262">
        <ele>30.726907</ele>
        <time>2023-12-30T14:33:04.000Z</time>
      </trkpt>
      <trkpt lat="43.4105" lon="3.46264">
        <ele>30.717356</ele>
        <time>2023-12-30T14:33:05.000Z</time>
      </trkpt>
      <trkpt lat="43.4105" lon="3.46266">
        <ele>30.70148</ele>
        <time>2023-12-30T14:33:06.000Z</time>
      </trkpt>
      <trkpt lat="43.41049" lon="3.4627">
        <ele>30.681346</ele>
        <time>2023-12-30T14:33:07.000Z</time>
      </trkpt>
      <trkpt lat="43.41049" lon="3.46274">
        <ele>30.655218</ele>
        <time>2023-12-30T14:33:08.000Z</time>
      </trkpt>
      <trkpt lat="43.41048" lon="3.46278">
        <ele>30.626979</ele>
        <time>2023-12-30T14:33:09.000Z</time>
      </trkpt>
      <trkpt lat="43.41047" lon="3.46282">
        <ele>30.599449</ele>
        <time>2023-12-30T14:33:10.000Z</time>
      </trkpt>
      <trkpt lat="43.41047" lon="3.46286">
        <ele>30.577651</ele>
        <time>2023-12-30T14:33:11.000Z</time>
      </trkpt>
      <trkpt lat="43.41046" lon="3.46289">
        <ele>30.554849</ele>
        <time>2023-12-30T14:33:12.000Z</time>
      </trkpt>
      <trkpt lat="43.41046" lon="3.46293">
        <ele>30.531873</ele>
        <time>2023-12-30T14:33:13.000Z</time>
      </trkpt>
      <trkpt lat="43.41045" lon="3.46296">
        <ele>30.50801</ele>
        <time>2023-12-30T14:33:14.000Z</time>
      </trkpt>
      <trkpt lat="43.41045" lon="3.463">
        <ele>30.482112</ele>
        <time>2023-12-30T14:33:15.000Z</time>
      </trkpt>
      <trkpt lat="43.41044" lon="3.46304">
        <ele>30.456835</ele>
        <time>2023-12-30T14:33:16.000Z</time>
      </trkpt>
      <trkpt lat="43.41044" lon="3.46308">
        <ele>30.45676</ele>
        <time>2023-12-30T14:33:17.000Z</time>
      </trkpt>
      <trkpt lat="43.41043" lon="3.46312">
        <ele>30.476977</ele>
        <time>2023-12-30T14:33:18.000Z</time>
      </trkpt>
      <trkpt lat="43.41042" lon="3.46316">
        <ele>30.497896</ele>
        <time>2023-12-30T14:33:19.000Z</time>
      </trkpt>
      <trkpt lat="43.41042" lon="3.46319">
        <ele>30.516757</ele>
        <time>2023-12-30T14:33:20.000Z</time>
      </trkpt>
      <trkpt lat="43.41041" lon="3.46323">
        <ele>30.535771</ele>
        <time>2023-12-30T14:33:21.000Z</time>
      </trkpt>
      <trkpt lat="43.41041" lon="3.46327">
        <ele>30.558519</ele>
        <time>2023-12-30T14:33:22.000Z</time>
      </trkpt>
      <trkpt lat="43.41042" lon="3.46332">
        <ele>30.58249</ele>
        <time>2023-12-30T14:33:23.000Z</time>
      </trkpt>
      <trkpt lat="43.41042" lon="3.46336">
        <ele>30.60666</ele>
        <time>2023-12-30T14:33:24.000Z</time>
      </trkpt>
      <trkpt lat="43.41043" lon="3.4634">
        <ele>30.629811</ele>
        <time>2023-12-30T14:33:25.000Z</time>
      </trkpt>
      <trkpt lat="43.41044" lon="3.46345">
        <ele>30.654307</ele>
        <time>2023-12-30T14:33:26.000Z</time>
      </trkpt>
      <trkpt lat="43.41045" lon="3.46349">
        <ele>30.676448</ele>
        <time>2023-12-30T14:33:27.000Z</time>
      </trkpt>
      <trkpt lat="43.41044" lon="3.46355">
        <ele>31.560343</ele>
        <time>2023-12-30T14:34:43.000Z</time>
      </trkpt>
      <trkpt lat="43.41043" lon="3.46357">
        <ele>31.575778</ele>
        <time>2023-12-30T14:34:44.000Z</time>
      </trkpt>
      <trkpt lat="43.41043" lon="3.46361">
        <ele>31.595678</ele>
        <time>2023-12-30T14:34:45.000Z</time>
      </trkpt>
      <trkpt lat="43.41042" lon="3.46365">
        <ele>31.618462</ele>
        <time>2023-12-30T14:34:46.000Z</time>
      </trkpt>
      <trkpt lat="43.41042" lon="3.46369">
        <ele>31.638607</ele>
        <time>2023-12-30T14:34:47.000Z</time>
      </trkpt>
      <trkpt lat="43.41042" lon="3.46372">
        <ele>31.654734</ele>
        <time>2023-12-30T14:34:48.000Z</time>
      </trkpt>
      <trkpt lat="43.41042" lon="3.46376">
        <ele>31.672844</ele>
        <time>2023-12-30T14:34:49.000Z</time>
      </trkpt>
      <trkpt lat="43.41042" lon="3.46379">
        <ele>31.689492</ele>
        <time>2023-12-30T14:34:50.000Z</time>
      </trkpt>
      <trkpt lat="43.41041" lon="3.46381">
        <ele>31.70472</ele>
        <time>2023-12-30T14:34:51.000Z</time>
      </trkpt>
      <trkpt lat="43.4104" lon="3.46383">
        <ele>31.714241</ele>
        <time>2023-12-30T14:34:52.000Z</time>
      </trkpt>
      <trkpt lat="43.4104" lon="3.46382">
        <ele>31.718739</ele>
        <time>2023-12-30T14:34:53.000Z</time>
      </trkpt>
      <trkpt lat="43.4104" lon="3.46382">
        <ele>31.719268</ele>
        <time>2023-12-30T14:34:54.000Z</time>
      </trkpt>
      <trkpt lat="43.4104" lon="3.46382">
        <ele>31.719996</ele>
        <time>2023-12-30T14:34:55.000Z</time>
      </trkpt>
      <trkpt lat="43.4104" lon="3.46382">
        <ele>31.720524</ele>
        <time>2023-12-30T14:34:56.000Z</time>
      </trkpt>
      <trkpt lat="43.4104" lon="3.46382">
        <ele>31.720524</ele>
        <time>2023-12-30T14:34:57.000Z</time>
      </trkpt>
      <trkpt lat="43.4104" lon="3.46382">
        <ele>31.720524</ele>
        <time>2023-12-30T14:34:58.000Z</time>
      </trkpt>
      <trkpt lat="43.4104" lon="3.46382">
        <ele>31.720524</ele>
        <time>2023-12-30T14:34:59.000Z</time>
      </trkpt>
      <trkpt lat="43.4104" lon="3.46382">
        <ele>31.720524</ele>
        <time>2023-12-30T14:35:00.000Z</time>
      </trkpt>
      <trkpt lat="43.4104" lon="3.46382">
        <ele>31.720524</ele>
        <time>2023-12-30T14:35:01.000Z</time>
      </trkpt>
      <trkpt lat="43.4104" lon="3.46382">
        <ele>31.720524</ele>
        <time>2023-12-30T14:35:02.000Z</time>
      </trkpt>
      <trkpt lat="43.4104" lon="3.46382">
        <ele>31.720524</ele>
        <time>2023-12-30T14:35:03.000Z</time>
      </trkpt>
      <trkpt lat="43.4104" lon="3.46382">
        <ele>31.720524</ele>
        <time>2023-12-30T14:35:04.000Z</time>
      </trkpt>
      <trkpt lat="43.4104" lon="3.46382">
        <ele>31.720524</ele>
        <time>2023-12-30T14:35:05.000Z</time>
      </trkpt>
      <trkpt lat="43.4104" lon="3.46382">
        <ele>31.720524</ele>
        <time>2023-12-30T14:35:06.000Z</time>
      </trkpt>
      <trkpt lat="43.4104" lon="3.46382">
        <ele>31.720524</ele>
        <time>2023-12-30T14:35:07.000Z</time>
      </trkpt>
      <trkpt lat="43.4104" lon="3.46382">
        <ele>31.720524</ele>
        <time>2023-12-30T14:35:08.000Z</time>
      </trkpt>
      <trkpt lat="43.4104" lon="3.46382">
        <ele>31.720524</ele>
        <time>2023-12-30T14:35:09.000Z</time>
      </trkpt>
      <trkpt lat="43.4104" lon="3.46382">
        <ele>31.720524</ele>
        <time>2023-12-30T14:35:10.000Z</time>
      </trkpt>
      <trkpt lat="43.4104" lon="3.46382">
        <ele>31.720524</ele>
        <time>2023-12-30T14:35:11.000Z</time>
      </trkpt>
      <trkpt lat="43.4104" lon="3.46382">
        <ele>31.720524</ele>
        <time>2023-12-30T14:35:12.000Z</time>
      </trkpt>
      <trkpt lat="43.4104" lon="3.46382">
        <ele>31.720524</ele>
        <time>2023-12-30T14:35:13.000Z</time>
      </trkpt>
      <trkpt lat="43.4104" lon="3.46382">
        <ele>31.720524</ele>
        <time>2023-12-30T14:35:14.000Z</time>
      </trkpt>
      <trkpt lat="43.4104" lon="3.46382">
        <ele>31.720524</ele>
        <time>2023-12-30T14:35:15.000Z</time>
      </trkpt>
      <trkpt lat="43.4104" lon="3.46382">
        <ele>31.720524</ele>
        <time>2023-12-30T14:35:16.000Z</time>
      </trkpt>
      <trkpt lat="43.4104" lon="3.46382">
        <ele>31.720524</ele>
        <time>2023-12-30T14:35:17.000Z</time>
      </trkpt>
      <trkpt lat="43.4104" lon="3.46382">
        <ele>31.720524</ele>
        <time>2023-12-30T14:35:18.000Z</time>
      </trkpt>
      <trkpt lat="43.4104" lon="3.46382">
        <ele>31.720524</ele>
        <time>2023-12-30T14:35:19.000Z</time>
      </trkpt>
      <trkpt lat="43.4104" lon="3.46382">
        <ele>31.720524</ele>
        <time>2023-12-30T14:35:20.000Z</time>
      </trkpt>
      <trkpt lat="43.4104" lon="3.46382">
        <ele>31.720524</ele>
        <time>2023-12-30T14:35:21.000Z</time>
      </trkpt>
      <trkpt lat="43.4104" lon="3.46382">
        <ele>31.720524</ele>
        <time>2023-12-30T14:35:22.000Z</time>
      </trkpt>
      <trkpt lat="43.4104" lon="3.46382">
        <ele>31.720524</ele>
        <time>2023-12-30T14:35:23.000Z</time>
      </trkpt>
      <trkpt lat="43.4104" lon="3.46382">
        <ele>31.720524</ele>
        <time>2023-12-30T14:35:24.000Z</time>
      </trkpt>
      <trkpt lat="43.4104" lon="3.46382">
        <ele>31.720524</ele>
        <time>2023-12-30T14:35:25.000Z</time>
      </trkpt>
      <trkpt lat="43.4104" lon="3.46382">
        <ele>31.720524</ele>
        <time>2023-12-30T14:35:26.000Z</time>
      </trkpt>
      <trkpt lat="43.4104" lon="3.46382">
        <ele>31.720524</ele>
        <time>2023-12-30T14:35:27.000Z</time>
      </trkpt>
      <trkpt lat="43.4104" lon="3.46382">
        <ele>31.720524</ele>
        <time>2023-12-30T14:35:28.000Z</time>
      </trkpt>
      <trkpt lat="43.4104" lon="3.46382">
        <ele>31.720524</ele>
        <time>2023-12-30T14:35:29.000Z</time>
      </trkpt>
      <trkpt lat="43.4104" lon="3.46382">
        <ele>31.720524</ele>
        <time>2023-12-30T14:35:30.000Z</time>
      </trkpt>
      <trkpt lat="43.4104" lon="3.46382">
        <ele>31.720524</ele>
        <time>2023-12-30T14:35:31.000Z</time>
      </trkpt>
      <trkpt lat="43.4104" lon="3.46382">
        <ele>31.720524</ele>
        <time>2023-12-30T14:35:32.000Z</time>
      </trkpt>
      <trkpt lat="43.4104" lon="3.46382">
        <ele>31.720524</ele>
        <time>2023-12-30T14:35:33.000Z</time>
      </trkpt>
      <trkpt lat="43.4104" lon="3.46382">
        <ele>31.720524</ele>
        <time>2023-12-30T14:35:34.000Z</time>
      </trkpt>
      <trkpt lat="43.4104" lon="3.46382">
        <ele>31.720524</ele>
        <time>2023-12-30T14:35:35.000Z</time>
      </trkpt>
      <trkpt lat="43.4104" lon="3.46382">
        <ele>31.720524</ele>
        <time>2023-12-30T14:35:36.000Z</time>
      </trkpt>
      <trkpt lat="43.4104" lon="3.46382">
        <ele>31.720524</ele>
        <time>2023-12-30T14:35:37.000Z</time>
      </trkpt>
      <trkpt lat="43.4104" lon="3.46382">
        <ele>31.721053</ele>
        <time>2023-12-30T14:35:38.000Z</time>
      </trkpt>
      <trkpt lat="43.4104" lon="3.46382">
        <ele>31.721053</ele>
        <time>2023-12-30T14:35:39.000Z</time>
      </trkpt>
      <trkpt lat="43.4104" lon="3.46382">
        <ele>31.721582</ele>
        <time>2023-12-30T14:35:40.000Z</time>
      </trkpt>
      <trkpt lat="43.4104" lon="3.46382">
        <ele>31.721582</ele>
        <time>2023-12-30T14:35:41.000Z</time>
      </trkpt>
      <trkpt lat="43.4104" lon="3.46382">
        <ele>31.721582</ele>
        <time>2023-12-30T14:35:42.000Z</time>
      </trkpt>
      <trkpt lat="43.4104" lon="3.46382">
        <ele>31.721582</ele>
        <time>2023-12-30T14:35:43.000Z</time>
      </trkpt>
      <trkpt lat="43.4104" lon="3.46382">
        <ele>31.721582</ele>
        <time>2023-12-30T14:35:44.000Z</time>
      </trkpt>
      <trkpt lat="43.4104" lon="3.46382">
        <ele>31.721582</ele>
        <time>2023-12-30T14:35:45.000Z</time>
      </trkpt>
      <trkpt lat="43.4104" lon="3.46382">
        <ele>31.721582</ele>
        <time>2023-12-30T14:35:46.000Z</time>
      </trkpt>
      <trkpt lat="43.4104" lon="3.46382">
        <ele>31.721582</ele>
        <time>2023-12-30T14:35:47.000Z</time>
      </trkpt>
      <trkpt lat="43.4104" lon="3.46382">
        <ele>31.721582</ele>
        <time>2023-12-30T14:35:48.000Z</time>
      </trkpt>
      <trkpt lat="43.4104" lon="3.46382">
        <ele>31.721582</ele>
        <time>2023-12-30T14:35:49.000Z</time>
      </trkpt>
      <trkpt lat="43.4104" lon="3.46382">
        <ele>31.721582</ele>
        <time>2023-12-30T14:35:50.000Z</time>
      </trkpt>
      <trkpt lat="43.4104" lon="3.46382">
        <ele>31.721582</ele>
        <time>2023-12-30T14:35:51.000Z</time>
      </trkpt>
      <trkpt lat="43.4104" lon="3.46382">
        <ele>31.721582</ele>
        <time>2023-12-30T14:35:52.000Z</time>
      </trkpt>
      <trkpt lat="43.4104" lon="3.46382">
        <ele>31.721582</ele>
        <time>2023-12-30T14:35:53.000Z</time>
      </trkpt>
      <trkpt lat="43.4104" lon="3.46382">
        <ele>31.721582</ele>
        <time>2023-12-30T14:35:54.000Z</time>
      </trkpt>
      <trkpt lat="43.4104" lon="3.46382">
        <ele>31.721582</ele>
        <time>2023-12-30T14:35:55.000Z</time>
      </trkpt>
      <trkpt lat="43.4104" lon="3.46382">
        <ele>31.721582</ele>
        <time>2023-12-30T14:35:56.000Z</time>
      </trkpt>
      <trkpt lat="43.4104" lon="3.46382">
        <ele>31.721582</ele>
        <time>2023-12-30T14:35:57.000Z</time>
      </trkpt>
      <trkpt lat="43.4104" lon="3.46382">
        <ele>31.721582</ele>
        <time>2023-12-30T14:35:58.000Z</time>
      </trkpt>
      <trkpt lat="43.4104" lon="3.46382">
        <ele>31.722111</ele>
        <time>2023-12-30T14:35:59.000Z</time>
      </trkpt>
      <trkpt lat="43.4104" lon="3.46382">
        <ele>31.722639</ele>
        <time>2023-12-30T14:36:00.000Z</time>
      </trkpt>
      <trkpt lat="43.4104" lon="3.46382">
        <ele>31.722639</ele>
        <time>2023-12-30T14:36:01.000Z</time>
      </trkpt>
      <trkpt lat="43.4104" lon="3.46382">
        <ele>31.722639</ele>
        <time>2023-12-30T14:36:02.000Z</time>
      </trkpt>
      <trkpt lat="43.4104" lon="3.46382">
        <ele>31.722639</ele>
        <time>2023-12-30T14:36:03.000Z</time>
      </trkpt>
      <trkpt lat="43.4104" lon="3.46382">
        <ele>31.722639</ele>
        <time>2023-12-30T14:36:04.000Z</time>
      </trkpt>
      <trkpt lat="43.4104" lon="3.46382">
        <ele>31.722639</ele>
        <time>2023-12-30T14:36:05.000Z</time>
      </trkpt>
      <trkpt lat="43.4104" lon="3.46382">
        <ele>31.722639</ele>
        <time>2023-12-30T14:36:06.000Z</time>
      </trkpt>
      <trkpt lat="43.4104" lon="3.46382">
        <ele>31.722639</ele>
        <time>2023-12-30T14:36:07.000Z</time>
      </trkpt>
      <trkpt lat="43.4104" lon="3.46382">
        <ele>31.722639</ele>
        <time>2023-12-30T14:36:08.000Z</time>
      </trkpt>
      <trkpt lat="43.4104" lon="3.46382">
        <ele>31.722639</ele>
        <time>2023-12-30T14:36:09.000Z</time>
      </trkpt>
      <trkpt lat="43.4104" lon="3.46382">
        <ele>31.722639</ele>
        <time>2023-12-30T14:36:10.000Z</time>
      </trkpt>
      <trkpt lat="43.4104" lon="3.46382">
        <ele>31.722639</ele>
        <time>2023-12-30T14:36:11.000Z</time>
      </trkpt>
      <trkpt lat="43.4104" lon="3.46382">
        <ele>31.722639</ele>
        <time>2023-12-30T14:36:12.000Z</time>
      </trkpt>
      <trkpt lat="43.4104" lon="3.46382">
        <ele>31.722639</ele>
        <time>2023-12-30T14:36:13.000Z</time>
      </trkpt>
      <trkpt lat="43.4104" lon="3.46382">
        <ele>31.722639</ele>
        <time>2023-12-30T14:36:14.000Z</time>
      </trkpt>
      <trkpt lat="43.4104" lon="3.46382">
        <ele>31.722639</ele>
        <time>2023-12-30T14:36:15.000Z</time>
      </trkpt>
      <trkpt lat="43.4104" lon="3.46382">
        <ele>31.722639</ele>
        <time>2023-12-30T14:36:16.000Z</time>
      </trkpt>
      <trkpt lat="43.4104" lon="3.46382">
        <ele>31.722639</ele>
        <time>2023-12-30T14:36:17.000Z</time>
      </trkpt>
      <trkpt lat="43.4104" lon="3.46382">
        <ele>31.722639</ele>
        <time>2023-12-30T14:36:18.000Z</time>
      </trkpt>
      <trkpt lat="43.4104" lon="3.46382">
        <ele>31.722639</ele>
        <time>2023-12-30T14:36:19.000Z</time>
      </trkpt>
      <trkpt lat="43.4104" lon="3.46382">
        <ele>31.723168</ele>
        <time>2023-12-30T14:36:20.000Z</time>
      </trkpt>
      <trkpt lat="43.4104" lon="3.46382">
        <ele>31.723697</ele>
        <time>2023-12-30T14:36:21.000Z</time>
      </trkpt>
      <trkpt lat="43.4104" lon="3.46382">
        <ele>31.723697</ele>
        <time>2023-12-30T14:36:22.000Z</time>
      </trkpt>
      <trkpt lat="43.4104" lon="3.46382">
        <ele>31.724226</ele>
        <time>2023-12-30T14:36:23.000Z</time>
      </trkpt>
      <trkpt lat="43.4104" lon="3.46382">
        <ele>31.724226</ele>
        <time>2023-12-30T14:36:24.000Z</time>
      </trkpt>
      <trkpt lat="43.4104" lon="3.46382">
        <ele>31.724754</ele>
        <time>2023-12-30T14:36:25.000Z</time>
      </trkpt>
      <trkpt lat="43.4104" lon="3.46382">
        <ele>31.725283</ele>
        <time>2023-12-30T14:36:26.000Z</time>
      </trkpt>
      <trkpt lat="43.4104" lon="3.46382">
        <ele>31.725812</ele>
        <time>2023-12-30T14:36:27.000Z</time>
      </trkpt>
      <trkpt lat="43.4104" lon="3.46382">
        <ele>31.725812</ele>
        <time>2023-12-30T14:36:28.000Z</time>
      </trkpt>
      <trkpt lat="43.4104" lon="3.46382">
        <ele>31.725812</ele>
        <time>2023-12-30T14:36:29.000Z</time>
      </trkpt>
      <trkpt lat="43.4104" lon="3.46382">
        <ele>31.725812</ele>
        <time>2023-12-30T14:36:30.000Z</time>
      </trkpt>
      <trkpt lat="43.4104" lon="3.46382">
        <ele>31.725812</ele>
        <time>2023-12-30T14:36:31.000Z</time>
      </trkpt>
      <trkpt lat="43.4104" lon="3.46382">
        <ele>31.726341</ele>
        <time>2023-12-30T14:36:32.000Z</time>
      </trkpt>
      <trkpt lat="43.4104" lon="3.46382">
        <ele>31.726869</ele>
        <time>2023-12-30T14:36:33.000Z</time>
      </trkpt>
      <trkpt lat="43.4104" lon="3.46382">
        <ele>31.726869</ele>
        <time>2023-12-30T14:36:34.000Z</time>
      </trkpt>
      <trkpt lat="43.4104" lon="3.46382">
        <ele>31.726869</ele>
        <time>2023-12-30T14:36:35.000Z</time>
      </trkpt>
      <trkpt lat="43.4104" lon="3.46382">
        <ele>31.726869</ele>
        <time>2023-12-30T14:36:36.000Z</time>
      </trkpt>
      <trkpt lat="43.4104" lon="3.46382">
        <ele>31.726869</ele>
        <time>2023-12-30T14:36:37.000Z</time>
      </trkpt>
      <trkpt lat="43.4104" lon="3.46382">
        <ele>31.727398</ele>
        <time>2023-12-30T14:36:38.000Z</time>
      </trkpt>
      <trkpt lat="43.4104" lon="3.46382">
        <ele>31.727398</ele>
        <time>2023-12-30T14:36:39.000Z</time>
      </trkpt>
      <trkpt lat="43.4104" lon="3.46382">
        <ele>31.727398</ele>
        <time>2023-12-30T14:36:40.000Z</time>
      </trkpt>
      <trkpt lat="43.4104" lon="3.46382">
        <ele>31.728126</ele>
        <time>2023-12-30T14:36:41.000Z</time>
      </trkpt>
      <trkpt lat="43.4104" lon="3.46382">
        <ele>31.728655</ele>
        <time>2023-12-30T14:36:42.000Z</time>
      </trkpt>
      <trkpt lat="43.4104" lon="3.46382">
        <ele>31.729712</ele>
        <time>2023-12-30T14:36:43.000Z</time>
      </trkpt>
      <trkpt lat="43.4104" lon="3.46384">
        <ele>31.738203</ele>
        <time>2023-12-30T14:36:44.000Z</time>
      </trkpt>
      <trkpt lat="43.41039" lon="3.46388">
        <ele>31.748056</ele>
        <time>2023-12-30T14:36:45.000Z</time>
      </trkpt>
      <trkpt lat="43.41039" lon="3.46392">
        <ele>31.70193</ele>
        <time>2023-12-30T14:36:46.000Z</time>
      </trkpt>
      <trkpt lat="43.41039" lon="3.46396">
        <ele>31.649773</ele>
        <time>2023-12-30T14:36:47.000Z</time>
      </trkpt>
      <trkpt lat="43.41038" lon="3.46402">
        <ele>31.587826</ele>
        <time>2023-12-30T14:36:48.000Z</time>
      </trkpt>
      <trkpt lat="43.41037" lon="3.46407">
        <ele>31.520506</ele>
        <time>2023-12-30T14:36:49.000Z</time>
      </trkpt>
      <trkpt lat="43.41036" lon="3.46413">
        <ele>31.449527</ele>
        <time>2023-12-30T14:36:50.000Z</time>
      </trkpt>
      <trkpt lat="43.41035" lon="3.4642">
        <ele>31.372693</ele>
        <time>2023-12-30T14:36:51.000Z</time>
      </trkpt>
      <trkpt lat="43.41033" lon="3.46427">
        <ele>31.290708</ele>
        <time>2023-12-30T14:36:52.000Z</time>
      </trkpt>
      <trkpt lat="43.41032" lon="3.46435">
        <ele>31.198456</ele>
        <time>2023-12-30T14:36:53.000Z</time>
      </trkpt>
      <trkpt lat="43.41031" lon="3.46443">
        <ele>31.109833</ele>
        <time>2023-12-30T14:36:54.000Z</time>
      </trkpt>
      <trkpt lat="43.4103" lon="3.46451">
        <ele>31.016153</ele>
        <time>2023-12-30T14:36:55.000Z</time>
      </trkpt>
      <trkpt lat="43.41028" lon="3.4646">
        <ele>30.914802</ele>
        <time>2023-12-30T14:36:56.000Z</time>
      </trkpt>
      <trkpt lat="43.41027" lon="3.46468">
        <ele>30.816327</ele>
        <time>2023-12-30T14:36:57.000Z</time>
      </trkpt>
      <trkpt lat="43.41025" lon="3.46477">
        <ele>30.717898</ele>
        <time>2023-12-30T14:36:58.000Z</time>
      </trkpt>
      <trkpt lat="43.41024" lon="3.46486">
        <ele>30.61345</ele>
        <time>2023-12-30T14:36:59.000Z</time>
      </trkpt>
      <trkpt lat="43.41023" lon="3.46495">
        <ele>30.500947</ele>
        <time>2023-12-30T14:37:00.000Z</time>
      </trkpt>
      <trkpt lat="43.41022" lon="3.46505">
        <ele>30.391821</ele>
        <time>2023-12-30T14:37:01.000Z</time>
      </trkpt>
      <trkpt lat="43.41021" lon="3.46515">
        <ele>30.277095</ele>
        <time>2023-12-30T14:37:02.000Z</time>
      </trkpt>
      <trkpt lat="43.41019" lon="3.46525">
        <ele>30.161111</ele>
        <time>2023-12-30T14:37:03.000Z</time>
      </trkpt>
      <trkpt lat="43.41017" lon="3.46534">
        <ele>30.051233</ele>
        <time>2023-12-30T14:37:04.000Z</time>
      </trkpt>
      <trkpt lat="43.41014" lon="3.46543">
        <ele>29.947701</ele>
        <time>2023-12-30T14:37:05.000Z</time>
      </trkpt>
      <trkpt lat="43.41013" lon="3.46551">
        <ele>29.851575</ele>
        <time>2023-12-30T14:37:06.000Z</time>
      </trkpt>
      <trkpt lat="43.41011" lon="3.46558">
        <ele>29.763926</ele>
        <time>2023-12-30T14:37:07.000Z</time>
      </trkpt>
      <trkpt lat="43.41009" lon="3.46566">
        <ele>29.673153</ele>
        <time>2023-12-30T14:37:08.000Z</time>
      </trkpt>
      <trkpt lat="43.41007" lon="3.46574">
        <ele>29.582384</ele>
        <time>2023-12-30T14:37:09.000Z</time>
      </trkpt>
      <trkpt lat="43.41005" lon="3.46581">
        <ele>29.496392</ele>
        <time>2023-12-30T14:37:10.000Z</time>
      </trkpt>
      <trkpt lat="43.41003" lon="3.46588">
        <ele>29.410864</ele>
        <time>2023-12-30T14:37:11.000Z</time>
      </trkpt>
      <trkpt lat="43.41001" lon="3.46595">
        <ele>29.323215</ele>
        <time>2023-12-30T14:37:12.000Z</time>
      </trkpt>
      <trkpt lat="43.40999" lon="3.46602">
        <ele>29.235594</ele>
        <time>2023-12-30T14:37:13.000Z</time>
      </trkpt>
      <trkpt lat="43.40997" lon="3.4661">
        <ele>29.1411</ele>
        <time>2023-12-30T14:37:14.000Z</time>
      </trkpt>
      <trkpt lat="43.40995" lon="3.46618">
        <ele>29.043974</ele>
        <time>2023-12-30T14:37:15.000Z</time>
      </trkpt>
      <trkpt lat="43.40993" lon="3.46627">
        <ele>28.948525</ele>
        <time>2023-12-30T14:37:16.000Z</time>
      </trkpt>
      <trkpt lat="43.40991" lon="3.46635">
        <ele>28.87538</ele>
        <time>2023-12-30T14:37:17.000Z</time>
      </trkpt>
      <trkpt lat="43.4099" lon="3.46643">
        <ele>28.803051</ele>
        <time>2023-12-30T14:37:18.000Z</time>
      </trkpt>
      <trkpt lat="43.40988" lon="3.46651">
        <ele>28.734459</ele>
        <time>2023-12-30T14:37:19.000Z</time>
      </trkpt>
      <trkpt lat="43.40986" lon="3.46659">
        <ele>28.664051</ele>
        <time>2023-12-30T14:37:20.000Z</time>
      </trkpt>
      <trkpt lat="43.40986" lon="3.46667">
        <ele>28.599192</ele>
        <time>2023-12-30T14:37:21.000Z</time>
      </trkpt>
      <trkpt lat="43.40985" lon="3.46674">
        <ele>28.539929</ele>
        <time>2023-12-30T14:37:22.000Z</time>
      </trkpt>
      <trkpt lat="43.40984" lon="3.46681">
        <ele>28.479222</ele>
        <time>2023-12-30T14:37:23.000Z</time>
      </trkpt>
      <trkpt lat="43.40983" lon="3.46687">
        <ele>28.426679</ele>
        <time>2023-12-30T14:37:24.000Z</time>
      </trkpt>
      <trkpt lat="43.40983" lon="3.46692">
        <ele>28.381663</ele>
        <time>2023-12-30T14:37:25.000Z</time>
      </trkpt>
      <trkpt lat="43.40983" lon="3.46697">
        <ele>28.342918</ele>
        <time>2023-12-30T14:37:26.000Z</time>
      </trkpt>
      <trkpt lat="43.40982" lon="3.46701">
        <ele>28.308262</ele>
        <time>2023-12-30T14:37:27.000Z</time>
      </trkpt>
      <trkpt lat="43.40981" lon="3.46705">
        <ele>28.268253</ele>
        <time>2023-12-30T14:37:28.000Z</time>
      </trkpt>
      <trkpt lat="43.40979" lon="3.4671">
        <ele>28.224535</ele>
        <time>2023-12-30T14:37:29.000Z</time>
      </trkpt>
      <trkpt lat="43.40977" lon="3.46714">
        <ele>28.182559</ele>
        <time>2023-12-30T14:37:30.000Z</time>
      </trkpt>
      <trkpt lat="43.40975" lon="3.46719">
        <ele>28.132988</ele>
        <time>2023-12-30T14:37:31.000Z</time>
      </trkpt>
      <trkpt lat="43.40974" lon="3.46725">
        <ele>28.081924</ele>
        <time>2023-12-30T14:37:32.000Z</time>
      </trkpt>
      <trkpt lat="43.40972" lon="3.46731">
        <ele>28.030799</ele>
        <time>2023-12-30T14:37:33.000Z</time>
      </trkpt>
      <trkpt lat="43.40971" lon="3.46737">
        <ele>27.977568</ele>
        <time>2023-12-30T14:37:34.000Z</time>
      </trkpt>
      <trkpt lat="43.4097" lon="3.46743">
        <ele>27.92515</ele>
        <time>2023-12-30T14:37:35.000Z</time>
      </trkpt>
      <trkpt lat="43.40969" lon="3.46749">
        <ele>27.8733</ele>
        <time>2023-12-30T14:37:36.000Z</time>
      </trkpt>
      <trkpt lat="43.40968" lon="3.46754">
        <ele>27.826182</ele>
        <time>2023-12-30T14:37:37.000Z</time>
      </trkpt>
      <trkpt lat="43.40966" lon="3.46759">
        <ele>27.782711</ele>
        <time>2023-12-30T14:37:38.000Z</time>
      </trkpt>
      <trkpt lat="43.40965" lon="3.46762">
        <ele>27.752725</ele>
        <time>2023-12-30T14:37:39.000Z</time>
      </trkpt>
      <trkpt lat="43.40964" lon="3.46763">
        <ele>27.739007</ele>
        <time>2023-12-30T14:37:40.000Z</time>
      </trkpt>
      <trkpt lat="43.40963" lon="3.46764">
        <ele>27.724004</ele>
        <time>2023-12-30T14:37:41.000Z</time>
      </trkpt>
      <trkpt lat="43.40962" lon="3.46765">
        <ele>27.714885</ele>
        <time>2023-12-30T14:37:42.000Z</time>
      </trkpt>
      <trkpt lat="43.40961" lon="3.46766">
        <ele>27.693411</ele>
        <time>2023-12-30T14:37:43.000Z</time>
      </trkpt>
      <trkpt lat="43.40958" lon="3.46765">
        <ele>27.665381</ele>
        <time>2023-12-30T14:37:44.000Z</time>
      </trkpt>
      <trkpt lat="43.40955" lon="3.46765">
        <ele>27.630101</ele>
        <time>2023-12-30T14:37:45.000Z</time>
      </trkpt>
      <trkpt lat="43.40952" lon="3.46764">
        <ele>27.594671</ele>
        <time>2023-12-30T14:37:46.000Z</time>
      </trkpt>
      <trkpt lat="43.40948" lon="3.46763">
        <ele>27.548953</ele>
        <time>2023-12-30T14:37:47.000Z</time>
      </trkpt>
      <trkpt lat="43.40944" lon="3.46761">
        <ele>27.494958</ele>
        <time>2023-12-30T14:37:48.000Z</time>
      </trkpt>
      <trkpt lat="43.40939" lon="3.46759">
        <ele>27.440681</ele>
        <time>2023-12-30T14:37:49.000Z</time>
      </trkpt>
      <trkpt lat="43.40935" lon="3.46757">
        <ele>27.385853</ele>
        <time>2023-12-30T14:37:50.000Z</time>
      </trkpt>
      <trkpt lat="43.4093" lon="3.46754">
        <ele>27.328816</ele>
        <time>2023-12-30T14:37:51.000Z</time>
      </trkpt>
      <trkpt lat="43.40926" lon="3.46752">
        <ele>27.271522</ele>
        <time>2023-12-30T14:37:52.000Z</time>
      </trkpt>
      <trkpt lat="43.40921" lon="3.4675">
        <ele>27.217189</ele>
        <time>2023-12-30T14:37:53.000Z</time>
      </trkpt>
      <trkpt lat="43.40917" lon="3.46748">
        <ele>27.162361</ele>
        <time>2023-12-30T14:37:54.000Z</time>
      </trkpt>
      <trkpt lat="43.40912" lon="3.46746">
        <ele>27.109172</ele>
        <time>2023-12-30T14:37:55.000Z</time>
      </trkpt>
      <trkpt lat="43.40909" lon="3.46744">
        <ele>27.062002</ele>
        <time>2023-12-30T14:37:56.000Z</time>
      </trkpt>
      <trkpt lat="43.40906" lon="3.46743">
        <ele>27.029355</ele>
        <time>2023-12-30T14:37:57.000Z</time>
      </trkpt>
      <trkpt lat="43.40904" lon="3.46744">
        <ele>27.008214</ele>
        <time>2023-12-30T14:37:58.000Z</time>
      </trkpt>
      <trkpt lat="43.40904" lon="3.46744">
        <ele>27.002654</ele>
        <time>2023-12-30T14:37:59.000Z</time>
      </trkpt>
      <trkpt lat="43.40904" lon="3.46744">
        <ele>26.999788</ele>
        <time>2023-12-30T14:38:00.000Z</time>
      </trkpt>
      <trkpt lat="43.40904" lon="3.46744">
        <ele>26.998946</ele>
        <time>2023-12-30T14:38:01.000Z</time>
      </trkpt>
      <trkpt lat="43.40904" lon="3.46744">
        <ele>26.998946</ele>
        <time>2023-12-30T14:38:02.000Z</time>
      </trkpt>
      <trkpt lat="43.40904" lon="3.46744">
        <ele>26.998946</ele>
        <time>2023-12-30T14:38:03.000Z</time>
      </trkpt>
      <trkpt lat="43.40904" lon="3.46744">
        <ele>26.998946</ele>
        <time>2023-12-30T14:38:04.000Z</time>
      </trkpt>
      <trkpt lat="43.40904" lon="3.46744">
        <ele>26.998946</ele>
        <time>2023-12-30T14:38:05.000Z</time>
      </trkpt>
      <trkpt lat="43.40904" lon="3.46744">
        <ele>26.998946</ele>
        <time>2023-12-30T14:38:06.000Z</time>
      </trkpt>
      <trkpt lat="43.40904" lon="3.46744">
        <ele>26.998946</ele>
        <time>2023-12-30T14:38:07.000Z</time>
      </trkpt>
      <trkpt lat="43.40904" lon="3.46744">
        <ele>26.998946</ele>
        <time>2023-12-30T14:38:08.000Z</time>
      </trkpt>
      <trkpt lat="43.40904" lon="3.46744">
        <ele>26.998946</ele>
        <time>2023-12-30T14:38:09.000Z</time>
      </trkpt>
      <trkpt lat="43.40904" lon="3.46744">
        <ele>26.997512</ele>
        <time>2023-12-30T14:38:10.000Z</time>
      </trkpt>
      <trkpt lat="43.40904" lon="3.46744">
        <ele>26.997512</ele>
        <time>2023-12-30T14:38:11.000Z</time>
      </trkpt>
      <trkpt lat="43.40904" lon="3.46744">
        <ele>26.994646</ele>
        <time>2023-12-30T14:38:12.000Z</time>
      </trkpt>
      <trkpt lat="43.40903" lon="3.46746">
        <ele>26.974583</ele>
        <time>2023-12-30T14:38:13.000Z</time>
      </trkpt>
      <trkpt lat="43.40901" lon="3.46748">
        <ele>26.946593</ele>
        <time>2023-12-30T14:38:14.000Z</time>
      </trkpt>
      <trkpt lat="43.40901" lon="3.46753">
        <ele>26.906181</ele>
        <time>2023-12-30T14:38:15.000Z</time>
      </trkpt>
      <trkpt lat="43.40901" lon="3.46759">
        <ele>26.893225</ele>
        <time>2023-12-30T14:38:16.000Z</time>
      </trkpt>
      <trkpt lat="43.40902" lon="3.46764">
        <ele>26.961164</ele>
        <time>2023-12-30T14:38:17.000Z</time>
      </trkpt>
      <trkpt lat="43.40903" lon="3.4677">
        <ele>27.031548</ele>
        <time>2023-12-30T14:38:18.000Z</time>
      </trkpt>
      <trkpt lat="43.40905" lon="3.46775">
        <ele>27.095521</ele>
        <time>2023-12-30T14:38:19.000Z</time>
      </trkpt>
      <trkpt lat="43.40906" lon="3.4678">
        <ele>27.158086</ele>
        <time>2023-12-30T14:38:20.000Z</time>
      </trkpt>
      <trkpt lat="43.40907" lon="3.46784">
        <ele>27.212665</ele>
        <time>2023-12-30T14:38:21.000Z</time>
      </trkpt>
      <trkpt lat="43.40907" lon="3.46789">
        <ele>27.26257</ele>
        <time>2023-12-30T14:38:22.000Z</time>
      </trkpt>
      <trkpt lat="43.40907" lon="3.46792">
        <ele>27.307602</ele>
        <time>2023-12-30T14:38:23.000Z</time>
      </trkpt>
      <trkpt lat="43.40908" lon="3.46796">
        <ele>27.353415</ele>
        <time>2023-12-30T14:38:24.000Z</time>
      </trkpt>
      <trkpt lat="43.40908" lon="3.468">
        <ele>27.396321</ele>
        <time>2023-12-30T14:38:25.000Z</time>
      </trkpt>
      <trkpt lat="43.40909" lon="3.46804">
        <ele>27.44389</ele>
        <time>2023-12-30T14:38:26.000Z</time>
      </trkpt>
      <trkpt lat="43.40909" lon="3.46807">
        <ele>27.481012</ele>
        <time>2023-12-30T14:38:27.000Z</time>
      </trkpt>
      <trkpt lat="43.4091" lon="3.4681">
        <ele>27.519265</ele>
        <time>2023-12-30T14:38:28.000Z</time>
      </trkpt>
      <trkpt lat="43.4091" lon="3.46814">
        <ele>27.562779</ele>
        <time>2023-12-30T14:38:29.000Z</time>
      </trkpt>
      <trkpt lat="43.40911" lon="3.46818">
        <ele>27.610596</ele>
        <time>2023-12-30T14:38:30.000Z</time>
      </trkpt>
      <trkpt lat="43.40912" lon="3.46822">
        <ele>27.658715</ele>
        <time>2023-12-30T14:38:31.000Z</time>
      </trkpt>
      <trkpt lat="43.40912" lon="3.46825">
        <ele>27.703601</ele>
        <time>2023-12-30T14:38:32.000Z</time>
      </trkpt>
      <trkpt lat="43.40912" lon="3.46829">
        <ele>27.75117</ele>
        <time>2023-12-30T14:38:33.000Z</time>
      </trkpt>
      <trkpt lat="43.40913" lon="3.46833">
        <ele>27.797826</ele>
        <time>2023-12-30T14:38:34.000Z</time>
      </trkpt>
      <trkpt lat="43.40913" lon="3.46838">
        <ele>27.853196</ele>
        <time>2023-12-30T14:38:35.000Z</time>
      </trkpt>
      <trkpt lat="43.40914" lon="3.46842">
        <ele>27.904268</ele>
        <time>2023-12-30T14:38:36.000Z</time>
      </trkpt>
      <trkpt lat="43.40914" lon="3.46846">
        <ele>27.952086</ele>
        <time>2023-12-30T14:38:37.000Z</time>
      </trkpt>
      <trkpt lat="43.40915" lon="3.4685">
        <ele>27.999051</ele>
        <time>2023-12-30T14:38:38.000Z</time>
      </trkpt>
      <trkpt lat="43.40915" lon="3.46854">
        <ele>28.046016</ele>
        <time>2023-12-30T14:38:39.000Z</time>
      </trkpt>
      <trkpt lat="43.40916" lon="3.46858">
        <ele>28.096779</ele>
        <time>2023-12-30T14:38:40.000Z</time>
      </trkpt>
      <trkpt lat="43.40916" lon="3.46862">
        <ele>28.138299</ele>
        <time>2023-12-30T14:38:41.000Z</time>
      </trkpt>
      <trkpt lat="43.40916" lon="3.46866">
        <ele>28.186846</ele>
        <time>2023-12-30T14:38:42.000Z</time>
      </trkpt>
      <trkpt lat="43.40917" lon="3.4687">
        <ele>28.239912</ele>
        <time>2023-12-30T14:38:43.000Z</time>
      </trkpt>
      <trkpt lat="43.40917" lon="3.46874">
        <ele>28.281935</ele>
        <time>2023-12-30T14:38:44.000Z</time>
      </trkpt>
      <trkpt lat="43.40918" lon="3.46878">
        <ele>28.326598</ele>
        <time>2023-12-30T14:38:45.000Z</time>
      </trkpt>
      <trkpt lat="43.40919" lon="3.46882">
        <ele>28.375871</ele>
        <time>2023-12-30T14:38:46.000Z</time>
      </trkpt>
      <trkpt lat="43.40919" lon="3.46885">
        <ele>28.422057</ele>
        <time>2023-12-30T14:38:47.000Z</time>
      </trkpt>
      <trkpt lat="43.4092" lon="3.46889">
        <ele>28.466395</ele>
        <time>2023-12-30T14:38:48.000Z</time>
      </trkpt>
      <trkpt lat="43.4092" lon="3.46893">
        <ele>28.515131</ele>
        <time>2023-12-30T14:38:49.000Z</time>
      </trkpt>
      <trkpt lat="43.40921" lon="3.46897">
        <ele>28.564109</ele>
        <time>2023-12-30T14:38:50.000Z</time>
      </trkpt>
      <trkpt lat="43.40921" lon="3.46901">
        <ele>28.613382</ele>
        <time>2023-12-30T14:38:51.000Z</time>
      </trkpt>
      <trkpt lat="43.40922" lon="3.46906">
        <ele>28.664149</ele>
        <time>2023-12-30T14:38:52.000Z</time>
      </trkpt>
      <trkpt lat="43.40923" lon="3.4691">
        <ele>28.715452</ele>
        <time>2023-12-30T14:38:53.000Z</time>
      </trkpt>
      <trkpt lat="43.40923" lon="3.46914">
        <ele>28.76278</ele>
        <time>2023-12-30T14:38:54.000Z</time>
      </trkpt>
      <trkpt lat="43.40924" lon="3.46918">
        <ele>28.809391</ele>
        <time>2023-12-30T14:38:55.000Z</time>
      </trkpt>
      <trkpt lat="43.40925" lon="3.46921">
        <ele>28.854435</ele>
        <time>2023-12-30T14:38:56.000Z</time>
      </trkpt>
      <trkpt lat="43.40925" lon="3.46926">
        <ele>28.910397</ele>
        <time>2023-12-30T14:38:57.000Z</time>
      </trkpt>
      <trkpt lat="43.40926" lon="3.4693">
        <ele>28.951917</ele>
        <time>2023-12-30T14:38:58.000Z</time>
      </trkpt>
      <trkpt lat="43.40926" lon="3.46934">
        <ele>29.006713</ele>
        <time>2023-12-30T14:38:59.000Z</time>
      </trkpt>
      <trkpt lat="43.40927" lon="3.46937">
        <ele>29.046427</ele>
        <time>2023-12-30T14:39:00.000Z</time>
      </trkpt>
      <trkpt lat="43.40927" lon="3.46941">
        <ele>29.084681</ele>
        <time>2023-12-30T14:39:01.000Z</time>
      </trkpt>
      <trkpt lat="43.40927" lon="3.46945">
        <ele>29.133228</ele>
        <time>2023-12-30T14:39:02.000Z</time>
      </trkpt>
      <trkpt lat="43.40927" lon="3.46948">
        <ele>29.171067</ele>
        <time>2023-12-30T14:39:03.000Z</time>
      </trkpt>
      <trkpt lat="43.40928" lon="3.46952">
        <ele>29.218032</ele>
        <time>2023-12-30T14:39:04.000Z</time>
      </trkpt>
      <trkpt lat="43.40929" lon="3.46956">
        <ele>29.269621</ele>
        <time>2023-12-30T14:39:05.000Z</time>
      </trkpt>
      <trkpt lat="43.4093" lon="3.4696">
        <ele>29.316231</ele>
        <time>2023-12-30T14:39:06.000Z</time>
      </trkpt>
      <trkpt lat="43.4093" lon="3.46964">
        <ele>29.364778</ele>
        <time>2023-12-30T14:39:07.000Z</time>
      </trkpt>
      <trkpt lat="43.4093" lon="3.46969">
        <ele>29.419358</ele>
        <time>2023-12-30T14:39:08.000Z</time>
      </trkpt>
      <trkpt lat="43.40931" lon="3.46972">
        <ele>29.463219</ele>
        <time>2023-12-30T14:39:09.000Z</time>
      </trkpt>
      <trkpt lat="43.40931" lon="3.46977">
        <ele>29.514803</ele>
        <time>2023-12-30T14:39:10.000Z</time>
      </trkpt>
      <trkpt lat="43.40932" lon="3.46981">
        <ele>29.564523</ele>
        <time>2023-12-30T14:39:11.000Z</time>
      </trkpt>
      <trkpt lat="43.40932" lon="3.46985">
        <ele>29.611647</ele>
        <time>2023-12-30T14:39:12.000Z</time>
      </trkpt>
      <trkpt lat="43.40932" lon="3.46988">
        <ele>29.65409</ele>
        <time>2023-12-30T14:39:13.000Z</time>
      </trkpt>
      <trkpt lat="43.40932" lon="3.46992">
        <ele>29.701326</ele>
        <time>2023-12-30T14:39:14.000Z</time>
      </trkpt>
      <trkpt lat="43.40932" lon="3.46996">
        <ele>29.746212</ele>
        <time>2023-12-30T14:39:15.000Z</time>
      </trkpt>
      <trkpt lat="43.40933" lon="3.46999">
        <ele>29.784465</ele>
        <time>2023-12-30T14:39:16.000Z</time>
      </trkpt>
      <trkpt lat="43.40933" lon="3.47003">
        <ele>29.856128</ele>
        <time>2023-12-30T14:39:17.000Z</time>
      </trkpt>
      <trkpt lat="43.40933" lon="3.47006">
        <ele>29.921202</ele>
        <time>2023-12-30T14:39:18.000Z</time>
      </trkpt>
      <trkpt lat="43.40933" lon="3.4701">
        <ele>29.996696</ele>
        <time>2023-12-30T14:39:19.000Z</time>
      </trkpt>
      <trkpt lat="43.40932" lon="3.47013">
        <ele>30.059873</ele>
        <time>2023-12-30T14:39:20.000Z</time>
      </trkpt>
      <trkpt lat="43.40933" lon="3.47016">
        <ele>30.129616</ele>
        <time>2023-12-30T14:39:21.000Z</time>
      </trkpt>
      <trkpt lat="43.40933" lon="3.47019">
        <ele>30.19906</ele>
        <time>2023-12-30T14:39:22.000Z</time>
      </trkpt>
      <trkpt lat="43.40933" lon="3.47022">
        <ele>30.264133</ele>
        <time>2023-12-30T14:39:23.000Z</time>
      </trkpt>
      <trkpt lat="43.40933" lon="3.47025">
        <ele>30.328097</ele>
        <time>2023-12-30T14:39:24.000Z</time>
      </trkpt>
      <trkpt lat="43.40934" lon="3.47029">
        <ele>30.40617</ele>
        <time>2023-12-30T14:39:25.000Z</time>
      </trkpt>
      <trkpt lat="43.40934" lon="3.47033">
        <ele>30.490103</ele>
        <time>2023-12-30T14:39:26.000Z</time>
      </trkpt>
      <trkpt lat="43.40934" lon="3.47037">
        <ele>30.573986</ele>
        <time>2023-12-30T14:39:27.000Z</time>
      </trkpt>
      <trkpt lat="43.40934" lon="3.47042">
        <ele>30.668531</ele>
        <time>2023-12-30T14:39:28.000Z</time>
      </trkpt>
      <trkpt lat="43.40934" lon="3.47045">
        <ele>30.748689</ele>
        <time>2023-12-30T14:39:29.000Z</time>
      </trkpt>
      <trkpt lat="43.40934" lon="3.47049">
        <ele>30.822313</ele>
        <time>2023-12-30T14:39:30.000Z</time>
      </trkpt>
      <trkpt lat="43.40934" lon="3.47052">
        <ele>30.893672</ele>
        <time>2023-12-30T14:39:31.000Z</time>
      </trkpt>
      <trkpt lat="43.40934" lon="3.47056">
        <ele>30.979701</ele>
        <time>2023-12-30T14:39:32.000Z</time>
      </trkpt>
      <trkpt lat="43.40933" lon="3.4706">
        <ele>31.05193</ele>
        <time>2023-12-30T14:39:33.000Z</time>
      </trkpt>
      <trkpt lat="43.40933" lon="3.47063">
        <ele>31.111773</ele>
        <time>2023-12-30T14:39:34.000Z</time>
      </trkpt>
      <trkpt lat="43.40933" lon="3.47065">
        <ele>31.170774</ele>
        <time>2023-12-30T14:39:35.000Z</time>
      </trkpt>
      <trkpt lat="43.40933" lon="3.47069">
        <ele>31.244399</ele>
        <time>2023-12-30T14:39:36.000Z</time>
      </trkpt>
      <trkpt lat="43.40933" lon="3.47072">
        <ele>31.318023</ele>
        <time>2023-12-30T14:39:37.000Z</time>
      </trkpt>
      <trkpt lat="43.40933" lon="3.47076">
        <ele>31.397764</ele>
        <time>2023-12-30T14:39:38.000Z</time>
      </trkpt>
      <trkpt lat="43.40933" lon="3.4708">
        <ele>31.473479</ele>
        <time>2023-12-30T14:39:39.000Z</time>
      </trkpt>
      <trkpt lat="43.40932" lon="3.47084">
        <ele>31.556076</ele>
        <time>2023-12-30T14:39:40.000Z</time>
      </trkpt>
      <trkpt lat="43.40932" lon="3.47087">
        <ele>31.633668</ele>
        <time>2023-12-30T14:39:41.000Z</time>
      </trkpt>
      <trkpt lat="43.40933" lon="3.47091">
        <ele>31.72042</ele>
        <time>2023-12-30T14:39:42.000Z</time>
      </trkpt>
      <trkpt lat="43.40934" lon="3.47095">
        <ele>31.794529</ele>
        <time>2023-12-30T14:39:43.000Z</time>
      </trkpt>
      <trkpt lat="43.40934" lon="3.47098">
        <ele>31.870519</ele>
        <time>2023-12-30T14:39:44.000Z</time>
      </trkpt>
      <trkpt lat="43.40934" lon="3.47102">
        <ele>31.944143</ele>
        <time>2023-12-30T14:39:45.000Z</time>
      </trkpt>
      <trkpt lat="43.40934" lon="3.47106">
        <ele>32.023884</ele>
        <time>2023-12-30T14:39:46.000Z</time>
      </trkpt>
      <trkpt lat="43.40934" lon="3.47109">
        <ele>32.095243</ele>
        <time>2023-12-30T14:39:47.000Z</time>
      </trkpt>
      <trkpt lat="43.40934" lon="3.47112">
        <ele>32.163884</ele>
        <time>2023-12-30T14:39:48.000Z</time>
      </trkpt>
      <trkpt lat="43.40934" lon="3.47116">
        <ele>32.245874</ele>
        <time>2023-12-30T14:39:49.000Z</time>
      </trkpt>
      <trkpt lat="43.40934" lon="3.4712">
        <ele>32.323519</ele>
        <time>2023-12-30T14:39:50.000Z</time>
      </trkpt>
      <trkpt lat="43.40934" lon="3.47124">
        <ele>32.399014</ele>
        <time>2023-12-30T14:39:51.000Z</time>
      </trkpt>
      <trkpt lat="43.40934" lon="3.47127">
        <ele>32.474729</ele>
        <time>2023-12-30T14:39:52.000Z</time>
      </trkpt>
      <trkpt lat="43.40934" lon="3.47131">
        <ele>32.552374</ele>
        <time>2023-12-30T14:39:53.000Z</time>
      </trkpt>
      <trkpt lat="43.40934" lon="3.47135">
        <ele>32.636456</ele>
        <time>2023-12-30T14:39:54.000Z</time>
      </trkpt>
      <trkpt lat="43.40934" lon="3.47138">
        <ele>32.712171</ele>
        <time>2023-12-30T14:39:55.000Z</time>
      </trkpt>
      <trkpt lat="43.40935" lon="3.47143">
        <ele>32.80253</ele>
        <time>2023-12-30T14:39:56.000Z</time>
      </trkpt>
      <trkpt lat="43.40935" lon="3.47147">
        <ele>32.897295</ele>
        <time>2023-12-30T14:39:57.000Z</time>
      </trkpt>
      <trkpt lat="43.40935" lon="3.47151">
        <ele>32.985419</ele>
        <time>2023-12-30T14:39:58.000Z</time>
      </trkpt>
      <trkpt lat="43.40935" lon="3.47155">
        <ele>33.067663</ele>
        <time>2023-12-30T14:39:59.000Z</time>
      </trkpt>
      <trkpt lat="43.40935" lon="3.4716">
        <ele>33.160114</ele>
        <time>2023-12-30T14:40:00.000Z</time>
      </trkpt>
      <trkpt lat="43.40935" lon="3.47164">
        <ele>33.250289</ele>
        <time>2023-12-30T14:40:01.000Z</time>
      </trkpt>
      <trkpt lat="43.40936" lon="3.47168">
        <ele>33.336317</ele>
        <time>2023-12-30T14:40:02.000Z</time>
      </trkpt>
      <trkpt lat="43.40937" lon="3.47172">
        <ele>33.425028</ele>
        <time>2023-12-30T14:40:03.000Z</time>
      </trkpt>
      <trkpt lat="43.40937" lon="3.47176">
        <ele>33.515393</ele>
        <time>2023-12-30T14:40:04.000Z</time>
      </trkpt>
      <trkpt lat="43.40937" lon="3.4718">
        <ele>33.592985</ele>
        <time>2023-12-30T14:40:05.000Z</time>
      </trkpt>
      <trkpt lat="43.40938" lon="3.47184">
        <ele>33.675228</ele>
        <time>2023-12-30T14:40:06.000Z</time>
      </trkpt>
      <trkpt lat="43.40938" lon="3.47188">
        <ele>33.757065</ele>
        <time>2023-12-30T14:40:07.000Z</time>
      </trkpt>
      <trkpt lat="43.40938" lon="3.47193">
        <ele>33.857766</ele>
        <time>2023-12-30T14:40:08.000Z</time>
      </trkpt>
      <trkpt lat="43.40938" lon="3.47197">
        <ele>33.944181</ele>
        <time>2023-12-30T14:40:09.000Z</time>
      </trkpt>
      <trkpt lat="43.40939" lon="3.47201">
        <ele>34.030464</ele>
        <time>2023-12-30T14:40:10.000Z</time>
      </trkpt>
      <trkpt lat="43.40939" lon="3.47205">
        <ele>34.115579</ele>
        <time>2023-12-30T14:40:11.000Z</time>
      </trkpt>
      <trkpt lat="43.4094" lon="3.47208">
        <ele>34.188326</ele>
        <time>2023-12-30T14:40:12.000Z</time>
      </trkpt>
      <trkpt lat="43.40941" lon="3.47212">
        <ele>34.270152</ele>
        <time>2023-12-30T14:40:13.000Z</time>
      </trkpt>
      <trkpt lat="43.40941" lon="3.47216">
        <ele>34.366096</ele>
        <time>2023-12-30T14:40:14.000Z</time>
      </trkpt>
      <trkpt lat="43.40942" lon="3.47221">
        <ele>34.454927</ele>
        <time>2023-12-30T14:40:15.000Z</time>
      </trkpt>
      <trkpt lat="43.40941" lon="3.47224">
        <ele>34.536917</ele>
        <time>2023-12-30T14:40:16.000Z</time>
      </trkpt>
      <trkpt lat="43.40942" lon="3.47229">
        <ele>34.627506</ele>
        <time>2023-12-30T14:40:17.000Z</time>
      </trkpt>
      <trkpt lat="43.40942" lon="3.47233">
        <ele>34.721918</ele>
        <time>2023-12-30T14:40:18.000Z</time>
      </trkpt>
      <trkpt lat="43.40942" lon="3.47238">
        <ele>34.818771</ele>
        <time>2023-12-30T14:40:19.000Z</time>
      </trkpt>
      <trkpt lat="43.40943" lon="3.47243">
        <ele>34.918385</ele>
        <time>2023-12-30T14:40:20.000Z</time>
      </trkpt>
      <trkpt lat="43.40943" lon="3.47247">
        <ele>35.03673</ele>
        <time>2023-12-30T14:40:21.000Z</time>
      </trkpt>
      <trkpt lat="43.40943" lon="3.47251">
        <ele>35.205558</ele>
        <time>2023-12-30T14:40:22.000Z</time>
      </trkpt>
      <trkpt lat="43.40944" lon="3.47255">
        <ele>35.359788</ele>
        <time>2023-12-30T14:40:23.000Z</time>
      </trkpt>
      <trkpt lat="43.40944" lon="3.4726">
        <ele>35.539653</ele>
        <time>2023-12-30T14:40:24.000Z</time>
      </trkpt>
      <trkpt lat="43.40944" lon="3.47264">
        <ele>35.703307</ele>
        <time>2023-12-30T14:40:25.000Z</time>
      </trkpt>
      <trkpt lat="43.40944" lon="3.47268">
        <ele>35.85519</ele>
        <time>2023-12-30T14:40:26.000Z</time>
      </trkpt>
      <trkpt lat="43.40944" lon="3.47272">
        <ele>36.003566</ele>
        <time>2023-12-30T14:40:27.000Z</time>
      </trkpt>
      <trkpt lat="43.40945" lon="3.47275">
        <ele>36.13695</ele>
        <time>2023-12-30T14:40:28.000Z</time>
      </trkpt>
      <trkpt lat="43.40945" lon="3.47278">
        <ele>36.268745</ele>
        <time>2023-12-30T14:40:29.000Z</time>
      </trkpt>
      <trkpt lat="43.40946" lon="3.47281">
        <ele>36.38181</ele>
        <time>2023-12-30T14:40:30.000Z</time>
      </trkpt>
      <trkpt lat="43.40945" lon="3.47285">
        <ele>36.534071</ele>
        <time>2023-12-30T14:40:31.000Z</time>
      </trkpt>
      <trkpt lat="43.40945" lon="3.47289">
        <ele>36.670377</ele>
        <time>2023-12-30T14:40:32.000Z</time>
      </trkpt>
      <trkpt lat="43.40945" lon="3.47292">
        <ele>36.806682</ele>
        <time>2023-12-30T14:40:33.000Z</time>
      </trkpt>
      <trkpt lat="43.40945" lon="3.47295">
        <ele>36.939201</ele>
        <time>2023-12-30T14:40:34.000Z</time>
      </trkpt>
      <trkpt lat="43.40945" lon="3.47299">
        <ele>37.087189</ele>
        <time>2023-12-30T14:40:35.000Z</time>
      </trkpt>
      <trkpt lat="43.40946" lon="3.47303">
        <ele>37.239921</ele>
        <time>2023-12-30T14:40:36.000Z</time>
      </trkpt>
      <trkpt lat="43.40945" lon="3.47307">
        <ele>37.372766</ele>
        <time>2023-12-30T14:40:37.000Z</time>
      </trkpt>
      <trkpt lat="43.40945" lon="3.4731">
        <ele>37.489599</ele>
        <time>2023-12-30T14:40:38.000Z</time>
      </trkpt>
      <trkpt lat="43.40945" lon="3.47312">
        <ele>37.588279</ele>
        <time>2023-12-30T14:40:39.000Z</time>
      </trkpt>
      <trkpt lat="43.40945" lon="3.47315">
        <ele>37.689534</ele>
        <time>2023-12-30T14:40:40.000Z</time>
      </trkpt>
      <trkpt lat="43.40945" lon="3.47317">
        <ele>37.777854</ele>
        <time>2023-12-30T14:40:41.000Z</time>
      </trkpt>
      <trkpt lat="43.40944" lon="3.47319">
        <ele>37.873749</ele>
        <time>2023-12-30T14:40:42.000Z</time>
      </trkpt>
      <trkpt lat="43.40944" lon="3.47322">
        <ele>37.967369</ele>
        <time>2023-12-30T14:40:43.000Z</time>
      </trkpt>
      <trkpt lat="43.40944" lon="3.47324">
        <ele>38.079659</ele>
        <time>2023-12-30T14:40:44.000Z</time>
      </trkpt>
      <trkpt lat="43.40943" lon="3.47328">
        <ele>38.214019</ele>
        <time>2023-12-30T14:40:45.000Z</time>
      </trkpt>
      <trkpt lat="43.40942" lon="3.4733">
        <ele>38.335528</ele>
        <time>2023-12-30T14:40:46.000Z</time>
      </trkpt>
      <trkpt lat="43.40942" lon="3.47334">
        <ele>38.46015</ele>
        <time>2023-12-30T14:40:47.000Z</time>
      </trkpt>
      <trkpt lat="43.40941" lon="3.47337">
        <ele>38.596411</ele>
        <time>2023-12-30T14:40:48.000Z</time>
      </trkpt>
      <trkpt lat="43.40941" lon="3.4734">
        <ele>38.715196</ele>
        <time>2023-12-30T14:40:49.000Z</time>
      </trkpt>
      <trkpt lat="43.40941" lon="3.47344">
        <ele>38.855805</ele>
        <time>2023-12-30T14:40:50.000Z</time>
      </trkpt>
      <trkpt lat="43.40941" lon="3.47348">
        <ele>39.015837</ele>
        <time>2023-12-30T14:40:51.000Z</time>
      </trkpt>
      <trkpt lat="43.40941" lon="3.47352">
        <ele>39.171706</ele>
        <time>2023-12-30T14:40:52.000Z</time>
      </trkpt>
      <trkpt lat="43.40941" lon="3.47355">
        <ele>39.316199</ele>
        <time>2023-12-30T14:40:53.000Z</time>
      </trkpt>
      <trkpt lat="43.4094" lon="3.47359">
        <ele>39.445718</ele>
        <time>2023-12-30T14:40:54.000Z</time>
      </trkpt>
      <trkpt lat="43.4094" lon="3.47362">
        <ele>39.569385</ele>
        <time>2023-12-30T14:40:55.000Z</time>
      </trkpt>
      <trkpt lat="43.40939" lon="3.47364">
        <ele>39.655842</ele>
        <time>2023-12-30T14:40:56.000Z</time>
      </trkpt>
      <trkpt lat="43.40938" lon="3.47366">
        <ele>39.760358</ele>
        <time>2023-12-30T14:40:57.000Z</time>
      </trkpt>
      <trkpt lat="43.40937" lon="3.47369">
        <ele>39.879367</ele>
        <time>2023-12-30T14:40:58.000Z</time>
      </trkpt>
      <trkpt lat="43.40937" lon="3.47372">
        <ele>39.996691</ele>
        <time>2023-12-30T14:40:59.000Z</time>
      </trkpt>
      <trkpt lat="43.40937" lon="3.47375">
        <ele>40.110138</ele>
        <time>2023-12-30T14:41:00.000Z</time>
      </trkpt>
      <trkpt lat="43.40937" lon="3.47378">
        <ele>40.238654</ele>
        <time>2023-12-30T14:41:01.000Z</time>
      </trkpt>
      <trkpt lat="43.40937" lon="3.4738">
        <ele>40.340476</ele>
        <time>2023-12-30T14:41:02.000Z</time>
      </trkpt>
      <trkpt lat="43.40936" lon="3.47383">
        <ele>40.423825</ele>
        <time>2023-12-30T14:41:03.000Z</time>
      </trkpt>
      <trkpt lat="43.40937" lon="3.47384">
        <ele>40.500864</ele>
        <time>2023-12-30T14:41:04.000Z</time>
      </trkpt>
      <trkpt lat="43.40937" lon="3.47387">
        <ele>40.583347</ele>
        <time>2023-12-30T14:41:05.000Z</time>
      </trkpt>
      <trkpt lat="43.40937" lon="3.47389">
        <ele>40.685872</ele>
        <time>2023-12-30T14:41:06.000Z</time>
      </trkpt>
      <trkpt lat="43.40937" lon="3.47391">
        <ele>40.759866</ele>
        <time>2023-12-30T14:41:07.000Z</time>
      </trkpt>
      <trkpt lat="43.40937" lon="3.47393">
        <ele>40.845712</ele>
        <time>2023-12-30T14:41:08.000Z</time>
      </trkpt>
      <trkpt lat="43.40938" lon="3.47396">
        <ele>40.948236</ele>
        <time>2023-12-30T14:41:09.000Z</time>
      </trkpt>
      <trkpt lat="43.40938" lon="3.47398">
        <ele>41.034693</ele>
        <time>2023-12-30T14:41:10.000Z</time>
      </trkpt>
      <trkpt lat="43.40939" lon="3.474">
        <ele>41.114225</ele>
        <time>2023-12-30T14:41:11.000Z</time>
      </trkpt>
      <trkpt lat="43.40939" lon="3.47402">
        <ele>41.196708</ele>
        <time>2023-12-30T14:41:12.000Z</time>
      </trkpt>
      <trkpt lat="43.40939" lon="3.47404">
        <ele>41.285028</ele>
        <time>2023-12-30T14:41:13.000Z</time>
      </trkpt>
      <trkpt lat="43.40939" lon="3.47407">
        <ele>41.383709</ele>
        <time>2023-12-30T14:41:14.000Z</time>
      </trkpt>
      <trkpt lat="43.4094" lon="3.47409">
        <ele>41.486233</ele>
        <time>2023-12-30T14:41:15.000Z</time>
      </trkpt>
      <trkpt lat="43.40939" lon="3.47412">
        <ele>41.577238</ele>
        <time>2023-12-30T14:41:16.000Z</time>
      </trkpt>
      <trkpt lat="43.40939" lon="3.47414">
        <ele>41.678635</ele>
        <time>2023-12-30T14:41:17.000Z</time>
      </trkpt>
      <trkpt lat="43.4094" lon="3.47417">
        <ele>41.780456</ele>
        <time>2023-12-30T14:41:18.000Z</time>
      </trkpt>
      <trkpt lat="43.4094" lon="3.4742">
        <ele>41.913301</ele>
        <time>2023-12-30T14:41:19.000Z</time>
      </trkpt>
      <trkpt lat="43.4094" lon="3.47423">
        <ele>42.029377</ele>
        <time>2023-12-30T14:41:20.000Z</time>
      </trkpt>
      <trkpt lat="43.40941" lon="3.47426">
        <ele>42.141667</ele>
        <time>2023-12-30T14:41:21.000Z</time>
      </trkpt>
      <trkpt lat="43.40941" lon="3.47429">
        <ele>42.2585</ele>
        <time>2023-12-30T14:41:22.000Z</time>
      </trkpt>
      <trkpt lat="43.40941" lon="3.47432">
        <ele>42.387463</ele>
        <time>2023-12-30T14:41:23.000Z</time>
      </trkpt>
      <trkpt lat="43.4094" lon="3.47435">
        <ele>42.505398</ele>
        <time>2023-12-30T14:41:24.000Z</time>
      </trkpt>
      <trkpt lat="43.4094" lon="3.47438">
        <ele>42.604078</ele>
        <time>2023-12-30T14:41:25.000Z</time>
      </trkpt>
      <trkpt lat="43.4094" lon="3.4744">
        <ele>42.699973</ele>
        <time>2023-12-30T14:41:26.000Z</time>
      </trkpt>
      <trkpt lat="43.40941" lon="3.47442">
        <ele>42.795145</ele>
        <time>2023-12-30T14:41:27.000Z</time>
      </trkpt>
      <trkpt lat="43.40941" lon="3.47445">
        <ele>42.913929</ele>
        <time>2023-12-30T14:41:28.000Z</time>
      </trkpt>
      <trkpt lat="43.4094" lon="3.47449">
        <ele>43.038667</ele>
        <time>2023-12-30T14:41:29.000Z</time>
      </trkpt>
      <trkpt lat="43.40941" lon="3.47452">
        <ele>43.155623</ele>
        <time>2023-12-30T14:41:30.000Z</time>
      </trkpt>
      <trkpt lat="43.40941" lon="3.47455">
        <ele>43.284329</ele>
        <time>2023-12-30T14:41:31.000Z</time>
      </trkpt>
      <trkpt lat="43.40941" lon="3.47458">
        <ele>43.420739</ele>
        <time>2023-12-30T14:41:32.000Z</time>
      </trkpt>
      <trkpt lat="43.40941" lon="3.47462">
        <ele>43.561041</ele>
        <time>2023-12-30T14:41:33.000Z</time>
      </trkpt>
      <trkpt lat="43.40941" lon="3.47466">
        <ele>43.70903</ele>
        <time>2023-12-30T14:41:34.000Z</time>
      </trkpt>
      <trkpt lat="43.40941" lon="3.47469">
        <ele>43.84923</ele>
        <time>2023-12-30T14:41:35.000Z</time>
      </trkpt>
      <trkpt lat="43.40941" lon="3.47473">
        <ele>43.997606</ele>
        <time>2023-12-30T14:41:36.000Z</time>
      </trkpt>
      <trkpt lat="43.40941" lon="3.47477">
        <ele>44.134333</ele>
        <time>2023-12-30T14:41:37.000Z</time>
      </trkpt>
      <trkpt lat="43.40941" lon="3.4748">
        <ele>44.266743</ele>
        <time>2023-12-30T14:41:38.000Z</time>
      </trkpt>
      <trkpt lat="43.40941" lon="3.47483">
        <ele>44.38759</ele>
        <time>2023-12-30T14:41:39.000Z</time>
      </trkpt>
      <trkpt lat="43.40941" lon="3.47487">
        <ele>44.524001</ele>
        <time>2023-12-30T14:41:40.000Z</time>
      </trkpt>
      <trkpt lat="43.40941" lon="3.4749">
        <ele>44.63852</ele>
        <time>2023-12-30T14:41:41.000Z</time>
      </trkpt>
      <trkpt lat="43.40941" lon="3.47493">
        <ele>44.728089</ele>
        <time>2023-12-30T14:41:42.000Z</time>
      </trkpt>
      <trkpt lat="43.40941" lon="3.47496">
        <ele>44.804842</ele>
        <time>2023-12-30T14:41:43.000Z</time>
      </trkpt>
      <trkpt lat="43.40942" lon="3.47498">
        <ele>44.878914</ele>
        <time>2023-12-30T14:41:44.000Z</time>
      </trkpt>
      <trkpt lat="43.40942" lon="3.47501">
        <ele>44.955212</ele>
        <time>2023-12-30T14:41:45.000Z</time>
      </trkpt>
      <trkpt lat="43.40942" lon="3.47504">
        <ele>45.020403</ele>
        <time>2023-12-30T14:41:46.000Z</time>
      </trkpt>
      <trkpt lat="43.40942" lon="3.47507">
        <ele>45.104554</ele>
        <time>2023-12-30T14:41:47.000Z</time>
      </trkpt>
      <trkpt lat="43.40941" lon="3.4751">
        <ele>45.186251</ele>
        <time>2023-12-30T14:41:48.000Z</time>
      </trkpt>
      <trkpt lat="43.40941" lon="3.47513">
        <ele>45.270402</ele>
        <time>2023-12-30T14:41:49.000Z</time>
      </trkpt>
      <trkpt lat="43.40941" lon="3.47516">
        <ele>45.349046</ele>
        <time>2023-12-30T14:41:50.000Z</time>
      </trkpt>
      <trkpt lat="43.40941" lon="3.47519">
        <ele>45.438848</ele>
        <time>2023-12-30T14:41:51.000Z</time>
      </trkpt>
      <trkpt lat="43.40941" lon="3.47522">
        <ele>45.522915</ele>
        <time>2023-12-30T14:41:52.000Z</time>
      </trkpt>
      <trkpt lat="43.40941" lon="3.47525">
        <ele>45.604271</ele>
        <time>2023-12-30T14:41:53.000Z</time>
      </trkpt>
      <trkpt lat="43.40941" lon="3.47528">
        <ele>45.680569</ele>
        <time>2023-12-30T14:41:54.000Z</time>
      </trkpt>
      <trkpt lat="43.40941" lon="3.47531">
        <ele>45.76472</ele>
        <time>2023-12-30T14:41:55.000Z</time>
      </trkpt>
      <trkpt lat="43.40942" lon="3.47534">
        <ele>45.84953</ele>
        <time>2023-12-30T14:41:56.000Z</time>
      </trkpt>
      <trkpt lat="43.40942" lon="3.47537">
        <ele>45.929579</ele>
        <time>2023-12-30T14:41:57.000Z</time>
      </trkpt>
      <trkpt lat="43.40942" lon="3.4754">
        <ele>46.008223</ele>
        <time>2023-12-30T14:41:58.000Z</time>
      </trkpt>
      <trkpt lat="43.40942" lon="3.47543">
        <ele>46.092621</ele>
        <time>2023-12-30T14:41:59.000Z</time>
      </trkpt>
      <trkpt lat="43.40942" lon="3.47546">
        <ele>46.177019</ele>
        <time>2023-12-30T14:42:00.000Z</time>
      </trkpt>
      <trkpt lat="43.40942" lon="3.4755">
        <ele>46.272008</ele>
        <time>2023-12-30T14:42:01.000Z</time>
      </trkpt>
      <trkpt lat="43.40942" lon="3.47553">
        <ele>46.364211</ele>
        <time>2023-12-30T14:42:02.000Z</time>
      </trkpt>
      <trkpt lat="43.40942" lon="3.47557">
        <ele>46.461838</ele>
        <time>2023-12-30T14:42:03.000Z</time>
      </trkpt>
      <trkpt lat="43.40942" lon="3.4756">
        <ele>46.554718</ele>
        <time>2023-12-30T14:42:04.000Z</time>
      </trkpt>
      <trkpt lat="43.40941" lon="3.47563">
        <ele>46.648123</ele>
        <time>2023-12-30T14:42:05.000Z</time>
      </trkpt>
      <trkpt lat="43.40941" lon="3.47567">
        <ele>46.734902</ele>
        <time>2023-12-30T14:42:06.000Z</time>
      </trkpt>
      <trkpt lat="43.40942" lon="3.4757">
        <ele>46.835864</ele>
        <time>2023-12-30T14:42:07.000Z</time>
      </trkpt>
      <trkpt lat="43.40942" lon="3.47574">
        <ele>46.928745</ele>
        <time>2023-12-30T14:42:08.000Z</time>
      </trkpt>
      <trkpt lat="43.40942" lon="3.47577">
        <ele>47.016244</ele>
        <time>2023-12-30T14:42:09.000Z</time>
      </trkpt>
      <trkpt lat="43.40942" lon="3.4758">
        <ele>47.111232</ele>
        <time>2023-12-30T14:42:10.000Z</time>
      </trkpt>
      <trkpt lat="43.40943" lon="3.47584">
        <ele>47.196042</ele>
        <time>2023-12-30T14:42:11.000Z</time>
      </trkpt>
      <trkpt lat="43.40943" lon="3.47587">
        <ele>47.283042</ele>
        <time>2023-12-30T14:42:12.000Z</time>
      </trkpt>
      <trkpt lat="43.40944" lon="3.4759">
        <ele>47.370541</ele>
        <time>2023-12-30T14:42:13.000Z</time>
      </trkpt>
      <trkpt lat="43.40944" lon="3.47593">
        <ele>47.45494</ele>
        <time>2023-12-30T14:42:14.000Z</time>
      </trkpt>
      <trkpt lat="43.40944" lon="3.47596">
        <ele>47.532326</ele>
        <time>2023-12-30T14:42:15.000Z</time>
      </trkpt>
      <trkpt lat="43.40945" lon="3.47598">
        <ele>47.60799</ele>
        <time>2023-12-30T14:42:16.000Z</time>
      </trkpt>
      <trkpt lat="43.40946" lon="3.47601">
        <ele>47.674766</ele>
        <time>2023-12-30T14:42:17.000Z</time>
      </trkpt>
      <trkpt lat="43.40953" lon="3.47602">
        <ele>48.114043</ele>
        <time>2023-12-30T14:42:23.000Z</time>
      </trkpt>
      <trkpt lat="43.40956" lon="3.47601">
        <ele>48.229937</ele>
        <time>2023-12-30T14:42:24.000Z</time>
      </trkpt>
      <trkpt lat="43.4096" lon="3.476">
        <ele>48.370694</ele>
        <time>2023-12-30T14:42:25.000Z</time>
      </trkpt>
      <trkpt lat="43.40962" lon="3.47599">
        <ele>48.471468</ele>
        <time>2023-12-30T14:42:26.000Z</time>
      </trkpt>
      <trkpt lat="43.40966" lon="3.47599">
        <ele>48.609615</ele>
        <time>2023-12-30T14:42:27.000Z</time>
      </trkpt>
      <trkpt lat="43.4097" lon="3.47599">
        <ele>48.744684</ele>
        <time>2023-12-30T14:42:28.000Z</time>
      </trkpt>
      <trkpt lat="43.40973" lon="3.47599">
        <ele>48.864169</ele>
        <time>2023-12-30T14:42:29.000Z</time>
      </trkpt>
      <trkpt lat="43.40976" lon="3.47599">
        <ele>48.972425</ele>
        <time>2023-12-30T14:42:30.000Z</time>
      </trkpt>
      <trkpt lat="43.40978" lon="3.47598">
        <ele>49.070425</ele>
        <time>2023-12-30T14:42:31.000Z</time>
      </trkpt>
      <trkpt lat="43.40981" lon="3.47597">
        <ele>49.173686</ele>
        <time>2023-12-30T14:42:32.000Z</time>
      </trkpt>
      <trkpt lat="43.40983" lon="3.47596">
        <ele>49.260173</ele>
        <time>2023-12-30T14:42:33.000Z</time>
      </trkpt>
      <trkpt lat="43.40985" lon="3.47596">
        <ele>49.346416</ele>
        <time>2023-12-30T14:42:34.000Z</time>
      </trkpt>
      <trkpt lat="43.40987" lon="3.47596">
        <ele>49.421125</ele>
        <time>2023-12-30T14:42:35.000Z</time>
      </trkpt>
      <trkpt lat="43.40989" lon="3.47596">
        <ele>49.477707</ele>
        <time>2023-12-30T14:42:36.000Z</time>
      </trkpt>
      <trkpt lat="43.4099" lon="3.47596">
        <ele>49.522503</ele>
        <time>2023-12-30T14:42:37.000Z</time>
      </trkpt>
      <trkpt lat="43.40991" lon="3.47596">
        <ele>49.563655</ele>
        <time>2023-12-30T14:42:38.000Z</time>
      </trkpt>
      <trkpt lat="43.40993" lon="3.47597">
        <ele>49.619257</ele>
        <time>2023-12-30T14:42:39.000Z</time>
      </trkpt>
      <trkpt lat="43.40994" lon="3.47598">
        <ele>49.681473</ele>
        <time>2023-12-30T14:42:40.000Z</time>
      </trkpt>
      <trkpt lat="43.40996" lon="3.47599">
        <ele>49.755643</ele>
        <time>2023-12-30T14:42:41.000Z</time>
      </trkpt>
      <trkpt lat="43.40998" lon="3.47599">
        <ele>49.849947</ele>
        <time>2023-12-30T14:42:42.000Z</time>
      </trkpt>
      <trkpt lat="43.41001" lon="3.47599">
        <ele>49.939907</ele>
        <time>2023-12-30T14:42:43.000Z</time>
      </trkpt>
      <trkpt lat="43.41004" lon="3.47598">
        <ele>50.044991</ele>
        <time>2023-12-30T14:42:44.000Z</time>
      </trkpt>
      <trkpt lat="43.41006" lon="3.47599">
        <ele>50.132377</ele>
        <time>2023-12-30T14:42:45.000Z</time>
      </trkpt>
      <trkpt lat="43.41008" lon="3.47599">
        <ele>50.19235</ele>
        <time>2023-12-30T14:42:46.000Z</time>
      </trkpt>
      <trkpt lat="43.41009" lon="3.47599">
        <ele>50.237228</ele>
        <time>2023-12-30T14:42:47.000Z</time>
      </trkpt>
      <trkpt lat="43.4101" lon="3.47599">
        <ele>50.27838</ele>
        <time>2023-12-30T14:42:48.000Z</time>
      </trkpt>
      <trkpt lat="43.41011" lon="3.47599">
        <ele>50.334637</ele>
        <time>2023-12-30T14:42:49.000Z</time>
      </trkpt>
      <trkpt lat="43.41013" lon="3.47598">
        <ele>50.380165</ele>
        <time>2023-12-30T14:42:50.000Z</time>
      </trkpt>
      <trkpt lat="43.41014" lon="3.47599">
        <ele>50.444687</ele>
        <time>2023-12-30T14:42:51.000Z</time>
      </trkpt>
      <trkpt lat="43.41016" lon="3.47599">
        <ele>50.500681</ele>
        <time>2023-12-30T14:42:52.000Z</time>
      </trkpt>
      <trkpt lat="43.41018" lon="3.47599">
        <ele>50.57912</ele>
        <time>2023-12-30T14:42:53.000Z</time>
      </trkpt>
      <trkpt lat="43.4102" lon="3.47599">
        <ele>50.650512</ele>
        <time>2023-12-30T14:42:54.000Z</time>
      </trkpt>
      <trkpt lat="43.41022" lon="3.47599">
        <ele>50.725368</ele>
        <time>2023-12-30T14:42:55.000Z</time>
      </trkpt>
      <trkpt lat="43.41024" lon="3.47599">
        <ele>50.800076</ele>
        <time>2023-12-30T14:42:56.000Z</time>
      </trkpt>
      <trkpt lat="43.41026" lon="3.47598">
        <ele>50.87121</ele>
        <time>2023-12-30T14:42:57.000Z</time>
      </trkpt>
      <trkpt lat="43.41027" lon="3.47598">
        <ele>50.942601</ele>
        <time>2023-12-30T14:42:58.000Z</time>
      </trkpt>
      <trkpt lat="43.41029" lon="3.47598">
        <ele>51.009795</ele>
        <time>2023-12-30T14:42:59.000Z</time>
      </trkpt>
      <trkpt lat="43.41031" lon="3.47598">
        <ele>51.088187</ele>
        <time>2023-12-30T14:43:00.000Z</time>
      </trkpt>
      <trkpt lat="43.41033" lon="3.47598">
        <ele>51.147914</ele>
        <time>2023-12-30T14:43:01.000Z</time>
      </trkpt>
      <trkpt lat="43.41034" lon="3.47598">
        <ele>51.196745</ele>
        <time>2023-12-30T14:43:02.000Z</time>
      </trkpt>
      <trkpt lat="43.41036" lon="3.47598">
        <ele>51.249077</ele>
        <time>2023-12-30T14:43:03.000Z</time>
      </trkpt>
      <trkpt lat="43.41037" lon="3.47598">
        <ele>51.30669</ele>
        <time>2023-12-30T14:43:04.000Z</time>
      </trkpt>
      <trkpt lat="43.41039" lon="3.47597">
        <ele>51.356462</ele>
        <time>2023-12-30T14:43:05.000Z</time>
      </trkpt>
      <trkpt lat="43.41041" lon="3.47597">
        <ele>51.407489</ele>
        <time>2023-12-30T14:43:06.000Z</time>
      </trkpt>
      <trkpt lat="43.41043" lon="3.47596">
        <ele>51.458272</ele>
        <time>2023-12-30T14:43:07.000Z</time>
      </trkpt>
      <trkpt lat="43.41045" lon="3.47596">
        <ele>51.507717</ele>
        <time>2023-12-30T14:43:08.000Z</time>
      </trkpt>
      <trkpt lat="43.41047" lon="3.47595">
        <ele>51.555379</ele>
        <time>2023-12-30T14:43:09.000Z</time>
      </trkpt>
      <trkpt lat="43.41049" lon="3.47594">
        <ele>51.603531</ele>
        <time>2023-12-30T14:43:10.000Z</time>
      </trkpt>
      <trkpt lat="43.41051" lon="3.47594">
        <ele>51.64978</ele>
        <time>2023-12-30T14:43:11.000Z</time>
      </trkpt>
      <trkpt lat="43.41054" lon="3.47593">
        <ele>51.708915</ele>
        <time>2023-12-30T14:43:12.000Z</time>
      </trkpt>
      <trkpt lat="43.41056" lon="3.47592">
        <ele>51.766802</ele>
        <time>2023-12-30T14:43:13.000Z</time>
      </trkpt>
      <trkpt lat="43.41058" lon="3.4759">
        <ele>51.81822</ele>
        <time>2023-12-30T14:43:14.000Z</time>
      </trkpt>
      <trkpt lat="43.4106" lon="3.4759">
        <ele>51.869544</ele>
        <time>2023-12-30T14:43:15.000Z</time>
      </trkpt>
      <trkpt lat="43.41063" lon="3.47589">
        <ele>51.925092</ele>
        <time>2023-12-30T14:43:16.000Z</time>
      </trkpt>
      <trkpt lat="43.41065" lon="3.47588">
        <ele>51.978656</ele>
        <time>2023-12-30T14:43:17.000Z</time>
      </trkpt>
      <trkpt lat="43.41067" lon="3.47587">
        <ele>52.034121</ele>
        <time>2023-12-30T14:43:18.000Z</time>
      </trkpt>
      <trkpt lat="43.4107" lon="3.47585">
        <ele>52.093771</ele>
        <time>2023-12-30T14:43:19.000Z</time>
      </trkpt>
      <trkpt lat="43.41072" lon="3.47584">
        <ele>52.156862</ele>
        <time>2023-12-30T14:43:20.000Z</time>
      </trkpt>
      <trkpt lat="43.41075" lon="3.47583">
        <ele>52.217489</ele>
        <time>2023-12-30T14:43:21.000Z</time>
      </trkpt>
      <trkpt lat="43.41077" lon="3.47583">
        <ele>52.275563</ele>
        <time>2023-12-30T14:43:22.000Z</time>
      </trkpt>
      <trkpt lat="43.41079" lon="3.47582">
        <ele>52.325895</ele>
        <time>2023-12-30T14:43:23.000Z</time>
      </trkpt>
      <trkpt lat="43.41081" lon="3.4758">
        <ele>52.380822</ele>
        <time>2023-12-30T14:43:24.000Z</time>
      </trkpt>
      <trkpt lat="43.41084" lon="3.47578">
        <ele>52.445386</ele>
        <time>2023-12-30T14:43:25.000Z</time>
      </trkpt>
      <trkpt lat="43.41087" lon="3.47577">
        <ele>52.509371</ele>
        <time>2023-12-30T14:43:26.000Z</time>
      </trkpt>
      <trkpt lat="43.4109" lon="3.47577">
        <ele>52.576067</ele>
        <time>2023-12-30T14:43:27.000Z</time>
      </trkpt>
      <trkpt lat="43.41092" lon="3.47576">
        <ele>52.627094</ele>
        <time>2023-12-30T14:43:28.000Z</time>
      </trkpt>
      <trkpt lat="43.41094" lon="3.47575">
        <ele>52.675246</ele>
        <time>2023-12-30T14:43:29.000Z</time>
      </trkpt>
      <trkpt lat="43.41096" lon="3.47574">
        <ele>52.737492</ele>
        <time>2023-12-30T14:43:30.000Z</time>
      </trkpt>
      <trkpt lat="43.41099" lon="3.47574">
        <ele>52.791397</ele>
        <time>2023-12-30T14:43:31.000Z</time>
      </trkpt>
      <trkpt lat="43.41101" lon="3.47573">
        <ele>52.845685</ele>
        <time>2023-12-30T14:43:32.000Z</time>
      </trkpt>
      <trkpt lat="43.41103" lon="3.47572">
        <ele>52.903759</ele>
        <time>2023-12-30T14:43:33.000Z</time>
      </trkpt>
      <trkpt lat="43.41105" lon="3.47571">
        <ele>52.951911</ele>
        <time>2023-12-30T14:43:34.000Z</time>
      </trkpt>
      <trkpt lat="43.41108" lon="3.47571">
        <ele>53.000992</ele>
        <time>2023-12-30T14:43:35.000Z</time>
      </trkpt>
      <trkpt lat="43.4111" lon="3.4757">
        <ele>53.063866</ele>
        <time>2023-12-30T14:43:36.000Z</time>
      </trkpt>
      <trkpt lat="43.41113" lon="3.47569">
        <ele>53.12674</ele>
        <time>2023-12-30T14:43:37.000Z</time>
      </trkpt>
      <trkpt lat="43.41115" lon="3.47568">
        <ele>53.178159</ele>
        <time>2023-12-30T14:43:38.000Z</time>
      </trkpt>
      <trkpt lat="43.41118" lon="3.47567">
        <ele>53.242672</ele>
        <time>2023-12-30T14:43:39.000Z</time>
      </trkpt>
      <trkpt lat="43.4112" lon="3.47565">
        <ele>53.30299</ele>
        <time>2023-12-30T14:43:40.000Z</time>
      </trkpt>
      <trkpt lat="43.41122" lon="3.47564">
        <ele>53.359888</ele>
        <time>2023-12-30T14:43:41.000Z</time>
      </trkpt>
      <trkpt lat="43.41125" lon="3.47563">
        <ele>53.419965</ele>
        <time>2023-12-30T14:43:42.000Z</time>
      </trkpt>
      <trkpt lat="43.41128" lon="3.47563">
        <ele>53.484385</ele>
        <time>2023-12-30T14:43:43.000Z</time>
      </trkpt>
      <trkpt lat="43.4113" lon="3.47562">
        <ele>53.536418</ele>
        <time>2023-12-30T14:43:44.000Z</time>
      </trkpt>
      <trkpt lat="43.41132" lon="3.4756">
        <ele>53.596736</ele>
        <time>2023-12-30T14:43:45.000Z</time>
      </trkpt>
      <trkpt lat="43.41135" lon="3.47559">
        <ele>53.65366</ele>
        <time>2023-12-30T14:43:46.000Z</time>
      </trkpt>
      <trkpt lat="43.41137" lon="3.47558">
        <ele>53.71121</ele>
        <time>2023-12-30T14:43:47.000Z</time>
      </trkpt>
      <trkpt lat="43.4114" lon="3.47556">
        <ele>53.77781</ele>
        <time>2023-12-30T14:43:48.000Z</time>
      </trkpt>
      <trkpt lat="43.41141" lon="3.47555">
        <ele>53.825648</ele>
        <time>2023-12-30T14:43:49.000Z</time>
      </trkpt>
      <trkpt lat="43.41144" lon="3.47554">
        <ele>53.878667</ele>
        <time>2023-12-30T14:43:50.000Z</time>
      </trkpt>
      <trkpt lat="43.41146" lon="3.47553">
        <ele>53.94043</ele>
        <time>2023-12-30T14:43:51.000Z</time>
      </trkpt>
      <trkpt lat="43.41149" lon="3.47551">
        <ele>54.002197</ele>
        <time>2023-12-30T14:43:52.000Z</time>
      </trkpt>
      <trkpt lat="43.41151" lon="3.47549">
        <ele>54.067371</ele>
        <time>2023-12-30T14:43:53.000Z</time>
      </trkpt>
      <trkpt lat="43.41154" lon="3.47548">
        <ele>54.125804</ele>
        <time>2023-12-30T14:43:54.000Z</time>
      </trkpt>
      <trkpt lat="43.41156" lon="3.47547">
        <ele>54.180523</ele>
        <time>2023-12-30T14:43:55.000Z</time>
      </trkpt>
      <trkpt lat="43.41158" lon="3.47546">
        <ele>54.244412</ele>
        <time>2023-12-30T14:43:56.000Z</time>
      </trkpt>
      <trkpt lat="43.41161" lon="3.47545">
        <ele>54.30987</ele>
        <time>2023-12-30T14:43:57.000Z</time>
      </trkpt>
      <trkpt lat="43.41164" lon="3.47543">
        <ele>54.370459</ele>
        <time>2023-12-30T14:43:58.000Z</time>
      </trkpt>
      <trkpt lat="43.41166" lon="3.47542">
        <ele>54.431048</ele>
        <time>2023-12-30T14:43:59.000Z</time>
      </trkpt>
      <trkpt lat="43.41169" lon="3.47541">
        <ele>54.49111</ele>
        <time>2023-12-30T14:44:00.000Z</time>
      </trkpt>
      <trkpt lat="43.41172" lon="3.4754">
        <ele>54.558487</ele>
        <time>2023-12-30T14:44:01.000Z</time>
      </trkpt>
      <trkpt lat="43.41174" lon="3.47539">
        <ele>54.62206</ele>
        <time>2023-12-30T14:44:02.000Z</time>
      </trkpt>
      <trkpt lat="43.41177" lon="3.47538">
        <ele>54.686045</ele>
        <time>2023-12-30T14:44:03.000Z</time>
      </trkpt>
      <trkpt lat="43.41179" lon="3.47537">
        <ele>54.746634</ele>
        <time>2023-12-30T14:44:04.000Z</time>
      </trkpt>
      <trkpt lat="43.41182" lon="3.47536">
        <ele>54.802354</ele>
        <time>2023-12-30T14:44:05.000Z</time>
      </trkpt>
      <trkpt lat="43.41185" lon="3.47536">
        <ele>54.867202</ele>
        <time>2023-12-30T14:44:06.000Z</time>
      </trkpt>
      <trkpt lat="43.41187" lon="3.47535">
        <ele>54.931299</ele>
        <time>2023-12-30T14:44:07.000Z</time>
      </trkpt>
      <trkpt lat="43.4119" lon="3.47534">
        <ele>55.001627</ele>
        <time>2023-12-30T14:44:08.000Z</time>
      </trkpt>
      <trkpt lat="43.41193" lon="3.47533">
        <ele>55.069798</ele>
        <time>2023-12-30T14:44:09.000Z</time>
      </trkpt>
      <trkpt lat="43.41196" lon="3.47531">
        <ele>55.134311</ele>
        <time>2023-12-30T14:44:10.000Z</time>
      </trkpt>
      <trkpt lat="43.41198" lon="3.4753">
        <ele>55.197614</ele>
        <time>2023-12-30T14:44:11.000Z</time>
      </trkpt>
      <trkpt lat="43.41201" lon="3.47529">
        <ele>55.267408</ele>
        <time>2023-12-30T14:44:12.000Z</time>
      </trkpt>
      <trkpt lat="43.41204" lon="3.47527">
        <ele>55.338303</ele>
        <time>2023-12-30T14:44:13.000Z</time>
      </trkpt>
      <trkpt lat="43.41207" lon="3.47526">
        <ele>55.4045</ele>
        <time>2023-12-30T14:44:14.000Z</time>
      </trkpt>
      <trkpt lat="43.4121" lon="3.47525">
        <ele>55.481558</ele>
        <time>2023-12-30T14:44:15.000Z</time>
      </trkpt>
      <trkpt lat="43.41213" lon="3.47525">
        <ele>55.559879</ele>
        <time>2023-12-30T14:44:16.000Z</time>
      </trkpt>
      <trkpt lat="43.41215" lon="3.47524">
        <ele>55.628743</ele>
        <time>2023-12-30T14:44:17.000Z</time>
      </trkpt>
      <trkpt lat="43.41218" lon="3.47523">
        <ele>55.702624</ele>
        <time>2023-12-30T14:44:18.000Z</time>
      </trkpt>
      <trkpt lat="43.4122" lon="3.47522">
        <ele>55.772553</ele>
        <time>2023-12-30T14:44:19.000Z</time>
      </trkpt>
      <trkpt lat="43.41223" lon="3.47522">
        <ele>55.848284</ele>
        <time>2023-12-30T14:44:20.000Z</time>
      </trkpt>
      <trkpt lat="43.41226" lon="3.47521">
        <ele>55.925304</ele>
        <time>2023-12-30T14:44:21.000Z</time>
      </trkpt>
      <trkpt lat="43.41228" lon="3.4752">
        <ele>56.008208</ele>
        <time>2023-12-30T14:44:22.000Z</time>
      </trkpt>
      <trkpt lat="43.41231" lon="3.4752">
        <ele>56.08757</ele>
        <time>2023-12-30T14:44:23.000Z</time>
      </trkpt>
      <trkpt lat="43.41234" lon="3.47519">
        <ele>56.17211</ele>
        <time>2023-12-30T14:44:24.000Z</time>
      </trkpt>
      <trkpt lat="43.41237" lon="3.47518">
        <ele>56.242652</ele>
        <time>2023-12-30T14:44:25.000Z</time>
      </trkpt>
      <trkpt lat="43.41239" lon="3.47517">
        <ele>56.311068</ele>
        <time>2023-12-30T14:44:26.000Z</time>
      </trkpt>
      <trkpt lat="43.41241" lon="3.47516">
        <ele>56.37775</ele>
        <time>2023-12-30T14:44:27.000Z</time>
      </trkpt>
      <trkpt lat="43.41244" lon="3.47516">
        <ele>56.446166</ele>
        <time>2023-12-30T14:44:28.000Z</time>
      </trkpt>
      <trkpt lat="43.41246" lon="3.47515">
        <ele>56.521571</ele>
        <time>2023-12-30T14:44:29.000Z</time>
      </trkpt>
      <trkpt lat="43.41249" lon="3.47515">
        <ele>56.596976</ele>
        <time>2023-12-30T14:44:30.000Z</time>
      </trkpt>
      <trkpt lat="43.41251" lon="3.47515">
        <ele>56.657232</ele>
        <time>2023-12-30T14:44:31.000Z</time>
      </trkpt>
      <trkpt lat="43.41254" lon="3.47514">
        <ele>56.732963</ele>
        <time>2023-12-30T14:44:32.000Z</time>
      </trkpt>
      <trkpt lat="43.41256" lon="3.47513">
        <ele>56.801378</ele>
        <time>2023-12-30T14:44:33.000Z</time>
      </trkpt>
      <trkpt lat="43.41258" lon="3.47513">
        <ele>56.861634</ele>
        <time>2023-12-30T14:44:34.000Z</time>
      </trkpt>
      <trkpt lat="43.41261" lon="3.47512">
        <ele>56.935931</ele>
        <time>2023-12-30T14:44:35.000Z</time>
      </trkpt>
      <trkpt lat="43.41264" lon="3.47511">
        <ele>57.009142</ele>
        <time>2023-12-30T14:44:36.000Z</time>
      </trkpt>
      <trkpt lat="43.41266" lon="3.47511">
        <ele>57.079125</ele>
        <time>2023-12-30T14:44:37.000Z</time>
      </trkpt>
      <trkpt lat="43.41268" lon="3.4751">
        <ele>57.145807</ele>
        <time>2023-12-30T14:44:38.000Z</time>
      </trkpt>
      <trkpt lat="43.41271" lon="3.47509">
        <ele>57.220104</ele>
        <time>2023-12-30T14:44:39.000Z</time>
      </trkpt>
      <trkpt lat="43.41274" lon="3.47509">
        <ele>57.304377</ele>
        <time>2023-12-30T14:44:40.000Z</time>
      </trkpt>
      <trkpt lat="43.41277" lon="3.47508">
        <ele>57.383402</ele>
        <time>2023-12-30T14:44:41.000Z</time>
      </trkpt>
      <trkpt lat="43.41279" lon="3.47509">
        <ele>57.450454</ele>
        <time>2023-12-30T14:44:42.000Z</time>
      </trkpt>
      <trkpt lat="43.41282" lon="3.47508">
        <ele>57.517136</ele>
        <time>2023-12-30T14:44:43.000Z</time>
      </trkpt>
      <trkpt lat="43.41283" lon="3.47507">
        <ele>57.571499</ele>
        <time>2023-12-30T14:44:44.000Z</time>
      </trkpt>
      <trkpt lat="43.41286" lon="3.47507">
        <ele>57.638917</ele>
        <time>2023-12-30T14:44:45.000Z</time>
      </trkpt>
      <trkpt lat="43.41288" lon="3.47506">
        <ele>57.703346</ele>
        <time>2023-12-30T14:44:46.000Z</time>
      </trkpt>
      <trkpt lat="43.4129" lon="3.47506">
        <ele>57.76411</ele>
        <time>2023-12-30T14:44:47.000Z</time>
      </trkpt>
      <trkpt lat="43.41292" lon="3.47505">
        <ele>57.82166</ele>
        <time>2023-12-30T14:44:48.000Z</time>
      </trkpt>
      <trkpt lat="43.41295" lon="3.47504">
        <ele>57.888342</ele>
        <time>2023-12-30T14:44:49.000Z</time>
      </trkpt>
      <trkpt lat="43.41297" lon="3.47503">
        <ele>57.948598</ele>
        <time>2023-12-30T14:44:50.000Z</time>
      </trkpt>
      <trkpt lat="43.41299" lon="3.47503">
        <ele>58.011143</ele>
        <time>2023-12-30T14:44:51.000Z</time>
      </trkpt>
      <trkpt lat="43.41301" lon="3.47502">
        <ele>58.084354</ele>
        <time>2023-12-30T14:44:52.000Z</time>
      </trkpt>
      <trkpt lat="43.41304" lon="3.47501">
        <ele>58.154282</ele>
        <time>2023-12-30T14:44:53.000Z</time>
      </trkpt>
      <trkpt lat="43.41306" lon="3.475">
        <ele>58.222698</ele>
        <time>2023-12-30T14:44:54.000Z</time>
      </trkpt>
      <trkpt lat="43.41309" lon="3.475">
        <ele>58.293468</ele>
        <time>2023-12-30T14:44:55.000Z</time>
      </trkpt>
      <trkpt lat="43.41311" lon="3.475">
        <ele>58.363216</ele>
        <time>2023-12-30T14:44:56.000Z</time>
      </trkpt>
      <trkpt lat="43.41313" lon="3.47498">
        <ele>58.429982</ele>
        <time>2023-12-30T14:44:57.000Z</time>
      </trkpt>
      <trkpt lat="43.41316" lon="3.47497">
        <ele>58.50119</ele>
        <time>2023-12-30T14:44:58.000Z</time>
      </trkpt>
      <trkpt lat="43.41318" lon="3.47496">
        <ele>58.570054</ele>
        <time>2023-12-30T14:44:59.000Z</time>
      </trkpt>
      <trkpt lat="43.41321" lon="3.47496">
        <ele>58.637472</ele>
        <time>2023-12-30T14:45:00.000Z</time>
      </trkpt>
      <trkpt lat="43.41323" lon="3.47496">
        <ele>58.698858</ele>
        <time>2023-12-30T14:45:01.000Z</time>
      </trkpt>
      <trkpt lat="43.41325" lon="3.47495">
        <ele>58.757537</ele>
        <time>2023-12-30T14:45:02.000Z</time>
      </trkpt>
      <trkpt lat="43.41327" lon="3.47494">
        <ele>58.821541</ele>
        <time>2023-12-30T14:45:03.000Z</time>
      </trkpt>
      <trkpt lat="43.41329" lon="3.47494">
        <ele>58.888594</ele>
        <time>2023-12-30T14:45:04.000Z</time>
      </trkpt>
      <trkpt lat="43.41332" lon="3.47493">
        <ele>58.94885</ele>
        <time>2023-12-30T14:45:05.000Z</time>
      </trkpt>
      <trkpt lat="43.41333" lon="3.47493">
        <ele>59.001012</ele>
        <time>2023-12-30T14:45:06.000Z</time>
      </trkpt>
      <trkpt lat="43.41335" lon="3.47491">
        <ele>59.067947</ele>
        <time>2023-12-30T14:45:07.000Z</time>
      </trkpt>
      <trkpt lat="43.41338" lon="3.47489">
        <ele>59.139812</ele>
        <time>2023-12-30T14:45:08.000Z</time>
      </trkpt>
      <trkpt lat="43.4134" lon="3.47488">
        <ele>59.209741</ele>
        <time>2023-12-30T14:45:09.000Z</time>
      </trkpt>
      <trkpt lat="43.41343" lon="3.47488">
        <ele>59.283622</ele>
        <time>2023-12-30T14:45:10.000Z</time>
      </trkpt>
      <trkpt lat="43.41345" lon="3.47487">
        <ele>59.360642</ele>
        <time>2023-12-30T14:45:11.000Z</time>
      </trkpt>
      <trkpt lat="43.41348" lon="3.47486">
        <ele>59.434938</ele>
        <time>2023-12-30T14:45:12.000Z</time>
      </trkpt>
      <trkpt lat="43.41351" lon="3.47485">
        <ele>59.512912</ele>
        <time>2023-12-30T14:45:13.000Z</time>
      </trkpt>
      <trkpt lat="43.41353" lon="3.47484">
        <ele>59.577522</ele>
        <time>2023-12-30T14:45:14.000Z</time>
      </trkpt>
      <trkpt lat="43.41355" lon="3.47483">
        <ele>59.64873</ele>
        <time>2023-12-30T14:45:15.000Z</time>
      </trkpt>
      <trkpt lat="43.41358" lon="3.47482">
        <ele>59.724014</ele>
        <time>2023-12-30T14:45:16.000Z</time>
      </trkpt>
      <trkpt lat="43.4136" lon="3.47481">
        <ele>59.796077</ele>
        <time>2023-12-30T14:45:17.000Z</time>
      </trkpt>
      <trkpt lat="43.41363" lon="3.4748">
        <ele>59.875439</ele>
        <time>2023-12-30T14:45:18.000Z</time>
      </trkpt>
      <trkpt lat="43.41366" lon="3.47479">
        <ele>59.944303</ele>
        <time>2023-12-30T14:45:19.000Z</time>
      </trkpt>
      <trkpt lat="43.41368" lon="3.47479">
        <ele>60.001852</ele>
        <time>2023-12-30T14:45:20.000Z</time>
      </trkpt>
      <trkpt lat="43.4137" lon="3.47477">
        <ele>60.073777</ele>
        <time>2023-12-30T14:45:21.000Z</time>
      </trkpt>
      <trkpt lat="43.41372" lon="3.47477">
        <ele>60.143146</ele>
        <time>2023-12-30T14:45:22.000Z</time>
      </trkpt>
      <trkpt lat="43.41375" lon="3.47476">
        <ele>60.21791</ele>
        <time>2023-12-30T14:45:23.000Z</time>
      </trkpt>
      <trkpt lat="43.41378" lon="3.47475">
        <ele>60.302451</ele>
        <time>2023-12-30T14:45:24.000Z</time>
      </trkpt>
      <trkpt lat="43.4138" lon="3.47474">
        <ele>60.367724</ele>
        <time>2023-12-30T14:45:25.000Z</time>
      </trkpt>
      <trkpt lat="43.41383" lon="3.47472">
        <ele>60.448921</ele>
        <time>2023-12-30T14:45:26.000Z</time>
      </trkpt>
      <trkpt lat="43.41386" lon="3.47471">
        <ele>60.568759</ele>
        <time>2023-12-30T14:45:27.000Z</time>
      </trkpt>
      <trkpt lat="43.41388" lon="3.4747">
        <ele>60.671435</ele>
        <time>2023-12-30T14:45:28.000Z</time>
      </trkpt>
      <trkpt lat="43.4139" lon="3.47469">
        <ele>60.769115</ele>
        <time>2023-12-30T14:45:29.000Z</time>
      </trkpt>
      <trkpt lat="43.41392" lon="3.47468">
        <ele>60.856947</ele>
        <time>2023-12-30T14:45:30.000Z</time>
      </trkpt>
      <trkpt lat="43.41394" lon="3.47466">
        <ele>60.935807</ele>
        <time>2023-12-30T14:45:31.000Z</time>
      </trkpt>
      <trkpt lat="43.41396" lon="3.47465">
        <ele>61.015929</ele>
        <time>2023-12-30T14:45:32.000Z</time>
      </trkpt>
      <trkpt lat="43.41398" lon="3.47465">
        <ele>61.094978</ele>
        <time>2023-12-30T14:45:33.000Z</time>
      </trkpt>
      <trkpt lat="43.414" lon="3.47464">
        <ele>61.178943</ele>
        <time>2023-12-30T14:45:34.000Z</time>
      </trkpt>
      <trkpt lat="43.41401" lon="3.47462">
        <ele>61.250555</ele>
        <time>2023-12-30T14:45:35.000Z</time>
      </trkpt>
      <trkpt lat="43.41403" lon="3.47461">
        <ele>61.328093</ele>
        <time>2023-12-30T14:45:36.000Z</time>
      </trkpt>
      <trkpt lat="43.41405" lon="3.4746">
        <ele>61.418149</ele>
        <time>2023-12-30T14:45:37.000Z</time>
      </trkpt>
      <trkpt lat="43.41407" lon="3.47459">
        <ele>61.499919</ele>
        <time>2023-12-30T14:45:38.000Z</time>
      </trkpt>
      <trkpt lat="43.41408" lon="3.47457">
        <ele>61.590328</ele>
        <time>2023-12-30T14:45:39.000Z</time>
      </trkpt>
      <trkpt lat="43.4141" lon="3.47456">
        <ele>61.679284</ele>
        <time>2023-12-30T14:45:40.000Z</time>
      </trkpt>
      <trkpt lat="43.41412" lon="3.47455">
        <ele>61.758333</ele>
        <time>2023-12-30T14:45:41.000Z</time>
      </trkpt>
      <trkpt lat="43.41414" lon="3.47454">
        <ele>61.839625</ele>
        <time>2023-12-30T14:45:42.000Z</time>
      </trkpt>
      <trkpt lat="43.41416" lon="3.47453">
        <ele>61.914807</ele>
        <time>2023-12-30T14:45:43.000Z</time>
      </trkpt>
      <trkpt lat="43.41417" lon="3.47452">
        <ele>61.997361</ele>
        <time>2023-12-30T14:45:44.000Z</time>
      </trkpt>
      <trkpt lat="43.41419" lon="3.47449">
        <ele>62.098735</ele>
        <time>2023-12-30T14:45:45.000Z</time>
      </trkpt>
      <trkpt lat="43.41421" lon="3.47448">
        <ele>62.190672</ele>
        <time>2023-12-30T14:45:46.000Z</time>
      </trkpt>
      <trkpt lat="43.41423" lon="3.47446">
        <ele>62.279628</ele>
        <time>2023-12-30T14:45:47.000Z</time>
      </trkpt>
      <trkpt lat="43.41425" lon="3.47445">
        <ele>62.369684</ele>
        <time>2023-12-30T14:45:48.000Z</time>
      </trkpt>
      <trkpt lat="43.41427" lon="3.47444">
        <ele>62.458127</ele>
        <time>2023-12-30T14:45:49.000Z</time>
      </trkpt>
      <trkpt lat="43.41429" lon="3.47442">
        <ele>62.535664</ele>
        <time>2023-12-30T14:45:50.000Z</time>
      </trkpt>
      <trkpt lat="43.4143" lon="3.47441">
        <ele>62.625768</ele>
        <time>2023-12-30T14:45:51.000Z</time>
      </trkpt>
      <trkpt lat="43.41432" lon="3.47439">
        <ele>62.712621</ele>
        <time>2023-12-30T14:45:52.000Z</time>
      </trkpt>
      <trkpt lat="43.41434" lon="3.47438">
        <ele>62.801064</ele>
        <time>2023-12-30T14:45:53.000Z</time>
      </trkpt>
      <trkpt lat="43.41436" lon="3.47436">
        <ele>62.881336</ele>
        <time>2023-12-30T14:45:54.000Z</time>
      </trkpt>
      <trkpt lat="43.41437" lon="3.47435">
        <ele>62.952762</ele>
        <time>2023-12-30T14:45:55.000Z</time>
      </trkpt>
      <trkpt lat="43.41438" lon="3.47434">
        <ele>63.013985</ele>
        <time>2023-12-30T14:45:56.000Z</time>
      </trkpt>
      <trkpt lat="43.4144" lon="3.47432">
        <ele>63.096122</ele>
        <time>2023-12-30T14:45:57.000Z</time>
      </trkpt>
      <trkpt lat="43.41442" lon="3.4743">
        <ele>63.199951</ele>
        <time>2023-12-30T14:45:58.000Z</time>
      </trkpt>
      <trkpt lat="43.41444" lon="3.47428">
        <ele>63.288393</ele>
        <time>2023-12-30T14:45:59.000Z</time>
      </trkpt>
      <trkpt lat="43.41446" lon="3.47427">
        <ele>63.38605</ele>
        <time>2023-12-30T14:46:00.000Z</time>
      </trkpt>
      <trkpt lat="43.41448" lon="3.47425">
        <ele>63.49169</ele>
        <time>2023-12-30T14:46:01.000Z</time>
      </trkpt>
      <trkpt lat="43.41449" lon="3.47423">
        <ele>63.564918</ele>
        <time>2023-12-30T14:46:02.000Z</time>
      </trkpt>
      <trkpt lat="43.41452" lon="3.47422">
        <ele>63.667548</ele>
        <time>2023-12-30T14:46:03.000Z</time>
      </trkpt>
      <trkpt lat="43.41453" lon="3.47421">
        <ele>63.759485</ele>
        <time>2023-12-30T14:46:04.000Z</time>
      </trkpt>
      <trkpt lat="43.41455" lon="3.47419">
        <ele>63.851423</ele>
        <time>2023-12-30T14:46:05.000Z</time>
      </trkpt>
      <trkpt lat="43.41457" lon="3.47417">
        <ele>63.934772</ele>
        <time>2023-12-30T14:46:06.000Z</time>
      </trkpt>
      <trkpt lat="43.41459" lon="3.47416">
        <ele>64.025181</ele>
        <time>2023-12-30T14:46:07.000Z</time>
      </trkpt>
      <trkpt lat="43.41461" lon="3.47415">
        <ele>64.106951</ele>
        <time>2023-12-30T14:46:08.000Z</time>
      </trkpt>
      <trkpt lat="43.41462" lon="3.47413">
        <ele>64.181756</ele>
        <time>2023-12-30T14:46:09.000Z</time>
      </trkpt>
      <trkpt lat="43.41464" lon="3.47411">
        <ele>64.270964</ele>
        <time>2023-12-30T14:46:10.000Z</time>
      </trkpt>
      <trkpt lat="43.41465" lon="3.4741">
        <ele>64.342577</ele>
        <time>2023-12-30T14:46:11.000Z</time>
      </trkpt>
      <trkpt lat="43.41467" lon="3.47408">
        <ele>64.431104</ele>
        <time>2023-12-30T14:46:12.000Z</time>
      </trkpt>
      <trkpt lat="43.41469" lon="3.47406">
        <ele>64.514531</ele>
        <time>2023-12-30T14:46:13.000Z</time>
      </trkpt>
      <trkpt lat="43.4147" lon="3.47405">
        <ele>64.601384</ele>
        <time>2023-12-30T14:46:14.000Z</time>
      </trkpt>
      <trkpt lat="43.41473" lon="3.47403">
        <ele>64.713676</ele>
        <time>2023-12-30T14:46:15.000Z</time>
      </trkpt>
      <trkpt lat="43.41475" lon="3.47401">
        <ele>64.816381</ele>
        <time>2023-12-30T14:46:16.000Z</time>
      </trkpt>
      <trkpt lat="43.41477" lon="3.474">
        <ele>64.909918</ele>
        <time>2023-12-30T14:46:17.000Z</time>
      </trkpt>
      <trkpt lat="43.41478" lon="3.47398">
        <ele>64.991688</ele>
        <time>2023-12-30T14:46:18.000Z</time>
      </trkpt>
      <trkpt lat="43.4148" lon="3.47396">
        <ele>65.086892</ele>
        <time>2023-12-30T14:46:19.000Z</time>
      </trkpt>
      <trkpt lat="43.41482" lon="3.47394">
        <ele>65.187469</ele>
        <time>2023-12-30T14:46:20.000Z</time>
      </trkpt>
      <trkpt lat="43.41484" lon="3.47393">
        <ele>65.289582</ele>
        <time>2023-12-30T14:46:21.000Z</time>
      </trkpt>
      <trkpt lat="43.41486" lon="3.47391">
        <ele>65.387239</ele>
        <time>2023-12-30T14:46:22.000Z</time>
      </trkpt>
      <trkpt lat="43.41489" lon="3.4739">
        <ele>65.488577</ele>
        <time>2023-12-30T14:46:23.000Z</time>
      </trkpt>
      <trkpt lat="43.41491" lon="3.47388">
        <ele>65.577533</ele>
        <time>2023-12-30T14:46:24.000Z</time>
      </trkpt>
      <trkpt lat="43.41493" lon="3.47387">
        <ele>65.670148</ele>
        <time>2023-12-30T14:46:25.000Z</time>
      </trkpt>
      <trkpt lat="43.41495" lon="3.47386">
        <ele>65.757002</ele>
        <time>2023-12-30T14:46:26.000Z</time>
      </trkpt>
      <trkpt lat="43.41497" lon="3.47385">
        <ele>65.862401</ele>
        <time>2023-12-30T14:46:27.000Z</time>
      </trkpt>
      <trkpt lat="43.41499" lon="3.47383">
        <ele>65.970158</ele>
        <time>2023-12-30T14:46:28.000Z</time>
      </trkpt>
      <trkpt lat="43.41501" lon="3.47382">
        <ele>66.054122</ele>
        <time>2023-12-30T14:46:29.000Z</time>
      </trkpt>
      <trkpt lat="43.41503" lon="3.47381">
        <ele>66.147977</ele>
        <time>2023-12-30T14:46:30.000Z</time>
      </trkpt>
      <trkpt lat="43.41505" lon="3.4738">
        <ele>66.2397</ele>
        <time>2023-12-30T14:46:31.000Z</time>
      </trkpt>
      <trkpt lat="43.41508" lon="3.47379">
        <ele>66.345098</ele>
        <time>2023-12-30T14:46:32.000Z</time>
      </trkpt>
      <trkpt lat="43.4151" lon="3.47377">
        <ele>66.449511</ele>
        <time>2023-12-30T14:46:33.000Z</time>
      </trkpt>
      <trkpt lat="43.41512" lon="3.47377">
        <ele>66.54614</ele>
        <time>2023-12-30T14:46:34.000Z</time>
      </trkpt>
      <trkpt lat="43.41515" lon="3.47377">
        <ele>66.637395</ele>
        <time>2023-12-30T14:46:35.000Z</time>
      </trkpt>
      <trkpt lat="43.41517" lon="3.47376">
        <ele>66.718583</ele>
        <time>2023-12-30T14:46:36.000Z</time>
      </trkpt>
      <trkpt lat="43.41518" lon="3.47375">
        <ele>66.801524</ele>
        <time>2023-12-30T14:46:37.000Z</time>
      </trkpt>
      <trkpt lat="43.4152" lon="3.47375">
        <ele>66.876786</ele>
        <time>2023-12-30T14:46:38.000Z</time>
      </trkpt>
      <trkpt lat="43.41522" lon="3.47374">
        <ele>66.962756</ele>
        <time>2023-12-30T14:46:39.000Z</time>
      </trkpt>
      <trkpt lat="43.41524" lon="3.47373">
        <ele>67.032055</ele>
        <time>2023-12-30T14:46:40.000Z</time>
      </trkpt>
      <trkpt lat="43.41525" lon="3.47372">
        <ele>67.104587</ele>
        <time>2023-12-30T14:46:41.000Z</time>
      </trkpt>
      <trkpt lat="43.41527" lon="3.47372">
        <ele>67.175015</ele>
        <time>2023-12-30T14:46:42.000Z</time>
      </trkpt>
      <trkpt lat="43.41529" lon="3.47371">
        <ele>67.252223</ele>
        <time>2023-12-30T14:46:43.000Z</time>
      </trkpt>
      <trkpt lat="43.41531" lon="3.4737">
        <ele>67.337561</ele>
        <time>2023-12-30T14:46:44.000Z</time>
      </trkpt>
      <trkpt lat="43.41533" lon="3.47369">
        <ele>67.417683</ele>
        <time>2023-12-30T14:46:45.000Z</time>
      </trkpt>
      <trkpt lat="43.41535" lon="3.47368">
        <ele>67.501589</ele>
        <time>2023-12-30T14:46:46.000Z</time>
      </trkpt>
      <trkpt lat="43.41537" lon="3.47368">
        <ele>67.59012</ele>
        <time>2023-12-30T14:46:47.000Z</time>
      </trkpt>
      <trkpt lat="43.41539" lon="3.47367">
        <ele>67.679308</ele>
        <time>2023-12-30T14:46:48.000Z</time>
      </trkpt>
      <trkpt lat="43.41541" lon="3.47367">
        <ele>67.757965</ele>
        <time>2023-12-30T14:46:49.000Z</time>
      </trkpt>
      <trkpt lat="43.41543" lon="3.47367">
        <ele>67.840738</ele>
        <time>2023-12-30T14:46:50.000Z</time>
      </trkpt>
      <trkpt lat="43.41545" lon="3.47366">
        <ele>67.933613</ele>
        <time>2023-12-30T14:46:51.000Z</time>
      </trkpt>
      <trkpt lat="43.41547" lon="3.47365">
        <ele>68.051853</ele>
        <time>2023-12-30T14:46:52.000Z</time>
      </trkpt>
      <trkpt lat="43.41549" lon="3.47365">
        <ele>68.162859</ele>
        <time>2023-12-30T14:46:53.000Z</time>
      </trkpt>
      <trkpt lat="43.41552" lon="3.47365">
        <ele>68.273483</ele>
        <time>2023-12-30T14:46:54.000Z</time>
      </trkpt>
      <trkpt lat="43.41554" lon="3.47365">
        <ele>68.386273</ele>
        <time>2023-12-30T14:46:55.000Z</time>
      </trkpt>
      <trkpt lat="43.41557" lon="3.47364">
        <ele>68.515744</ele>
        <time>2023-12-30T14:46:56.000Z</time>
      </trkpt>
      <trkpt lat="43.41559" lon="3.47364">
        <ele>68.641449</ele>
        <time>2023-12-30T14:46:57.000Z</time>
      </trkpt>
      <trkpt lat="43.41562" lon="3.47364">
        <ele>68.765993</ele>
        <time>2023-12-30T14:46:58.000Z</time>
      </trkpt>
      <trkpt lat="43.41564" lon="3.47364">
        <ele>68.887506</ele>
        <time>2023-12-30T14:46:59.000Z</time>
      </trkpt>
      <trkpt lat="43.41567" lon="3.47366">
        <ele>69.018812</ele>
        <time>2023-12-30T14:47:00.000Z</time>
      </trkpt>
      <trkpt lat="43.41569" lon="3.47367">
        <ele>69.137864</ele>
        <time>2023-12-30T14:47:01.000Z</time>
      </trkpt>
      <trkpt lat="43.41571" lon="3.47368">
        <ele>69.243768</ele>
        <time>2023-12-30T14:47:02.000Z</time>
      </trkpt>
      <trkpt lat="43.41573" lon="3.47369">
        <ele>69.333712</ele>
        <time>2023-12-30T14:47:03.000Z</time>
      </trkpt>
      <trkpt lat="43.41575" lon="3.4737">
        <ele>69.426655</ele>
        <time>2023-12-30T14:47:04.000Z</time>
      </trkpt>
      <trkpt lat="43.41577" lon="3.47371">
        <ele>69.516599</ele>
        <time>2023-12-30T14:47:05.000Z</time>
      </trkpt>
      <trkpt lat="43.41578" lon="3.47372">
        <ele>69.611737</ele>
        <time>2023-12-30T14:47:06.000Z</time>
      </trkpt>
      <trkpt lat="43.4158" lon="3.47373">
        <ele>69.702306</ele>
        <time>2023-12-30T14:47:07.000Z</time>
      </trkpt>
      <trkpt lat="43.41582" lon="3.47373">
        <ele>69.794342</ele>
        <time>2023-12-30T14:47:08.000Z</time>
      </trkpt>
      <trkpt lat="43.41584" lon="3.47374">
        <ele>69.887285</ele>
        <time>2023-12-30T14:47:09.000Z</time>
      </trkpt>
      <trkpt lat="43.41586" lon="3.47375">
        <ele>69.971423</ele>
        <time>2023-12-30T14:47:10.000Z</time>
      </trkpt>
      <trkpt lat="43.41586" lon="3.47375">
        <ele>70.000153</ele>
        <time>2023-12-30T14:47:11.000Z</time>
      </trkpt>
      <trkpt lat="43.41586" lon="3.47375">
        <ele>70.010341</ele>
        <time>2023-12-30T14:47:12.000Z</time>
      </trkpt>
      <trkpt lat="43.41586" lon="3.47375">
        <ele>70.010341</ele>
        <time>2023-12-30T14:47:13.000Z</time>
      </trkpt>
      <trkpt lat="43.41586" lon="3.47375">
        <ele>70.010341</ele>
        <time>2023-12-30T14:47:14.000Z</time>
      </trkpt>
      <trkpt lat="43.41586" lon="3.47375">
        <ele>70.010341</ele>
        <time>2023-12-30T14:47:15.000Z</time>
      </trkpt>
      <trkpt lat="43.41586" lon="3.47375">
        <ele>70.010341</ele>
        <time>2023-12-30T14:47:16.000Z</time>
      </trkpt>
      <trkpt lat="43.41586" lon="3.47375">
        <ele>70.010341</ele>
        <time>2023-12-30T14:47:17.000Z</time>
      </trkpt>
      <trkpt lat="43.41586" lon="3.47375">
        <ele>70.010341</ele>
        <time>2023-12-30T14:47:18.000Z</time>
      </trkpt>
      <trkpt lat="43.41586" lon="3.47375">
        <ele>70.010341</ele>
        <time>2023-12-30T14:47:19.000Z</time>
      </trkpt>
      <trkpt lat="43.41586" lon="3.47375">
        <ele>70.010341</ele>
        <time>2023-12-30T14:47:20.000Z</time>
      </trkpt>
      <trkpt lat="43.41586" lon="3.47375">
        <ele>70.010341</ele>
        <time>2023-12-30T14:47:21.000Z</time>
      </trkpt>
      <trkpt lat="43.41586" lon="3.47375">
        <ele>70.010341</ele>
        <time>2023-12-30T14:47:22.000Z</time>
      </trkpt>
      <trkpt lat="43.41586" lon="3.47375">
        <ele>70.010341</ele>
        <time>2023-12-30T14:47:23.000Z</time>
      </trkpt>
      <trkpt lat="43.41586" lon="3.47375">
        <ele>70.010341</ele>
        <time>2023-12-30T14:47:24.000Z</time>
      </trkpt>
      <trkpt lat="43.41586" lon="3.47375">
        <ele>70.010341</ele>
        <time>2023-12-30T14:47:25.000Z</time>
      </trkpt>
      <trkpt lat="43.41586" lon="3.47375">
        <ele>70.010341</ele>
        <time>2023-12-30T14:47:26.000Z</time>
      </trkpt>
      <trkpt lat="43.41586" lon="3.47375">
        <ele>70.010341</ele>
        <time>2023-12-30T14:47:27.000Z</time>
      </trkpt>
      <trkpt lat="43.41586" lon="3.47375">
        <ele>70.010341</ele>
        <time>2023-12-30T14:47:28.000Z</time>
      </trkpt>
      <trkpt lat="43.41586" lon="3.47375">
        <ele>70.010341</ele>
        <time>2023-12-30T14:47:29.000Z</time>
      </trkpt>
      <trkpt lat="43.41586" lon="3.47375">
        <ele>70.010341</ele>
        <time>2023-12-30T14:47:30.000Z</time>
      </trkpt>
      <trkpt lat="43.41586" lon="3.47375">
        <ele>70.010341</ele>
        <time>2023-12-30T14:47:31.000Z</time>
      </trkpt>
      <trkpt lat="43.41586" lon="3.47375">
        <ele>70.010341</ele>
        <time>2023-12-30T14:47:32.000Z</time>
      </trkpt>
      <trkpt lat="43.41586" lon="3.47375">
        <ele>70.010341</ele>
        <time>2023-12-30T14:47:33.000Z</time>
      </trkpt>
      <trkpt lat="43.41586" lon="3.47375">
        <ele>70.010341</ele>
        <time>2023-12-30T14:47:34.000Z</time>
      </trkpt>
      <trkpt lat="43.41586" lon="3.47375">
        <ele>70.010341</ele>
        <time>2023-12-30T14:47:35.000Z</time>
      </trkpt>
      <trkpt lat="43.41586" lon="3.47375">
        <ele>70.010341</ele>
        <time>2023-12-30T14:47:36.000Z</time>
      </trkpt>
      <trkpt lat="43.41586" lon="3.47375">
        <ele>70.010341</ele>
        <time>2023-12-30T14:47:37.000Z</time>
      </trkpt>
      <trkpt lat="43.41586" lon="3.47375">
        <ele>70.010341</ele>
        <time>2023-12-30T14:47:38.000Z</time>
      </trkpt>
      <trkpt lat="43.41586" lon="3.47375">
        <ele>70.010341</ele>
        <time>2023-12-30T14:47:39.000Z</time>
      </trkpt>
      <trkpt lat="43.41586" lon="3.47375">
        <ele>70.010341</ele>
        <time>2023-12-30T14:47:40.000Z</time>
      </trkpt>
      <trkpt lat="43.41586" lon="3.47375">
        <ele>70.010341</ele>
        <time>2023-12-30T14:47:41.000Z</time>
      </trkpt>
      <trkpt lat="43.41586" lon="3.47375">
        <ele>70.010341</ele>
        <time>2023-12-30T14:47:42.000Z</time>
      </trkpt>
      <trkpt lat="43.41586" lon="3.47375">
        <ele>70.010341</ele>
        <time>2023-12-30T14:47:43.000Z</time>
      </trkpt>
      <trkpt lat="43.41586" lon="3.47375">
        <ele>70.010341</ele>
        <time>2023-12-30T14:47:44.000Z</time>
      </trkpt>
      <trkpt lat="43.41586" lon="3.47375">
        <ele>70.010341</ele>
        <time>2023-12-30T14:47:45.000Z</time>
      </trkpt>
      <trkpt lat="43.41586" lon="3.47375">
        <ele>70.010341</ele>
        <time>2023-12-30T14:47:46.000Z</time>
      </trkpt>
      <trkpt lat="43.41586" lon="3.47375">
        <ele>70.010341</ele>
        <time>2023-12-30T14:47:47.000Z</time>
      </trkpt>
      <trkpt lat="43.41586" lon="3.47375">
        <ele>70.010341</ele>
        <time>2023-12-30T14:47:48.000Z</time>
      </trkpt>
      <trkpt lat="43.41586" lon="3.47375">
        <ele>70.010341</ele>
        <time>2023-12-30T14:47:49.000Z</time>
      </trkpt>
      <trkpt lat="43.41586" lon="3.47375">
        <ele>70.010341</ele>
        <time>2023-12-30T14:47:50.000Z</time>
      </trkpt>
      <trkpt lat="43.41586" lon="3.47375">
        <ele>70.010341</ele>
        <time>2023-12-30T14:47:51.000Z</time>
      </trkpt>
      <trkpt lat="43.41586" lon="3.47375">
        <ele>70.010341</ele>
        <time>2023-12-30T14:47:52.000Z</time>
      </trkpt>
      <trkpt lat="43.41586" lon="3.47375">
        <ele>70.010341</ele>
        <time>2023-12-30T14:47:53.000Z</time>
      </trkpt>
      <trkpt lat="43.41586" lon="3.47375">
        <ele>70.010341</ele>
        <time>2023-12-30T14:47:54.000Z</time>
      </trkpt>
      <trkpt lat="43.41586" lon="3.47375">
        <ele>70.010341</ele>
        <time>2023-12-30T14:47:55.000Z</time>
      </trkpt>
      <trkpt lat="43.41586" lon="3.47375">
        <ele>70.010341</ele>
        <time>2023-12-30T14:47:56.000Z</time>
      </trkpt>
      <trkpt lat="43.41586" lon="3.47375">
        <ele>70.010341</ele>
        <time>2023-12-30T14:47:57.000Z</time>
      </trkpt>
      <trkpt lat="43.41586" lon="3.47375">
        <ele>70.010341</ele>
        <time>2023-12-30T14:47:58.000Z</time>
      </trkpt>
      <trkpt lat="43.41586" lon="3.47375">
        <ele>70.010341</ele>
        <time>2023-12-30T14:47:59.000Z</time>
      </trkpt>
      <trkpt lat="43.41586" lon="3.47375">
        <ele>70.010341</ele>
        <time>2023-12-30T14:48:00.000Z</time>
      </trkpt>
      <trkpt lat="43.41586" lon="3.47375">
        <ele>70.010341</ele>
        <time>2023-12-30T14:48:01.000Z</time>
      </trkpt>
      <trkpt lat="43.41586" lon="3.47375">
        <ele>70.010341</ele>
        <time>2023-12-30T14:48:02.000Z</time>
      </trkpt>
      <trkpt lat="43.41586" lon="3.47375">
        <ele>70.010341</ele>
        <time>2023-12-30T14:48:03.000Z</time>
      </trkpt>
      <trkpt lat="43.41586" lon="3.47375">
        <ele>70.010341</ele>
        <time>2023-12-30T14:48:04.000Z</time>
      </trkpt>
      <trkpt lat="43.41586" lon="3.47375">
        <ele>70.010341</ele>
        <time>2023-12-30T14:48:05.000Z</time>
      </trkpt>
      <trkpt lat="43.41586" lon="3.47375">
        <ele>70.010341</ele>
        <time>2023-12-30T14:48:06.000Z</time>
      </trkpt>
      <trkpt lat="43.41586" lon="3.47375">
        <ele>70.010341</ele>
        <time>2023-12-30T14:48:07.000Z</time>
      </trkpt>
      <trkpt lat="43.41586" lon="3.47375">
        <ele>70.010341</ele>
        <time>2023-12-30T14:48:08.000Z</time>
      </trkpt>
      <trkpt lat="43.41586" lon="3.47375">
        <ele>70.010341</ele>
        <time>2023-12-30T14:48:09.000Z</time>
      </trkpt>
      <trkpt lat="43.41586" lon="3.47375">
        <ele>70.010341</ele>
        <time>2023-12-30T14:48:10.000Z</time>
      </trkpt>
      <trkpt lat="43.41586" lon="3.47375">
        <ele>70.010341</ele>
        <time>2023-12-30T14:48:11.000Z</time>
      </trkpt>
      <trkpt lat="43.41586" lon="3.47375">
        <ele>70.010341</ele>
        <time>2023-12-30T14:48:12.000Z</time>
      </trkpt>
      <trkpt lat="43.41586" lon="3.47375">
        <ele>70.010341</ele>
        <time>2023-12-30T14:48:13.000Z</time>
      </trkpt>
      <trkpt lat="43.41586" lon="3.47375">
        <ele>70.010341</ele>
        <time>2023-12-30T14:48:14.000Z</time>
      </trkpt>
      <trkpt lat="43.41586" lon="3.47375">
        <ele>70.010341</ele>
        <time>2023-12-30T14:48:15.000Z</time>
      </trkpt>
      <trkpt lat="43.41586" lon="3.47375">
        <ele>70.010341</ele>
        <time>2023-12-30T14:48:16.000Z</time>
      </trkpt>
      <trkpt lat="43.41586" lon="3.47375">
        <ele>70.010341</ele>
        <time>2023-12-30T14:48:17.000Z</time>
      </trkpt>
      <trkpt lat="43.41586" lon="3.47375">
        <ele>70.010341</ele>
        <time>2023-12-30T14:48:18.000Z</time>
      </trkpt>
      <trkpt lat="43.41586" lon="3.47375">
        <ele>70.010341</ele>
        <time>2023-12-30T14:48:19.000Z</time>
      </trkpt>
      <trkpt lat="43.41586" lon="3.47375">
        <ele>70.010341</ele>
        <time>2023-12-30T14:48:20.000Z</time>
      </trkpt>
      <trkpt lat="43.41586" lon="3.47375">
        <ele>70.010341</ele>
        <time>2023-12-30T14:48:21.000Z</time>
      </trkpt>
      <trkpt lat="43.41586" lon="3.47375">
        <ele>70.010341</ele>
        <time>2023-12-30T14:48:22.000Z</time>
      </trkpt>
      <trkpt lat="43.41586" lon="3.47375">
        <ele>70.010341</ele>
        <time>2023-12-30T14:48:23.000Z</time>
      </trkpt>
      <trkpt lat="43.41586" lon="3.47375">
        <ele>70.010341</ele>
        <time>2023-12-30T14:48:24.000Z</time>
      </trkpt>
      <trkpt lat="43.41586" lon="3.47375">
        <ele>70.010341</ele>
        <time>2023-12-30T14:48:25.000Z</time>
      </trkpt>
      <trkpt lat="43.41586" lon="3.47375">
        <ele>70.010341</ele>
        <time>2023-12-30T14:48:26.000Z</time>
      </trkpt>
      <trkpt lat="43.41586" lon="3.47375">
        <ele>70.010341</ele>
        <time>2023-12-30T14:48:27.000Z</time>
      </trkpt>
      <trkpt lat="43.41586" lon="3.47375">
        <ele>70.010341</ele>
        <time>2023-12-30T14:48:28.000Z</time>
      </trkpt>
      <trkpt lat="43.41586" lon="3.47375">
        <ele>70.010341</ele>
        <time>2023-12-30T14:48:29.000Z</time>
      </trkpt>
      <trkpt lat="43.41586" lon="3.47375">
        <ele>70.010341</ele>
        <time>2023-12-30T14:48:30.000Z</time>
      </trkpt>
      <trkpt lat="43.41586" lon="3.47375">
        <ele>70.010341</ele>
        <time>2023-12-30T14:48:31.000Z</time>
      </trkpt>
      <trkpt lat="43.41586" lon="3.47375">
        <ele>70.010341</ele>
        <time>2023-12-30T14:48:32.000Z</time>
      </trkpt>
      <trkpt lat="43.41586" lon="3.47375">
        <ele>70.010341</ele>
        <time>2023-12-30T14:48:33.000Z</time>
      </trkpt>
      <trkpt lat="43.41586" lon="3.47375">
        <ele>70.010341</ele>
        <time>2023-12-30T14:48:34.000Z</time>
      </trkpt>
      <trkpt lat="43.41586" lon="3.47375">
        <ele>70.010341</ele>
        <time>2023-12-30T14:48:35.000Z</time>
      </trkpt>
      <trkpt lat="43.41586" lon="3.47375">
        <ele>70.010341</ele>
        <time>2023-12-30T14:48:36.000Z</time>
      </trkpt>
      <trkpt lat="43.41586" lon="3.47375">
        <ele>70.010341</ele>
        <time>2023-12-30T14:48:37.000Z</time>
      </trkpt>
      <trkpt lat="43.41586" lon="3.47375">
        <ele>70.010341</ele>
        <time>2023-12-30T14:48:38.000Z</time>
      </trkpt>
      <trkpt lat="43.41586" lon="3.47375">
        <ele>70.010341</ele>
        <time>2023-12-30T14:48:39.000Z</time>
      </trkpt>
      <trkpt lat="43.41586" lon="3.47375">
        <ele>70.010341</ele>
        <time>2023-12-30T14:48:40.000Z</time>
      </trkpt>
      <trkpt lat="43.41586" lon="3.47375">
        <ele>70.010341</ele>
        <time>2023-12-30T14:48:41.000Z</time>
      </trkpt>
      <trkpt lat="43.41586" lon="3.47375">
        <ele>70.010341</ele>
        <time>2023-12-30T14:48:42.000Z</time>
      </trkpt>
      <trkpt lat="43.41586" lon="3.47375">
        <ele>70.010341</ele>
        <time>2023-12-30T14:48:43.000Z</time>
      </trkpt>
      <trkpt lat="43.41586" lon="3.47375">
        <ele>70.010341</ele>
        <time>2023-12-30T14:48:44.000Z</time>
      </trkpt>
      <trkpt lat="43.41586" lon="3.47375">
        <ele>70.010341</ele>
        <time>2023-12-30T14:48:45.000Z</time>
      </trkpt>
      <trkpt lat="43.41586" lon="3.47375">
        <ele>70.010341</ele>
        <time>2023-12-30T14:48:46.000Z</time>
      </trkpt>
      <trkpt lat="43.41586" lon="3.47375">
        <ele>70.010341</ele>
        <time>2023-12-30T14:48:47.000Z</time>
      </trkpt>
      <trkpt lat="43.41586" lon="3.47375">
        <ele>70.010341</ele>
        <time>2023-12-30T14:48:48.000Z</time>
      </trkpt>
      <trkpt lat="43.41586" lon="3.47375">
        <ele>70.010341</ele>
        <time>2023-12-30T14:48:49.000Z</time>
      </trkpt>
      <trkpt lat="43.41586" lon="3.47375">
        <ele>70.010341</ele>
        <time>2023-12-30T14:48:50.000Z</time>
      </trkpt>
      <trkpt lat="43.41586" lon="3.47375">
        <ele>70.010341</ele>
        <time>2023-12-30T14:48:51.000Z</time>
      </trkpt>
      <trkpt lat="43.41586" lon="3.47375">
        <ele>70.010341</ele>
        <time>2023-12-30T14:48:52.000Z</time>
      </trkpt>
      <trkpt lat="43.41586" lon="3.47375">
        <ele>70.010341</ele>
        <time>2023-12-30T14:48:53.000Z</time>
      </trkpt>
      <trkpt lat="43.41586" lon="3.47375">
        <ele>70.010341</ele>
        <time>2023-12-30T14:48:54.000Z</time>
      </trkpt>
      <trkpt lat="43.41586" lon="3.47375">
        <ele>70.010341</ele>
        <time>2023-12-30T14:48:55.000Z</time>
      </trkpt>
      <trkpt lat="43.41586" lon="3.47375">
        <ele>70.010341</ele>
        <time>2023-12-30T14:48:56.000Z</time>
      </trkpt>
      <trkpt lat="43.41586" lon="3.47375">
        <ele>70.010341</ele>
        <time>2023-12-30T14:48:57.000Z</time>
      </trkpt>
      <trkpt lat="43.41586" lon="3.47375">
        <ele>70.010341</ele>
        <time>2023-12-30T14:48:58.000Z</time>
      </trkpt>
      <trkpt lat="43.41586" lon="3.47375">
        <ele>70.010341</ele>
        <time>2023-12-30T14:48:59.000Z</time>
      </trkpt>
      <trkpt lat="43.41586" lon="3.47375">
        <ele>70.010341</ele>
        <time>2023-12-30T14:49:00.000Z</time>
      </trkpt>
      <trkpt lat="43.41586" lon="3.47375">
        <ele>70.010341</ele>
        <time>2023-12-30T14:49:01.000Z</time>
      </trkpt>
      <trkpt lat="43.41586" lon="3.47375">
        <ele>70.010341</ele>
        <time>2023-12-30T14:49:02.000Z</time>
      </trkpt>
      <trkpt lat="43.41586" lon="3.47375">
        <ele>70.010341</ele>
        <time>2023-12-30T14:49:03.000Z</time>
      </trkpt>
      <trkpt lat="43.41586" lon="3.47375">
        <ele>70.010341</ele>
        <time>2023-12-30T14:49:04.000Z</time>
      </trkpt>
      <trkpt lat="43.41586" lon="3.47375">
        <ele>70.010341</ele>
        <time>2023-12-30T14:49:05.000Z</time>
      </trkpt>
      <trkpt lat="43.41586" lon="3.47375">
        <ele>70.010341</ele>
        <time>2023-12-30T14:49:06.000Z</time>
      </trkpt>
      <trkpt lat="43.41586" lon="3.47375">
        <ele>70.010341</ele>
        <time>2023-12-30T14:49:07.000Z</time>
      </trkpt>
      <trkpt lat="43.41586" lon="3.47375">
        <ele>70.010341</ele>
        <time>2023-12-30T14:49:08.000Z</time>
      </trkpt>
      <trkpt lat="43.41586" lon="3.47375">
        <ele>70.010341</ele>
        <time>2023-12-30T14:49:09.000Z</time>
      </trkpt>
      <trkpt lat="43.41586" lon="3.47375">
        <ele>70.01513</ele>
        <time>2023-12-30T14:49:10.000Z</time>
      </trkpt>
      <trkpt lat="43.41586" lon="3.47375">
        <ele>70.01513</ele>
        <time>2023-12-30T14:49:11.000Z</time>
      </trkpt>
      <trkpt lat="43.41586" lon="3.47375">
        <ele>70.01513</ele>
        <time>2023-12-30T14:49:12.000Z</time>
      </trkpt>
      <trkpt lat="43.41586" lon="3.47375">
        <ele>70.01513</ele>
        <time>2023-12-30T14:49:13.000Z</time>
      </trkpt>
      <trkpt lat="43.41586" lon="3.47375">
        <ele>70.019918</ele>
        <time>2023-12-30T14:49:14.000Z</time>
      </trkpt>
      <trkpt lat="43.41586" lon="3.47375">
        <ele>70.019918</ele>
        <time>2023-12-30T14:49:15.000Z</time>
      </trkpt>
      <trkpt lat="43.41586" lon="3.47375">
        <ele>70.019918</ele>
        <time>2023-12-30T14:49:16.000Z</time>
      </trkpt>
      <trkpt lat="43.41586" lon="3.47375">
        <ele>70.019918</ele>
        <time>2023-12-30T14:49:17.000Z</time>
      </trkpt>
      <trkpt lat="43.41586" lon="3.47375">
        <ele>70.019918</ele>
        <time>2023-12-30T14:49:18.000Z</time>
      </trkpt>
      <trkpt lat="43.41586" lon="3.47375">
        <ele>70.024706</ele>
        <time>2023-12-30T14:49:19.000Z</time>
      </trkpt>
      <trkpt lat="43.41586" lon="3.47375">
        <ele>70.024706</ele>
        <time>2023-12-30T14:49:20.000Z</time>
      </trkpt>
      <trkpt lat="43.41586" lon="3.47375">
        <ele>70.024706</ele>
        <time>2023-12-30T14:49:21.000Z</time>
      </trkpt>
      <trkpt lat="43.41586" lon="3.47375">
        <ele>70.030625</ele>
        <time>2023-12-30T14:49:22.000Z</time>
      </trkpt>
      <trkpt lat="43.41586" lon="3.47375">
        <ele>70.034103</ele>
        <time>2023-12-30T14:49:23.000Z</time>
      </trkpt>
      <trkpt lat="43.41586" lon="3.47375">
        <ele>70.05448</ele>
        <time>2023-12-30T14:49:24.000Z</time>
      </trkpt>
      <trkpt lat="43.41588" lon="3.47377">
        <ele>70.139426</ele>
        <time>2023-12-30T14:49:25.000Z</time>
      </trkpt>
      <trkpt lat="43.4159" lon="3.47378">
        <ele>70.231124</ele>
        <time>2023-12-30T14:49:26.000Z</time>
      </trkpt>
      <trkpt lat="43.41592" lon="3.47379">
        <ele>70.354618</ele>
        <time>2023-12-30T14:49:27.000Z</time>
      </trkpt>
      <trkpt lat="43.41595" lon="3.4738">
        <ele>70.498653</ele>
        <time>2023-12-30T14:49:28.000Z</time>
      </trkpt>
      <trkpt lat="43.41597" lon="3.47382">
        <ele>70.633639</ele>
        <time>2023-12-30T14:49:29.000Z</time>
      </trkpt>
      <trkpt lat="43.416" lon="3.47383">
        <ele>70.761207</ele>
        <time>2023-12-30T14:49:30.000Z</time>
      </trkpt>
      <trkpt lat="43.41602" lon="3.47384">
        <ele>70.873282</ele>
        <time>2023-12-30T14:49:31.000Z</time>
      </trkpt>
      <trkpt lat="43.41605" lon="3.47384">
        <ele>70.990752</ele>
        <time>2023-12-30T14:49:32.000Z</time>
      </trkpt>
      <trkpt lat="43.41608" lon="3.47385">
        <ele>71.130308</ele>
        <time>2023-12-30T14:49:33.000Z</time>
      </trkpt>
      <trkpt lat="43.41611" lon="3.47386">
        <ele>71.278108</ele>
        <time>2023-12-30T14:49:34.000Z</time>
      </trkpt>
      <trkpt lat="43.41613" lon="3.47387">
        <ele>71.415786</ele>
        <time>2023-12-30T14:49:35.000Z</time>
      </trkpt>
      <trkpt lat="43.41616" lon="3.47388">
        <ele>71.541459</ele>
        <time>2023-12-30T14:49:36.000Z</time>
      </trkpt>
      <trkpt lat="43.41618" lon="3.47389">
        <ele>71.663723</ele>
        <time>2023-12-30T14:49:37.000Z</time>
      </trkpt>
      <trkpt lat="43.41621" lon="3.4739">
        <ele>71.810874</ele>
        <time>2023-12-30T14:49:38.000Z</time>
      </trkpt>
      <trkpt lat="43.41624" lon="3.47392">
        <ele>71.966045</ele>
        <time>2023-12-30T14:49:39.000Z</time>
      </trkpt>
      <trkpt lat="43.41628" lon="3.47393">
        <ele>72.133282</ele>
        <time>2023-12-30T14:49:40.000Z</time>
      </trkpt>
      <trkpt lat="43.41631" lon="3.47393">
        <ele>72.29225</ele>
        <time>2023-12-30T14:49:41.000Z</time>
      </trkpt>
      <trkpt lat="43.41634" lon="3.47394">
        <ele>72.44184</ele>
        <time>2023-12-30T14:49:42.000Z</time>
      </trkpt>
      <trkpt lat="43.41637" lon="3.47396">
        <ele>72.581265</ele>
        <time>2023-12-30T14:49:43.000Z</time>
      </trkpt>
      <trkpt lat="43.4164" lon="3.47397">
        <ele>72.727796</ele>
        <time>2023-12-30T14:49:44.000Z</time>
      </trkpt>
      <trkpt lat="43.41642" lon="3.47399">
        <ele>72.86721</ele>
        <time>2023-12-30T14:49:45.000Z</time>
      </trkpt>
      <trkpt lat="43.41646" lon="3.474">
        <ele>73.035925</ele>
        <time>2023-12-30T14:49:46.000Z</time>
      </trkpt>
      <trkpt lat="43.41649" lon="3.47402">
        <ele>73.207201</ele>
        <time>2023-12-30T14:49:47.000Z</time>
      </trkpt>
      <trkpt lat="43.41653" lon="3.47404">
        <ele>73.39469</ele>
        <time>2023-12-30T14:49:48.000Z</time>
      </trkpt>
      <trkpt lat="43.41657" lon="3.47405">
        <ele>73.588585</ele>
        <time>2023-12-30T14:49:49.000Z</time>
      </trkpt>
      <trkpt lat="43.4166" lon="3.47407">
        <ele>73.768686</ele>
        <time>2023-12-30T14:49:50.000Z</time>
      </trkpt>
      <trkpt lat="43.41664" lon="3.47408">
        <ele>73.968699</ele>
        <time>2023-12-30T14:49:51.000Z</time>
      </trkpt>
      <trkpt lat="43.41668" lon="3.47409">
        <ele>74.147823</ele>
        <time>2023-12-30T14:49:52.000Z</time>
      </trkpt>
      <trkpt lat="43.41671" lon="3.47411">
        <ele>74.314227</ele>
        <time>2023-12-30T14:49:53.000Z</time>
      </trkpt>
      <trkpt lat="43.41675" lon="3.47412">
        <ele>74.48613</ele>
        <time>2023-12-30T14:49:54.000Z</time>
      </trkpt>
      <trkpt lat="43.41678" lon="3.47412">
        <ele>74.641277</ele>
        <time>2023-12-30T14:49:55.000Z</time>
      </trkpt>
      <trkpt lat="43.41681" lon="3.47413">
        <ele>74.7923</ele>
        <time>2023-12-30T14:49:56.000Z</time>
      </trkpt>
      <trkpt lat="43.41684" lon="3.47414">
        <ele>74.948691</ele>
        <time>2023-12-30T14:49:57.000Z</time>
      </trkpt>
      <trkpt lat="43.41687" lon="3.47415">
        <ele>75.088636</ele>
        <time>2023-12-30T14:49:58.000Z</time>
      </trkpt>
      <trkpt lat="43.4169" lon="3.47415">
        <ele>75.232957</ele>
        <time>2023-12-30T14:49:59.000Z</time>
      </trkpt>
      <trkpt lat="43.41693" lon="3.47415">
        <ele>75.371992</ele>
        <time>2023-12-30T14:50:00.000Z</time>
      </trkpt>
      <trkpt lat="43.41696" lon="3.47415">
        <ele>75.520796</ele>
        <time>2023-12-30T14:50:01.000Z</time>
      </trkpt>
      <trkpt lat="43.41699" lon="3.47414">
        <ele>75.655991</ele>
        <time>2023-12-30T14:50:02.000Z</time>
      </trkpt>
      <trkpt lat="43.41702" lon="3.47414">
        <ele>75.794896</ele>
        <time>2023-12-30T14:50:03.000Z</time>
      </trkpt>
      <trkpt lat="43.41705" lon="3.47414">
        <ele>75.9338</ele>
        <time>2023-12-30T14:50:04.000Z</time>
      </trkpt>
      <trkpt lat="43.41707" lon="3.47415">
        <ele>76.058732</ele>
        <time>2023-12-30T14:50:05.000Z</time>
      </trkpt>
      <trkpt lat="43.4171" lon="3.47414">
        <ele>76.17496</ele>
        <time>2023-12-30T14:50:06.000Z</time>
      </trkpt>
      <trkpt lat="43.41713" lon="3.47414">
        <ele>76.314212</ele>
        <time>2023-12-30T14:50:07.000Z</time>
      </trkpt>
      <trkpt lat="43.41715" lon="3.47414">
        <ele>76.414766</ele>
        <time>2023-12-30T14:50:08.000Z</time>
      </trkpt>
      <trkpt lat="43.41717" lon="3.47413">
        <ele>76.52555</ele>
        <time>2023-12-30T14:50:09.000Z</time>
      </trkpt>
      <trkpt lat="43.41719" lon="3.47413">
        <ele>76.637504</ele>
        <time>2023-12-30T14:50:10.000Z</time>
      </trkpt>
      <trkpt lat="43.41722" lon="3.47412">
        <ele>76.760974</ele>
        <time>2023-12-30T14:50:11.000Z</time>
      </trkpt>
      <trkpt lat="43.41725" lon="3.47411">
        <ele>76.884444</ele>
        <time>2023-12-30T14:50:12.000Z</time>
      </trkpt>
      <trkpt lat="43.41727" lon="3.4741">
        <ele>77.007037</ele>
        <time>2023-12-30T14:50:13.000Z</time>
      </trkpt>
      <trkpt lat="43.4173" lon="3.47409">
        <ele>77.126891</ele>
        <time>2023-12-30T14:50:14.000Z</time>
      </trkpt>
      <trkpt lat="43.41733" lon="3.47409">
        <ele>77.252739</ele>
        <time>2023-12-30T14:50:15.000Z</time>
      </trkpt>
      <trkpt lat="43.41736" lon="3.47409">
        <ele>77.377958</ele>
        <time>2023-12-30T14:50:16.000Z</time>
      </trkpt>
      <trkpt lat="43.41738" lon="3.47408">
        <ele>77.497061</ele>
        <time>2023-12-30T14:50:17.000Z</time>
      </trkpt>
      <trkpt lat="43.41741" lon="3.47407">
        <ele>77.613448</ele>
        <time>2023-12-30T14:50:18.000Z</time>
      </trkpt>
      <trkpt lat="43.41743" lon="3.47407">
        <ele>77.712655</ele>
        <time>2023-12-30T14:50:19.000Z</time>
      </trkpt>
      <trkpt lat="43.41745" lon="3.47406">
        <ele>77.817961</ele>
        <time>2023-12-30T14:50:20.000Z</time>
      </trkpt>
      <trkpt lat="43.41747" lon="3.47405">
        <ele>77.908836</ele>
        <time>2023-12-30T14:50:21.000Z</time>
      </trkpt>
      <trkpt lat="43.41749" lon="3.47405">
        <ele>78.004718</ele>
        <time>2023-12-30T14:50:22.000Z</time>
      </trkpt>
      <trkpt lat="43.41752" lon="3.47404">
        <ele>78.105664</ele>
        <time>2023-12-30T14:50:23.000Z</time>
      </trkpt>
      <trkpt lat="43.41754" lon="3.47403">
        <ele>78.222998</ele>
        <time>2023-12-30T14:50:24.000Z</time>
      </trkpt>
      <trkpt lat="43.41756" lon="3.47402">
        <ele>78.336082</ele>
        <time>2023-12-30T14:50:25.000Z</time>
      </trkpt>
      <trkpt lat="43.41759" lon="3.47401">
        <ele>78.455936</ele>
        <time>2023-12-30T14:50:26.000Z</time>
      </trkpt>
      <trkpt lat="43.41761" lon="3.474">
        <ele>78.56199</ele>
        <time>2023-12-30T14:50:27.000Z</time>
      </trkpt>
      <trkpt lat="43.41764" lon="3.47399">
        <ele>78.68359</ele>
        <time>2023-12-30T14:50:28.000Z</time>
      </trkpt>
      <trkpt lat="43.41767" lon="3.47398">
        <ele>78.806418</ele>
        <time>2023-12-30T14:50:29.000Z</time>
      </trkpt>
      <trkpt lat="43.41769" lon="3.47397">
        <ele>78.922805</ele>
        <time>2023-12-30T14:50:30.000Z</time>
      </trkpt>
      <trkpt lat="43.41771" lon="3.47397">
        <ele>79.027458</ele>
        <time>2023-12-30T14:50:31.000Z</time>
      </trkpt>
      <trkpt lat="43.41773" lon="3.47396">
        <ele>79.118968</ele>
        <time>2023-12-30T14:50:32.000Z</time>
      </trkpt>
      <trkpt lat="43.41775" lon="3.47395">
        <ele>79.206898</ele>
        <time>2023-12-30T14:50:33.000Z</time>
      </trkpt>
      <trkpt lat="43.41778" lon="3.47395">
        <ele>79.309502</ele>
        <time>2023-12-30T14:50:34.000Z</time>
      </trkpt>
      <trkpt lat="43.4178" lon="3.47394">
        <ele>79.429355</ele>
        <time>2023-12-30T14:50:35.000Z</time>
      </trkpt>
      <trkpt lat="43.41783" lon="3.47393">
        <ele>79.545998</ele>
        <time>2023-12-30T14:50:36.000Z</time>
      </trkpt>
      <trkpt lat="43.41785" lon="3.47393">
        <ele>79.655047</ele>
        <time>2023-12-30T14:50:37.000Z</time>
      </trkpt>
      <trkpt lat="43.41788" lon="3.47392">
        <ele>79.772904</ele>
        <time>2023-12-30T14:50:38.000Z</time>
      </trkpt>
      <trkpt lat="43.4179" lon="3.47391">
        <ele>79.885988</ele>
        <time>2023-12-30T14:50:39.000Z</time>
      </trkpt>
      <trkpt lat="43.41792" lon="3.4739">
        <ele>79.981114</ele>
        <time>2023-12-30T14:50:40.000Z</time>
      </trkpt>
      <trkpt lat="43.41794" lon="3.4739">
        <ele>80.066612</ele>
        <time>2023-12-30T14:50:41.000Z</time>
      </trkpt>
      <trkpt lat="43.41796" lon="3.47389">
        <ele>80.155437</ele>
        <time>2023-12-30T14:50:42.000Z</time>
      </trkpt>
      <trkpt lat="43.41798" lon="3.47388">
        <ele>80.270181</ele>
        <time>2023-12-30T14:50:43.000Z</time>
      </trkpt>
      <trkpt lat="43.41801" lon="3.47387">
        <ele>80.371908</ele>
        <time>2023-12-30T14:50:44.000Z</time>
      </trkpt>
      <trkpt lat="43.41803" lon="3.47387">
        <ele>80.472172</ele>
        <time>2023-12-30T14:50:45.000Z</time>
      </trkpt>
      <trkpt lat="43.41805" lon="3.47386">
        <ele>80.580001</ele>
        <time>2023-12-30T14:50:46.000Z</time>
      </trkpt>
      <trkpt lat="43.41807" lon="3.47385">
        <ele>80.681727</ele>
        <time>2023-12-30T14:50:47.000Z</time>
      </trkpt>
      <trkpt lat="43.41809" lon="3.47384">
        <ele>80.77761</ele>
        <time>2023-12-30T14:50:48.000Z</time>
      </trkpt>
      <trkpt lat="43.41812" lon="3.47384">
        <ele>80.880894</ele>
        <time>2023-12-30T14:50:49.000Z</time>
      </trkpt>
      <trkpt lat="43.41814" lon="3.47384">
        <ele>80.980101</ele>
        <time>2023-12-30T14:50:50.000Z</time>
      </trkpt>
      <trkpt lat="43.41816" lon="3.47384">
        <ele>81.087592</ele>
        <time>2023-12-30T14:50:51.000Z</time>
      </trkpt>
      <trkpt lat="43.41818" lon="3.47384">
        <ele>81.181979</ele>
        <time>2023-12-30T14:50:52.000Z</time>
      </trkpt>
      <trkpt lat="43.41821" lon="3.47383">
        <ele>81.291028</ele>
        <time>2023-12-30T14:50:53.000Z</time>
      </trkpt>
      <trkpt lat="43.41824" lon="3.47383">
        <ele>81.41243</ele>
        <time>2023-12-30T14:50:54.000Z</time>
      </trkpt>
      <trkpt lat="43.41826" lon="3.47383">
        <ele>81.537775</ele>
        <time>2023-12-30T14:50:55.000Z</time>
      </trkpt>
      <trkpt lat="43.41829" lon="3.47382">
        <ele>81.650714</ele>
        <time>2023-12-30T14:50:56.000Z</time>
      </trkpt>
      <trkpt lat="43.41831" lon="3.47382">
        <ele>81.759229</ele>
        <time>2023-12-30T14:50:57.000Z</time>
      </trkpt>
      <trkpt lat="43.41833" lon="3.47381">
        <ele>81.84917</ele>
        <time>2023-12-30T14:50:58.000Z</time>
      </trkpt>
      <trkpt lat="43.41835" lon="3.47381">
        <ele>81.939521</ele>
        <time>2023-12-30T14:50:59.000Z</time>
      </trkpt>
      <trkpt lat="43.41837" lon="3.4738">
        <ele>82.040466</ele>
        <time>2023-12-30T14:51:00.000Z</time>
      </trkpt>
      <trkpt lat="43.41839" lon="3.4738">
        <ele>82.130817</ele>
        <time>2023-12-30T14:51:01.000Z</time>
      </trkpt>
      <trkpt lat="43.41842" lon="3.47379">
        <ele>82.228227</ele>
        <time>2023-12-30T14:51:02.000Z</time>
      </trkpt>
      <trkpt lat="43.41844" lon="3.47378">
        <ele>82.329173</ele>
        <time>2023-12-30T14:51:03.000Z</time>
      </trkpt>
      <trkpt lat="43.41846" lon="3.47378">
        <ele>82.432048</ele>
        <time>2023-12-30T14:51:04.000Z</time>
      </trkpt>
      <trkpt lat="43.41848" lon="3.47378">
        <ele>82.541723</ele>
        <time>2023-12-30T14:51:05.000Z</time>
      </trkpt>
      <trkpt lat="43.41851" lon="3.47377">
        <ele>82.650239</ele>
        <time>2023-12-30T14:51:06.000Z</time>
      </trkpt>
      <trkpt lat="43.41853" lon="3.47377">
        <ele>82.762192</ele>
        <time>2023-12-30T14:51:07.000Z</time>
      </trkpt>
      <trkpt lat="43.41855" lon="3.47377">
        <ele>82.856299</ele>
        <time>2023-12-30T14:51:08.000Z</time>
      </trkpt>
      <trkpt lat="43.41858" lon="3.47376">
        <ele>82.972942</ele>
        <time>2023-12-30T14:51:09.000Z</time>
      </trkpt>
      <trkpt lat="43.4186" lon="3.47376">
        <ele>83.080286</ele>
        <time>2023-12-30T14:51:10.000Z</time>
      </trkpt>
      <trkpt lat="43.41863" lon="3.47377">
        <ele>83.174393</ele>
        <time>2023-12-30T14:51:11.000Z</time>
      </trkpt>
      <trkpt lat="43.41865" lon="3.47377">
        <ele>83.281736</ele>
        <time>2023-12-30T14:51:12.000Z</time>
      </trkpt>
      <trkpt lat="43.41867" lon="3.47376">
        <ele>83.385377</ele>
        <time>2023-12-30T14:51:13.000Z</time>
      </trkpt>
      <trkpt lat="43.4187" lon="3.47376">
        <ele>83.488661</ele>
        <time>2023-12-30T14:51:14.000Z</time>
      </trkpt>
      <trkpt lat="43.41872" lon="3.47376">
        <ele>83.578132</ele>
        <time>2023-12-30T14:51:15.000Z</time>
      </trkpt>
      <trkpt lat="43.41874" lon="3.47376">
        <ele>83.668073</ele>
        <time>2023-12-30T14:51:16.000Z</time>
      </trkpt>
      <trkpt lat="43.41875" lon="3.47376">
        <ele>83.739897</ele>
        <time>2023-12-30T14:51:17.000Z</time>
      </trkpt>
      <trkpt lat="43.41877" lon="3.47375">
        <ele>83.812086</ele>
        <time>2023-12-30T14:51:18.000Z</time>
      </trkpt>
      <trkpt lat="43.41879" lon="3.47375">
        <ele>83.903596</ele>
        <time>2023-12-30T14:51:19.000Z</time>
      </trkpt>
      <trkpt lat="43.41881" lon="3.47375">
        <ele>83.988786</ele>
        <time>2023-12-30T14:51:20.000Z</time>
      </trkpt>
      <trkpt lat="43.41882" lon="3.47374">
        <ele>84.070878</ele>
        <time>2023-12-30T14:51:21.000Z</time>
      </trkpt>
      <trkpt lat="43.41885" lon="3.47374">
        <ele>84.164985</ele>
        <time>2023-12-30T14:51:22.000Z</time>
      </trkpt>
      <trkpt lat="43.41887" lon="3.47374">
        <ele>84.254632</ele>
        <time>2023-12-30T14:51:23.000Z</time>
      </trkpt>
      <trkpt lat="43.41889" lon="3.47374">
        <ele>84.344103</ele>
        <time>2023-12-30T14:51:24.000Z</time>
      </trkpt>
      <trkpt lat="43.41891" lon="3.47374">
        <ele>84.44267</ele>
        <time>2023-12-30T14:51:25.000Z</time>
      </trkpt>
      <trkpt lat="43.41893" lon="3.47374">
        <ele>84.536609</ele>
        <time>2023-12-30T14:51:26.000Z</time>
      </trkpt>
      <trkpt lat="43.41895" lon="3.47374">
        <ele>84.584357</ele>
        <time>2023-12-30T14:51:27.000Z</time>
      </trkpt>
      <trkpt lat="43.41897" lon="3.47374">
        <ele>84.632366</ele>
        <time>2023-12-30T14:51:28.000Z</time>
      </trkpt>
      <trkpt lat="43.419" lon="3.47374">
        <ele>84.684338</ele>
        <time>2023-12-30T14:51:29.000Z</time>
      </trkpt>
      <trkpt lat="43.41902" lon="3.47374">
        <ele>84.728211</ele>
        <time>2023-12-30T14:51:30.000Z</time>
      </trkpt>
      <trkpt lat="43.41904" lon="3.47374">
        <ele>84.770017</ele>
        <time>2023-12-30T14:51:31.000Z</time>
      </trkpt>
      <trkpt lat="43.41906" lon="3.47373">
        <ele>84.813296</ele>
        <time>2023-12-30T14:51:32.000Z</time>
      </trkpt>
      <trkpt lat="43.41907" lon="3.47373">
        <ele>84.847756</ele>
        <time>2023-12-30T14:51:33.000Z</time>
      </trkpt>
      <trkpt lat="43.41909" lon="3.47372">
        <ele>84.89251</ele>
        <time>2023-12-30T14:51:34.000Z</time>
      </trkpt>
      <trkpt lat="43.41912" lon="3.47372">
        <ele>84.938227</ele>
        <time>2023-12-30T14:51:35.000Z</time>
      </trkpt>
      <trkpt lat="43.41914" lon="3.47372">
        <ele>84.990723</ele>
        <time>2023-12-30T14:51:36.000Z</time>
      </trkpt>
      <trkpt lat="43.41916" lon="3.47372">
        <ele>85.036539</ele>
        <time>2023-12-30T14:51:37.000Z</time>
      </trkpt>
      <trkpt lat="43.41918" lon="3.47371">
        <ele>85.077046</ele>
        <time>2023-12-30T14:51:38.000Z</time>
      </trkpt>
      <trkpt lat="43.4192" lon="3.47371">
        <ele>85.111933</ele>
        <time>2023-12-30T14:51:39.000Z</time>
      </trkpt>
      <trkpt lat="43.41922" lon="3.4737">
        <ele>85.150801</ele>
        <time>2023-12-30T14:51:40.000Z</time>
      </trkpt>
      <trkpt lat="43.41924" lon="3.47369">
        <ele>85.200922</ele>
        <time>2023-12-30T14:51:41.000Z</time>
      </trkpt>
      <trkpt lat="43.41927" lon="3.47368">
        <ele>85.257534</ele>
        <time>2023-12-30T14:51:42.000Z</time>
      </trkpt>
      <trkpt lat="43.41929" lon="3.47369">
        <ele>85.307429</ele>
        <time>2023-12-30T14:51:43.000Z</time>
      </trkpt>
      <trkpt lat="43.41931" lon="3.47368">
        <ele>85.353765</ele>
        <time>2023-12-30T14:51:44.000Z</time>
      </trkpt>
      <trkpt lat="43.41933" lon="3.47367">
        <ele>85.396647</ele>
        <time>2023-12-30T14:51:45.000Z</time>
      </trkpt>
      <trkpt lat="43.41935" lon="3.47367">
        <ele>85.433116</ele>
        <time>2023-12-30T14:51:46.000Z</time>
      </trkpt>
      <trkpt lat="43.41937" lon="3.47366">
        <ele>85.475112</ele>
        <time>2023-12-30T14:51:47.000Z</time>
      </trkpt>
      <trkpt lat="43.41939" lon="3.47366">
        <ele>85.521448</ele>
        <time>2023-12-30T14:51:48.000Z</time>
      </trkpt>
      <trkpt lat="43.41942" lon="3.47365">
        <ele>85.573943</ele>
        <time>2023-12-30T14:51:49.000Z</time>
      </trkpt>
      <trkpt lat="43.41944" lon="3.47365">
        <ele>85.634508</ele>
        <time>2023-12-30T14:51:50.000Z</time>
      </trkpt>
      <trkpt lat="43.41947" lon="3.47365">
        <ele>85.690938</ele>
        <time>2023-12-30T14:51:51.000Z</time>
      </trkpt>
      <trkpt lat="43.4195" lon="3.47364">
        <ele>85.745303</ele>
        <time>2023-12-30T14:51:52.000Z</time>
      </trkpt>
      <trkpt lat="43.41953" lon="3.47364">
        <ele>85.805867</ele>
        <time>2023-12-30T14:51:53.000Z</time>
      </trkpt>
      <trkpt lat="43.41955" lon="3.47363">
        <ele>85.858601</ele>
        <time>2023-12-30T14:51:54.000Z</time>
      </trkpt>
      <trkpt lat="43.41957" lon="3.47363">
        <ele>85.902474</ele>
        <time>2023-12-30T14:51:55.000Z</time>
      </trkpt>
      <trkpt lat="43.4196" lon="3.47363">
        <ele>85.950292</ele>
        <time>2023-12-30T14:51:56.000Z</time>
      </trkpt>
      <trkpt lat="43.41962" lon="3.47363">
        <ele>86.000188</ele>
        <time>2023-12-30T14:51:57.000Z</time>
      </trkpt>
      <trkpt lat="43.41964" lon="3.47363">
        <ele>86.045929</ele>
        <time>2023-12-30T14:51:58.000Z</time>
      </trkpt>
      <trkpt lat="43.41966" lon="3.47363">
        <ele>86.081288</ele>
        <time>2023-12-30T14:51:59.000Z</time>
      </trkpt>
      <trkpt lat="43.41968" lon="3.47363">
        <ele>86.122958</ele>
        <time>2023-12-30T14:52:00.000Z</time>
      </trkpt>
      <trkpt lat="43.41976" lon="3.47375">
        <ele>86.474186</ele>
        <time>2023-12-30T14:52:10.000Z</time>
      </trkpt>
      <trkpt lat="43.41977" lon="3.47379">
        <ele>86.522886</ele>
        <time>2023-12-30T14:52:11.000Z</time>
      </trkpt>
      <trkpt lat="43.41977" lon="3.47382">
        <ele>86.572695</ele>
        <time>2023-12-30T14:52:12.000Z</time>
      </trkpt>
      <trkpt lat="43.41976" lon="3.47385">
        <ele>86.625888</ele>
        <time>2023-12-30T14:52:13.000Z</time>
      </trkpt>
      <trkpt lat="43.41976" lon="3.4739">
        <ele>86.690923</ele>
        <time>2023-12-30T14:52:14.000Z</time>
      </trkpt>
      <trkpt lat="43.41976" lon="3.47394">
        <ele>86.758494</ele>
        <time>2023-12-30T14:52:15.000Z</time>
      </trkpt>
      <trkpt lat="43.41975" lon="3.47399">
        <ele>86.830521</ele>
        <time>2023-12-30T14:52:16.000Z</time>
      </trkpt>
      <trkpt lat="43.41974" lon="3.47404">
        <ele>86.907798</ele>
        <time>2023-12-30T14:52:17.000Z</time>
      </trkpt>
      <trkpt lat="43.41973" lon="3.47409">
        <ele>86.986074</ele>
        <time>2023-12-30T14:52:18.000Z</time>
      </trkpt>
      <trkpt lat="43.41972" lon="3.47414">
        <ele>87.074809</ele>
        <time>2023-12-30T14:52:19.000Z</time>
      </trkpt>
      <trkpt lat="43.41971" lon="3.4742">
        <ele>87.157161</ele>
        <time>2023-12-30T14:52:20.000Z</time>
      </trkpt>
      <trkpt lat="43.41969" lon="3.47425">
        <ele>87.24384</ele>
        <time>2023-12-30T14:52:21.000Z</time>
      </trkpt>
      <trkpt lat="43.41968" lon="3.4743">
        <ele>87.325587</ele>
        <time>2023-12-30T14:52:22.000Z</time>
      </trkpt>
      <trkpt lat="43.41967" lon="3.47436">
        <ele>87.417031</ele>
        <time>2023-12-30T14:52:23.000Z</time>
      </trkpt>
      <trkpt lat="43.41967" lon="3.47442">
        <ele>87.500976</ele>
        <time>2023-12-30T14:52:24.000Z</time>
      </trkpt>
      <trkpt lat="43.41966" lon="3.47447">
        <ele>87.583768</ele>
        <time>2023-12-30T14:52:25.000Z</time>
      </trkpt>
      <trkpt lat="43.41966" lon="3.47453">
        <ele>87.665933</ele>
        <time>2023-12-30T14:52:26.000Z</time>
      </trkpt>
      <trkpt lat="43.41966" lon="3.47458">
        <ele>87.745955</ele>
        <time>2023-12-30T14:52:27.000Z</time>
      </trkpt>
      <trkpt lat="43.41967" lon="3.47463">
        <ele>87.826639</ele>
        <time>2023-12-30T14:52:28.000Z</time>
      </trkpt>
      <trkpt lat="43.41969" lon="3.47467">
        <ele>87.906026</ele>
        <time>2023-12-30T14:52:29.000Z</time>
      </trkpt>
      <trkpt lat="43.41971" lon="3.47471">
        <ele>87.980058</ele>
        <time>2023-12-30T14:52:30.000Z</time>
      </trkpt>
      <trkpt lat="43.41974" lon="3.47473">
        <ele>88.05069</ele>
        <time>2023-12-30T14:52:31.000Z</time>
      </trkpt>
      <trkpt lat="43.41978" lon="3.47475">
        <ele>88.122523</ele>
        <time>2023-12-30T14:52:32.000Z</time>
      </trkpt>
      <trkpt lat="43.41981" lon="3.47476">
        <ele>88.20161</ele>
        <time>2023-12-30T14:52:33.000Z</time>
      </trkpt>
      <trkpt lat="43.41985" lon="3.47477">
        <ele>88.280269</ele>
        <time>2023-12-30T14:52:34.000Z</time>
      </trkpt>
      <trkpt lat="43.41989" lon="3.47477">
        <ele>88.294951</ele>
        <time>2023-12-30T14:52:35.000Z</time>
      </trkpt>
      <trkpt lat="43.41992" lon="3.47477">
        <ele>88.305722</ele>
        <time>2023-12-30T14:52:36.000Z</time>
      </trkpt>
      <trkpt lat="43.41996" lon="3.47476">
        <ele>88.316072</ele>
        <time>2023-12-30T14:52:37.000Z</time>
      </trkpt>
      <trkpt lat="43.42" lon="3.47474">
        <ele>88.327102</ele>
        <time>2023-12-30T14:52:38.000Z</time>
      </trkpt>
      <trkpt lat="43.42004" lon="3.47472">
        <ele>88.337615</ele>
        <time>2023-12-30T14:52:39.000Z</time>
      </trkpt>
      <trkpt lat="43.42007" lon="3.47472">
        <ele>88.34723</ele>
        <time>2023-12-30T14:52:40.000Z</time>
      </trkpt>
      <trkpt lat="43.42011" lon="3.47474">
        <ele>88.357885</ele>
        <time>2023-12-30T14:52:41.000Z</time>
      </trkpt>
      <trkpt lat="43.42012" lon="3.47478">
        <ele>88.367164</ele>
        <time>2023-12-30T14:52:42.000Z</time>
      </trkpt>
      <trkpt lat="43.42012" lon="3.47483">
        <ele>88.376571</ele>
        <time>2023-12-30T14:52:43.000Z</time>
      </trkpt>
      <trkpt lat="43.42011" lon="3.47488">
        <ele>88.386971</ele>
        <time>2023-12-30T14:52:44.000Z</time>
      </trkpt>
      <trkpt lat="43.42009" lon="3.47492">
        <ele>88.397388</ele>
        <time>2023-12-30T14:52:45.000Z</time>
      </trkpt>
      <trkpt lat="43.42007" lon="3.47498">
        <ele>88.408943</ele>
        <time>2023-12-30T14:52:46.000Z</time>
      </trkpt>
      <trkpt lat="43.42005" lon="3.47503">
        <ele>88.420322</ele>
        <time>2023-12-30T14:52:47.000Z</time>
      </trkpt>
      <trkpt lat="43.42003" lon="3.47508">
        <ele>88.431806</ele>
        <time>2023-12-30T14:52:48.000Z</time>
      </trkpt>
      <trkpt lat="43.42001" lon="3.47513">
        <ele>88.443843</ele>
        <time>2023-12-30T14:52:49.000Z</time>
      </trkpt>
      <trkpt lat="43.41999" lon="3.47518">
        <ele>88.455147</ele>
        <time>2023-12-30T14:52:50.000Z</time>
      </trkpt>
      <trkpt lat="43.41997" lon="3.47524">
        <ele>88.467359</ele>
        <time>2023-12-30T14:52:51.000Z</time>
      </trkpt>
      <trkpt lat="43.41995" lon="3.47529">
        <ele>88.479046</ele>
        <time>2023-12-30T14:52:52.000Z</time>
      </trkpt>
      <trkpt lat="43.41993" lon="3.47533">
        <ele>88.490194</ele>
        <time>2023-12-30T14:52:53.000Z</time>
      </trkpt>
      <trkpt lat="43.4199" lon="3.47538">
        <ele>88.501485</ele>
        <time>2023-12-30T14:52:54.000Z</time>
      </trkpt>
      <trkpt lat="43.41988" lon="3.47543">
        <ele>88.512784</ele>
        <time>2023-12-30T14:52:55.000Z</time>
      </trkpt>
      <trkpt lat="43.41986" lon="3.47547">
        <ele>88.523955</ele>
        <time>2023-12-30T14:52:56.000Z</time>
      </trkpt>
      <trkpt lat="43.41984" lon="3.47553">
        <ele>88.535781</ele>
        <time>2023-12-30T14:52:57.000Z</time>
      </trkpt>
      <trkpt lat="43.41981" lon="3.47558">
        <ele>88.547729</ele>
        <time>2023-12-30T14:52:58.000Z</time>
      </trkpt>
      <trkpt lat="43.41979" lon="3.47563">
        <ele>88.559417</ele>
        <time>2023-12-30T14:52:59.000Z</time>
      </trkpt>
      <trkpt lat="43.41977" lon="3.47568">
        <ele>88.571048</ele>
        <time>2023-12-30T14:53:00.000Z</time>
      </trkpt>
      <trkpt lat="43.41975" lon="3.47573">
        <ele>88.582703</ele>
        <time>2023-12-30T14:53:01.000Z</time>
      </trkpt>
      <trkpt lat="43.41972" lon="3.47577">
        <ele>88.594001</ele>
        <time>2023-12-30T14:53:02.000Z</time>
      </trkpt>
      <trkpt lat="43.4197" lon="3.47582">
        <ele>88.605486</ele>
        <time>2023-12-30T14:53:03.000Z</time>
      </trkpt>
      <trkpt lat="43.41968" lon="3.47586">
        <ele>88.615037</ele>
        <time>2023-12-30T14:53:04.000Z</time>
      </trkpt>
      <trkpt lat="43.41966" lon="3.4759">
        <ele>88.62536</ele>
        <time>2023-12-30T14:53:05.000Z</time>
      </trkpt>
      <trkpt lat="43.41964" lon="3.47595">
        <ele>88.637309</ele>
        <time>2023-12-30T14:53:06.000Z</time>
      </trkpt>
      <trkpt lat="43.41961" lon="3.47601">
        <ele>88.650559</ele>
        <time>2023-12-30T14:53:07.000Z</time>
      </trkpt>
      <trkpt lat="43.41959" lon="3.47606">
        <ele>88.663158</ele>
        <time>2023-12-30T14:53:08.000Z</time>
      </trkpt>
      <trkpt lat="43.41956" lon="3.47612">
        <ele>88.675296</ele>
        <time>2023-12-30T14:53:09.000Z</time>
      </trkpt>
      <trkpt lat="43.41954" lon="3.47617">
        <ele>88.687095</ele>
        <time>2023-12-30T14:53:10.000Z</time>
      </trkpt>
      <trkpt lat="43.41952" lon="3.47622">
        <ele>88.69875</ele>
        <time>2023-12-30T14:53:11.000Z</time>
      </trkpt>
      <trkpt lat="43.4195" lon="3.47626">
        <ele>88.709883</ele>
        <time>2023-12-30T14:53:12.000Z</time>
      </trkpt>
      <trkpt lat="43.41947" lon="3.47631">
        <ele>88.721822</ele>
        <time>2023-12-30T14:53:13.000Z</time>
      </trkpt>
      <trkpt lat="43.41945" lon="3.47636">
        <ele>88.733923</ele>
        <time>2023-12-30T14:53:14.000Z</time>
      </trkpt>
      <trkpt lat="43.41942" lon="3.47641">
        <ele>88.745578</ele>
        <time>2023-12-30T14:53:15.000Z</time>
      </trkpt>
      <trkpt lat="43.4194" lon="3.47646">
        <ele>88.756725</ele>
        <time>2023-12-30T14:53:16.000Z</time>
      </trkpt>
      <trkpt lat="43.41938" lon="3.4765">
        <ele>88.766967</ele>
        <time>2023-12-30T14:53:17.000Z</time>
      </trkpt>
      <trkpt lat="43.41937" lon="3.47655">
        <ele>88.777035</ele>
        <time>2023-12-30T14:53:18.000Z</time>
      </trkpt>
      <trkpt lat="43.41935" lon="3.47659">
        <ele>88.68618</ele>
        <time>2023-12-30T14:53:19.000Z</time>
      </trkpt>
      <trkpt lat="43.41933" lon="3.47663">
        <ele>88.576693</ele>
        <time>2023-12-30T14:53:20.000Z</time>
      </trkpt>
      <trkpt lat="43.41931" lon="3.47668">
        <ele>88.454593</ele>
        <time>2023-12-30T14:53:21.000Z</time>
      </trkpt>
      <trkpt lat="43.41929" lon="3.47673">
        <ele>88.322964</ele>
        <time>2023-12-30T14:53:22.000Z</time>
      </trkpt>
      <trkpt lat="43.41927" lon="3.47677">
        <ele>88.208213</ele>
        <time>2023-12-30T14:53:23.000Z</time>
      </trkpt>
      <trkpt lat="43.41925" lon="3.47681">
        <ele>88.084168</ele>
        <time>2023-12-30T14:53:24.000Z</time>
      </trkpt>
      <trkpt lat="43.41923" lon="3.47685">
        <ele>87.967662</ele>
        <time>2023-12-30T14:53:25.000Z</time>
      </trkpt>
      <trkpt lat="43.41921" lon="3.47689">
        <ele>87.870089</ele>
        <time>2023-12-30T14:53:26.000Z</time>
      </trkpt>
      <trkpt lat="43.41919" lon="3.47692">
        <ele>87.764487</ele>
        <time>2023-12-30T14:53:27.000Z</time>
      </trkpt>
      <trkpt lat="43.41917" lon="3.47696">
        <ele>87.661284</ele>
        <time>2023-12-30T14:53:28.000Z</time>
      </trkpt>
      <trkpt lat="43.41915" lon="3.47699">
        <ele>87.550549</ele>
        <time>2023-12-30T14:53:29.000Z</time>
      </trkpt>
      <trkpt lat="43.41912" lon="3.47703">
        <ele>87.439358</ele>
        <time>2023-12-30T14:53:30.000Z</time>
      </trkpt>
      <trkpt lat="43.41909" lon="3.47707">
        <ele>87.316222</ele>
        <time>2023-12-30T14:53:31.000Z</time>
      </trkpt>
      <trkpt lat="43.41907" lon="3.4771">
        <ele>87.195589</ele>
        <time>2023-12-30T14:53:32.000Z</time>
      </trkpt>
      <trkpt lat="43.41905" lon="3.47714">
        <ele>87.077045</ele>
        <time>2023-12-30T14:53:33.000Z</time>
      </trkpt>
      <trkpt lat="43.41902" lon="3.47718">
        <ele>86.948697</ele>
        <time>2023-12-30T14:53:34.000Z</time>
      </trkpt>
      <trkpt lat="43.41899" lon="3.47722">
        <ele>86.824779</ele>
        <time>2023-12-30T14:53:35.000Z</time>
      </trkpt>
      <trkpt lat="43.41896" lon="3.47726">
        <ele>86.703144</ele>
        <time>2023-12-30T14:53:36.000Z</time>
      </trkpt>
      <trkpt lat="43.41894" lon="3.4773">
        <ele>86.58282</ele>
        <time>2023-12-30T14:53:37.000Z</time>
      </trkpt>
      <trkpt lat="43.41891" lon="3.47734">
        <ele>86.454472</ele>
        <time>2023-12-30T14:53:38.000Z</time>
      </trkpt>
      <trkpt lat="43.41889" lon="3.47737">
        <ele>86.349189</ele>
        <time>2023-12-30T14:53:39.000Z</time>
      </trkpt>
      <trkpt lat="43.41887" lon="3.47741">
        <ele>86.234145</ele>
        <time>2023-12-30T14:53:40.000Z</time>
      </trkpt>
      <trkpt lat="43.41884" lon="3.47745">
        <ele>86.124191</ele>
        <time>2023-12-30T14:53:41.000Z</time>
      </trkpt>
      <trkpt lat="43.41882" lon="3.47748">
        <ele>86.019104</ele>
        <time>2023-12-30T14:53:42.000Z</time>
      </trkpt>
      <trkpt lat="43.4188" lon="3.47752">
        <ele>85.90616</ele>
        <time>2023-12-30T14:53:43.000Z</time>
      </trkpt>
      <trkpt lat="43.41878" lon="3.47756">
        <ele>85.787256</ele>
        <time>2023-12-30T14:53:44.000Z</time>
      </trkpt>
      <trkpt lat="43.41875" lon="3.4776">
        <ele>85.66149</ele>
        <time>2023-12-30T14:53:45.000Z</time>
      </trkpt>
      <trkpt lat="43.41872" lon="3.47764">
        <ele>85.528768</ele>
        <time>2023-12-30T14:53:46.000Z</time>
      </trkpt>
      <trkpt lat="43.41869" lon="3.47768">
        <ele>85.3938</ele>
        <time>2023-12-30T14:53:47.000Z</time>
      </trkpt>
      <trkpt lat="43.41867" lon="3.47773">
        <ele>85.262253</ele>
        <time>2023-12-30T14:53:48.000Z</time>
      </trkpt>
      <trkpt lat="43.41864" lon="3.47777">
        <ele>85.122735</ele>
        <time>2023-12-30T14:53:49.000Z</time>
      </trkpt>
      <trkpt lat="43.41861" lon="3.47781">
        <ele>84.992221</ele>
        <time>2023-12-30T14:53:50.000Z</time>
      </trkpt>
      <trkpt lat="43.41858" lon="3.47786">
        <ele>84.851715</ele>
        <time>2023-12-30T14:53:51.000Z</time>
      </trkpt>
      <trkpt lat="43.41855" lon="3.4779">
        <ele>84.709553</ele>
        <time>2023-12-30T14:53:52.000Z</time>
      </trkpt>
      <trkpt lat="43.41852" lon="3.47794">
        <ele>84.581571</ele>
        <time>2023-12-30T14:53:53.000Z</time>
      </trkpt>
      <trkpt lat="43.4185" lon="3.47798">
        <ele>84.462177</ele>
        <time>2023-12-30T14:53:54.000Z</time>
      </trkpt>
      <trkpt lat="43.41847" lon="3.47801">
        <ele>84.350986</ele>
        <time>2023-12-30T14:53:55.000Z</time>
      </trkpt>
      <trkpt lat="43.41845" lon="3.47805">
        <ele>84.242683</ele>
        <time>2023-12-30T14:53:56.000Z</time>
      </trkpt>
      <trkpt lat="43.41842" lon="3.47809">
        <ele>84.112522</ele>
        <time>2023-12-30T14:53:57.000Z</time>
      </trkpt>
      <trkpt lat="43.41839" lon="3.47812">
        <ele>83.982361</ele>
        <time>2023-12-30T14:53:58.000Z</time>
      </trkpt>
      <trkpt lat="43.41836" lon="3.47816">
        <ele>83.853759</ele>
        <time>2023-12-30T14:53:59.000Z</time>
      </trkpt>
      <trkpt lat="43.41833" lon="3.4782">
        <ele>83.71879</ele>
        <time>2023-12-30T14:54:00.000Z</time>
      </trkpt>
      <trkpt lat="43.4183" lon="3.47824">
        <ele>83.591615</ele>
        <time>2023-12-30T14:54:01.000Z</time>
      </trkpt>
      <trkpt lat="43.41827" lon="3.47829">
        <ele>83.452097</ele>
        <time>2023-12-30T14:54:02.000Z</time>
      </trkpt>
      <trkpt lat="43.41824" lon="3.47833">
        <ele>83.313226</ele>
        <time>2023-12-30T14:54:03.000Z</time>
      </trkpt>
      <trkpt lat="43.41821" lon="3.47837">
        <ele>83.181484</ele>
        <time>2023-12-30T14:54:04.000Z</time>
      </trkpt>
      <trkpt lat="43.41818" lon="3.4784">
        <ele>83.058201</ele>
        <time>2023-12-30T14:54:05.000Z</time>
      </trkpt>
      <trkpt lat="43.41815" lon="3.47845">
        <ele>82.945259</ele>
        <time>2023-12-30T14:54:06.000Z</time>
      </trkpt>
      <trkpt lat="43.41813" lon="3.47849">
        <ele>82.852332</ele>
        <time>2023-12-30T14:54:07.000Z</time>
      </trkpt>
      <trkpt lat="43.4181" lon="3.47852">
        <ele>82.759405</ele>
        <time>2023-12-30T14:54:08.000Z</time>
      </trkpt>
      <trkpt lat="43.41807" lon="3.47856">
        <ele>82.675262</ele>
        <time>2023-12-30T14:54:09.000Z</time>
      </trkpt>
      <trkpt lat="43.41806" lon="3.47858">
        <ele>82.618576</ele>
        <time>2023-12-30T14:54:10.000Z</time>
      </trkpt>
      <trkpt lat="43.41804" lon="3.47862">
        <ele>82.545028</ele>
        <time>2023-12-30T14:54:11.000Z</time>
      </trkpt>
      <trkpt lat="43.41802" lon="3.47865">
        <ele>82.462148</ele>
        <time>2023-12-30T14:54:12.000Z</time>
      </trkpt>
      <trkpt lat="43.41799" lon="3.4787">
        <ele>82.35876</ele>
        <time>2023-12-30T14:54:13.000Z</time>
      </trkpt>
      <trkpt lat="43.41796" lon="3.47874">
        <ele>82.252496</ele>
        <time>2023-12-30T14:54:14.000Z</time>
      </trkpt>
      <trkpt lat="43.41793" lon="3.47879">
        <ele>82.140192</ele>
        <time>2023-12-30T14:54:15.000Z</time>
      </trkpt>
      <trkpt lat="43.4179" lon="3.47884">
        <ele>82.033928</ele>
        <time>2023-12-30T14:54:16.000Z</time>
      </trkpt>
      <trkpt lat="43.41787" lon="3.47888">
        <ele>81.932192</ele>
        <time>2023-12-30T14:54:17.000Z</time>
      </trkpt>
      <trkpt lat="43.41784" lon="3.47892">
        <ele>81.832829</ele>
        <time>2023-12-30T14:54:18.000Z</time>
      </trkpt>
      <trkpt lat="43.41781" lon="3.47896">
        <ele>81.727663</ele>
        <time>2023-12-30T14:54:19.000Z</time>
      </trkpt>
      <trkpt lat="43.41778" lon="3.479">
        <ele>81.624806</ele>
        <time>2023-12-30T14:54:20.000Z</time>
      </trkpt>
      <trkpt lat="43.41775" lon="3.47904">
        <ele>81.526694</ele>
        <time>2023-12-30T14:54:21.000Z</time>
      </trkpt>
      <trkpt lat="43.41772" lon="3.47908">
        <ele>81.428582</ele>
        <time>2023-12-30T14:54:22.000Z</time>
      </trkpt>
      <trkpt lat="43.41769" lon="3.47912">
        <ele>81.325124</ele>
        <time>2023-12-30T14:54:23.000Z</time>
      </trkpt>
      <trkpt lat="43.41766" lon="3.47917">
        <ele>81.208668</ele>
        <time>2023-12-30T14:54:24.000Z</time>
      </trkpt>
      <trkpt lat="43.41762" lon="3.47921">
        <ele>81.092809</ele>
        <time>2023-12-30T14:54:25.000Z</time>
      </trkpt>
      <trkpt lat="43.41759" lon="3.47926">
        <ele>80.981463</ele>
        <time>2023-12-30T14:54:26.000Z</time>
      </trkpt>
      <trkpt lat="43.41756" lon="3.47929">
        <ele>80.880889</ele>
        <time>2023-12-30T14:54:27.000Z</time>
      </trkpt>
      <trkpt lat="43.41753" lon="3.47933">
        <ele>80.779822</ele>
        <time>2023-12-30T14:54:28.000Z</time>
      </trkpt>
      <trkpt lat="43.41749" lon="3.47938">
        <ele>80.669258</ele>
        <time>2023-12-30T14:54:29.000Z</time>
      </trkpt>
      <trkpt lat="43.41746" lon="3.47941">
        <ele>80.571146</ele>
        <time>2023-12-30T14:54:30.000Z</time>
      </trkpt>
      <trkpt lat="43.41743" lon="3.47945">
        <ele>80.468289</ele>
        <time>2023-12-30T14:54:31.000Z</time>
      </trkpt>
      <trkpt lat="43.41739" lon="3.4795">
        <ele>80.340567</ele>
        <time>2023-12-30T14:54:32.000Z</time>
      </trkpt>
      <trkpt lat="43.41736" lon="3.47956">
        <ele>80.218258</ele>
        <time>2023-12-30T14:54:33.000Z</time>
      </trkpt>
      <trkpt lat="43.41733" lon="3.47961">
        <ele>80.093548</ele>
        <time>2023-12-30T14:54:34.000Z</time>
      </trkpt>
      <trkpt lat="43.4173" lon="3.47967">
        <ele>79.975884</ele>
        <time>2023-12-30T14:54:35.000Z</time>
      </trkpt>
      <trkpt lat="43.41728" lon="3.47972">
        <ele>79.863421</ele>
        <time>2023-12-30T14:54:36.000Z</time>
      </trkpt>
      <trkpt lat="43.41725" lon="3.47978">
        <ele>79.756707</ele>
        <time>2023-12-30T14:54:37.000Z</time>
      </trkpt>
      <trkpt lat="43.41723" lon="3.47982">
        <ele>79.656273</ele>
        <time>2023-12-30T14:54:38.000Z</time>
      </trkpt>
      <trkpt lat="43.4172" lon="3.47987">
        <ele>79.557116</ele>
        <time>2023-12-30T14:54:39.000Z</time>
      </trkpt>
      <trkpt lat="43.41719" lon="3.47992">
        <ele>79.461602</ele>
        <time>2023-12-30T14:54:40.000Z</time>
      </trkpt>
      <trkpt lat="43.41717" lon="3.47997">
        <ele>79.358028</ele>
        <time>2023-12-30T14:54:41.000Z</time>
      </trkpt>
      <trkpt lat="43.41715" lon="3.48003">
        <ele>79.248937</ele>
        <time>2023-12-30T14:54:42.000Z</time>
      </trkpt>
      <trkpt lat="43.41712" lon="3.48009">
        <ele>79.124265</ele>
        <time>2023-12-30T14:54:43.000Z</time>
      </trkpt>
      <trkpt lat="43.41709" lon="3.48015">
        <ele>78.999784</ele>
        <time>2023-12-30T14:54:44.000Z</time>
      </trkpt>
      <trkpt lat="43.41706" lon="3.48019">
        <ele>78.883823</ele>
        <time>2023-12-30T14:54:45.000Z</time>
      </trkpt>
      <trkpt lat="43.41702" lon="3.48023">
        <ele>78.771377</ele>
        <time>2023-12-30T14:54:46.000Z</time>
      </trkpt>
      <trkpt lat="43.41699" lon="3.48027">
        <ele>78.702845</ele>
        <time>2023-12-30T14:54:47.000Z</time>
      </trkpt>
      <trkpt lat="43.41696" lon="3.48031">
        <ele>78.69232</ele>
        <time>2023-12-30T14:54:48.000Z</time>
      </trkpt>
      <trkpt lat="43.41693" lon="3.48034">
        <ele>78.682865</ele>
        <time>2023-12-30T14:54:49.000Z</time>
      </trkpt>
      <trkpt lat="43.4169" lon="3.48037">
        <ele>78.672976</ele>
        <time>2023-12-30T14:54:50.000Z</time>
      </trkpt>
      <trkpt lat="43.41687" lon="3.48041">
        <ele>78.662969</ele>
        <time>2023-12-30T14:54:51.000Z</time>
      </trkpt>
      <trkpt lat="43.41683" lon="3.48045">
        <ele>78.651572</ele>
        <time>2023-12-30T14:54:52.000Z</time>
      </trkpt>
      <trkpt lat="43.4168" lon="3.48048">
        <ele>78.640321</ele>
        <time>2023-12-30T14:54:53.000Z</time>
      </trkpt>
      <trkpt lat="43.41677" lon="3.48052">
        <ele>78.629507</ele>
        <time>2023-12-30T14:54:54.000Z</time>
      </trkpt>
      <trkpt lat="43.41673" lon="3.48056">
        <ele>78.618547</ele>
        <time>2023-12-30T14:54:55.000Z</time>
      </trkpt>
      <trkpt lat="43.4167" lon="3.48059">
        <ele>78.608174</ele>
        <time>2023-12-30T14:54:56.000Z</time>
      </trkpt>
      <trkpt lat="43.41667" lon="3.48064">
        <ele>78.596473</ele>
        <time>2023-12-30T14:54:57.000Z</time>
      </trkpt>
      <trkpt lat="43.41664" lon="3.48068">
        <ele>78.586082</ele>
        <time>2023-12-30T14:54:58.000Z</time>
      </trkpt>
      <trkpt lat="43.41663" lon="3.48072">
        <ele>78.577088</ele>
        <time>2023-12-30T14:54:59.000Z</time>
      </trkpt>
      <trkpt lat="43.41662" lon="3.48076">
        <ele>78.568537</ele>
        <time>2023-12-30T14:55:00.000Z</time>
      </trkpt>
      <trkpt lat="43.41661" lon="3.48081">
        <ele>78.559543</ele>
        <time>2023-12-30T14:55:01.000Z</time>
      </trkpt>
      <trkpt lat="43.41662" lon="3.48086">
        <ele>78.55027</ele>
        <time>2023-12-30T14:55:02.000Z</time>
      </trkpt>
      <trkpt lat="43.41664" lon="3.48089">
        <ele>78.542373</ele>
        <time>2023-12-30T14:55:03.000Z</time>
      </trkpt>
      <trkpt lat="43.41666" lon="3.48092">
        <ele>78.534618</ele>
        <time>2023-12-30T14:55:04.000Z</time>
      </trkpt>
      <trkpt lat="43.41669" lon="3.48096">
        <ele>78.524888</ele>
        <time>2023-12-30T14:55:05.000Z</time>
      </trkpt>
      <trkpt lat="43.41671" lon="3.481">
        <ele>78.515297</ele>
        <time>2023-12-30T14:55:06.000Z</time>
      </trkpt>
      <trkpt lat="43.41674" lon="3.48104">
        <ele>78.505801</ele>
        <time>2023-12-30T14:55:07.000Z</time>
      </trkpt>
      <trkpt lat="43.41676" lon="3.48108">
        <ele>78.496096</ele>
        <time>2023-12-30T14:55:08.000Z</time>
      </trkpt>
      <trkpt lat="43.41679" lon="3.48112">
        <ele>78.485653</ele>
        <time>2023-12-30T14:55:09.000Z</time>
      </trkpt>
      <trkpt lat="43.41681" lon="3.48117">
        <ele>78.474598</ele>
        <time>2023-12-30T14:55:10.000Z</time>
      </trkpt>
      <trkpt lat="43.41683" lon="3.48122">
        <ele>78.463997</ele>
        <time>2023-12-30T14:55:11.000Z</time>
      </trkpt>
      <trkpt lat="43.41686" lon="3.48126">
        <ele>78.452913</ele>
        <time>2023-12-30T14:55:12.000Z</time>
      </trkpt>
      <trkpt lat="43.41689" lon="3.4813">
        <ele>78.443299</ele>
        <time>2023-12-30T14:55:13.000Z</time>
      </trkpt>
      <trkpt lat="43.41691" lon="3.48134">
        <ele>78.433449</ele>
        <time>2023-12-30T14:55:14.000Z</time>
      </trkpt>
      <trkpt lat="43.41693" lon="3.48137">
        <ele>78.424671</ele>
        <time>2023-12-30T14:55:15.000Z</time>
      </trkpt>
      <trkpt lat="43.41696" lon="3.48141">
        <ele>78.416604</ele>
        <time>2023-12-30T14:55:16.000Z</time>
      </trkpt>
      <trkpt lat="43.41698" lon="3.48144">
        <ele>78.407967</ele>
        <time>2023-12-30T14:55:17.000Z</time>
      </trkpt>
      <trkpt lat="43.417" lon="3.48148">
        <ele>78.399138</ele>
        <time>2023-12-30T14:55:18.000Z</time>
      </trkpt>
      <trkpt lat="43.41702" lon="3.48152">
        <ele>78.390049</ele>
        <time>2023-12-30T14:55:19.000Z</time>
      </trkpt>
      <trkpt lat="43.41704" lon="3.48155">
        <ele>78.381725</ele>
        <time>2023-12-30T14:55:20.000Z</time>
      </trkpt>
      <trkpt lat="43.41706" lon="3.48159">
        <ele>78.373097</ele>
        <time>2023-12-30T14:55:21.000Z</time>
      </trkpt>
      <trkpt lat="43.41709" lon="3.48162">
        <ele>78.363418</ele>
        <time>2023-12-30T14:55:22.000Z</time>
      </trkpt>
      <trkpt lat="43.41711" lon="3.48166">
        <ele>78.354727</ele>
        <time>2023-12-30T14:55:23.000Z</time>
      </trkpt>
      <trkpt lat="43.41713" lon="3.4817">
        <ele>78.346083</ele>
        <time>2023-12-30T14:55:24.000Z</time>
      </trkpt>
      <trkpt lat="43.41715" lon="3.48173">
        <ele>78.338555</ele>
        <time>2023-12-30T14:55:25.000Z</time>
      </trkpt>
      <trkpt lat="43.41717" lon="3.48176">
        <ele>78.330761</ele>
        <time>2023-12-30T14:55:26.000Z</time>
      </trkpt>
      <trkpt lat="43.41719" lon="3.48177">
        <ele>78.324439</ele>
        <time>2023-12-30T14:55:27.000Z</time>
      </trkpt>
      <trkpt lat="43.41721" lon="3.48178">
        <ele>78.318828</ele>
        <time>2023-12-30T14:55:28.000Z</time>
      </trkpt>
      <trkpt lat="43.41723" lon="3.48176">
        <ele>78.313278</ele>
        <time>2023-12-30T14:55:29.000Z</time>
      </trkpt>
      <trkpt lat="43.41726" lon="3.48174">
        <ele>78.305419</ele>
        <time>2023-12-30T14:55:30.000Z</time>
      </trkpt>
      <trkpt lat="43.41728" lon="3.48172">
        <ele>78.297144</ele>
        <time>2023-12-30T14:55:31.000Z</time>
      </trkpt>
      <trkpt lat="43.4173" lon="3.48168">
        <ele>78.289104</ele>
        <time>2023-12-30T14:55:32.000Z</time>
      </trkpt>
      <trkpt lat="43.41733" lon="3.48165">
        <ele>78.280446</ele>
        <time>2023-12-30T14:55:33.000Z</time>
      </trkpt>
      <trkpt lat="43.41735" lon="3.48161">
        <ele>78.270994</ele>
        <time>2023-12-30T14:55:34.000Z</time>
      </trkpt>
      <trkpt lat="43.41738" lon="3.48158">
        <ele>78.26199</ele>
        <time>2023-12-30T14:55:35.000Z</time>
      </trkpt>
      <trkpt lat="43.41741" lon="3.48154">
        <ele>78.251618</ele>
        <time>2023-12-30T14:55:36.000Z</time>
      </trkpt>
      <trkpt lat="43.41743" lon="3.4815">
        <ele>78.262057</ele>
        <time>2023-12-30T14:55:37.000Z</time>
      </trkpt>
      <trkpt lat="43.41746" lon="3.48146">
        <ele>78.319266</ele>
        <time>2023-12-30T14:55:38.000Z</time>
      </trkpt>
      <trkpt lat="43.4175" lon="3.48143">
        <ele>78.370648</ele>
        <time>2023-12-30T14:55:39.000Z</time>
      </trkpt>
      <trkpt lat="43.41753" lon="3.4814">
        <ele>78.427076</ele>
        <time>2023-12-30T14:55:40.000Z</time>
      </trkpt>
      <trkpt lat="43.41756" lon="3.48137">
        <ele>78.477259</ele>
        <time>2023-12-30T14:55:41.000Z</time>
      </trkpt>
      <trkpt lat="43.41759" lon="3.48134">
        <ele>78.531405</ele>
        <time>2023-12-30T14:55:42.000Z</time>
      </trkpt>
      <trkpt lat="43.41763" lon="3.48132">
        <ele>78.587399</ele>
        <time>2023-12-30T14:55:43.000Z</time>
      </trkpt>
      <trkpt lat="43.41766" lon="3.48128">
        <ele>78.640967</ele>
        <time>2023-12-30T14:55:44.000Z</time>
      </trkpt>
      <trkpt lat="43.41769" lon="3.48126">
        <ele>78.694212</ele>
        <time>2023-12-30T14:55:45.000Z</time>
      </trkpt>
      <trkpt lat="43.41773" lon="3.48123">
        <ele>78.748357</ele>
        <time>2023-12-30T14:55:46.000Z</time>
      </trkpt>
      <trkpt lat="43.41776" lon="3.48119">
        <ele>78.804167</ele>
        <time>2023-12-30T14:55:47.000Z</time>
      </trkpt>
      <trkpt lat="43.41779" lon="3.48115">
        <ele>78.858649</ele>
        <time>2023-12-30T14:55:48.000Z</time>
      </trkpt>
      <trkpt lat="43.41782" lon="3.48112">
        <ele>78.912107</ele>
        <time>2023-12-30T14:55:49.000Z</time>
      </trkpt>
      <trkpt lat="43.41784" lon="3.48108">
        <ele>78.966635</ele>
        <time>2023-12-30T14:55:50.000Z</time>
      </trkpt>
      <trkpt lat="43.41787" lon="3.48104">
        <ele>79.021667</ele>
        <time>2023-12-30T14:55:51.000Z</time>
      </trkpt>
      <trkpt lat="43.4179" lon="3.481">
        <ele>79.076196</ele>
        <time>2023-12-30T14:55:52.000Z</time>
      </trkpt>
      <trkpt lat="43.41793" lon="3.48096">
        <ele>79.131969</ele>
        <time>2023-12-30T14:55:53.000Z</time>
      </trkpt>
      <trkpt lat="43.41795" lon="3.48092">
        <ele>79.186778</ele>
        <time>2023-12-30T14:55:54.000Z</time>
      </trkpt>
      <trkpt lat="43.41798" lon="3.48088">
        <ele>79.238235</ele>
        <time>2023-12-30T14:55:55.000Z</time>
      </trkpt>
      <trkpt lat="43.41801" lon="3.48085">
        <ele>79.286727</ele>
        <time>2023-12-30T14:55:56.000Z</time>
      </trkpt>
      <trkpt lat="43.41804" lon="3.48083">
        <ele>79.334105</ele>
        <time>2023-12-30T14:55:57.000Z</time>
      </trkpt>
      <trkpt lat="43.41807" lon="3.4808">
        <ele>79.37696</ele>
        <time>2023-12-30T14:55:58.000Z</time>
      </trkpt>
      <trkpt lat="43.4181" lon="3.48078">
        <ele>79.425927</ele>
        <time>2023-12-30T14:55:59.000Z</time>
      </trkpt>
      <trkpt lat="43.41813" lon="3.48076">
        <ele>79.475621</ele>
        <time>2023-12-30T14:56:00.000Z</time>
      </trkpt>
      <trkpt lat="43.41816" lon="3.48073">
        <ele>79.52649</ele>
        <time>2023-12-30T14:56:01.000Z</time>
      </trkpt>
      <trkpt lat="43.41819" lon="3.48071">
        <ele>79.573991</ele>
        <time>2023-12-30T14:56:02.000Z</time>
      </trkpt>
      <trkpt lat="43.41822" lon="3.48067">
        <ele>79.623083</ele>
        <time>2023-12-30T14:56:03.000Z</time>
      </trkpt>
      <trkpt lat="43.41824" lon="3.48064">
        <ele>79.675532</ele>
        <time>2023-12-30T14:56:04.000Z</time>
      </trkpt>
      <trkpt lat="43.41827" lon="3.48061">
        <ele>79.721342</ele>
        <time>2023-12-30T14:56:05.000Z</time>
      </trkpt>
      <trkpt lat="43.4183" lon="3.48058">
        <ele>79.767403</ele>
        <time>2023-12-30T14:56:06.000Z</time>
      </trkpt>
      <trkpt lat="43.41831" lon="3.48055">
        <ele>79.80219</ele>
        <time>2023-12-30T14:56:07.000Z</time>
      </trkpt>
      <trkpt lat="43.41833" lon="3.48053">
        <ele>79.833458</ele>
        <time>2023-12-30T14:56:08.000Z</time>
      </trkpt>
      <trkpt lat="43.41834" lon="3.48052">
        <ele>79.848762</ele>
        <time>2023-12-30T14:56:09.000Z</time>
      </trkpt>
      <trkpt lat="43.41839" lon="3.48046">
        <ele>80.06238</ele>
        <time>2023-12-30T15:06:00.000Z</time>
      </trkpt>
      <trkpt lat="43.41839" lon="3.48046">
        <ele>80.063749</ele>
        <time>2023-12-30T15:06:01.000Z</time>
      </trkpt>
      <trkpt lat="43.41839" lon="3.48046">
        <ele>80.069146</ele>
        <time>2023-12-30T15:06:06.000Z</time>
      </trkpt>
      <trkpt lat="43.41839" lon="3.48046">
        <ele>80.070515</ele>
        <time>2023-12-30T15:06:07.000Z</time>
      </trkpt>
      <trkpt lat="43.4184" lon="3.48043">
        <ele>80.155734</ele>
        <time>2023-12-30T15:06:47.000Z</time>
      </trkpt>
      <trkpt lat="43.41841" lon="3.48042">
        <ele>80.172166</ele>
        <time>2023-12-30T15:06:48.000Z</time>
      </trkpt>
      <trkpt lat="43.41842" lon="3.4804">
        <ele>80.198854</ele>
        <time>2023-12-30T15:06:49.000Z</time>
      </trkpt>
      <trkpt lat="43.41844" lon="3.48037">
        <ele>80.236236</ele>
        <time>2023-12-30T15:06:50.000Z</time>
      </trkpt>
      <trkpt lat="43.41846" lon="3.48035">
        <ele>80.271537</ele>
        <time>2023-12-30T15:06:51.000Z</time>
      </trkpt>
      <trkpt lat="43.41848" lon="3.48033">
        <ele>80.302589</ele>
        <time>2023-12-30T15:06:52.000Z</time>
      </trkpt>
      <trkpt lat="43.41849" lon="3.48031">
        <ele>80.33453</ele>
        <time>2023-12-30T15:06:53.000Z</time>
      </trkpt>
      <trkpt lat="43.41851" lon="3.48028">
        <ele>80.371179</ele>
        <time>2023-12-30T15:06:54.000Z</time>
      </trkpt>
      <trkpt lat="43.41854" lon="3.48027">
        <ele>80.406863</ele>
        <time>2023-12-30T15:06:55.000Z</time>
      </trkpt>
      <trkpt lat="43.41856" lon="3.48025">
        <ele>80.440214</ele>
        <time>2023-12-30T15:06:56.000Z</time>
      </trkpt>
      <trkpt lat="43.41857" lon="3.48024">
        <ele>80.466812</ele>
        <time>2023-12-30T15:06:57.000Z</time>
      </trkpt>
      <trkpt lat="43.41859" lon="3.48022">
        <ele>80.496398</ele>
        <time>2023-12-30T15:06:58.000Z</time>
      </trkpt>
      <trkpt lat="43.41861" lon="3.4802">
        <ele>80.530071</ele>
        <time>2023-12-30T15:06:59.000Z</time>
      </trkpt>
      <trkpt lat="43.41864" lon="3.4802">
        <ele>80.562927</ele>
        <time>2023-12-30T15:07:00.000Z</time>
      </trkpt>
      <trkpt lat="43.41865" lon="3.48022">
        <ele>80.590046</ele>
        <time>2023-12-30T15:07:01.000Z</time>
      </trkpt>
      <trkpt lat="43.41867" lon="3.48023">
        <ele>80.613267</ele>
        <time>2023-12-30T15:07:02.000Z</time>
      </trkpt>
      <trkpt lat="43.41868" lon="3.48025">
        <ele>80.640887</ele>
        <time>2023-12-30T15:07:03.000Z</time>
      </trkpt>
      <trkpt lat="43.41871" lon="3.48026">
        <ele>80.677845</ele>
        <time>2023-12-30T15:07:04.000Z</time>
      </trkpt>
      <trkpt lat="43.41874" lon="3.48026">
        <ele>80.703924</ele>
        <time>2023-12-30T15:07:05.000Z</time>
      </trkpt>
      <trkpt lat="43.41876" lon="3.48025">
        <ele>80.693804</ele>
        <time>2023-12-30T15:07:06.000Z</time>
      </trkpt>
      <trkpt lat="43.41878" lon="3.48023">
        <ele>80.681685</ele>
        <time>2023-12-30T15:07:07.000Z</time>
      </trkpt>
      <trkpt lat="43.4188" lon="3.48022">
        <ele>80.672704</ele>
        <time>2023-12-30T15:07:08.000Z</time>
      </trkpt>
      <trkpt lat="43.4188" lon="3.48019">
        <ele>80.663292</ele>
        <time>2023-12-30T15:07:09.000Z</time>
      </trkpt>
      <trkpt lat="43.41881" lon="3.48016">
        <ele>80.652727</ele>
        <time>2023-12-30T15:07:10.000Z</time>
      </trkpt>
      <trkpt lat="43.41882" lon="3.48013">
        <ele>80.641591</ele>
        <time>2023-12-30T15:07:11.000Z</time>
      </trkpt>
      <trkpt lat="43.41883" lon="3.4801">
        <ele>80.630818</ele>
        <time>2023-12-30T15:07:12.000Z</time>
      </trkpt>
      <trkpt lat="43.41884" lon="3.48006">
        <ele>80.618906</ele>
        <time>2023-12-30T15:07:13.000Z</time>
      </trkpt>
      <trkpt lat="43.41886" lon="3.48003">
        <ele>80.606067</ele>
        <time>2023-12-30T15:07:14.000Z</time>
      </trkpt>
      <trkpt lat="43.41889" lon="3.47999">
        <ele>80.58968</ele>
        <time>2023-12-30T15:07:15.000Z</time>
      </trkpt>
      <trkpt lat="43.41891" lon="3.47997">
        <ele>80.575701</ele>
        <time>2023-12-30T15:07:16.000Z</time>
      </trkpt>
      <trkpt lat="43.41894" lon="3.47993">
        <ele>80.560078</ele>
        <time>2023-12-30T15:07:17.000Z</time>
      </trkpt>
      <trkpt lat="43.41896" lon="3.4799">
        <ele>80.543054</ele>
        <time>2023-12-30T15:07:18.000Z</time>
      </trkpt>
      <trkpt lat="43.41899" lon="3.47986">
        <ele>80.526351</ele>
        <time>2023-12-30T15:07:19.000Z</time>
      </trkpt>
      <trkpt lat="43.41901" lon="3.47983">
        <ele>80.512591</ele>
        <time>2023-12-30T15:07:20.000Z</time>
      </trkpt>
      <trkpt lat="43.41903" lon="3.4798">
        <ele>80.499268</ele>
        <time>2023-12-30T15:07:21.000Z</time>
      </trkpt>
      <trkpt lat="43.41905" lon="3.47977">
        <ele>80.485047</ele>
        <time>2023-12-30T15:07:22.000Z</time>
      </trkpt>
      <trkpt lat="43.41907" lon="3.47972">
        <ele>80.468525</ele>
        <time>2023-12-30T15:07:23.000Z</time>
      </trkpt>
      <trkpt lat="43.41909" lon="3.47967">
        <ele>80.451478</ele>
        <time>2023-12-30T15:07:24.000Z</time>
      </trkpt>
      <trkpt lat="43.41911" lon="3.47962">
        <ele>80.431044</ele>
        <time>2023-12-30T15:07:25.000Z</time>
      </trkpt>
      <trkpt lat="43.41913" lon="3.47956">
        <ele>80.409998</ele>
        <time>2023-12-30T15:07:26.000Z</time>
      </trkpt>
      <trkpt lat="43.41917" lon="3.47951">
        <ele>80.38843</ele>
        <time>2023-12-30T15:07:27.000Z</time>
      </trkpt>
      <trkpt lat="43.41919" lon="3.47947">
        <ele>80.370805</ele>
        <time>2023-12-30T15:07:28.000Z</time>
      </trkpt>
      <trkpt lat="43.41921" lon="3.47943">
        <ele>80.353369</ele>
        <time>2023-12-30T15:07:29.000Z</time>
      </trkpt>
      <trkpt lat="43.41924" lon="3.47938">
        <ele>80.333783</ele>
        <time>2023-12-30T15:07:30.000Z</time>
      </trkpt>
      <trkpt lat="43.41927" lon="3.47933">
        <ele>80.313344</ele>
        <time>2023-12-30T15:07:31.000Z</time>
      </trkpt>
      <trkpt lat="43.41928" lon="3.47928">
        <ele>80.297763</ele>
        <time>2023-12-30T15:07:32.000Z</time>
      </trkpt>
      <trkpt lat="43.41928" lon="3.47924">
        <ele>80.284169</ele>
        <time>2023-12-30T15:07:33.000Z</time>
      </trkpt>
      <trkpt lat="43.4193" lon="3.47921">
        <ele>80.271261</ele>
        <time>2023-12-30T15:07:34.000Z</time>
      </trkpt>
      <trkpt lat="43.41933" lon="3.47917">
        <ele>80.254229</ele>
        <time>2023-12-30T15:07:35.000Z</time>
      </trkpt>
      <trkpt lat="43.41934" lon="3.47913">
        <ele>80.239059</ele>
        <time>2023-12-30T15:07:36.000Z</time>
      </trkpt>
      <trkpt lat="43.41936" lon="3.47908">
        <ele>80.221822</ele>
        <time>2023-12-30T15:07:37.000Z</time>
      </trkpt>
      <trkpt lat="43.41937" lon="3.47903">
        <ele>80.203595</ele>
        <time>2023-12-30T15:07:38.000Z</time>
      </trkpt>
      <trkpt lat="43.41938" lon="3.47897">
        <ele>80.185089</ele>
        <time>2023-12-30T15:07:39.000Z</time>
      </trkpt>
      <trkpt lat="43.41941" lon="3.47893">
        <ele>80.168002</ele>
        <time>2023-12-30T15:07:40.000Z</time>
      </trkpt>
      <trkpt lat="43.41944" lon="3.47891">
        <ele>80.151702</ele>
        <time>2023-12-30T15:07:41.000Z</time>
      </trkpt>
      <trkpt lat="43.41947" lon="3.47887">
        <ele>80.132641</ele>
        <time>2023-12-30T15:07:42.000Z</time>
      </trkpt>
      <trkpt lat="43.4195" lon="3.47883">
        <ele>80.115115</ele>
        <time>2023-12-30T15:07:43.000Z</time>
      </trkpt>
      <trkpt lat="43.41952" lon="3.47879">
        <ele>80.099927</ele>
        <time>2023-12-30T15:07:44.000Z</time>
      </trkpt>
      <trkpt lat="43.41953" lon="3.47875">
        <ele>80.085011</ele>
        <time>2023-12-30T15:07:45.000Z</time>
      </trkpt>
      <trkpt lat="43.41955" lon="3.4787">
        <ele>80.06687</ele>
        <time>2023-12-30T15:07:46.000Z</time>
      </trkpt>
      <trkpt lat="43.41958" lon="3.47865">
        <ele>80.047018</ele>
        <time>2023-12-30T15:07:47.000Z</time>
      </trkpt>
      <trkpt lat="43.4196" lon="3.47861">
        <ele>80.02974</ele>
        <time>2023-12-30T15:07:48.000Z</time>
      </trkpt>
      <trkpt lat="43.41963" lon="3.47856">
        <ele>80.010396</ele>
        <time>2023-12-30T15:07:49.000Z</time>
      </trkpt>
      <trkpt lat="43.41964" lon="3.47851">
        <ele>79.994923</ele>
        <time>2023-12-30T15:07:50.000Z</time>
      </trkpt>
      <trkpt lat="43.41965" lon="3.47847">
        <ele>79.981073</ele>
        <time>2023-12-30T15:07:51.000Z</time>
      </trkpt>
      <trkpt lat="43.41967" lon="3.47843">
        <ele>79.965271</ele>
        <time>2023-12-30T15:07:52.000Z</time>
      </trkpt>
      <trkpt lat="43.41969" lon="3.47839">
        <ele>79.949333</ele>
        <time>2023-12-30T15:07:53.000Z</time>
      </trkpt>
      <trkpt lat="43.41971" lon="3.47837">
        <ele>79.936108</ele>
        <time>2023-12-30T15:07:54.000Z</time>
      </trkpt>
      <trkpt lat="43.41973" lon="3.47833">
        <ele>79.92221</ele>
        <time>2023-12-30T15:07:55.000Z</time>
      </trkpt>
      <trkpt lat="43.41975" lon="3.47828">
        <ele>79.917159</ele>
        <time>2023-12-30T15:07:56.000Z</time>
      </trkpt>
      <trkpt lat="43.41977" lon="3.47823">
        <ele>79.982287</ele>
        <time>2023-12-30T15:07:57.000Z</time>
      </trkpt>
      <trkpt lat="43.41979" lon="3.47818">
        <ele>80.042785</ele>
        <time>2023-12-30T15:07:58.000Z</time>
      </trkpt>
      <trkpt lat="43.41981" lon="3.47815">
        <ele>80.093738</ele>
        <time>2023-12-30T15:07:59.000Z</time>
      </trkpt>
      <trkpt lat="43.41984" lon="3.47812">
        <ele>80.151746</ele>
        <time>2023-12-30T15:08:00.000Z</time>
      </trkpt>
      <trkpt lat="43.41987" lon="3.47807">
        <ele>80.219468</ele>
        <time>2023-12-30T15:08:01.000Z</time>
      </trkpt>
      <trkpt lat="43.4199" lon="3.47803">
        <ele>80.278231</ele>
        <time>2023-12-30T15:08:02.000Z</time>
      </trkpt>
      <trkpt lat="43.41992" lon="3.47799">
        <ele>80.338255</ele>
        <time>2023-12-30T15:08:03.000Z</time>
      </trkpt>
      <trkpt lat="43.41994" lon="3.47796">
        <ele>80.387869</ele>
        <time>2023-12-30T15:08:04.000Z</time>
      </trkpt>
      <trkpt lat="43.41996" lon="3.47792">
        <ele>80.436052</ele>
        <time>2023-12-30T15:08:05.000Z</time>
      </trkpt>
      <trkpt lat="43.41996" lon="3.47788">
        <ele>80.483982</ele>
        <time>2023-12-30T15:08:06.000Z</time>
      </trkpt>
      <trkpt lat="43.41995" lon="3.47783">
        <ele>80.537056</ele>
        <time>2023-12-30T15:08:07.000Z</time>
      </trkpt>
      <trkpt lat="43.41995" lon="3.4778">
        <ele>80.57763</ele>
        <time>2023-12-30T15:08:08.000Z</time>
      </trkpt>
      <trkpt lat="43.41996" lon="3.47776">
        <ele>80.621101</ele>
        <time>2023-12-30T15:08:09.000Z</time>
      </trkpt>
      <trkpt lat="43.41997" lon="3.47772">
        <ele>80.671643</ele>
        <time>2023-12-30T15:08:10.000Z</time>
      </trkpt>
      <trkpt lat="43.41998" lon="3.47768">
        <ele>80.713318</ele>
        <time>2023-12-30T15:08:11.000Z</time>
      </trkpt>
      <trkpt lat="43.41998" lon="3.47765">
        <ele>80.754994</ele>
        <time>2023-12-30T15:08:12.000Z</time>
      </trkpt>
      <trkpt lat="43.41999" lon="3.4776">
        <ele>80.806357</ele>
        <time>2023-12-30T15:08:13.000Z</time>
      </trkpt>
      <trkpt lat="43.42001" lon="3.47757">
        <ele>80.854149</ele>
        <time>2023-12-30T15:08:14.000Z</time>
      </trkpt>
      <trkpt lat="43.42004" lon="3.47753">
        <ele>80.916039</ele>
        <time>2023-12-30T15:08:15.000Z</time>
      </trkpt>
      <trkpt lat="43.42006" lon="3.4775">
        <ele>80.966181</ele>
        <time>2023-12-30T15:08:16.000Z</time>
      </trkpt>
      <trkpt lat="43.42008" lon="3.47746">
        <ele>81.017565</ele>
        <time>2023-12-30T15:08:17.000Z</time>
      </trkpt>
      <trkpt lat="43.42011" lon="3.47742">
        <ele>81.079781</ele>
        <time>2023-12-30T15:08:18.000Z</time>
      </trkpt>
      <trkpt lat="43.42012" lon="3.47738">
        <ele>81.12395</ele>
        <time>2023-12-30T15:08:19.000Z</time>
      </trkpt>
      <trkpt lat="43.42014" lon="3.47735">
        <ele>81.170023</ele>
        <time>2023-12-30T15:08:20.000Z</time>
      </trkpt>
      <trkpt lat="43.42015" lon="3.47731">
        <ele>81.214151</ele>
        <time>2023-12-30T15:08:21.000Z</time>
      </trkpt>
      <trkpt lat="43.42017" lon="3.47729">
        <ele>81.253842</ele>
        <time>2023-12-30T15:08:22.000Z</time>
      </trkpt>
      <trkpt lat="43.42019" lon="3.47727">
        <ele>81.289894</ele>
        <time>2023-12-30T15:08:23.000Z</time>
      </trkpt>
      <trkpt lat="43.4202" lon="3.47726">
        <ele>81.316004</ele>
        <time>2023-12-30T15:08:24.000Z</time>
      </trkpt>
      <trkpt lat="43.42022" lon="3.47724">
        <ele>81.348413</ele>
        <time>2023-12-30T15:08:25.000Z</time>
      </trkpt>
      <trkpt lat="43.42023" lon="3.47722">
        <ele>81.375823</ele>
        <time>2023-12-30T15:08:26.000Z</time>
      </trkpt>
      <trkpt lat="43.42024" lon="3.47719">
        <ele>81.415631</ele>
        <time>2023-12-30T15:08:27.000Z</time>
      </trkpt>
      <trkpt lat="43.42027" lon="3.47717">
        <ele>81.456068</ele>
        <time>2023-12-30T15:08:28.000Z</time>
      </trkpt>
      <trkpt lat="43.42029" lon="3.47714">
        <ele>81.508102</ele>
        <time>2023-12-30T15:08:29.000Z</time>
      </trkpt>
      <trkpt lat="43.42031" lon="3.47711">
        <ele>81.556148</ele>
        <time>2023-12-30T15:08:30.000Z</time>
      </trkpt>
      <trkpt lat="43.42033" lon="3.47707">
        <ele>81.604121</ele>
        <time>2023-12-30T15:08:31.000Z</time>
      </trkpt>
      <trkpt lat="43.42035" lon="3.47703">
        <ele>81.661949</ele>
        <time>2023-12-30T15:08:32.000Z</time>
      </trkpt>
      <trkpt lat="43.42037" lon="3.47699">
        <ele>81.715136</ele>
        <time>2023-12-30T15:08:33.000Z</time>
      </trkpt>
      <trkpt lat="43.42039" lon="3.47696">
        <ele>81.759688</ele>
        <time>2023-12-30T15:08:34.000Z</time>
      </trkpt>
      <trkpt lat="43.4204" lon="3.47692">
        <ele>81.806167</ele>
        <time>2023-12-30T15:08:35.000Z</time>
      </trkpt>
      <trkpt lat="43.4204" lon="3.47689">
        <ele>81.846536</ele>
        <time>2023-12-30T15:08:36.000Z</time>
      </trkpt>
      <trkpt lat="43.42041" lon="3.47684">
        <ele>81.900559</ele>
        <time>2023-12-30T15:08:37.000Z</time>
      </trkpt>
      <trkpt lat="43.42042" lon="3.47679">
        <ele>81.959397</ele>
        <time>2023-12-30T15:08:38.000Z</time>
      </trkpt>
      <trkpt lat="43.42045" lon="3.47676">
        <ele>82.010126</ele>
        <time>2023-12-30T15:08:39.000Z</time>
      </trkpt>
      <trkpt lat="43.42046" lon="3.47672">
        <ele>82.058817</ele>
        <time>2023-12-30T15:08:40.000Z</time>
      </trkpt>
      <trkpt lat="43.42047" lon="3.47668">
        <ele>82.100181</ele>
        <time>2023-12-30T15:08:41.000Z</time>
      </trkpt>
      <trkpt lat="43.42048" lon="3.47665">
        <ele>82.137374</ele>
        <time>2023-12-30T15:08:42.000Z</time>
      </trkpt>
      <trkpt lat="43.4205" lon="3.47662">
        <ele>82.180745</ele>
        <time>2023-12-30T15:08:43.000Z</time>
      </trkpt>
      <trkpt lat="43.42052" lon="3.47659">
        <ele>82.233564</ele>
        <time>2023-12-30T15:08:44.000Z</time>
      </trkpt>
      <trkpt lat="43.42055" lon="3.47656">
        <ele>82.29422</ele>
        <time>2023-12-30T15:08:45.000Z</time>
      </trkpt>
      <trkpt lat="43.42058" lon="3.47652">
        <ele>82.354525</ele>
        <time>2023-12-30T15:08:46.000Z</time>
      </trkpt>
      <trkpt lat="43.4206" lon="3.47648">
        <ele>82.405007</ele>
        <time>2023-12-30T15:08:47.000Z</time>
      </trkpt>
      <trkpt lat="43.42062" lon="3.47644">
        <ele>82.456403</ele>
        <time>2023-12-30T15:08:48.000Z</time>
      </trkpt>
      <trkpt lat="43.42064" lon="3.47641">
        <ele>82.510659</ele>
        <time>2023-12-30T15:08:49.000Z</time>
      </trkpt>
      <trkpt lat="43.42066" lon="3.47637">
        <ele>82.563072</ele>
        <time>2023-12-30T15:08:50.000Z</time>
      </trkpt>
      <trkpt lat="43.42069" lon="3.47633">
        <ele>82.618058</ele>
        <time>2023-12-30T15:08:51.000Z</time>
      </trkpt>
      <trkpt lat="43.42071" lon="3.4763">
        <ele>82.665089</ele>
        <time>2023-12-30T15:08:52.000Z</time>
      </trkpt>
      <trkpt lat="43.42072" lon="3.47626">
        <ele>82.749836</ele>
        <time>2023-12-30T15:08:53.000Z</time>
      </trkpt>
      <trkpt lat="43.42074" lon="3.47622">
        <ele>82.843505</ele>
        <time>2023-12-30T15:08:54.000Z</time>
      </trkpt>
      <trkpt lat="43.42076" lon="3.47618">
        <ele>82.94426</ele>
        <time>2023-12-30T15:08:55.000Z</time>
      </trkpt>
      <trkpt lat="43.42078" lon="3.47614">
        <ele>83.037433</ele>
        <time>2023-12-30T15:08:56.000Z</time>
      </trkpt>
      <trkpt lat="43.42079" lon="3.4761">
        <ele>83.13376</ele>
        <time>2023-12-30T15:08:57.000Z</time>
      </trkpt>
      <trkpt lat="43.42081" lon="3.47606">
        <ele>83.231185</ele>
        <time>2023-12-30T15:08:58.000Z</time>
      </trkpt>
      <trkpt lat="43.42083" lon="3.47603">
        <ele>83.318799</ele>
        <time>2023-12-30T15:08:59.000Z</time>
      </trkpt>
      <trkpt lat="43.42086" lon="3.476">
        <ele>83.409331</ele>
        <time>2023-12-30T15:09:00.000Z</time>
      </trkpt>
      <trkpt lat="43.42088" lon="3.47597">
        <ele>83.51557</ele>
        <time>2023-12-30T15:09:01.000Z</time>
      </trkpt>
      <trkpt lat="43.42091" lon="3.47592">
        <ele>83.636799</ele>
        <time>2023-12-30T15:09:02.000Z</time>
      </trkpt>
      <trkpt lat="43.42094" lon="3.47587">
        <ele>83.762507</ele>
        <time>2023-12-30T15:09:03.000Z</time>
      </trkpt>
      <trkpt lat="43.42095" lon="3.47582">
        <ele>83.868946</ele>
        <time>2023-12-30T15:09:04.000Z</time>
      </trkpt>
      <trkpt lat="43.42096" lon="3.47579">
        <ele>83.938304</ele>
        <time>2023-12-30T15:09:05.000Z</time>
      </trkpt>
      <trkpt lat="43.42098" lon="3.47578">
        <ele>84.005426</ele>
        <time>2023-12-30T15:09:06.000Z</time>
      </trkpt>
      <trkpt lat="43.42101" lon="3.47576">
        <ele>84.085429</ele>
        <time>2023-12-30T15:09:07.000Z</time>
      </trkpt>
      <trkpt lat="43.42103" lon="3.47573">
        <ele>84.169971</ele>
        <time>2023-12-30T15:09:08.000Z</time>
      </trkpt>
      <trkpt lat="43.42105" lon="3.4757">
        <ele>84.252002</ele>
        <time>2023-12-30T15:09:09.000Z</time>
      </trkpt>
      <trkpt lat="43.42106" lon="3.47565">
        <ele>84.350814</ele>
        <time>2023-12-30T15:09:10.000Z</time>
      </trkpt>
      <trkpt lat="43.42107" lon="3.47562">
        <ele>84.427943</ele>
        <time>2023-12-30T15:09:11.000Z</time>
      </trkpt>
      <trkpt lat="43.42109" lon="3.47559">
        <ele>84.508836</ele>
        <time>2023-12-30T15:09:12.000Z</time>
      </trkpt>
      <trkpt lat="43.42111" lon="3.47555">
        <ele>84.606261</ele>
        <time>2023-12-30T15:09:13.000Z</time>
      </trkpt>
      <trkpt lat="43.42113" lon="3.47551">
        <ele>84.705344</ele>
        <time>2023-12-30T15:09:14.000Z</time>
      </trkpt>
      <trkpt lat="43.42116" lon="3.47548">
        <ele>84.799858</ele>
        <time>2023-12-30T15:09:15.000Z</time>
      </trkpt>
      <trkpt lat="43.42117" lon="3.47544">
        <ele>84.888621</ele>
        <time>2023-12-30T15:09:16.000Z</time>
      </trkpt>
      <trkpt lat="43.42118" lon="3.4754">
        <ele>84.977968</ele>
        <time>2023-12-30T15:09:17.000Z</time>
      </trkpt>
      <trkpt lat="43.42119" lon="3.47537">
        <ele>85.051448</ele>
        <time>2023-12-30T15:09:18.000Z</time>
      </trkpt>
      <trkpt lat="43.4212" lon="3.47533">
        <ele>85.135311</ele>
        <time>2023-12-30T15:09:19.000Z</time>
      </trkpt>
      <trkpt lat="43.42122" lon="3.47529">
        <ele>85.224486</ele>
        <time>2023-12-30T15:09:20.000Z</time>
      </trkpt>
      <trkpt lat="43.42125" lon="3.47525">
        <ele>85.337083</ele>
        <time>2023-12-30T15:09:21.000Z</time>
      </trkpt>
      <trkpt lat="43.42127" lon="3.47521">
        <ele>85.444406</ele>
        <time>2023-12-30T15:09:22.000Z</time>
      </trkpt>
      <trkpt lat="43.42128" lon="3.47516">
        <ele>85.552956</ele>
        <time>2023-12-30T15:09:23.000Z</time>
      </trkpt>
      <trkpt lat="43.42128" lon="3.47512">
        <ele>85.636799</ele>
        <time>2023-12-30T15:09:24.000Z</time>
      </trkpt>
      <trkpt lat="43.42129" lon="3.47508">
        <ele>85.711643</ele>
        <time>2023-12-30T15:09:25.000Z</time>
      </trkpt>
      <trkpt lat="43.42131" lon="3.47505">
        <ele>85.788772</ele>
        <time>2023-12-30T15:09:26.000Z</time>
      </trkpt>
      <trkpt lat="43.42132" lon="3.475">
        <ele>85.890459</ele>
        <time>2023-12-30T15:09:27.000Z</time>
      </trkpt>
      <trkpt lat="43.42133" lon="3.47496">
        <ele>85.980651</ele>
        <time>2023-12-30T15:09:28.000Z</time>
      </trkpt>
      <trkpt lat="43.42136" lon="3.47493">
        <ele>86.083398</ele>
        <time>2023-12-30T15:09:29.000Z</time>
      </trkpt>
      <trkpt lat="43.42139" lon="3.47489">
        <ele>86.20425</ele>
        <time>2023-12-30T15:09:30.000Z</time>
      </trkpt>
      <trkpt lat="43.42142" lon="3.47484">
        <ele>86.328104</ele>
        <time>2023-12-30T15:09:31.000Z</time>
      </trkpt>
      <trkpt lat="43.42143" lon="3.47479">
        <ele>86.431953</ele>
        <time>2023-12-30T15:09:32.000Z</time>
      </trkpt>
      <trkpt lat="43.42144" lon="3.47476">
        <ele>86.509589</ele>
        <time>2023-12-30T15:09:33.000Z</time>
      </trkpt>
      <trkpt lat="43.42146" lon="3.47472">
        <ele>86.589797</ele>
        <time>2023-12-30T15:09:34.000Z</time>
      </trkpt>
      <trkpt lat="43.42148" lon="3.47468">
        <ele>86.685614</ele>
        <time>2023-12-30T15:09:35.000Z</time>
      </trkpt>
      <trkpt lat="43.42149" lon="3.47464">
        <ele>86.781108</ele>
        <time>2023-12-30T15:09:36.000Z</time>
      </trkpt>
      <trkpt lat="43.42152" lon="3.4746">
        <ele>86.901652</ele>
        <time>2023-12-30T15:09:37.000Z</time>
      </trkpt>
      <trkpt lat="43.42154" lon="3.47456">
        <ele>87.003876</ele>
        <time>2023-12-30T15:09:38.000Z</time>
      </trkpt>
      <trkpt lat="43.42156" lon="3.47452">
        <ele>87.110078</ele>
        <time>2023-12-30T15:09:39.000Z</time>
      </trkpt>
      <trkpt lat="43.42157" lon="3.47447">
        <ele>87.209017</ele>
        <time>2023-12-30T15:09:40.000Z</time>
      </trkpt>
      <trkpt lat="43.42158" lon="3.47442">
        <ele>87.318771</ele>
        <time>2023-12-30T15:09:41.000Z</time>
      </trkpt>
      <trkpt lat="43.4216" lon="3.47438">
        <ele>87.419542</ele>
        <time>2023-12-30T15:09:42.000Z</time>
      </trkpt>
      <trkpt lat="43.42162" lon="3.47433">
        <ele>87.519432</ele>
        <time>2023-12-30T15:09:43.000Z</time>
      </trkpt>
      <trkpt lat="43.42163" lon="3.4743">
        <ele>87.612236</ele>
        <time>2023-12-30T15:09:44.000Z</time>
      </trkpt>
      <trkpt lat="43.42164" lon="3.47426">
        <ele>87.688974</ele>
        <time>2023-12-30T15:09:45.000Z</time>
      </trkpt>
      <trkpt lat="43.42165" lon="3.47423">
        <ele>87.73026</ele>
        <time>2023-12-30T15:09:46.000Z</time>
      </trkpt>
      <trkpt lat="43.42164" lon="3.47419">
        <ele>87.750325</ele>
        <time>2023-12-30T15:09:47.000Z</time>
      </trkpt>
      <trkpt lat="43.42163" lon="3.47416">
        <ele>87.768835</ele>
        <time>2023-12-30T15:09:48.000Z</time>
      </trkpt>
      <trkpt lat="43.42161" lon="3.47414">
        <ele>87.786967</ele>
        <time>2023-12-30T15:09:49.000Z</time>
      </trkpt>
      <trkpt lat="43.4216" lon="3.4741">
        <ele>87.812387</ele>
        <time>2023-12-30T15:09:50.000Z</time>
      </trkpt>
      <trkpt lat="43.4216" lon="3.47406">
        <ele>87.832735</ele>
        <time>2023-12-30T15:09:51.000Z</time>
      </trkpt>
      <trkpt lat="43.42159" lon="3.47403">
        <ele>87.854596</ele>
        <time>2023-12-30T15:09:52.000Z</time>
      </trkpt>
      <trkpt lat="43.4216" lon="3.474">
        <ele>87.871962</ele>
        <time>2023-12-30T15:09:53.000Z</time>
      </trkpt>
      <trkpt lat="43.4216" lon="3.47398">
        <ele>87.885117</ele>
        <time>2023-12-30T15:09:54.000Z</time>
      </trkpt>
      <trkpt lat="43.42161" lon="3.47396">
        <ele>87.896743</ele>
        <time>2023-12-30T15:09:55.000Z</time>
      </trkpt>
      <trkpt lat="43.42163" lon="3.47395">
        <ele>87.908704</ele>
        <time>2023-12-30T15:09:56.000Z</time>
      </trkpt>
      <trkpt lat="43.42164" lon="3.47393">
        <ele>87.922587</ele>
        <time>2023-12-30T15:09:57.000Z</time>
      </trkpt>
      <trkpt lat="43.42165" lon="3.47392">
        <ele>87.934109</ele>
        <time>2023-12-30T15:09:58.000Z</time>
      </trkpt>
      <trkpt lat="43.42165" lon="3.4739">
        <ele>87.941626</ele>
        <time>2023-12-30T15:09:59.000Z</time>
      </trkpt>
      <trkpt lat="43.42165" lon="3.47389">
        <ele>87.946985</ele>
        <time>2023-12-30T15:10:00.000Z</time>
      </trkpt>
      <trkpt lat="43.42165" lon="3.47389">
        <ele>87.950235</ele>
        <time>2023-12-30T15:10:01.000Z</time>
      </trkpt>
      <trkpt lat="43.42165" lon="3.47389">
        <ele>87.950235</ele>
        <time>2023-12-30T15:10:02.000Z</time>
      </trkpt>
      <trkpt lat="43.42165" lon="3.47389">
        <ele>87.950235</ele>
        <time>2023-12-30T15:10:03.000Z</time>
      </trkpt>
      <trkpt lat="43.42165" lon="3.47389">
        <ele>87.950235</ele>
        <time>2023-12-30T15:10:04.000Z</time>
      </trkpt>
      <trkpt lat="43.42165" lon="3.47389">
        <ele>87.950235</ele>
        <time>2023-12-30T15:10:05.000Z</time>
      </trkpt>
      <trkpt lat="43.42165" lon="3.47389">
        <ele>87.950235</ele>
        <time>2023-12-30T15:10:06.000Z</time>
      </trkpt>
      <trkpt lat="43.42165" lon="3.47389">
        <ele>87.950235</ele>
        <time>2023-12-30T15:10:07.000Z</time>
      </trkpt>
      <trkpt lat="43.42165" lon="3.47389">
        <ele>87.950235</ele>
        <time>2023-12-30T15:10:08.000Z</time>
      </trkpt>
      <trkpt lat="43.42165" lon="3.47389">
        <ele>87.950235</ele>
        <time>2023-12-30T15:10:09.000Z</time>
      </trkpt>
      <trkpt lat="43.42165" lon="3.47389">
        <ele>87.950235</ele>
        <time>2023-12-30T15:10:10.000Z</time>
      </trkpt>
      <trkpt lat="43.42165" lon="3.47389">
        <ele>87.950235</ele>
        <time>2023-12-30T15:10:11.000Z</time>
      </trkpt>
      <trkpt lat="43.42165" lon="3.47389">
        <ele>87.950235</ele>
        <time>2023-12-30T15:10:12.000Z</time>
      </trkpt>
      <trkpt lat="43.42165" lon="3.47389">
        <ele>87.950235</ele>
        <time>2023-12-30T15:10:13.000Z</time>
      </trkpt>
      <trkpt lat="43.42165" lon="3.47389">
        <ele>87.950235</ele>
        <time>2023-12-30T15:10:14.000Z</time>
      </trkpt>
      <trkpt lat="43.42165" lon="3.47389">
        <ele>87.951203</ele>
        <time>2023-12-30T15:10:15.000Z</time>
      </trkpt>
      <trkpt lat="43.42166" lon="3.47387">
        <ele>87.962281</ele>
        <time>2023-12-30T15:10:16.000Z</time>
      </trkpt>
      <trkpt lat="43.42167" lon="3.47386">
        <ele>87.973062</ele>
        <time>2023-12-30T15:10:17.000Z</time>
      </trkpt>
      <trkpt lat="43.42168" lon="3.47384">
        <ele>87.989703</ele>
        <time>2023-12-30T15:10:18.000Z</time>
      </trkpt>
      <trkpt lat="43.4217" lon="3.4738">
        <ele>88.011956</ele>
        <time>2023-12-30T15:10:19.000Z</time>
      </trkpt>
      <trkpt lat="43.42171" lon="3.47377">
        <ele>88.032314</ele>
        <time>2023-12-30T15:10:20.000Z</time>
      </trkpt>
      <trkpt lat="43.42172" lon="3.47374">
        <ele>88.051321</ele>
        <time>2023-12-30T15:10:21.000Z</time>
      </trkpt>
      <trkpt lat="43.42173" lon="3.47371">
        <ele>88.067923</ele>
        <time>2023-12-30T15:10:22.000Z</time>
      </trkpt>
      <trkpt lat="43.42173" lon="3.47368">
        <ele>88.085091</ele>
        <time>2023-12-30T15:10:23.000Z</time>
      </trkpt>
      <trkpt lat="43.42174" lon="3.47365">
        <ele>88.105449</ele>
        <time>2023-12-30T15:10:24.000Z</time>
      </trkpt>
      <trkpt lat="43.42175" lon="3.47361">
        <ele>88.125797</ele>
        <time>2023-12-30T15:10:25.000Z</time>
      </trkpt>
      <trkpt lat="43.42176" lon="3.47358">
        <ele>88.147211</ele>
        <time>2023-12-30T15:10:26.000Z</time>
      </trkpt>
      <trkpt lat="43.42177" lon="3.47354">
        <ele>88.170101</ele>
        <time>2023-12-30T15:10:27.000Z</time>
      </trkpt>
      <trkpt lat="43.42178" lon="3.47351">
        <ele>88.189103</ele>
        <time>2023-12-30T15:10:28.000Z</time>
      </trkpt>
      <trkpt lat="43.4218" lon="3.47348">
        <ele>88.210625</ele>
        <time>2023-12-30T15:10:29.000Z</time>
      </trkpt>
      <trkpt lat="43.42181" lon="3.47345">
        <ele>88.232502</ele>
        <time>2023-12-30T15:10:30.000Z</time>
      </trkpt>
      <trkpt lat="43.42182" lon="3.47342">
        <ele>88.252501</ele>
        <time>2023-12-30T15:10:31.000Z</time>
      </trkpt>
      <trkpt lat="43.42183" lon="3.47338">
        <ele>88.271232</ele>
        <time>2023-12-30T15:10:32.000Z</time>
      </trkpt>
      <trkpt lat="43.42184" lon="3.47336">
        <ele>88.288665</ele>
        <time>2023-12-30T15:10:33.000Z</time>
      </trkpt>
      <trkpt lat="43.42185" lon="3.47333">
        <ele>88.308164</ele>
        <time>2023-12-30T15:10:34.000Z</time>
      </trkpt>
      <trkpt lat="43.42186" lon="3.4733">
        <ele>88.327808</ele>
        <time>2023-12-30T15:10:35.000Z</time>
      </trkpt>
      <trkpt lat="43.42187" lon="3.47327">
        <ele>88.345433</ele>
        <time>2023-12-30T15:10:36.000Z</time>
      </trkpt>
      <trkpt lat="43.42188" lon="3.47324">
        <ele>88.363455</ele>
        <time>2023-12-30T15:10:37.000Z</time>
      </trkpt>
      <trkpt lat="43.4219" lon="3.47321">
        <ele>88.384646</ele>
        <time>2023-12-30T15:10:38.000Z</time>
      </trkpt>
      <trkpt lat="43.42191" lon="3.47318">
        <ele>88.40378</ele>
        <time>2023-12-30T15:10:39.000Z</time>
      </trkpt>
      <trkpt lat="43.42192" lon="3.47314">
        <ele>88.424383</ele>
        <time>2023-12-30T15:10:40.000Z</time>
      </trkpt>
      <trkpt lat="43.42192" lon="3.47311">
        <ele>88.442323</ele>
        <time>2023-12-30T15:10:41.000Z</time>
      </trkpt>
      <trkpt lat="43.42193" lon="3.47308">
        <ele>88.4606</ele>
        <time>2023-12-30T15:10:42.000Z</time>
      </trkpt>
      <trkpt lat="43.42194" lon="3.47305">
        <ele>88.479868</ele>
        <time>2023-12-30T15:10:43.000Z</time>
      </trkpt>
      <trkpt lat="43.42195" lon="3.47302">
        <ele>88.499619</ele>
        <time>2023-12-30T15:10:44.000Z</time>
      </trkpt>
      <trkpt lat="43.42195" lon="3.47298">
        <ele>88.521203</ele>
        <time>2023-12-30T15:10:45.000Z</time>
      </trkpt>
      <trkpt lat="43.42196" lon="3.47294">
        <ele>88.542501</ele>
        <time>2023-12-30T15:10:46.000Z</time>
      </trkpt>
      <trkpt lat="43.42196" lon="3.47291">
        <ele>88.564641</ele>
        <time>2023-12-30T15:10:47.000Z</time>
      </trkpt>
      <trkpt lat="43.42196" lon="3.47287">
        <ele>88.586403</ele>
        <time>2023-12-30T15:10:48.000Z</time>
      </trkpt>
      <trkpt lat="43.42197" lon="3.47283">
        <ele>88.608732</ele>
        <time>2023-12-30T15:10:49.000Z</time>
      </trkpt>
      <trkpt lat="43.42197" lon="3.47279">
        <ele>88.629288</ele>
        <time>2023-12-30T15:10:50.000Z</time>
      </trkpt>
      <trkpt lat="43.42197" lon="3.47275">
        <ele>88.651617</ele>
        <time>2023-12-30T15:10:51.000Z</time>
      </trkpt>
      <trkpt lat="43.42197" lon="3.47272">
        <ele>88.67099</ele>
        <time>2023-12-30T15:10:52.000Z</time>
      </trkpt>
      <trkpt lat="43.42198" lon="3.47269">
        <ele>88.689477</ele>
        <time>2023-12-30T15:10:53.000Z</time>
      </trkpt>
      <trkpt lat="43.42198" lon="3.47266">
        <ele>88.707001</ele>
        <time>2023-12-30T15:10:54.000Z</time>
      </trkpt>
      <trkpt lat="43.42199" lon="3.47263">
        <ele>88.723418</ele>
        <time>2023-12-30T15:10:55.000Z</time>
      </trkpt>
      <trkpt lat="43.42199" lon="3.47261">
        <ele>88.736883</ele>
        <time>2023-12-30T15:10:56.000Z</time>
      </trkpt>
      <trkpt lat="43.422" lon="3.47258">
        <ele>88.750551</ele>
        <time>2023-12-30T15:10:57.000Z</time>
      </trkpt>
      <trkpt lat="43.422" lon="3.47256">
        <ele>88.762179</ele>
        <time>2023-12-30T15:10:58.000Z</time>
      </trkpt>
      <trkpt lat="43.42201" lon="3.47254">
        <ele>88.776377</ele>
        <time>2023-12-30T15:10:59.000Z</time>
      </trkpt>
      <trkpt lat="43.42201" lon="3.47251">
        <ele>88.793775</ele>
        <time>2023-12-30T15:11:00.000Z</time>
      </trkpt>
      <trkpt lat="43.42202" lon="3.47248">
        <ele>88.815189</ele>
        <time>2023-12-30T15:11:01.000Z</time>
      </trkpt>
      <trkpt lat="43.42203" lon="3.47244">
        <ele>88.836901</ele>
        <time>2023-12-30T15:11:02.000Z</time>
      </trkpt>
      <trkpt lat="43.42204" lon="3.47241">
        <ele>88.859117</ele>
        <time>2023-12-30T15:11:03.000Z</time>
      </trkpt>
      <trkpt lat="43.42206" lon="3.47236">
        <ele>88.884813</ele>
        <time>2023-12-30T15:11:04.000Z</time>
      </trkpt>
      <trkpt lat="43.42207" lon="3.47231">
        <ele>88.915087</ele>
        <time>2023-12-30T15:11:05.000Z</time>
      </trkpt>
      <trkpt lat="43.42208" lon="3.47227">
        <ele>88.944537</ele>
        <time>2023-12-30T15:11:06.000Z</time>
      </trkpt>
      <trkpt lat="43.4221" lon="3.47222">
        <ele>88.975578</ele>
        <time>2023-12-30T15:11:07.000Z</time>
      </trkpt>
      <trkpt lat="43.42211" lon="3.47217">
        <ele>89.003617</ele>
        <time>2023-12-30T15:11:08.000Z</time>
      </trkpt>
      <trkpt lat="43.42212" lon="3.47212">
        <ele>89.029323</ele>
        <time>2023-12-30T15:11:09.000Z</time>
      </trkpt>
      <trkpt lat="43.42213" lon="3.47208">
        <ele>89.057719</ele>
        <time>2023-12-30T15:11:10.000Z</time>
      </trkpt>
      <trkpt lat="43.42214" lon="3.47203">
        <ele>89.08876</ele>
        <time>2023-12-30T15:11:11.000Z</time>
      </trkpt>
      <trkpt lat="43.42216" lon="3.47198">
        <ele>89.11956</ele>
        <time>2023-12-30T15:11:12.000Z</time>
      </trkpt>
      <trkpt lat="43.42218" lon="3.47192">
        <ele>89.047331</ele>
        <time>2023-12-30T15:11:13.000Z</time>
      </trkpt>
      <trkpt lat="43.42219" lon="3.47187">
        <ele>88.939981</ele>
        <time>2023-12-30T15:11:14.000Z</time>
      </trkpt>
      <trkpt lat="43.4222" lon="3.47183">
        <ele>88.84899</ele>
        <time>2023-12-30T15:11:15.000Z</time>
      </trkpt>
      <trkpt lat="43.42222" lon="3.47179">
        <ele>88.760905</ele>
        <time>2023-12-30T15:11:16.000Z</time>
      </trkpt>
      <trkpt lat="43.42223" lon="3.47174">
        <ele>88.659823</ele>
        <time>2023-12-30T15:11:17.000Z</time>
      </trkpt>
      <trkpt lat="43.42225" lon="3.4717">
        <ele>88.557621</ele>
        <time>2023-12-30T15:11:18.000Z</time>
      </trkpt>
      <trkpt lat="43.42226" lon="3.47165">
        <ele>88.453054</ele>
        <time>2023-12-30T15:11:19.000Z</time>
      </trkpt>
      <trkpt lat="43.42227" lon="3.47159">
        <ele>88.338093</ele>
        <time>2023-12-30T15:11:20.000Z</time>
      </trkpt>
      <trkpt lat="43.42229" lon="3.47154">
        <ele>88.229755</ele>
        <time>2023-12-30T15:11:21.000Z</time>
      </trkpt>
      <trkpt lat="43.4223" lon="3.47149">
        <ele>88.125003</ele>
        <time>2023-12-30T15:11:22.000Z</time>
      </trkpt>
      <trkpt lat="43.42231" lon="3.47144">
        <ele>88.022137</ele>
        <time>2023-12-30T15:11:23.000Z</time>
      </trkpt>
      <trkpt lat="43.42232" lon="3.47139">
        <ele>87.916884</ele>
        <time>2023-12-30T15:11:24.000Z</time>
      </trkpt>
      <trkpt lat="43.42233" lon="3.47133">
        <ele>87.810299</ele>
        <time>2023-12-30T15:11:25.000Z</time>
      </trkpt>
      <trkpt lat="43.42233" lon="3.47128">
        <ele>87.713212</ele>
        <time>2023-12-30T15:11:26.000Z</time>
      </trkpt>
      <trkpt lat="43.42234" lon="3.47123">
        <ele>87.60565</ele>
        <time>2023-12-30T15:11:27.000Z</time>
      </trkpt>
      <trkpt lat="43.42234" lon="3.47117">
        <ele>87.493275</ele>
        <time>2023-12-30T15:11:28.000Z</time>
      </trkpt>
      <trkpt lat="43.42235" lon="3.47112">
        <ele>87.385714</ele>
        <time>2023-12-30T15:11:29.000Z</time>
      </trkpt>
      <trkpt lat="43.42236" lon="3.47107">
        <ele>87.283601</ele>
        <time>2023-12-30T15:11:30.000Z</time>
      </trkpt>
      <trkpt lat="43.42237" lon="3.47102">
        <ele>87.181489</ele>
        <time>2023-12-30T15:11:31.000Z</time>
      </trkpt>
      <trkpt lat="43.42238" lon="3.47096">
        <ele>87.063459</ele>
        <time>2023-12-30T15:11:32.000Z</time>
      </trkpt>
      <trkpt lat="43.42239" lon="3.47091">
        <ele>86.952367</ele>
        <time>2023-12-30T15:11:33.000Z</time>
      </trkpt>
      <trkpt lat="43.42239" lon="3.47085">
        <ele>86.834198</ele>
        <time>2023-12-30T15:11:34.000Z</time>
      </trkpt>
      <trkpt lat="43.42239" lon="3.47079">
        <ele>86.723936</ele>
        <time>2023-12-30T15:11:35.000Z</time>
      </trkpt>
      <trkpt lat="43.42238" lon="3.47073">
        <ele>86.607735</ele>
        <time>2023-12-30T15:11:36.000Z</time>
      </trkpt>
      <trkpt lat="43.42239" lon="3.47067">
        <ele>86.485629</ele>
        <time>2023-12-30T15:11:37.000Z</time>
      </trkpt>
      <trkpt lat="43.42239" lon="3.4706">
        <ele>86.351301</ele>
        <time>2023-12-30T15:11:38.000Z</time>
      </trkpt>
      <trkpt lat="43.42239" lon="3.47053">
        <ele>86.207541</ele>
        <time>2023-12-30T15:11:39.000Z</time>
      </trkpt>
      <trkpt lat="43.42239" lon="3.47046">
        <ele>86.065671</ele>
        <time>2023-12-30T15:11:40.000Z</time>
      </trkpt>
      <trkpt lat="43.42239" lon="3.47038">
        <ele>85.910099</ele>
        <time>2023-12-30T15:11:41.000Z</time>
      </trkpt>
      <trkpt lat="43.42239" lon="3.47029">
        <ele>85.732561</ele>
        <time>2023-12-30T15:11:42.000Z</time>
      </trkpt>
      <trkpt lat="43.42238" lon="3.4702">
        <ele>85.565377</ele>
        <time>2023-12-30T15:11:43.000Z</time>
      </trkpt>
      <trkpt lat="43.42237" lon="3.47011">
        <ele>85.388</ele>
        <time>2023-12-30T15:11:44.000Z</time>
      </trkpt>
      <trkpt lat="43.42235" lon="3.47003">
        <ele>85.208324</ele>
        <time>2023-12-30T15:11:45.000Z</time>
      </trkpt>
      <trkpt lat="43.42232" lon="3.46993">
        <ele>85.013995</ele>
        <time>2023-12-30T15:11:46.000Z</time>
      </trkpt>
      <trkpt lat="43.4223" lon="3.46984">
        <ele>84.820354</ele>
        <time>2023-12-30T15:11:47.000Z</time>
      </trkpt>
      <trkpt lat="43.42229" lon="3.46975">
        <ele>84.633348</ele>
        <time>2023-12-30T15:11:48.000Z</time>
      </trkpt>
      <trkpt lat="43.42229" lon="3.46966">
        <ele>84.452182</ele>
        <time>2023-12-30T15:11:49.000Z</time>
      </trkpt>
      <trkpt lat="43.42229" lon="3.46957">
        <ele>84.278722</ele>
        <time>2023-12-30T15:11:50.000Z</time>
      </trkpt>
      <trkpt lat="43.42231" lon="3.46949">
        <ele>84.24895</ele>
        <time>2023-12-30T15:11:51.000Z</time>
      </trkpt>
      <trkpt lat="43.42232" lon="3.46942">
        <ele>84.24475</ele>
        <time>2023-12-30T15:11:52.000Z</time>
      </trkpt>
      <trkpt lat="43.42234" lon="3.46935">
        <ele>84.240409</ele>
        <time>2023-12-30T15:11:53.000Z</time>
      </trkpt>
      <trkpt lat="43.42237" lon="3.46928">
        <ele>84.235537</ele>
        <time>2023-12-30T15:11:54.000Z</time>
      </trkpt>
      <trkpt lat="43.4224" lon="3.46921">
        <ele>84.230828</ele>
        <time>2023-12-30T15:11:55.000Z</time>
      </trkpt>
      <trkpt lat="43.42243" lon="3.46915">
        <ele>84.226464</ele>
        <time>2023-12-30T15:11:56.000Z</time>
      </trkpt>
      <trkpt lat="43.42246" lon="3.4691">
        <ele>84.22249</ele>
        <time>2023-12-30T15:11:57.000Z</time>
      </trkpt>
      <trkpt lat="43.42248" lon="3.46904">
        <ele>84.218591</ele>
        <time>2023-12-30T15:11:58.000Z</time>
      </trkpt>
      <trkpt lat="43.4225" lon="3.46898">
        <ele>84.214987</ele>
        <time>2023-12-30T15:11:59.000Z</time>
      </trkpt>
      <trkpt lat="43.42252" lon="3.46893">
        <ele>84.211645</ele>
        <time>2023-12-30T15:12:00.000Z</time>
      </trkpt>
      <trkpt lat="43.42253" lon="3.46888">
        <ele>84.208248</ele>
        <time>2023-12-30T15:12:01.000Z</time>
      </trkpt>
      <trkpt lat="43.42255" lon="3.46882">
        <ele>84.204906</ele>
        <time>2023-12-30T15:12:02.000Z</time>
      </trkpt>
      <trkpt lat="43.42256" lon="3.46877">
        <ele>84.201551</ele>
        <time>2023-12-30T15:12:03.000Z</time>
      </trkpt>
      <trkpt lat="43.42257" lon="3.46871">
        <ele>84.198153</ele>
        <time>2023-12-30T15:12:04.000Z</time>
      </trkpt>
      <trkpt lat="43.42258" lon="3.46866">
        <ele>84.194775</ele>
        <time>2023-12-30T15:12:05.000Z</time>
      </trkpt>
      <trkpt lat="43.42258" lon="3.46861">
        <ele>84.191572</ele>
        <time>2023-12-30T15:12:06.000Z</time>
      </trkpt>
      <trkpt lat="43.4226" lon="3.46855">
        <ele>84.18831</ele>
        <time>2023-12-30T15:12:07.000Z</time>
      </trkpt>
      <trkpt lat="43.42261" lon="3.4685">
        <ele>84.18484</ele>
        <time>2023-12-30T15:12:08.000Z</time>
      </trkpt>
      <trkpt lat="43.42261" lon="3.46845">
        <ele>84.18181</ele>
        <time>2023-12-30T15:12:09.000Z</time>
      </trkpt>
      <trkpt lat="43.42262" lon="3.46839">
        <ele>84.178532</ele>
        <time>2023-12-30T15:12:10.000Z</time>
      </trkpt>
      <trkpt lat="43.42263" lon="3.46834">
        <ele>84.175154</ele>
        <time>2023-12-30T15:12:11.000Z</time>
      </trkpt>
      <trkpt lat="43.42264" lon="3.46828">
        <ele>84.171863</ele>
        <time>2023-12-30T15:12:12.000Z</time>
      </trkpt>
      <trkpt lat="43.42265" lon="3.46823">
        <ele>84.168642</ele>
        <time>2023-12-30T15:12:13.000Z</time>
      </trkpt>
      <trkpt lat="43.42265" lon="3.46818">
        <ele>84.165536</ele>
        <time>2023-12-30T15:12:14.000Z</time>
      </trkpt>
      <trkpt lat="43.42266" lon="3.46813">
        <ele>84.162596</ele>
        <time>2023-12-30T15:12:15.000Z</time>
      </trkpt>
      <trkpt lat="43.42267" lon="3.46808">
        <ele>84.15964</ele>
        <time>2023-12-30T15:12:16.000Z</time>
      </trkpt>
      <trkpt lat="43.42268" lon="3.46803">
        <ele>84.156495</ele>
        <time>2023-12-30T15:12:17.000Z</time>
      </trkpt>
      <trkpt lat="43.42268" lon="3.46798">
        <ele>84.153508</ele>
        <time>2023-12-30T15:12:18.000Z</time>
      </trkpt>
      <trkpt lat="43.42269" lon="3.46792">
        <ele>84.150029</ele>
        <time>2023-12-30T15:12:19.000Z</time>
      </trkpt>
      <trkpt lat="43.42269" lon="3.46786">
        <ele>84.146621</ele>
        <time>2023-12-30T15:12:20.000Z</time>
      </trkpt>
      <trkpt lat="43.4227" lon="3.4678">
        <ele>84.143066</ele>
        <time>2023-12-30T15:12:21.000Z</time>
      </trkpt>
      <trkpt lat="43.4227" lon="3.46774">
        <ele>84.139396</ele>
        <time>2023-12-30T15:12:22.000Z</time>
      </trkpt>
      <trkpt lat="43.4227" lon="3.46768">
        <ele>84.135665</ele>
        <time>2023-12-30T15:12:23.000Z</time>
      </trkpt>
      <trkpt lat="43.4227" lon="3.46761">
        <ele>84.131936</ele>
        <time>2023-12-30T15:12:24.000Z</time>
      </trkpt>
      <trkpt lat="43.4227" lon="3.46755">
        <ele>84.128027</ele>
        <time>2023-12-30T15:12:25.000Z</time>
      </trkpt>
      <trkpt lat="43.42269" lon="3.46749">
        <ele>84.124336</ele>
        <time>2023-12-30T15:12:26.000Z</time>
      </trkpt>
      <trkpt lat="43.42269" lon="3.46742">
        <ele>84.120299</ele>
        <time>2023-12-30T15:12:27.000Z</time>
      </trkpt>
      <trkpt lat="43.42269" lon="3.46735">
        <ele>84.116511</ele>
        <time>2023-12-30T15:12:28.000Z</time>
      </trkpt>
      <trkpt lat="43.42269" lon="3.46729">
        <ele>84.11278</ele>
        <time>2023-12-30T15:12:29.000Z</time>
      </trkpt>
      <trkpt lat="43.42269" lon="3.46723">
        <ele>84.109169</ele>
        <time>2023-12-30T15:12:30.000Z</time>
      </trkpt>
      <trkpt lat="43.42269" lon="3.46717">
        <ele>84.089566</ele>
        <time>2023-12-30T15:12:31.000Z</time>
      </trkpt>
      <trkpt lat="43.42269" lon="3.46711">
        <ele>84.020995</ele>
        <time>2023-12-30T15:12:32.000Z</time>
      </trkpt>
      <trkpt lat="43.42269" lon="3.46706">
        <ele>83.953685</ele>
        <time>2023-12-30T15:12:33.000Z</time>
      </trkpt>
      <trkpt lat="43.42269" lon="3.467">
        <ele>83.885114</ele>
        <time>2023-12-30T15:12:34.000Z</time>
      </trkpt>
      <trkpt lat="43.42269" lon="3.46695">
        <ele>83.817825</ele>
        <time>2023-12-30T15:12:35.000Z</time>
      </trkpt>
      <trkpt lat="43.42269" lon="3.46689">
        <ele>83.75532</ele>
        <time>2023-12-30T15:12:36.000Z</time>
      </trkpt>
      <trkpt lat="43.4227" lon="3.46684">
        <ele>83.687847</ele>
        <time>2023-12-30T15:12:37.000Z</time>
      </trkpt>
      <trkpt lat="43.4227" lon="3.46678">
        <ele>83.616876</ele>
        <time>2023-12-30T15:12:38.000Z</time>
      </trkpt>
      <trkpt lat="43.4227" lon="3.46672">
        <ele>83.542211</ele>
        <time>2023-12-30T15:12:39.000Z</time>
      </trkpt>
      <trkpt lat="43.42271" lon="3.46665">
        <ele>83.463479</ele>
        <time>2023-12-30T15:12:40.000Z</time>
      </trkpt>
      <trkpt lat="43.42271" lon="3.46659">
        <ele>83.391307</ele>
        <time>2023-12-30T15:12:41.000Z</time>
      </trkpt>
      <trkpt lat="43.42271" lon="3.46653">
        <ele>83.319041</ele>
        <time>2023-12-30T15:12:42.000Z</time>
      </trkpt>
      <trkpt lat="43.42271" lon="3.46647">
        <ele>83.246945</ele>
        <time>2023-12-30T15:12:43.000Z</time>
      </trkpt>
      <trkpt lat="43.42271" lon="3.46642">
        <ele>83.179635</ele>
        <time>2023-12-30T15:12:44.000Z</time>
      </trkpt>
      <trkpt lat="43.42272" lon="3.46635">
        <ele>83.104678</ele>
        <time>2023-12-30T15:12:45.000Z</time>
      </trkpt>
      <trkpt lat="43.42272" lon="3.4663">
        <ele>83.034985</ele>
        <time>2023-12-30T15:12:46.000Z</time>
      </trkpt>
      <trkpt lat="43.42272" lon="3.46624">
        <ele>82.969909</ele>
        <time>2023-12-30T15:12:47.000Z</time>
      </trkpt>
      <trkpt lat="43.42272" lon="3.46619">
        <ele>82.904939</ele>
        <time>2023-12-30T15:12:48.000Z</time>
      </trkpt>
      <trkpt lat="43.42272" lon="3.46613">
        <ele>82.840031</ele>
        <time>2023-12-30T15:12:49.000Z</time>
      </trkpt>
      <trkpt lat="43.42272" lon="3.46609">
        <ele>82.78226</ele>
        <time>2023-12-30T15:12:50.000Z</time>
      </trkpt>
      <trkpt lat="43.42272" lon="3.46603">
        <ele>82.720889</ele>
        <time>2023-12-30T15:12:51.000Z</time>
      </trkpt>
      <trkpt lat="43.42272" lon="3.46598">
        <ele>82.653579</ele>
        <time>2023-12-30T15:12:52.000Z</time>
      </trkpt>
      <trkpt lat="43.42272" lon="3.46592">
        <ele>82.587408</ele>
        <time>2023-12-30T15:12:53.000Z</time>
      </trkpt>
      <trkpt lat="43.42272" lon="3.46587">
        <ele>82.521299</ele>
        <time>2023-12-30T15:12:54.000Z</time>
      </trkpt>
      <trkpt lat="43.42272" lon="3.46581">
        <ele>82.450405</ele>
        <time>2023-12-30T15:12:55.000Z</time>
      </trkpt>
      <trkpt lat="43.42272" lon="3.46575">
        <ele>82.377089</ele>
        <time>2023-12-30T15:12:56.000Z</time>
      </trkpt>
      <trkpt lat="43.42271" lon="3.46569">
        <ele>82.309617</ele>
        <time>2023-12-30T15:12:57.000Z</time>
      </trkpt>
      <trkpt lat="43.42271" lon="3.46563">
        <ele>82.239924</ele>
        <time>2023-12-30T15:12:58.000Z</time>
      </trkpt>
      <trkpt lat="43.42271" lon="3.46558">
        <ele>82.170211</ele>
        <time>2023-12-30T15:12:59.000Z</time>
      </trkpt>
      <trkpt lat="43.42271" lon="3.46552">
        <ele>82.100499</ele>
        <time>2023-12-30T15:13:00.000Z</time>
      </trkpt>
      <trkpt lat="43.42271" lon="3.46546">
        <ele>82.027034</ele>
        <time>2023-12-30T15:13:01.000Z</time>
      </trkpt>
      <trkpt lat="43.42271" lon="3.4654">
        <ele>81.953661</ele>
        <time>2023-12-30T15:13:02.000Z</time>
      </trkpt>
      <trkpt lat="43.4227" lon="3.46533">
        <ele>81.878997</ele>
        <time>2023-12-30T15:13:03.000Z</time>
      </trkpt>
      <trkpt lat="43.4227" lon="3.46528">
        <ele>81.808991</ele>
        <time>2023-12-30T15:13:04.000Z</time>
      </trkpt>
      <trkpt lat="43.4227" lon="3.46522">
        <ele>81.736724</ele>
        <time>2023-12-30T15:13:05.000Z</time>
      </trkpt>
      <trkpt lat="43.42269" lon="3.46516">
        <ele>81.671083</ele>
        <time>2023-12-30T15:13:06.000Z</time>
      </trkpt>
      <trkpt lat="43.42269" lon="3.4651">
        <ele>81.600901</ele>
        <time>2023-12-30T15:13:07.000Z</time>
      </trkpt>
      <trkpt lat="43.42268" lon="3.46505">
        <ele>81.53233</ele>
        <time>2023-12-30T15:13:08.000Z</time>
      </trkpt>
      <trkpt lat="43.42268" lon="3.46499">
        <ele>81.462324</ele>
        <time>2023-12-30T15:13:09.000Z</time>
      </trkpt>
      <trkpt lat="43.42268" lon="3.46493">
        <ele>81.390948</ele>
        <time>2023-12-30T15:13:10.000Z</time>
      </trkpt>
      <trkpt lat="43.42267" lon="3.46487">
        <ele>81.315283</ele>
        <time>2023-12-30T15:13:11.000Z</time>
      </trkpt>
      <trkpt lat="43.42266" lon="3.46481">
        <ele>81.242883</ele>
        <time>2023-12-30T15:13:12.000Z</time>
      </trkpt>
      <trkpt lat="43.42266" lon="3.46475">
        <ele>81.168311</ele>
        <time>2023-12-30T15:13:13.000Z</time>
      </trkpt>
      <trkpt lat="43.42266" lon="3.46468">
        <ele>81.105954</ele>
        <time>2023-12-30T15:13:14.000Z</time>
      </trkpt>
      <trkpt lat="43.42265" lon="3.46463">
        <ele>81.059453</ele>
        <time>2023-12-30T15:13:15.000Z</time>
      </trkpt>
      <trkpt lat="43.42265" lon="3.46457">
        <ele>81.011075</ele>
        <time>2023-12-30T15:13:16.000Z</time>
      </trkpt>
      <trkpt lat="43.42265" lon="3.46451">
        <ele>80.967511</ele>
        <time>2023-12-30T15:13:17.000Z</time>
      </trkpt>
      <trkpt lat="43.42264" lon="3.46447">
        <ele>80.930892</ele>
        <time>2023-12-30T15:13:18.000Z</time>
      </trkpt>
      <trkpt lat="43.42263" lon="3.46443">
        <ele>80.901377</ele>
        <time>2023-12-30T15:13:19.000Z</time>
      </trkpt>
      <trkpt lat="43.42263" lon="3.46441">
        <ele>80.879072</ele>
        <time>2023-12-30T15:13:20.000Z</time>
      </trkpt>
      <trkpt lat="43.42262" lon="3.46438">
        <ele>80.85964</ele>
        <time>2023-12-30T15:13:21.000Z</time>
      </trkpt>
      <trkpt lat="43.42262" lon="3.46438">
        <ele>80.85433</ele>
        <time>2023-12-30T15:13:22.000Z</time>
      </trkpt>
      <trkpt lat="43.42262" lon="3.46438">
        <ele>80.853526</ele>
        <time>2023-12-30T15:13:23.000Z</time>
      </trkpt>
      <trkpt lat="43.42262" lon="3.46438">
        <ele>80.852418</ele>
        <time>2023-12-30T15:13:24.000Z</time>
      </trkpt>
      <trkpt lat="43.42262" lon="3.46438">
        <ele>80.851311</ele>
        <time>2023-12-30T15:13:25.000Z</time>
      </trkpt>
      <trkpt lat="43.42262" lon="3.46438">
        <ele>80.851311</ele>
        <time>2023-12-30T15:13:26.000Z</time>
      </trkpt>
      <trkpt lat="43.42262" lon="3.46438">
        <ele>80.851311</ele>
        <time>2023-12-30T15:13:27.000Z</time>
      </trkpt>
      <trkpt lat="43.42262" lon="3.46438">
        <ele>80.851311</ele>
        <time>2023-12-30T15:13:28.000Z</time>
      </trkpt>
      <trkpt lat="43.42262" lon="3.46438">
        <ele>80.851311</ele>
        <time>2023-12-30T15:13:29.000Z</time>
      </trkpt>
      <trkpt lat="43.42262" lon="3.46438">
        <ele>80.851311</ele>
        <time>2023-12-30T15:13:30.000Z</time>
      </trkpt>
      <trkpt lat="43.42262" lon="3.46438">
        <ele>80.851311</ele>
        <time>2023-12-30T15:13:31.000Z</time>
      </trkpt>
      <trkpt lat="43.42262" lon="3.46438">
        <ele>80.851311</ele>
        <time>2023-12-30T15:13:32.000Z</time>
      </trkpt>
      <trkpt lat="43.42262" lon="3.46438">
        <ele>80.851311</ele>
        <time>2023-12-30T15:13:33.000Z</time>
      </trkpt>
      <trkpt lat="43.42262" lon="3.46438">
        <ele>80.851311</ele>
        <time>2023-12-30T15:13:34.000Z</time>
      </trkpt>
      <trkpt lat="43.42262" lon="3.46438">
        <ele>80.851311</ele>
        <time>2023-12-30T15:13:35.000Z</time>
      </trkpt>
      <trkpt lat="43.42262" lon="3.46438">
        <ele>80.851311</ele>
        <time>2023-12-30T15:13:36.000Z</time>
      </trkpt>
      <trkpt lat="43.42262" lon="3.46438">
        <ele>80.851311</ele>
        <time>2023-12-30T15:13:37.000Z</time>
      </trkpt>
      <trkpt lat="43.42262" lon="3.46438">
        <ele>80.851311</ele>
        <time>2023-12-30T15:13:38.000Z</time>
      </trkpt>
      <trkpt lat="43.42262" lon="3.46438">
        <ele>80.851311</ele>
        <time>2023-12-30T15:13:39.000Z</time>
      </trkpt>
      <trkpt lat="43.42262" lon="3.46438">
        <ele>80.851311</ele>
        <time>2023-12-30T15:13:40.000Z</time>
      </trkpt>
      <trkpt lat="43.42262" lon="3.46438">
        <ele>80.851311</ele>
        <time>2023-12-30T15:13:41.000Z</time>
      </trkpt>
      <trkpt lat="43.42262" lon="3.46438">
        <ele>80.851311</ele>
        <time>2023-12-30T15:13:42.000Z</time>
      </trkpt>
      <trkpt lat="43.42262" lon="3.46438">
        <ele>80.851311</ele>
        <time>2023-12-30T15:13:43.000Z</time>
      </trkpt>
      <trkpt lat="43.42262" lon="3.46438">
        <ele>80.851311</ele>
        <time>2023-12-30T15:13:44.000Z</time>
      </trkpt>
      <trkpt lat="43.42262" lon="3.46438">
        <ele>80.851311</ele>
        <time>2023-12-30T15:13:45.000Z</time>
      </trkpt>
      <trkpt lat="43.42262" lon="3.46438">
        <ele>80.851311</ele>
        <time>2023-12-30T15:13:46.000Z</time>
      </trkpt>
      <trkpt lat="43.42262" lon="3.46438">
        <ele>80.851311</ele>
        <time>2023-12-30T15:13:47.000Z</time>
      </trkpt>
      <trkpt lat="43.42262" lon="3.46438">
        <ele>80.851311</ele>
        <time>2023-12-30T15:13:48.000Z</time>
      </trkpt>
      <trkpt lat="43.42262" lon="3.46438">
        <ele>80.850203</ele>
        <time>2023-12-30T15:13:49.000Z</time>
      </trkpt>
      <trkpt lat="43.42262" lon="3.46438">
        <ele>80.850203</ele>
        <time>2023-12-30T15:13:50.000Z</time>
      </trkpt>
      <trkpt lat="43.42262" lon="3.46438">
        <ele>80.850203</ele>
        <time>2023-12-30T15:13:51.000Z</time>
      </trkpt>
      <trkpt lat="43.42262" lon="3.46438">
        <ele>80.849096</ele>
        <time>2023-12-30T15:13:52.000Z</time>
      </trkpt>
      <trkpt lat="43.42262" lon="3.46438">
        <ele>80.847988</ele>
        <time>2023-12-30T15:13:53.000Z</time>
      </trkpt>
      <trkpt lat="43.42262" lon="3.46438">
        <ele>80.847184</ele>
        <time>2023-12-30T15:13:54.000Z</time>
      </trkpt>
      <trkpt lat="43.42262" lon="3.46438">
        <ele>80.847184</ele>
        <time>2023-12-30T15:13:55.000Z</time>
      </trkpt>
      <trkpt lat="43.42262" lon="3.46438">
        <ele>80.847184</ele>
        <time>2023-12-30T15:13:56.000Z</time>
      </trkpt>
      <trkpt lat="43.42262" lon="3.46438">
        <ele>80.847184</ele>
        <time>2023-12-30T15:13:57.000Z</time>
      </trkpt>
      <trkpt lat="43.42262" lon="3.46438">
        <ele>80.847184</ele>
        <time>2023-12-30T15:13:58.000Z</time>
      </trkpt>
      <trkpt lat="43.42262" lon="3.46438">
        <ele>80.846379</ele>
        <time>2023-12-30T15:13:59.000Z</time>
      </trkpt>
      <trkpt lat="43.42262" lon="3.46436">
        <ele>80.835118</ele>
        <time>2023-12-30T15:14:00.000Z</time>
      </trkpt>
      <trkpt lat="43.42262" lon="3.46435">
        <ele>80.8222</ele>
        <time>2023-12-30T15:14:01.000Z</time>
      </trkpt>
      <trkpt lat="43.42262" lon="3.46433">
        <ele>80.804503</ele>
        <time>2023-12-30T15:14:02.000Z</time>
      </trkpt>
      <trkpt lat="43.42262" lon="3.4643">
        <ele>80.78587</ele>
        <time>2023-12-30T15:14:03.000Z</time>
      </trkpt>
      <trkpt lat="43.42262" lon="3.46428">
        <ele>80.768407</ele>
        <time>2023-12-30T15:14:04.000Z</time>
      </trkpt>
      <trkpt lat="43.42262" lon="3.46426">
        <ele>80.749774</ele>
        <time>2023-12-30T15:14:05.000Z</time>
      </trkpt>
      <trkpt lat="43.42262" lon="3.46423">
        <ele>80.72642</ele>
        <time>2023-12-30T15:14:06.000Z</time>
      </trkpt>
      <trkpt lat="43.42261" lon="3.4642">
        <ele>80.697727</ele>
        <time>2023-12-30T15:14:07.000Z</time>
      </trkpt>
      <trkpt lat="43.4226" lon="3.46416">
        <ele>80.66631</ele>
        <time>2023-12-30T15:14:08.000Z</time>
      </trkpt>
      <trkpt lat="43.42259" lon="3.46412">
        <ele>80.636057</ele>
        <time>2023-12-30T15:14:09.000Z</time>
      </trkpt>
      <trkpt lat="43.42258" lon="3.46409">
        <ele>80.605053</ele>
        <time>2023-12-30T15:14:10.000Z</time>
      </trkpt>
      <trkpt lat="43.42257" lon="3.46405">
        <ele>80.574427</ele>
        <time>2023-12-30T15:14:11.000Z</time>
      </trkpt>
      <trkpt lat="43.42256" lon="3.46402">
        <ele>80.545679</ele>
        <time>2023-12-30T15:14:12.000Z</time>
      </trkpt>
      <trkpt lat="43.42256" lon="3.46398">
        <ele>80.513611</ele>
        <time>2023-12-30T15:14:13.000Z</time>
      </trkpt>
      <trkpt lat="43.42255" lon="3.46394">
        <ele>80.48233</ele>
        <time>2023-12-30T15:14:14.000Z</time>
      </trkpt>
      <trkpt lat="43.42254" lon="3.4639">
        <ele>80.448999</ele>
        <time>2023-12-30T15:14:15.000Z</time>
      </trkpt>
      <trkpt lat="43.42252" lon="3.46387">
        <ele>80.417083</ele>
        <time>2023-12-30T15:14:16.000Z</time>
      </trkpt>
      <trkpt lat="43.4225" lon="3.46385">
        <ele>80.3856</ele>
        <time>2023-12-30T15:14:17.000Z</time>
      </trkpt>
      <trkpt lat="43.42247" lon="3.46383">
        <ele>80.351709</ele>
        <time>2023-12-30T15:14:18.000Z</time>
      </trkpt>
      <trkpt lat="43.42244" lon="3.46382">
        <ele>80.314286</ele>
        <time>2023-12-30T15:14:19.000Z</time>
      </trkpt>
      <trkpt lat="43.42241" lon="3.46382">
        <ele>80.281022</ele>
        <time>2023-12-30T15:14:20.000Z</time>
      </trkpt>
      <trkpt lat="43.42238" lon="3.46383">
        <ele>80.243599</ele>
        <time>2023-12-30T15:14:21.000Z</time>
      </trkpt>
      <trkpt lat="43.42234" lon="3.46384">
        <ele>80.205525</ele>
        <time>2023-12-30T15:14:22.000Z</time>
      </trkpt>
      <trkpt lat="43.42231" lon="3.46384">
        <ele>80.165646</ele>
        <time>2023-12-30T15:14:23.000Z</time>
      </trkpt>
      <trkpt lat="43.42227" lon="3.46383">
        <ele>80.127301</ele>
        <time>2023-12-30T15:14:24.000Z</time>
      </trkpt>
      <trkpt lat="43.42225" lon="3.46381">
        <ele>80.093074</ele>
        <time>2023-12-30T15:14:25.000Z</time>
      </trkpt>
      <trkpt lat="43.42223" lon="3.46378">
        <ele>80.061484</ele>
        <time>2023-12-30T15:14:26.000Z</time>
      </trkpt>
      <trkpt lat="43.42221" lon="3.46374">
        <ele>80.025767</ele>
        <time>2023-12-30T15:14:27.000Z</time>
      </trkpt>
      <trkpt lat="43.4222" lon="3.4637">
        <ele>79.987913</ele>
        <time>2023-12-30T15:14:28.000Z</time>
      </trkpt>
      <trkpt lat="43.4222" lon="3.46364">
        <ele>79.944419</ele>
        <time>2023-12-30T15:14:29.000Z</time>
      </trkpt>
      <trkpt lat="43.4222" lon="3.46358">
        <ele>79.897712</ele>
        <time>2023-12-30T15:14:30.000Z</time>
      </trkpt>
      <trkpt lat="43.42219" lon="3.46353">
        <ele>79.853125</ele>
        <time>2023-12-30T15:14:31.000Z</time>
      </trkpt>
      <trkpt lat="43.42219" lon="3.46347">
        <ele>79.809001</ele>
        <time>2023-12-30T15:14:32.000Z</time>
      </trkpt>
      <trkpt lat="43.42219" lon="3.46343">
        <ele>79.771982</ele>
        <time>2023-12-30T15:14:33.000Z</time>
      </trkpt>
      <trkpt lat="43.42218" lon="3.46338">
        <ele>79.735632</ele>
        <time>2023-12-30T15:14:34.000Z</time>
      </trkpt>
      <trkpt lat="43.42218" lon="3.46334">
        <ele>79.697005</ele>
        <time>2023-12-30T15:14:35.000Z</time>
      </trkpt>
      <trkpt lat="43.42218" lon="3.46329">
        <ele>79.657623</ele>
        <time>2023-12-30T15:14:36.000Z</time>
      </trkpt>
      <trkpt lat="43.42216" lon="3.46324">
        <ele>79.613013</ele>
        <time>2023-12-30T15:14:37.000Z</time>
      </trkpt>
      <trkpt lat="43.42215" lon="3.46319">
        <ele>79.572526</ele>
        <time>2023-12-30T15:14:38.000Z</time>
      </trkpt>
      <trkpt lat="43.42215" lon="3.46313">
        <ele>79.529835</ele>
        <time>2023-12-30T15:14:39.000Z</time>
      </trkpt>
      <trkpt lat="43.42215" lon="3.46308">
        <ele>79.483771</ele>
        <time>2023-12-30T15:14:40.000Z</time>
      </trkpt>
      <trkpt lat="43.42214" lon="3.46302">
        <ele>79.437861</ele>
        <time>2023-12-30T15:14:41.000Z</time>
      </trkpt>
      <trkpt lat="43.42213" lon="3.46297">
        <ele>79.392476</ele>
        <time>2023-12-30T15:14:42.000Z</time>
      </trkpt>
      <trkpt lat="43.42213" lon="3.46291">
        <ele>79.344199</ele>
        <time>2023-12-30T15:14:43.000Z</time>
      </trkpt>
      <trkpt lat="43.42213" lon="3.46285">
        <ele>79.296111</ele>
        <time>2023-12-30T15:14:44.000Z</time>
      </trkpt>
      <trkpt lat="43.42211" lon="3.4628">
        <ele>79.255655</ele>
        <time>2023-12-30T15:14:45.000Z</time>
      </trkpt>
      <trkpt lat="43.4221" lon="3.46276">
        <ele>79.220499</ele>
        <time>2023-12-30T15:14:46.000Z</time>
      </trkpt>
      <trkpt lat="43.42207" lon="3.46273">
        <ele>79.184852</ele>
        <time>2023-12-30T15:14:47.000Z</time>
      </trkpt>
      <trkpt lat="43.42205" lon="3.46269">
        <ele>79.145624</ele>
        <time>2023-12-30T15:14:48.000Z</time>
      </trkpt>
      <trkpt lat="43.42204" lon="3.46264">
        <ele>79.133284</ele>
        <time>2023-12-30T15:14:49.000Z</time>
      </trkpt>
      <trkpt lat="43.42201" lon="3.46259">
        <ele>79.126494</ele>
        <time>2023-12-30T15:14:50.000Z</time>
      </trkpt>
      <trkpt lat="43.42198" lon="3.46256">
        <ele>79.121032</ele>
        <time>2023-12-30T15:14:51.000Z</time>
      </trkpt>
      <trkpt lat="43.42196" lon="3.46252">
        <ele>79.115687</ele>
        <time>2023-12-30T15:14:52.000Z</time>
      </trkpt>
      <trkpt lat="43.42193" lon="3.46249">
        <ele>79.11053</ele>
        <time>2023-12-30T15:14:53.000Z</time>
      </trkpt>
      <trkpt lat="43.42191" lon="3.46246">
        <ele>79.105079</ele>
        <time>2023-12-30T15:14:54.000Z</time>
      </trkpt>
      <trkpt lat="43.42188" lon="3.46242">
        <ele>79.099288</ele>
        <time>2023-12-30T15:14:55.000Z</time>
      </trkpt>
      <trkpt lat="43.42185" lon="3.46239">
        <ele>79.093331</ele>
        <time>2023-12-30T15:14:56.000Z</time>
      </trkpt>
      <trkpt lat="43.42182" lon="3.46236">
        <ele>79.087305</ele>
        <time>2023-12-30T15:14:57.000Z</time>
      </trkpt>
      <trkpt lat="43.4218" lon="3.4623">
        <ele>79.080513</ele>
        <time>2023-12-30T15:14:58.000Z</time>
      </trkpt>
      <trkpt lat="43.42178" lon="3.46224">
        <ele>79.073027</ele>
        <time>2023-12-30T15:14:59.000Z</time>
      </trkpt>
      <trkpt lat="43.42177" lon="3.46218">
        <ele>79.066208</ele>
        <time>2023-12-30T15:15:00.000Z</time>
      </trkpt>
      <trkpt lat="43.42176" lon="3.46211">
        <ele>79.059195</ele>
        <time>2023-12-30T15:15:01.000Z</time>
      </trkpt>
      <trkpt lat="43.42176" lon="3.46205">
        <ele>79.052133</ele>
        <time>2023-12-30T15:15:02.000Z</time>
      </trkpt>
      <trkpt lat="43.42175" lon="3.46199">
        <ele>79.04504</ele>
        <time>2023-12-30T15:15:03.000Z</time>
      </trkpt>
      <trkpt lat="43.42175" lon="3.46193">
        <ele>79.038518</ele>
        <time>2023-12-30T15:15:04.000Z</time>
      </trkpt>
      <trkpt lat="43.42176" lon="3.46187">
        <ele>79.031861</ele>
        <time>2023-12-30T15:15:05.000Z</time>
      </trkpt>
      <trkpt lat="43.42178" lon="3.46181">
        <ele>79.025095</ele>
        <time>2023-12-30T15:15:06.000Z</time>
      </trkpt>
      <trkpt lat="43.42178" lon="3.46175">
        <ele>79.018762</ele>
        <time>2023-12-30T15:15:07.000Z</time>
      </trkpt>
      <trkpt lat="43.42179" lon="3.4617">
        <ele>79.012792</ele>
        <time>2023-12-30T15:15:08.000Z</time>
      </trkpt>
      <trkpt lat="43.42179" lon="3.46164">
        <ele>79.00649</ele>
        <time>2023-12-30T15:15:09.000Z</time>
      </trkpt>
      <trkpt lat="43.42179" lon="3.46158">
        <ele>78.999748</ele>
        <time>2023-12-30T15:15:10.000Z</time>
      </trkpt>
      <trkpt lat="43.4218" lon="3.46151">
        <ele>78.992201</ele>
        <time>2023-12-30T15:15:11.000Z</time>
      </trkpt>
      <trkpt lat="43.42179" lon="3.46145">
        <ele>78.985353</ele>
        <time>2023-12-30T15:15:12.000Z</time>
      </trkpt>
      <trkpt lat="43.42179" lon="3.46139">
        <ele>78.979057</ele>
        <time>2023-12-30T15:15:13.000Z</time>
      </trkpt>
      <trkpt lat="43.4218" lon="3.46134">
        <ele>78.972937</ele>
        <time>2023-12-30T15:15:14.000Z</time>
      </trkpt>
      <trkpt lat="43.42181" lon="3.46128">
        <ele>78.966242</ele>
        <time>2023-12-30T15:15:15.000Z</time>
      </trkpt>
      <trkpt lat="43.42182" lon="3.46122">
        <ele>78.959623</ele>
        <time>2023-12-30T15:15:16.000Z</time>
      </trkpt>
      <trkpt lat="43.42182" lon="3.46117">
        <ele>78.953322</ele>
        <time>2023-12-30T15:15:17.000Z</time>
      </trkpt>
      <trkpt lat="43.42183" lon="3.46111">
        <ele>78.946368</ele>
        <time>2023-12-30T15:15:18.000Z</time>
      </trkpt>
      <trkpt lat="43.42183" lon="3.46104">
        <ele>78.938858</ele>
        <time>2023-12-30T15:15:19.000Z</time>
      </trkpt>
      <trkpt lat="43.42183" lon="3.46097">
        <ele>78.931556</ele>
        <time>2023-12-30T15:15:20.000Z</time>
      </trkpt>
      <trkpt lat="43.42183" lon="3.46091">
        <ele>78.925087</ele>
        <time>2023-12-30T15:15:21.000Z</time>
      </trkpt>
      <trkpt lat="43.42184" lon="3.46085">
        <ele>78.91829</ele>
        <time>2023-12-30T15:15:22.000Z</time>
      </trkpt>
      <trkpt lat="43.42184" lon="3.46079">
        <ele>78.911539</ele>
        <time>2023-12-30T15:15:23.000Z</time>
      </trkpt>
      <trkpt lat="43.42184" lon="3.46074">
        <ele>78.905797</ele>
        <time>2023-12-30T15:15:24.000Z</time>
      </trkpt>
      <trkpt lat="43.42184" lon="3.46068">
        <ele>78.899612</ele>
        <time>2023-12-30T15:15:25.000Z</time>
      </trkpt>
      <trkpt lat="43.42184" lon="3.46062">
        <ele>78.892979</ele>
        <time>2023-12-30T15:15:26.000Z</time>
      </trkpt>
      <trkpt lat="43.42185" lon="3.46055">
        <ele>78.885087</ele>
        <time>2023-12-30T15:15:27.000Z</time>
      </trkpt>
      <trkpt lat="43.42186" lon="3.46048">
        <ele>78.876645</ele>
        <time>2023-12-30T15:15:28.000Z</time>
      </trkpt>
      <trkpt lat="43.42187" lon="3.46041">
        <ele>78.868904</ele>
        <time>2023-12-30T15:15:29.000Z</time>
      </trkpt>
      <trkpt lat="43.42188" lon="3.46035">
        <ele>78.786287</ele>
        <time>2023-12-30T15:15:30.000Z</time>
      </trkpt>
      <trkpt lat="43.42189" lon="3.46028">
        <ele>78.617869</ele>
        <time>2023-12-30T15:15:31.000Z</time>
      </trkpt>
      <trkpt lat="43.4219" lon="3.46021">
        <ele>78.45784</ele>
        <time>2023-12-30T15:15:32.000Z</time>
      </trkpt>
      <trkpt lat="43.4219" lon="3.46015">
        <ele>78.299543</ele>
        <time>2023-12-30T15:15:33.000Z</time>
      </trkpt>
      <trkpt lat="43.4219" lon="3.46008">
        <ele>78.141103</ele>
        <time>2023-12-30T15:15:34.000Z</time>
      </trkpt>
      <trkpt lat="43.4219" lon="3.46002">
        <ele>77.975364</ele>
        <time>2023-12-30T15:15:35.000Z</time>
      </trkpt>
      <trkpt lat="43.4219" lon="3.45994">
        <ele>77.799891</ele>
        <time>2023-12-30T15:15:36.000Z</time>
      </trkpt>
      <trkpt lat="43.4219" lon="3.45988">
        <ele>77.631819</ele>
        <time>2023-12-30T15:15:37.000Z</time>
      </trkpt>
      <trkpt lat="43.4219" lon="3.45982">
        <ele>77.488133</ele>
        <time>2023-12-30T15:15:38.000Z</time>
      </trkpt>
      <trkpt lat="43.4219" lon="3.45976">
        <ele>77.346843</ele>
        <time>2023-12-30T15:15:39.000Z</time>
      </trkpt>
      <trkpt lat="43.4219" lon="3.45969">
        <ele>77.18124</ele>
        <time>2023-12-30T15:15:40.000Z</time>
      </trkpt>
      <trkpt lat="43.4219" lon="3.45963">
        <ele>77.035081</ele>
        <time>2023-12-30T15:15:41.000Z</time>
      </trkpt>
      <trkpt lat="43.4219" lon="3.45957">
        <ele>76.888614</ele>
        <time>2023-12-30T15:15:42.000Z</time>
      </trkpt>
      <trkpt lat="43.42191" lon="3.45951">
        <ele>76.741535</ele>
        <time>2023-12-30T15:15:43.000Z</time>
      </trkpt>
      <trkpt lat="43.42191" lon="3.45945">
        <ele>76.587961</ele>
        <time>2023-12-30T15:15:44.000Z</time>
      </trkpt>
      <trkpt lat="43.42191" lon="3.45939">
        <ele>76.438801</ele>
        <time>2023-12-30T15:15:45.000Z</time>
      </trkpt>
      <trkpt lat="43.42192" lon="3.45932">
        <ele>76.271542</ele>
        <time>2023-12-30T15:15:46.000Z</time>
      </trkpt>
      <trkpt lat="43.42193" lon="3.45926">
        <ele>76.126455</ele>
        <time>2023-12-30T15:15:47.000Z</time>
      </trkpt>
      <trkpt lat="43.42193" lon="3.4592">
        <ele>75.9876</ele>
        <time>2023-12-30T15:15:48.000Z</time>
      </trkpt>
      <trkpt lat="43.42192" lon="3.45915">
        <ele>75.846815</ele>
        <time>2023-12-30T15:15:49.000Z</time>
      </trkpt>
      <trkpt lat="43.42192" lon="3.45908">
        <ele>75.687244</ele>
        <time>2023-12-30T15:15:50.000Z</time>
      </trkpt>
      <trkpt lat="43.42191" lon="3.45901">
        <ele>75.520423</ele>
        <time>2023-12-30T15:15:51.000Z</time>
      </trkpt>
      <trkpt lat="43.4219" lon="3.45895">
        <ele>75.361667</ele>
        <time>2023-12-30T15:15:52.000Z</time>
      </trkpt>
      <trkpt lat="43.42188" lon="3.45889">
        <ele>75.208931</ele>
        <time>2023-12-30T15:15:53.000Z</time>
      </trkpt>
      <trkpt lat="43.42186" lon="3.45884">
        <ele>75.072759</ele>
        <time>2023-12-30T15:15:54.000Z</time>
      </trkpt>
      <trkpt lat="43.42186" lon="3.45879">
        <ele>74.936338</ele>
        <time>2023-12-30T15:15:55.000Z</time>
      </trkpt>
      <trkpt lat="43.42187" lon="3.45874">
        <ele>74.806774</ele>
        <time>2023-12-30T15:15:56.000Z</time>
      </trkpt>
      <trkpt lat="43.42188" lon="3.45868">
        <ele>74.664717</ele>
        <time>2023-12-30T15:15:57.000Z</time>
      </trkpt>
      <trkpt lat="43.42188" lon="3.45862">
        <ele>74.515557</ele>
        <time>2023-12-30T15:15:58.000Z</time>
      </trkpt>
      <trkpt lat="43.42188" lon="3.45855">
        <ele>74.35694</ele>
        <time>2023-12-30T15:15:59.000Z</time>
      </trkpt>
      <trkpt lat="43.42186" lon="3.45849">
        <ele>74.192103</ele>
        <time>2023-12-30T15:16:00.000Z</time>
      </trkpt>
      <trkpt lat="43.42184" lon="3.45844">
        <ele>74.03965</ele>
        <time>2023-12-30T15:16:01.000Z</time>
      </trkpt>
      <trkpt lat="43.42182" lon="3.45838">
        <ele>73.890512</ele>
        <time>2023-12-30T15:16:02.000Z</time>
      </trkpt>
      <trkpt lat="43.4218" lon="3.45832">
        <ele>73.734665</ele>
        <time>2023-12-30T15:16:03.000Z</time>
      </trkpt>
      <trkpt lat="43.42179" lon="3.45827">
        <ele>73.590433</ele>
        <time>2023-12-30T15:16:04.000Z</time>
      </trkpt>
      <trkpt lat="43.42177" lon="3.45821">
        <ele>73.439338</ele>
        <time>2023-12-30T15:16:05.000Z</time>
      </trkpt>
      <trkpt lat="43.42176" lon="3.45815">
        <ele>73.285429</ele>
        <time>2023-12-30T15:16:06.000Z</time>
      </trkpt>
      <trkpt lat="43.42174" lon="3.45809">
        <ele>73.135385</ele>
        <time>2023-12-30T15:16:07.000Z</time>
      </trkpt>
      <trkpt lat="43.42171" lon="3.45805">
        <ele>72.978958</ele>
        <time>2023-12-30T15:16:08.000Z</time>
      </trkpt>
      <trkpt lat="43.42167" lon="3.45799">
        <ele>72.67701</ele>
        <time>2023-12-30T15:16:09.000Z</time>
      </trkpt>
      <trkpt lat="43.42164" lon="3.45794">
        <ele>71.63925</ele>
        <time>2023-12-30T15:16:10.000Z</time>
      </trkpt>
      <trkpt lat="43.4216" lon="3.45788">
        <ele>70.625423</ele>
        <time>2023-12-30T15:16:11.000Z</time>
      </trkpt>
      <trkpt lat="43.42157" lon="3.45783">
        <ele>69.71036</ele>
        <time>2023-12-30T15:16:12.000Z</time>
      </trkpt>
      <trkpt lat="43.42153" lon="3.45778">
        <ele>68.748916</ele>
        <time>2023-12-30T15:16:13.000Z</time>
      </trkpt>
      <trkpt lat="43.42149" lon="3.45774">
        <ele>67.757996</ele>
        <time>2023-12-30T15:16:14.000Z</time>
      </trkpt>
      <trkpt lat="43.42144" lon="3.4577">
        <ele>66.785282</ele>
        <time>2023-12-30T15:16:15.000Z</time>
      </trkpt>
      <trkpt lat="43.42142" lon="3.45765">
        <ele>65.858189</ele>
        <time>2023-12-30T15:16:16.000Z</time>
      </trkpt>
      <trkpt lat="43.42139" lon="3.45758">
        <ele>64.801313</ele>
        <time>2023-12-30T15:16:17.000Z</time>
      </trkpt>
      <trkpt lat="43.42136" lon="3.45753">
        <ele>63.928555</ele>
        <time>2023-12-30T15:16:18.000Z</time>
      </trkpt>
      <trkpt lat="43.42132" lon="3.45749">
        <ele>63.002952</ele>
        <time>2023-12-30T15:16:19.000Z</time>
      </trkpt>
      <trkpt lat="43.42128" lon="3.45746">
        <ele>62.117869</ele>
        <time>2023-12-30T15:16:20.000Z</time>
      </trkpt>
      <trkpt lat="43.42124" lon="3.45742">
        <ele>61.225152</ele>
        <time>2023-12-30T15:16:21.000Z</time>
      </trkpt>
      <trkpt lat="43.42123" lon="3.45736">
        <ele>60.399509</ele>
        <time>2023-12-30T15:16:22.000Z</time>
      </trkpt>
      <trkpt lat="43.42122" lon="3.45729">
        <ele>59.416717</ele>
        <time>2023-12-30T15:16:23.000Z</time>
      </trkpt>
      <trkpt lat="43.4212" lon="3.45723">
        <ele>58.560068</ele>
        <time>2023-12-30T15:16:24.000Z</time>
      </trkpt>
      <trkpt lat="43.4212" lon="3.45717">
        <ele>57.809836</ele>
        <time>2023-12-30T15:16:25.000Z</time>
      </trkpt>
      <trkpt lat="43.4212" lon="3.45712">
        <ele>57.046039</ele>
        <time>2023-12-30T15:16:26.000Z</time>
      </trkpt>
      <trkpt lat="43.42121" lon="3.457">
        <ele>55.495237</ele>
        <time>2023-12-30T15:16:27.000Z</time>
      </trkpt>
      <trkpt lat="43.42122" lon="3.45697">
        <ele>54.988954</ele>
        <time>2023-12-30T15:16:28.000Z</time>
      </trkpt>
      <trkpt lat="43.42125" lon="3.45694">
        <ele>54.340346</ele>
        <time>2023-12-30T15:16:29.000Z</time>
      </trkpt>
      <trkpt lat="43.42128" lon="3.4569">
        <ele>53.618119</ele>
        <time>2023-12-30T15:16:30.000Z</time>
      </trkpt>
      <trkpt lat="43.42129" lon="3.45684">
        <ele>52.797804</ele>
        <time>2023-12-30T15:16:31.000Z</time>
      </trkpt>
      <trkpt lat="43.4213" lon="3.45677">
        <ele>51.750382</ele>
        <time>2023-12-30T15:16:32.000Z</time>
      </trkpt>
      <trkpt lat="43.42132" lon="3.45669">
        <ele>50.595449</ele>
        <time>2023-12-30T15:16:33.000Z</time>
      </trkpt>
      <trkpt lat="43.42134" lon="3.45662">
        <ele>49.550395</ele>
        <time>2023-12-30T15:16:34.000Z</time>
      </trkpt>
      <trkpt lat="43.42136" lon="3.45655">
        <ele>48.623461</ele>
        <time>2023-12-30T15:16:35.000Z</time>
      </trkpt>
      <trkpt lat="43.42137" lon="3.45651">
        <ele>48.009554</ele>
        <time>2023-12-30T15:16:36.000Z</time>
      </trkpt>
      <trkpt lat="43.42137" lon="3.45647">
        <ele>47.478736</ele>
        <time>2023-12-30T15:16:37.000Z</time>
      </trkpt>
      <trkpt lat="43.42135" lon="3.45644">
        <ele>46.99413</ele>
        <time>2023-12-30T15:16:38.000Z</time>
      </trkpt>
      <trkpt lat="43.42133" lon="3.45642">
        <ele>46.469563</ele>
        <time>2023-12-30T15:16:39.000Z</time>
      </trkpt>
      <trkpt lat="43.42132" lon="3.45639">
        <ele>46.039</ele>
        <time>2023-12-30T15:16:40.000Z</time>
      </trkpt>
      <trkpt lat="43.42131" lon="3.45636">
        <ele>45.546767</ele>
        <time>2023-12-30T15:16:41.000Z</time>
      </trkpt>
      <trkpt lat="43.42132" lon="3.45632">
        <ele>45.008078</ele>
        <time>2023-12-30T15:16:42.000Z</time>
      </trkpt>
      <trkpt lat="43.42132" lon="3.45627">
        <ele>44.402298</ele>
        <time>2023-12-30T15:16:43.000Z</time>
      </trkpt>
      <trkpt lat="43.42132" lon="3.45622">
        <ele>43.672674</ele>
        <time>2023-12-30T15:16:44.000Z</time>
      </trkpt>
      <trkpt lat="43.42132" lon="3.45616">
        <ele>42.897345</ele>
        <time>2023-12-30T15:16:45.000Z</time>
      </trkpt>
      <trkpt lat="43.42131" lon="3.4561">
        <ele>42.040198</ele>
        <time>2023-12-30T15:16:46.000Z</time>
      </trkpt>
      <trkpt lat="43.4213" lon="3.45603">
        <ele>41.109804</ele>
        <time>2023-12-30T15:16:47.000Z</time>
      </trkpt>
      <trkpt lat="43.42129" lon="3.45597">
        <ele>40.259525</ele>
        <time>2023-12-30T15:16:48.000Z</time>
      </trkpt>
      <trkpt lat="43.42126" lon="3.45592">
        <ele>39.367753</ele>
        <time>2023-12-30T15:16:49.000Z</time>
      </trkpt>
      <trkpt lat="43.42123" lon="3.45586">
        <ele>38.823094</ele>
        <time>2023-12-30T15:16:50.000Z</time>
      </trkpt>
      <trkpt lat="43.4212" lon="3.4558">
        <ele>38.351169</ele>
        <time>2023-12-30T15:16:51.000Z</time>
      </trkpt>
      <trkpt lat="43.42116" lon="3.45572">
        <ele>37.80834</ele>
        <time>2023-12-30T15:16:52.000Z</time>
      </trkpt>
      <trkpt lat="43.42111" lon="3.45564">
        <ele>37.227369</ele>
        <time>2023-12-30T15:16:53.000Z</time>
      </trkpt>
      <trkpt lat="43.42107" lon="3.45558">
        <ele>36.716399</ele>
        <time>2023-12-30T15:16:54.000Z</time>
      </trkpt>
      <trkpt lat="43.42105" lon="3.45552">
        <ele>36.338422</ele>
        <time>2023-12-30T15:16:55.000Z</time>
      </trkpt>
      <trkpt lat="43.42105" lon="3.45547">
        <ele>36.052637</ele>
        <time>2023-12-30T15:16:56.000Z</time>
      </trkpt>
      <trkpt lat="43.42105" lon="3.45544">
        <ele>35.891922</ele>
        <time>2023-12-30T15:16:57.000Z</time>
      </trkpt>
      <trkpt lat="43.42105" lon="3.45544">
        <ele>35.865156</ele>
        <time>2023-12-30T15:16:58.000Z</time>
      </trkpt>
      <trkpt lat="43.42105" lon="3.45544">
        <ele>35.859324</ele>
        <time>2023-12-30T15:16:59.000Z</time>
      </trkpt>
      <trkpt lat="43.42105" lon="3.45544">
        <ele>35.840072</ele>
        <time>2023-12-30T15:17:00.000Z</time>
      </trkpt>
      <trkpt lat="43.42106" lon="3.45541">
        <ele>35.650734</ele>
        <time>2023-12-30T15:17:01.000Z</time>
      </trkpt>
      <trkpt lat="43.42106" lon="3.45537">
        <ele>35.436965</ele>
        <time>2023-12-30T15:17:02.000Z</time>
      </trkpt>
      <trkpt lat="43.42107" lon="3.45534">
        <ele>35.240354</ele>
        <time>2023-12-30T15:17:03.000Z</time>
      </trkpt>
      <trkpt lat="43.42107" lon="3.45533">
        <ele>35.176199</ele>
        <time>2023-12-30T15:17:04.000Z</time>
      </trkpt>
      <trkpt lat="43.42107" lon="3.45533">
        <ele>35.152449</ele>
        <time>2023-12-30T15:17:05.000Z</time>
      </trkpt>
      <trkpt lat="43.42107" lon="3.45533">
        <ele>35.152449</ele>
        <time>2023-12-30T15:17:06.000Z</time>
      </trkpt>
      <trkpt lat="43.42107" lon="3.45533">
        <ele>35.152449</ele>
        <time>2023-12-30T15:17:07.000Z</time>
      </trkpt>
      <trkpt lat="43.42107" lon="3.45533">
        <ele>35.152449</ele>
        <time>2023-12-30T15:17:08.000Z</time>
      </trkpt>
      <trkpt lat="43.42107" lon="3.45533">
        <ele>35.152449</ele>
        <time>2023-12-30T15:17:09.000Z</time>
      </trkpt>
      <trkpt lat="43.42107" lon="3.45533">
        <ele>35.152449</ele>
        <time>2023-12-30T15:17:10.000Z</time>
      </trkpt>
      <trkpt lat="43.42107" lon="3.45533">
        <ele>35.152449</ele>
        <time>2023-12-30T15:17:11.000Z</time>
      </trkpt>
      <trkpt lat="43.42107" lon="3.45533">
        <ele>35.152449</ele>
        <time>2023-12-30T15:17:12.000Z</time>
      </trkpt>
      <trkpt lat="43.42107" lon="3.45533">
        <ele>35.144419</ele>
        <time>2023-12-30T15:17:13.000Z</time>
      </trkpt>
      <trkpt lat="43.42107" lon="3.45533">
        <ele>35.138586</ele>
        <time>2023-12-30T15:17:14.000Z</time>
      </trkpt>
      <trkpt lat="43.42107" lon="3.45533">
        <ele>35.138586</ele>
        <time>2023-12-30T15:17:15.000Z</time>
      </trkpt>
      <trkpt lat="43.42107" lon="3.45533">
        <ele>35.138586</ele>
        <time>2023-12-30T15:17:16.000Z</time>
      </trkpt>
      <trkpt lat="43.42107" lon="3.45533">
        <ele>35.132754</ele>
        <time>2023-12-30T15:17:17.000Z</time>
      </trkpt>
      <trkpt lat="43.42107" lon="3.45531">
        <ele>35.027465</ele>
        <time>2023-12-30T15:17:18.000Z</time>
      </trkpt>
      <trkpt lat="43.42108" lon="3.45528">
        <ele>34.854756</ele>
        <time>2023-12-30T15:17:19.000Z</time>
      </trkpt>
      <trkpt lat="43.4211" lon="3.45526">
        <ele>34.629834</ele>
        <time>2023-12-30T15:17:20.000Z</time>
      </trkpt>
      <trkpt lat="43.42112" lon="3.45523">
        <ele>34.388172</ele>
        <time>2023-12-30T15:17:21.000Z</time>
      </trkpt>
      <trkpt lat="43.42114" lon="3.45521">
        <ele>34.159111</ele>
        <time>2023-12-30T15:17:22.000Z</time>
      </trkpt>
      <trkpt lat="43.42116" lon="3.45519">
        <ele>33.954069</ele>
        <time>2023-12-30T15:17:23.000Z</time>
      </trkpt>
      <trkpt lat="43.42119" lon="3.45517">
        <ele>33.731762</ele>
        <time>2023-12-30T15:17:24.000Z</time>
      </trkpt>
      <trkpt lat="43.42121" lon="3.45515">
        <ele>33.552203</ele>
        <time>2023-12-30T15:17:25.000Z</time>
      </trkpt>
      <trkpt lat="43.42122" lon="3.45513">
        <ele>33.404155</ele>
        <time>2023-12-30T15:17:26.000Z</time>
      </trkpt>
      <trkpt lat="43.42124" lon="3.4551">
        <ele>33.149745</ele>
        <time>2023-12-30T15:17:27.000Z</time>
      </trkpt>
      <trkpt lat="43.42127" lon="3.45505">
        <ele>32.765427</ele>
        <time>2023-12-30T15:17:28.000Z</time>
      </trkpt>
      <trkpt lat="43.4213" lon="3.455">
        <ele>32.406365</ele>
        <time>2023-12-30T15:17:29.000Z</time>
      </trkpt>
      <trkpt lat="43.42132" lon="3.45496">
        <ele>32.12083</ele>
        <time>2023-12-30T15:17:30.000Z</time>
      </trkpt>
      <trkpt lat="43.42131" lon="3.45493">
        <ele>31.948669</ele>
        <time>2023-12-30T15:17:31.000Z</time>
      </trkpt>
      <trkpt lat="43.4213" lon="3.45491">
        <ele>31.792829</ele>
        <time>2023-12-30T15:17:32.000Z</time>
      </trkpt>
      <trkpt lat="43.4213" lon="3.45491">
        <ele>31.762582</ele>
        <time>2023-12-30T15:17:33.000Z</time>
      </trkpt>
      <trkpt lat="43.4213" lon="3.45491">
        <ele>31.752658</ele>
        <time>2023-12-30T15:17:34.000Z</time>
      </trkpt>
      <trkpt lat="43.4213" lon="3.45491">
        <ele>31.742733</ele>
        <time>2023-12-30T15:17:35.000Z</time>
      </trkpt>
      <trkpt lat="43.42131" lon="3.45491">
        <ele>31.706157</ele>
        <time>2023-12-30T15:17:36.000Z</time>
      </trkpt>
      <trkpt lat="43.42131" lon="3.45492">
        <ele>31.597218</ele>
        <time>2023-12-30T15:17:37.000Z</time>
      </trkpt>
      <trkpt lat="43.42131" lon="3.45493">
        <ele>31.579721</ele>
        <time>2023-12-30T15:17:38.000Z</time>
      </trkpt>
      <trkpt lat="43.42131" lon="3.45493">
        <ele>31.559872</ele>
        <time>2023-12-30T15:17:39.000Z</time>
      </trkpt>
      <trkpt lat="43.42133" lon="3.45496">
        <ele>31.338994</ele>
        <time>2023-12-30T15:17:40.000Z</time>
      </trkpt>
      <trkpt lat="43.42136" lon="3.45497">
        <ele>31.140357</ele>
        <time>2023-12-30T15:17:41.000Z</time>
      </trkpt>
      <trkpt lat="43.42138" lon="3.45497">
        <ele>30.962833</ele>
        <time>2023-12-30T15:17:42.000Z</time>
      </trkpt>
      <trkpt lat="43.4214" lon="3.45495">
        <ele>30.754295</ele>
        <time>2023-12-30T15:17:43.000Z</time>
      </trkpt>
      <trkpt lat="43.42143" lon="3.45493">
        <ele>30.471523</ele>
        <time>2023-12-30T15:17:44.000Z</time>
      </trkpt>
      <trkpt lat="43.42146" lon="3.45491">
        <ele>30.186555</ele>
        <time>2023-12-30T15:17:45.000Z</time>
      </trkpt>
      <trkpt lat="43.4215" lon="3.45491">
        <ele>29.9343</ele>
        <time>2023-12-30T15:17:46.000Z</time>
      </trkpt>
      <trkpt lat="43.42153" lon="3.45491">
        <ele>29.652285</ele>
        <time>2023-12-30T15:17:47.000Z</time>
      </trkpt>
      <trkpt lat="43.42157" lon="3.45492">
        <ele>29.310966</ele>
        <time>2023-12-30T15:17:48.000Z</time>
      </trkpt>
      <trkpt lat="43.42162" lon="3.45492">
        <ele>28.917325</ele>
        <time>2023-12-30T15:17:49.000Z</time>
      </trkpt>
      <trkpt lat="43.42167" lon="3.45491">
        <ele>28.542416</ele>
        <time>2023-12-30T15:17:50.000Z</time>
      </trkpt>
      <trkpt lat="43.42171" lon="3.45489">
        <ele>28.179785</ele>
        <time>2023-12-30T15:17:51.000Z</time>
      </trkpt>
      <trkpt lat="43.42175" lon="3.45488">
        <ele>27.849489</ele>
        <time>2023-12-30T15:17:52.000Z</time>
      </trkpt>
      <trkpt lat="43.42179" lon="3.45487">
        <ele>27.528237</ele>
        <time>2023-12-30T15:17:53.000Z</time>
      </trkpt>
      <trkpt lat="43.42183" lon="3.45488">
        <ele>27.180543</ele>
        <time>2023-12-30T15:17:54.000Z</time>
      </trkpt>
      <trkpt lat="43.42188" lon="3.4549">
        <ele>26.821301</ele>
        <time>2023-12-30T15:17:55.000Z</time>
      </trkpt>
      <trkpt lat="43.42193" lon="3.45492">
        <ele>26.407441</ele>
        <time>2023-12-30T15:17:56.000Z</time>
      </trkpt>
      <trkpt lat="43.42198" lon="3.45493">
        <ele>25.983055</ele>
        <time>2023-12-30T15:17:57.000Z</time>
      </trkpt>
      <trkpt lat="43.42203" lon="3.45493">
        <ele>25.55603</ele>
        <time>2023-12-30T15:17:58.000Z</time>
      </trkpt>
      <trkpt lat="43.42208" lon="3.45491">
        <ele>25.126862</ele>
        <time>2023-12-30T15:17:59.000Z</time>
      </trkpt>
      <trkpt lat="43.42213" lon="3.4549">
        <ele>24.771814</ele>
        <time>2023-12-30T15:18:00.000Z</time>
      </trkpt>
      <trkpt lat="43.42217" lon="3.45492">
        <ele>24.640899</ele>
        <time>2023-12-30T15:18:01.000Z</time>
      </trkpt>
      <trkpt lat="43.42222" lon="3.45492">
        <ele>24.561205</ele>
        <time>2023-12-30T15:18:02.000Z</time>
      </trkpt>
      <trkpt lat="43.42227" lon="3.45492">
        <ele>24.478102</ele>
        <time>2023-12-30T15:18:03.000Z</time>
      </trkpt>
      <trkpt lat="43.42231" lon="3.45491">
        <ele>24.39443</ele>
        <time>2023-12-30T15:18:04.000Z</time>
      </trkpt>
      <trkpt lat="43.42236" lon="3.4549">
        <ele>24.304673</ele>
        <time>2023-12-30T15:18:05.000Z</time>
      </trkpt>
      <trkpt lat="43.42241" lon="3.45487">
        <ele>24.211872</ele>
        <time>2023-12-30T15:18:06.000Z</time>
      </trkpt>
      <trkpt lat="43.42245" lon="3.45483">
        <ele>24.123271</ele>
        <time>2023-12-30T15:18:07.000Z</time>
      </trkpt>
      <trkpt lat="43.4225" lon="3.45479">
        <ele>24.036828</ele>
        <time>2023-12-30T15:18:08.000Z</time>
      </trkpt>
      <trkpt lat="43.42254" lon="3.45477">
        <ele>23.955819</ele>
        <time>2023-12-30T15:18:09.000Z</time>
      </trkpt>
      <trkpt lat="43.42257" lon="3.45477">
        <ele>23.90204</ele>
        <time>2023-12-30T15:18:10.000Z</time>
      </trkpt>
      <trkpt lat="43.42259" lon="3.45478">
        <ele>23.864286</ele>
        <time>2023-12-30T15:18:11.000Z</time>
      </trkpt>
      <trkpt lat="43.4226" lon="3.45479">
        <ele>23.843612</ele>
        <time>2023-12-30T15:18:12.000Z</time>
      </trkpt>
      <trkpt lat="43.4226" lon="3.45479">
        <ele>23.837195</ele>
        <time>2023-12-30T15:18:13.000Z</time>
      </trkpt>
      <trkpt lat="43.4226" lon="3.45479">
        <ele>23.837195</ele>
        <time>2023-12-30T15:18:14.000Z</time>
      </trkpt>
      <trkpt lat="43.4226" lon="3.45479">
        <ele>23.837195</ele>
        <time>2023-12-30T15:18:15.000Z</time>
      </trkpt>
      <trkpt lat="43.4226" lon="3.45479">
        <ele>23.837195</ele>
        <time>2023-12-30T15:18:16.000Z</time>
      </trkpt>
      <trkpt lat="43.4226" lon="3.45479">
        <ele>23.837195</ele>
        <time>2023-12-30T15:18:17.000Z</time>
      </trkpt>
      <trkpt lat="43.4226" lon="3.45479">
        <ele>23.835938</ele>
        <time>2023-12-30T15:18:18.000Z</time>
      </trkpt>
      <trkpt lat="43.4226" lon="3.45479">
        <ele>23.835938</ele>
        <time>2023-12-30T15:18:19.000Z</time>
      </trkpt>
      <trkpt lat="43.4226" lon="3.45479">
        <ele>23.835938</ele>
        <time>2023-12-30T15:18:20.000Z</time>
      </trkpt>
      <trkpt lat="43.4226" lon="3.45479">
        <ele>23.835938</ele>
        <time>2023-12-30T15:18:21.000Z</time>
      </trkpt>
      <trkpt lat="43.4226" lon="3.45479">
        <ele>23.834682</ele>
        <time>2023-12-30T15:18:22.000Z</time>
      </trkpt>
      <trkpt lat="43.4226" lon="3.45479">
        <ele>23.832951</ele>
        <time>2023-12-30T15:18:23.000Z</time>
      </trkpt>
      <trkpt lat="43.4226" lon="3.45479">
        <ele>23.832951</ele>
        <time>2023-12-30T15:18:24.000Z</time>
      </trkpt>
      <trkpt lat="43.4226" lon="3.45479">
        <ele>23.831694</ele>
        <time>2023-12-30T15:18:25.000Z</time>
      </trkpt>
      <trkpt lat="43.4226" lon="3.45479">
        <ele>23.830437</ele>
        <time>2023-12-30T15:18:26.000Z</time>
      </trkpt>
      <trkpt lat="43.4226" lon="3.45479">
        <ele>23.830437</ele>
        <time>2023-12-30T15:18:27.000Z</time>
      </trkpt>
      <trkpt lat="43.4226" lon="3.45479">
        <ele>23.824334</ele>
        <time>2023-12-30T15:18:28.000Z</time>
      </trkpt>
      <trkpt lat="43.4226" lon="3.45482">
        <ele>23.790222</ele>
        <time>2023-12-30T15:18:29.000Z</time>
      </trkpt>
      <trkpt lat="43.4226" lon="3.45485">
        <ele>23.741682</ele>
        <time>2023-12-30T15:18:30.000Z</time>
      </trkpt>
      <trkpt lat="43.42259" lon="3.4549">
        <ele>23.681008</ele>
        <time>2023-12-30T15:18:31.000Z</time>
      </trkpt>
      <trkpt lat="43.42258" lon="3.45495">
        <ele>23.612934</ele>
        <time>2023-12-30T15:18:32.000Z</time>
      </trkpt>
      <trkpt lat="43.42258" lon="3.45501">
        <ele>23.537441</ele>
        <time>2023-12-30T15:18:33.000Z</time>
      </trkpt>
      <trkpt lat="43.42258" lon="3.45507">
        <ele>23.464357</ele>
        <time>2023-12-30T15:18:34.000Z</time>
      </trkpt>
      <trkpt lat="43.4226" lon="3.45513">
        <ele>23.382236</ele>
        <time>2023-12-30T15:18:35.000Z</time>
      </trkpt>
      <trkpt lat="43.42263" lon="3.45518">
        <ele>23.296147</ele>
        <time>2023-12-30T15:18:36.000Z</time>
      </trkpt>
      <trkpt lat="43.42267" lon="3.45522">
        <ele>23.205633</ele>
        <time>2023-12-30T15:18:37.000Z</time>
      </trkpt>
      <trkpt lat="43.42272" lon="3.45525">
        <ele>23.121363</ele>
        <time>2023-12-30T15:18:38.000Z</time>
      </trkpt>
      <trkpt lat="43.42276" lon="3.45526">
        <ele>23.05024</ele>
        <time>2023-12-30T15:18:39.000Z</time>
      </trkpt>
      <trkpt lat="43.4228" lon="3.45528">
        <ele>22.977415</ele>
        <time>2023-12-30T15:18:40.000Z</time>
      </trkpt>
      <trkpt lat="43.42284" lon="3.4553">
        <ele>22.909077</ele>
        <time>2023-12-30T15:18:41.000Z</time>
      </trkpt>
      <trkpt lat="43.42288" lon="3.45531">
        <ele>22.836253</ele>
        <time>2023-12-30T15:18:42.000Z</time>
      </trkpt>
      <trkpt lat="43.42293" lon="3.45534">
        <ele>22.741238</ele>
        <time>2023-12-30T15:18:43.000Z</time>
      </trkpt>
      <trkpt lat="43.42298" lon="3.45537">
        <ele>22.637414</ele>
        <time>2023-12-30T15:18:44.000Z</time>
      </trkpt>
      <trkpt lat="43.42303" lon="3.45541">
        <ele>22.540319</ele>
        <time>2023-12-30T15:18:45.000Z</time>
      </trkpt>
      <trkpt lat="43.42308" lon="3.45546">
        <ele>22.439795</ele>
        <time>2023-12-30T15:18:46.000Z</time>
      </trkpt>
      <trkpt lat="43.42311" lon="3.45551">
        <ele>22.352678</ele>
        <time>2023-12-30T15:18:47.000Z</time>
      </trkpt>
      <trkpt lat="43.42314" lon="3.45556">
        <ele>22.274368</ele>
        <time>2023-12-30T15:18:48.000Z</time>
      </trkpt>
      <trkpt lat="43.42316" lon="3.4556">
        <ele>22.204175</ele>
        <time>2023-12-30T15:18:49.000Z</time>
      </trkpt>
      <trkpt lat="43.42319" lon="3.45565">
        <ele>22.133897</ele>
        <time>2023-12-30T15:18:50.000Z</time>
      </trkpt>
      <trkpt lat="43.4232" lon="3.45569">
        <ele>22.074287</ele>
        <time>2023-12-30T15:18:51.000Z</time>
      </trkpt>
      <trkpt lat="43.42322" lon="3.45573">
        <ele>22.015788</ele>
        <time>2023-12-30T15:18:52.000Z</time>
      </trkpt>
      <trkpt lat="43.42323" lon="3.45577">
        <ele>21.964462</ele>
        <time>2023-12-30T15:18:53.000Z</time>
      </trkpt>
      <trkpt lat="43.42325" lon="3.45581">
        <ele>21.901822</ele>
        <time>2023-12-30T15:18:54.000Z</time>
      </trkpt>
      <trkpt lat="43.42327" lon="3.45586">
        <ele>21.83531</ele>
        <time>2023-12-30T15:18:55.000Z</time>
      </trkpt>
      <trkpt lat="43.42329" lon="3.45591">
        <ele>21.765953</ele>
        <time>2023-12-30T15:18:56.000Z</time>
      </trkpt>
      <trkpt lat="43.42331" lon="3.45595">
        <ele>21.692732</ele>
        <time>2023-12-30T15:18:57.000Z</time>
      </trkpt>
      <trkpt lat="43.42334" lon="3.456">
        <ele>21.620146</ele>
        <time>2023-12-30T15:18:58.000Z</time>
      </trkpt>
      <trkpt lat="43.42337" lon="3.45604">
        <ele>21.616036</ele>
        <time>2023-12-30T15:18:59.000Z</time>
      </trkpt>
      <trkpt lat="43.4234" lon="3.45608">
        <ele>21.651392</ele>
        <time>2023-12-30T15:19:00.000Z</time>
      </trkpt>
      <trkpt lat="43.42342" lon="3.45612">
        <ele>21.684234</ele>
        <time>2023-12-30T15:19:01.000Z</time>
      </trkpt>
      <trkpt lat="43.42345" lon="3.45615">
        <ele>21.715005</ele>
        <time>2023-12-30T15:19:02.000Z</time>
      </trkpt>
      <trkpt lat="43.42347" lon="3.45619">
        <ele>21.745653</ele>
        <time>2023-12-30T15:19:03.000Z</time>
      </trkpt>
      <trkpt lat="43.42349" lon="3.45622">
        <ele>21.771842</ele>
        <time>2023-12-30T15:19:04.000Z</time>
      </trkpt>
      <trkpt lat="43.42352" lon="3.45626">
        <ele>21.802613</ele>
        <time>2023-12-30T15:19:05.000Z</time>
      </trkpt>
      <trkpt lat="43.42355" lon="3.4563">
        <ele>21.836805</ele>
        <time>2023-12-30T15:19:06.000Z</time>
      </trkpt>
      <trkpt lat="43.42357" lon="3.45633">
        <ele>21.866542</ele>
        <time>2023-12-30T15:19:07.000Z</time>
      </trkpt>
      <trkpt lat="43.4236" lon="3.45637">
        <ele>21.898795</ele>
        <time>2023-12-30T15:19:08.000Z</time>
      </trkpt>
      <trkpt lat="43.42362" lon="3.45641">
        <ele>21.929442</ele>
        <time>2023-12-30T15:19:09.000Z</time>
      </trkpt>
      <trkpt lat="43.42365" lon="3.45645">
        <ele>21.963321</ele>
        <time>2023-12-30T15:19:10.000Z</time>
      </trkpt>
      <trkpt lat="43.42368" lon="3.45648">
        <ele>21.997422</ele>
        <time>2023-12-30T15:19:11.000Z</time>
      </trkpt>
      <trkpt lat="43.42371" lon="3.4565">
        <ele>22.028872</ele>
        <time>2023-12-30T15:19:12.000Z</time>
      </trkpt>
      <trkpt lat="43.42375" lon="3.45652">
        <ele>22.061512</ele>
        <time>2023-12-30T15:19:13.000Z</time>
      </trkpt>
      <trkpt lat="43.42379" lon="3.45652">
        <ele>22.095676</ele>
        <time>2023-12-30T15:19:14.000Z</time>
      </trkpt>
      <trkpt lat="43.42383" lon="3.45653">
        <ele>22.130499</ele>
        <time>2023-12-30T15:19:15.000Z</time>
      </trkpt>
      <trkpt lat="43.42387" lon="3.45655">
        <ele>22.164943</ele>
        <time>2023-12-30T15:19:16.000Z</time>
      </trkpt>
      <trkpt lat="43.42391" lon="3.45657">
        <ele>22.199734</ele>
        <time>2023-12-30T15:19:17.000Z</time>
      </trkpt>
      <trkpt lat="43.42394" lon="3.4566">
        <ele>22.232722</ele>
        <time>2023-12-30T15:19:18.000Z</time>
      </trkpt>
      <trkpt lat="43.42397" lon="3.45663">
        <ele>22.265653</ele>
        <time>2023-12-30T15:19:19.000Z</time>
      </trkpt>
      <trkpt lat="43.424" lon="3.45665">
        <ele>22.295089</ele>
        <time>2023-12-30T15:19:20.000Z</time>
      </trkpt>
      <trkpt lat="43.42403" lon="3.45668">
        <ele>22.324526</ele>
        <time>2023-12-30T15:19:21.000Z</time>
      </trkpt>
      <trkpt lat="43.42406" lon="3.4567">
        <ele>22.353962</ele>
        <time>2023-12-30T15:19:22.000Z</time>
      </trkpt>
      <trkpt lat="43.42409" lon="3.45672">
        <ele>22.380247</ele>
        <time>2023-12-30T15:19:23.000Z</time>
      </trkpt>
      <trkpt lat="43.42412" lon="3.45674">
        <ele>22.406934</ele>
        <time>2023-12-30T15:19:24.000Z</time>
      </trkpt>
      <trkpt lat="43.42414" lon="3.45677">
        <ele>22.434668</ele>
        <time>2023-12-30T15:19:25.000Z</time>
      </trkpt>
      <trkpt lat="43.42417" lon="3.45679">
        <ele>22.462757</ele>
        <time>2023-12-30T15:19:26.000Z</time>
      </trkpt>
      <trkpt lat="43.4242" lon="3.45681">
        <ele>22.492193</ele>
        <time>2023-12-30T15:19:27.000Z</time>
      </trkpt>
      <trkpt lat="43.42423" lon="3.45684">
        <ele>22.521297</ele>
        <time>2023-12-30T15:19:28.000Z</time>
      </trkpt>
      <trkpt lat="43.42426" lon="3.45686">
        <ele>22.546335</ele>
        <time>2023-12-30T15:19:29.000Z</time>
      </trkpt>
      <trkpt lat="43.42428" lon="3.45687">
        <ele>22.568103</ele>
        <time>2023-12-30T15:19:30.000Z</time>
      </trkpt>
      <trkpt lat="43.4243" lon="3.45689">
        <ele>22.590193</ele>
        <time>2023-12-30T15:19:31.000Z</time>
      </trkpt>
      <trkpt lat="43.42432" lon="3.45691">
        <ele>22.612398</ele>
        <time>2023-12-30T15:19:32.000Z</time>
      </trkpt>
      <trkpt lat="43.42435" lon="3.45692">
        <ele>22.632522</ele>
        <time>2023-12-30T15:19:33.000Z</time>
      </trkpt>
      <trkpt lat="43.42436" lon="3.45694">
        <ele>22.651467</ele>
        <time>2023-12-30T15:19:34.000Z</time>
      </trkpt>
      <trkpt lat="43.42438" lon="3.45696">
        <ele>22.667932</ele>
        <time>2023-12-30T15:19:35.000Z</time>
      </trkpt>
      <trkpt lat="43.4244" lon="3.45697">
        <ele>22.684057</ele>
        <time>2023-12-30T15:19:36.000Z</time>
      </trkpt>
      <trkpt lat="43.42442" lon="3.45699">
        <ele>22.704473</ele>
        <time>2023-12-30T15:19:37.000Z</time>
      </trkpt>
      <trkpt lat="43.42444" lon="3.457">
        <ele>22.725637</ele>
        <time>2023-12-30T15:19:38.000Z</time>
      </trkpt>
      <trkpt lat="43.42446" lon="3.45702">
        <ele>22.745629</ele>
        <time>2023-12-30T15:19:39.000Z</time>
      </trkpt>
      <trkpt lat="43.42449" lon="3.45703">
        <ele>22.770633</ele>
        <time>2023-12-30T15:19:40.000Z</time>
      </trkpt>
      <trkpt lat="43.42451" lon="3.45706">
        <ele>22.799019</ele>
        <time>2023-12-30T15:19:41.000Z</time>
      </trkpt>
      <trkpt lat="43.42454" lon="3.45709">
        <ele>22.825382</ele>
        <time>2023-12-30T15:19:42.000Z</time>
      </trkpt>
      <trkpt lat="43.42456" lon="3.45711">
        <ele>22.852716</ele>
        <time>2023-12-30T15:19:43.000Z</time>
      </trkpt>
      <trkpt lat="43.42459" lon="3.45714">
        <ele>22.878998</ele>
        <time>2023-12-30T15:19:44.000Z</time>
      </trkpt>
      <trkpt lat="43.42461" lon="3.45716">
        <ele>22.902873</ele>
        <time>2023-12-30T15:19:45.000Z</time>
      </trkpt>
      <trkpt lat="43.42464" lon="3.45718">
        <ele>22.92916</ele>
        <time>2023-12-30T15:19:46.000Z</time>
      </trkpt>
      <trkpt lat="43.42466" lon="3.45721">
        <ele>22.954086</ele>
        <time>2023-12-30T15:19:47.000Z</time>
      </trkpt>
      <trkpt lat="43.42468" lon="3.45723">
        <ele>22.977635</ele>
        <time>2023-12-30T15:19:48.000Z</time>
      </trkpt>
      <trkpt lat="43.42471" lon="3.45724">
        <ele>22.99722</ele>
        <time>2023-12-30T15:19:49.000Z</time>
      </trkpt>
      <trkpt lat="43.42473" lon="3.45726">
        <ele>23.019645</ele>
        <time>2023-12-30T15:19:50.000Z</time>
      </trkpt>
      <trkpt lat="43.42475" lon="3.45728">
        <ele>23.037541</ele>
        <time>2023-12-30T15:19:51.000Z</time>
      </trkpt>
      <trkpt lat="43.42476" lon="3.45729">
        <ele>23.053519</ele>
        <time>2023-12-30T15:19:52.000Z</time>
      </trkpt>
      <trkpt lat="43.42478" lon="3.4573">
        <ele>23.069608</ele>
        <time>2023-12-30T15:19:53.000Z</time>
      </trkpt>
      <trkpt lat="43.4248" lon="3.45731">
        <ele>23.087193</ele>
        <time>2023-12-30T15:19:54.000Z</time>
      </trkpt>
      <trkpt lat="43.42482" lon="3.45732">
        <ele>23.10524</ele>
        <time>2023-12-30T15:19:55.000Z</time>
      </trkpt>
      <trkpt lat="43.42484" lon="3.45734">
        <ele>23.123287</ele>
        <time>2023-12-30T15:19:56.000Z</time>
      </trkpt>
      <trkpt lat="43.42486" lon="3.45735">
        <ele>23.193168</ele>
        <time>2023-12-30T15:19:57.000Z</time>
      </trkpt>
      <trkpt lat="43.42488" lon="3.45736">
        <ele>23.274546</ele>
        <time>2023-12-30T15:19:58.000Z</time>
      </trkpt>
      <trkpt lat="43.4249" lon="3.45736">
        <ele>23.363684</ele>
        <time>2023-12-30T15:19:59.000Z</time>
      </trkpt>
      <trkpt lat="43.42493" lon="3.45737">
        <ele>23.459224</ele>
        <time>2023-12-30T15:20:00.000Z</time>
      </trkpt>
      <trkpt lat="43.42496" lon="3.45738">
        <ele>23.569567</ele>
        <time>2023-12-30T15:20:01.000Z</time>
      </trkpt>
      <trkpt lat="43.42499" lon="3.45739">
        <ele>23.672575</ele>
        <time>2023-12-30T15:20:02.000Z</time>
      </trkpt>
      <trkpt lat="43.42502" lon="3.45739">
        <ele>23.781941</ele>
        <time>2023-12-30T15:20:03.000Z</time>
      </trkpt>
      <trkpt lat="43.42505" lon="3.45739">
        <ele>23.894371</ele>
        <time>2023-12-30T15:20:04.000Z</time>
      </trkpt>
      <trkpt lat="43.42508" lon="3.45739">
        <ele>24.010397</ele>
        <time>2023-12-30T15:20:05.000Z</time>
      </trkpt>
      <trkpt lat="43.42512" lon="3.4574">
        <ele>24.123836</ele>
        <time>2023-12-30T15:20:06.000Z</time>
      </trkpt>
      <trkpt lat="43.42515" lon="3.4574">
        <ele>24.227724</ele>
        <time>2023-12-30T15:20:07.000Z</time>
      </trkpt>
      <trkpt lat="43.42517" lon="3.45741">
        <ele>24.32872</ele>
        <time>2023-12-30T15:20:08.000Z</time>
      </trkpt>
      <trkpt lat="43.4252" lon="3.45743">
        <ele>24.422382</ele>
        <time>2023-12-30T15:20:09.000Z</time>
      </trkpt>
      <trkpt lat="43.42522" lon="3.45745">
        <ele>24.518378</ele>
        <time>2023-12-30T15:20:10.000Z</time>
      </trkpt>
      <trkpt lat="43.42524" lon="3.45746">
        <ele>24.603902</ele>
        <time>2023-12-30T15:20:11.000Z</time>
      </trkpt>
      <trkpt lat="43.42527" lon="3.45747">
        <ele>24.68528</ele>
        <time>2023-12-30T15:20:12.000Z</time>
      </trkpt>
      <trkpt lat="43.42529" lon="3.45749">
        <ele>24.795328</ele>
        <time>2023-12-30T15:20:13.000Z</time>
      </trkpt>
      <trkpt lat="43.42532" lon="3.45752">
        <ele>24.908565</ele>
        <time>2023-12-30T15:20:14.000Z</time>
      </trkpt>
      <trkpt lat="43.42535" lon="3.45754">
        <ele>25.03587</ele>
        <time>2023-12-30T15:20:15.000Z</time>
      </trkpt>
      <trkpt lat="43.42538" lon="3.45757">
        <ele>25.154598</ele>
        <time>2023-12-30T15:20:16.000Z</time>
      </trkpt>
      <trkpt lat="43.4254" lon="3.4576">
        <ele>25.266203</ele>
        <time>2023-12-30T15:20:17.000Z</time>
      </trkpt>
      <trkpt lat="43.42543" lon="3.45763">
        <ele>25.388069</ele>
        <time>2023-12-30T15:20:18.000Z</time>
      </trkpt>
      <trkpt lat="43.42545" lon="3.45766">
        <ele>25.495907</ele>
        <time>2023-12-30T15:20:19.000Z</time>
      </trkpt>
      <trkpt lat="43.42548" lon="3.45769">
        <ele>25.6064</ele>
        <time>2023-12-30T15:20:20.000Z</time>
      </trkpt>
      <trkpt lat="43.4255" lon="3.45771">
        <ele>25.704991</ele>
        <time>2023-12-30T15:20:21.000Z</time>
      </trkpt>
      <trkpt lat="43.42552" lon="3.45773">
        <ele>25.794908</ele>
        <time>2023-12-30T15:20:22.000Z</time>
      </trkpt>
      <trkpt lat="43.42553" lon="3.45775">
        <ele>25.863378</ele>
        <time>2023-12-30T15:20:23.000Z</time>
      </trkpt>
      <trkpt lat="43.42554" lon="3.45776">
        <ele>25.914881</ele>
        <time>2023-12-30T15:20:24.000Z</time>
      </trkpt>
      <trkpt lat="43.42555" lon="3.45778">
        <ele>25.97474</ele>
        <time>2023-12-30T15:20:25.000Z</time>
      </trkpt>
      <trkpt lat="43.42557" lon="3.45779">
        <ele>26.032712</ele>
        <time>2023-12-30T15:20:26.000Z</time>
      </trkpt>
      <trkpt lat="43.42558" lon="3.45781">
        <ele>26.100703</ele>
        <time>2023-12-30T15:20:27.000Z</time>
      </trkpt>
      <trkpt lat="43.42561" lon="3.45782">
        <ele>26.188096</ele>
        <time>2023-12-30T15:20:28.000Z</time>
      </trkpt>
      <trkpt lat="43.42563" lon="3.45784">
        <ele>26.282309</ele>
        <time>2023-12-30T15:20:29.000Z</time>
      </trkpt>
      <trkpt lat="43.42565" lon="3.45786">
        <ele>26.377815</ele>
        <time>2023-12-30T15:20:30.000Z</time>
      </trkpt>
      <trkpt lat="43.42567" lon="3.45788">
        <ele>26.474752</ele>
        <time>2023-12-30T15:20:31.000Z</time>
      </trkpt>
      <trkpt lat="43.4257" lon="3.45791">
        <ele>26.580916</ele>
        <time>2023-12-30T15:20:32.000Z</time>
      </trkpt>
      <trkpt lat="43.42572" lon="3.45793">
        <ele>26.677943</ele>
        <time>2023-12-30T15:20:33.000Z</time>
      </trkpt>
      <trkpt lat="43.42574" lon="3.45796">
        <ele>26.78146</ele>
        <time>2023-12-30T15:20:34.000Z</time>
      </trkpt>
      <trkpt lat="43.42576" lon="3.45799">
        <ele>26.887753</ele>
        <time>2023-12-30T15:20:35.000Z</time>
      </trkpt>
      <trkpt lat="43.42578" lon="3.45802">
        <ele>26.995452</ele>
        <time>2023-12-30T15:20:36.000Z</time>
      </trkpt>
      <trkpt lat="43.4258" lon="3.45806">
        <ele>27.10355</ele>
        <time>2023-12-30T15:20:37.000Z</time>
      </trkpt>
      <trkpt lat="43.42581" lon="3.45809">
        <ele>27.201571</ele>
        <time>2023-12-30T15:20:38.000Z</time>
      </trkpt>
      <trkpt lat="43.42582" lon="3.45812">
        <ele>27.29069</ele>
        <time>2023-12-30T15:20:39.000Z</time>
      </trkpt>
      <trkpt lat="43.42584" lon="3.45816">
        <ele>27.404957</ele>
        <time>2023-12-30T15:20:40.000Z</time>
      </trkpt>
      <trkpt lat="43.42584" lon="3.4582">
        <ele>27.494216</ele>
        <time>2023-12-30T15:20:41.000Z</time>
      </trkpt>
      <trkpt lat="43.42585" lon="3.45823">
        <ele>27.576151</ele>
        <time>2023-12-30T15:20:42.000Z</time>
      </trkpt>
      <trkpt lat="43.42585" lon="3.45827">
        <ele>27.675703</ele>
        <time>2023-12-30T15:20:43.000Z</time>
      </trkpt>
      <trkpt lat="43.42585" lon="3.45831">
        <ele>27.796422</ele>
        <time>2023-12-30T15:20:44.000Z</time>
      </trkpt>
      <trkpt lat="43.42585" lon="3.45836">
        <ele>27.904996</ele>
        <time>2023-12-30T15:20:45.000Z</time>
      </trkpt>
      <trkpt lat="43.42586" lon="3.4584">
        <ele>28.018117</ele>
        <time>2023-12-30T15:20:46.000Z</time>
      </trkpt>
      <trkpt lat="43.42586" lon="3.45844">
        <ele>28.1204</ele>
        <time>2023-12-30T15:20:47.000Z</time>
      </trkpt>
      <trkpt lat="43.42586" lon="3.45848">
        <ele>28.210785</ele>
        <time>2023-12-30T15:20:48.000Z</time>
      </trkpt>
      <trkpt lat="43.42587" lon="3.45851">
        <ele>28.29272</ele>
        <time>2023-12-30T15:20:49.000Z</time>
      </trkpt>
      <trkpt lat="43.42587" lon="3.45854">
        <ele>28.375536</ele>
        <time>2023-12-30T15:20:50.000Z</time>
      </trkpt>
      <trkpt lat="43.42588" lon="3.45856">
        <ele>28.443335</ele>
        <time>2023-12-30T15:20:51.000Z</time>
      </trkpt>
      <trkpt lat="43.42588" lon="3.45859">
        <ele>28.520188</ele>
        <time>2023-12-30T15:20:52.000Z</time>
      </trkpt>
      <trkpt lat="43.42588" lon="3.45862">
        <ele>28.589155</ele>
        <time>2023-12-30T15:20:53.000Z</time>
      </trkpt>
      <trkpt lat="43.42588" lon="3.45864">
        <ele>28.630123</ele>
        <time>2023-12-30T15:20:54.000Z</time>
      </trkpt>
      <trkpt lat="43.42588" lon="3.45865">
        <ele>28.674055</ele>
        <time>2023-12-30T15:20:55.000Z</time>
      </trkpt>
      <trkpt lat="43.42589" lon="3.45868">
        <ele>28.740753</ele>
        <time>2023-12-30T15:20:56.000Z</time>
      </trkpt>
      <trkpt lat="43.42589" lon="3.45871">
        <ele>28.806903</ele>
        <time>2023-12-30T15:20:57.000Z</time>
      </trkpt>
      <trkpt lat="43.4259" lon="3.45874">
        <ele>28.886283</ele>
        <time>2023-12-30T15:20:58.000Z</time>
      </trkpt>
      <trkpt lat="43.4259" lon="3.45876">
        <ele>28.960756</ele>
        <time>2023-12-30T15:20:59.000Z</time>
      </trkpt>
      <trkpt lat="43.42591" lon="3.45879">
        <ele>29.036299</ele>
        <time>2023-12-30T15:21:00.000Z</time>
      </trkpt>
      <trkpt lat="43.42592" lon="3.45882">
        <ele>29.113222</ele>
        <time>2023-12-30T15:21:01.000Z</time>
      </trkpt>
      <trkpt lat="43.42592" lon="3.45885">
        <ele>29.185424</ele>
        <time>2023-12-30T15:21:02.000Z</time>
      </trkpt>
      <trkpt lat="43.42592" lon="3.45888">
        <ele>29.259404</ele>
        <time>2023-12-30T15:21:03.000Z</time>
      </trkpt>
      <trkpt lat="43.42592" lon="3.4589">
        <ele>29.318497</ele>
        <time>2023-12-30T15:21:04.000Z</time>
      </trkpt>
      <trkpt lat="43.42593" lon="3.45892">
        <ele>29.384549</ele>
        <time>2023-12-30T15:21:05.000Z</time>
      </trkpt>
      <trkpt lat="43.42594" lon="3.45895">
        <ele>29.453008</ele>
        <time>2023-12-30T15:21:06.000Z</time>
      </trkpt>
      <trkpt lat="43.42594" lon="3.45897">
        <ele>29.50819</ele>
        <time>2023-12-30T15:21:07.000Z</time>
      </trkpt>
      <trkpt lat="43.42595" lon="3.459">
        <ele>29.566738</ele>
        <time>2023-12-30T15:21:08.000Z</time>
      </trkpt>
      <trkpt lat="43.42595" lon="3.45903">
        <ele>29.617903</ele>
        <time>2023-12-30T15:21:09.000Z</time>
      </trkpt>
      <trkpt lat="43.42596" lon="3.45905">
        <ele>29.669067</ele>
        <time>2023-12-30T15:21:10.000Z</time>
      </trkpt>
      <trkpt lat="43.42597" lon="3.45907">
        <ele>29.718885</ele>
        <time>2023-12-30T15:21:11.000Z</time>
      </trkpt>
      <trkpt lat="43.42598" lon="3.45909">
        <ele>29.769364</ele>
        <time>2023-12-30T15:21:12.000Z</time>
      </trkpt>
      <trkpt lat="43.42598" lon="3.45911">
        <ele>29.814853</ele>
        <time>2023-12-30T15:21:13.000Z</time>
      </trkpt>
      <trkpt lat="43.42598" lon="3.45914">
        <ele>29.865373</ele>
        <time>2023-12-30T15:21:14.000Z</time>
      </trkpt>
      <trkpt lat="43.42599" lon="3.45916">
        <ele>29.918975</ele>
        <time>2023-12-30T15:21:15.000Z</time>
      </trkpt>
      <trkpt lat="43.426" lon="3.45918">
        <ele>29.968828</ele>
        <time>2023-12-30T15:21:16.000Z</time>
      </trkpt>
      <trkpt lat="43.42601" lon="3.4592">
        <ele>30.015324</ele>
        <time>2023-12-30T15:21:17.000Z</time>
      </trkpt>
      <trkpt lat="43.42602" lon="3.45922">
        <ele>30.071825</ele>
        <time>2023-12-30T15:21:18.000Z</time>
      </trkpt>
      <trkpt lat="43.42603" lon="3.45924">
        <ele>30.120097</ele>
        <time>2023-12-30T15:21:19.000Z</time>
      </trkpt>
      <trkpt lat="43.42604" lon="3.45927">
        <ele>30.178031</ele>
        <time>2023-12-30T15:21:20.000Z</time>
      </trkpt>
      <trkpt lat="43.42605" lon="3.45929">
        <ele>30.229552</ele>
        <time>2023-12-30T15:21:21.000Z</time>
      </trkpt>
      <trkpt lat="43.42607" lon="3.45931">
        <ele>30.292708</ele>
        <time>2023-12-30T15:21:22.000Z</time>
      </trkpt>
      <trkpt lat="43.42608" lon="3.45933">
        <ele>30.354136</ele>
        <time>2023-12-30T15:21:23.000Z</time>
      </trkpt>
      <trkpt lat="43.42609" lon="3.45936">
        <ele>30.422262</ele>
        <time>2023-12-30T15:21:24.000Z</time>
      </trkpt>
      <trkpt lat="43.42611" lon="3.45939">
        <ele>30.485346</ele>
        <time>2023-12-30T15:21:25.000Z</time>
      </trkpt>
      <trkpt lat="43.42612" lon="3.45941">
        <ele>30.546828</ele>
        <time>2023-12-30T15:21:26.000Z</time>
      </trkpt>
      <trkpt lat="43.42614" lon="3.45943">
        <ele>30.614326</ele>
        <time>2023-12-30T15:21:27.000Z</time>
      </trkpt>
      <trkpt lat="43.42616" lon="3.45945">
        <ele>30.68662</ele>
        <time>2023-12-30T15:21:28.000Z</time>
      </trkpt>
      <trkpt lat="43.42618" lon="3.45947">
        <ele>30.772889</ele>
        <time>2023-12-30T15:21:29.000Z</time>
      </trkpt>
      <trkpt lat="43.42621" lon="3.45949">
        <ele>30.843176</ele>
        <time>2023-12-30T15:21:30.000Z</time>
      </trkpt>
      <trkpt lat="43.42623" lon="3.45951">
        <ele>30.918799</ele>
        <time>2023-12-30T15:21:31.000Z</time>
      </trkpt>
      <trkpt lat="43.42625" lon="3.45953">
        <ele>30.992162</ele>
        <time>2023-12-30T15:21:32.000Z</time>
      </trkpt>
      <trkpt lat="43.42627" lon="3.45955">
        <ele>31.065482</ele>
        <time>2023-12-30T15:21:33.000Z</time>
      </trkpt>
      <trkpt lat="43.42629" lon="3.45957">
        <ele>31.139955</ele>
        <time>2023-12-30T15:21:34.000Z</time>
      </trkpt>
      <trkpt lat="43.42632" lon="3.45959">
        <ele>31.212249</ele>
        <time>2023-12-30T15:21:35.000Z</time>
      </trkpt>
      <trkpt lat="43.42633" lon="3.4596">
        <ele>31.275166</ele>
        <time>2023-12-30T15:21:36.000Z</time>
      </trkpt>
      <trkpt lat="43.42636" lon="3.45962">
        <ele>31.342967</ele>
        <time>2023-12-30T15:21:37.000Z</time>
      </trkpt>
      <trkpt lat="43.42637" lon="3.45964">
        <ele>31.402655</ele>
        <time>2023-12-30T15:21:38.000Z</time>
      </trkpt>
      <trkpt lat="43.42639" lon="3.45966">
        <ele>31.466666</ele>
        <time>2023-12-30T15:21:39.000Z</time>
      </trkpt>
      <trkpt lat="43.42641" lon="3.45967">
        <ele>31.530739</ele>
        <time>2023-12-30T15:21:40.000Z</time>
      </trkpt>
      <trkpt lat="43.42643" lon="3.45969">
        <ele>31.591616</ele>
        <time>2023-12-30T15:21:41.000Z</time>
      </trkpt>
      <trkpt lat="43.42645" lon="3.4597">
        <ele>31.657064</ele>
        <time>2023-12-30T15:21:42.000Z</time>
      </trkpt>
      <trkpt lat="43.42647" lon="3.45972">
        <ele>31.721076</ele>
        <time>2023-12-30T15:21:43.000Z</time>
      </trkpt>
      <trkpt lat="43.42649" lon="3.45974">
        <ele>31.788638</ele>
        <time>2023-12-30T15:21:44.000Z</time>
      </trkpt>
      <trkpt lat="43.42651" lon="3.45976">
        <ele>31.856201</ele>
        <time>2023-12-30T15:21:45.000Z</time>
      </trkpt>
      <trkpt lat="43.42653" lon="3.45977">
        <ele>31.920431</ele>
        <time>2023-12-30T15:21:46.000Z</time>
      </trkpt>
      <trkpt lat="43.42655" lon="3.45978">
        <ele>31.984769</ele>
        <time>2023-12-30T15:21:47.000Z</time>
      </trkpt>
      <trkpt lat="43.42657" lon="3.4598">
        <ele>32.049106</ele>
        <time>2023-12-30T15:21:48.000Z</time>
      </trkpt>
      <trkpt lat="43.42659" lon="3.45981">
        <ele>32.112488</ele>
        <time>2023-12-30T15:21:49.000Z</time>
      </trkpt>
      <trkpt lat="43.42661" lon="3.45983">
        <ele>32.175405</ele>
        <time>2023-12-30T15:21:50.000Z</time>
      </trkpt>
      <trkpt lat="43.42662" lon="3.45984">
        <ele>32.226875</ele>
        <time>2023-12-30T15:21:51.000Z</time>
      </trkpt>
      <trkpt lat="43.42664" lon="3.45985">
        <ele>32.269695</ele>
        <time>2023-12-30T15:21:52.000Z</time>
      </trkpt>
      <trkpt lat="43.42665" lon="3.45986">
        <ele>32.320216</ele>
        <time>2023-12-30T15:21:53.000Z</time>
      </trkpt>
      <trkpt lat="43.42667" lon="3.45987">
        <ele>32.365658</ele>
        <time>2023-12-30T15:21:54.000Z</time>
      </trkpt>
      <trkpt lat="43.42668" lon="3.45987">
        <ele>32.40708</ele>
        <time>2023-12-30T15:21:55.000Z</time>
      </trkpt>
      <trkpt lat="43.4267" lon="3.45988">
        <ele>32.4576</ele>
        <time>2023-12-30T15:21:56.000Z</time>
      </trkpt>
      <trkpt lat="43.42671" lon="3.45989">
        <ele>32.504681</ele>
        <time>2023-12-30T15:21:57.000Z</time>
      </trkpt>
      <trkpt lat="43.42673" lon="3.4599">
        <ele>32.548807</ele>
        <time>2023-12-30T15:21:58.000Z</time>
      </trkpt>
      <trkpt lat="43.42674" lon="3.4599">
        <ele>32.586938</ele>
        <time>2023-12-30T15:21:59.000Z</time>
      </trkpt>
      <trkpt lat="43.42676" lon="3.45991">
        <ele>32.632323</ele>
        <time>2023-12-30T15:22:00.000Z</time>
      </trkpt>
      <trkpt lat="43.42677" lon="3.45991">
        <ele>32.683338</ele>
        <time>2023-12-30T15:22:01.000Z</time>
      </trkpt>
      <trkpt lat="43.42679" lon="3.45992">
        <ele>32.736401</ele>
        <time>2023-12-30T15:22:02.000Z</time>
      </trkpt>
      <trkpt lat="43.4268" lon="3.45993">
        <ele>32.780834</ele>
        <time>2023-12-30T15:22:03.000Z</time>
      </trkpt>
      <trkpt lat="43.42681" lon="3.45995">
        <ele>32.827547</ele>
        <time>2023-12-30T15:22:04.000Z</time>
      </trkpt>
      <trkpt lat="43.42682" lon="3.45997">
        <ele>32.881148</ele>
        <time>2023-12-30T15:22:05.000Z</time>
      </trkpt>
      <trkpt lat="43.42683" lon="3.46">
        <ele>32.939967</ele>
        <time>2023-12-30T15:22:06.000Z</time>
      </trkpt>
      <trkpt lat="43.42683" lon="3.46003">
        <ele>32.991954</ele>
        <time>2023-12-30T15:22:07.000Z</time>
      </trkpt>
      <trkpt lat="43.42684" lon="3.46005">
        <ele>33.040476</ele>
        <time>2023-12-30T15:22:08.000Z</time>
      </trkpt>
      <trkpt lat="43.42684" lon="3.46007">
        <ele>33.091701</ele>
        <time>2023-12-30T15:22:09.000Z</time>
      </trkpt>
      <trkpt lat="43.42685" lon="3.46009">
        <ele>33.131593</ele>
        <time>2023-12-30T15:22:10.000Z</time>
      </trkpt>
      <trkpt lat="43.42685" lon="3.46012">
        <ele>33.184115</ele>
        <time>2023-12-30T15:22:11.000Z</time>
      </trkpt>
      <trkpt lat="43.42686" lon="3.46014">
        <ele>33.241005</ele>
        <time>2023-12-30T15:22:12.000Z</time>
      </trkpt>
      <trkpt lat="43.42686" lon="3.46017">
        <ele>33.296186</ele>
        <time>2023-12-30T15:22:13.000Z</time>
      </trkpt>
      <trkpt lat="43.42687" lon="3.4602">
        <ele>33.359832</ele>
        <time>2023-12-30T15:22:14.000Z</time>
      </trkpt>
      <trkpt lat="43.42688" lon="3.46023">
        <ele>33.429266</ele>
        <time>2023-12-30T15:22:15.000Z</time>
      </trkpt>
      <trkpt lat="43.42689" lon="3.46027">
        <ele>33.51428</ele>
        <time>2023-12-30T15:22:16.000Z</time>
      </trkpt>
      <trkpt lat="43.4269" lon="3.46031">
        <ele>33.606877</ele>
        <time>2023-12-30T15:22:17.000Z</time>
      </trkpt>
      <trkpt lat="43.42691" lon="3.46035">
        <ele>33.690805</ele>
        <time>2023-12-30T15:22:18.000Z</time>
      </trkpt>
      <trkpt lat="43.42692" lon="3.46039">
        <ele>33.774603</ele>
        <time>2023-12-30T15:22:19.000Z</time>
      </trkpt>
      <trkpt lat="43.42693" lon="3.46042">
        <ele>33.849084</ele>
        <time>2023-12-30T15:22:20.000Z</time>
      </trkpt>
      <trkpt lat="43.42694" lon="3.46047">
        <ele>33.959072</ele>
        <time>2023-12-30T15:22:21.000Z</time>
      </trkpt>
      <trkpt lat="43.42695" lon="3.46053">
        <ele>34.072853</ele>
        <time>2023-12-30T15:22:22.000Z</time>
      </trkpt>
      <trkpt lat="43.42696" lon="3.46057">
        <ele>34.179882</ele>
        <time>2023-12-30T15:22:23.000Z</time>
      </trkpt>
      <trkpt lat="43.42698" lon="3.46062">
        <ele>34.279242</ele>
        <time>2023-12-30T15:22:24.000Z</time>
      </trkpt>
      <trkpt lat="43.42699" lon="3.46067">
        <ele>34.384466</ele>
        <time>2023-12-30T15:22:25.000Z</time>
      </trkpt>
      <trkpt lat="43.427" lon="3.46072">
        <ele>34.48957</ele>
        <time>2023-12-30T15:22:26.000Z</time>
      </trkpt>
      <trkpt lat="43.42701" lon="3.46077">
        <ele>34.558425</ele>
        <time>2023-12-30T15:22:27.000Z</time>
      </trkpt>
      <trkpt lat="43.42703" lon="3.46082">
        <ele>34.604414</ele>
        <time>2023-12-30T15:22:28.000Z</time>
      </trkpt>
      <trkpt lat="43.42704" lon="3.46087">
        <ele>34.651286</ele>
        <time>2023-12-30T15:22:29.000Z</time>
      </trkpt>
      <trkpt lat="43.42706" lon="3.46093">
        <ele>34.702092</ele>
        <time>2023-12-30T15:22:30.000Z</time>
      </trkpt>
      <trkpt lat="43.42707" lon="3.46098">
        <ele>34.745271</ele>
        <time>2023-12-30T15:22:31.000Z</time>
      </trkpt>
      <trkpt lat="43.42708" lon="3.46103">
        <ele>34.796097</ele>
        <time>2023-12-30T15:22:32.000Z</time>
      </trkpt>
      <trkpt lat="43.4271" lon="3.46109">
        <ele>34.845284</ele>
        <time>2023-12-30T15:22:33.000Z</time>
      </trkpt>
      <trkpt lat="43.42711" lon="3.46114">
        <ele>34.898939</ele>
        <time>2023-12-30T15:22:34.000Z</time>
      </trkpt>
      <trkpt lat="43.42713" lon="3.4612">
        <ele>34.950557</ele>
        <time>2023-12-30T15:22:35.000Z</time>
      </trkpt>
      <trkpt lat="43.42714" lon="3.46125">
        <ele>34.998547</ele>
        <time>2023-12-30T15:22:36.000Z</time>
      </trkpt>
      <trkpt lat="43.42716" lon="3.46131">
        <ele>35.051363</ele>
        <time>2023-12-30T15:22:37.000Z</time>
      </trkpt>
      <trkpt lat="43.42717" lon="3.46137">
        <ele>35.107807</ele>
        <time>2023-12-30T15:22:38.000Z</time>
      </trkpt>
      <trkpt lat="43.42719" lon="3.46143">
        <ele>35.161031</ele>
        <time>2023-12-30T15:22:39.000Z</time>
      </trkpt>
      <trkpt lat="43.4272" lon="3.46149">
        <ele>35.21143</ele>
        <time>2023-12-30T15:22:40.000Z</time>
      </trkpt>
      <trkpt lat="43.42722" lon="3.46154">
        <ele>35.260233</ele>
        <time>2023-12-30T15:22:41.000Z</time>
      </trkpt>
      <trkpt lat="43.42723" lon="3.4616">
        <ele>35.311039</ele>
        <time>2023-12-30T15:22:42.000Z</time>
      </trkpt>
      <trkpt lat="43.42725" lon="3.46165">
        <ele>35.363899</ele>
        <time>2023-12-30T15:22:43.000Z</time>
      </trkpt>
      <trkpt lat="43.42726" lon="3.46171">
        <ele>35.413496</ele>
        <time>2023-12-30T15:22:44.000Z</time>
      </trkpt>
      <trkpt lat="43.42728" lon="3.46176">
        <ele>35.462293</ele>
        <time>2023-12-30T15:22:45.000Z</time>
      </trkpt>
      <trkpt lat="43.42729" lon="3.46181">
        <ele>35.509099</ele>
        <time>2023-12-30T15:22:46.000Z</time>
      </trkpt>
      <trkpt lat="43.4273" lon="3.46186">
        <ele>35.553046</ele>
        <time>2023-12-30T15:22:47.000Z</time>
      </trkpt>
      <trkpt lat="43.42731" lon="3.46191">
        <ele>35.597406</ele>
        <time>2023-12-30T15:22:48.000Z</time>
      </trkpt>
      <trkpt lat="43.42733" lon="3.46196">
        <ele>35.64258</ele>
        <time>2023-12-30T15:22:49.000Z</time>
      </trkpt>
      <trkpt lat="43.42734" lon="3.46201">
        <ele>35.69096</ele>
        <time>2023-12-30T15:22:50.000Z</time>
      </trkpt>
      <trkpt lat="43.42735" lon="3.46206">
        <ele>35.737327</ele>
        <time>2023-12-30T15:22:51.000Z</time>
      </trkpt>
      <trkpt lat="43.42737" lon="3.46212">
        <ele>35.789335</ele>
        <time>2023-12-30T15:22:52.000Z</time>
      </trkpt>
      <trkpt lat="43.42738" lon="3.46218">
        <ele>35.839331</ele>
        <time>2023-12-30T15:22:53.000Z</time>
      </trkpt>
      <trkpt lat="43.4274" lon="3.46223">
        <ele>35.89134</ele>
        <time>2023-12-30T15:22:54.000Z</time>
      </trkpt>
      <trkpt lat="43.42741" lon="3.46229">
        <ele>35.943348</ele>
        <time>2023-12-30T15:22:55.000Z</time>
      </trkpt>
      <trkpt lat="43.42742" lon="3.46234">
        <ele>35.992966</ele>
        <time>2023-12-30T15:22:56.000Z</time>
      </trkpt>
      <trkpt lat="43.42744" lon="3.4624">
        <ele>36.042731</ele>
        <time>2023-12-30T15:22:57.000Z</time>
      </trkpt>
      <trkpt lat="43.42745" lon="3.46245">
        <ele>36.090017</ele>
        <time>2023-12-30T15:22:58.000Z</time>
      </trkpt>
      <trkpt lat="43.42746" lon="3.46251">
        <ele>36.141752</ele>
        <time>2023-12-30T15:22:59.000Z</time>
      </trkpt>
      <trkpt lat="43.42747" lon="3.46257">
        <ele>36.191017</ele>
        <time>2023-12-30T15:23:00.000Z</time>
      </trkpt>
      <trkpt lat="43.42748" lon="3.46262">
        <ele>36.238592</ele>
        <time>2023-12-30T15:23:01.000Z</time>
      </trkpt>
      <trkpt lat="43.4275" lon="3.46267">
        <ele>36.286465</ele>
        <time>2023-12-30T15:23:02.000Z</time>
      </trkpt>
      <trkpt lat="43.42752" lon="3.46271">
        <ele>36.32563</ele>
        <time>2023-12-30T15:23:03.000Z</time>
      </trkpt>
      <trkpt lat="43.42753" lon="3.46276">
        <ele>36.367559</ele>
        <time>2023-12-30T15:23:04.000Z</time>
      </trkpt>
      <trkpt lat="43.42753" lon="3.46279">
        <ele>36.397575</ele>
        <time>2023-12-30T15:23:05.000Z</time>
      </trkpt>
      <trkpt lat="43.42754" lon="3.46282">
        <ele>36.426275</ele>
        <time>2023-12-30T15:23:06.000Z</time>
      </trkpt>
      <trkpt lat="43.42754" lon="3.46285">
        <ele>36.449707</ele>
        <time>2023-12-30T15:23:07.000Z</time>
      </trkpt>
      <trkpt lat="43.42754" lon="3.46287">
        <ele>36.465549</ele>
        <time>2023-12-30T15:23:08.000Z</time>
      </trkpt>
      <trkpt lat="43.42755" lon="3.46289">
        <ele>36.488136</ele>
        <time>2023-12-30T15:23:09.000Z</time>
      </trkpt>
      <trkpt lat="43.42756" lon="3.46292">
        <ele>36.512073</ele>
        <time>2023-12-30T15:23:10.000Z</time>
      </trkpt>
      <trkpt lat="43.42757" lon="3.46294">
        <ele>36.534121</ele>
        <time>2023-12-30T15:23:11.000Z</time>
      </trkpt>
      <trkpt lat="43.42758" lon="3.46295">
        <ele>36.552888</ele>
        <time>2023-12-30T15:23:12.000Z</time>
      </trkpt>
      <trkpt lat="43.42759" lon="3.46296">
        <ele>36.557821</ele>
        <time>2023-12-30T15:23:13.000Z</time>
      </trkpt>
      <trkpt lat="43.42758" lon="3.46296">
        <ele>36.559002</ele>
        <time>2023-12-30T15:23:14.000Z</time>
      </trkpt>
      <trkpt lat="43.42759" lon="3.46296">
        <ele>36.560184</ele>
        <time>2023-12-30T15:23:15.000Z</time>
      </trkpt>
      <trkpt lat="43.42758" lon="3.46296">
        <ele>36.561643</ele>
        <time>2023-12-30T15:23:16.000Z</time>
      </trkpt>
      <trkpt lat="43.42758" lon="3.46296">
        <ele>36.561643</ele>
        <time>2023-12-30T15:23:17.000Z</time>
      </trkpt>
      <trkpt lat="43.42759" lon="3.46296">
        <ele>36.566023</ele>
        <time>2023-12-30T15:23:18.000Z</time>
      </trkpt>
      <trkpt lat="43.42761" lon="3.46297">
        <ele>36.592002</ele>
        <time>2023-12-30T15:23:19.000Z</time>
      </trkpt>
      <trkpt lat="43.42764" lon="3.46298">
        <ele>36.634174</ele>
        <time>2023-12-30T15:23:20.000Z</time>
      </trkpt>
      <trkpt lat="43.42768" lon="3.463">
        <ele>36.79734</ele>
        <time>2023-12-30T15:23:21.000Z</time>
      </trkpt>
      <trkpt lat="43.42773" lon="3.46299">
        <ele>37.029657</ele>
        <time>2023-12-30T15:23:22.000Z</time>
      </trkpt>
      <trkpt lat="43.42777" lon="3.46297">
        <ele>37.268404</ele>
        <time>2023-12-30T15:23:23.000Z</time>
      </trkpt>
      <trkpt lat="43.42781" lon="3.46294">
        <ele>37.502626</ele>
        <time>2023-12-30T15:23:24.000Z</time>
      </trkpt>
      <trkpt lat="43.42785" lon="3.46291">
        <ele>37.704311</ele>
        <time>2023-12-30T15:23:25.000Z</time>
      </trkpt>
      <trkpt lat="43.42787" lon="3.46288">
        <ele>37.878883</ele>
        <time>2023-12-30T15:23:26.000Z</time>
      </trkpt>
      <trkpt lat="43.4279" lon="3.46285">
        <ele>38.053454</ele>
        <time>2023-12-30T15:23:27.000Z</time>
      </trkpt>
      <trkpt lat="43.42793" lon="3.46282">
        <ele>38.209798</ele>
        <time>2023-12-30T15:23:28.000Z</time>
      </trkpt>
      <trkpt lat="43.42795" lon="3.4628">
        <ele>38.361476</ele>
        <time>2023-12-30T15:23:29.000Z</time>
      </trkpt>
      <trkpt lat="43.42797" lon="3.46278">
        <ele>38.51329</ele>
        <time>2023-12-30T15:23:30.000Z</time>
      </trkpt>
      <trkpt lat="43.428" lon="3.46275">
        <ele>38.652508</ele>
        <time>2023-12-30T15:23:31.000Z</time>
      </trkpt>
      <trkpt lat="43.42802" lon="3.46274">
        <ele>38.777296</ele>
        <time>2023-12-30T15:23:32.000Z</time>
      </trkpt>
      <trkpt lat="43.42804" lon="3.46272">
        <ele>38.883285</ele>
        <time>2023-12-30T15:23:33.000Z</time>
      </trkpt>
      <trkpt lat="43.42806" lon="3.46271">
        <ele>38.999438</ele>
        <time>2023-12-30T15:23:34.000Z</time>
      </trkpt>
      <trkpt lat="43.42808" lon="3.46268">
        <ele>39.130891</ele>
        <time>2023-12-30T15:23:35.000Z</time>
      </trkpt>
      <trkpt lat="43.4281" lon="3.46266">
        <ele>39.266255</ele>
        <time>2023-12-30T15:23:36.000Z</time>
      </trkpt>
      <trkpt lat="43.42812" lon="3.46264">
        <ele>39.390949</ele>
        <time>2023-12-30T15:23:37.000Z</time>
      </trkpt>
      <trkpt lat="43.42814" lon="3.46262">
        <ele>39.521877</ele>
        <time>2023-12-30T15:23:38.000Z</time>
      </trkpt>
      <trkpt lat="43.42816" lon="3.4626">
        <ele>39.640336</ele>
        <time>2023-12-30T15:23:39.000Z</time>
      </trkpt>
      <trkpt lat="43.42817" lon="3.46258">
        <ele>39.749349</ele>
        <time>2023-12-30T15:23:40.000Z</time>
      </trkpt>
      <trkpt lat="43.4282" lon="3.46256">
        <ele>39.886512</ele>
        <time>2023-12-30T15:23:41.000Z</time>
      </trkpt>
      <trkpt lat="43.42822" lon="3.46254">
        <ele>40.019501</ele>
        <time>2023-12-30T15:23:42.000Z</time>
      </trkpt>
      <trkpt lat="43.42824" lon="3.46251">
        <ele>40.159544</ele>
        <time>2023-12-30T15:23:43.000Z</time>
      </trkpt>
      <trkpt lat="43.42826" lon="3.46249">
        <ele>40.272343</ele>
        <time>2023-12-30T15:23:44.000Z</time>
      </trkpt>
      <trkpt lat="43.42827" lon="3.46247">
        <ele>40.389024</ele>
        <time>2023-12-30T15:23:45.000Z</time>
      </trkpt>
      <trkpt lat="43.42829" lon="3.46246">
        <ele>40.49908</ele>
        <time>2023-12-30T15:23:46.000Z</time>
      </trkpt>
      <trkpt lat="43.42831" lon="3.46244">
        <ele>40.621656</ele>
        <time>2023-12-30T15:23:47.000Z</time>
      </trkpt>
      <trkpt lat="43.42833" lon="3.46242">
        <ele>40.744564</ele>
        <time>2023-12-30T15:23:48.000Z</time>
      </trkpt>
      <trkpt lat="43.42835" lon="3.4624">
        <ele>40.876017</ele>
        <time>2023-12-30T15:23:49.000Z</time>
      </trkpt>
      <trkpt lat="43.42837" lon="3.46237">
        <ele>40.998842</ele>
        <time>2023-12-30T15:23:50.000Z</time>
      </trkpt>
      <trkpt lat="43.42839" lon="3.46235">
        <ele>41.125241</ele>
        <time>2023-12-30T15:23:51.000Z</time>
      </trkpt>
      <trkpt lat="43.42841" lon="3.46233">
        <ele>41.260548</ele>
        <time>2023-12-30T15:23:52.000Z</time>
      </trkpt>
      <trkpt lat="43.42843" lon="3.46231">
        <ele>41.403945</ele>
        <time>2023-12-30T15:23:53.000Z</time>
      </trkpt>
      <trkpt lat="43.42845" lon="3.46228">
        <ele>41.534015</ele>
        <time>2023-12-30T15:23:54.000Z</time>
      </trkpt>
      <trkpt lat="43.42847" lon="3.46226">
        <ele>41.659489</ele>
        <time>2023-12-30T15:23:55.000Z</time>
      </trkpt>
      <trkpt lat="43.42849" lon="3.46223">
        <ele>41.803372</ele>
        <time>2023-12-30T15:23:56.000Z</time>
      </trkpt>
      <trkpt lat="43.42851" lon="3.4622">
        <ele>41.943765</ele>
        <time>2023-12-30T15:23:57.000Z</time>
      </trkpt>
      <trkpt lat="43.42853" lon="3.46218">
        <ele>42.080992</ele>
        <time>2023-12-30T15:23:58.000Z</time>
      </trkpt>
      <trkpt lat="43.42855" lon="3.46216">
        <ele>42.207753</ele>
        <time>2023-12-30T15:23:59.000Z</time>
      </trkpt>
      <trkpt lat="43.42857" lon="3.46214">
        <ele>42.340743</ele>
        <time>2023-12-30T15:24:00.000Z</time>
      </trkpt>
      <trkpt lat="43.42859" lon="3.46212">
        <ele>42.457427</ele>
        <time>2023-12-30T15:24:01.000Z</time>
      </trkpt>
      <trkpt lat="43.4286" lon="3.4621">
        <ele>42.573085</ele>
        <time>2023-12-30T15:24:02.000Z</time>
      </trkpt>
      <trkpt lat="43.42862" lon="3.46207">
        <ele>42.699484</ele>
        <time>2023-12-30T15:24:03.000Z</time>
      </trkpt>
      <trkpt lat="43.42864" lon="3.46205">
        <ele>42.803921</ele>
        <time>2023-12-30T15:24:04.000Z</time>
      </trkpt>
      <trkpt lat="43.42865" lon="3.46203">
        <ele>42.928774</ele>
        <time>2023-12-30T15:24:05.000Z</time>
      </trkpt>
      <trkpt lat="43.42867" lon="3.462">
        <ele>43.042027</ele>
        <time>2023-12-30T15:24:06.000Z</time>
      </trkpt>
      <trkpt lat="43.42869" lon="3.46198">
        <ele>43.165905</ele>
        <time>2023-12-30T15:24:07.000Z</time>
      </trkpt>
      <trkpt lat="43.4287" lon="3.46196">
        <ele>43.286553</ele>
        <time>2023-12-30T15:24:08.000Z</time>
      </trkpt>
      <trkpt lat="43.42872" lon="3.46194">
        <ele>43.388321</ele>
        <time>2023-12-30T15:24:09.000Z</time>
      </trkpt>
      <trkpt lat="43.42874" lon="3.46191">
        <ele>43.516493</ele>
        <time>2023-12-30T15:24:10.000Z</time>
      </trkpt>
      <trkpt lat="43.42875" lon="3.46189">
        <ele>43.648094</ele>
        <time>2023-12-30T15:24:11.000Z</time>
      </trkpt>
      <trkpt lat="43.42877" lon="3.46187">
        <ele>43.773327</ele>
        <time>2023-12-30T15:24:12.000Z</time>
      </trkpt>
      <trkpt lat="43.42879" lon="3.46184">
        <ele>43.907158</ele>
        <time>2023-12-30T15:24:13.000Z</time>
      </trkpt>
      <trkpt lat="43.42881" lon="3.46181">
        <ele>44.043696</ele>
        <time>2023-12-30T15:24:14.000Z</time>
      </trkpt>
      <trkpt lat="43.42883" lon="3.46179">
        <ele>44.171366</ele>
        <time>2023-12-30T15:24:15.000Z</time>
      </trkpt>
      <trkpt lat="43.42884" lon="3.46175">
        <ele>44.308231</ele>
        <time>2023-12-30T15:24:16.000Z</time>
      </trkpt>
      <trkpt lat="43.42886" lon="3.46173">
        <ele>44.433464</ele>
        <time>2023-12-30T15:24:17.000Z</time>
      </trkpt>
      <trkpt lat="43.42888" lon="3.46171">
        <ele>44.558157</ele>
        <time>2023-12-30T15:24:18.000Z</time>
      </trkpt>
      <trkpt lat="43.4289" lon="3.46169">
        <ele>44.673369</ele>
        <time>2023-12-30T15:24:19.000Z</time>
      </trkpt>
      <trkpt lat="43.42891" lon="3.46168">
        <ele>44.748934</ele>
        <time>2023-12-30T15:24:20.000Z</time>
      </trkpt>
      <trkpt lat="43.42892" lon="3.46166">
        <ele>44.829984</ele>
        <time>2023-12-30T15:24:21.000Z</time>
      </trkpt>
      <trkpt lat="43.42893" lon="3.46165">
        <ele>44.91727</ele>
        <time>2023-12-30T15:24:22.000Z</time>
      </trkpt>
      <trkpt lat="43.42895" lon="3.46163">
        <ele>45.012905</ele>
        <time>2023-12-30T15:24:23.000Z</time>
      </trkpt>
      <trkpt lat="43.42896" lon="3.46162">
        <ele>45.089931</ele>
        <time>2023-12-30T15:24:24.000Z</time>
      </trkpt>
      <trkpt lat="43.42897" lon="3.46161">
        <ele>45.134251</ele>
        <time>2023-12-30T15:24:25.000Z</time>
      </trkpt>
      <trkpt lat="43.42898" lon="3.4616">
        <ele>45.1988</ele>
        <time>2023-12-30T15:24:26.000Z</time>
      </trkpt>
      <trkpt lat="43.42899" lon="3.46159">
        <ele>45.288317</ele>
        <time>2023-12-30T15:24:27.000Z</time>
      </trkpt>
      <trkpt lat="43.429" lon="3.46157">
        <ele>45.350743</ele>
        <time>2023-12-30T15:24:28.000Z</time>
      </trkpt>
      <trkpt lat="43.42901" lon="3.46156">
        <ele>45.418924</ele>
        <time>2023-12-30T15:24:29.000Z</time>
      </trkpt>
      <trkpt lat="43.42901" lon="3.46154">
        <ele>45.50692</ele>
        <time>2023-12-30T15:24:30.000Z</time>
      </trkpt>
      <trkpt lat="43.42902" lon="3.46151">
        <ele>45.604816</ele>
        <time>2023-12-30T15:24:31.000Z</time>
      </trkpt>
      <trkpt lat="43.42904" lon="3.4615">
        <ele>45.682914</ele>
        <time>2023-12-30T15:24:32.000Z</time>
      </trkpt>
      <trkpt lat="43.42905" lon="3.46149">
        <ele>45.780987</ele>
        <time>2023-12-30T15:24:33.000Z</time>
      </trkpt>
      <trkpt lat="43.42906" lon="3.46147">
        <ele>45.897259</ele>
        <time>2023-12-30T15:24:34.000Z</time>
      </trkpt>
      <trkpt lat="43.42908" lon="3.46147">
        <ele>46.00097</ele>
        <time>2023-12-30T15:24:35.000Z</time>
      </trkpt>
      <trkpt lat="43.42909" lon="3.46145">
        <ele>46.111875</ele>
        <time>2023-12-30T15:24:36.000Z</time>
      </trkpt>
      <trkpt lat="43.42911" lon="3.46144">
        <ele>46.244756</ele>
        <time>2023-12-30T15:24:37.000Z</time>
      </trkpt>
      <trkpt lat="43.42912" lon="3.46142">
        <ele>46.368645</ele>
        <time>2023-12-30T15:24:38.000Z</time>
      </trkpt>
      <trkpt lat="43.42913" lon="3.4614">
        <ele>46.495007</ele>
        <time>2023-12-30T15:24:39.000Z</time>
      </trkpt>
      <trkpt lat="43.42914" lon="3.46139">
        <ele>46.597542</ele>
        <time>2023-12-30T15:24:40.000Z</time>
      </trkpt>
      <trkpt lat="43.42916" lon="3.46137">
        <ele>46.741516</ele>
        <time>2023-12-30T15:24:41.000Z</time>
      </trkpt>
      <trkpt lat="43.42918" lon="3.46136">
        <ele>46.896241</ele>
        <time>2023-12-30T15:24:42.000Z</time>
      </trkpt>
      <trkpt lat="43.4292" lon="3.46135">
        <ele>46.996308</ele>
        <time>2023-12-30T15:24:43.000Z</time>
      </trkpt>
      <trkpt lat="43.42921" lon="3.46134">
        <ele>47.134814</ele>
        <time>2023-12-30T15:24:44.000Z</time>
      </trkpt>
      <trkpt lat="43.42923" lon="3.46133">
        <ele>47.243132</ele>
        <time>2023-12-30T15:24:45.000Z</time>
      </trkpt>
      <trkpt lat="43.42924" lon="3.46132">
        <ele>47.336934</ele>
        <time>2023-12-30T15:24:46.000Z</time>
      </trkpt>
      <trkpt lat="43.42926" lon="3.4613">
        <ele>47.46151</ele>
        <time>2023-12-30T15:24:47.000Z</time>
      </trkpt>
      <trkpt lat="43.42927" lon="3.46129">
        <ele>47.558923</ele>
        <time>2023-12-30T15:24:48.000Z</time>
      </trkpt>
      <trkpt lat="43.42928" lon="3.46128">
        <ele>47.657454</ele>
        <time>2023-12-30T15:24:49.000Z</time>
      </trkpt>
      <trkpt lat="43.4293" lon="3.46128">
        <ele>47.773599</ele>
        <time>2023-12-30T15:24:50.000Z</time>
      </trkpt>
      <trkpt lat="43.42931" lon="3.46126">
        <ele>47.877632</ele>
        <time>2023-12-30T15:24:51.000Z</time>
      </trkpt>
      <trkpt lat="43.42932" lon="3.46124">
        <ele>48.00152</ele>
        <time>2023-12-30T15:24:52.000Z</time>
      </trkpt>
      <trkpt lat="43.42934" lon="3.46122">
        <ele>48.135226</ele>
        <time>2023-12-30T15:24:53.000Z</time>
      </trkpt>
      <trkpt lat="43.42935" lon="3.46121">
        <ele>48.254329</ele>
        <time>2023-12-30T15:24:54.000Z</time>
      </trkpt>
      <trkpt lat="43.42936" lon="3.4612">
        <ele>48.352109</ele>
        <time>2023-12-30T15:24:55.000Z</time>
      </trkpt>
      <trkpt lat="43.42938" lon="3.46119">
        <ele>48.462926</ele>
        <time>2023-12-30T15:24:56.000Z</time>
      </trkpt>
      <trkpt lat="43.4294" lon="3.46118">
        <ele>48.599615</ele>
        <time>2023-12-30T15:24:57.000Z</time>
      </trkpt>
      <trkpt lat="43.42941" lon="3.46116">
        <ele>48.732497</ele>
        <time>2023-12-30T15:24:58.000Z</time>
      </trkpt>
      <trkpt lat="43.42943" lon="3.46115">
        <ele>48.852974</ele>
        <time>2023-12-30T15:24:59.000Z</time>
      </trkpt>
      <trkpt lat="43.42943" lon="3.46113">
        <ele>48.947774</ele>
        <time>2023-12-30T15:25:00.000Z</time>
      </trkpt>
      <trkpt lat="43.42945" lon="3.46112">
        <ele>49.037368</ele>
        <time>2023-12-30T15:25:01.000Z</time>
      </trkpt>
      <trkpt lat="43.42946" lon="3.46111">
        <ele>49.143352</ele>
        <time>2023-12-30T15:25:02.000Z</time>
      </trkpt>
      <trkpt lat="43.42947" lon="3.4611">
        <ele>49.249336</ele>
        <time>2023-12-30T15:25:03.000Z</time>
      </trkpt>
      <trkpt lat="43.42948" lon="3.46109">
        <ele>49.352005</ele>
        <time>2023-12-30T15:25:04.000Z</time>
      </trkpt>
      <trkpt lat="43.42949" lon="3.46107">
        <ele>49.463435</ele>
        <time>2023-12-30T15:25:05.000Z</time>
      </trkpt>
      <trkpt lat="43.4295" lon="3.46105">
        <ele>49.585986</ele>
        <time>2023-12-30T15:25:06.000Z</time>
      </trkpt>
      <trkpt lat="43.42951" lon="3.46102">
        <ele>49.716809</ele>
        <time>2023-12-30T15:25:07.000Z</time>
      </trkpt>
      <trkpt lat="43.42952" lon="3.46101">
        <ele>49.827926</ele>
        <time>2023-12-30T15:25:08.000Z</time>
      </trkpt>
      <trkpt lat="43.42954" lon="3.46099">
        <ele>49.945096</ele>
        <time>2023-12-30T15:25:09.000Z</time>
      </trkpt>
      <trkpt lat="43.42955" lon="3.46099">
        <ele>50.047769</ele>
        <time>2023-12-30T15:25:10.000Z</time>
      </trkpt>
      <trkpt lat="43.42957" lon="3.46099">
        <ele>50.168827</ele>
        <time>2023-12-30T15:25:11.000Z</time>
      </trkpt>
      <trkpt lat="43.42959" lon="3.46099">
        <ele>50.304637</ele>
        <time>2023-12-30T15:25:12.000Z</time>
      </trkpt>
      <trkpt lat="43.4296" lon="3.46098">
        <ele>50.405296</ele>
        <time>2023-12-30T15:25:13.000Z</time>
      </trkpt>
      <trkpt lat="43.42961" lon="3.46096">
        <ele>50.510468</ele>
        <time>2023-12-30T15:25:14.000Z</time>
      </trkpt>
      <trkpt lat="43.42963" lon="3.46095">
        <ele>50.654441</ele>
        <time>2023-12-30T15:25:15.000Z</time>
      </trkpt>
      <trkpt lat="43.42965" lon="3.46094">
        <ele>50.789465</ele>
        <time>2023-12-30T15:25:16.000Z</time>
      </trkpt>
      <trkpt lat="43.42966" lon="3.46092">
        <ele>50.896987</ele>
        <time>2023-12-30T15:25:17.000Z</time>
      </trkpt>
      <trkpt lat="43.42968" lon="3.46091">
        <ele>51.01119</ele>
        <time>2023-12-30T15:25:18.000Z</time>
      </trkpt>
      <trkpt lat="43.42968" lon="3.4609">
        <ele>51.098128</ele>
        <time>2023-12-30T15:25:19.000Z</time>
      </trkpt>
      <trkpt lat="43.42969" lon="3.46088">
        <ele>51.192928</ele>
        <time>2023-12-30T15:25:20.000Z</time>
      </trkpt>
      <trkpt lat="43.4297" lon="3.46087">
        <ele>51.287728</ele>
        <time>2023-12-30T15:25:21.000Z</time>
      </trkpt>
      <trkpt lat="43.42971" lon="3.46085">
        <ele>51.398546</ele>
        <time>2023-12-30T15:25:22.000Z</time>
      </trkpt>
      <trkpt lat="43.42972" lon="3.46083">
        <ele>51.520982</ele>
        <time>2023-12-30T15:25:23.000Z</time>
      </trkpt>
      <trkpt lat="43.42973" lon="3.46082">
        <ele>51.581018</ele>
        <time>2023-12-30T15:25:24.000Z</time>
      </trkpt>
      <trkpt lat="43.42973" lon="3.46081">
        <ele>51.666395</ele>
        <time>2023-12-30T15:25:25.000Z</time>
      </trkpt>
      <trkpt lat="43.42974" lon="3.46079">
        <ele>51.776995</ele>
        <time>2023-12-30T15:25:26.000Z</time>
      </trkpt>
      <trkpt lat="43.42975" lon="3.46077">
        <ele>51.87195</ele>
        <time>2023-12-30T15:25:27.000Z</time>
      </trkpt>
      <trkpt lat="43.42976" lon="3.46076">
        <ele>51.955</ele>
        <time>2023-12-30T15:25:28.000Z</time>
      </trkpt>
      <trkpt lat="43.42977" lon="3.46075">
        <ele>52.018331</ele>
        <time>2023-12-30T15:25:29.000Z</time>
      </trkpt>
      <trkpt lat="43.42977" lon="3.46074">
        <ele>52.059621</ele>
        <time>2023-12-30T15:25:30.000Z</time>
      </trkpt>
      <trkpt lat="43.42977" lon="3.46073">
        <ele>52.112422</ele>
        <time>2023-12-30T15:25:31.000Z</time>
      </trkpt>
      <trkpt lat="43.42977" lon="3.46072">
        <ele>52.190404</ele>
        <time>2023-12-30T15:25:32.000Z</time>
      </trkpt>
      <trkpt lat="43.42979" lon="3.4607">
        <ele>52.301521</ele>
        <time>2023-12-30T15:25:33.000Z</time>
      </trkpt>
      <trkpt lat="43.4298" lon="3.46069">
        <ele>52.407213</ele>
        <time>2023-12-30T15:25:34.000Z</time>
      </trkpt>
      <trkpt lat="43.42981" lon="3.46068">
        <ele>52.496807</ele>
        <time>2023-12-30T15:25:35.000Z</time>
      </trkpt>
      <trkpt lat="43.42982" lon="3.46067">
        <ele>52.574521</ele>
        <time>2023-12-30T15:25:36.000Z</time>
      </trkpt>
      <trkpt lat="43.42982" lon="3.46066">
        <ele>52.638957</ele>
        <time>2023-12-30T15:25:37.000Z</time>
      </trkpt>
      <trkpt lat="43.42983" lon="3.46065">
        <ele>52.713703</ele>
        <time>2023-12-30T15:25:38.000Z</time>
      </trkpt>
      <trkpt lat="43.42985" lon="3.46063">
        <ele>52.846584</ele>
        <time>2023-12-30T15:25:39.000Z</time>
      </trkpt>
      <trkpt lat="43.42987" lon="3.46062">
        <ele>52.996075</ele>
        <time>2023-12-30T15:25:40.000Z</time>
      </trkpt>
      <trkpt lat="43.42988" lon="3.46061">
        <ele>53.114152</ele>
        <time>2023-12-30T15:25:41.000Z</time>
      </trkpt>
      <trkpt lat="43.4299" lon="3.4606">
        <ele>53.265888</ele>
        <time>2023-12-30T15:25:42.000Z</time>
      </trkpt>
      <trkpt lat="43.43011" lon="3.46021">
        <ele>55.874412</ele>
        <time>2023-12-30T15:26:12.000Z</time>
      </trkpt>
      <trkpt lat="43.43011" lon="3.4602">
        <ele>55.944044</ele>
        <time>2023-12-30T15:26:13.000Z</time>
      </trkpt>
      <trkpt lat="43.43011" lon="3.46019">
        <ele>55.998145</ele>
        <time>2023-12-30T15:26:14.000Z</time>
      </trkpt>
      <trkpt lat="43.43011" lon="3.46017">
        <ele>56.077375</ele>
        <time>2023-12-30T15:26:15.000Z</time>
      </trkpt>
      <trkpt lat="43.43011" lon="3.46016">
        <ele>56.127993</ele>
        <time>2023-12-30T15:26:16.000Z</time>
      </trkpt>
      <trkpt lat="43.43012" lon="3.46015">
        <ele>56.183293</ele>
        <time>2023-12-30T15:26:17.000Z</time>
      </trkpt>
      <trkpt lat="43.43012" lon="3.46014">
        <ele>56.252195</ele>
        <time>2023-12-30T15:26:18.000Z</time>
      </trkpt>
      <trkpt lat="43.43012" lon="3.46013">
        <ele>56.309537</ele>
        <time>2023-12-30T15:26:19.000Z</time>
      </trkpt>
      <trkpt lat="43.43013" lon="3.46011">
        <ele>56.385464</ele>
        <time>2023-12-30T15:26:20.000Z</time>
      </trkpt>
      <trkpt lat="43.43013" lon="3.46011">
        <ele>56.415506</ele>
        <time>2023-12-30T15:26:21.000Z</time>
      </trkpt>
      <trkpt lat="43.43013" lon="3.46009">
        <ele>56.491434</ele>
        <time>2023-12-30T15:26:22.000Z</time>
      </trkpt>
      <trkpt lat="43.43013" lon="3.46008">
        <ele>56.548776</ele>
        <time>2023-12-30T15:26:23.000Z</time>
      </trkpt>
      <trkpt lat="43.43014" lon="3.46006">
        <ele>56.65438</ele>
        <time>2023-12-30T15:26:24.000Z</time>
      </trkpt>
      <trkpt lat="43.43015" lon="3.46004">
        <ele>56.770107</ele>
        <time>2023-12-30T15:26:25.000Z</time>
      </trkpt>
      <trkpt lat="43.43016" lon="3.46002">
        <ele>56.895542</ele>
        <time>2023-12-30T15:26:26.000Z</time>
      </trkpt>
      <trkpt lat="43.43017" lon="3.45999">
        <ele>57.066029</ele>
        <time>2023-12-30T15:26:27.000Z</time>
      </trkpt>
      <trkpt lat="43.43019" lon="3.45996">
        <ele>57.279328</ele>
        <time>2023-12-30T15:26:28.000Z</time>
      </trkpt>
      <trkpt lat="43.43021" lon="3.45992">
        <ele>57.501307</ele>
        <time>2023-12-30T15:26:29.000Z</time>
      </trkpt>
      <trkpt lat="43.43022" lon="3.45988">
        <ele>57.719903</ele>
        <time>2023-12-30T15:26:30.000Z</time>
      </trkpt>
      <trkpt lat="43.43024" lon="3.45984">
        <ele>57.780211</ele>
        <time>2023-12-30T15:26:31.000Z</time>
      </trkpt>
      <trkpt lat="43.43026" lon="3.4598">
        <ele>57.741925</ele>
        <time>2023-12-30T15:26:32.000Z</time>
      </trkpt>
      <trkpt lat="43.43027" lon="3.45977">
        <ele>57.703757</ele>
        <time>2023-12-30T15:26:33.000Z</time>
      </trkpt>
      <trkpt lat="43.43029" lon="3.45974">
        <ele>57.666366</ele>
        <time>2023-12-30T15:26:34.000Z</time>
      </trkpt>
      <trkpt lat="43.43031" lon="3.4597">
        <ele>57.624317</ele>
        <time>2023-12-30T15:26:35.000Z</time>
      </trkpt>
      <trkpt lat="43.43033" lon="3.45967">
        <ele>57.584678</ele>
        <time>2023-12-30T15:26:36.000Z</time>
      </trkpt>
      <trkpt lat="43.43035" lon="3.45963">
        <ele>57.5397</ele>
        <time>2023-12-30T15:26:37.000Z</time>
      </trkpt>
      <trkpt lat="43.43037" lon="3.45959">
        <ele>57.497775</ele>
        <time>2023-12-30T15:26:38.000Z</time>
      </trkpt>
      <trkpt lat="43.43039" lon="3.45955">
        <ele>57.455034</ele>
        <time>2023-12-30T15:26:39.000Z</time>
      </trkpt>
      <trkpt lat="43.4304" lon="3.45952">
        <ele>57.415114</ele>
        <time>2023-12-30T15:26:40.000Z</time>
      </trkpt>
      <trkpt lat="43.43042" lon="3.45948">
        <ele>57.376998</ele>
        <time>2023-12-30T15:26:41.000Z</time>
      </trkpt>
      <trkpt lat="43.43043" lon="3.45945">
        <ele>57.338823</ele>
        <time>2023-12-30T15:26:42.000Z</time>
      </trkpt>
      <trkpt lat="43.43045" lon="3.45941">
        <ele>57.299061</ele>
        <time>2023-12-30T15:26:43.000Z</time>
      </trkpt>
      <trkpt lat="43.43046" lon="3.45938">
        <ele>57.265708</ele>
        <time>2023-12-30T15:26:44.000Z</time>
      </trkpt>
      <trkpt lat="43.43047" lon="3.45934">
        <ele>57.227533</ele>
        <time>2023-12-30T15:26:45.000Z</time>
      </trkpt>
      <trkpt lat="43.43048" lon="3.4593">
        <ele>57.186788</ele>
        <time>2023-12-30T15:26:46.000Z</time>
      </trkpt>
      <trkpt lat="43.4305" lon="3.45927">
        <ele>57.146219</ele>
        <time>2023-12-30T15:26:47.000Z</time>
      </trkpt>
      <trkpt lat="43.43051" lon="3.45923">
        <ele>57.110606</ele>
        <time>2023-12-30T15:26:48.000Z</time>
      </trkpt>
      <trkpt lat="43.43053" lon="3.45919">
        <ele>57.069031</ele>
        <time>2023-12-30T15:26:49.000Z</time>
      </trkpt>
      <trkpt lat="43.43054" lon="3.45916">
        <ele>57.02911</ele>
        <time>2023-12-30T15:26:50.000Z</time>
      </trkpt>
      <trkpt lat="43.43056" lon="3.45912">
        <ele>56.989348</ele>
        <time>2023-12-30T15:26:51.000Z</time>
      </trkpt>
      <trkpt lat="43.43057" lon="3.45909">
        <ele>56.951472</ele>
        <time>2023-12-30T15:26:52.000Z</time>
      </trkpt>
      <trkpt lat="43.43059" lon="3.45905">
        <ele>56.91133</ele>
        <time>2023-12-30T15:26:53.000Z</time>
      </trkpt>
      <trkpt lat="43.4306" lon="3.459">
        <ele>56.865539</ele>
        <time>2023-12-30T15:26:54.000Z</time>
      </trkpt>
      <trkpt lat="43.43061" lon="3.45896">
        <ele>56.816809</ele>
        <time>2023-12-30T15:26:55.000Z</time>
      </trkpt>
      <trkpt lat="43.43063" lon="3.4589">
        <ele>56.757724</ele>
        <time>2023-12-30T15:26:56.000Z</time>
      </trkpt>
      <trkpt lat="43.43065" lon="3.45884">
        <ele>56.694128</ele>
        <time>2023-12-30T15:26:57.000Z</time>
      </trkpt>
      <trkpt lat="43.43068" lon="3.45878">
        <ele>56.629679</ele>
        <time>2023-12-30T15:26:58.000Z</time>
      </trkpt>
      <trkpt lat="43.4307" lon="3.45871">
        <ele>56.565767</ele>
        <time>2023-12-30T15:26:59.000Z</time>
      </trkpt>
      <trkpt lat="43.43071" lon="3.45865">
        <ele>56.50461</ele>
        <time>2023-12-30T15:27:00.000Z</time>
      </trkpt>
      <trkpt lat="43.43073" lon="3.45859">
        <ele>56.44351</ele>
        <time>2023-12-30T15:27:01.000Z</time>
      </trkpt>
      <trkpt lat="43.43074" lon="3.45853">
        <ele>56.384524</ele>
        <time>2023-12-30T15:27:02.000Z</time>
      </trkpt>
      <trkpt lat="43.43076" lon="3.45847">
        <ele>56.319749</ele>
        <time>2023-12-30T15:27:03.000Z</time>
      </trkpt>
      <trkpt lat="43.43077" lon="3.4584">
        <ele>56.256234</ele>
        <time>2023-12-30T15:27:04.000Z</time>
      </trkpt>
      <trkpt lat="43.43077" lon="3.45834">
        <ele>56.196376</ele>
        <time>2023-12-30T15:27:05.000Z</time>
      </trkpt>
      <trkpt lat="43.43078" lon="3.45827">
        <ele>56.131844</ele>
        <time>2023-12-30T15:27:06.000Z</time>
      </trkpt>
      <trkpt lat="43.43078" lon="3.4582">
        <ele>56.062634</ele>
        <time>2023-12-30T15:27:07.000Z</time>
      </trkpt>
      <trkpt lat="43.43078" lon="3.45813">
        <ele>56.003283</ele>
        <time>2023-12-30T15:27:08.000Z</time>
      </trkpt>
      <trkpt lat="43.43079" lon="3.45807">
        <ele>55.946522</ele>
        <time>2023-12-30T15:27:09.000Z</time>
      </trkpt>
      <trkpt lat="43.43079" lon="3.45801">
        <ele>55.888997</ele>
        <time>2023-12-30T15:27:10.000Z</time>
      </trkpt>
      <trkpt lat="43.43079" lon="3.45796">
        <ele>55.836177</ele>
        <time>2023-12-30T15:27:11.000Z</time>
      </trkpt>
      <trkpt lat="43.43079" lon="3.4579">
        <ele>55.78524</ele>
        <time>2023-12-30T15:27:12.000Z</time>
      </trkpt>
      <trkpt lat="43.4308" lon="3.45785">
        <ele>55.734104</ele>
        <time>2023-12-30T15:27:13.000Z</time>
      </trkpt>
      <trkpt lat="43.4308" lon="3.45779">
        <ele>55.679081</ele>
        <time>2023-12-30T15:27:14.000Z</time>
      </trkpt>
      <trkpt lat="43.43081" lon="3.45773">
        <ele>55.62607</ele>
        <time>2023-12-30T15:27:15.000Z</time>
      </trkpt>
      <trkpt lat="43.43081" lon="3.45768">
        <ele>55.577955</ele>
        <time>2023-12-30T15:27:16.000Z</time>
      </trkpt>
      <trkpt lat="43.43082" lon="3.45763">
        <ele>55.527422</ele>
        <time>2023-12-30T15:27:17.000Z</time>
      </trkpt>
      <trkpt lat="43.43082" lon="3.45758">
        <ele>55.477347</ele>
        <time>2023-12-30T15:27:18.000Z</time>
      </trkpt>
      <trkpt lat="43.43083" lon="3.45753">
        <ele>55.48641</ele>
        <time>2023-12-30T15:27:19.000Z</time>
      </trkpt>
      <trkpt lat="43.43083" lon="3.45748">
        <ele>55.496409</ele>
        <time>2023-12-30T15:27:20.000Z</time>
      </trkpt>
      <trkpt lat="43.43084" lon="3.45744">
        <ele>55.506821</ele>
        <time>2023-12-30T15:27:21.000Z</time>
      </trkpt>
      <trkpt lat="43.43085" lon="3.4574">
        <ele>55.516945</ele>
        <time>2023-12-30T15:27:22.000Z</time>
      </trkpt>
      <trkpt lat="43.43086" lon="3.45736">
        <ele>55.526303</ele>
        <time>2023-12-30T15:27:23.000Z</time>
      </trkpt>
      <trkpt lat="43.43087" lon="3.45732">
        <ele>55.535392</ele>
        <time>2023-12-30T15:27:24.000Z</time>
      </trkpt>
      <trkpt lat="43.43088" lon="3.45727">
        <ele>55.547423</ele>
        <time>2023-12-30T15:27:25.000Z</time>
      </trkpt>
      <trkpt lat="43.4309" lon="3.45722">
        <ele>55.558625</ele>
        <time>2023-12-30T15:27:26.000Z</time>
      </trkpt>
      <trkpt lat="43.43092" lon="3.45718">
        <ele>55.570537</ele>
        <time>2023-12-30T15:27:27.000Z</time>
      </trkpt>
      <trkpt lat="43.43094" lon="3.45714">
        <ele>55.582624</ele>
        <time>2023-12-30T15:27:28.000Z</time>
      </trkpt>
      <trkpt lat="43.43096" lon="3.45709">
        <ele>55.594715</ele>
        <time>2023-12-30T15:27:29.000Z</time>
      </trkpt>
      <trkpt lat="43.43099" lon="3.45705">
        <ele>55.606066</ele>
        <time>2023-12-30T15:27:30.000Z</time>
      </trkpt>
      <trkpt lat="43.43101" lon="3.45701">
        <ele>55.618551</ele>
        <time>2023-12-30T15:27:31.000Z</time>
      </trkpt>
      <trkpt lat="43.43102" lon="3.45696">
        <ele>55.630091</ele>
        <time>2023-12-30T15:27:32.000Z</time>
      </trkpt>
      <trkpt lat="43.43103" lon="3.45692">
        <ele>55.639466</ele>
        <time>2023-12-30T15:27:33.000Z</time>
      </trkpt>
      <trkpt lat="43.43104" lon="3.45688">
        <ele>55.648485</ele>
        <time>2023-12-30T15:27:34.000Z</time>
      </trkpt>
      <trkpt lat="43.43105" lon="3.45684">
        <ele>55.658967</ele>
        <time>2023-12-30T15:27:35.000Z</time>
      </trkpt>
      <trkpt lat="43.43106" lon="3.4568">
        <ele>55.668791</ele>
        <time>2023-12-30T15:27:36.000Z</time>
      </trkpt>
      <trkpt lat="43.43107" lon="3.45675">
        <ele>55.679319</ele>
        <time>2023-12-30T15:27:37.000Z</time>
      </trkpt>
      <trkpt lat="43.43108" lon="3.45671">
        <ele>55.6898</ele>
        <time>2023-12-30T15:27:38.000Z</time>
      </trkpt>
      <trkpt lat="43.43108" lon="3.45667">
        <ele>55.697937</ele>
        <time>2023-12-30T15:27:39.000Z</time>
      </trkpt>
      <trkpt lat="43.43109" lon="3.45663">
        <ele>55.707105</ele>
        <time>2023-12-30T15:27:40.000Z</time>
      </trkpt>
      <trkpt lat="43.4311" lon="3.45659">
        <ele>55.715904</ele>
        <time>2023-12-30T15:27:41.000Z</time>
      </trkpt>
      <trkpt lat="43.43111" lon="3.45656">
        <ele>55.725072</ele>
        <time>2023-12-30T15:27:42.000Z</time>
      </trkpt>
      <trkpt lat="43.43112" lon="3.45651">
        <ele>55.735705</ele>
        <time>2023-12-30T15:27:43.000Z</time>
      </trkpt>
      <trkpt lat="43.43113" lon="3.45647">
        <ele>55.74602</ele>
        <time>2023-12-30T15:27:44.000Z</time>
      </trkpt>
      <trkpt lat="43.43114" lon="3.45643">
        <ele>55.756021</ele>
        <time>2023-12-30T15:27:45.000Z</time>
      </trkpt>
      <trkpt lat="43.43115" lon="3.45639">
        <ele>55.76591</ele>
        <time>2023-12-30T15:27:46.000Z</time>
      </trkpt>
      <trkpt lat="43.43117" lon="3.45635">
        <ele>55.776095</ele>
        <time>2023-12-30T15:27:47.000Z</time>
      </trkpt>
      <trkpt lat="43.43118" lon="3.4563">
        <ele>55.786837</ele>
        <time>2023-12-30T15:27:48.000Z</time>
      </trkpt>
      <trkpt lat="43.43119" lon="3.45626">
        <ele>55.797499</ele>
        <time>2023-12-30T15:27:49.000Z</time>
      </trkpt>
      <trkpt lat="43.43121" lon="3.45621">
        <ele>55.809243</ele>
        <time>2023-12-30T15:27:50.000Z</time>
      </trkpt>
      <trkpt lat="43.43122" lon="3.45616">
        <ele>55.821587</ele>
        <time>2023-12-30T15:27:51.000Z</time>
      </trkpt>
      <trkpt lat="43.43124" lon="3.45611">
        <ele>55.833536</ele>
        <time>2023-12-30T15:27:52.000Z</time>
      </trkpt>
      <trkpt lat="43.43125" lon="3.45607">
        <ele>55.843379</ele>
        <time>2023-12-30T15:27:53.000Z</time>
      </trkpt>
      <trkpt lat="43.43126" lon="3.45603">
        <ele>55.853379</ele>
        <time>2023-12-30T15:27:54.000Z</time>
      </trkpt>
      <trkpt lat="43.43127" lon="3.45599">
        <ele>55.863088</ele>
        <time>2023-12-30T15:27:55.000Z</time>
      </trkpt>
      <trkpt lat="43.43129" lon="3.45595">
        <ele>55.87293</ele>
        <time>2023-12-30T15:27:56.000Z</time>
      </trkpt>
      <trkpt lat="43.4313" lon="3.45592">
        <ele>55.882517</ele>
        <time>2023-12-30T15:27:57.000Z</time>
      </trkpt>
      <trkpt lat="43.43132" lon="3.45589">
        <ele>55.890666</ele>
        <time>2023-12-30T15:27:58.000Z</time>
      </trkpt>
      <trkpt lat="43.43133" lon="3.45585">
        <ele>55.899386</ele>
        <time>2023-12-30T15:27:59.000Z</time>
      </trkpt>
      <trkpt lat="43.43134" lon="3.45582">
        <ele>55.90729</ele>
        <time>2023-12-30T15:28:00.000Z</time>
      </trkpt>
      <trkpt lat="43.43135" lon="3.45579">
        <ele>55.915711</ele>
        <time>2023-12-30T15:28:01.000Z</time>
      </trkpt>
      <trkpt lat="43.43136" lon="3.45575">
        <ele>55.924061</ele>
        <time>2023-12-30T15:28:02.000Z</time>
      </trkpt>
      <trkpt lat="43.43138" lon="3.45571">
        <ele>55.933846</ele>
        <time>2023-12-30T15:28:03.000Z</time>
      </trkpt>
      <trkpt lat="43.43139" lon="3.45568">
        <ele>55.942886</ele>
        <time>2023-12-30T15:28:04.000Z</time>
      </trkpt>
      <trkpt lat="43.4314" lon="3.45564">
        <ele>55.952326</ele>
        <time>2023-12-30T15:28:05.000Z</time>
      </trkpt>
      <trkpt lat="43.43142" lon="3.45561">
        <ele>55.961765</ele>
        <time>2023-12-30T15:28:06.000Z</time>
      </trkpt>
      <trkpt lat="43.43145" lon="3.45553">
        <ele>55.981734</ele>
        <time>2023-12-30T15:28:08.000Z</time>
      </trkpt>
      <trkpt lat="43.43146" lon="3.45551">
        <ele>55.987604</ele>
        <time>2023-12-30T15:28:09.000Z</time>
      </trkpt>
      <trkpt lat="43.4317" lon="3.45479">
        <ele>54.615468</ele>
        <time>2023-12-30T15:28:59.000Z</time>
      </trkpt>
      <trkpt lat="43.43172" lon="3.45474">
        <ele>54.542098</ele>
        <time>2023-12-30T15:29:00.000Z</time>
      </trkpt>
      <trkpt lat="43.43175" lon="3.45469">
        <ele>54.462803</ele>
        <time>2023-12-30T15:29:01.000Z</time>
      </trkpt>
      <trkpt lat="43.43178" lon="3.45465">
        <ele>54.374713</ele>
        <time>2023-12-30T15:29:02.000Z</time>
      </trkpt>
      <trkpt lat="43.43182" lon="3.4546">
        <ele>54.281681</ele>
        <time>2023-12-30T15:29:03.000Z</time>
      </trkpt>
      <trkpt lat="43.43185" lon="3.45455">
        <ele>54.191003</ele>
        <time>2023-12-30T15:29:04.000Z</time>
      </trkpt>
      <trkpt lat="43.43188" lon="3.4545">
        <ele>54.099753</ele>
        <time>2023-12-30T15:29:05.000Z</time>
      </trkpt>
      <trkpt lat="43.43191" lon="3.45444">
        <ele>54.009606</ele>
        <time>2023-12-30T15:29:06.000Z</time>
      </trkpt>
      <trkpt lat="43.43193" lon="3.45439">
        <ele>53.925587</ele>
        <time>2023-12-30T15:29:07.000Z</time>
      </trkpt>
      <trkpt lat="43.43196" lon="3.45433">
        <ele>53.838504</ele>
        <time>2023-12-30T15:29:08.000Z</time>
      </trkpt>
      <trkpt lat="43.43198" lon="3.45428">
        <ele>53.751422</ele>
        <time>2023-12-30T15:29:09.000Z</time>
      </trkpt>
      <trkpt lat="43.43201" lon="3.45423">
        <ele>53.670983</ele>
        <time>2023-12-30T15:29:10.000Z</time>
      </trkpt>
      <trkpt lat="43.43203" lon="3.45418">
        <ele>53.590411</ele>
        <time>2023-12-30T15:29:11.000Z</time>
      </trkpt>
      <trkpt lat="43.43205" lon="3.45413">
        <ele>53.514393</ele>
        <time>2023-12-30T15:29:12.000Z</time>
      </trkpt>
      <trkpt lat="43.43208" lon="3.45408">
        <ele>53.438329</ele>
        <time>2023-12-30T15:29:13.000Z</time>
      </trkpt>
      <trkpt lat="43.4321" lon="3.45404">
        <ele>53.363283</ele>
        <time>2023-12-30T15:29:14.000Z</time>
      </trkpt>
      <trkpt lat="43.43212" lon="3.45399">
        <ele>53.291493</ele>
        <time>2023-12-30T15:29:15.000Z</time>
      </trkpt>
      <trkpt lat="43.43214" lon="3.45394">
        <ele>53.218383</ele>
        <time>2023-12-30T15:29:16.000Z</time>
      </trkpt>
      <trkpt lat="43.43216" lon="3.4539">
        <ele>53.146687</ele>
        <time>2023-12-30T15:29:17.000Z</time>
      </trkpt>
      <trkpt lat="43.43218" lon="3.45386">
        <ele>53.079282</ele>
        <time>2023-12-30T15:29:18.000Z</time>
      </trkpt>
      <trkpt lat="43.4322" lon="3.45381">
        <ele>53.009153</ele>
        <time>2023-12-30T15:29:19.000Z</time>
      </trkpt>
      <trkpt lat="43.43222" lon="3.45375">
        <ele>52.924502</ele>
        <time>2023-12-30T15:29:20.000Z</time>
      </trkpt>
      <trkpt lat="43.43224" lon="3.45369">
        <ele>52.838614</ele>
        <time>2023-12-30T15:29:21.000Z</time>
      </trkpt>
      <trkpt lat="43.43225" lon="3.45364">
        <ele>52.758609</ele>
        <time>2023-12-30T15:29:22.000Z</time>
      </trkpt>
      <trkpt lat="43.43225" lon="3.45358">
        <ele>52.718106</ele>
        <time>2023-12-30T15:29:23.000Z</time>
      </trkpt>
      <trkpt lat="43.43225" lon="3.45352">
        <ele>52.733953</ele>
        <time>2023-12-30T15:29:24.000Z</time>
      </trkpt>
      <trkpt lat="43.43226" lon="3.45347">
        <ele>52.749618</ele>
        <time>2023-12-30T15:29:25.000Z</time>
      </trkpt>
      <trkpt lat="43.43227" lon="3.45342">
        <ele>52.765195</ele>
        <time>2023-12-30T15:29:26.000Z</time>
      </trkpt>
      <trkpt lat="43.43227" lon="3.45336">
        <ele>52.780779</ele>
        <time>2023-12-30T15:29:27.000Z</time>
      </trkpt>
      <trkpt lat="43.43227" lon="3.45331">
        <ele>52.796685</ele>
        <time>2023-12-30T15:29:28.000Z</time>
      </trkpt>
      <trkpt lat="43.43228" lon="3.45325">
        <ele>52.81269</ele>
        <time>2023-12-30T15:29:29.000Z</time>
      </trkpt>
      <trkpt lat="43.43229" lon="3.4532">
        <ele>52.827841</ele>
        <time>2023-12-30T15:29:30.000Z</time>
      </trkpt>
      <trkpt lat="43.43229" lon="3.45315">
        <ele>52.842935</ele>
        <time>2023-12-30T15:29:31.000Z</time>
      </trkpt>
      <trkpt lat="43.4323" lon="3.4531">
        <ele>52.857518</ele>
        <time>2023-12-30T15:29:32.000Z</time>
      </trkpt>
      <trkpt lat="43.4323" lon="3.45305">
        <ele>52.87279</ele>
        <time>2023-12-30T15:29:33.000Z</time>
      </trkpt>
      <trkpt lat="43.4323" lon="3.45299">
        <ele>52.888455</ele>
        <time>2023-12-30T15:29:34.000Z</time>
      </trkpt>
      <trkpt lat="43.43231" lon="3.45294">
        <ele>52.90293</ele>
        <time>2023-12-30T15:29:35.000Z</time>
      </trkpt>
      <trkpt lat="43.43231" lon="3.45289">
        <ele>52.917367</ele>
        <time>2023-12-30T15:29:36.000Z</time>
      </trkpt>
      <trkpt lat="43.43231" lon="3.45284">
        <ele>52.932664</ele>
        <time>2023-12-30T15:29:37.000Z</time>
      </trkpt>
      <trkpt lat="43.43232" lon="3.45279">
        <ele>52.946556</ele>
        <time>2023-12-30T15:29:38.000Z</time>
      </trkpt>
      <trkpt lat="43.43233" lon="3.45274">
        <ele>52.960926</ele>
        <time>2023-12-30T15:29:39.000Z</time>
      </trkpt>
      <trkpt lat="43.43234" lon="3.45269">
        <ele>52.976627</ele>
        <time>2023-12-30T15:29:40.000Z</time>
      </trkpt>
      <trkpt lat="43.43235" lon="3.45265">
        <ele>52.990715</ele>
        <time>2023-12-30T15:29:41.000Z</time>
      </trkpt>
      <trkpt lat="43.43237" lon="3.4526">
        <ele>53.005567</ele>
        <time>2023-12-30T15:29:42.000Z</time>
      </trkpt>
      <trkpt lat="43.43239" lon="3.45255">
        <ele>53.021492</ele>
        <time>2023-12-30T15:29:43.000Z</time>
      </trkpt>
      <trkpt lat="43.43241" lon="3.4525">
        <ele>53.038171</ele>
        <time>2023-12-30T15:29:44.000Z</time>
      </trkpt>
      <trkpt lat="43.43243" lon="3.45245">
        <ele>53.05365</ele>
        <time>2023-12-30T15:29:45.000Z</time>
      </trkpt>
      <trkpt lat="43.43245" lon="3.4524">
        <ele>53.069798</ele>
        <time>2023-12-30T15:29:46.000Z</time>
      </trkpt>
      <trkpt lat="43.43246" lon="3.45235">
        <ele>53.084809</ele>
        <time>2023-12-30T15:29:47.000Z</time>
      </trkpt>
      <trkpt lat="43.43247" lon="3.4523">
        <ele>53.099568</ele>
        <time>2023-12-30T15:29:48.000Z</time>
      </trkpt>
      <trkpt lat="43.43248" lon="3.45226">
        <ele>53.113938</ele>
        <time>2023-12-30T15:29:49.000Z</time>
      </trkpt>
      <trkpt lat="43.43249" lon="3.45221">
        <ele>53.127549</ele>
        <time>2023-12-30T15:29:50.000Z</time>
      </trkpt>
      <trkpt lat="43.43249" lon="3.45216">
        <ele>53.141503</ele>
        <time>2023-12-30T15:29:51.000Z</time>
      </trkpt>
      <trkpt lat="43.4325" lon="3.45212">
        <ele>53.153327</ele>
        <time>2023-12-30T15:29:52.000Z</time>
      </trkpt>
      <trkpt lat="43.4325" lon="3.45208">
        <ele>53.166617</ele>
        <time>2023-12-30T15:29:53.000Z</time>
      </trkpt>
      <trkpt lat="43.4325" lon="3.45203">
        <ele>53.179048</ele>
        <time>2023-12-30T15:29:54.000Z</time>
      </trkpt>
      <trkpt lat="43.43249" lon="3.45199">
        <ele>53.192214</ele>
        <time>2023-12-30T15:29:55.000Z</time>
      </trkpt>
      <trkpt lat="43.43248" lon="3.45194">
        <ele>53.205604</ele>
        <time>2023-12-30T15:29:56.000Z</time>
      </trkpt>
      <trkpt lat="43.43247" lon="3.45189">
        <ele>53.220758</ele>
        <time>2023-12-30T15:29:57.000Z</time>
      </trkpt>
      <trkpt lat="43.43246" lon="3.45184">
        <ele>53.23521</ele>
        <time>2023-12-30T15:29:58.000Z</time>
      </trkpt>
      <trkpt lat="43.43245" lon="3.4518">
        <ele>53.248172</ele>
        <time>2023-12-30T15:29:59.000Z</time>
      </trkpt>
      <trkpt lat="43.43245" lon="3.45176">
        <ele>53.260489</ele>
        <time>2023-12-30T15:30:00.000Z</time>
      </trkpt>
      <trkpt lat="43.43244" lon="3.45172">
        <ele>53.271874</ele>
        <time>2023-12-30T15:30:01.000Z</time>
      </trkpt>
      <trkpt lat="43.43243" lon="3.45168">
        <ele>53.282987</ele>
        <time>2023-12-30T15:30:02.000Z</time>
      </trkpt>
      <trkpt lat="43.43243" lon="3.45164">
        <ele>53.294238</ele>
        <time>2023-12-30T15:30:03.000Z</time>
      </trkpt>
      <trkpt lat="43.43243" lon="3.4516">
        <ele>53.305991</ele>
        <time>2023-12-30T15:30:04.000Z</time>
      </trkpt>
      <trkpt lat="43.43241" lon="3.45157">
        <ele>53.31739</ele>
        <time>2023-12-30T15:30:05.000Z</time>
      </trkpt>
      <trkpt lat="43.4324" lon="3.45153">
        <ele>53.329563</ele>
        <time>2023-12-30T15:30:06.000Z</time>
      </trkpt>
      <trkpt lat="43.4324" lon="3.45149">
        <ele>53.341316</ele>
        <time>2023-12-30T15:30:07.000Z</time>
      </trkpt>
      <trkpt lat="43.43239" lon="3.45145">
        <ele>53.353634</ele>
        <time>2023-12-30T15:30:08.000Z</time>
      </trkpt>
      <trkpt lat="43.43239" lon="3.45141">
        <ele>53.363418</ele>
        <time>2023-12-30T15:30:09.000Z</time>
      </trkpt>
      <trkpt lat="43.43239" lon="3.45138">
        <ele>53.372373</ele>
        <time>2023-12-30T15:30:10.000Z</time>
      </trkpt>
      <trkpt lat="43.43239" lon="3.45134">
        <ele>53.382733</ele>
        <time>2023-12-30T15:30:11.000Z</time>
      </trkpt>
      <trkpt lat="43.43239" lon="3.45131">
        <ele>53.392433</ele>
        <time>2023-12-30T15:30:12.000Z</time>
      </trkpt>
      <trkpt lat="43.43238" lon="3.45128">
        <ele>53.402989</ele>
        <time>2023-12-30T15:30:13.000Z</time>
      </trkpt>
      <trkpt lat="43.43237" lon="3.45124">
        <ele>53.414817</ele>
        <time>2023-12-30T15:30:14.000Z</time>
      </trkpt>
      <trkpt lat="43.43235" lon="3.4512">
        <ele>53.402135</ele>
        <time>2023-12-30T15:30:15.000Z</time>
      </trkpt>
      <trkpt lat="43.43234" lon="3.45117">
        <ele>53.324728</ele>
        <time>2023-12-30T15:30:16.000Z</time>
      </trkpt>
      <trkpt lat="43.43232" lon="3.45113">
        <ele>53.244016</ele>
        <time>2023-12-30T15:30:17.000Z</time>
      </trkpt>
      <trkpt lat="43.43231" lon="3.45109">
        <ele>53.169571</ele>
        <time>2023-12-30T15:30:18.000Z</time>
      </trkpt>
      <trkpt lat="43.43229" lon="3.45106">
        <ele>53.088411</ele>
        <time>2023-12-30T15:30:19.000Z</time>
      </trkpt>
      <trkpt lat="43.43228" lon="3.45102">
        <ele>52.998961</ele>
        <time>2023-12-30T15:30:20.000Z</time>
      </trkpt>
      <trkpt lat="43.43226" lon="3.45098">
        <ele>52.91857</ele>
        <time>2023-12-30T15:30:21.000Z</time>
      </trkpt>
      <trkpt lat="43.43224" lon="3.45094">
        <ele>52.834906</ele>
        <time>2023-12-30T15:30:22.000Z</time>
      </trkpt>
      <trkpt lat="43.43223" lon="3.45091">
        <ele>52.757738</ele>
        <time>2023-12-30T15:30:23.000Z</time>
      </trkpt>
      <trkpt lat="43.4322" lon="3.45088">
        <ele>52.669235</ele>
        <time>2023-12-30T15:30:24.000Z</time>
      </trkpt>
      <trkpt lat="43.43219" lon="3.45084">
        <ele>52.593635</ele>
        <time>2023-12-30T15:30:25.000Z</time>
      </trkpt>
      <trkpt lat="43.43216" lon="3.45082">
        <ele>52.518822</ele>
        <time>2023-12-30T15:30:26.000Z</time>
      </trkpt>
      <trkpt lat="43.43214" lon="3.4508">
        <ele>52.446213</ele>
        <time>2023-12-30T15:30:27.000Z</time>
      </trkpt>
      <trkpt lat="43.43211" lon="3.45078">
        <ele>52.3681</ele>
        <time>2023-12-30T15:30:28.000Z</time>
      </trkpt>
      <trkpt lat="43.43209" lon="3.45076">
        <ele>52.288589</ele>
        <time>2023-12-30T15:30:29.000Z</time>
      </trkpt>
      <trkpt lat="43.43206" lon="3.45075">
        <ele>52.208597</ele>
        <time>2023-12-30T15:30:30.000Z</time>
      </trkpt>
      <trkpt lat="43.43203" lon="3.45073">
        <ele>52.125165</ele>
        <time>2023-12-30T15:30:31.000Z</time>
      </trkpt>
      <trkpt lat="43.432" lon="3.45072">
        <ele>52.038983</ele>
        <time>2023-12-30T15:30:32.000Z</time>
      </trkpt>
      <trkpt lat="43.43197" lon="3.4507">
        <ele>51.957935</ele>
        <time>2023-12-30T15:30:33.000Z</time>
      </trkpt>
      <trkpt lat="43.43195" lon="3.45069">
        <ele>51.892725</ele>
        <time>2023-12-30T15:30:34.000Z</time>
      </trkpt>
      <trkpt lat="43.43192" lon="3.45067">
        <ele>51.820175</ele>
        <time>2023-12-30T15:30:35.000Z</time>
      </trkpt>
      <trkpt lat="43.43189" lon="3.45066">
        <ele>51.743812</ele>
        <time>2023-12-30T15:30:36.000Z</time>
      </trkpt>
      <trkpt lat="43.43186" lon="3.45064">
        <ele>51.648939</ele>
        <time>2023-12-30T15:30:37.000Z</time>
      </trkpt>
      <trkpt lat="43.43182" lon="3.45062">
        <ele>51.541544</ele>
        <time>2023-12-30T15:30:38.000Z</time>
      </trkpt>
      <trkpt lat="43.43179" lon="3.45059">
        <ele>51.436321</ele>
        <time>2023-12-30T15:30:39.000Z</time>
      </trkpt>
      <trkpt lat="43.43176" lon="3.45057">
        <ele>51.347579</ele>
        <time>2023-12-30T15:30:40.000Z</time>
      </trkpt>
      <trkpt lat="43.43173" lon="3.45055">
        <ele>51.26852</ele>
        <time>2023-12-30T15:30:41.000Z</time>
      </trkpt>
      <trkpt lat="43.4317" lon="3.45052">
        <ele>51.171281</ele>
        <time>2023-12-30T15:30:42.000Z</time>
      </trkpt>
      <trkpt lat="43.43166" lon="3.45048">
        <ele>51.047902</ele>
        <time>2023-12-30T15:30:43.000Z</time>
      </trkpt>
      <trkpt lat="43.43163" lon="3.45044">
        <ele>50.917682</ele>
        <time>2023-12-30T15:30:44.000Z</time>
      </trkpt>
      <trkpt lat="43.4316" lon="3.4504">
        <ele>50.816421</ele>
        <time>2023-12-30T15:30:45.000Z</time>
      </trkpt>
      <trkpt lat="43.43158" lon="3.45035">
        <ele>50.711015</ele>
        <time>2023-12-30T15:30:46.000Z</time>
      </trkpt>
      <trkpt lat="43.43156" lon="3.4503">
        <ele>50.606211</ele>
        <time>2023-12-30T15:30:47.000Z</time>
      </trkpt>
      <trkpt lat="43.43155" lon="3.45024">
        <ele>50.492523</ele>
        <time>2023-12-30T15:30:48.000Z</time>
      </trkpt>
      <trkpt lat="43.43153" lon="3.45019">
        <ele>50.377064</ele>
        <time>2023-12-30T15:30:49.000Z</time>
      </trkpt>
      <trkpt lat="43.4315" lon="3.45013">
        <ele>50.246955</ele>
        <time>2023-12-30T15:30:50.000Z</time>
      </trkpt>
      <trkpt lat="43.43148" lon="3.45007">
        <ele>50.106269</ele>
        <time>2023-12-30T15:30:51.000Z</time>
      </trkpt>
      <trkpt lat="43.43144" lon="3.45001">
        <ele>49.95174</ele>
        <time>2023-12-30T15:30:52.000Z</time>
      </trkpt>
      <trkpt lat="43.4314" lon="3.44994">
        <ele>49.792347</ele>
        <time>2023-12-30T15:30:53.000Z</time>
      </trkpt>
      <trkpt lat="43.43135" lon="3.44989">
        <ele>49.630684</ele>
        <time>2023-12-30T15:30:54.000Z</time>
      </trkpt>
      <trkpt lat="43.4313" lon="3.44983">
        <ele>49.463238</ele>
        <time>2023-12-30T15:30:55.000Z</time>
      </trkpt>
      <trkpt lat="43.43125" lon="3.44979">
        <ele>49.30512</ele>
        <time>2023-12-30T15:30:56.000Z</time>
      </trkpt>
      <trkpt lat="43.4312" lon="3.44932">
        <ele>48.327179</ele>
        <time>2023-12-30T15:31:15.000Z</time>
      </trkpt>
      <trkpt lat="43.43121" lon="3.4493">
        <ele>48.299645</ele>
        <time>2023-12-30T15:31:16.000Z</time>
      </trkpt>
      <trkpt lat="43.43122" lon="3.44928">
        <ele>48.277789</ele>
        <time>2023-12-30T15:31:17.000Z</time>
      </trkpt>
      <trkpt lat="43.43122" lon="3.44926">
        <ele>48.26035</ele>
        <time>2023-12-30T15:31:18.000Z</time>
      </trkpt>
      <trkpt lat="43.43121" lon="3.44925">
        <ele>48.241405</ele>
        <time>2023-12-30T15:31:19.000Z</time>
      </trkpt>
      <trkpt lat="43.43121" lon="3.44923">
        <ele>48.226017</ele>
        <time>2023-12-30T15:31:20.000Z</time>
      </trkpt>
      <trkpt lat="43.43121" lon="3.44922">
        <ele>48.218699</ele>
        <time>2023-12-30T15:31:21.000Z</time>
      </trkpt>
      <trkpt lat="43.43121" lon="3.44922">
        <ele>48.215312</ele>
        <time>2023-12-30T15:31:22.000Z</time>
      </trkpt>
      <trkpt lat="43.43122" lon="3.4492">
        <ele>48.194581</ele>
        <time>2023-12-30T15:31:23.000Z</time>
      </trkpt>
      <trkpt lat="43.43122" lon="3.44918">
        <ele>48.175271</ele>
        <time>2023-12-30T15:31:24.000Z</time>
      </trkpt>
      <trkpt lat="43.43123" lon="3.44918">
        <ele>48.167555</ele>
        <time>2023-12-30T15:31:25.000Z</time>
      </trkpt>
      <trkpt lat="43.43123" lon="3.44918">
        <ele>48.165809</ele>
        <time>2023-12-30T15:31:26.000Z</time>
      </trkpt>
      <trkpt lat="43.43123" lon="3.44918">
        <ele>48.165809</ele>
        <time>2023-12-30T15:31:27.000Z</time>
      </trkpt>
      <trkpt lat="43.43123" lon="3.44918">
        <ele>48.165809</ele>
        <time>2023-12-30T15:31:28.000Z</time>
      </trkpt>
      <trkpt lat="43.43123" lon="3.44918">
        <ele>48.165809</ele>
        <time>2023-12-30T15:31:29.000Z</time>
      </trkpt>
      <trkpt lat="43.43123" lon="3.44918">
        <ele>48.164396</ele>
        <time>2023-12-30T15:31:30.000Z</time>
      </trkpt>
      <trkpt lat="43.43123" lon="3.44918">
        <ele>48.161319</ele>
        <time>2023-12-30T15:31:31.000Z</time>
      </trkpt>
      <trkpt lat="43.43123" lon="3.44917">
        <ele>48.152991</ele>
        <time>2023-12-30T15:31:32.000Z</time>
      </trkpt>
      <trkpt lat="43.43123" lon="3.44915">
        <ele>48.13072</ele>
        <time>2023-12-30T15:31:33.000Z</time>
      </trkpt>
      <trkpt lat="43.43123" lon="3.44911">
        <ele>48.090315</ele>
        <time>2023-12-30T15:31:34.000Z</time>
      </trkpt>
      <trkpt lat="43.43124" lon="3.44906">
        <ele>48.033262</ele>
        <time>2023-12-30T15:31:35.000Z</time>
      </trkpt>
      <trkpt lat="43.43126" lon="3.44901">
        <ele>47.981226</ele>
        <time>2023-12-30T15:31:36.000Z</time>
      </trkpt>
      <trkpt lat="43.43128" lon="3.44897">
        <ele>47.926157</ele>
        <time>2023-12-30T15:31:37.000Z</time>
      </trkpt>
      <trkpt lat="43.43132" lon="3.44895">
        <ele>47.867752</ele>
        <time>2023-12-30T15:31:38.000Z</time>
      </trkpt>
      <trkpt lat="43.43135" lon="3.44893">
        <ele>47.819661</ele>
        <time>2023-12-30T15:31:39.000Z</time>
      </trkpt>
      <trkpt lat="43.43138" lon="3.44892">
        <ele>47.779583</ele>
        <time>2023-12-30T15:31:40.000Z</time>
      </trkpt>
      <trkpt lat="43.43141" lon="3.4489">
        <ele>47.730493</ele>
        <time>2023-12-30T15:31:41.000Z</time>
      </trkpt>
      <trkpt lat="43.43144" lon="3.44888">
        <ele>47.678522</ele>
        <time>2023-12-30T15:31:42.000Z</time>
      </trkpt>
      <trkpt lat="43.43147" lon="3.44885">
        <ele>47.624402</ele>
        <time>2023-12-30T15:31:43.000Z</time>
      </trkpt>
      <trkpt lat="43.43151" lon="3.44883">
        <ele>47.570965</ele>
        <time>2023-12-30T15:31:44.000Z</time>
      </trkpt>
      <trkpt lat="43.43154" lon="3.44881">
        <ele>47.521739</ele>
        <time>2023-12-30T15:31:45.000Z</time>
      </trkpt>
      <trkpt lat="43.43158" lon="3.44879">
        <ele>47.469947</ele>
        <time>2023-12-30T15:31:46.000Z</time>
      </trkpt>
      <trkpt lat="43.4316" lon="3.44876">
        <ele>47.42203</ele>
        <time>2023-12-30T15:31:47.000Z</time>
      </trkpt>
      <trkpt lat="43.43163" lon="3.44873">
        <ele>47.375547</ele>
        <time>2023-12-30T15:31:48.000Z</time>
      </trkpt>
      <trkpt lat="43.43164" lon="3.44871">
        <ele>47.342875</ele>
        <time>2023-12-30T15:31:49.000Z</time>
      </trkpt>
      <trkpt lat="43.43166" lon="3.44869">
        <ele>47.310705</ele>
        <time>2023-12-30T15:31:50.000Z</time>
      </trkpt>
      <trkpt lat="43.43168" lon="3.44867">
        <ele>47.274636</ele>
        <time>2023-12-30T15:31:51.000Z</time>
      </trkpt>
      <trkpt lat="43.43171" lon="3.44865">
        <ele>47.230983</ele>
        <time>2023-12-30T15:31:52.000Z</time>
      </trkpt>
      <trkpt lat="43.43174" lon="3.44863">
        <ele>47.18733</ele>
        <time>2023-12-30T15:31:53.000Z</time>
      </trkpt>
      <trkpt lat="43.43176" lon="3.44861">
        <ele>47.142773</ele>
        <time>2023-12-30T15:31:54.000Z</time>
      </trkpt>
      <trkpt lat="43.43179" lon="3.44859">
        <ele>47.102922</ele>
        <time>2023-12-30T15:31:55.000Z</time>
      </trkpt>
      <trkpt lat="43.43182" lon="3.44857">
        <ele>47.060983</ele>
        <time>2023-12-30T15:31:56.000Z</time>
      </trkpt>
      <trkpt lat="43.43185" lon="3.44856">
        <ele>47.017902</ele>
        <time>2023-12-30T15:31:57.000Z</time>
      </trkpt>
      <trkpt lat="43.43187" lon="3.44854">
        <ele>46.974675</ele>
        <time>2023-12-30T15:31:58.000Z</time>
      </trkpt>
      <trkpt lat="43.4319" lon="3.44853">
        <ele>46.935289</ele>
        <time>2023-12-30T15:31:59.000Z</time>
      </trkpt>
      <trkpt lat="43.43192" lon="3.4485">
        <ele>46.894525</ele>
        <time>2023-12-30T15:32:00.000Z</time>
      </trkpt>
      <trkpt lat="43.43194" lon="3.44847">
        <ele>46.851362</ele>
        <time>2023-12-30T15:32:01.000Z</time>
      </trkpt>
      <trkpt lat="43.43195" lon="3.44843">
        <ele>46.808405</ele>
        <time>2023-12-30T15:32:02.000Z</time>
      </trkpt>
      <trkpt lat="43.43194" lon="3.44839">
        <ele>46.766943</ele>
        <time>2023-12-30T15:32:03.000Z</time>
      </trkpt>
      <trkpt lat="43.43193" lon="3.44836">
        <ele>46.72876</ele>
        <time>2023-12-30T15:32:04.000Z</time>
      </trkpt>
      <trkpt lat="43.43192" lon="3.44831">
        <ele>46.682461</ele>
        <time>2023-12-30T15:32:05.000Z</time>
      </trkpt>
      <trkpt lat="43.4319" lon="3.44827">
        <ele>46.634247</ele>
        <time>2023-12-30T15:32:06.000Z</time>
      </trkpt>
      <trkpt lat="43.43189" lon="3.44824">
        <ele>46.591084</ele>
        <time>2023-12-30T15:32:07.000Z</time>
      </trkpt>
      <trkpt lat="43.43188" lon="3.4482">
        <ele>46.551482</ele>
        <time>2023-12-30T15:32:08.000Z</time>
      </trkpt>
      <trkpt lat="43.43188" lon="3.44816">
        <ele>46.51649</ele>
        <time>2023-12-30T15:32:09.000Z</time>
      </trkpt>
      <trkpt lat="43.43188" lon="3.44813">
        <ele>46.484191</ele>
        <time>2023-12-30T15:32:10.000Z</time>
      </trkpt>
      <trkpt lat="43.43189" lon="3.4481">
        <ele>46.442227</ele>
        <time>2023-12-30T15:32:11.000Z</time>
      </trkpt>
      <trkpt lat="43.4319" lon="3.44807">
        <ele>46.410469</ele>
        <time>2023-12-30T15:32:12.000Z</time>
      </trkpt>
      <trkpt lat="43.43192" lon="3.44805">
        <ele>46.376803</ele>
        <time>2023-12-30T15:32:13.000Z</time>
      </trkpt>
      <trkpt lat="43.43194" lon="3.44803">
        <ele>46.340372</ele>
        <time>2023-12-30T15:32:14.000Z</time>
      </trkpt>
      <trkpt lat="43.43197" lon="3.44802">
        <ele>46.296518</ele>
        <time>2023-12-30T15:32:15.000Z</time>
      </trkpt>
      <trkpt lat="43.432" lon="3.44802">
        <ele>46.255552</ele>
        <time>2023-12-30T15:32:16.000Z</time>
      </trkpt>
      <trkpt lat="43.43203" lon="3.44803">
        <ele>46.211331</ele>
        <time>2023-12-30T15:32:17.000Z</time>
      </trkpt>
      <trkpt lat="43.43206" lon="3.44804">
        <ele>46.173207</ele>
        <time>2023-12-30T15:32:18.000Z</time>
      </trkpt>
      <trkpt lat="43.43208" lon="3.44807">
        <ele>46.271026</ele>
        <time>2023-12-30T15:32:19.000Z</time>
      </trkpt>
      <trkpt lat="43.43211" lon="3.44809">
        <ele>46.401418</ele>
        <time>2023-12-30T15:32:20.000Z</time>
      </trkpt>
      <trkpt lat="43.43213" lon="3.4481">
        <ele>46.504283</ele>
        <time>2023-12-30T15:32:21.000Z</time>
      </trkpt>
      <trkpt lat="43.43215" lon="3.44809">
        <ele>46.602857</ele>
        <time>2023-12-30T15:32:22.000Z</time>
      </trkpt>
      <trkpt lat="43.43218" lon="3.44807">
        <ele>46.716702</ele>
        <time>2023-12-30T15:32:23.000Z</time>
      </trkpt>
      <trkpt lat="43.4322" lon="3.44805">
        <ele>46.826518</ele>
        <time>2023-12-30T15:32:24.000Z</time>
      </trkpt>
      <trkpt lat="43.43222" lon="3.44804">
        <ele>46.903526</ele>
        <time>2023-12-30T15:32:25.000Z</time>
      </trkpt>
      <trkpt lat="43.43224" lon="3.44803">
        <ele>47.002101</ele>
        <time>2023-12-30T15:32:26.000Z</time>
      </trkpt>
      <trkpt lat="43.43226" lon="3.44802">
        <ele>47.109019</ele>
        <time>2023-12-30T15:32:27.000Z</time>
      </trkpt>
      <trkpt lat="43.43229" lon="3.44801">
        <ele>47.206535</ele>
        <time>2023-12-30T15:32:28.000Z</time>
      </trkpt>
      <trkpt lat="43.43231" lon="3.44801">
        <ele>47.286203</ele>
        <time>2023-12-30T15:32:29.000Z</time>
      </trkpt>
      <trkpt lat="43.43233" lon="3.44801">
        <ele>47.383202</ele>
        <time>2023-12-30T15:32:30.000Z</time>
      </trkpt>
      <trkpt lat="43.43235" lon="3.448">
        <ele>47.463783</ele>
        <time>2023-12-30T15:32:31.000Z</time>
      </trkpt>
      <trkpt lat="43.43236" lon="3.44799">
        <ele>47.524863</ele>
        <time>2023-12-30T15:32:32.000Z</time>
      </trkpt>
      <trkpt lat="43.43238" lon="3.44799">
        <ele>47.58851</ele>
        <time>2023-12-30T15:32:33.000Z</time>
      </trkpt>
      <trkpt lat="43.43239" lon="3.44799">
        <ele>47.648073</ele>
        <time>2023-12-30T15:32:34.000Z</time>
      </trkpt>
      <trkpt lat="43.4324" lon="3.44798">
        <ele>47.706706</ele>
        <time>2023-12-30T15:32:35.000Z</time>
      </trkpt>
      <trkpt lat="43.43242" lon="3.44798">
        <ele>47.7541</ele>
        <time>2023-12-30T15:32:36.000Z</time>
      </trkpt>
      <trkpt lat="43.43243" lon="3.44797">
        <ele>47.803387</ele>
        <time>2023-12-30T15:32:37.000Z</time>
      </trkpt>
      <trkpt lat="43.43244" lon="3.44796">
        <ele>47.865418</ele>
        <time>2023-12-30T15:32:38.000Z</time>
      </trkpt>
      <trkpt lat="43.43246" lon="3.44796">
        <ele>47.950095</ele>
        <time>2023-12-30T15:32:39.000Z</time>
      </trkpt>
      <trkpt lat="43.43248" lon="3.44796">
        <ele>48.030164</ele>
        <time>2023-12-30T15:32:40.000Z</time>
      </trkpt>
      <trkpt lat="43.4325" lon="3.44797">
        <ele>48.114353</ele>
        <time>2023-12-30T15:32:41.000Z</time>
      </trkpt>
      <trkpt lat="43.43252" lon="3.44797">
        <ele>48.21506</ele>
        <time>2023-12-30T15:32:42.000Z</time>
      </trkpt>
      <trkpt lat="43.43254" lon="3.44797">
        <ele>48.290591</ele>
        <time>2023-12-30T15:32:43.000Z</time>
      </trkpt>
      <trkpt lat="43.43256" lon="3.44798">
        <ele>48.357858</ele>
        <time>2023-12-30T15:32:44.000Z</time>
      </trkpt>
      <trkpt lat="43.43257" lon="3.44798">
        <ele>48.429702</ele>
        <time>2023-12-30T15:32:45.000Z</time>
      </trkpt>
      <trkpt lat="43.43259" lon="3.44799">
        <ele>48.505656</ele>
        <time>2023-12-30T15:32:46.000Z</time>
      </trkpt>
      <trkpt lat="43.43261" lon="3.44798">
        <ele>48.568215</ele>
        <time>2023-12-30T15:32:47.000Z</time>
      </trkpt>
      <trkpt lat="43.43263" lon="3.44798">
        <ele>48.652892</ele>
        <time>2023-12-30T15:32:48.000Z</time>
      </trkpt>
      <trkpt lat="43.43265" lon="3.44798">
        <ele>48.736207</ele>
        <time>2023-12-30T15:32:49.000Z</time>
      </trkpt>
      <trkpt lat="43.43266" lon="3.44798">
        <ele>48.804553</ele>
        <time>2023-12-30T15:32:50.000Z</time>
      </trkpt>
      <trkpt lat="43.43268" lon="3.44798">
        <ele>48.888742</ele>
        <time>2023-12-30T15:32:51.000Z</time>
      </trkpt>
      <trkpt lat="43.4327" lon="3.44797">
        <ele>48.975501</ele>
        <time>2023-12-30T15:32:52.000Z</time>
      </trkpt>
      <trkpt lat="43.43273" lon="3.44796">
        <ele>49.081515</ele>
        <time>2023-12-30T15:32:53.000Z</time>
      </trkpt>
      <trkpt lat="43.43275" lon="3.44794">
        <ele>49.208638</ele>
        <time>2023-12-30T15:32:54.000Z</time>
      </trkpt>
      <trkpt lat="43.43277" lon="3.44792">
        <ele>49.305831</ele>
        <time>2023-12-30T15:32:55.000Z</time>
      </trkpt>
      <trkpt lat="43.43279" lon="3.44792">
        <ele>49.389638</ele>
        <time>2023-12-30T15:32:56.000Z</time>
      </trkpt>
      <trkpt lat="43.43282" lon="3.44791">
        <ele>49.506111</ele>
        <time>2023-12-30T15:32:57.000Z</time>
      </trkpt>
      <trkpt lat="43.43285" lon="3.44789">
        <ele>49.627394</ele>
        <time>2023-12-30T15:32:58.000Z</time>
      </trkpt>
      <trkpt lat="43.43287" lon="3.44788">
        <ele>49.740994</ele>
        <time>2023-12-30T15:32:59.000Z</time>
      </trkpt>
      <trkpt lat="43.43289" lon="3.44787">
        <ele>49.840721</ele>
        <time>2023-12-30T15:33:00.000Z</time>
      </trkpt>
      <trkpt lat="43.43291" lon="3.44785">
        <ele>49.919761</ele>
        <time>2023-12-30T15:33:01.000Z</time>
      </trkpt>
      <trkpt lat="43.43293" lon="3.44784">
        <ele>50.006838</ele>
        <time>2023-12-30T15:33:02.000Z</time>
      </trkpt>
      <trkpt lat="43.43295" lon="3.44783">
        <ele>50.092107</ele>
        <time>2023-12-30T15:33:03.000Z</time>
      </trkpt>
      <trkpt lat="43.43296" lon="3.44782">
        <ele>50.150254</ele>
        <time>2023-12-30T15:33:04.000Z</time>
      </trkpt>
      <trkpt lat="43.43297" lon="3.44781">
        <ele>50.200383</ele>
        <time>2023-12-30T15:33:05.000Z</time>
      </trkpt>
      <trkpt lat="43.43297" lon="3.4478">
        <ele>50.253306</ele>
        <time>2023-12-30T15:33:06.000Z</time>
      </trkpt>
      <trkpt lat="43.43298" lon="3.44778">
        <ele>50.31606</ele>
        <time>2023-12-30T15:33:07.000Z</time>
      </trkpt>
      <trkpt lat="43.43298" lon="3.44777">
        <ele>50.330752</ele>
        <time>2023-12-30T15:33:08.000Z</time>
      </trkpt>
      <trkpt lat="43.43298" lon="3.44777">
        <ele>50.350723</ele>
        <time>2023-12-30T15:33:09.000Z</time>
      </trkpt>
      <trkpt lat="43.43298" lon="3.44777">
        <ele>50.354889</ele>
        <time>2023-12-30T15:33:10.000Z</time>
      </trkpt>
      <trkpt lat="43.43298" lon="3.44777">
        <ele>50.354889</ele>
        <time>2023-12-30T15:33:11.000Z</time>
      </trkpt>
      <trkpt lat="43.43298" lon="3.44777">
        <ele>50.354889</ele>
        <time>2023-12-30T15:33:12.000Z</time>
      </trkpt>
      <trkpt lat="43.43298" lon="3.44777">
        <ele>50.354889</ele>
        <time>2023-12-30T15:33:13.000Z</time>
      </trkpt>
      <trkpt lat="43.43298" lon="3.44777">
        <ele>50.354889</ele>
        <time>2023-12-30T15:33:14.000Z</time>
      </trkpt>
      <trkpt lat="43.43298" lon="3.44777">
        <ele>50.354889</ele>
        <time>2023-12-30T15:33:15.000Z</time>
      </trkpt>
      <trkpt lat="43.43298" lon="3.44777">
        <ele>50.357914</ele>
        <time>2023-12-30T15:33:16.000Z</time>
      </trkpt>
      <trkpt lat="43.43298" lon="3.44777">
        <ele>50.357914</ele>
        <time>2023-12-30T15:33:17.000Z</time>
      </trkpt>
      <trkpt lat="43.43298" lon="3.44777">
        <ele>50.357914</ele>
        <time>2023-12-30T15:33:18.000Z</time>
      </trkpt>
      <trkpt lat="43.43298" lon="3.44777">
        <ele>50.357914</ele>
        <time>2023-12-30T15:33:19.000Z</time>
      </trkpt>
      <trkpt lat="43.43298" lon="3.44777">
        <ele>50.360939</ele>
        <time>2023-12-30T15:33:20.000Z</time>
      </trkpt>
      <trkpt lat="43.43298" lon="3.44777">
        <ele>50.363964</ele>
        <time>2023-12-30T15:33:21.000Z</time>
      </trkpt>
      <trkpt lat="43.43298" lon="3.44777">
        <ele>50.363964</ele>
        <time>2023-12-30T15:33:22.000Z</time>
      </trkpt>
      <trkpt lat="43.43298" lon="3.44776">
        <ele>50.382114</ele>
        <time>2023-12-30T15:33:23.000Z</time>
      </trkpt>
      <trkpt lat="43.43297" lon="3.44773">
        <ele>50.488727</ele>
        <time>2023-12-30T15:33:24.000Z</time>
      </trkpt>
      <trkpt lat="43.43296" lon="3.44771">
        <ele>50.567241</ele>
        <time>2023-12-30T15:33:25.000Z</time>
      </trkpt>
      <trkpt lat="43.43295" lon="3.44768">
        <ele>50.671616</ele>
        <time>2023-12-30T15:33:26.000Z</time>
      </trkpt>
      <trkpt lat="43.43295" lon="3.44764">
        <ele>50.778228</ele>
        <time>2023-12-30T15:33:27.000Z</time>
      </trkpt>
      <trkpt lat="43.43296" lon="3.44761">
        <ele>50.880607</ele>
        <time>2023-12-30T15:33:28.000Z</time>
      </trkpt>
      <trkpt lat="43.43297" lon="3.44758">
        <ele>50.98585</ele>
        <time>2023-12-30T15:33:29.000Z</time>
      </trkpt>
      <trkpt lat="43.43298" lon="3.44755">
        <ele>51.084042</ele>
        <time>2023-12-30T15:33:30.000Z</time>
      </trkpt>
      <trkpt lat="43.43298" lon="3.44752">
        <ele>51.179364</ele>
        <time>2023-12-30T15:33:31.000Z</time>
      </trkpt>
      <trkpt lat="43.43299" lon="3.44748">
        <ele>51.283738</ele>
        <time>2023-12-30T15:33:32.000Z</time>
      </trkpt>
      <trkpt lat="43.433" lon="3.44745">
        <ele>51.383595</ele>
        <time>2023-12-30T15:33:33.000Z</time>
      </trkpt>
      <trkpt lat="43.43301" lon="3.44742">
        <ele>51.487969</ele>
        <time>2023-12-30T15:33:34.000Z</time>
      </trkpt>
      <trkpt lat="43.43302" lon="3.44741">
        <ele>51.554079</ele>
        <time>2023-12-30T15:33:35.000Z</time>
      </trkpt>
      <trkpt lat="43.43303" lon="3.44738">
        <ele>51.631226</ele>
        <time>2023-12-30T15:33:36.000Z</time>
      </trkpt>
      <trkpt lat="43.43304" lon="3.44736">
        <ele>51.70277</ele>
        <time>2023-12-30T15:33:37.000Z</time>
      </trkpt>
      <trkpt lat="43.43304" lon="3.44734">
        <ele>51.775848</ele>
        <time>2023-12-30T15:33:38.000Z</time>
      </trkpt>
      <trkpt lat="43.43304" lon="3.44731">
        <ele>51.853289</ele>
        <time>2023-12-30T15:33:39.000Z</time>
      </trkpt>
      <trkpt lat="43.43304" lon="3.44728">
        <ele>51.932928</ele>
        <time>2023-12-30T15:33:40.000Z</time>
      </trkpt>
      <trkpt lat="43.43304" lon="3.44726">
        <ele>52.002629</ele>
        <time>2023-12-30T15:33:41.000Z</time>
      </trkpt>
      <trkpt lat="43.43304" lon="3.44723">
        <ele>52.097235</ele>
        <time>2023-12-30T15:33:42.000Z</time>
      </trkpt>
      <trkpt lat="43.43304" lon="3.44721">
        <ele>52.164089</ele>
        <time>2023-12-30T15:33:43.000Z</time>
      </trkpt>
      <trkpt lat="43.43303" lon="3.44716">
        <ele>52.352948</ele>
        <time>2023-12-30T15:33:52.000Z</time>
      </trkpt>
      <trkpt lat="43.43301" lon="3.44712">
        <ele>52.482337</ele>
        <time>2023-12-30T15:33:53.000Z</time>
      </trkpt>
      <trkpt lat="43.433" lon="3.44708">
        <ele>52.610469</ele>
        <time>2023-12-30T15:33:54.000Z</time>
      </trkpt>
      <trkpt lat="43.43299" lon="3.44704">
        <ele>52.740282</ele>
        <time>2023-12-30T15:33:55.000Z</time>
      </trkpt>
      <trkpt lat="43.43297" lon="3.447">
        <ele>52.899122</ele>
        <time>2023-12-30T15:33:56.000Z</time>
      </trkpt>
      <trkpt lat="43.43295" lon="3.44695">
        <ele>53.085261</ele>
        <time>2023-12-30T15:33:57.000Z</time>
      </trkpt>
      <trkpt lat="43.43293" lon="3.4469">
        <ele>53.24012</ele>
        <time>2023-12-30T15:33:58.000Z</time>
      </trkpt>
      <trkpt lat="43.43291" lon="3.44686">
        <ele>53.39089</ele>
        <time>2023-12-30T15:33:59.000Z</time>
      </trkpt>
      <trkpt lat="43.4329" lon="3.44681">
        <ele>53.546194</ele>
        <time>2023-12-30T15:34:00.000Z</time>
      </trkpt>
      <trkpt lat="43.43288" lon="3.44676">
        <ele>53.605622</ele>
        <time>2023-12-30T15:34:01.000Z</time>
      </trkpt>
      <trkpt lat="43.43287" lon="3.44671">
        <ele>53.382988</ele>
        <time>2023-12-30T15:34:02.000Z</time>
      </trkpt>
      <trkpt lat="43.43286" lon="3.44666">
        <ele>53.157716</ele>
        <time>2023-12-30T15:34:03.000Z</time>
      </trkpt>
      <trkpt lat="43.43286" lon="3.44661">
        <ele>52.948824</ele>
        <time>2023-12-30T15:34:04.000Z</time>
      </trkpt>
      <trkpt lat="43.43285" lon="3.44657">
        <ele>52.76644</ele>
        <time>2023-12-30T15:34:05.000Z</time>
      </trkpt>
      <trkpt lat="43.43285" lon="3.44653">
        <ele>52.605028</ele>
        <time>2023-12-30T15:34:06.000Z</time>
      </trkpt>
      <trkpt lat="43.43286" lon="3.44648">
        <ele>52.404334</ele>
        <time>2023-12-30T15:34:07.000Z</time>
      </trkpt>
      <trkpt lat="43.43286" lon="3.44643">
        <ele>52.193585</ele>
        <time>2023-12-30T15:34:08.000Z</time>
      </trkpt>
      <trkpt lat="43.43286" lon="3.44638">
        <ele>51.994924</ele>
        <time>2023-12-30T15:34:09.000Z</time>
      </trkpt>
      <trkpt lat="43.43286" lon="3.44634">
        <ele>51.820608</ele>
        <time>2023-12-30T15:34:10.000Z</time>
      </trkpt>
      <trkpt lat="43.43285" lon="3.4463">
        <ele>51.653326</ele>
        <time>2023-12-30T15:34:11.000Z</time>
      </trkpt>
      <trkpt lat="43.43283" lon="3.44627">
        <ele>51.507934</ele>
        <time>2023-12-30T15:34:12.000Z</time>
      </trkpt>
      <trkpt lat="43.43282" lon="3.44624">
        <ele>51.340408</ele>
        <time>2023-12-30T15:34:13.000Z</time>
      </trkpt>
      <trkpt lat="43.43279" lon="3.44621">
        <ele>51.136056</ele>
        <time>2023-12-30T15:34:14.000Z</time>
      </trkpt>
      <trkpt lat="43.43276" lon="3.44618">
        <ele>50.927002</ele>
        <time>2023-12-30T15:34:15.000Z</time>
      </trkpt>
      <trkpt lat="43.43274" lon="3.44615">
        <ele>50.758451</ele>
        <time>2023-12-30T15:34:16.000Z</time>
      </trkpt>
      <trkpt lat="43.43273" lon="3.4461">
        <ele>50.558009</ele>
        <time>2023-12-30T15:34:17.000Z</time>
      </trkpt>
      <trkpt lat="43.43272" lon="3.44604">
        <ele>50.31276</ele>
        <time>2023-12-30T15:34:18.000Z</time>
      </trkpt>
      <trkpt lat="43.43271" lon="3.44598">
        <ele>50.032498</ele>
        <time>2023-12-30T15:34:19.000Z</time>
      </trkpt>
      <trkpt lat="43.43269" lon="3.44592">
        <ele>49.749354</ele>
        <time>2023-12-30T15:34:20.000Z</time>
      </trkpt>
      <trkpt lat="43.43267" lon="3.44584">
        <ele>49.420012</ele>
        <time>2023-12-30T15:34:21.000Z</time>
      </trkpt>
      <trkpt lat="43.43264" lon="3.44577">
        <ele>49.089253</ele>
        <time>2023-12-30T15:34:22.000Z</time>
      </trkpt>
      <trkpt lat="43.43261" lon="3.4457">
        <ele>48.732793</ele>
        <time>2023-12-30T15:34:23.000Z</time>
      </trkpt>
      <trkpt lat="43.43258" lon="3.44563">
        <ele>48.38342</ele>
        <time>2023-12-30T15:34:24.000Z</time>
      </trkpt>
      <trkpt lat="43.43254" lon="3.44556">
        <ele>48.034873</ele>
        <time>2023-12-30T15:34:25.000Z</time>
      </trkpt>
      <trkpt lat="43.43251" lon="3.44549">
        <ele>47.702573</ele>
        <time>2023-12-30T15:34:26.000Z</time>
      </trkpt>
      <trkpt lat="43.43249" lon="3.44542">
        <ele>47.394468</ele>
        <time>2023-12-30T15:34:27.000Z</time>
      </trkpt>
      <trkpt lat="43.43247" lon="3.44534">
        <ele>47.04388</ele>
        <time>2023-12-30T15:34:28.000Z</time>
      </trkpt>
      <trkpt lat="43.43245" lon="3.44525">
        <ele>46.660484</ele>
        <time>2023-12-30T15:34:29.000Z</time>
      </trkpt>
      <trkpt lat="43.4324" lon="3.4452">
        <ele>46.314523</ele>
        <time>2023-12-30T15:34:30.000Z</time>
      </trkpt>
      <trkpt lat="43.43237" lon="3.44513">
        <ele>45.984565</ele>
        <time>2023-12-30T15:34:31.000Z</time>
      </trkpt>
      <trkpt lat="43.43236" lon="3.44506">
        <ele>45.678527</ele>
        <time>2023-12-30T15:34:32.000Z</time>
      </trkpt>
      <trkpt lat="43.43234" lon="3.445">
        <ele>45.417474</ele>
        <time>2023-12-30T15:34:33.000Z</time>
      </trkpt>
      <trkpt lat="43.43231" lon="3.44494">
        <ele>45.121669</ele>
        <time>2023-12-30T15:34:34.000Z</time>
      </trkpt>
      <trkpt lat="43.43227" lon="3.44489">
        <ele>44.800538</ele>
        <time>2023-12-30T15:34:35.000Z</time>
      </trkpt>
      <trkpt lat="43.43225" lon="3.44483">
        <ele>44.52235</ele>
        <time>2023-12-30T15:34:36.000Z</time>
      </trkpt>
      <trkpt lat="43.43223" lon="3.44477">
        <ele>44.272746</ele>
        <time>2023-12-30T15:34:37.000Z</time>
      </trkpt>
      <trkpt lat="43.43221" lon="3.44471">
        <ele>43.992856</ele>
        <time>2023-12-30T15:34:38.000Z</time>
      </trkpt>
      <trkpt lat="43.43218" lon="3.44466">
        <ele>43.728241</ele>
        <time>2023-12-30T15:34:39.000Z</time>
      </trkpt>
      <trkpt lat="43.43216" lon="3.4446">
        <ele>43.446136</ele>
        <time>2023-12-30T15:34:40.000Z</time>
      </trkpt>
      <trkpt lat="43.43213" lon="3.44455">
        <ele>43.178016</ele>
        <time>2023-12-30T15:34:41.000Z</time>
      </trkpt>
      <trkpt lat="43.43209" lon="3.4445">
        <ele>42.877124</ele>
        <time>2023-12-30T15:34:42.000Z</time>
      </trkpt>
      <trkpt lat="43.43205" lon="3.44445">
        <ele>42.590626</ele>
        <time>2023-12-30T15:34:43.000Z</time>
      </trkpt>
      <trkpt lat="43.43201" lon="3.44441">
        <ele>42.310696</ele>
        <time>2023-12-30T15:34:44.000Z</time>
      </trkpt>
      <trkpt lat="43.43199" lon="3.44437">
        <ele>42.083032</ele>
        <time>2023-12-30T15:34:45.000Z</time>
      </trkpt>
      <trkpt lat="43.43196" lon="3.44433">
        <ele>41.860813</ele>
        <time>2023-12-30T15:34:46.000Z</time>
      </trkpt>
      <trkpt lat="43.43194" lon="3.4443">
        <ele>41.68255</ele>
        <time>2023-12-30T15:34:47.000Z</time>
      </trkpt>
      <trkpt lat="43.43191" lon="3.44426">
        <ele>41.477504</ele>
        <time>2023-12-30T15:34:48.000Z</time>
      </trkpt>
      <trkpt lat="43.43189" lon="3.44423">
        <ele>41.308236</ele>
        <time>2023-12-30T15:34:49.000Z</time>
      </trkpt>
      <trkpt lat="43.43187" lon="3.44421">
        <ele>41.141818</ele>
        <time>2023-12-30T15:34:50.000Z</time>
      </trkpt>
      <trkpt lat="43.43185" lon="3.44419">
        <ele>41.000215</ele>
        <time>2023-12-30T15:34:51.000Z</time>
      </trkpt>
      <trkpt lat="43.43183" lon="3.44417">
        <ele>40.850178</ele>
        <time>2023-12-30T15:34:52.000Z</time>
      </trkpt>
      <trkpt lat="43.43181" lon="3.44415">
        <ele>40.707578</ele>
        <time>2023-12-30T15:34:53.000Z</time>
      </trkpt>
      <trkpt lat="43.43178" lon="3.44413">
        <ele>40.552759</ele>
        <time>2023-12-30T15:34:54.000Z</time>
      </trkpt>
      <trkpt lat="43.43176" lon="3.44411">
        <ele>40.387132</ele>
        <time>2023-12-30T15:34:55.000Z</time>
      </trkpt>
      <trkpt lat="43.43173" lon="3.4441">
        <ele>40.209325</ele>
        <time>2023-12-30T15:34:56.000Z</time>
      </trkpt>
      <trkpt lat="43.4317" lon="3.44408">
        <ele>40.035747</ele>
        <time>2023-12-30T15:34:57.000Z</time>
      </trkpt>
      <trkpt lat="43.43167" lon="3.44407">
        <ele>39.859054</ele>
        <time>2023-12-30T15:34:58.000Z</time>
      </trkpt>
      <trkpt lat="43.43163" lon="3.44405">
        <ele>39.60203</ele>
        <time>2023-12-30T15:34:59.000Z</time>
      </trkpt>
      <trkpt lat="43.4316" lon="3.44403">
        <ele>39.412102</ele>
        <time>2023-12-30T15:35:00.000Z</time>
      </trkpt>
      <trkpt lat="43.43159" lon="3.44399">
        <ele>39.254476</ele>
        <time>2023-12-30T15:35:01.000Z</time>
      </trkpt>
      <trkpt lat="43.43159" lon="3.44396">
        <ele>39.10937</ele>
        <time>2023-12-30T15:35:02.000Z</time>
      </trkpt>
      <trkpt lat="43.4316" lon="3.44392">
        <ele>38.97004</ele>
        <time>2023-12-30T15:35:03.000Z</time>
      </trkpt>
      <trkpt lat="43.4316" lon="3.44391">
        <ele>38.903995</ele>
        <time>2023-12-30T15:35:04.000Z</time>
      </trkpt>
      <trkpt lat="43.4316" lon="3.44391">
        <ele>38.896962</ele>
        <time>2023-12-30T15:35:05.000Z</time>
      </trkpt>
      <trkpt lat="43.4316" lon="3.44391">
        <ele>38.89127</ele>
        <time>2023-12-30T15:35:06.000Z</time>
      </trkpt>
      <trkpt lat="43.4316" lon="3.44391">
        <ele>38.89127</ele>
        <time>2023-12-30T15:35:07.000Z</time>
      </trkpt>
      <trkpt lat="43.4316" lon="3.44391">
        <ele>38.89127</ele>
        <time>2023-12-30T15:35:08.000Z</time>
      </trkpt>
      <trkpt lat="43.4316" lon="3.44391">
        <ele>38.89127</ele>
        <time>2023-12-30T15:35:09.000Z</time>
      </trkpt>
      <trkpt lat="43.4316" lon="3.44391">
        <ele>38.89127</ele>
        <time>2023-12-30T15:35:10.000Z</time>
      </trkpt>
      <trkpt lat="43.4316" lon="3.44391">
        <ele>38.89127</ele>
        <time>2023-12-30T15:35:11.000Z</time>
      </trkpt>
      <trkpt lat="43.4316" lon="3.44391">
        <ele>38.89127</ele>
        <time>2023-12-30T15:35:12.000Z</time>
      </trkpt>
      <trkpt lat="43.4316" lon="3.44391">
        <ele>38.89127</ele>
        <time>2023-12-30T15:35:13.000Z</time>
      </trkpt>
      <trkpt lat="43.4316" lon="3.44391">
        <ele>38.89127</ele>
        <time>2023-12-30T15:35:14.000Z</time>
      </trkpt>
      <trkpt lat="43.4316" lon="3.44391">
        <ele>38.89127</ele>
        <time>2023-12-30T15:35:15.000Z</time>
      </trkpt>
      <trkpt lat="43.4316" lon="3.44391">
        <ele>38.89127</ele>
        <time>2023-12-30T15:35:16.000Z</time>
      </trkpt>
      <trkpt lat="43.4316" lon="3.44391">
        <ele>38.89127</ele>
        <time>2023-12-30T15:35:17.000Z</time>
      </trkpt>
      <trkpt lat="43.4316" lon="3.44391">
        <ele>38.89127</ele>
        <time>2023-12-30T15:35:18.000Z</time>
      </trkpt>
      <trkpt lat="43.4316" lon="3.44391">
        <ele>38.89127</ele>
        <time>2023-12-30T15:35:19.000Z</time>
      </trkpt>
      <trkpt lat="43.4316" lon="3.44391">
        <ele>38.89127</ele>
        <time>2023-12-30T15:35:20.000Z</time>
      </trkpt>
      <trkpt lat="43.4316" lon="3.44391">
        <ele>38.89127</ele>
        <time>2023-12-30T15:35:21.000Z</time>
      </trkpt>
      <trkpt lat="43.4316" lon="3.44391">
        <ele>38.89127</ele>
        <time>2023-12-30T15:35:22.000Z</time>
      </trkpt>
      <trkpt lat="43.4316" lon="3.44391">
        <ele>38.89127</ele>
        <time>2023-12-30T15:35:23.000Z</time>
      </trkpt>
      <trkpt lat="43.4316" lon="3.44391">
        <ele>38.89127</ele>
        <time>2023-12-30T15:35:24.000Z</time>
      </trkpt>
      <trkpt lat="43.4316" lon="3.44391">
        <ele>38.89127</ele>
        <time>2023-12-30T15:35:25.000Z</time>
      </trkpt>
      <trkpt lat="43.4316" lon="3.44391">
        <ele>38.89127</ele>
        <time>2023-12-30T15:35:26.000Z</time>
      </trkpt>
      <trkpt lat="43.4316" lon="3.44391">
        <ele>38.89127</ele>
        <time>2023-12-30T15:35:27.000Z</time>
      </trkpt>
      <trkpt lat="43.4316" lon="3.44391">
        <ele>38.89127</ele>
        <time>2023-12-30T15:35:28.000Z</time>
      </trkpt>
      <trkpt lat="43.4316" lon="3.44391">
        <ele>38.89127</ele>
        <time>2023-12-30T15:35:29.000Z</time>
      </trkpt>
      <trkpt lat="43.4316" lon="3.44391">
        <ele>38.89127</ele>
        <time>2023-12-30T15:35:30.000Z</time>
      </trkpt>
      <trkpt lat="43.4316" lon="3.44391">
        <ele>38.89127</ele>
        <time>2023-12-30T15:35:31.000Z</time>
      </trkpt>
      <trkpt lat="43.4316" lon="3.44391">
        <ele>38.89127</ele>
        <time>2023-12-30T15:35:32.000Z</time>
      </trkpt>
      <trkpt lat="43.4316" lon="3.44391">
        <ele>38.89127</ele>
        <time>2023-12-30T15:35:33.000Z</time>
      </trkpt>
      <trkpt lat="43.4316" lon="3.44391">
        <ele>38.89127</ele>
        <time>2023-12-30T15:35:34.000Z</time>
      </trkpt>
      <trkpt lat="43.4316" lon="3.44391">
        <ele>38.89127</ele>
        <time>2023-12-30T15:35:35.000Z</time>
      </trkpt>
      <trkpt lat="43.4316" lon="3.44391">
        <ele>38.89127</ele>
        <time>2023-12-30T15:35:36.000Z</time>
      </trkpt>
      <trkpt lat="43.4316" lon="3.44391">
        <ele>38.89127</ele>
        <time>2023-12-30T15:35:37.000Z</time>
      </trkpt>
      <trkpt lat="43.4316" lon="3.44391">
        <ele>38.89127</ele>
        <time>2023-12-30T15:35:38.000Z</time>
      </trkpt>
      <trkpt lat="43.4316" lon="3.44391">
        <ele>38.89127</ele>
        <time>2023-12-30T15:35:39.000Z</time>
      </trkpt>
      <trkpt lat="43.4316" lon="3.44391">
        <ele>38.89127</ele>
        <time>2023-12-30T15:35:40.000Z</time>
      </trkpt>
      <trkpt lat="43.4316" lon="3.44391">
        <ele>38.89127</ele>
        <time>2023-12-30T15:35:41.000Z</time>
      </trkpt>
      <trkpt lat="43.4316" lon="3.44391">
        <ele>38.89127</ele>
        <time>2023-12-30T15:35:42.000Z</time>
      </trkpt>
      <trkpt lat="43.4316" lon="3.44391">
        <ele>38.89127</ele>
        <time>2023-12-30T15:35:43.000Z</time>
      </trkpt>
      <trkpt lat="43.4316" lon="3.44391">
        <ele>38.89127</ele>
        <time>2023-12-30T15:35:44.000Z</time>
      </trkpt>
      <trkpt lat="43.4316" lon="3.44391">
        <ele>38.89127</ele>
        <time>2023-12-30T15:35:45.000Z</time>
      </trkpt>
      <trkpt lat="43.4316" lon="3.44391">
        <ele>38.89127</ele>
        <time>2023-12-30T15:35:46.000Z</time>
      </trkpt>
      <trkpt lat="43.4316" lon="3.44391">
        <ele>38.89127</ele>
        <time>2023-12-30T15:35:47.000Z</time>
      </trkpt>
      <trkpt lat="43.4316" lon="3.44391">
        <ele>38.89127</ele>
        <time>2023-12-30T15:35:48.000Z</time>
      </trkpt>
      <trkpt lat="43.4316" lon="3.44391">
        <ele>38.89127</ele>
        <time>2023-12-30T15:35:49.000Z</time>
      </trkpt>
      <trkpt lat="43.4316" lon="3.44391">
        <ele>38.89127</ele>
        <time>2023-12-30T15:35:50.000Z</time>
      </trkpt>
      <trkpt lat="43.4316" lon="3.44391">
        <ele>38.89127</ele>
        <time>2023-12-30T15:35:51.000Z</time>
      </trkpt>
      <trkpt lat="43.4316" lon="3.44391">
        <ele>38.89127</ele>
        <time>2023-12-30T15:35:52.000Z</time>
      </trkpt>
      <trkpt lat="43.4316" lon="3.44391">
        <ele>38.89127</ele>
        <time>2023-12-30T15:35:53.000Z</time>
      </trkpt>
      <trkpt lat="43.4316" lon="3.44391">
        <ele>38.89127</ele>
        <time>2023-12-30T15:35:54.000Z</time>
      </trkpt>
      <trkpt lat="43.4316" lon="3.44391">
        <ele>38.89127</ele>
        <time>2023-12-30T15:35:55.000Z</time>
      </trkpt>
      <trkpt lat="43.4316" lon="3.44391">
        <ele>38.89127</ele>
        <time>2023-12-30T15:35:56.000Z</time>
      </trkpt>
      <trkpt lat="43.4316" lon="3.44391">
        <ele>38.89127</ele>
        <time>2023-12-30T15:35:57.000Z</time>
      </trkpt>
      <trkpt lat="43.4316" lon="3.44391">
        <ele>38.89127</ele>
        <time>2023-12-30T15:35:58.000Z</time>
      </trkpt>
      <trkpt lat="43.4316" lon="3.44391">
        <ele>38.89127</ele>
        <time>2023-12-30T15:35:59.000Z</time>
      </trkpt>
      <trkpt lat="43.4316" lon="3.44391">
        <ele>38.89127</ele>
        <time>2023-12-30T15:36:00.000Z</time>
      </trkpt>
      <trkpt lat="43.4316" lon="3.44391">
        <ele>38.89127</ele>
        <time>2023-12-30T15:36:01.000Z</time>
      </trkpt>
      <trkpt lat="43.4316" lon="3.44391">
        <ele>38.89127</ele>
        <time>2023-12-30T15:36:02.000Z</time>
      </trkpt>
      <trkpt lat="43.4316" lon="3.44391">
        <ele>38.89127</ele>
        <time>2023-12-30T15:36:03.000Z</time>
      </trkpt>
      <trkpt lat="43.4316" lon="3.44391">
        <ele>38.89127</ele>
        <time>2023-12-30T15:36:04.000Z</time>
      </trkpt>
      <trkpt lat="43.4316" lon="3.44391">
        <ele>38.89127</ele>
        <time>2023-12-30T15:36:05.000Z</time>
      </trkpt>
      <trkpt lat="43.4316" lon="3.44391">
        <ele>38.89127</ele>
        <time>2023-12-30T15:36:06.000Z</time>
      </trkpt>
      <trkpt lat="43.4316" lon="3.44391">
        <ele>38.89127</ele>
        <time>2023-12-30T15:36:07.000Z</time>
      </trkpt>
      <trkpt lat="43.4316" lon="3.44391">
        <ele>38.89127</ele>
        <time>2023-12-30T15:36:08.000Z</time>
      </trkpt>
      <trkpt lat="43.4316" lon="3.44391">
        <ele>38.89127</ele>
        <time>2023-12-30T15:36:09.000Z</time>
      </trkpt>
      <trkpt lat="43.4316" lon="3.44391">
        <ele>38.89127</ele>
        <time>2023-12-30T15:36:10.000Z</time>
      </trkpt>
      <trkpt lat="43.4316" lon="3.44391">
        <ele>38.89127</ele>
        <time>2023-12-30T15:36:11.000Z</time>
      </trkpt>
      <trkpt lat="43.4316" lon="3.44391">
        <ele>38.89127</ele>
        <time>2023-12-30T15:36:12.000Z</time>
      </trkpt>
      <trkpt lat="43.4316" lon="3.44391">
        <ele>38.885579</ele>
        <time>2023-12-30T15:36:13.000Z</time>
      </trkpt>
      <trkpt lat="43.4316" lon="3.44391">
        <ele>38.879887</ele>
        <time>2023-12-30T15:36:14.000Z</time>
      </trkpt>
      <trkpt lat="43.4316" lon="3.44391">
        <ele>38.879887</ele>
        <time>2023-12-30T15:36:15.000Z</time>
      </trkpt>
      <trkpt lat="43.4316" lon="3.44391">
        <ele>38.879887</ele>
        <time>2023-12-30T15:36:16.000Z</time>
      </trkpt>
      <trkpt lat="43.4316" lon="3.44391">
        <ele>38.879887</ele>
        <time>2023-12-30T15:36:17.000Z</time>
      </trkpt>
      <trkpt lat="43.4316" lon="3.44391">
        <ele>38.874196</ele>
        <time>2023-12-30T15:36:18.000Z</time>
      </trkpt>
      <trkpt lat="43.4316" lon="3.44391">
        <ele>38.874196</ele>
        <time>2023-12-30T15:36:19.000Z</time>
      </trkpt>
      <trkpt lat="43.4316" lon="3.44391">
        <ele>38.874196</ele>
        <time>2023-12-30T15:36:20.000Z</time>
      </trkpt>
      <trkpt lat="43.4316" lon="3.44391">
        <ele>38.874196</ele>
        <time>2023-12-30T15:36:21.000Z</time>
      </trkpt>
      <trkpt lat="43.4316" lon="3.44391">
        <ele>38.874196</ele>
        <time>2023-12-30T15:36:22.000Z</time>
      </trkpt>
      <trkpt lat="43.4316" lon="3.44391">
        <ele>38.874196</ele>
        <time>2023-12-30T15:36:23.000Z</time>
      </trkpt>
      <trkpt lat="43.4316" lon="3.44391">
        <ele>38.874196</ele>
        <time>2023-12-30T15:36:24.000Z</time>
      </trkpt>
      <trkpt lat="43.4316" lon="3.44391">
        <ele>38.868504</ele>
        <time>2023-12-30T15:36:25.000Z</time>
      </trkpt>
      <trkpt lat="43.4316" lon="3.44391">
        <ele>38.854436</ele>
        <time>2023-12-30T15:36:26.000Z</time>
      </trkpt>
      <trkpt lat="43.4316" lon="3.44391">
        <ele>38.842326</ele>
        <time>2023-12-30T15:36:27.000Z</time>
      </trkpt>
      <trkpt lat="43.43162" lon="3.44391">
        <ele>38.74478</ele>
        <time>2023-12-30T15:36:28.000Z</time>
      </trkpt>
      <trkpt lat="43.43164" lon="3.44392">
        <ele>38.618315</ele>
        <time>2023-12-30T15:36:29.000Z</time>
      </trkpt>
      <trkpt lat="43.43167" lon="3.44393">
        <ele>38.445777</ele>
        <time>2023-12-30T15:36:30.000Z</time>
      </trkpt>
      <trkpt lat="43.43171" lon="3.44394">
        <ele>38.232613</ele>
        <time>2023-12-30T15:36:31.000Z</time>
      </trkpt>
      <trkpt lat="43.43174" lon="3.44394">
        <ele>38.033412</ele>
        <time>2023-12-30T15:36:32.000Z</time>
      </trkpt>
      <trkpt lat="43.43177" lon="3.44395">
        <ele>37.856203</ele>
        <time>2023-12-30T15:36:33.000Z</time>
      </trkpt>
      <trkpt lat="43.43181" lon="3.44395">
        <ele>37.662693</ele>
        <time>2023-12-30T15:36:34.000Z</time>
      </trkpt>
      <trkpt lat="43.43184" lon="3.44395">
        <ele>37.486258</ele>
        <time>2023-12-30T15:36:35.000Z</time>
      </trkpt>
      <trkpt lat="43.43187" lon="3.44394">
        <ele>37.292571</ele>
        <time>2023-12-30T15:36:36.000Z</time>
      </trkpt>
      <trkpt lat="43.4319" lon="3.44394">
        <ele>37.144075</ele>
        <time>2023-12-30T15:36:37.000Z</time>
      </trkpt>
      <trkpt lat="43.43192" lon="3.44395">
        <ele>36.998876</ele>
        <time>2023-12-30T15:36:38.000Z</time>
      </trkpt>
      <trkpt lat="43.43195" lon="3.44396">
        <ele>36.828728</ele>
        <time>2023-12-30T15:36:39.000Z</time>
      </trkpt>
      <trkpt lat="43.43198" lon="3.44397">
        <ele>36.645454</ele>
        <time>2023-12-30T15:36:40.000Z</time>
      </trkpt>
      <trkpt lat="43.43201" lon="3.44399">
        <ele>36.48855</ele>
        <time>2023-12-30T15:36:41.000Z</time>
      </trkpt>
      <trkpt lat="43.43203" lon="3.44401">
        <ele>36.322133</ele>
        <time>2023-12-30T15:36:42.000Z</time>
      </trkpt>
      <trkpt lat="43.43206" lon="3.44402">
        <ele>36.159341</ele>
        <time>2023-12-30T15:36:43.000Z</time>
      </trkpt>
      <trkpt lat="43.43209" lon="3.44404">
        <ele>35.984439</ele>
        <time>2023-12-30T15:36:44.000Z</time>
      </trkpt>
      <trkpt lat="43.43212" lon="3.44405">
        <ele>35.813443</ele>
        <time>2023-12-30T15:36:45.000Z</time>
      </trkpt>
      <trkpt lat="43.43214" lon="3.44407">
        <ele>35.651361</ele>
        <time>2023-12-30T15:36:46.000Z</time>
      </trkpt>
      <trkpt lat="43.43217" lon="3.44408">
        <ele>35.483186</ele>
        <time>2023-12-30T15:36:47.000Z</time>
      </trkpt>
      <trkpt lat="43.4322" lon="3.4441">
        <ele>35.310614</ele>
        <time>2023-12-30T15:36:48.000Z</time>
      </trkpt>
      <trkpt lat="43.43222" lon="3.44412">
        <ele>35.134743</ele>
        <time>2023-12-30T15:36:49.000Z</time>
      </trkpt>
      <trkpt lat="43.43225" lon="3.44414">
        <ele>34.958256</ele>
        <time>2023-12-30T15:36:50.000Z</time>
      </trkpt>
      <trkpt lat="43.43227" lon="3.44416">
        <ele>34.798514</ele>
        <time>2023-12-30T15:36:51.000Z</time>
      </trkpt>
      <trkpt lat="43.4323" lon="3.44418">
        <ele>34.629655</ele>
        <time>2023-12-30T15:36:52.000Z</time>
      </trkpt>
      <trkpt lat="43.43232" lon="3.44421">
        <ele>34.463289</ele>
        <time>2023-12-30T15:36:53.000Z</time>
      </trkpt>
      <trkpt lat="43.43234" lon="3.44424">
        <ele>34.299242</ele>
        <time>2023-12-30T15:36:54.000Z</time>
      </trkpt>
      <trkpt lat="43.43236" lon="3.44427">
        <ele>34.153737</ele>
        <time>2023-12-30T15:36:55.000Z</time>
      </trkpt>
      <trkpt lat="43.43237" lon="3.4443">
        <ele>34.008546</ele>
        <time>2023-12-30T15:36:56.000Z</time>
      </trkpt>
      <trkpt lat="43.43238" lon="3.44433">
        <ele>33.858472</ele>
        <time>2023-12-30T15:36:57.000Z</time>
      </trkpt>
      <trkpt lat="43.43238" lon="3.44436">
        <ele>33.737813</ele>
        <time>2023-12-30T15:36:58.000Z</time>
      </trkpt>
      <trkpt lat="43.43239" lon="3.44439">
        <ele>33.595982</ele>
        <time>2023-12-30T15:36:59.000Z</time>
      </trkpt>
      <trkpt lat="43.4324" lon="3.44442">
        <ele>33.464407</ele>
        <time>2023-12-30T15:37:00.000Z</time>
      </trkpt>
      <trkpt lat="43.43242" lon="3.44445">
        <ele>33.333926</ele>
        <time>2023-12-30T15:37:01.000Z</time>
      </trkpt>
      <trkpt lat="43.43244" lon="3.44447">
        <ele>33.183889</ele>
        <time>2023-12-30T15:37:02.000Z</time>
      </trkpt>
      <trkpt lat="43.43246" lon="3.44449">
        <ele>33.342961</ele>
        <time>2023-12-30T15:37:03.000Z</time>
      </trkpt>
      <trkpt lat="43.43247" lon="3.44453">
        <ele>33.52703</ele>
        <time>2023-12-30T15:37:04.000Z</time>
      </trkpt>
      <trkpt lat="43.43248" lon="3.44455">
        <ele>33.695908</ele>
        <time>2023-12-30T15:37:05.000Z</time>
      </trkpt>
      <trkpt lat="43.43249" lon="3.44458">
        <ele>33.869717</ele>
        <time>2023-12-30T15:37:06.000Z</time>
      </trkpt>
      <trkpt lat="43.43251" lon="3.4446">
        <ele>34.057768</ele>
        <time>2023-12-30T15:37:07.000Z</time>
      </trkpt>
      <trkpt lat="43.43254" lon="3.44462">
        <ele>34.254422</ele>
        <time>2023-12-30T15:37:08.000Z</time>
      </trkpt>
      <trkpt lat="43.43255" lon="3.44465">
        <ele>34.46203</ele>
        <time>2023-12-30T15:37:09.000Z</time>
      </trkpt>
      <trkpt lat="43.43257" lon="3.44468">
        <ele>34.678171</ele>
        <time>2023-12-30T15:37:10.000Z</time>
      </trkpt>
      <trkpt lat="43.43258" lon="3.44471">
        <ele>34.850997</ele>
        <time>2023-12-30T15:37:11.000Z</time>
      </trkpt>
      <trkpt lat="43.4326" lon="3.44473">
        <ele>35.0235</ele>
        <time>2023-12-30T15:37:12.000Z</time>
      </trkpt>
      <trkpt lat="43.43262" lon="3.44476">
        <ele>35.196326</ele>
        <time>2023-12-30T15:37:13.000Z</time>
      </trkpt>
      <trkpt lat="43.43263" lon="3.44479">
        <ele>35.400218</ele>
        <time>2023-12-30T15:37:14.000Z</time>
      </trkpt>
      <trkpt lat="43.43264" lon="3.44482">
        <ele>35.550862</ele>
        <time>2023-12-30T15:37:15.000Z</time>
      </trkpt>
      <trkpt lat="43.43265" lon="3.44484">
        <ele>35.707822</ele>
        <time>2023-12-30T15:37:16.000Z</time>
      </trkpt>
      <trkpt lat="43.43266" lon="3.44487">
        <ele>35.872983</ele>
        <time>2023-12-30T15:37:17.000Z</time>
      </trkpt>
      <trkpt lat="43.43267" lon="3.44489">
        <ele>36.020197</ele>
        <time>2023-12-30T15:37:18.000Z</time>
      </trkpt>
      <trkpt lat="43.43268" lon="3.44491">
        <ele>36.158333</ele>
        <time>2023-12-30T15:37:19.000Z</time>
      </trkpt>
      <trkpt lat="43.43269" lon="3.44494">
        <ele>36.310599</ele>
        <time>2023-12-30T15:37:20.000Z</time>
      </trkpt>
      <trkpt lat="43.4327" lon="3.44496">
        <ele>36.472293</ele>
        <time>2023-12-30T15:37:21.000Z</time>
      </trkpt>
      <trkpt lat="43.43271" lon="3.44499">
        <ele>36.628236</ele>
        <time>2023-12-30T15:37:22.000Z</time>
      </trkpt>
      <trkpt lat="43.43272" lon="3.44501">
        <ele>36.777097</ele>
        <time>2023-12-30T15:37:23.000Z</time>
      </trkpt>
      <trkpt lat="43.43273" lon="3.44504">
        <ele>36.93697</ele>
        <time>2023-12-30T15:37:24.000Z</time>
      </trkpt>
      <trkpt lat="43.43275" lon="3.44506">
        <ele>37.114746</ele>
        <time>2023-12-30T15:37:25.000Z</time>
      </trkpt>
      <trkpt lat="43.43276" lon="3.44509">
        <ele>37.292811</ele>
        <time>2023-12-30T15:37:26.000Z</time>
      </trkpt>
      <trkpt lat="43.43277" lon="3.44512">
        <ele>37.46626</ele>
        <time>2023-12-30T15:37:27.000Z</time>
      </trkpt>
      <trkpt lat="43.43278" lon="3.44514">
        <ele>37.588073</ele>
        <time>2023-12-30T15:37:28.000Z</time>
      </trkpt>
      <trkpt lat="43.43278" lon="3.44516">
        <ele>37.701064</ele>
        <time>2023-12-30T15:37:29.000Z</time>
      </trkpt>
      <trkpt lat="43.43279" lon="3.44519">
        <ele>37.839964</ele>
        <time>2023-12-30T15:37:30.000Z</time>
      </trkpt>
      <trkpt lat="43.43279" lon="3.44521">
        <ele>37.984005</ele>
        <time>2023-12-30T15:37:31.000Z</time>
      </trkpt>
      <trkpt lat="43.43279" lon="3.44524">
        <ele>38.13695</ele>
        <time>2023-12-30T15:37:32.000Z</time>
      </trkpt>
      <trkpt lat="43.4328" lon="3.44526">
        <ele>38.263122</ele>
        <time>2023-12-30T15:37:33.000Z</time>
      </trkpt>
      <trkpt lat="43.4328" lon="3.44529">
        <ele>38.393041</ele>
        <time>2023-12-30T15:37:34.000Z</time>
      </trkpt>
      <trkpt lat="43.4328" lon="3.44531">
        <ele>38.519212</ele>
        <time>2023-12-30T15:37:35.000Z</time>
      </trkpt>
      <trkpt lat="43.43281" lon="3.44534">
        <ele>38.654392</ele>
        <time>2023-12-30T15:37:36.000Z</time>
      </trkpt>
      <trkpt lat="43.43281" lon="3.44536">
        <ele>38.796176</ele>
        <time>2023-12-30T15:37:37.000Z</time>
      </trkpt>
      <trkpt lat="43.43281" lon="3.44539">
        <ele>38.951061</ele>
        <time>2023-12-30T15:37:38.000Z</time>
      </trkpt>
      <trkpt lat="43.43281" lon="3.44542">
        <ele>39.096778</ele>
        <time>2023-12-30T15:37:39.000Z</time>
      </trkpt>
      <trkpt lat="43.43282" lon="3.44544">
        <ele>39.221443</ele>
        <time>2023-12-30T15:37:40.000Z</time>
      </trkpt>
      <trkpt lat="43.43282" lon="3.44546">
        <ele>39.354644</ele>
        <time>2023-12-30T15:37:41.000Z</time>
      </trkpt>
      <trkpt lat="43.43283" lon="3.44549">
        <ele>39.498744</ele>
        <time>2023-12-30T15:37:42.000Z</time>
      </trkpt>
      <trkpt lat="43.43284" lon="3.44552">
        <ele>39.652569</ele>
        <time>2023-12-30T15:37:43.000Z</time>
      </trkpt>
      <trkpt lat="43.43284" lon="3.44554">
        <ele>39.783829</ele>
        <time>2023-12-30T15:37:44.000Z</time>
      </trkpt>
      <trkpt lat="43.43286" lon="3.44556">
        <ele>39.939771</ele>
        <time>2023-12-30T15:37:45.000Z</time>
      </trkpt>
      <trkpt lat="43.43286" lon="3.44559">
        <ele>40.087703</ele>
        <time>2023-12-30T15:37:46.000Z</time>
      </trkpt>
      <trkpt lat="43.43286" lon="3.44561">
        <ele>40.21658</ele>
        <time>2023-12-30T15:37:47.000Z</time>
      </trkpt>
      <trkpt lat="43.43287" lon="3.44564">
        <ele>40.362297</ele>
        <time>2023-12-30T15:37:48.000Z</time>
      </trkpt>
      <trkpt lat="43.43287" lon="3.44567">
        <ele>40.517703</ele>
        <time>2023-12-30T15:37:49.000Z</time>
      </trkpt>
      <trkpt lat="43.43287" lon="3.4457">
        <ele>40.675179</ele>
        <time>2023-12-30T15:37:50.000Z</time>
      </trkpt>
      <trkpt lat="43.43288" lon="3.44572">
        <ele>40.82072</ele>
        <time>2023-12-30T15:37:51.000Z</time>
      </trkpt>
      <trkpt lat="43.43289" lon="3.44575">
        <ele>40.971363</ele>
        <time>2023-12-30T15:37:52.000Z</time>
      </trkpt>
      <trkpt lat="43.4329" lon="3.44577">
        <ele>41.110745</ele>
        <time>2023-12-30T15:37:53.000Z</time>
      </trkpt>
      <trkpt lat="43.43291" lon="3.4458">
        <ele>41.274974</ele>
        <time>2023-12-30T15:37:54.000Z</time>
      </trkpt>
      <trkpt lat="43.43292" lon="3.44582">
        <ele>41.443379</ele>
        <time>2023-12-30T15:37:55.000Z</time>
      </trkpt>
      <trkpt lat="43.43294" lon="3.44585">
        <ele>41.590167</ele>
        <time>2023-12-30T15:37:56.000Z</time>
      </trkpt>
      <trkpt lat="43.43294" lon="3.44587">
        <ele>41.739027</ele>
        <time>2023-12-30T15:37:57.000Z</time>
      </trkpt>
      <trkpt lat="43.43295" lon="3.44589">
        <ele>41.870391</ele>
        <time>2023-12-30T15:37:58.000Z</time>
      </trkpt>
      <trkpt lat="43.43296" lon="3.44592">
        <ele>42.008369</ele>
        <time>2023-12-30T15:37:59.000Z</time>
      </trkpt>
      <trkpt lat="43.43296" lon="3.44594">
        <ele>42.130181</ele>
        <time>2023-12-30T15:38:00.000Z</time>
      </trkpt>
      <trkpt lat="43.43297" lon="3.44596">
        <ele>42.239111</ele>
        <time>2023-12-30T15:38:01.000Z</time>
      </trkpt>
      <trkpt lat="43.43298" lon="3.44598">
        <ele>42.378377</ele>
        <time>2023-12-30T15:38:02.000Z</time>
      </trkpt>
      <trkpt lat="43.43299" lon="3.446">
        <ele>42.52139</ele>
        <time>2023-12-30T15:38:03.000Z</time>
      </trkpt>
      <trkpt lat="43.433" lon="3.44602">
        <ele>42.668311</ele>
        <time>2023-12-30T15:38:04.000Z</time>
      </trkpt>
      <trkpt lat="43.43302" lon="3.44604">
        <ele>42.819625</ele>
        <time>2023-12-30T15:38:05.000Z</time>
      </trkpt>
      <trkpt lat="43.43303" lon="3.44607">
        <ele>42.981317</ele>
        <time>2023-12-30T15:38:06.000Z</time>
      </trkpt>
      <trkpt lat="43.43303" lon="3.4461">
        <ele>43.124259</ele>
        <time>2023-12-30T15:38:07.000Z</time>
      </trkpt>
      <trkpt lat="43.43304" lon="3.44612">
        <ele>43.254637</ele>
        <time>2023-12-30T15:38:08.000Z</time>
      </trkpt>
      <trkpt lat="43.43305" lon="3.44614">
        <ele>43.368297</ele>
        <time>2023-12-30T15:38:09.000Z</time>
      </trkpt>
      <trkpt lat="43.43305" lon="3.44615">
        <ele>43.464364</ele>
        <time>2023-12-30T15:38:10.000Z</time>
      </trkpt>
      <trkpt lat="43.43306" lon="3.44617">
        <ele>43.546539</ele>
        <time>2023-12-30T15:38:11.000Z</time>
      </trkpt>
      <trkpt lat="43.43306" lon="3.44618">
        <ele>43.636812</ele>
        <time>2023-12-30T15:38:12.000Z</time>
      </trkpt>
      <trkpt lat="43.43307" lon="3.4462">
        <ele>43.720044</ele>
        <time>2023-12-30T15:38:13.000Z</time>
      </trkpt>
      <trkpt lat="43.43307" lon="3.44621">
        <ele>43.784482</ele>
        <time>2023-12-30T15:38:14.000Z</time>
      </trkpt>
      <trkpt lat="43.43307" lon="3.44622">
        <ele>43.844976</ele>
        <time>2023-12-30T15:38:15.000Z</time>
      </trkpt>
      <trkpt lat="43.43307" lon="3.44622">
        <ele>43.860608</ele>
        <time>2023-12-30T15:38:16.000Z</time>
      </trkpt>
      <trkpt lat="43.43307" lon="3.44622">
        <ele>43.860608</ele>
        <time>2023-12-30T15:38:17.000Z</time>
      </trkpt>
      <trkpt lat="43.43307" lon="3.44622">
        <ele>43.860608</ele>
        <time>2023-12-30T15:38:18.000Z</time>
      </trkpt>
      <trkpt lat="43.43307" lon="3.44622">
        <ele>43.860608</ele>
        <time>2023-12-30T15:38:19.000Z</time>
      </trkpt>
      <trkpt lat="43.43307" lon="3.44622">
        <ele>43.867954</ele>
        <time>2023-12-30T15:38:20.000Z</time>
      </trkpt>
      <trkpt lat="43.43307" lon="3.44622">
        <ele>43.8753</ele>
        <time>2023-12-30T15:38:21.000Z</time>
      </trkpt>
      <trkpt lat="43.43307" lon="3.44622">
        <ele>43.8753</ele>
        <time>2023-12-30T15:38:22.000Z</time>
      </trkpt>
      <trkpt lat="43.43307" lon="3.44622">
        <ele>43.8753</ele>
        <time>2023-12-30T15:38:23.000Z</time>
      </trkpt>
      <trkpt lat="43.43307" lon="3.44622">
        <ele>43.8753</ele>
        <time>2023-12-30T15:38:24.000Z</time>
      </trkpt>
      <trkpt lat="43.43307" lon="3.44622">
        <ele>43.8753</ele>
        <time>2023-12-30T15:38:25.000Z</time>
      </trkpt>
      <trkpt lat="43.43307" lon="3.44622">
        <ele>43.8753</ele>
        <time>2023-12-30T15:38:26.000Z</time>
      </trkpt>
      <trkpt lat="43.43307" lon="3.44622">
        <ele>43.8753</ele>
        <time>2023-12-30T15:38:27.000Z</time>
      </trkpt>
      <trkpt lat="43.43307" lon="3.44622">
        <ele>43.880635</ele>
        <time>2023-12-30T15:38:28.000Z</time>
      </trkpt>
      <trkpt lat="43.43307" lon="3.44622">
        <ele>43.88597</ele>
        <time>2023-12-30T15:38:29.000Z</time>
      </trkpt>
      <trkpt lat="43.43307" lon="3.44622">
        <ele>43.891305</ele>
        <time>2023-12-30T15:38:30.000Z</time>
      </trkpt>
      <trkpt lat="43.43307" lon="3.44622">
        <ele>43.891305</ele>
        <time>2023-12-30T15:38:31.000Z</time>
      </trkpt>
      <trkpt lat="43.43307" lon="3.44622">
        <ele>43.891305</ele>
        <time>2023-12-30T15:38:32.000Z</time>
      </trkpt>
      <trkpt lat="43.43307" lon="3.44622">
        <ele>43.891305</ele>
        <time>2023-12-30T15:38:33.000Z</time>
      </trkpt>
      <trkpt lat="43.43307" lon="3.44622">
        <ele>43.891305</ele>
        <time>2023-12-30T15:38:34.000Z</time>
      </trkpt>
      <trkpt lat="43.43307" lon="3.44622">
        <ele>43.891305</ele>
        <time>2023-12-30T15:38:35.000Z</time>
      </trkpt>
      <trkpt lat="43.43307" lon="3.44622">
        <ele>43.89664</ele>
        <time>2023-12-30T15:38:36.000Z</time>
      </trkpt>
      <trkpt lat="43.43307" lon="3.44622">
        <ele>43.89664</ele>
        <time>2023-12-30T15:38:37.000Z</time>
      </trkpt>
      <trkpt lat="43.43307" lon="3.44622">
        <ele>43.901975</ele>
        <time>2023-12-30T15:38:38.000Z</time>
      </trkpt>
      <trkpt lat="43.43307" lon="3.44622">
        <ele>43.907309</ele>
        <time>2023-12-30T15:38:39.000Z</time>
      </trkpt>
      <trkpt lat="43.43307" lon="3.44622">
        <ele>43.912644</ele>
        <time>2023-12-30T15:38:40.000Z</time>
      </trkpt>
      <trkpt lat="43.43307" lon="3.44622">
        <ele>43.912644</ele>
        <time>2023-12-30T15:38:41.000Z</time>
      </trkpt>
      <trkpt lat="43.43307" lon="3.44622">
        <ele>43.912644</ele>
        <time>2023-12-30T15:38:42.000Z</time>
      </trkpt>
      <trkpt lat="43.43307" lon="3.44622">
        <ele>43.912644</ele>
        <time>2023-12-30T15:38:43.000Z</time>
      </trkpt>
      <trkpt lat="43.43307" lon="3.44622">
        <ele>43.912644</ele>
        <time>2023-12-30T15:38:44.000Z</time>
      </trkpt>
      <trkpt lat="43.43307" lon="3.44622">
        <ele>43.912644</ele>
        <time>2023-12-30T15:38:45.000Z</time>
      </trkpt>
      <trkpt lat="43.43307" lon="3.44622">
        <ele>43.912644</ele>
        <time>2023-12-30T15:38:46.000Z</time>
      </trkpt>
      <trkpt lat="43.43307" lon="3.44622">
        <ele>43.912644</ele>
        <time>2023-12-30T15:38:47.000Z</time>
      </trkpt>
      <trkpt lat="43.43307" lon="3.44622">
        <ele>43.912644</ele>
        <time>2023-12-30T15:38:48.000Z</time>
      </trkpt>
      <trkpt lat="43.43307" lon="3.44622">
        <ele>43.912644</ele>
        <time>2023-12-30T15:38:49.000Z</time>
      </trkpt>
      <trkpt lat="43.43307" lon="3.44622">
        <ele>43.912644</ele>
        <time>2023-12-30T15:38:50.000Z</time>
      </trkpt>
      <trkpt lat="43.43307" lon="3.44622">
        <ele>43.912644</ele>
        <time>2023-12-30T15:38:51.000Z</time>
      </trkpt>
      <trkpt lat="43.43307" lon="3.44622">
        <ele>43.912644</ele>
        <time>2023-12-30T15:38:52.000Z</time>
      </trkpt>
      <trkpt lat="43.43307" lon="3.44622">
        <ele>43.912644</ele>
        <time>2023-12-30T15:38:53.000Z</time>
      </trkpt>
      <trkpt lat="43.43307" lon="3.44622">
        <ele>43.917979</ele>
        <time>2023-12-30T15:38:54.000Z</time>
      </trkpt>
      <trkpt lat="43.43307" lon="3.44622">
        <ele>43.925325</ele>
        <time>2023-12-30T15:38:55.000Z</time>
      </trkpt>
      <trkpt lat="43.43307" lon="3.44622">
        <ele>43.932672</ele>
        <time>2023-12-30T15:38:56.000Z</time>
      </trkpt>
      <trkpt lat="43.43307" lon="3.44622">
        <ele>43.940018</ele>
        <time>2023-12-30T15:38:57.000Z</time>
      </trkpt>
      <trkpt lat="43.43307" lon="3.44622">
        <ele>43.945353</ele>
        <time>2023-12-30T15:38:58.000Z</time>
      </trkpt>
      <trkpt lat="43.43307" lon="3.44622">
        <ele>43.967922</ele>
        <time>2023-12-30T15:38:59.000Z</time>
      </trkpt>
      <trkpt lat="43.43307" lon="3.44625">
        <ele>44.158219</ele>
        <time>2023-12-30T15:39:00.000Z</time>
      </trkpt>
      <trkpt lat="43.43308" lon="3.44628">
        <ele>44.314491</ele>
        <time>2023-12-30T15:39:01.000Z</time>
      </trkpt>
      <trkpt lat="43.43308" lon="3.44632">
        <ele>44.51331</ele>
        <time>2023-12-30T15:39:02.000Z</time>
      </trkpt>
      <trkpt lat="43.43309" lon="3.44635">
        <ele>44.690733</ele>
        <time>2023-12-30T15:39:03.000Z</time>
      </trkpt>
      <trkpt lat="43.4331" lon="3.4464">
        <ele>44.946895</ele>
        <time>2023-12-30T15:39:04.000Z</time>
      </trkpt>
      <trkpt lat="43.43311" lon="3.44643">
        <ele>45.160066</ele>
        <time>2023-12-30T15:39:05.000Z</time>
      </trkpt>
      <trkpt lat="43.43312" lon="3.44646">
        <ele>45.342784</ele>
        <time>2023-12-30T15:39:06.000Z</time>
      </trkpt>
      <trkpt lat="43.43313" lon="3.4465">
        <ele>45.547774</ele>
        <time>2023-12-30T15:39:07.000Z</time>
      </trkpt>
      <trkpt lat="43.43315" lon="3.44653">
        <ele>45.767053</ele>
        <time>2023-12-30T15:39:08.000Z</time>
      </trkpt>
      <trkpt lat="43.43316" lon="3.44657">
        <ele>45.99779</ele>
        <time>2023-12-30T15:39:09.000Z</time>
      </trkpt>
      <trkpt lat="43.43317" lon="3.44661">
        <ele>46.223474</ele>
        <time>2023-12-30T15:39:10.000Z</time>
      </trkpt>
      <trkpt lat="43.43318" lon="3.44664">
        <ele>46.38551</ele>
        <time>2023-12-30T15:39:11.000Z</time>
      </trkpt>
      <trkpt lat="43.43318" lon="3.44668">
        <ele>46.426454</ele>
        <time>2023-12-30T15:39:12.000Z</time>
      </trkpt>
      <trkpt lat="43.43318" lon="3.44674">
        <ele>46.484232</ele>
        <time>2023-12-30T15:39:13.000Z</time>
      </trkpt>
      <trkpt lat="43.43319" lon="3.4468">
        <ele>46.554968</ele>
        <time>2023-12-30T15:39:14.000Z</time>
      </trkpt>
      <trkpt lat="43.4332" lon="3.44685">
        <ele>46.611794</ele>
        <time>2023-12-30T15:39:15.000Z</time>
      </trkpt>
      <trkpt lat="43.43321" lon="3.44689">
        <ele>46.652734</ele>
        <time>2023-12-30T15:39:16.000Z</time>
      </trkpt>
      <trkpt lat="43.43322" lon="3.44693">
        <ele>46.69667</ele>
        <time>2023-12-30T15:39:17.000Z</time>
      </trkpt>
      <trkpt lat="43.43324" lon="3.44697">
        <ele>46.738853</ele>
        <time>2023-12-30T15:39:18.000Z</time>
      </trkpt>
      <trkpt lat="43.43325" lon="3.447">
        <ele>46.783038</ele>
        <time>2023-12-30T15:39:19.000Z</time>
      </trkpt>
      <trkpt lat="43.43327" lon="3.44705">
        <ele>46.840395</ele>
        <time>2023-12-30T15:39:20.000Z</time>
      </trkpt>
      <trkpt lat="43.43329" lon="3.4471">
        <ele>46.901585</ele>
        <time>2023-12-30T15:39:21.000Z</time>
      </trkpt>
      <trkpt lat="43.43331" lon="3.44716">
        <ele>46.966681</ele>
        <time>2023-12-30T15:39:22.000Z</time>
      </trkpt>
      <trkpt lat="43.43332" lon="3.44721">
        <ele>47.025558</ele>
        <time>2023-12-30T15:39:23.000Z</time>
      </trkpt>
      <trkpt lat="43.43334" lon="3.44726">
        <ele>47.080291</ele>
        <time>2023-12-30T15:39:24.000Z</time>
      </trkpt>
      <trkpt lat="43.43334" lon="3.44731">
        <ele>47.137843</ele>
        <time>2023-12-30T15:39:25.000Z</time>
      </trkpt>
      <trkpt lat="43.43334" lon="3.44737">
        <ele>47.193525</ele>
        <time>2023-12-30T15:39:26.000Z</time>
      </trkpt>
      <trkpt lat="43.43335" lon="3.44743">
        <ele>47.256741</ele>
        <time>2023-12-30T15:39:27.000Z</time>
      </trkpt>
      <trkpt lat="43.43335" lon="3.44748">
        <ele>47.308232</ele>
        <time>2023-12-30T15:39:28.000Z</time>
      </trkpt>
      <trkpt lat="43.43334" lon="3.44752">
        <ele>47.351851</ele>
        <time>2023-12-30T15:39:29.000Z</time>
      </trkpt>
      <trkpt lat="43.43333" lon="3.44756">
        <ele>47.39437</ele>
        <time>2023-12-30T15:39:30.000Z</time>
      </trkpt>
      <trkpt lat="43.43333" lon="3.4476">
        <ele>47.442633</ele>
        <time>2023-12-30T15:39:31.000Z</time>
      </trkpt>
      <trkpt lat="43.43334" lon="3.44765">
        <ele>47.49363</ele>
        <time>2023-12-30T15:39:32.000Z</time>
      </trkpt>
      <trkpt lat="43.43335" lon="3.44768">
        <ele>47.533092</ele>
        <time>2023-12-30T15:39:33.000Z</time>
      </trkpt>
      <trkpt lat="43.43336" lon="3.44771">
        <ele>47.560717</ele>
        <time>2023-12-30T15:39:34.000Z</time>
      </trkpt>
      <trkpt lat="43.43336" lon="3.44773">
        <ele>47.578611</ele>
        <time>2023-12-30T15:39:35.000Z</time>
      </trkpt>
      <trkpt lat="43.43336" lon="3.44774">
        <ele>47.594349</ele>
        <time>2023-12-30T15:39:36.000Z</time>
      </trkpt>
      <trkpt lat="43.43336" lon="3.44776">
        <ele>47.615531</ele>
        <time>2023-12-30T15:39:37.000Z</time>
      </trkpt>
      <trkpt lat="43.43335" lon="3.44779">
        <ele>47.64375</ele>
        <time>2023-12-30T15:39:38.000Z</time>
      </trkpt>
      <trkpt lat="43.43335" lon="3.44782">
        <ele>47.67472</ele>
        <time>2023-12-30T15:39:39.000Z</time>
      </trkpt>
      <trkpt lat="43.43335" lon="3.44784">
        <ele>47.699901</ele>
        <time>2023-12-30T15:39:40.000Z</time>
      </trkpt>
      <trkpt lat="43.43335" lon="3.44786">
        <ele>47.722356</ele>
        <time>2023-12-30T15:39:41.000Z</time>
      </trkpt>
      <trkpt lat="43.43335" lon="3.44789">
        <ele>47.748744</ele>
        <time>2023-12-30T15:39:42.000Z</time>
      </trkpt>
      <trkpt lat="43.43335" lon="3.44792">
        <ele>47.782318</ele>
        <time>2023-12-30T15:39:43.000Z</time>
      </trkpt>
      <trkpt lat="43.43335" lon="3.44795">
        <ele>47.81742</ele>
        <time>2023-12-30T15:39:44.000Z</time>
      </trkpt>
      <trkpt lat="43.43335" lon="3.44798">
        <ele>47.845305</ele>
        <time>2023-12-30T15:39:45.000Z</time>
      </trkpt>
      <trkpt lat="43.43334" lon="3.44799">
        <ele>47.864903</ele>
        <time>2023-12-30T15:39:46.000Z</time>
      </trkpt>
      <trkpt lat="43.43333" lon="3.44801">
        <ele>47.879716</ele>
        <time>2023-12-30T15:39:47.000Z</time>
      </trkpt>
      <trkpt lat="43.43334" lon="3.44803">
        <ele>47.909235</ele>
        <time>2023-12-30T15:39:48.000Z</time>
      </trkpt>
      <trkpt lat="43.43334" lon="3.44807">
        <ele>47.94517</ele>
        <time>2023-12-30T15:39:49.000Z</time>
      </trkpt>
      <trkpt lat="43.43334" lon="3.4481">
        <ele>47.982595</ele>
        <time>2023-12-30T15:39:50.000Z</time>
      </trkpt>
      <trkpt lat="43.43335" lon="3.44813">
        <ele>48.014597</ele>
        <time>2023-12-30T15:39:51.000Z</time>
      </trkpt>
      <trkpt lat="43.43335" lon="3.44816">
        <ele>48.046105</ele>
        <time>2023-12-30T15:39:52.000Z</time>
      </trkpt>
      <trkpt lat="43.43335" lon="3.4482">
        <ele>48.090195</ele>
        <time>2023-12-30T15:39:53.000Z</time>
      </trkpt>
      <trkpt lat="43.43335" lon="3.44825">
        <ele>48.133429</ele>
        <time>2023-12-30T15:39:54.000Z</time>
      </trkpt>
      <trkpt lat="43.43336" lon="3.44829">
        <ele>48.178641</ele>
        <time>2023-12-30T15:39:55.000Z</time>
      </trkpt>
      <trkpt lat="43.43338" lon="3.44833">
        <ele>48.226365</ele>
        <time>2023-12-30T15:39:56.000Z</time>
      </trkpt>
      <trkpt lat="43.4334" lon="3.44835">
        <ele>48.267576</ele>
        <time>2023-12-30T15:39:57.000Z</time>
      </trkpt>
      <trkpt lat="43.43341" lon="3.44839">
        <ele>48.315408</ele>
        <time>2023-12-30T15:39:58.000Z</time>
      </trkpt>
      <trkpt lat="43.43342" lon="3.44844">
        <ele>48.367679</ele>
        <time>2023-12-30T15:39:59.000Z</time>
      </trkpt>
      <trkpt lat="43.43344" lon="3.44848">
        <ele>48.421254</ele>
        <time>2023-12-30T15:40:00.000Z</time>
      </trkpt>
      <trkpt lat="43.43346" lon="3.44852">
        <ele>48.46734</ele>
        <time>2023-12-30T15:40:01.000Z</time>
      </trkpt>
      <trkpt lat="43.43346" lon="3.44857">
        <ele>48.512478</ele>
        <time>2023-12-30T15:40:02.000Z</time>
      </trkpt>
      <trkpt lat="43.43347" lon="3.44861">
        <ele>48.559323</ele>
        <time>2023-12-30T15:40:03.000Z</time>
      </trkpt>
      <trkpt lat="43.43348" lon="3.44866">
        <ele>48.610689</ele>
        <time>2023-12-30T15:40:04.000Z</time>
      </trkpt>
      <trkpt lat="43.43348" lon="3.4487">
        <ele>48.656011</ele>
        <time>2023-12-30T15:40:05.000Z</time>
      </trkpt>
      <trkpt lat="43.43349" lon="3.44874">
        <ele>48.70095</ele>
        <time>2023-12-30T15:40:06.000Z</time>
      </trkpt>
      <trkpt lat="43.43351" lon="3.44878">
        <ele>48.752318</ele>
        <time>2023-12-30T15:40:07.000Z</time>
      </trkpt>
      <trkpt lat="43.43353" lon="3.44883">
        <ele>48.815202</ele>
        <time>2023-12-30T15:40:08.000Z</time>
      </trkpt>
      <trkpt lat="43.43355" lon="3.44888">
        <ele>48.875803</ele>
        <time>2023-12-30T15:40:09.000Z</time>
      </trkpt>
      <trkpt lat="43.43356" lon="3.44893">
        <ele>48.926615</ele>
        <time>2023-12-30T15:40:10.000Z</time>
      </trkpt>
      <trkpt lat="43.43358" lon="3.44898">
        <ele>48.9804</ele>
        <time>2023-12-30T15:40:11.000Z</time>
      </trkpt>
      <trkpt lat="43.4336" lon="3.44902">
        <ele>48.8718</ele>
        <time>2023-12-30T15:40:12.000Z</time>
      </trkpt>
      <trkpt lat="43.43362" lon="3.44908">
        <ele>48.75207</ele>
        <time>2023-12-30T15:40:13.000Z</time>
      </trkpt>
      <trkpt lat="43.43364" lon="3.44914">
        <ele>48.627672</ele>
        <time>2023-12-30T15:40:14.000Z</time>
      </trkpt>
      <trkpt lat="43.43366" lon="3.4492">
        <ele>48.5072</ele>
        <time>2023-12-30T15:40:15.000Z</time>
      </trkpt>
      <trkpt lat="43.43367" lon="3.44925">
        <ele>48.393048</ele>
        <time>2023-12-30T15:40:16.000Z</time>
      </trkpt>
      <trkpt lat="43.43368" lon="3.4493">
        <ele>48.290094</ele>
        <time>2023-12-30T15:40:17.000Z</time>
      </trkpt>
      <trkpt lat="43.43369" lon="3.44936">
        <ele>48.16974</ele>
        <time>2023-12-30T15:40:18.000Z</time>
      </trkpt>
      <trkpt lat="43.4337" lon="3.44943">
        <ele>48.041159</ele>
        <time>2023-12-30T15:40:19.000Z</time>
      </trkpt>
      <trkpt lat="43.43372" lon="3.44949">
        <ele>47.902403</ele>
        <time>2023-12-30T15:40:20.000Z</time>
      </trkpt>
      <trkpt lat="43.43373" lon="3.44956">
        <ele>47.759714</ele>
        <time>2023-12-30T15:40:21.000Z</time>
      </trkpt>
      <trkpt lat="43.43375" lon="3.44963">
        <ele>47.617194</ele>
        <time>2023-12-30T15:40:22.000Z</time>
      </trkpt>
      <trkpt lat="43.43376" lon="3.4497">
        <ele>47.477828</ele>
        <time>2023-12-30T15:40:23.000Z</time>
      </trkpt>
      <trkpt lat="43.43377" lon="3.44977">
        <ele>47.344811</ele>
        <time>2023-12-30T15:40:24.000Z</time>
      </trkpt>
      <trkpt lat="43.4338" lon="3.44982">
        <ele>47.219606</ele>
        <time>2023-12-30T15:40:25.000Z</time>
      </trkpt>
      <trkpt lat="43.43382" lon="3.44986">
        <ele>47.1161</ele>
        <time>2023-12-30T15:40:26.000Z</time>
      </trkpt>
      <trkpt lat="43.43384" lon="3.44989">
        <ele>47.036963</ele>
        <time>2023-12-30T15:40:27.000Z</time>
      </trkpt>
      <trkpt lat="43.43385" lon="3.44993">
        <ele>46.958798</ele>
        <time>2023-12-30T15:40:28.000Z</time>
      </trkpt>
      <trkpt lat="43.43385" lon="3.44998">
        <ele>46.870656</ele>
        <time>2023-12-30T15:40:29.000Z</time>
      </trkpt>
      <trkpt lat="43.43386" lon="3.45002">
        <ele>46.791303</ele>
        <time>2023-12-30T15:40:30.000Z</time>
      </trkpt>
      <trkpt lat="43.43388" lon="3.45005">
        <ele>46.713703</ele>
        <time>2023-12-30T15:40:31.000Z</time>
      </trkpt>
      <trkpt lat="43.4339" lon="3.45007">
        <ele>46.627194</ele>
        <time>2023-12-30T15:40:32.000Z</time>
      </trkpt>
      <trkpt lat="43.43393" lon="3.45009">
        <ele>46.541553</ele>
        <time>2023-12-30T15:40:33.000Z</time>
      </trkpt>
      <trkpt lat="43.43396" lon="3.45011">
        <ele>46.443484</ele>
        <time>2023-12-30T15:40:34.000Z</time>
      </trkpt>
      <trkpt lat="43.434" lon="3.45013">
        <ele>46.347185</ele>
        <time>2023-12-30T15:40:35.000Z</time>
      </trkpt>
      <trkpt lat="43.43403" lon="3.45015">
        <ele>46.250002</ele>
        <time>2023-12-30T15:40:36.000Z</time>
      </trkpt>
      <trkpt lat="43.43406" lon="3.45019">
        <ele>46.15017</ele>
        <time>2023-12-30T15:40:37.000Z</time>
      </trkpt>
      <trkpt lat="43.43409" lon="3.45022">
        <ele>46.049191</ele>
        <time>2023-12-30T15:40:38.000Z</time>
      </trkpt>
      <trkpt lat="43.43412" lon="3.45024">
        <ele>45.959092</ele>
        <time>2023-12-30T15:40:39.000Z</time>
      </trkpt>
      <trkpt lat="43.43415" lon="3.45026">
        <ele>45.868487</ele>
        <time>2023-12-30T15:40:40.000Z</time>
      </trkpt>
      <trkpt lat="43.43418" lon="3.45028">
        <ele>45.778751</ele>
        <time>2023-12-30T15:40:41.000Z</time>
      </trkpt>
      <trkpt lat="43.4342" lon="3.4503">
        <ele>45.696365</ele>
        <time>2023-12-30T15:40:42.000Z</time>
      </trkpt>
      <trkpt lat="43.43423" lon="3.45031">
        <ele>45.621299</ele>
        <time>2023-12-30T15:40:43.000Z</time>
      </trkpt>
      <trkpt lat="43.43425" lon="3.45033">
        <ele>45.567457</ele>
        <time>2023-12-30T15:40:44.000Z</time>
      </trkpt>
      <trkpt lat="43.43426" lon="3.45034">
        <ele>45.512735</ele>
        <time>2023-12-30T15:40:45.000Z</time>
      </trkpt>
      <trkpt lat="43.43429" lon="3.45034">
        <ele>45.452991</ele>
        <time>2023-12-30T15:40:46.000Z</time>
      </trkpt>
      <trkpt lat="43.43431" lon="3.45036">
        <ele>45.379164</ele>
        <time>2023-12-30T15:40:47.000Z</time>
      </trkpt>
      <trkpt lat="43.43434" lon="3.45038">
        <ele>45.303639</ele>
        <time>2023-12-30T15:40:48.000Z</time>
      </trkpt>
      <trkpt lat="43.43436" lon="3.4504">
        <ele>45.232889</ele>
        <time>2023-12-30T15:40:49.000Z</time>
      </trkpt>
      <trkpt lat="43.43437" lon="3.45042">
        <ele>45.171886</ele>
        <time>2023-12-30T15:40:50.000Z</time>
      </trkpt>
      <trkpt lat="43.4344" lon="3.45044">
        <ele>45.095857</ele>
        <time>2023-12-30T15:40:51.000Z</time>
      </trkpt>
      <trkpt lat="43.43442" lon="3.45048">
        <ele>45.00724</ele>
        <time>2023-12-30T15:40:52.000Z</time>
      </trkpt>
      <trkpt lat="43.43444" lon="3.45052">
        <ele>44.901183</ele>
        <time>2023-12-30T15:40:53.000Z</time>
      </trkpt>
      <trkpt lat="43.43446" lon="3.45057">
        <ele>44.798345</ele>
        <time>2023-12-30T15:40:54.000Z</time>
      </trkpt>
      <trkpt lat="43.43447" lon="3.45061">
        <ele>44.707996</ele>
        <time>2023-12-30T15:40:55.000Z</time>
      </trkpt>
      <trkpt lat="43.43448" lon="3.45065">
        <ele>44.623106</ele>
        <time>2023-12-30T15:40:56.000Z</time>
      </trkpt>
      <trkpt lat="43.4345" lon="3.45069">
        <ele>44.5316</ele>
        <time>2023-12-30T15:40:57.000Z</time>
      </trkpt>
      <trkpt lat="43.43451" lon="3.45073">
        <ele>44.450896</ele>
        <time>2023-12-30T15:40:58.000Z</time>
      </trkpt>
      <trkpt lat="43.43452" lon="3.45076">
        <ele>44.379907</ele>
        <time>2023-12-30T15:40:59.000Z</time>
      </trkpt>
      <trkpt lat="43.43453" lon="3.45079">
        <ele>44.317143</ele>
        <time>2023-12-30T15:41:00.000Z</time>
      </trkpt>
      <trkpt lat="43.43454" lon="3.45082">
        <ele>44.263269</ele>
        <time>2023-12-30T15:41:01.000Z</time>
      </trkpt>
      <trkpt lat="43.43454" lon="3.45084">
        <ele>44.210209</ele>
        <time>2023-12-30T15:41:02.000Z</time>
      </trkpt>
      <trkpt lat="43.43454" lon="3.45087">
        <ele>44.159307</ele>
        <time>2023-12-30T15:41:03.000Z</time>
      </trkpt>
      <trkpt lat="43.43454" lon="3.4509">
        <ele>44.174537</ele>
        <time>2023-12-30T15:41:04.000Z</time>
      </trkpt>
      <trkpt lat="43.43454" lon="3.45093">
        <ele>44.221303</ele>
        <time>2023-12-30T15:41:05.000Z</time>
      </trkpt>
      <trkpt lat="43.43454" lon="3.45096">
        <ele>44.275422</ele>
        <time>2023-12-30T15:41:06.000Z</time>
      </trkpt>
      <trkpt lat="43.43455" lon="3.45099">
        <ele>44.31652</ele>
        <time>2023-12-30T15:41:07.000Z</time>
      </trkpt>
      <trkpt lat="43.43456" lon="3.45101">
        <ele>44.352904</ele>
        <time>2023-12-30T15:41:08.000Z</time>
      </trkpt>
      <trkpt lat="43.43457" lon="3.45102">
        <ele>44.389831</ele>
        <time>2023-12-30T15:41:09.000Z</time>
      </trkpt>
      <trkpt lat="43.43458" lon="3.45103">
        <ele>44.42535</ele>
        <time>2023-12-30T15:41:10.000Z</time>
      </trkpt>
      <trkpt lat="43.43459" lon="3.45104">
        <ele>44.453637</ele>
        <time>2023-12-30T15:41:11.000Z</time>
      </trkpt>
      <trkpt lat="43.43461" lon="3.45107">
        <ele>44.503266</ele>
        <time>2023-12-30T15:41:12.000Z</time>
      </trkpt>
      <trkpt lat="43.43462" lon="3.4511">
        <ele>44.559663</ele>
        <time>2023-12-30T15:41:13.000Z</time>
      </trkpt>
      <trkpt lat="43.43463" lon="3.45113">
        <ele>44.620786</ele>
        <time>2023-12-30T15:41:14.000Z</time>
      </trkpt>
      <trkpt lat="43.43463" lon="3.45117">
        <ele>44.672915</ele>
        <time>2023-12-30T15:41:15.000Z</time>
      </trkpt>
      <trkpt lat="43.43463" lon="3.45119">
        <ele>44.718352</ele>
        <time>2023-12-30T15:41:16.000Z</time>
      </trkpt>
      <trkpt lat="43.43463" lon="3.45122">
        <ele>44.75632</ele>
        <time>2023-12-30T15:41:17.000Z</time>
      </trkpt>
      <trkpt lat="43.43462" lon="3.45125">
        <ele>44.810652</ele>
        <time>2023-12-30T15:41:18.000Z</time>
      </trkpt>
      <trkpt lat="43.43461" lon="3.45128">
        <ele>44.869949</ele>
        <time>2023-12-30T15:41:19.000Z</time>
      </trkpt>
      <trkpt lat="43.4346" lon="3.45132">
        <ele>44.937864</ele>
        <time>2023-12-30T15:41:20.000Z</time>
      </trkpt>
      <trkpt lat="43.43459" lon="3.45137">
        <ele>45.014888</ele>
        <time>2023-12-30T15:41:21.000Z</time>
      </trkpt>
      <trkpt lat="43.43459" lon="3.45142">
        <ele>45.094663</ele>
        <time>2023-12-30T15:41:22.000Z</time>
      </trkpt>
      <trkpt lat="43.43459" lon="3.45147">
        <ele>45.167209</ele>
        <time>2023-12-30T15:41:23.000Z</time>
      </trkpt>
      <trkpt lat="43.43458" lon="3.45151">
        <ele>45.234961</ele>
        <time>2023-12-30T15:41:24.000Z</time>
      </trkpt>
      <trkpt lat="43.43458" lon="3.45155">
        <ele>45.296604</ele>
        <time>2023-12-30T15:41:25.000Z</time>
      </trkpt>
      <trkpt lat="43.43458" lon="3.45158">
        <ele>45.349766</ele>
        <time>2023-12-30T15:41:26.000Z</time>
      </trkpt>
      <trkpt lat="43.43458" lon="3.45161">
        <ele>45.40279</ele>
        <time>2023-12-30T15:41:27.000Z</time>
      </trkpt>
      <trkpt lat="43.43457" lon="3.45164">
        <ele>45.45342</ele>
        <time>2023-12-30T15:41:28.000Z</time>
      </trkpt>
      <trkpt lat="43.43454" lon="3.45168">
        <ele>45.535397</ele>
        <time>2023-12-30T15:41:29.000Z</time>
      </trkpt>
      <trkpt lat="43.43451" lon="3.4517">
        <ele>45.62298</ele>
        <time>2023-12-30T15:41:30.000Z</time>
      </trkpt>
      <trkpt lat="43.43447" lon="3.45173">
        <ele>45.702051</ele>
        <time>2023-12-30T15:41:31.000Z</time>
      </trkpt>
      <trkpt lat="43.43445" lon="3.45175">
        <ele>45.777752</ele>
        <time>2023-12-30T15:41:32.000Z</time>
      </trkpt>
      <trkpt lat="43.43443" lon="3.45178">
        <ele>45.841658</ele>
        <time>2023-12-30T15:41:33.000Z</time>
      </trkpt>
      <trkpt lat="43.43442" lon="3.45181">
        <ele>45.893197</ele>
        <time>2023-12-30T15:41:34.000Z</time>
      </trkpt>
      <trkpt lat="43.4344" lon="3.45185">
        <ele>45.954885</ele>
        <time>2023-12-30T15:41:35.000Z</time>
      </trkpt>
      <trkpt lat="43.43439" lon="3.45188">
        <ele>46.01994</ele>
        <time>2023-12-30T15:41:36.000Z</time>
      </trkpt>
      <trkpt lat="43.43439" lon="3.45192">
        <ele>46.084435</ele>
        <time>2023-12-30T15:41:37.000Z</time>
      </trkpt>
      <trkpt lat="43.43437" lon="3.45196">
        <ele>46.154789</ele>
        <time>2023-12-30T15:41:38.000Z</time>
      </trkpt>
      <trkpt lat="43.43435" lon="3.452">
        <ele>46.219772</ele>
        <time>2023-12-30T15:41:39.000Z</time>
      </trkpt>
      <trkpt lat="43.43433" lon="3.45202">
        <ele>46.283864</ele>
        <time>2023-12-30T15:41:40.000Z</time>
      </trkpt>
      <trkpt lat="43.43431" lon="3.45205">
        <ele>46.352313</ele>
        <time>2023-12-30T15:41:41.000Z</time>
      </trkpt>
      <trkpt lat="43.43429" lon="3.45208">
        <ele>46.422349</ele>
        <time>2023-12-30T15:41:42.000Z</time>
      </trkpt>
      <trkpt lat="43.43426" lon="3.45211">
        <ele>46.49734</ele>
        <time>2023-12-30T15:41:43.000Z</time>
      </trkpt>
      <trkpt lat="43.43424" lon="3.45214">
        <ele>46.563089</ele>
        <time>2023-12-30T15:41:44.000Z</time>
      </trkpt>
      <trkpt lat="43.43423" lon="3.45217">
        <ele>46.620249</ele>
        <time>2023-12-30T15:41:45.000Z</time>
      </trkpt>
      <trkpt lat="43.43421" lon="3.4522">
        <ele>46.687799</ele>
        <time>2023-12-30T15:41:46.000Z</time>
      </trkpt>
      <trkpt lat="43.43419" lon="3.45223">
        <ele>46.743746</ele>
        <time>2023-12-30T15:41:47.000Z</time>
      </trkpt>
      <trkpt lat="43.43418" lon="3.45226">
        <ele>46.799832</ele>
        <time>2023-12-30T15:41:48.000Z</time>
      </trkpt>
      <trkpt lat="43.43417" lon="3.45229">
        <ele>46.857302</ele>
        <time>2023-12-30T15:41:49.000Z</time>
      </trkpt>
      <trkpt lat="43.43415" lon="3.45232">
        <ele>46.909266</ele>
        <time>2023-12-30T15:41:50.000Z</time>
      </trkpt>
      <trkpt lat="43.43414" lon="3.45233">
        <ele>46.949488</ele>
        <time>2023-12-30T15:41:51.000Z</time>
      </trkpt>
      <trkpt lat="43.43412" lon="3.45235">
        <ele>46.985944</ele>
        <time>2023-12-30T15:41:52.000Z</time>
      </trkpt>
      <trkpt lat="43.43411" lon="3.45236">
        <ele>47.0294</ele>
        <time>2023-12-30T15:41:53.000Z</time>
      </trkpt>
      <trkpt lat="43.4341" lon="3.4524">
        <ele>47.093568</ele>
        <time>2023-12-30T15:41:54.000Z</time>
      </trkpt>
      <trkpt lat="43.4341" lon="3.45245">
        <ele>47.164241</ele>
        <time>2023-12-30T15:41:55.000Z</time>
      </trkpt>
      <trkpt lat="43.43411" lon="3.45249">
        <ele>47.237692</ele>
        <time>2023-12-30T15:41:56.000Z</time>
      </trkpt>
      <trkpt lat="43.43412" lon="3.45254">
        <ele>47.317674</ele>
        <time>2023-12-30T15:41:57.000Z</time>
      </trkpt>
      <trkpt lat="43.43413" lon="3.45258">
        <ele>47.389947</ele>
        <time>2023-12-30T15:41:58.000Z</time>
      </trkpt>
      <trkpt lat="43.43415" lon="3.45262">
        <ele>47.465494</ele>
        <time>2023-12-30T15:41:59.000Z</time>
      </trkpt>
      <trkpt lat="43.43417" lon="3.45265">
        <ele>47.525298</ele>
        <time>2023-12-30T15:42:00.000Z</time>
      </trkpt>
      <trkpt lat="43.43418" lon="3.45268">
        <ele>47.582458</ele>
        <time>2023-12-30T15:42:01.000Z</time>
      </trkpt>
      <trkpt lat="43.4342" lon="3.4527">
        <ele>47.634422</ele>
        <time>2023-12-30T15:42:02.000Z</time>
      </trkpt>
      <trkpt lat="43.43421" lon="3.45273">
        <ele>47.692896</ele>
        <time>2023-12-30T15:42:03.000Z</time>
      </trkpt>
      <trkpt lat="43.43423" lon="3.45276">
        <ele>47.752932</ele>
        <time>2023-12-30T15:42:04.000Z</time>
      </trkpt>
      <trkpt lat="43.43425" lon="3.4528">
        <ele>47.82753</ele>
        <time>2023-12-30T15:42:05.000Z</time>
      </trkpt>
      <trkpt lat="43.43428" lon="3.45283">
        <ele>47.907177</ele>
        <time>2023-12-30T15:42:06.000Z</time>
      </trkpt>
      <trkpt lat="43.4343" lon="3.45286">
        <ele>47.973749</ele>
        <time>2023-12-30T15:42:07.000Z</time>
      </trkpt>
      <trkpt lat="43.43431" lon="3.4529">
        <ele>48.03747</ele>
        <time>2023-12-30T15:42:08.000Z</time>
      </trkpt>
      <trkpt lat="43.43433" lon="3.45293">
        <ele>48.10523</ele>
        <time>2023-12-30T15:42:09.000Z</time>
      </trkpt>
      <trkpt lat="43.43435" lon="3.45297">
        <ele>48.227137</ele>
        <time>2023-12-30T15:42:10.000Z</time>
      </trkpt>
      <trkpt lat="43.43437" lon="3.45301">
        <ele>48.366333</ele>
        <time>2023-12-30T15:42:11.000Z</time>
      </trkpt>
      <trkpt lat="43.43439" lon="3.45305">
        <ele>48.483613</ele>
        <time>2023-12-30T15:42:12.000Z</time>
      </trkpt>
      <trkpt lat="43.43441" lon="3.45307">
        <ele>48.586601</ele>
        <time>2023-12-30T15:42:13.000Z</time>
      </trkpt>
      <trkpt lat="43.43443" lon="3.45309">
        <ele>48.665712</ele>
        <time>2023-12-30T15:42:14.000Z</time>
      </trkpt>
      <trkpt lat="43.43445" lon="3.45311">
        <ele>48.759799</ele>
        <time>2023-12-30T15:42:15.000Z</time>
      </trkpt>
      <trkpt lat="43.43447" lon="3.45313">
        <ele>48.843522</ele>
        <time>2023-12-30T15:42:16.000Z</time>
      </trkpt>
      <trkpt lat="43.43447" lon="3.45316">
        <ele>48.921841</ele>
        <time>2023-12-30T15:42:17.000Z</time>
      </trkpt>
      <trkpt lat="43.43448" lon="3.45318">
        <ele>49.000784</ele>
        <time>2023-12-30T15:42:18.000Z</time>
      </trkpt>
      <trkpt lat="43.43448" lon="3.45322">
        <ele>49.099496</ele>
        <time>2023-12-30T15:42:19.000Z</time>
      </trkpt>
      <trkpt lat="43.43449" lon="3.45326">
        <ele>49.210767</ele>
        <time>2023-12-30T15:42:20.000Z</time>
      </trkpt>
      <trkpt lat="43.4345" lon="3.45329">
        <ele>49.299731</ele>
        <time>2023-12-30T15:42:21.000Z</time>
      </trkpt>
      <trkpt lat="43.43451" lon="3.45332">
        <ele>49.389596</ele>
        <time>2023-12-30T15:42:22.000Z</time>
      </trkpt>
      <trkpt lat="43.43452" lon="3.45335">
        <ele>49.483077</ele>
        <time>2023-12-30T15:42:23.000Z</time>
      </trkpt>
      <trkpt lat="43.43451" lon="3.45338">
        <ele>49.567452</ele>
        <time>2023-12-30T15:42:24.000Z</time>
      </trkpt>
      <trkpt lat="43.43451" lon="3.45341">
        <ele>49.65249</ele>
        <time>2023-12-30T15:42:25.000Z</time>
      </trkpt>
      <trkpt lat="43.43451" lon="3.45344">
        <ele>49.734063</ele>
        <time>2023-12-30T15:42:26.000Z</time>
      </trkpt>
      <trkpt lat="43.43451" lon="3.45347">
        <ele>49.816406</ele>
        <time>2023-12-30T15:42:27.000Z</time>
      </trkpt>
      <trkpt lat="43.4345" lon="3.45351">
        <ele>49.908069</ele>
        <time>2023-12-30T15:42:28.000Z</time>
      </trkpt>
      <trkpt lat="43.4345" lon="3.45354">
        <ele>50.006029</ele>
        <time>2023-12-30T15:42:29.000Z</time>
      </trkpt>
      <trkpt lat="43.4345" lon="3.45358">
        <ele>50.104202</ele>
        <time>2023-12-30T15:42:30.000Z</time>
      </trkpt>
      <trkpt lat="43.43451" lon="3.45362">
        <ele>50.216081</ele>
        <time>2023-12-30T15:42:31.000Z</time>
      </trkpt>
      <trkpt lat="43.43452" lon="3.45366">
        <ele>50.323661</ele>
        <time>2023-12-30T15:42:32.000Z</time>
      </trkpt>
      <trkpt lat="43.43453" lon="3.45369">
        <ele>50.429862</ele>
        <time>2023-12-30T15:42:33.000Z</time>
      </trkpt>
      <trkpt lat="43.43455" lon="3.45373">
        <ele>50.533427</ele>
        <time>2023-12-30T15:42:34.000Z</time>
      </trkpt>
      <trkpt lat="43.43456" lon="3.45375">
        <ele>50.63024</ele>
        <time>2023-12-30T15:42:35.000Z</time>
      </trkpt>
      <trkpt lat="43.43458" lon="3.45378">
        <ele>50.721404</ele>
        <time>2023-12-30T15:42:36.000Z</time>
      </trkpt>
      <trkpt lat="43.4346" lon="3.4538">
        <ele>50.807759</ele>
        <time>2023-12-30T15:42:37.000Z</time>
      </trkpt>
      <trkpt lat="43.43461" lon="3.45381">
        <ele>50.883867</ele>
        <time>2023-12-30T15:42:38.000Z</time>
      </trkpt>
      <trkpt lat="43.43463" lon="3.45383">
        <ele>50.957469</ele>
        <time>2023-12-30T15:42:39.000Z</time>
      </trkpt>
      <trkpt lat="43.43464" lon="3.45385">
        <ele>51.028042</ele>
        <time>2023-12-30T15:42:40.000Z</time>
      </trkpt>
      <trkpt lat="43.43464" lon="3.45388">
        <ele>51.099134</ele>
        <time>2023-12-30T15:42:41.000Z</time>
      </trkpt>
      <trkpt lat="43.43463" lon="3.4539">
        <ele>51.168742</ele>
        <time>2023-12-30T15:42:42.000Z</time>
      </trkpt>
      <trkpt lat="43.43463" lon="3.45391">
        <ele>51.185481</ele>
        <time>2023-12-30T15:42:43.000Z</time>
      </trkpt>
      <trkpt lat="43.43464" lon="3.45391">
        <ele>51.193448</ele>
        <time>2023-12-30T15:42:44.000Z</time>
      </trkpt>
      <trkpt lat="43.43464" lon="3.45391">
        <ele>51.201606</ele>
        <time>2023-12-30T15:42:45.000Z</time>
      </trkpt>
      <trkpt lat="43.43464" lon="3.45391">
        <ele>51.212839</ele>
        <time>2023-12-30T15:42:46.000Z</time>
      </trkpt>
      <trkpt lat="43.43463" lon="3.4539">
        <ele>51.248251</ele>
        <time>2023-12-30T15:42:47.000Z</time>
      </trkpt>
      <trkpt lat="43.43463" lon="3.4539">
        <ele>51.257227</ele>
        <time>2023-12-30T15:42:48.000Z</time>
      </trkpt>
      <trkpt lat="43.43463" lon="3.4539">
        <ele>51.257227</ele>
        <time>2023-12-30T15:42:49.000Z</time>
      </trkpt>
      <trkpt lat="43.43463" lon="3.4539">
        <ele>51.257227</ele>
        <time>2023-12-30T15:42:50.000Z</time>
      </trkpt>
      <trkpt lat="43.43463" lon="3.4539">
        <ele>51.257227</ele>
        <time>2023-12-30T15:42:51.000Z</time>
      </trkpt>
      <trkpt lat="43.43463" lon="3.4539">
        <ele>51.257227</ele>
        <time>2023-12-30T15:42:52.000Z</time>
      </trkpt>
      <trkpt lat="43.43463" lon="3.4539">
        <ele>51.257227</ele>
        <time>2023-12-30T15:42:53.000Z</time>
      </trkpt>
      <trkpt lat="43.43463" lon="3.4539">
        <ele>51.257227</ele>
        <time>2023-12-30T15:42:54.000Z</time>
      </trkpt>
      <trkpt lat="43.43463" lon="3.4539">
        <ele>51.257227</ele>
        <time>2023-12-30T15:42:55.000Z</time>
      </trkpt>
      <trkpt lat="43.43463" lon="3.4539">
        <ele>51.257227</ele>
        <time>2023-12-30T15:42:56.000Z</time>
      </trkpt>
      <trkpt lat="43.43463" lon="3.4539">
        <ele>51.257227</ele>
        <time>2023-12-30T15:42:57.000Z</time>
      </trkpt>
      <trkpt lat="43.43463" lon="3.4539">
        <ele>51.257227</ele>
        <time>2023-12-30T15:42:58.000Z</time>
      </trkpt>
      <trkpt lat="43.43463" lon="3.4539">
        <ele>51.257227</ele>
        <time>2023-12-30T15:42:59.000Z</time>
      </trkpt>
      <trkpt lat="43.43463" lon="3.4539">
        <ele>51.257227</ele>
        <time>2023-12-30T15:43:00.000Z</time>
      </trkpt>
      <trkpt lat="43.43463" lon="3.4539">
        <ele>51.257227</ele>
        <time>2023-12-30T15:43:01.000Z</time>
      </trkpt>
      <trkpt lat="43.43463" lon="3.4539">
        <ele>51.257227</ele>
        <time>2023-12-30T15:43:02.000Z</time>
      </trkpt>
      <trkpt lat="43.43463" lon="3.4539">
        <ele>51.257227</ele>
        <time>2023-12-30T15:43:03.000Z</time>
      </trkpt>
      <trkpt lat="43.43463" lon="3.4539">
        <ele>51.257227</ele>
        <time>2023-12-30T15:43:04.000Z</time>
      </trkpt>
      <trkpt lat="43.43463" lon="3.4539">
        <ele>51.257227</ele>
        <time>2023-12-30T15:43:05.000Z</time>
      </trkpt>
      <trkpt lat="43.43463" lon="3.4539">
        <ele>51.257227</ele>
        <time>2023-12-30T15:43:06.000Z</time>
      </trkpt>
      <trkpt lat="43.43463" lon="3.4539">
        <ele>51.257227</ele>
        <time>2023-12-30T15:43:07.000Z</time>
      </trkpt>
      <trkpt lat="43.43463" lon="3.4539">
        <ele>51.260971</ele>
        <time>2023-12-30T15:43:08.000Z</time>
      </trkpt>
      <trkpt lat="43.43463" lon="3.4539">
        <ele>51.260971</ele>
        <time>2023-12-30T15:43:09.000Z</time>
      </trkpt>
      <trkpt lat="43.43463" lon="3.4539">
        <ele>51.264716</ele>
        <time>2023-12-30T15:43:10.000Z</time>
      </trkpt>
      <trkpt lat="43.43463" lon="3.4539">
        <ele>51.264716</ele>
        <time>2023-12-30T15:43:11.000Z</time>
      </trkpt>
      <trkpt lat="43.43463" lon="3.4539">
        <ele>51.264716</ele>
        <time>2023-12-30T15:43:12.000Z</time>
      </trkpt>
      <trkpt lat="43.43463" lon="3.4539">
        <ele>51.264716</ele>
        <time>2023-12-30T15:43:13.000Z</time>
      </trkpt>
      <trkpt lat="43.43463" lon="3.4539">
        <ele>51.264716</ele>
        <time>2023-12-30T15:43:14.000Z</time>
      </trkpt>
      <trkpt lat="43.43463" lon="3.4539">
        <ele>51.264716</ele>
        <time>2023-12-30T15:43:15.000Z</time>
      </trkpt>
      <trkpt lat="43.43463" lon="3.4539">
        <ele>51.264716</ele>
        <time>2023-12-30T15:43:16.000Z</time>
      </trkpt>
      <trkpt lat="43.43463" lon="3.4539">
        <ele>51.264716</ele>
        <time>2023-12-30T15:43:17.000Z</time>
      </trkpt>
      <trkpt lat="43.43463" lon="3.4539">
        <ele>51.264716</ele>
        <time>2023-12-30T15:43:18.000Z</time>
      </trkpt>
      <trkpt lat="43.43463" lon="3.4539">
        <ele>51.264716</ele>
        <time>2023-12-30T15:43:19.000Z</time>
      </trkpt>
      <trkpt lat="43.43463" lon="3.4539">
        <ele>51.264716</ele>
        <time>2023-12-30T15:43:20.000Z</time>
      </trkpt>
      <trkpt lat="43.43463" lon="3.4539">
        <ele>51.26846</ele>
        <time>2023-12-30T15:43:21.000Z</time>
      </trkpt>
      <trkpt lat="43.43463" lon="3.4539">
        <ele>51.26846</ele>
        <time>2023-12-30T15:43:22.000Z</time>
      </trkpt>
      <trkpt lat="43.43463" lon="3.4539">
        <ele>51.26846</ele>
        <time>2023-12-30T15:43:23.000Z</time>
      </trkpt>
      <trkpt lat="43.43463" lon="3.4539">
        <ele>51.276428</ele>
        <time>2023-12-30T15:43:24.000Z</time>
      </trkpt>
      <trkpt lat="43.43463" lon="3.45389">
        <ele>51.285404</ele>
        <time>2023-12-30T15:43:25.000Z</time>
      </trkpt>
      <trkpt lat="43.43463" lon="3.45389">
        <ele>51.292892</ele>
        <time>2023-12-30T15:43:26.000Z</time>
      </trkpt>
      <trkpt lat="43.43463" lon="3.45389">
        <ele>51.292892</ele>
        <time>2023-12-30T15:43:27.000Z</time>
      </trkpt>
      <trkpt lat="43.43463" lon="3.4539">
        <ele>51.298331</ele>
        <time>2023-12-30T15:43:28.000Z</time>
      </trkpt>
      <trkpt lat="43.43463" lon="3.4539">
        <ele>51.315967</ele>
        <time>2023-12-30T15:43:29.000Z</time>
      </trkpt>
      <trkpt lat="43.43463" lon="3.4539">
        <ele>51.318686</ele>
        <time>2023-12-30T15:43:30.000Z</time>
      </trkpt>
      <trkpt lat="43.43463" lon="3.4539">
        <ele>51.318686</ele>
        <time>2023-12-30T15:43:31.000Z</time>
      </trkpt>
      <trkpt lat="43.43463" lon="3.4539">
        <ele>51.318686</ele>
        <time>2023-12-30T15:43:32.000Z</time>
      </trkpt>
      <trkpt lat="43.43463" lon="3.4539">
        <ele>51.318686</ele>
        <time>2023-12-30T15:43:33.000Z</time>
      </trkpt>
      <trkpt lat="43.43463" lon="3.4539">
        <ele>51.318686</ele>
        <time>2023-12-30T15:43:34.000Z</time>
      </trkpt>
      <trkpt lat="43.43463" lon="3.4539">
        <ele>51.318686</ele>
        <time>2023-12-30T15:43:35.000Z</time>
      </trkpt>
      <trkpt lat="43.43463" lon="3.4539">
        <ele>51.325288</ele>
        <time>2023-12-30T15:43:36.000Z</time>
      </trkpt>
      <trkpt lat="43.43463" lon="3.45392">
        <ele>51.371513</ele>
        <time>2023-12-30T15:43:37.000Z</time>
      </trkpt>
      <trkpt lat="43.43463" lon="3.45394">
        <ele>51.432379</ele>
        <time>2023-12-30T15:43:38.000Z</time>
      </trkpt>
      <trkpt lat="43.43462" lon="3.45398">
        <ele>51.53858</ele>
        <time>2023-12-30T15:43:39.000Z</time>
      </trkpt>
      <trkpt lat="43.4346" lon="3.45401">
        <ele>51.644858</ele>
        <time>2023-12-30T15:43:40.000Z</time>
      </trkpt>
      <trkpt lat="43.43458" lon="3.45406">
        <ele>51.788317</ele>
        <time>2023-12-30T15:43:41.000Z</time>
      </trkpt>
      <trkpt lat="43.43457" lon="3.45411">
        <ele>51.932724</ele>
        <time>2023-12-30T15:43:42.000Z</time>
      </trkpt>
      <trkpt lat="43.43457" lon="3.45415">
        <ele>52.039362</ele>
        <time>2023-12-30T15:43:43.000Z</time>
      </trkpt>
      <trkpt lat="43.43456" lon="3.45419">
        <ele>52.167379</ele>
        <time>2023-12-30T15:43:44.000Z</time>
      </trkpt>
      <trkpt lat="43.43456" lon="3.45423">
        <ele>52.279114</ele>
        <time>2023-12-30T15:43:45.000Z</time>
      </trkpt>
      <trkpt lat="43.43456" lon="3.45426">
        <ele>52.364727</ele>
        <time>2023-12-30T15:43:46.000Z</time>
      </trkpt>
      <trkpt lat="43.43455" lon="3.45429">
        <ele>52.448495</ele>
        <time>2023-12-30T15:43:47.000Z</time>
      </trkpt>
      <trkpt lat="43.43453" lon="3.45432">
        <ele>52.563297</ele>
        <time>2023-12-30T15:43:48.000Z</time>
      </trkpt>
      <trkpt lat="43.4345" lon="3.45435">
        <ele>52.671352</ele>
        <time>2023-12-30T15:43:49.000Z</time>
      </trkpt>
      <trkpt lat="43.43448" lon="3.45437">
        <ele>52.794944</ele>
        <time>2023-12-30T15:43:50.000Z</time>
      </trkpt>
      <trkpt lat="43.43445" lon="3.4544">
        <ele>52.908112</ele>
        <time>2023-12-30T15:43:51.000Z</time>
      </trkpt>
      <trkpt lat="43.43444" lon="3.45443">
        <ele>53.00841</ele>
        <time>2023-12-30T15:43:52.000Z</time>
      </trkpt>
      <trkpt lat="43.43441" lon="3.45445">
        <ele>53.116966</ele>
        <time>2023-12-30T15:43:53.000Z</time>
      </trkpt>
      <trkpt lat="43.43439" lon="3.45448">
        <ele>53.229721</ele>
        <time>2023-12-30T15:43:54.000Z</time>
      </trkpt>
      <trkpt lat="43.43437" lon="3.45452">
        <ele>53.344234</ele>
        <time>2023-12-30T15:43:55.000Z</time>
      </trkpt>
      <trkpt lat="43.43435" lon="3.45455">
        <ele>53.461111</ele>
        <time>2023-12-30T15:43:56.000Z</time>
      </trkpt>
      <trkpt lat="43.43434" lon="3.45458">
        <ele>53.559844</ele>
        <time>2023-12-30T15:43:57.000Z</time>
      </trkpt>
      <trkpt lat="43.43434" lon="3.45462">
        <ele>53.657026</ele>
        <time>2023-12-30T15:43:58.000Z</time>
      </trkpt>
      <trkpt lat="43.43433" lon="3.45465">
        <ele>53.750507</ele>
        <time>2023-12-30T15:43:59.000Z</time>
      </trkpt>
      <trkpt lat="43.43432" lon="3.45467">
        <ele>53.816959</ele>
        <time>2023-12-30T15:44:00.000Z</time>
      </trkpt>
      <trkpt lat="43.43432" lon="3.4547">
        <ele>53.887285</ele>
        <time>2023-12-30T15:44:01.000Z</time>
      </trkpt>
      <trkpt lat="43.43431" lon="3.45472">
        <ele>53.952597</ele>
        <time>2023-12-30T15:44:02.000Z</time>
      </trkpt>
      <trkpt lat="43.4343" lon="3.45475">
        <ele>54.033378</ele>
        <time>2023-12-30T15:44:03.000Z</time>
      </trkpt>
      <trkpt lat="43.43429" lon="3.45477">
        <ele>54.121391</ele>
        <time>2023-12-30T15:44:04.000Z</time>
      </trkpt>
      <trkpt lat="43.43426" lon="3.4548">
        <ele>54.226486</ele>
        <time>2023-12-30T15:44:05.000Z</time>
      </trkpt>
      <trkpt lat="43.43424" lon="3.45481">
        <ele>54.322308</ele>
        <time>2023-12-30T15:44:06.000Z</time>
      </trkpt>
      <trkpt lat="43.43421" lon="3.45483">
        <ele>54.435845</ele>
        <time>2023-12-30T15:44:07.000Z</time>
      </trkpt>
      <trkpt lat="43.43418" lon="3.45485">
        <ele>54.570851</ele>
        <time>2023-12-30T15:44:08.000Z</time>
      </trkpt>
      <trkpt lat="43.43415" lon="3.45488">
        <ele>54.706013</ele>
        <time>2023-12-30T15:44:09.000Z</time>
      </trkpt>
      <trkpt lat="43.43412" lon="3.4549">
        <ele>54.841176</ele>
        <time>2023-12-30T15:44:10.000Z</time>
      </trkpt>
      <trkpt lat="43.43409" lon="3.45494">
        <ele>54.974738</ele>
        <time>2023-12-30T15:44:11.000Z</time>
      </trkpt>
      <trkpt lat="43.43406" lon="3.45498">
        <ele>55.109778</ele>
        <time>2023-12-30T15:44:12.000Z</time>
      </trkpt>
      <trkpt lat="43.43403" lon="3.45501">
        <ele>55.231477</ele>
        <time>2023-12-30T15:44:13.000Z</time>
      </trkpt>
      <trkpt lat="43.434" lon="3.45504">
        <ele>55.339852</ele>
        <time>2023-12-30T15:44:14.000Z</time>
      </trkpt>
      <trkpt lat="43.43398" lon="3.45507">
        <ele>55.423813</ele>
        <time>2023-12-30T15:44:15.000Z</time>
      </trkpt>
      <trkpt lat="43.43397" lon="3.45509">
        <ele>55.493765</ele>
        <time>2023-12-30T15:44:16.000Z</time>
      </trkpt>
      <trkpt lat="43.43395" lon="3.4551">
        <ele>55.551975</ele>
        <time>2023-12-30T15:44:17.000Z</time>
      </trkpt>
      <trkpt lat="43.43394" lon="3.45511">
        <ele>55.600756</ele>
        <time>2023-12-30T15:44:18.000Z</time>
      </trkpt>
      <trkpt lat="43.43392" lon="3.45513">
        <ele>55.657382</ele>
        <time>2023-12-30T15:44:19.000Z</time>
      </trkpt>
      <trkpt lat="43.43391" lon="3.45514">
        <ele>55.71951</ele>
        <time>2023-12-30T15:44:20.000Z</time>
      </trkpt>
      <trkpt lat="43.43389" lon="3.45514">
        <ele>55.78179</ele>
        <time>2023-12-30T15:44:21.000Z</time>
      </trkpt>
      <trkpt lat="43.43387" lon="3.45515">
        <ele>55.852118</ele>
        <time>2023-12-30T15:44:22.000Z</time>
      </trkpt>
      <trkpt lat="43.43384" lon="3.45515">
        <ele>55.938881</ele>
        <time>2023-12-30T15:44:23.000Z</time>
      </trkpt>
      <trkpt lat="43.43381" lon="3.45515">
        <ele>56.028821</ele>
        <time>2023-12-30T15:44:24.000Z</time>
      </trkpt>
      <trkpt lat="43.43378" lon="3.45516">
        <ele>56.115862</ele>
        <time>2023-12-30T15:44:25.000Z</time>
      </trkpt>
      <trkpt lat="43.43376" lon="3.45517">
        <ele>56.197371</ele>
        <time>2023-12-30T15:44:26.000Z</time>
      </trkpt>
      <trkpt lat="43.43373" lon="3.45518">
        <ele>56.280647</ele>
        <time>2023-12-30T15:44:27.000Z</time>
      </trkpt>
      <trkpt lat="43.43371" lon="3.45519">
        <ele>56.369841</ele>
        <time>2023-12-30T15:44:28.000Z</time>
      </trkpt>
      <trkpt lat="43.43368" lon="3.4552">
        <ele>56.461706</ele>
        <time>2023-12-30T15:44:29.000Z</time>
      </trkpt>
      <trkpt lat="43.43365" lon="3.45521">
        <ele>56.566545</ele>
        <time>2023-12-30T15:44:30.000Z</time>
      </trkpt>
      <trkpt lat="43.43362" lon="3.45523">
        <ele>56.666359</ele>
        <time>2023-12-30T15:44:31.000Z</time>
      </trkpt>
      <trkpt lat="43.43359" lon="3.45525">
        <ele>56.773848</ele>
        <time>2023-12-30T15:44:32.000Z</time>
      </trkpt>
      <trkpt lat="43.43356" lon="3.45527">
        <ele>56.889996</ele>
        <time>2023-12-30T15:44:33.000Z</time>
      </trkpt>
      <trkpt lat="43.43353" lon="3.45529">
        <ele>56.995497</ele>
        <time>2023-12-30T15:44:34.000Z</time>
      </trkpt>
      <trkpt lat="43.43349" lon="3.4553">
        <ele>57.100478</ele>
        <time>2023-12-30T15:44:35.000Z</time>
      </trkpt>
      <trkpt lat="43.43346" lon="3.45532">
        <ele>57.213049</ele>
        <time>2023-12-30T15:44:36.000Z</time>
      </trkpt>
      <trkpt lat="43.43343" lon="3.45533">
        <ele>57.322098</ele>
        <time>2023-12-30T15:44:37.000Z</time>
      </trkpt>
      <trkpt lat="43.4334" lon="3.45533">
        <ele>57.418396</ele>
        <time>2023-12-30T15:44:38.000Z</time>
      </trkpt>
      <trkpt lat="43.43337" lon="3.45533">
        <ele>57.51105</ele>
        <time>2023-12-30T15:44:39.000Z</time>
      </trkpt>
      <trkpt lat="43.43335" lon="3.45535">
        <ele>57.592628</ele>
        <time>2023-12-30T15:44:40.000Z</time>
      </trkpt>
      <trkpt lat="43.43332" lon="3.45536">
        <ele>57.67121</ele>
        <time>2023-12-30T15:44:41.000Z</time>
      </trkpt>
      <trkpt lat="43.43331" lon="3.45538">
        <ele>57.735778</ele>
        <time>2023-12-30T15:44:42.000Z</time>
      </trkpt>
      <trkpt lat="43.43329" lon="3.4554">
        <ele>57.811152</ele>
        <time>2023-12-30T15:44:43.000Z</time>
      </trkpt>
      <trkpt lat="43.43327" lon="3.45543">
        <ele>57.901441</ele>
        <time>2023-12-30T15:44:44.000Z</time>
      </trkpt>
      <trkpt lat="43.43326" lon="3.45545">
        <ele>57.967661</ele>
        <time>2023-12-30T15:44:45.000Z</time>
      </trkpt>
      <trkpt lat="43.43325" lon="3.45547">
        <ele>58.033468</ele>
        <time>2023-12-30T15:44:46.000Z</time>
      </trkpt>
      <trkpt lat="43.43323" lon="3.4555">
        <ele>58.120699</ele>
        <time>2023-12-30T15:44:47.000Z</time>
      </trkpt>
      <trkpt lat="43.43321" lon="3.45553">
        <ele>58.199572</ele>
        <time>2023-12-30T15:44:48.000Z</time>
      </trkpt>
      <trkpt lat="43.4332" lon="3.45556">
        <ele>58.297499</ele>
        <time>2023-12-30T15:44:49.000Z</time>
      </trkpt>
      <trkpt lat="43.43319" lon="3.4556">
        <ele>58.397911</ele>
        <time>2023-12-30T15:44:50.000Z</time>
      </trkpt>
      <trkpt lat="43.43317" lon="3.45564">
        <ele>58.505902</ele>
        <time>2023-12-30T15:44:51.000Z</time>
      </trkpt>
      <trkpt lat="43.43315" lon="3.45568">
        <ele>58.604219</ele>
        <time>2023-12-30T15:44:52.000Z</time>
      </trkpt>
      <trkpt lat="43.43314" lon="3.45572">
        <ele>58.710735</ele>
        <time>2023-12-30T15:44:53.000Z</time>
      </trkpt>
      <trkpt lat="43.43312" lon="3.45576">
        <ele>58.818726</ele>
        <time>2023-12-30T15:44:54.000Z</time>
      </trkpt>
      <trkpt lat="43.43311" lon="3.45581">
        <ele>58.931876</ele>
        <time>2023-12-30T15:44:55.000Z</time>
      </trkpt>
      <trkpt lat="43.43309" lon="3.45584">
        <ele>59.017503</ele>
        <time>2023-12-30T15:44:56.000Z</time>
      </trkpt>
      <trkpt lat="43.43308" lon="3.45587">
        <ele>59.099646</ele>
        <time>2023-12-30T15:44:57.000Z</time>
      </trkpt>
      <trkpt lat="43.43308" lon="3.4559">
        <ele>59.17853</ele>
        <time>2023-12-30T15:44:58.000Z</time>
      </trkpt>
      <trkpt lat="43.43308" lon="3.45594">
        <ele>59.257673</ele>
        <time>2023-12-30T15:44:59.000Z</time>
      </trkpt>
      <trkpt lat="43.43307" lon="3.45597">
        <ele>59.341232</ele>
        <time>2023-12-30T15:45:00.000Z</time>
      </trkpt>
      <trkpt lat="43.43306" lon="3.456">
        <ele>59.421951</ele>
        <time>2023-12-30T15:45:01.000Z</time>
      </trkpt>
      <trkpt lat="43.43305" lon="3.45603">
        <ele>59.502002</ele>
        <time>2023-12-30T15:45:02.000Z</time>
      </trkpt>
      <trkpt lat="43.43304" lon="3.45606">
        <ele>59.59029</ele>
        <time>2023-12-30T15:45:03.000Z</time>
      </trkpt>
      <trkpt lat="43.43301" lon="3.45609">
        <ele>59.681422</ele>
        <time>2023-12-30T15:45:04.000Z</time>
      </trkpt>
      <trkpt lat="43.433" lon="3.45612">
        <ele>59.770335</ele>
        <time>2023-12-30T15:45:05.000Z</time>
      </trkpt>
      <trkpt lat="43.43298" lon="3.45614">
        <ele>59.848174</ele>
        <time>2023-12-30T15:45:06.000Z</time>
      </trkpt>
      <trkpt lat="43.43295" lon="3.45615">
        <ele>59.927664</ele>
        <time>2023-12-30T15:45:07.000Z</time>
      </trkpt>
      <trkpt lat="43.43293" lon="3.45617">
        <ele>60.011517</ele>
        <time>2023-12-30T15:45:08.000Z</time>
      </trkpt>
      <trkpt lat="43.43291" lon="3.45619">
        <ele>60.094769</ele>
        <time>2023-12-30T15:45:09.000Z</time>
      </trkpt>
      <trkpt lat="43.4329" lon="3.45622">
        <ele>60.16509</ele>
        <time>2023-12-30T15:45:10.000Z</time>
      </trkpt>
      <trkpt lat="43.4329" lon="3.45625">
        <ele>60.235858</ele>
        <time>2023-12-30T15:45:11.000Z</time>
      </trkpt>
      <trkpt lat="43.43289" lon="3.45627">
        <ele>60.294122</ele>
        <time>2023-12-30T15:45:12.000Z</time>
      </trkpt>
      <trkpt lat="43.43287" lon="3.45629">
        <ele>60.361991</ele>
        <time>2023-12-30T15:45:13.000Z</time>
      </trkpt>
      <trkpt lat="43.43285" lon="3.4563">
        <ele>60.430441</ele>
        <time>2023-12-30T15:45:14.000Z</time>
      </trkpt>
      <trkpt lat="43.43284" lon="3.45631">
        <ele>60.478869</ele>
        <time>2023-12-30T15:45:15.000Z</time>
      </trkpt>
      <trkpt lat="43.43283" lon="3.45631">
        <ele>60.521428</ele>
        <time>2023-12-30T15:45:16.000Z</time>
      </trkpt>
      <trkpt lat="43.43281" lon="3.45629">
        <ele>60.579556</ele>
        <time>2023-12-30T15:45:17.000Z</time>
      </trkpt>
      <trkpt lat="43.4328" lon="3.45628">
        <ele>60.647151</ele>
        <time>2023-12-30T15:45:18.000Z</time>
      </trkpt>
      <trkpt lat="43.43279" lon="3.45627">
        <ele>60.696539</ele>
        <time>2023-12-30T15:45:19.000Z</time>
      </trkpt>
      <trkpt lat="43.43279" lon="3.45627">
        <ele>60.731572</ele>
        <time>2023-12-30T15:45:20.000Z</time>
      </trkpt>
      <trkpt lat="43.43278" lon="3.45627">
        <ele>60.75758</ele>
        <time>2023-12-30T15:45:21.000Z</time>
      </trkpt>
      <trkpt lat="43.43278" lon="3.45627">
        <ele>60.768209</ele>
        <time>2023-12-30T15:45:22.000Z</time>
      </trkpt>
      <trkpt lat="43.43278" lon="3.45627">
        <ele>60.777018</ele>
        <time>2023-12-30T15:45:23.000Z</time>
      </trkpt>
      <trkpt lat="43.43278" lon="3.45627">
        <ele>60.782013</ele>
        <time>2023-12-30T15:45:24.000Z</time>
      </trkpt>
      <trkpt lat="43.43278" lon="3.45627">
        <ele>60.787008</ele>
        <time>2023-12-30T15:45:25.000Z</time>
      </trkpt>
      <trkpt lat="43.43278" lon="3.45627">
        <ele>60.787008</ele>
        <time>2023-12-30T15:45:26.000Z</time>
      </trkpt>
      <trkpt lat="43.43278" lon="3.45627">
        <ele>60.793182</ele>
        <time>2023-12-30T15:45:27.000Z</time>
      </trkpt>
      <trkpt lat="43.43278" lon="3.45627">
        <ele>60.796809</ele>
        <time>2023-12-30T15:45:28.000Z</time>
      </trkpt>
      <trkpt lat="43.43278" lon="3.45627">
        <ele>60.796809</ele>
        <time>2023-12-30T15:45:29.000Z</time>
      </trkpt>
      <trkpt lat="43.43278" lon="3.45627">
        <ele>60.800437</ele>
        <time>2023-12-30T15:45:30.000Z</time>
      </trkpt>
      <trkpt lat="43.43278" lon="3.45627">
        <ele>60.800437</ele>
        <time>2023-12-30T15:45:31.000Z</time>
      </trkpt>
      <trkpt lat="43.43278" lon="3.45627">
        <ele>60.800437</ele>
        <time>2023-12-30T15:45:32.000Z</time>
      </trkpt>
      <trkpt lat="43.43278" lon="3.45627">
        <ele>60.800437</ele>
        <time>2023-12-30T15:45:33.000Z</time>
      </trkpt>
      <trkpt lat="43.43278" lon="3.45627">
        <ele>60.805432</ele>
        <time>2023-12-30T15:45:34.000Z</time>
      </trkpt>
      <trkpt lat="43.43278" lon="3.45627">
        <ele>60.810428</ele>
        <time>2023-12-30T15:45:35.000Z</time>
      </trkpt>
      <trkpt lat="43.43277" lon="3.45627">
        <ele>60.841265</ele>
        <time>2023-12-30T15:45:36.000Z</time>
      </trkpt>
      <trkpt lat="43.43274" lon="3.45625">
        <ele>61.012598</ele>
        <time>2023-12-30T15:45:37.000Z</time>
      </trkpt>
      <trkpt lat="43.43273" lon="3.45625">
        <ele>61.089692</ele>
        <time>2023-12-30T15:45:38.000Z</time>
      </trkpt>
      <trkpt lat="43.43271" lon="3.45625">
        <ele>61.154732</ele>
        <time>2023-12-30T15:45:39.000Z</time>
      </trkpt>
      <trkpt lat="43.4327" lon="3.45626">
        <ele>61.22586</ele>
        <time>2023-12-30T15:45:40.000Z</time>
      </trkpt>
      <trkpt lat="43.4327" lon="3.45627">
        <ele>61.276891</ele>
        <time>2023-12-30T15:45:41.000Z</time>
      </trkpt>
      <trkpt lat="43.4327" lon="3.45629">
        <ele>61.357319</ele>
        <time>2023-12-30T15:45:42.000Z</time>
      </trkpt>
      <trkpt lat="43.4327" lon="3.45632">
        <ele>61.437124</ele>
        <time>2023-12-30T15:45:43.000Z</time>
      </trkpt>
      <trkpt lat="43.43271" lon="3.45633">
        <ele>61.496094</ele>
        <time>2023-12-30T15:45:44.000Z</time>
      </trkpt>
      <trkpt lat="43.43271" lon="3.45635">
        <ele>61.570176</ele>
        <time>2023-12-30T15:45:45.000Z</time>
      </trkpt>
      <trkpt lat="43.43271" lon="3.45638">
        <ele>61.665019</ele>
        <time>2023-12-30T15:45:46.000Z</time>
      </trkpt>
      <trkpt lat="43.43271" lon="3.4564">
        <ele>61.753359</ele>
        <time>2023-12-30T15:45:47.000Z</time>
      </trkpt>
      <trkpt lat="43.43272" lon="3.45643">
        <ele>61.864435</ele>
        <time>2023-12-30T15:45:48.000Z</time>
      </trkpt>
      <trkpt lat="43.43273" lon="3.45645">
        <ele>61.965655</ele>
        <time>2023-12-30T15:45:49.000Z</time>
      </trkpt>
      <trkpt lat="43.43274" lon="3.45648">
        <ele>62.070137</ele>
        <time>2023-12-30T15:45:50.000Z</time>
      </trkpt>
      <trkpt lat="43.43275" lon="3.4565">
        <ele>62.159389</ele>
        <time>2023-12-30T15:45:51.000Z</time>
      </trkpt>
      <trkpt lat="43.43276" lon="3.45652">
        <ele>62.23028</ele>
        <time>2023-12-30T15:45:52.000Z</time>
      </trkpt>
      <trkpt lat="43.43276" lon="3.45654">
        <ele>62.298846</ele>
        <time>2023-12-30T15:45:53.000Z</time>
      </trkpt>
      <trkpt lat="43.43277" lon="3.45655">
        <ele>62.381135</ele>
        <time>2023-12-30T15:45:54.000Z</time>
      </trkpt>
      <trkpt lat="43.43278" lon="3.45658">
        <ele>62.45989</ele>
        <time>2023-12-30T15:45:55.000Z</time>
      </trkpt>
      <trkpt lat="43.43278" lon="3.4566">
        <ele>62.536068</ele>
        <time>2023-12-30T15:45:56.000Z</time>
      </trkpt>
      <trkpt lat="43.43277" lon="3.45662">
        <ele>62.608789</ele>
        <time>2023-12-30T15:45:57.000Z</time>
      </trkpt>
      <trkpt lat="43.43278" lon="3.45664">
        <ele>62.70875</ele>
        <time>2023-12-30T15:45:58.000Z</time>
      </trkpt>
      <trkpt lat="43.43279" lon="3.45667">
        <ele>62.801259</ele>
        <time>2023-12-30T15:45:59.000Z</time>
      </trkpt>
      <trkpt lat="43.4328" lon="3.45668">
        <ele>62.866413</ele>
        <time>2023-12-30T15:46:00.000Z</time>
      </trkpt>
      <trkpt lat="43.4328" lon="3.45669">
        <ele>62.925505</ele>
        <time>2023-12-30T15:46:01.000Z</time>
      </trkpt>
      <trkpt lat="43.43281" lon="3.45672">
        <ele>63.040986</ele>
        <time>2023-12-30T15:46:02.000Z</time>
      </trkpt>
      <trkpt lat="43.43283" lon="3.45675">
        <ele>63.181388</ele>
        <time>2023-12-30T15:46:03.000Z</time>
      </trkpt>
      <trkpt lat="43.43284" lon="3.45678">
        <ele>63.305015</ele>
        <time>2023-12-30T15:46:04.000Z</time>
      </trkpt>
      <trkpt lat="43.43285" lon="3.45681">
        <ele>63.407966</ele>
        <time>2023-12-30T15:46:05.000Z</time>
      </trkpt>
      <trkpt lat="43.43286" lon="3.45683">
        <ele>63.493087</ele>
        <time>2023-12-30T15:46:06.000Z</time>
      </trkpt>
      <trkpt lat="43.43287" lon="3.45684">
        <ele>63.575684</ele>
        <time>2023-12-30T15:46:07.000Z</time>
      </trkpt>
      <trkpt lat="43.43288" lon="3.45687">
        <ele>63.667759</ele>
        <time>2023-12-30T15:46:08.000Z</time>
      </trkpt>
      <trkpt lat="43.43288" lon="3.45689">
        <ele>63.764167</ele>
        <time>2023-12-30T15:46:09.000Z</time>
      </trkpt>
      <trkpt lat="43.43288" lon="3.45692">
        <ele>63.858614</ele>
        <time>2023-12-30T15:46:10.000Z</time>
      </trkpt>
      <trkpt lat="43.43288" lon="3.45694">
        <ele>63.928257</ele>
        <time>2023-12-30T15:46:11.000Z</time>
      </trkpt>
      <trkpt lat="43.43288" lon="3.45696">
        <ele>64.008218</ele>
        <time>2023-12-30T15:46:12.000Z</time>
      </trkpt>
      <trkpt lat="43.43288" lon="3.45698">
        <ele>64.074273</ele>
        <time>2023-12-30T15:46:13.000Z</time>
      </trkpt>
      <trkpt lat="43.43289" lon="3.457">
        <ele>64.143916</ele>
        <time>2023-12-30T15:46:14.000Z</time>
      </trkpt>
      <trkpt lat="43.43289" lon="3.45702">
        <ele>64.213559</ele>
        <time>2023-12-30T15:46:15.000Z</time>
      </trkpt>
      <trkpt lat="43.43289" lon="3.45704">
        <ele>64.302882</ele>
        <time>2023-12-30T15:46:16.000Z</time>
      </trkpt>
      <trkpt lat="43.4329" lon="3.45706">
        <ele>64.388674</ele>
        <time>2023-12-30T15:46:17.000Z</time>
      </trkpt>
      <trkpt lat="43.4329" lon="3.45709">
        <ele>64.469102</ele>
        <time>2023-12-30T15:46:18.000Z</time>
      </trkpt>
      <trkpt lat="43.4329" lon="3.45711">
        <ele>64.556733</ele>
        <time>2023-12-30T15:46:19.000Z</time>
      </trkpt>
      <trkpt lat="43.43289" lon="3.45713">
        <ele>64.64797</ele>
        <time>2023-12-30T15:46:20.000Z</time>
      </trkpt>
      <trkpt lat="43.4329" lon="3.45716">
        <ele>64.730238</ele>
        <time>2023-12-30T15:46:21.000Z</time>
      </trkpt>
      <trkpt lat="43.4329" lon="3.45718">
        <ele>64.829201</ele>
        <time>2023-12-30T15:46:22.000Z</time>
      </trkpt>
      <trkpt lat="43.43291" lon="3.4572">
        <ele>64.909629</ele>
        <time>2023-12-30T15:46:23.000Z</time>
      </trkpt>
      <trkpt lat="43.43291" lon="3.45723">
        <ele>65.000865</ele>
        <time>2023-12-30T15:46:24.000Z</time>
      </trkpt>
      <trkpt lat="43.43291" lon="3.45725">
        <ele>65.065689</ele>
        <time>2023-12-30T15:46:25.000Z</time>
      </trkpt>
      <trkpt lat="43.43292" lon="3.45727">
        <ele>65.149311</ele>
        <time>2023-12-30T15:46:26.000Z</time>
      </trkpt>
      <trkpt lat="43.43292" lon="3.4573">
        <ele>65.251371</ele>
        <time>2023-12-30T15:46:27.000Z</time>
      </trkpt>
      <trkpt lat="43.43292" lon="3.45732">
        <ele>65.328201</ele>
        <time>2023-12-30T15:46:28.000Z</time>
      </trkpt>
      <trkpt lat="43.43292" lon="3.45734">
        <ele>65.397123</ele>
        <time>2023-12-30T15:46:29.000Z</time>
      </trkpt>
      <trkpt lat="43.43291" lon="3.45736">
        <ele>65.478323</ele>
        <time>2023-12-30T15:46:30.000Z</time>
      </trkpt>
      <trkpt lat="43.43291" lon="3.45738">
        <ele>65.575889</ele>
        <time>2023-12-30T15:46:31.000Z</time>
      </trkpt>
      <trkpt lat="43.4329" lon="3.45741">
        <ele>65.688766</ele>
        <time>2023-12-30T15:46:32.000Z</time>
      </trkpt>
      <trkpt lat="43.4329" lon="3.45744">
        <ele>65.77923</ele>
        <time>2023-12-30T15:46:33.000Z</time>
      </trkpt>
      <trkpt lat="43.43289" lon="3.45746">
        <ele>65.865253</ele>
        <time>2023-12-30T15:46:34.000Z</time>
      </trkpt>
      <trkpt lat="43.43288" lon="3.45748">
        <ele>65.954577</ele>
        <time>2023-12-30T15:46:35.000Z</time>
      </trkpt>
      <trkpt lat="43.43288" lon="3.45751">
        <ele>66.053028</ele>
        <time>2023-12-30T15:46:36.000Z</time>
      </trkpt>
      <trkpt lat="43.43288" lon="3.45754">
        <ele>66.147475</ele>
        <time>2023-12-30T15:46:37.000Z</time>
      </trkpt>
      <trkpt lat="43.43288" lon="3.45756">
        <ele>66.250144</ele>
        <time>2023-12-30T15:46:38.000Z</time>
      </trkpt>
      <trkpt lat="43.43287" lon="3.45759">
        <ele>66.354142</ele>
        <time>2023-12-30T15:46:39.000Z</time>
      </trkpt>
      <trkpt lat="43.43287" lon="3.45761">
        <ele>66.443465</ele>
        <time>2023-12-30T15:46:40.000Z</time>
      </trkpt>
      <trkpt lat="43.43286" lon="3.45765">
        <ele>66.559844</ele>
        <time>2023-12-30T15:46:41.000Z</time>
      </trkpt>
      <trkpt lat="43.43285" lon="3.45767">
        <ele>66.661063</ele>
        <time>2023-12-30T15:46:42.000Z</time>
      </trkpt>
      <trkpt lat="43.43285" lon="3.4577">
        <ele>66.762756</ele>
        <time>2023-12-30T15:46:43.000Z</time>
      </trkpt>
      <trkpt lat="43.43285" lon="3.45773">
        <ele>66.861839</ele>
        <time>2023-12-30T15:46:44.000Z</time>
      </trkpt>
      <trkpt lat="43.43284" lon="3.45775">
        <ele>66.970988</ele>
        <time>2023-12-30T15:46:45.000Z</time>
      </trkpt>
      <trkpt lat="43.43283" lon="3.45778">
        <ele>67.064807</ele>
        <time>2023-12-30T15:46:46.000Z</time>
      </trkpt>
      <trkpt lat="43.43283" lon="3.45781">
        <ele>67.182553</ele>
        <time>2023-12-30T15:46:47.000Z</time>
      </trkpt>
      <trkpt lat="43.43282" lon="3.45784">
        <ele>67.293198</ele>
        <time>2023-12-30T15:46:48.000Z</time>
      </trkpt>
      <trkpt lat="43.43281" lon="3.45787">
        <ele>67.41957</ele>
        <time>2023-12-30T15:46:49.000Z</time>
      </trkpt>
      <trkpt lat="43.4328" lon="3.4579">
        <ele>67.526991</ele>
        <time>2023-12-30T15:46:50.000Z</time>
      </trkpt>
      <trkpt lat="43.43281" lon="3.45793">
        <ele>67.632307</ele>
        <time>2023-12-30T15:46:51.000Z</time>
      </trkpt>
      <trkpt lat="43.4328" lon="3.45795">
        <ele>67.735824</ele>
        <time>2023-12-30T15:46:52.000Z</time>
      </trkpt>
      <trkpt lat="43.4328" lon="3.45798">
        <ele>67.830139</ele>
        <time>2023-12-30T15:46:53.000Z</time>
      </trkpt>
      <trkpt lat="43.4328" lon="3.45801">
        <ele>67.932565</ele>
        <time>2023-12-30T15:46:54.000Z</time>
      </trkpt>
      <trkpt lat="43.43279" lon="3.45804">
        <ele>68.052452</ele>
        <time>2023-12-30T15:46:55.000Z</time>
      </trkpt>
      <trkpt lat="43.43278" lon="3.45806">
        <ele>68.16116</ele>
        <time>2023-12-30T15:46:56.000Z</time>
      </trkpt>
      <trkpt lat="43.43276" lon="3.45809">
        <ele>68.297545</ele>
        <time>2023-12-30T15:46:57.000Z</time>
      </trkpt>
      <trkpt lat="43.43274" lon="3.45811">
        <ele>68.386154</ele>
        <time>2023-12-30T15:46:58.000Z</time>
      </trkpt>
      <trkpt lat="43.43273" lon="3.45812">
        <ele>68.478244</ele>
        <time>2023-12-30T15:46:59.000Z</time>
      </trkpt>
      <trkpt lat="43.43272" lon="3.45815">
        <ele>68.581195</ele>
        <time>2023-12-30T15:47:00.000Z</time>
      </trkpt>
      <trkpt lat="43.43272" lon="3.45818">
        <ele>68.679265</ele>
        <time>2023-12-30T15:47:01.000Z</time>
      </trkpt>
      <trkpt lat="43.43273" lon="3.4582">
        <ele>68.776634</ele>
        <time>2023-12-30T15:47:02.000Z</time>
      </trkpt>
      <trkpt lat="43.43274" lon="3.45822">
        <ele>68.856801</ele>
        <time>2023-12-30T15:47:03.000Z</time>
      </trkpt>
      <trkpt lat="43.43274" lon="3.45823">
        <ele>68.915695</ele>
        <time>2023-12-30T15:47:04.000Z</time>
      </trkpt>
      <trkpt lat="43.43274" lon="3.45825">
        <ele>68.978167</ele>
        <time>2023-12-30T15:47:05.000Z</time>
      </trkpt>
      <trkpt lat="43.43275" lon="3.45827">
        <ele>69.040638</ele>
        <time>2023-12-30T15:47:06.000Z</time>
      </trkpt>
      <trkpt lat="43.43275" lon="3.45828">
        <ele>69.100582</ele>
        <time>2023-12-30T15:47:07.000Z</time>
      </trkpt>
      <trkpt lat="43.43275" lon="3.45831">
        <ele>69.184611</ele>
        <time>2023-12-30T15:47:08.000Z</time>
      </trkpt>
      <trkpt lat="43.43275" lon="3.45832">
        <ele>69.253714</ele>
        <time>2023-12-30T15:47:09.000Z</time>
      </trkpt>
      <trkpt lat="43.43275" lon="3.45835">
        <ele>69.330544</ele>
        <time>2023-12-30T15:47:10.000Z</time>
      </trkpt>
      <trkpt lat="43.43274" lon="3.45836">
        <ele>69.401077</ele>
        <time>2023-12-30T15:47:11.000Z</time>
      </trkpt>
      <trkpt lat="43.43275" lon="3.45838">
        <ele>69.470181</ele>
        <time>2023-12-30T15:47:12.000Z</time>
      </trkpt>
      <trkpt lat="43.43275" lon="3.4584">
        <ele>69.540714</ele>
        <time>2023-12-30T15:47:13.000Z</time>
      </trkpt>
      <trkpt lat="43.43275" lon="3.45842">
        <ele>69.572843</ele>
        <time>2023-12-30T15:47:14.000Z</time>
      </trkpt>
      <trkpt lat="43.43275" lon="3.45843">
        <ele>69.546714</ele>
        <time>2023-12-30T15:47:15.000Z</time>
      </trkpt>
      <trkpt lat="43.43275" lon="3.45844">
        <ele>69.513556</ele>
        <time>2023-12-30T15:47:16.000Z</time>
      </trkpt>
      <trkpt lat="43.43275" lon="3.45846">
        <ele>69.475843</ele>
        <time>2023-12-30T15:47:17.000Z</time>
      </trkpt>
      <trkpt lat="43.43274" lon="3.45847">
        <ele>69.441438</ele>
        <time>2023-12-30T15:47:18.000Z</time>
      </trkpt>
      <trkpt lat="43.43274" lon="3.45849">
        <ele>69.405934</ele>
        <time>2023-12-30T15:47:19.000Z</time>
      </trkpt>
      <trkpt lat="43.43274" lon="3.4585">
        <ele>69.373782</ele>
        <time>2023-12-30T15:47:20.000Z</time>
      </trkpt>
      <trkpt lat="43.43274" lon="3.45852">
        <ele>69.33488</ele>
        <time>2023-12-30T15:47:21.000Z</time>
      </trkpt>
      <trkpt lat="43.43274" lon="3.45853">
        <ele>69.296612</ele>
        <time>2023-12-30T15:47:22.000Z</time>
      </trkpt>
      <trkpt lat="43.43274" lon="3.45855">
        <ele>69.247115</ele>
        <time>2023-12-30T15:47:23.000Z</time>
      </trkpt>
      <trkpt lat="43.43274" lon="3.45858">
        <ele>69.195158</ele>
        <time>2023-12-30T15:47:24.000Z</time>
      </trkpt>
      <trkpt lat="43.43274" lon="3.4586">
        <ele>69.147906</ele>
        <time>2023-12-30T15:47:25.000Z</time>
      </trkpt>
      <trkpt lat="43.43275" lon="3.45862">
        <ele>69.082955</ele>
        <time>2023-12-30T15:47:26.000Z</time>
      </trkpt>
      <trkpt lat="43.43275" lon="3.45865">
        <ele>69.018985</ele>
        <time>2023-12-30T15:47:27.000Z</time>
      </trkpt>
      <trkpt lat="43.43275" lon="3.45868">
        <ele>68.948199</ele>
        <time>2023-12-30T15:47:28.000Z</time>
      </trkpt>
      <trkpt lat="43.43274" lon="3.45871">
        <ele>68.877191</ele>
        <time>2023-12-30T15:47:29.000Z</time>
      </trkpt>
      <trkpt lat="43.43274" lon="3.45873">
        <ele>68.838923</ele>
        <time>2023-12-30T15:47:30.000Z</time>
      </trkpt>
      <trkpt lat="43.43274" lon="3.45874">
        <ele>68.80811</ele>
        <time>2023-12-30T15:47:31.000Z</time>
      </trkpt>
      <trkpt lat="43.43274" lon="3.45876">
        <ele>68.760525</ele>
        <time>2023-12-30T15:47:32.000Z</time>
      </trkpt>
      <trkpt lat="43.43274" lon="3.45878">
        <ele>68.716995</ele>
        <time>2023-12-30T15:47:33.000Z</time>
      </trkpt>
      <trkpt lat="43.43274" lon="3.4588">
        <ele>68.669409</ele>
        <time>2023-12-30T15:47:34.000Z</time>
      </trkpt>
      <trkpt lat="43.43274" lon="3.45881">
        <ele>68.640939</ele>
        <time>2023-12-30T15:47:35.000Z</time>
      </trkpt>
      <trkpt lat="43.43274" lon="3.45881">
        <ele>68.633159</ele>
        <time>2023-12-30T15:47:36.000Z</time>
      </trkpt>
      <trkpt lat="43.43274" lon="3.4588">
        <ele>68.630802</ele>
        <time>2023-12-30T15:47:37.000Z</time>
      </trkpt>
      <trkpt lat="43.43274" lon="3.4588">
        <ele>68.630802</ele>
        <time>2023-12-30T15:47:38.000Z</time>
      </trkpt>
      <trkpt lat="43.43274" lon="3.4588">
        <ele>68.630802</ele>
        <time>2023-12-30T15:47:39.000Z</time>
      </trkpt>
      <trkpt lat="43.43274" lon="3.4588">
        <ele>68.630802</ele>
        <time>2023-12-30T15:47:40.000Z</time>
      </trkpt>
      <trkpt lat="43.43274" lon="3.45881">
        <ele>68.613071</ele>
        <time>2023-12-30T15:47:41.000Z</time>
      </trkpt>
      <trkpt lat="43.43275" lon="3.45885">
        <ele>68.516091</ele>
        <time>2023-12-30T15:47:42.000Z</time>
      </trkpt>
      <trkpt lat="43.43275" lon="3.45888">
        <ele>68.45171</ele>
        <time>2023-12-30T15:47:43.000Z</time>
      </trkpt>
      <trkpt lat="43.43275" lon="3.45891">
        <ele>68.3663</ele>
        <time>2023-12-30T15:47:44.000Z</time>
      </trkpt>
      <trkpt lat="43.43276" lon="3.45895">
        <ele>68.277562</ele>
        <time>2023-12-30T15:47:45.000Z</time>
      </trkpt>
      <trkpt lat="43.43277" lon="3.45899">
        <ele>68.186568</ele>
        <time>2023-12-30T15:47:46.000Z</time>
      </trkpt>
      <trkpt lat="43.43277" lon="3.45902">
        <ele>68.113224</ele>
        <time>2023-12-30T15:47:47.000Z</time>
      </trkpt>
      <trkpt lat="43.43278" lon="3.45905">
        <ele>68.038953</ele>
        <time>2023-12-30T15:47:48.000Z</time>
      </trkpt>
      <trkpt lat="43.43279" lon="3.45908">
        <ele>67.961054</ele>
        <time>2023-12-30T15:47:49.000Z</time>
      </trkpt>
      <trkpt lat="43.4328" lon="3.45911">
        <ele>67.885385</ele>
        <time>2023-12-30T15:47:50.000Z</time>
      </trkpt>
      <trkpt lat="43.4328" lon="3.45914">
        <ele>67.809681</ele>
        <time>2023-12-30T15:47:51.000Z</time>
      </trkpt>
      <trkpt lat="43.4328" lon="3.45918">
        <ele>67.705768</ele>
        <time>2023-12-30T15:47:52.000Z</time>
      </trkpt>
      <trkpt lat="43.4328" lon="3.45924">
        <ele>67.582517</ele>
        <time>2023-12-30T15:47:53.000Z</time>
      </trkpt>
      <trkpt lat="43.43281" lon="3.45929">
        <ele>67.458809</ele>
        <time>2023-12-30T15:47:54.000Z</time>
      </trkpt>
      <trkpt lat="43.43283" lon="3.45934">
        <ele>67.327271</ele>
        <time>2023-12-30T15:47:55.000Z</time>
      </trkpt>
      <trkpt lat="43.43285" lon="3.45939">
        <ele>67.199938</ele>
        <time>2023-12-30T15:47:56.000Z</time>
      </trkpt>
      <trkpt lat="43.43286" lon="3.45943">
        <ele>67.081394</ele>
        <time>2023-12-30T15:47:57.000Z</time>
      </trkpt>
      <trkpt lat="43.43287" lon="3.45949">
        <ele>66.948288</ele>
        <time>2023-12-30T15:47:58.000Z</time>
      </trkpt>
      <trkpt lat="43.43289" lon="3.45954">
        <ele>66.80981</ele>
        <time>2023-12-30T15:47:59.000Z</time>
      </trkpt>
      <trkpt lat="43.4329" lon="3.4596">
        <ele>66.661267</ele>
        <time>2023-12-30T15:48:00.000Z</time>
      </trkpt>
      <trkpt lat="43.43292" lon="3.45966">
        <ele>66.508396</ele>
        <time>2023-12-30T15:48:01.000Z</time>
      </trkpt>
      <trkpt lat="43.43293" lon="3.45973">
        <ele>66.356397</ele>
        <time>2023-12-30T15:48:02.000Z</time>
      </trkpt>
      <trkpt lat="43.43293" lon="3.45979">
        <ele>66.202745</ele>
        <time>2023-12-30T15:48:03.000Z</time>
      </trkpt>
      <trkpt lat="43.43294" lon="3.45986">
        <ele>66.046336</ele>
        <time>2023-12-30T15:48:04.000Z</time>
      </trkpt>
      <trkpt lat="43.43294" lon="3.45992">
        <ele>65.897524</ele>
        <time>2023-12-30T15:48:05.000Z</time>
      </trkpt>
      <trkpt lat="43.43293" lon="3.45998">
        <ele>65.753416</ele>
        <time>2023-12-30T15:48:06.000Z</time>
      </trkpt>
      <trkpt lat="43.43293" lon="3.46005">
        <ele>65.593869</ele>
        <time>2023-12-30T15:48:07.000Z</time>
      </trkpt>
      <trkpt lat="43.43292" lon="3.46012">
        <ele>65.422753</ele>
        <time>2023-12-30T15:48:08.000Z</time>
      </trkpt>
      <trkpt lat="43.43291" lon="3.46018">
        <ele>65.267871</ele>
        <time>2023-12-30T15:48:09.000Z</time>
      </trkpt>
      <trkpt lat="43.4329" lon="3.46025">
        <ele>65.117125</ele>
        <time>2023-12-30T15:48:10.000Z</time>
      </trkpt>
      <trkpt lat="43.43289" lon="3.46032">
        <ele>64.94897</ele>
        <time>2023-12-30T15:48:11.000Z</time>
      </trkpt>
      <trkpt lat="43.43288" lon="3.46038">
        <ele>64.792699</ele>
        <time>2023-12-30T15:48:12.000Z</time>
      </trkpt>
      <trkpt lat="43.43286" lon="3.46044">
        <ele>64.649627</ele>
        <time>2023-12-30T15:48:13.000Z</time>
      </trkpt>
      <trkpt lat="43.43285" lon="3.46049">
        <ele>64.525506</ele>
        <time>2023-12-30T15:48:14.000Z</time>
      </trkpt>
      <trkpt lat="43.43284" lon="3.46054">
        <ele>64.40022</ele>
        <time>2023-12-30T15:48:15.000Z</time>
      </trkpt>
      <trkpt lat="43.43283" lon="3.46059">
        <ele>64.267332</ele>
        <time>2023-12-30T15:48:16.000Z</time>
      </trkpt>
      <trkpt lat="43.43283" lon="3.46066">
        <ele>64.11944</ele>
        <time>2023-12-30T15:48:17.000Z</time>
      </trkpt>
      <trkpt lat="43.43282" lon="3.46073">
        <ele>63.95432</ele>
        <time>2023-12-30T15:48:18.000Z</time>
      </trkpt>
      <trkpt lat="43.43282" lon="3.4608">
        <ele>63.782134</ele>
        <time>2023-12-30T15:48:19.000Z</time>
      </trkpt>
      <trkpt lat="43.43281" lon="3.46086">
        <ele>63.590765</ele>
        <time>2023-12-30T15:48:20.000Z</time>
      </trkpt>
      <trkpt lat="43.43281" lon="3.46093">
        <ele>63.398886</ele>
        <time>2023-12-30T15:48:21.000Z</time>
      </trkpt>
      <trkpt lat="43.43281" lon="3.46099">
        <ele>63.212874</ele>
        <time>2023-12-30T15:48:22.000Z</time>
      </trkpt>
      <trkpt lat="43.4328" lon="3.46106">
        <ele>63.006201</ele>
        <time>2023-12-30T15:48:23.000Z</time>
      </trkpt>
      <trkpt lat="43.43279" lon="3.46112">
        <ele>62.810796</ele>
        <time>2023-12-30T15:48:24.000Z</time>
      </trkpt>
      <trkpt lat="43.43278" lon="3.46118">
        <ele>62.624045</ele>
        <time>2023-12-30T15:48:25.000Z</time>
      </trkpt>
      <trkpt lat="43.43278" lon="3.46125">
        <ele>62.42586</ele>
        <time>2023-12-30T15:48:26.000Z</time>
      </trkpt>
      <trkpt lat="43.43278" lon="3.46131">
        <ele>62.227675</ele>
        <time>2023-12-30T15:48:27.000Z</time>
      </trkpt>
      <trkpt lat="43.43277" lon="3.46138">
        <ele>62.028588</ele>
        <time>2023-12-30T15:48:28.000Z</time>
      </trkpt>
      <trkpt lat="43.43276" lon="3.46144">
        <ele>61.838044</ele>
        <time>2023-12-30T15:48:29.000Z</time>
      </trkpt>
      <trkpt lat="43.43275" lon="3.46151">
        <ele>61.634332</ele>
        <time>2023-12-30T15:48:30.000Z</time>
      </trkpt>
      <trkpt lat="43.43275" lon="3.46158">
        <ele>61.427659</ele>
        <time>2023-12-30T15:48:31.000Z</time>
      </trkpt>
      <trkpt lat="43.43274" lon="3.46165">
        <ele>61.216563</ele>
        <time>2023-12-30T15:48:32.000Z</time>
      </trkpt>
      <trkpt lat="43.43273" lon="3.46171">
        <ele>61.029819</ele>
        <time>2023-12-30T15:48:33.000Z</time>
      </trkpt>
      <trkpt lat="43.43273" lon="3.46176">
        <ele>60.871852</ele>
        <time>2023-12-30T15:48:34.000Z</time>
      </trkpt>
      <trkpt lat="43.43271" lon="3.46181">
        <ele>60.711011</ele>
        <time>2023-12-30T15:48:35.000Z</time>
      </trkpt>
      <trkpt lat="43.4327" lon="3.46186">
        <ele>60.553021</ele>
        <time>2023-12-30T15:48:36.000Z</time>
      </trkpt>
      <trkpt lat="43.43269" lon="3.46191">
        <ele>60.386634</ele>
        <time>2023-12-30T15:48:37.000Z</time>
      </trkpt>
      <trkpt lat="43.43266" lon="3.46197">
        <ele>60.18112</ele>
        <time>2023-12-30T15:48:38.000Z</time>
      </trkpt>
      <trkpt lat="43.43263" lon="3.46204">
        <ele>59.934104</ele>
        <time>2023-12-30T15:48:39.000Z</time>
      </trkpt>
      <trkpt lat="43.43261" lon="3.46212">
        <ele>59.689239</ele>
        <time>2023-12-30T15:48:40.000Z</time>
      </trkpt>
      <trkpt lat="43.43259" lon="3.46219">
        <ele>59.455101</ele>
        <time>2023-12-30T15:48:41.000Z</time>
      </trkpt>
      <trkpt lat="43.43258" lon="3.46227">
        <ele>59.220577</ele>
        <time>2023-12-30T15:48:42.000Z</time>
      </trkpt>
      <trkpt lat="43.43256" lon="3.46234">
        <ele>58.994675</ele>
        <time>2023-12-30T15:48:43.000Z</time>
      </trkpt>
      <trkpt lat="43.43253" lon="3.46241">
        <ele>58.752527</ele>
        <time>2023-12-30T15:48:44.000Z</time>
      </trkpt>
      <trkpt lat="43.43251" lon="3.46248">
        <ele>58.540731</ele>
        <time>2023-12-30T15:48:45.000Z</time>
      </trkpt>
      <trkpt lat="43.43249" lon="3.46254">
        <ele>58.323397</ele>
        <time>2023-12-30T15:48:46.000Z</time>
      </trkpt>
      <trkpt lat="43.43248" lon="3.46261">
        <ele>58.122861</ele>
        <time>2023-12-30T15:48:47.000Z</time>
      </trkpt>
      <trkpt lat="43.43246" lon="3.46268">
        <ele>57.902895</ele>
        <time>2023-12-30T15:48:48.000Z</time>
      </trkpt>
      <trkpt lat="43.43245" lon="3.46275">
        <ele>57.663711</ele>
        <time>2023-12-30T15:48:49.000Z</time>
      </trkpt>
      <trkpt lat="43.43243" lon="3.46283">
        <ele>57.422255</ele>
        <time>2023-12-30T15:48:50.000Z</time>
      </trkpt>
      <trkpt lat="43.43241" lon="3.46291">
        <ele>57.175424</ele>
        <time>2023-12-30T15:48:51.000Z</time>
      </trkpt>
      <trkpt lat="43.4324" lon="3.46299">
        <ele>56.932399</ele>
        <time>2023-12-30T15:48:52.000Z</time>
      </trkpt>
      <trkpt lat="43.43239" lon="3.46307">
        <ele>56.685827</ele>
        <time>2023-12-30T15:48:53.000Z</time>
      </trkpt>
      <trkpt lat="43.4324" lon="3.46316">
        <ele>56.430676</ele>
        <time>2023-12-30T15:48:54.000Z</time>
      </trkpt>
      <trkpt lat="43.43239" lon="3.46323">
        <ele>56.248519</ele>
        <time>2023-12-30T15:48:55.000Z</time>
      </trkpt>
      <trkpt lat="43.43239" lon="3.46331">
        <ele>56.11204</ele>
        <time>2023-12-30T15:48:56.000Z</time>
      </trkpt>
      <trkpt lat="43.43238" lon="3.46338">
        <ele>55.992677</ele>
        <time>2023-12-30T15:48:57.000Z</time>
      </trkpt>
      <trkpt lat="43.43236" lon="3.46346">
        <ele>55.865097</ele>
        <time>2023-12-30T15:48:58.000Z</time>
      </trkpt>
      <trkpt lat="43.43235" lon="3.46354">
        <ele>55.727937</ele>
        <time>2023-12-30T15:48:59.000Z</time>
      </trkpt>
      <trkpt lat="43.43234" lon="3.46361">
        <ele>55.60867</ele>
        <time>2023-12-30T15:49:00.000Z</time>
      </trkpt>
      <trkpt lat="43.43232" lon="3.46368">
        <ele>55.483637</ele>
        <time>2023-12-30T15:49:01.000Z</time>
      </trkpt>
      <trkpt lat="43.4323" lon="3.46374">
        <ele>55.37039</ele>
        <time>2023-12-30T15:49:02.000Z</time>
      </trkpt>
      <trkpt lat="43.43228" lon="3.46381">
        <ele>55.253973</ele>
        <time>2023-12-30T15:49:03.000Z</time>
      </trkpt>
      <trkpt lat="43.43226" lon="3.46387">
        <ele>55.140019</ele>
        <time>2023-12-30T15:49:04.000Z</time>
      </trkpt>
      <trkpt lat="43.43224" lon="3.46392">
        <ele>55.03974</ele>
        <time>2023-12-30T15:49:05.000Z</time>
      </trkpt>
      <trkpt lat="43.43221" lon="3.46396">
        <ele>54.947509</ele>
        <time>2023-12-30T15:49:06.000Z</time>
      </trkpt>
      <trkpt lat="43.43217" lon="3.46399">
        <ele>54.841163</ele>
        <time>2023-12-30T15:49:07.000Z</time>
      </trkpt>
      <trkpt lat="43.43213" lon="3.46403">
        <ele>54.730021</ele>
        <time>2023-12-30T15:49:08.000Z</time>
      </trkpt>
      <trkpt lat="43.4321" lon="3.46407">
        <ele>54.625228</ele>
        <time>2023-12-30T15:49:09.000Z</time>
      </trkpt>
      <trkpt lat="43.43207" lon="3.46412">
        <ele>54.522216</ele>
        <time>2023-12-30T15:49:10.000Z</time>
      </trkpt>
      <trkpt lat="43.43205" lon="3.46415">
        <ele>54.443239</ele>
        <time>2023-12-30T15:49:11.000Z</time>
      </trkpt>
      <trkpt lat="43.43203" lon="3.46419">
        <ele>54.371441</ele>
        <time>2023-12-30T15:49:12.000Z</time>
      </trkpt>
      <trkpt lat="43.43202" lon="3.46423">
        <ele>54.30685</ele>
        <time>2023-12-30T15:49:13.000Z</time>
      </trkpt>
      <trkpt lat="43.43202" lon="3.46426">
        <ele>54.256507</ele>
        <time>2023-12-30T15:49:14.000Z</time>
      </trkpt>
      <trkpt lat="43.43201" lon="3.4643">
        <ele>54.187666</ele>
        <time>2023-12-30T15:49:15.000Z</time>
      </trkpt>
      <trkpt lat="43.43199" lon="3.46435">
        <ele>54.092158</ele>
        <time>2023-12-30T15:49:16.000Z</time>
      </trkpt>
      <trkpt lat="43.43197" lon="3.46439">
        <ele>54.003255</ele>
        <time>2023-12-30T15:49:17.000Z</time>
      </trkpt>
      <trkpt lat="43.43196" lon="3.46444">
        <ele>53.913365</ele>
        <time>2023-12-30T15:49:18.000Z</time>
      </trkpt>
      <trkpt lat="43.43194" lon="3.46449">
        <ele>53.824013</ele>
        <time>2023-12-30T15:49:19.000Z</time>
      </trkpt>
      <trkpt lat="43.43192" lon="3.46453">
        <ele>53.738719</ele>
        <time>2023-12-30T15:49:20.000Z</time>
      </trkpt>
      <trkpt lat="43.4319" lon="3.46458">
        <ele>53.654888</ele>
        <time>2023-12-30T15:49:21.000Z</time>
      </trkpt>
      <trkpt lat="43.43189" lon="3.46462">
        <ele>53.569892</ele>
        <time>2023-12-30T15:49:22.000Z</time>
      </trkpt>
      <trkpt lat="43.43188" lon="3.46467">
        <ele>53.489554</ele>
        <time>2023-12-30T15:49:23.000Z</time>
      </trkpt>
      <trkpt lat="43.43186" lon="3.46472">
        <ele>53.398331</ele>
        <time>2023-12-30T15:49:24.000Z</time>
      </trkpt>
      <trkpt lat="43.43185" lon="3.46476">
        <ele>53.318516</ele>
        <time>2023-12-30T15:49:25.000Z</time>
      </trkpt>
      <trkpt lat="43.43183" lon="3.4648">
        <ele>53.243841</ele>
        <time>2023-12-30T15:49:26.000Z</time>
      </trkpt>
      <trkpt lat="43.43181" lon="3.46485">
        <ele>53.157483</ele>
        <time>2023-12-30T15:49:27.000Z</time>
      </trkpt>
      <trkpt lat="43.4318" lon="3.4649">
        <ele>53.065607</ele>
        <time>2023-12-30T15:49:28.000Z</time>
      </trkpt>
      <trkpt lat="43.43177" lon="3.46495">
        <ele>52.952758</ele>
        <time>2023-12-30T15:49:29.000Z</time>
      </trkpt>
      <trkpt lat="43.43175" lon="3.46501">
        <ele>52.838468</ele>
        <time>2023-12-30T15:49:30.000Z</time>
      </trkpt>
      <trkpt lat="43.43172" lon="3.46507">
        <ele>52.721565</ele>
        <time>2023-12-30T15:49:31.000Z</time>
      </trkpt>
      <trkpt lat="43.4317" lon="3.46513">
        <ele>52.617598</ele>
        <time>2023-12-30T15:49:32.000Z</time>
      </trkpt>
      <trkpt lat="43.43167" lon="3.46518">
        <ele>52.518767</ele>
        <time>2023-12-30T15:49:33.000Z</time>
      </trkpt>
      <trkpt lat="43.43165" lon="3.46522">
        <ele>52.414445</ele>
        <time>2023-12-30T15:49:34.000Z</time>
      </trkpt>
      <trkpt lat="43.43163" lon="3.46528">
        <ele>52.31705</ele>
        <time>2023-12-30T15:49:35.000Z</time>
      </trkpt>
      <trkpt lat="43.43161" lon="3.46533">
        <ele>52.217918</ele>
        <time>2023-12-30T15:49:36.000Z</time>
      </trkpt>
      <trkpt lat="43.4316" lon="3.46538">
        <ele>52.223595</ele>
        <time>2023-12-30T15:49:37.000Z</time>
      </trkpt>
      <trkpt lat="43.43159" lon="3.46544">
        <ele>52.358333</ele>
        <time>2023-12-30T15:49:38.000Z</time>
      </trkpt>
      <trkpt lat="43.43158" lon="3.46549">
        <ele>52.483241</ele>
        <time>2023-12-30T15:49:39.000Z</time>
      </trkpt>
      <trkpt lat="43.43158" lon="3.46554">
        <ele>52.616936</ele>
        <time>2023-12-30T15:49:40.000Z</time>
      </trkpt>
      <trkpt lat="43.43156" lon="3.4656">
        <ele>52.765781</ele>
        <time>2023-12-30T15:49:41.000Z</time>
      </trkpt>
      <trkpt lat="43.43154" lon="3.46566">
        <ele>52.913174</ele>
        <time>2023-12-30T15:49:42.000Z</time>
      </trkpt>
      <trkpt lat="43.43152" lon="3.46571">
        <ele>53.062704</ele>
        <time>2023-12-30T15:49:43.000Z</time>
      </trkpt>
      <trkpt lat="43.43149" lon="3.46577">
        <ele>53.219688</ele>
        <time>2023-12-30T15:49:44.000Z</time>
      </trkpt>
      <trkpt lat="43.43147" lon="3.46583">
        <ele>53.378438</ele>
        <time>2023-12-30T15:49:45.000Z</time>
      </trkpt>
      <trkpt lat="43.43145" lon="3.46589">
        <ele>53.531507</ele>
        <time>2023-12-30T15:49:46.000Z</time>
      </trkpt>
      <trkpt lat="43.43143" lon="3.46594">
        <ele>53.674699</ele>
        <time>2023-12-30T15:49:47.000Z</time>
      </trkpt>
      <trkpt lat="43.43142" lon="3.466">
        <ele>53.804889</ele>
        <time>2023-12-30T15:49:48.000Z</time>
      </trkpt>
      <trkpt lat="43.43141" lon="3.46606">
        <ele>53.948252</ele>
        <time>2023-12-30T15:49:49.000Z</time>
      </trkpt>
      <trkpt lat="43.4314" lon="3.46611">
        <ele>54.091616</ele>
        <time>2023-12-30T15:49:50.000Z</time>
      </trkpt>
      <trkpt lat="43.43138" lon="3.46617">
        <ele>54.231497</ele>
        <time>2023-12-30T15:49:51.000Z</time>
      </trkpt>
      <trkpt lat="43.43137" lon="3.46623">
        <ele>54.372471</ele>
        <time>2023-12-30T15:49:52.000Z</time>
      </trkpt>
      <trkpt lat="43.43136" lon="3.46628">
        <ele>54.500392</ele>
        <time>2023-12-30T15:49:53.000Z</time>
      </trkpt>
      <trkpt lat="43.43134" lon="3.46633">
        <ele>54.634757</ele>
        <time>2023-12-30T15:49:54.000Z</time>
      </trkpt>
      <trkpt lat="43.43133" lon="3.46638">
        <ele>54.762678</ele>
        <time>2023-12-30T15:49:55.000Z</time>
      </trkpt>
      <trkpt lat="43.43133" lon="3.46644">
        <ele>54.889909</ele>
        <time>2023-12-30T15:49:56.000Z</time>
      </trkpt>
      <trkpt lat="43.43132" lon="3.46648">
        <ele>55.003924</ele>
        <time>2023-12-30T15:49:57.000Z</time>
      </trkpt>
      <trkpt lat="43.43131" lon="3.46653">
        <ele>55.121866</ele>
        <time>2023-12-30T15:49:58.000Z</time>
      </trkpt>
      <trkpt lat="43.4313" lon="3.46657">
        <ele>55.226706</ele>
        <time>2023-12-30T15:49:59.000Z</time>
      </trkpt>
      <trkpt lat="43.43129" lon="3.46662">
        <ele>55.341742</ele>
        <time>2023-12-30T15:50:00.000Z</time>
      </trkpt>
      <trkpt lat="43.43129" lon="3.46667">
        <ele>55.456271</ele>
        <time>2023-12-30T15:50:01.000Z</time>
      </trkpt>
      <trkpt lat="43.43128" lon="3.46672">
        <ele>55.575078</ele>
        <time>2023-12-30T15:50:02.000Z</time>
      </trkpt>
      <trkpt lat="43.43128" lon="3.46677">
        <ele>55.686844</ele>
        <time>2023-12-30T15:50:03.000Z</time>
      </trkpt>
      <trkpt lat="43.43128" lon="3.46681">
        <ele>55.793574</ele>
        <time>2023-12-30T15:50:04.000Z</time>
      </trkpt>
      <trkpt lat="43.43128" lon="3.46685">
        <ele>55.892985</ele>
        <time>2023-12-30T15:50:05.000Z</time>
      </trkpt>
      <trkpt lat="43.43128" lon="3.46689">
        <ele>55.987459</ele>
        <time>2023-12-30T15:50:06.000Z</time>
      </trkpt>
      <trkpt lat="43.43128" lon="3.46694">
        <ele>56.085651</ele>
        <time>2023-12-30T15:50:07.000Z</time>
      </trkpt>
      <trkpt lat="43.43129" lon="3.46697">
        <ele>56.167141</ele>
        <time>2023-12-30T15:50:08.000Z</time>
      </trkpt>
      <trkpt lat="43.43131" lon="3.46699">
        <ele>56.251292</ele>
        <time>2023-12-30T15:50:09.000Z</time>
      </trkpt>
      <trkpt lat="43.43133" lon="3.46702">
        <ele>56.340746</ele>
        <time>2023-12-30T15:50:10.000Z</time>
      </trkpt>
      <trkpt lat="43.43135" lon="3.46704">
        <ele>56.435989</ele>
        <time>2023-12-30T15:50:11.000Z</time>
      </trkpt>
      <trkpt lat="43.43138" lon="3.46706">
        <ele>56.531087</ele>
        <time>2023-12-30T15:50:12.000Z</time>
      </trkpt>
      <trkpt lat="43.43141" lon="3.46709">
        <ele>56.64494</ele>
        <time>2023-12-30T15:50:13.000Z</time>
      </trkpt>
      <trkpt lat="43.43144" lon="3.46712">
        <ele>56.772261</ele>
        <time>2023-12-30T15:50:14.000Z</time>
      </trkpt>
      <trkpt lat="43.43148" lon="3.46715">
        <ele>56.91356</ele>
        <time>2023-12-30T15:50:15.000Z</time>
      </trkpt>
      <trkpt lat="43.43152" lon="3.46718">
        <ele>57.062434</ele>
        <time>2023-12-30T15:50:16.000Z</time>
      </trkpt>
      <trkpt lat="43.43155" lon="3.46722">
        <ele>57.201741</ele>
        <time>2023-12-30T15:50:17.000Z</time>
      </trkpt>
      <trkpt lat="43.43158" lon="3.46725">
        <ele>57.327746</ele>
        <time>2023-12-30T15:50:18.000Z</time>
      </trkpt>
      <trkpt lat="43.43161" lon="3.46728">
        <ele>57.440291</ele>
        <time>2023-12-30T15:50:19.000Z</time>
      </trkpt>
      <trkpt lat="43.43163" lon="3.4673">
        <ele>57.534325</ele>
        <time>2023-12-30T15:50:20.000Z</time>
      </trkpt>
      <trkpt lat="43.43166" lon="3.46731">
        <ele>57.620432</ele>
        <time>2023-12-30T15:50:21.000Z</time>
      </trkpt>
      <trkpt lat="43.43168" lon="3.46731">
        <ele>57.69557</ele>
        <time>2023-12-30T15:50:22.000Z</time>
      </trkpt>
      <trkpt lat="43.43171" lon="3.46731">
        <ele>57.777732</ele>
        <time>2023-12-30T15:50:23.000Z</time>
      </trkpt>
      <trkpt lat="43.43173" lon="3.4673">
        <ele>57.856919</ele>
        <time>2023-12-30T15:50:24.000Z</time>
      </trkpt>
      <trkpt lat="43.43176" lon="3.46728">
        <ele>57.943026</ele>
        <time>2023-12-30T15:50:25.000Z</time>
      </trkpt>
      <trkpt lat="43.43178" lon="3.46726">
        <ele>58.041951</ele>
        <time>2023-12-30T15:50:26.000Z</time>
      </trkpt>
      <trkpt lat="43.43181" lon="3.46724">
        <ele>58.185913</ele>
        <time>2023-12-30T15:50:27.000Z</time>
      </trkpt>
      <trkpt lat="43.43184" lon="3.46721">
        <ele>58.348513</ele>
        <time>2023-12-30T15:50:28.000Z</time>
      </trkpt>
      <trkpt lat="43.43186" lon="3.46719">
        <ele>58.48692</ele>
        <time>2023-12-30T15:50:29.000Z</time>
      </trkpt>
      <trkpt lat="43.43188" lon="3.46717">
        <ele>58.590536</ele>
        <time>2023-12-30T15:50:30.000Z</time>
      </trkpt>
      <trkpt lat="43.4319" lon="3.46716">
        <ele>58.690189</ele>
        <time>2023-12-30T15:50:31.000Z</time>
      </trkpt>
      <trkpt lat="43.43192" lon="3.46714">
        <ele>58.796165</ele>
        <time>2023-12-30T15:50:32.000Z</time>
      </trkpt>
      <trkpt lat="43.43194" lon="3.46713">
        <ele>58.902141</ele>
        <time>2023-12-30T15:50:33.000Z</time>
      </trkpt>
      <trkpt lat="43.43196" lon="3.46711">
        <ele>58.998116</ele>
        <time>2023-12-30T15:50:34.000Z</time>
      </trkpt>
      <trkpt lat="43.43198" lon="3.4671">
        <ele>59.075624</ele>
        <time>2023-12-30T15:50:35.000Z</time>
      </trkpt>
      <trkpt lat="43.43199" lon="3.46709">
        <ele>59.150279</ele>
        <time>2023-12-30T15:50:36.000Z</time>
      </trkpt>
      <trkpt lat="43.43201" lon="3.46707">
        <ele>59.23886</ele>
        <time>2023-12-30T15:50:37.000Z</time>
      </trkpt>
      <trkpt lat="43.43202" lon="3.46705">
        <ele>59.332392</ele>
        <time>2023-12-30T15:50:38.000Z</time>
      </trkpt>
      <trkpt lat="43.43204" lon="3.46703">
        <ele>59.427551</ele>
        <time>2023-12-30T15:50:39.000Z</time>
      </trkpt>
      <trkpt lat="43.43205" lon="3.46701">
        <ele>59.526568</ele>
        <time>2023-12-30T15:50:40.000Z</time>
      </trkpt>
      <trkpt lat="43.43207" lon="3.46699">
        <ele>59.626731</ele>
        <time>2023-12-30T15:50:41.000Z</time>
      </trkpt>
      <trkpt lat="43.43209" lon="3.46697">
        <ele>59.728234</ele>
        <time>2023-12-30T15:50:42.000Z</time>
      </trkpt>
      <trkpt lat="43.4321" lon="3.46695">
        <ele>59.81263</ele>
        <time>2023-12-30T15:50:43.000Z</time>
      </trkpt>
      <trkpt lat="43.43211" lon="3.46693">
        <ele>59.888608</ele>
        <time>2023-12-30T15:50:44.000Z</time>
      </trkpt>
      <trkpt lat="43.43212" lon="3.46692">
        <ele>59.953185</ele>
        <time>2023-12-30T15:50:45.000Z</time>
      </trkpt>
      <trkpt lat="43.43214" lon="3.46691">
        <ele>60.020285</ele>
        <time>2023-12-30T15:50:46.000Z</time>
      </trkpt>
      <trkpt lat="43.43215" lon="3.4669">
        <ele>60.08315</ele>
        <time>2023-12-30T15:50:47.000Z</time>
      </trkpt>
      <trkpt lat="43.43216" lon="3.46689">
        <ele>60.138513</ele>
        <time>2023-12-30T15:50:48.000Z</time>
      </trkpt>
      <trkpt lat="43.43217" lon="3.46687">
        <ele>60.200119</ele>
        <time>2023-12-30T15:50:49.000Z</time>
      </trkpt>
      <trkpt lat="43.43218" lon="3.46686">
        <ele>60.263416</ele>
        <time>2023-12-30T15:50:50.000Z</time>
      </trkpt>
      <trkpt lat="43.43218" lon="3.46685">
        <ele>60.308423</ele>
        <time>2023-12-30T15:50:51.000Z</time>
      </trkpt>
      <trkpt lat="43.43219" lon="3.46684">
        <ele>60.364542</ele>
        <time>2023-12-30T15:50:52.000Z</time>
      </trkpt>
      <trkpt lat="43.4322" lon="3.46682">
        <ele>60.440877</ele>
        <time>2023-12-30T15:50:53.000Z</time>
      </trkpt>
      <trkpt lat="43.43221" lon="3.4668">
        <ele>60.50955</ele>
        <time>2023-12-30T15:50:54.000Z</time>
      </trkpt>
      <trkpt lat="43.43222" lon="3.46679">
        <ele>60.579659</ele>
        <time>2023-12-30T15:50:55.000Z</time>
      </trkpt>
      <trkpt lat="43.43223" lon="3.46678">
        <ele>60.639079</ele>
        <time>2023-12-30T15:50:56.000Z</time>
      </trkpt>
      <trkpt lat="43.43225" lon="3.46676">
        <ele>60.715056</ele>
        <time>2023-12-30T15:50:57.000Z</time>
      </trkpt>
      <trkpt lat="43.43226" lon="3.46674">
        <ele>60.791587</ele>
        <time>2023-12-30T15:50:58.000Z</time>
      </trkpt>
      <trkpt lat="43.43227" lon="3.46673">
        <ele>60.865313</ele>
        <time>2023-12-30T15:50:59.000Z</time>
      </trkpt>
      <trkpt lat="43.43228" lon="3.46671">
        <ele>60.948929</ele>
        <time>2023-12-30T15:51:00.000Z</time>
      </trkpt>
      <trkpt lat="43.43229" lon="3.46669">
        <ele>61.02547</ele>
        <time>2023-12-30T15:51:01.000Z</time>
      </trkpt>
      <trkpt lat="43.4323" lon="3.46667">
        <ele>61.099541</ele>
        <time>2023-12-30T15:51:02.000Z</time>
      </trkpt>
      <trkpt lat="43.43231" lon="3.46666">
        <ele>61.168213</ele>
        <time>2023-12-30T15:51:03.000Z</time>
      </trkpt>
      <trkpt lat="43.43232" lon="3.46664">
        <ele>61.239383</ele>
        <time>2023-12-30T15:51:04.000Z</time>
      </trkpt>
      <trkpt lat="43.43233" lon="3.46662">
        <ele>61.308732</ele>
        <time>2023-12-30T15:51:05.000Z</time>
      </trkpt>
      <trkpt lat="43.43234" lon="3.46661">
        <ele>61.374631</ele>
        <time>2023-12-30T15:51:06.000Z</time>
      </trkpt>
      <trkpt lat="43.43235" lon="3.46659">
        <ele>61.450608</ele>
        <time>2023-12-30T15:51:07.000Z</time>
      </trkpt>
      <trkpt lat="43.43237" lon="3.46658">
        <ele>61.528714</ele>
        <time>2023-12-30T15:51:08.000Z</time>
      </trkpt>
      <trkpt lat="43.43238" lon="3.46656">
        <ele>61.59032</ele>
        <time>2023-12-30T15:51:09.000Z</time>
      </trkpt>
      <trkpt lat="43.43239" lon="3.46655">
        <ele>61.667444</ele>
        <time>2023-12-30T15:51:10.000Z</time>
      </trkpt>
      <trkpt lat="43.4324" lon="3.46653">
        <ele>61.737899</ele>
        <time>2023-12-30T15:51:11.000Z</time>
      </trkpt>
      <trkpt lat="43.43241" lon="3.46652">
        <ele>61.812724</ele>
        <time>2023-12-30T15:51:12.000Z</time>
      </trkpt>
      <trkpt lat="43.43243" lon="3.4665">
        <ele>61.897645</ele>
        <time>2023-12-30T15:51:13.000Z</time>
      </trkpt>
      <trkpt lat="43.43244" lon="3.46648">
        <ele>61.988944</ele>
        <time>2023-12-30T15:51:14.000Z</time>
      </trkpt>
      <trkpt lat="43.43245" lon="3.46646">
        <ele>62.068433</ele>
        <time>2023-12-30T15:51:15.000Z</time>
      </trkpt>
      <trkpt lat="43.43247" lon="3.46645">
        <ele>62.153355</ele>
        <time>2023-12-30T15:51:16.000Z</time>
      </trkpt>
      <trkpt lat="43.43248" lon="3.46643">
        <ele>62.231461</ele>
        <time>2023-12-30T15:51:17.000Z</time>
      </trkpt>
      <trkpt lat="43.43249" lon="3.46641">
        <ele>62.306286</ele>
        <time>2023-12-30T15:51:18.000Z</time>
      </trkpt>
      <trkpt lat="43.4325" lon="3.46639">
        <ele>62.390519</ele>
        <time>2023-12-30T15:51:19.000Z</time>
      </trkpt>
      <trkpt lat="43.43252" lon="3.46638">
        <ele>62.474135</ele>
        <time>2023-12-30T15:51:20.000Z</time>
      </trkpt>
      <trkpt lat="43.43253" lon="3.46636">
        <ele>62.559131</ele>
        <time>2023-12-30T15:51:21.000Z</time>
      </trkpt>
      <trkpt lat="43.43255" lon="3.46635">
        <ele>62.636638</ele>
        <time>2023-12-30T15:51:22.000Z</time>
      </trkpt>
      <trkpt lat="43.43257" lon="3.46633">
        <ele>62.737143</ele>
        <time>2023-12-30T15:51:23.000Z</time>
      </trkpt>
      <trkpt lat="43.43258" lon="3.46632">
        <ele>62.82759</ele>
        <time>2023-12-30T15:51:24.000Z</time>
      </trkpt>
      <trkpt lat="43.4326" lon="3.4663">
        <ele>62.907052</ele>
        <time>2023-12-30T15:51:25.000Z</time>
      </trkpt>
      <trkpt lat="43.43261" lon="3.46629">
        <ele>62.967595</ele>
        <time>2023-12-30T15:51:26.000Z</time>
      </trkpt>
      <trkpt lat="43.43261" lon="3.46628">
        <ele>63.009077</ele>
        <time>2023-12-30T15:51:27.000Z</time>
      </trkpt>
      <trkpt lat="43.43262" lon="3.46628">
        <ele>63.053991</ele>
        <time>2023-12-30T15:51:28.000Z</time>
      </trkpt>
      <trkpt lat="43.43264" lon="3.46627">
        <ele>63.118569</ele>
        <time>2023-12-30T15:51:29.000Z</time>
      </trkpt>
      <trkpt lat="43.43265" lon="3.46626">
        <ele>63.19868</ele>
        <time>2023-12-30T15:51:30.000Z</time>
      </trkpt>
      <trkpt lat="43.43267" lon="3.46625">
        <ele>63.268789</ele>
        <time>2023-12-30T15:51:31.000Z</time>
      </trkpt>
      <trkpt lat="43.43266" lon="3.46625">
        <ele>63.276688</ele>
        <time>2023-12-30T15:51:32.000Z</time>
      </trkpt>
      <trkpt lat="43.43266" lon="3.46625">
        <ele>63.276688</ele>
        <time>2023-12-30T15:51:33.000Z</time>
      </trkpt>
      <trkpt lat="43.43266" lon="3.46625">
        <ele>63.276688</ele>
        <time>2023-12-30T15:51:34.000Z</time>
      </trkpt>
      <trkpt lat="43.43266" lon="3.46625">
        <ele>63.276688</ele>
        <time>2023-12-30T15:51:35.000Z</time>
      </trkpt>
      <trkpt lat="43.43266" lon="3.46625">
        <ele>63.276688</ele>
        <time>2023-12-30T15:51:36.000Z</time>
      </trkpt>
      <trkpt lat="43.43266" lon="3.46625">
        <ele>63.276688</ele>
        <time>2023-12-30T15:51:37.000Z</time>
      </trkpt>
      <trkpt lat="43.43266" lon="3.46625">
        <ele>63.276688</ele>
        <time>2023-12-30T15:51:38.000Z</time>
      </trkpt>
      <trkpt lat="43.43266" lon="3.46625">
        <ele>63.276688</ele>
        <time>2023-12-30T15:51:39.000Z</time>
      </trkpt>
      <trkpt lat="43.43266" lon="3.46625">
        <ele>63.276688</ele>
        <time>2023-12-30T15:51:40.000Z</time>
      </trkpt>
      <trkpt lat="43.43266" lon="3.46625">
        <ele>63.276688</ele>
        <time>2023-12-30T15:51:41.000Z</time>
      </trkpt>
      <trkpt lat="43.43266" lon="3.46625">
        <ele>63.276688</ele>
        <time>2023-12-30T15:51:42.000Z</time>
      </trkpt>
      <trkpt lat="43.43266" lon="3.46625">
        <ele>63.276688</ele>
        <time>2023-12-30T15:51:43.000Z</time>
      </trkpt>
      <trkpt lat="43.43266" lon="3.46625">
        <ele>63.276688</ele>
        <time>2023-12-30T15:51:44.000Z</time>
      </trkpt>
      <trkpt lat="43.43266" lon="3.46625">
        <ele>63.276688</ele>
        <time>2023-12-30T15:51:45.000Z</time>
      </trkpt>
      <trkpt lat="43.43266" lon="3.46625">
        <ele>63.276688</ele>
        <time>2023-12-30T15:51:46.000Z</time>
      </trkpt>
      <trkpt lat="43.43266" lon="3.46625">
        <ele>63.276688</ele>
        <time>2023-12-30T15:51:47.000Z</time>
      </trkpt>
      <trkpt lat="43.43266" lon="3.46625">
        <ele>63.276688</ele>
        <time>2023-12-30T15:51:48.000Z</time>
      </trkpt>
      <trkpt lat="43.43266" lon="3.46625">
        <ele>63.276688</ele>
        <time>2023-12-30T15:51:49.000Z</time>
      </trkpt>
      <trkpt lat="43.43266" lon="3.46625">
        <ele>63.276688</ele>
        <time>2023-12-30T15:51:50.000Z</time>
      </trkpt>
      <trkpt lat="43.43266" lon="3.46625">
        <ele>63.276688</ele>
        <time>2023-12-30T15:51:51.000Z</time>
      </trkpt>
      <trkpt lat="43.43266" lon="3.46625">
        <ele>63.276688</ele>
        <time>2023-12-30T15:51:52.000Z</time>
      </trkpt>
      <trkpt lat="43.43266" lon="3.46625">
        <ele>63.276688</ele>
        <time>2023-12-30T15:51:53.000Z</time>
      </trkpt>
      <trkpt lat="43.43266" lon="3.46625">
        <ele>63.276688</ele>
        <time>2023-12-30T15:51:54.000Z</time>
      </trkpt>
      <trkpt lat="43.43266" lon="3.46625">
        <ele>63.276688</ele>
        <time>2023-12-30T15:51:55.000Z</time>
      </trkpt>
      <trkpt lat="43.43266" lon="3.46625">
        <ele>63.276688</ele>
        <time>2023-12-30T15:51:56.000Z</time>
      </trkpt>
      <trkpt lat="43.43266" lon="3.46625">
        <ele>63.276688</ele>
        <time>2023-12-30T15:51:57.000Z</time>
      </trkpt>
      <trkpt lat="43.43266" lon="3.46625">
        <ele>63.276688</ele>
        <time>2023-12-30T15:51:58.000Z</time>
      </trkpt>
      <trkpt lat="43.43266" lon="3.46625">
        <ele>63.276688</ele>
        <time>2023-12-30T15:51:59.000Z</time>
      </trkpt>
      <trkpt lat="43.43266" lon="3.46625">
        <ele>63.276688</ele>
        <time>2023-12-30T15:52:00.000Z</time>
      </trkpt>
      <trkpt lat="43.43266" lon="3.46625">
        <ele>63.276688</ele>
        <time>2023-12-30T15:52:01.000Z</time>
      </trkpt>
      <trkpt lat="43.43266" lon="3.46625">
        <ele>63.276688</ele>
        <time>2023-12-30T15:52:02.000Z</time>
      </trkpt>
      <trkpt lat="43.43266" lon="3.46625">
        <ele>63.276688</ele>
        <time>2023-12-30T15:52:03.000Z</time>
      </trkpt>
      <trkpt lat="43.43266" lon="3.46625">
        <ele>63.276688</ele>
        <time>2023-12-30T15:52:04.000Z</time>
      </trkpt>
      <trkpt lat="43.43266" lon="3.46625">
        <ele>63.276688</ele>
        <time>2023-12-30T15:52:05.000Z</time>
      </trkpt>
      <trkpt lat="43.43266" lon="3.46625">
        <ele>63.276688</ele>
        <time>2023-12-30T15:52:06.000Z</time>
      </trkpt>
      <trkpt lat="43.43266" lon="3.46625">
        <ele>63.276688</ele>
        <time>2023-12-30T15:52:07.000Z</time>
      </trkpt>
      <trkpt lat="43.43266" lon="3.46625">
        <ele>63.276688</ele>
        <time>2023-12-30T15:52:08.000Z</time>
      </trkpt>
      <trkpt lat="43.43266" lon="3.46625">
        <ele>63.276688</ele>
        <time>2023-12-30T15:52:09.000Z</time>
      </trkpt>
      <trkpt lat="43.43266" lon="3.46625">
        <ele>63.276688</ele>
        <time>2023-12-30T15:52:10.000Z</time>
      </trkpt>
      <trkpt lat="43.43266" lon="3.46625">
        <ele>63.276688</ele>
        <time>2023-12-30T15:52:11.000Z</time>
      </trkpt>
      <trkpt lat="43.43266" lon="3.46625">
        <ele>63.276688</ele>
        <time>2023-12-30T15:52:12.000Z</time>
      </trkpt>
      <trkpt lat="43.43266" lon="3.46625">
        <ele>63.276688</ele>
        <time>2023-12-30T15:52:13.000Z</time>
      </trkpt>
      <trkpt lat="43.43266" lon="3.46625">
        <ele>63.276688</ele>
        <time>2023-12-30T15:52:14.000Z</time>
      </trkpt>
      <trkpt lat="43.43266" lon="3.46625">
        <ele>63.276688</ele>
        <time>2023-12-30T15:52:15.000Z</time>
      </trkpt>
      <trkpt lat="43.43266" lon="3.46625">
        <ele>63.276688</ele>
        <time>2023-12-30T15:52:16.000Z</time>
      </trkpt>
      <trkpt lat="43.43266" lon="3.46625">
        <ele>63.276688</ele>
        <time>2023-12-30T15:52:17.000Z</time>
      </trkpt>
      <trkpt lat="43.43266" lon="3.46625">
        <ele>63.276688</ele>
        <time>2023-12-30T15:52:18.000Z</time>
      </trkpt>
      <trkpt lat="43.43266" lon="3.46625">
        <ele>63.276688</ele>
        <time>2023-12-30T15:52:19.000Z</time>
      </trkpt>
      <trkpt lat="43.43266" lon="3.46625">
        <ele>63.276688</ele>
        <time>2023-12-30T15:52:20.000Z</time>
      </trkpt>
      <trkpt lat="43.43266" lon="3.46625">
        <ele>63.276688</ele>
        <time>2023-12-30T15:52:21.000Z</time>
      </trkpt>
      <trkpt lat="43.43266" lon="3.46625">
        <ele>63.276688</ele>
        <time>2023-12-30T15:52:22.000Z</time>
      </trkpt>
      <trkpt lat="43.43266" lon="3.46625">
        <ele>63.276688</ele>
        <time>2023-12-30T15:52:23.000Z</time>
      </trkpt>
      <trkpt lat="43.43266" lon="3.46625">
        <ele>63.276688</ele>
        <time>2023-12-30T15:52:24.000Z</time>
      </trkpt>
      <trkpt lat="43.43266" lon="3.46625">
        <ele>63.276688</ele>
        <time>2023-12-30T15:52:25.000Z</time>
      </trkpt>
      <trkpt lat="43.43266" lon="3.46625">
        <ele>63.276688</ele>
        <time>2023-12-30T15:52:26.000Z</time>
      </trkpt>
      <trkpt lat="43.43266" lon="3.46625">
        <ele>63.276688</ele>
        <time>2023-12-30T15:52:27.000Z</time>
      </trkpt>
      <trkpt lat="43.43266" lon="3.46625">
        <ele>63.276688</ele>
        <time>2023-12-30T15:52:28.000Z</time>
      </trkpt>
      <trkpt lat="43.43266" lon="3.46625">
        <ele>63.276688</ele>
        <time>2023-12-30T15:52:29.000Z</time>
      </trkpt>
      <trkpt lat="43.43266" lon="3.46625">
        <ele>63.276688</ele>
        <time>2023-12-30T15:52:30.000Z</time>
      </trkpt>
      <trkpt lat="43.43266" lon="3.46625">
        <ele>63.276688</ele>
        <time>2023-12-30T15:52:31.000Z</time>
      </trkpt>
      <trkpt lat="43.43266" lon="3.46625">
        <ele>63.276688</ele>
        <time>2023-12-30T15:52:32.000Z</time>
      </trkpt>
      <trkpt lat="43.43266" lon="3.46625">
        <ele>63.276688</ele>
        <time>2023-12-30T15:52:33.000Z</time>
      </trkpt>
      <trkpt lat="43.43266" lon="3.46625">
        <ele>63.276688</ele>
        <time>2023-12-30T15:52:34.000Z</time>
      </trkpt>
      <trkpt lat="43.43266" lon="3.46625">
        <ele>63.276688</ele>
        <time>2023-12-30T15:52:35.000Z</time>
      </trkpt>
      <trkpt lat="43.43266" lon="3.46625">
        <ele>63.276688</ele>
        <time>2023-12-30T15:52:36.000Z</time>
      </trkpt>
      <trkpt lat="43.43266" lon="3.46625">
        <ele>63.276688</ele>
        <time>2023-12-30T15:52:37.000Z</time>
      </trkpt>
      <trkpt lat="43.43266" lon="3.46625">
        <ele>63.276688</ele>
        <time>2023-12-30T15:52:38.000Z</time>
      </trkpt>
      <trkpt lat="43.43266" lon="3.46625">
        <ele>63.276688</ele>
        <time>2023-12-30T15:52:39.000Z</time>
      </trkpt>
      <trkpt lat="43.43266" lon="3.46625">
        <ele>63.276688</ele>
        <time>2023-12-30T15:52:40.000Z</time>
      </trkpt>
      <trkpt lat="43.43266" lon="3.46625">
        <ele>63.276688</ele>
        <time>2023-12-30T15:52:41.000Z</time>
      </trkpt>
      <trkpt lat="43.43266" lon="3.46625">
        <ele>63.276688</ele>
        <time>2023-12-30T15:52:42.000Z</time>
      </trkpt>
      <trkpt lat="43.43266" lon="3.46625">
        <ele>63.276688</ele>
        <time>2023-12-30T15:52:43.000Z</time>
      </trkpt>
      <trkpt lat="43.43266" lon="3.46625">
        <ele>63.276688</ele>
        <time>2023-12-30T15:52:44.000Z</time>
      </trkpt>
      <trkpt lat="43.43266" lon="3.46625">
        <ele>63.276688</ele>
        <time>2023-12-30T15:52:45.000Z</time>
      </trkpt>
      <trkpt lat="43.43266" lon="3.46625">
        <ele>63.276688</ele>
        <time>2023-12-30T15:52:46.000Z</time>
      </trkpt>
      <trkpt lat="43.43266" lon="3.46625">
        <ele>63.276688</ele>
        <time>2023-12-30T15:52:47.000Z</time>
      </trkpt>
      <trkpt lat="43.43266" lon="3.46625">
        <ele>63.276688</ele>
        <time>2023-12-30T15:52:48.000Z</time>
      </trkpt>
      <trkpt lat="43.43266" lon="3.46625">
        <ele>63.276688</ele>
        <time>2023-12-30T15:52:49.000Z</time>
      </trkpt>
      <trkpt lat="43.43266" lon="3.46625">
        <ele>63.276688</ele>
        <time>2023-12-30T15:52:50.000Z</time>
      </trkpt>
      <trkpt lat="43.43266" lon="3.46625">
        <ele>63.276688</ele>
        <time>2023-12-30T15:52:51.000Z</time>
      </trkpt>
      <trkpt lat="43.43266" lon="3.46625">
        <ele>63.276688</ele>
        <time>2023-12-30T15:52:52.000Z</time>
      </trkpt>
      <trkpt lat="43.43266" lon="3.46625">
        <ele>63.276688</ele>
        <time>2023-12-30T15:52:53.000Z</time>
      </trkpt>
      <trkpt lat="43.43266" lon="3.46625">
        <ele>63.276688</ele>
        <time>2023-12-30T15:52:54.000Z</time>
      </trkpt>
      <trkpt lat="43.43266" lon="3.46625">
        <ele>63.276688</ele>
        <time>2023-12-30T15:52:55.000Z</time>
      </trkpt>
      <trkpt lat="43.43266" lon="3.46625">
        <ele>63.276688</ele>
        <time>2023-12-30T15:52:56.000Z</time>
      </trkpt>
      <trkpt lat="43.43266" lon="3.46625">
        <ele>63.276688</ele>
        <time>2023-12-30T15:52:57.000Z</time>
      </trkpt>
      <trkpt lat="43.43266" lon="3.46625">
        <ele>63.276688</ele>
        <time>2023-12-30T15:52:58.000Z</time>
      </trkpt>
      <trkpt lat="43.43266" lon="3.46625">
        <ele>63.276688</ele>
        <time>2023-12-30T15:52:59.000Z</time>
      </trkpt>
      <trkpt lat="43.43266" lon="3.46625">
        <ele>63.276688</ele>
        <time>2023-12-30T15:53:00.000Z</time>
      </trkpt>
      <trkpt lat="43.43266" lon="3.46625">
        <ele>63.276688</ele>
        <time>2023-12-30T15:53:01.000Z</time>
      </trkpt>
      <trkpt lat="43.43266" lon="3.46625">
        <ele>63.276688</ele>
        <time>2023-12-30T15:53:02.000Z</time>
      </trkpt>
      <trkpt lat="43.43266" lon="3.46625">
        <ele>63.276688</ele>
        <time>2023-12-30T15:53:03.000Z</time>
      </trkpt>
      <trkpt lat="43.43266" lon="3.46625">
        <ele>63.276688</ele>
        <time>2023-12-30T15:53:04.000Z</time>
      </trkpt>
      <trkpt lat="43.43266" lon="3.46625">
        <ele>63.276688</ele>
        <time>2023-12-30T15:53:05.000Z</time>
      </trkpt>
      <trkpt lat="43.43266" lon="3.46625">
        <ele>63.276688</ele>
        <time>2023-12-30T15:53:06.000Z</time>
      </trkpt>
      <trkpt lat="43.43266" lon="3.46625">
        <ele>63.276688</ele>
        <time>2023-12-30T15:53:07.000Z</time>
      </trkpt>
      <trkpt lat="43.43266" lon="3.46625">
        <ele>63.276688</ele>
        <time>2023-12-30T15:53:08.000Z</time>
      </trkpt>
      <trkpt lat="43.43266" lon="3.46625">
        <ele>63.276688</ele>
        <time>2023-12-30T15:53:09.000Z</time>
      </trkpt>
      <trkpt lat="43.43266" lon="3.46625">
        <ele>63.276688</ele>
        <time>2023-12-30T15:53:10.000Z</time>
      </trkpt>
      <trkpt lat="43.43266" lon="3.46625">
        <ele>63.276688</ele>
        <time>2023-12-30T15:53:11.000Z</time>
      </trkpt>
      <trkpt lat="43.43266" lon="3.46625">
        <ele>63.276688</ele>
        <time>2023-12-30T15:53:12.000Z</time>
      </trkpt>
      <trkpt lat="43.43266" lon="3.46625">
        <ele>63.276688</ele>
        <time>2023-12-30T15:53:13.000Z</time>
      </trkpt>
      <trkpt lat="43.43266" lon="3.46625">
        <ele>63.276688</ele>
        <time>2023-12-30T15:53:14.000Z</time>
      </trkpt>
      <trkpt lat="43.43266" lon="3.46625">
        <ele>63.276688</ele>
        <time>2023-12-30T15:53:15.000Z</time>
      </trkpt>
      <trkpt lat="43.43266" lon="3.46625">
        <ele>63.276688</ele>
        <time>2023-12-30T15:53:16.000Z</time>
      </trkpt>
      <trkpt lat="43.43266" lon="3.46625">
        <ele>63.276688</ele>
        <time>2023-12-30T15:53:17.000Z</time>
      </trkpt>
      <trkpt lat="43.43266" lon="3.46625">
        <ele>63.276688</ele>
        <time>2023-12-30T15:53:18.000Z</time>
      </trkpt>
      <trkpt lat="43.43266" lon="3.46625">
        <ele>63.276688</ele>
        <time>2023-12-30T15:53:19.000Z</time>
      </trkpt>
      <trkpt lat="43.43266" lon="3.46625">
        <ele>63.276688</ele>
        <time>2023-12-30T15:53:20.000Z</time>
      </trkpt>
      <trkpt lat="43.43266" lon="3.46625">
        <ele>63.276688</ele>
        <time>2023-12-30T15:53:21.000Z</time>
      </trkpt>
      <trkpt lat="43.43266" lon="3.46625">
        <ele>63.279941</ele>
        <time>2023-12-30T15:53:22.000Z</time>
      </trkpt>
      <trkpt lat="43.43266" lon="3.46625">
        <ele>63.283194</ele>
        <time>2023-12-30T15:53:23.000Z</time>
      </trkpt>
      <trkpt lat="43.43266" lon="3.46625">
        <ele>63.283194</ele>
        <time>2023-12-30T15:53:24.000Z</time>
      </trkpt>
      <trkpt lat="43.43266" lon="3.46625">
        <ele>63.286447</ele>
        <time>2023-12-30T15:53:25.000Z</time>
      </trkpt>
      <trkpt lat="43.43266" lon="3.46625">
        <ele>63.2897</ele>
        <time>2023-12-30T15:53:26.000Z</time>
      </trkpt>
      <trkpt lat="43.43266" lon="3.46625">
        <ele>63.2897</ele>
        <time>2023-12-30T15:53:27.000Z</time>
      </trkpt>
      <trkpt lat="43.43266" lon="3.46625">
        <ele>63.2897</ele>
        <time>2023-12-30T15:53:28.000Z</time>
      </trkpt>
      <trkpt lat="43.43266" lon="3.46625">
        <ele>63.2897</ele>
        <time>2023-12-30T15:53:29.000Z</time>
      </trkpt>
      <trkpt lat="43.43266" lon="3.46625">
        <ele>63.2897</ele>
        <time>2023-12-30T15:53:30.000Z</time>
      </trkpt>
      <trkpt lat="43.43266" lon="3.46625">
        <ele>63.2897</ele>
        <time>2023-12-30T15:53:31.000Z</time>
      </trkpt>
      <trkpt lat="43.43266" lon="3.46625">
        <ele>63.2897</ele>
        <time>2023-12-30T15:53:32.000Z</time>
      </trkpt>
      <trkpt lat="43.43266" lon="3.46625">
        <ele>63.2897</ele>
        <time>2023-12-30T15:53:33.000Z</time>
      </trkpt>
      <trkpt lat="43.43266" lon="3.46625">
        <ele>63.2897</ele>
        <time>2023-12-30T15:53:34.000Z</time>
      </trkpt>
      <trkpt lat="43.43266" lon="3.46625">
        <ele>63.2897</ele>
        <time>2023-12-30T15:53:35.000Z</time>
      </trkpt>
      <trkpt lat="43.43266" lon="3.46625">
        <ele>63.2897</ele>
        <time>2023-12-30T15:53:36.000Z</time>
      </trkpt>
      <trkpt lat="43.43266" lon="3.46625">
        <ele>63.2897</ele>
        <time>2023-12-30T15:53:37.000Z</time>
      </trkpt>
      <trkpt lat="43.43266" lon="3.46625">
        <ele>63.2897</ele>
        <time>2023-12-30T15:53:38.000Z</time>
      </trkpt>
      <trkpt lat="43.43266" lon="3.46625">
        <ele>63.2897</ele>
        <time>2023-12-30T15:53:39.000Z</time>
      </trkpt>
      <trkpt lat="43.43266" lon="3.46625">
        <ele>63.2897</ele>
        <time>2023-12-30T15:53:40.000Z</time>
      </trkpt>
      <trkpt lat="43.43266" lon="3.46625">
        <ele>63.2897</ele>
        <time>2023-12-30T15:53:41.000Z</time>
      </trkpt>
      <trkpt lat="43.43266" lon="3.46625">
        <ele>63.2897</ele>
        <time>2023-12-30T15:53:42.000Z</time>
      </trkpt>
      <trkpt lat="43.43266" lon="3.46625">
        <ele>63.2897</ele>
        <time>2023-12-30T15:53:43.000Z</time>
      </trkpt>
      <trkpt lat="43.43266" lon="3.46625">
        <ele>63.2897</ele>
        <time>2023-12-30T15:53:44.000Z</time>
      </trkpt>
      <trkpt lat="43.43266" lon="3.46625">
        <ele>63.2897</ele>
        <time>2023-12-30T15:53:45.000Z</time>
      </trkpt>
      <trkpt lat="43.43266" lon="3.46625">
        <ele>63.2897</ele>
        <time>2023-12-30T15:53:46.000Z</time>
      </trkpt>
      <trkpt lat="43.43266" lon="3.46625">
        <ele>63.2897</ele>
        <time>2023-12-30T15:53:47.000Z</time>
      </trkpt>
      <trkpt lat="43.43266" lon="3.46625">
        <ele>63.2897</ele>
        <time>2023-12-30T15:53:48.000Z</time>
      </trkpt>
      <trkpt lat="43.43266" lon="3.46625">
        <ele>63.2897</ele>
        <time>2023-12-30T15:53:49.000Z</time>
      </trkpt>
      <trkpt lat="43.43266" lon="3.46625">
        <ele>63.2897</ele>
        <time>2023-12-30T15:53:50.000Z</time>
      </trkpt>
      <trkpt lat="43.43266" lon="3.46625">
        <ele>63.2897</ele>
        <time>2023-12-30T15:53:51.000Z</time>
      </trkpt>
      <trkpt lat="43.43266" lon="3.46625">
        <ele>63.2897</ele>
        <time>2023-12-30T15:53:52.000Z</time>
      </trkpt>
      <trkpt lat="43.43266" lon="3.46625">
        <ele>63.2897</ele>
        <time>2023-12-30T15:53:53.000Z</time>
      </trkpt>
      <trkpt lat="43.43266" lon="3.46625">
        <ele>63.292954</ele>
        <time>2023-12-30T15:53:54.000Z</time>
      </trkpt>
      <trkpt lat="43.43266" lon="3.46625">
        <ele>63.292954</ele>
        <time>2023-12-30T15:53:55.000Z</time>
      </trkpt>
      <trkpt lat="43.43266" lon="3.46625">
        <ele>63.292954</ele>
        <time>2023-12-30T15:53:56.000Z</time>
      </trkpt>
      <trkpt lat="43.43266" lon="3.46625">
        <ele>63.292954</ele>
        <time>2023-12-30T15:53:57.000Z</time>
      </trkpt>
      <trkpt lat="43.43266" lon="3.46625">
        <ele>63.296207</ele>
        <time>2023-12-30T15:53:58.000Z</time>
      </trkpt>
      <trkpt lat="43.43266" lon="3.46625">
        <ele>63.29946</ele>
        <time>2023-12-30T15:53:59.000Z</time>
      </trkpt>
      <trkpt lat="43.43266" lon="3.46625">
        <ele>63.29946</ele>
        <time>2023-12-30T15:54:00.000Z</time>
      </trkpt>
      <trkpt lat="43.43266" lon="3.46625">
        <ele>63.29946</ele>
        <time>2023-12-30T15:54:01.000Z</time>
      </trkpt>
      <trkpt lat="43.43266" lon="3.46625">
        <ele>63.29946</ele>
        <time>2023-12-30T15:54:02.000Z</time>
      </trkpt>
      <trkpt lat="43.43266" lon="3.46625">
        <ele>63.29946</ele>
        <time>2023-12-30T15:54:03.000Z</time>
      </trkpt>
      <trkpt lat="43.43266" lon="3.46625">
        <ele>63.29946</ele>
        <time>2023-12-30T15:54:04.000Z</time>
      </trkpt>
      <trkpt lat="43.43267" lon="3.46625">
        <ele>63.303939</ele>
        <time>2023-12-30T15:54:05.000Z</time>
      </trkpt>
      <trkpt lat="43.43267" lon="3.46625">
        <ele>63.303939</ele>
        <time>2023-12-30T15:54:06.000Z</time>
      </trkpt>
      <trkpt lat="43.43267" lon="3.46625">
        <ele>63.303939</ele>
        <time>2023-12-30T15:54:07.000Z</time>
      </trkpt>
      <trkpt lat="43.43267" lon="3.46625">
        <ele>63.310445</ele>
        <time>2023-12-30T15:54:08.000Z</time>
      </trkpt>
      <trkpt lat="43.43267" lon="3.46626">
        <ele>63.329152</ele>
        <time>2023-12-30T15:54:09.000Z</time>
      </trkpt>
      <trkpt lat="43.43267" lon="3.46626">
        <ele>63.333632</ele>
        <time>2023-12-30T15:54:10.000Z</time>
      </trkpt>
      <trkpt lat="43.43266" lon="3.46626">
        <ele>63.365048</ele>
        <time>2023-12-30T15:54:11.000Z</time>
      </trkpt>
      <trkpt lat="43.43266" lon="3.46626">
        <ele>63.378875</ele>
        <time>2023-12-30T15:54:12.000Z</time>
      </trkpt>
      <trkpt lat="43.43265" lon="3.46626">
        <ele>63.419714</ele>
        <time>2023-12-30T15:54:13.000Z</time>
      </trkpt>
      <trkpt lat="43.43264" lon="3.46626">
        <ele>63.442112</ele>
        <time>2023-12-30T15:54:14.000Z</time>
      </trkpt>
      <trkpt lat="43.43264" lon="3.46626">
        <ele>63.45594</ele>
        <time>2023-12-30T15:54:15.000Z</time>
      </trkpt>
      <trkpt lat="43.43265" lon="3.46626">
        <ele>63.474151</ele>
        <time>2023-12-30T15:54:16.000Z</time>
      </trkpt>
      <trkpt lat="43.43264" lon="3.46626">
        <ele>63.492363</ele>
        <time>2023-12-30T15:54:17.000Z</time>
      </trkpt>
      <trkpt lat="43.43264" lon="3.46626">
        <ele>63.509234</ele>
        <time>2023-12-30T15:54:18.000Z</time>
      </trkpt>
      <trkpt lat="43.43263" lon="3.46627">
        <ele>63.546647</ele>
        <time>2023-12-30T15:54:19.000Z</time>
      </trkpt>
      <trkpt lat="43.43263" lon="3.46627">
        <ele>63.564858</ele>
        <time>2023-12-30T15:54:20.000Z</time>
      </trkpt>
      <trkpt lat="43.43263" lon="3.46627">
        <ele>63.564858</ele>
        <time>2023-12-30T15:54:21.000Z</time>
      </trkpt>
      <trkpt lat="43.43263" lon="3.46627">
        <ele>63.564858</ele>
        <time>2023-12-30T15:54:22.000Z</time>
      </trkpt>
      <trkpt lat="43.43263" lon="3.46627">
        <ele>63.564858</ele>
        <time>2023-12-30T15:54:23.000Z</time>
      </trkpt>
      <trkpt lat="43.43263" lon="3.46627">
        <ele>63.564858</ele>
        <time>2023-12-30T15:54:24.000Z</time>
      </trkpt>
      <trkpt lat="43.43263" lon="3.46627">
        <ele>63.564858</ele>
        <time>2023-12-30T15:54:25.000Z</time>
      </trkpt>
      <trkpt lat="43.43263" lon="3.46627">
        <ele>63.568111</ele>
        <time>2023-12-30T15:54:26.000Z</time>
      </trkpt>
      <trkpt lat="43.43263" lon="3.46627">
        <ele>63.568111</ele>
        <time>2023-12-30T15:54:27.000Z</time>
      </trkpt>
      <trkpt lat="43.43263" lon="3.46627">
        <ele>63.568111</ele>
        <time>2023-12-30T15:54:28.000Z</time>
      </trkpt>
      <trkpt lat="43.43263" lon="3.46627">
        <ele>63.568111</ele>
        <time>2023-12-30T15:54:29.000Z</time>
      </trkpt>
      <trkpt lat="43.43263" lon="3.46627">
        <ele>63.571364</ele>
        <time>2023-12-30T15:54:30.000Z</time>
      </trkpt>
      <trkpt lat="43.43263" lon="3.46627">
        <ele>63.571364</ele>
        <time>2023-12-30T15:54:31.000Z</time>
      </trkpt>
      <trkpt lat="43.43263" lon="3.46627">
        <ele>63.571364</ele>
        <time>2023-12-30T15:54:32.000Z</time>
      </trkpt>
      <trkpt lat="43.43263" lon="3.46627">
        <ele>63.574618</ele>
        <time>2023-12-30T15:54:33.000Z</time>
      </trkpt>
      <trkpt lat="43.43263" lon="3.46627">
        <ele>63.574618</ele>
        <time>2023-12-30T15:54:34.000Z</time>
      </trkpt>
      <trkpt lat="43.43263" lon="3.46627">
        <ele>63.577871</ele>
        <time>2023-12-30T15:54:35.000Z</time>
      </trkpt>
      <trkpt lat="43.43263" lon="3.46627">
        <ele>63.581124</ele>
        <time>2023-12-30T15:54:36.000Z</time>
      </trkpt>
      <trkpt lat="43.43263" lon="3.46627">
        <ele>63.581124</ele>
        <time>2023-12-30T15:54:37.000Z</time>
      </trkpt>
      <trkpt lat="43.43263" lon="3.46627">
        <ele>63.581124</ele>
        <time>2023-12-30T15:54:38.000Z</time>
      </trkpt>
      <trkpt lat="43.43263" lon="3.46627">
        <ele>63.581124</ele>
        <time>2023-12-30T15:54:39.000Z</time>
      </trkpt>
      <trkpt lat="43.43263" lon="3.46627">
        <ele>63.581124</ele>
        <time>2023-12-30T15:54:40.000Z</time>
      </trkpt>
      <trkpt lat="43.43263" lon="3.46627">
        <ele>63.584377</ele>
        <time>2023-12-30T15:54:41.000Z</time>
      </trkpt>
      <trkpt lat="43.43263" lon="3.46627">
        <ele>63.584377</ele>
        <time>2023-12-30T15:54:42.000Z</time>
      </trkpt>
      <trkpt lat="43.43263" lon="3.46627">
        <ele>63.584377</ele>
        <time>2023-12-30T15:54:43.000Z</time>
      </trkpt>
      <trkpt lat="43.43263" lon="3.46627">
        <ele>63.584377</ele>
        <time>2023-12-30T15:54:44.000Z</time>
      </trkpt>
      <trkpt lat="43.43263" lon="3.46627">
        <ele>63.58763</ele>
        <time>2023-12-30T15:54:45.000Z</time>
      </trkpt>
      <trkpt lat="43.43263" lon="3.46627">
        <ele>63.58763</ele>
        <time>2023-12-30T15:54:46.000Z</time>
      </trkpt>
      <trkpt lat="43.43263" lon="3.46627">
        <ele>63.590883</ele>
        <time>2023-12-30T15:54:47.000Z</time>
      </trkpt>
      <trkpt lat="43.43263" lon="3.46627">
        <ele>63.590883</ele>
        <time>2023-12-30T15:54:48.000Z</time>
      </trkpt>
      <trkpt lat="43.43263" lon="3.46627">
        <ele>63.594136</ele>
        <time>2023-12-30T15:54:49.000Z</time>
      </trkpt>
      <trkpt lat="43.43263" lon="3.46627">
        <ele>63.594136</ele>
        <time>2023-12-30T15:54:50.000Z</time>
      </trkpt>
      <trkpt lat="43.43263" lon="3.46627">
        <ele>63.597389</ele>
        <time>2023-12-30T15:54:51.000Z</time>
      </trkpt>
      <trkpt lat="43.43263" lon="3.46627">
        <ele>63.597389</ele>
        <time>2023-12-30T15:54:52.000Z</time>
      </trkpt>
      <trkpt lat="43.43263" lon="3.46627">
        <ele>63.600642</ele>
        <time>2023-12-30T15:54:53.000Z</time>
      </trkpt>
      <trkpt lat="43.43263" lon="3.46627">
        <ele>63.603895</ele>
        <time>2023-12-30T15:54:54.000Z</time>
      </trkpt>
      <trkpt lat="43.43263" lon="3.46627">
        <ele>63.603895</ele>
        <time>2023-12-30T15:54:55.000Z</time>
      </trkpt>
      <trkpt lat="43.43263" lon="3.46627">
        <ele>63.603895</ele>
        <time>2023-12-30T15:54:56.000Z</time>
      </trkpt>
      <trkpt lat="43.43263" lon="3.46627">
        <ele>63.607148</ele>
        <time>2023-12-30T15:54:57.000Z</time>
      </trkpt>
      <trkpt lat="43.43263" lon="3.46627">
        <ele>63.610401</ele>
        <time>2023-12-30T15:54:58.000Z</time>
      </trkpt>
      <trkpt lat="43.43263" lon="3.46627">
        <ele>63.610401</ele>
        <time>2023-12-30T15:54:59.000Z</time>
      </trkpt>
      <trkpt lat="43.43263" lon="3.46627">
        <ele>63.613654</ele>
        <time>2023-12-30T15:55:00.000Z</time>
      </trkpt>
      <trkpt lat="43.43263" lon="3.46627">
        <ele>63.613654</ele>
        <time>2023-12-30T15:55:01.000Z</time>
      </trkpt>
      <trkpt lat="43.43263" lon="3.46627">
        <ele>63.613654</ele>
        <time>2023-12-30T15:55:02.000Z</time>
      </trkpt>
      <trkpt lat="43.43263" lon="3.46627">
        <ele>63.616908</ele>
        <time>2023-12-30T15:55:03.000Z</time>
      </trkpt>
      <trkpt lat="43.43263" lon="3.46627">
        <ele>63.616908</ele>
        <time>2023-12-30T15:55:04.000Z</time>
      </trkpt>
      <trkpt lat="43.43263" lon="3.46627">
        <ele>63.620161</ele>
        <time>2023-12-30T15:55:05.000Z</time>
      </trkpt>
      <trkpt lat="43.43263" lon="3.46627">
        <ele>63.620161</ele>
        <time>2023-12-30T15:55:06.000Z</time>
      </trkpt>
      <trkpt lat="43.43263" lon="3.46627">
        <ele>63.623414</ele>
        <time>2023-12-30T15:55:07.000Z</time>
      </trkpt>
      <trkpt lat="43.43263" lon="3.46627">
        <ele>63.623414</ele>
        <time>2023-12-30T15:55:08.000Z</time>
      </trkpt>
      <trkpt lat="43.43263" lon="3.46627">
        <ele>63.626667</ele>
        <time>2023-12-30T15:55:09.000Z</time>
      </trkpt>
      <trkpt lat="43.43263" lon="3.46627">
        <ele>63.62992</ele>
        <time>2023-12-30T15:55:10.000Z</time>
      </trkpt>
      <trkpt lat="43.43263" lon="3.46627">
        <ele>63.62992</ele>
        <time>2023-12-30T15:55:11.000Z</time>
      </trkpt>
      <trkpt lat="43.43263" lon="3.46627">
        <ele>63.633173</ele>
        <time>2023-12-30T15:55:12.000Z</time>
      </trkpt>
      <trkpt lat="43.43263" lon="3.46627">
        <ele>63.636426</ele>
        <time>2023-12-30T15:55:13.000Z</time>
      </trkpt>
      <trkpt lat="43.43263" lon="3.46627">
        <ele>63.636426</ele>
        <time>2023-12-30T15:55:14.000Z</time>
      </trkpt>
      <trkpt lat="43.43263" lon="3.46627">
        <ele>63.636426</ele>
        <time>2023-12-30T15:55:15.000Z</time>
      </trkpt>
      <trkpt lat="43.43263" lon="3.46627">
        <ele>63.636426</ele>
        <time>2023-12-30T15:55:16.000Z</time>
      </trkpt>
      <trkpt lat="43.43263" lon="3.46627">
        <ele>63.639679</ele>
        <time>2023-12-30T15:55:17.000Z</time>
      </trkpt>
      <trkpt lat="43.43263" lon="3.46627">
        <ele>63.642932</ele>
        <time>2023-12-30T15:55:18.000Z</time>
      </trkpt>
      <trkpt lat="43.43263" lon="3.46627">
        <ele>63.642932</ele>
        <time>2023-12-30T15:55:19.000Z</time>
      </trkpt>
      <trkpt lat="43.43263" lon="3.46627">
        <ele>63.646185</ele>
        <time>2023-12-30T15:55:20.000Z</time>
      </trkpt>
      <trkpt lat="43.43263" lon="3.46627">
        <ele>63.649438</ele>
        <time>2023-12-30T15:55:21.000Z</time>
      </trkpt>
      <trkpt lat="43.43263" lon="3.46627">
        <ele>63.652691</ele>
        <time>2023-12-30T15:55:22.000Z</time>
      </trkpt>
      <trkpt lat="43.43263" lon="3.46627">
        <ele>63.655944</ele>
        <time>2023-12-30T15:55:23.000Z</time>
      </trkpt>
      <trkpt lat="43.43263" lon="3.46627">
        <ele>63.659198</ele>
        <time>2023-12-30T15:55:24.000Z</time>
      </trkpt>
      <trkpt lat="43.43263" lon="3.46627">
        <ele>63.664734</ele>
        <time>2023-12-30T15:55:25.000Z</time>
      </trkpt>
      <trkpt lat="43.43264" lon="3.46626">
        <ele>63.71101</ele>
        <time>2023-12-30T15:55:26.000Z</time>
      </trkpt>
      <trkpt lat="43.43264" lon="3.46626">
        <ele>63.734708</ele>
        <time>2023-12-30T15:55:27.000Z</time>
      </trkpt>
      <trkpt lat="43.43264" lon="3.46625">
        <ele>63.741214</ele>
        <time>2023-12-30T15:55:28.000Z</time>
      </trkpt>
      <trkpt lat="43.43264" lon="3.46625">
        <ele>63.744467</ele>
        <time>2023-12-30T15:55:29.000Z</time>
      </trkpt>
      <trkpt lat="43.43264" lon="3.46625">
        <ele>63.744467</ele>
        <time>2023-12-30T15:55:30.000Z</time>
      </trkpt>
      <trkpt lat="43.43264" lon="3.46625">
        <ele>63.74772</ele>
        <time>2023-12-30T15:55:31.000Z</time>
      </trkpt>
      <trkpt lat="43.43264" lon="3.46625">
        <ele>63.750973</ele>
        <time>2023-12-30T15:55:32.000Z</time>
      </trkpt>
      <trkpt lat="43.43264" lon="3.46625">
        <ele>63.750973</ele>
        <time>2023-12-30T15:55:33.000Z</time>
      </trkpt>
      <trkpt lat="43.43264" lon="3.46625">
        <ele>63.760505</ele>
        <time>2023-12-30T15:55:34.000Z</time>
      </trkpt>
      <trkpt lat="43.43266" lon="3.46625">
        <ele>63.842763</ele>
        <time>2023-12-30T15:55:35.000Z</time>
      </trkpt>
      <trkpt lat="43.43268" lon="3.46624">
        <ele>63.903228</ele>
        <time>2023-12-30T15:55:36.000Z</time>
      </trkpt>
      <trkpt lat="43.4327" lon="3.46623">
        <ele>63.999704</ele>
        <time>2023-12-30T15:55:37.000Z</time>
      </trkpt>
      <trkpt lat="43.43272" lon="3.46622">
        <ele>64.096179</ele>
        <time>2023-12-30T15:55:38.000Z</time>
      </trkpt>
      <trkpt lat="43.43274" lon="3.46621">
        <ele>64.193908</ele>
        <time>2023-12-30T15:55:39.000Z</time>
      </trkpt>
      <trkpt lat="43.43276" lon="3.4662">
        <ele>64.29705</ele>
        <time>2023-12-30T15:55:40.000Z</time>
      </trkpt>
      <trkpt lat="43.43278" lon="3.46618">
        <ele>64.415651</ele>
        <time>2023-12-30T15:55:41.000Z</time>
      </trkpt>
      <trkpt lat="43.43281" lon="3.46617">
        <ele>64.532412</ele>
        <time>2023-12-30T15:55:42.000Z</time>
      </trkpt>
      <trkpt lat="43.43283" lon="3.46615">
        <ele>64.661346</ele>
        <time>2023-12-30T15:55:43.000Z</time>
      </trkpt>
      <trkpt lat="43.43286" lon="3.46614">
        <ele>64.805464</ele>
        <time>2023-12-30T15:55:44.000Z</time>
      </trkpt>
      <trkpt lat="43.43289" lon="3.46612">
        <ele>64.950756</ele>
        <time>2023-12-30T15:55:45.000Z</time>
      </trkpt>
      <trkpt lat="43.43292" lon="3.4661">
        <ele>65.080275</ele>
        <time>2023-12-30T15:55:46.000Z</time>
      </trkpt>
      <trkpt lat="43.43294" lon="3.46607">
        <ele>65.233401</ele>
        <time>2023-12-30T15:55:47.000Z</time>
      </trkpt>
      <trkpt lat="43.43297" lon="3.46604">
        <ele>65.392981</ele>
        <time>2023-12-30T15:55:48.000Z</time>
      </trkpt>
      <trkpt lat="43.433" lon="3.466">
        <ele>65.550383</ele>
        <time>2023-12-30T15:55:49.000Z</time>
      </trkpt>
      <trkpt lat="43.43302" lon="3.46597">
        <ele>65.711003</ele>
        <time>2023-12-30T15:55:50.000Z</time>
      </trkpt>
      <trkpt lat="43.43304" lon="3.46594">
        <ele>65.859798</ele>
        <time>2023-12-30T15:55:51.000Z</time>
      </trkpt>
      <trkpt lat="43.43307" lon="3.4659">
        <ele>66.017892</ele>
        <time>2023-12-30T15:55:52.000Z</time>
      </trkpt>
      <trkpt lat="43.43308" lon="3.46586">
        <ele>66.054837</ele>
        <time>2023-12-30T15:55:53.000Z</time>
      </trkpt>
      <trkpt lat="43.4331" lon="3.46583">
        <ele>66.015828</ele>
        <time>2023-12-30T15:55:54.000Z</time>
      </trkpt>
      <trkpt lat="43.43312" lon="3.4658">
        <ele>65.976818</ele>
        <time>2023-12-30T15:55:55.000Z</time>
      </trkpt>
      <trkpt lat="43.43315" lon="3.46577">
        <ele>65.934773</ele>
        <time>2023-12-30T15:55:56.000Z</time>
      </trkpt>
      <trkpt lat="43.43317" lon="3.46574">
        <ele>65.893649</ele>
        <time>2023-12-30T15:55:57.000Z</time>
      </trkpt>
      <trkpt lat="43.4332" lon="3.46571">
        <ele>65.856073</ele>
        <time>2023-12-30T15:55:58.000Z</time>
      </trkpt>
      <trkpt lat="43.43322" lon="3.46569">
        <ele>65.820425</ele>
        <time>2023-12-30T15:55:59.000Z</time>
      </trkpt>
      <trkpt lat="43.43324" lon="3.46566">
        <ele>65.785732</ele>
        <time>2023-12-30T15:56:00.000Z</time>
      </trkpt>
      <trkpt lat="43.43326" lon="3.46564">
        <ele>65.751358</ele>
        <time>2023-12-30T15:56:01.000Z</time>
      </trkpt>
      <trkpt lat="43.43328" lon="3.46561">
        <ele>65.71591</ele>
        <time>2023-12-30T15:56:02.000Z</time>
      </trkpt>
      <trkpt lat="43.4333" lon="3.46558">
        <ele>65.677593</ele>
        <time>2023-12-30T15:56:03.000Z</time>
      </trkpt>
      <trkpt lat="43.43332" lon="3.46554">
        <ele>65.637771</ele>
        <time>2023-12-30T15:56:04.000Z</time>
      </trkpt>
      <trkpt lat="43.43334" lon="3.46552">
        <ele>65.602992</ele>
        <time>2023-12-30T15:56:05.000Z</time>
      </trkpt>
      <trkpt lat="43.43336" lon="3.46549">
        <ele>65.570015</ele>
        <time>2023-12-30T15:56:06.000Z</time>
      </trkpt>
      <trkpt lat="43.43338" lon="3.46548">
        <ele>65.543239</ele>
        <time>2023-12-30T15:56:07.000Z</time>
      </trkpt>
      <trkpt lat="43.4334" lon="3.46546">
        <ele>65.515961</ele>
        <time>2023-12-30T15:56:08.000Z</time>
      </trkpt>
      <trkpt lat="43.43341" lon="3.46545">
        <ele>65.497351</ele>
        <time>2023-12-30T15:56:09.000Z</time>
      </trkpt>
      <trkpt lat="43.43343" lon="3.46544">
        <ele>65.474581</ele>
        <time>2023-12-30T15:56:10.000Z</time>
      </trkpt>
      <trkpt lat="43.43345" lon="3.46543">
        <ele>65.44548</ele>
        <time>2023-12-30T15:56:11.000Z</time>
      </trkpt>
      <trkpt lat="43.43348" lon="3.46543">
        <ele>65.412935</ele>
        <time>2023-12-30T15:56:12.000Z</time>
      </trkpt>
      <trkpt lat="43.4335" lon="3.46543">
        <ele>65.386627</ele>
        <time>2023-12-30T15:56:13.000Z</time>
      </trkpt>
      <trkpt lat="43.43352" lon="3.46542">
        <ele>65.35529</ele>
        <time>2023-12-30T15:56:14.000Z</time>
      </trkpt>
      <trkpt lat="43.43354" lon="3.46541">
        <ele>65.326039</ele>
        <time>2023-12-30T15:56:15.000Z</time>
      </trkpt>
      <trkpt lat="43.43356" lon="3.4654">
        <ele>65.298009</ele>
        <time>2023-12-30T15:56:16.000Z</time>
      </trkpt>
      <trkpt lat="43.43358" lon="3.46539">
        <ele>65.271417</ele>
        <time>2023-12-30T15:56:17.000Z</time>
      </trkpt>
      <trkpt lat="43.4336" lon="3.46538">
        <ele>65.246306</ele>
        <time>2023-12-30T15:56:18.000Z</time>
      </trkpt>
      <trkpt lat="43.43362" lon="3.46537">
        <ele>65.217988</ele>
        <time>2023-12-30T15:56:19.000Z</time>
      </trkpt>
      <trkpt lat="43.43364" lon="3.46534">
        <ele>65.185997</ele>
        <time>2023-12-30T15:56:20.000Z</time>
      </trkpt>
      <trkpt lat="43.43367" lon="3.46533">
        <ele>65.154192</ele>
        <time>2023-12-30T15:56:21.000Z</time>
      </trkpt>
      <trkpt lat="43.43369" lon="3.46531">
        <ele>65.116053</ele>
        <time>2023-12-30T15:56:22.000Z</time>
      </trkpt>
      <trkpt lat="43.43371" lon="3.46529">
        <ele>65.081564</ele>
        <time>2023-12-30T15:56:23.000Z</time>
      </trkpt>
      <trkpt lat="43.43374" lon="3.46526">
        <ele>65.04803</ele>
        <time>2023-12-30T15:56:24.000Z</time>
      </trkpt>
      <trkpt lat="43.43376" lon="3.46524">
        <ele>65.014034</ele>
        <time>2023-12-30T15:56:25.000Z</time>
      </trkpt>
      <trkpt lat="43.43379" lon="3.46522">
        <ele>64.967701</ele>
        <time>2023-12-30T15:56:26.000Z</time>
      </trkpt>
      <trkpt lat="43.43382" lon="3.46518">
        <ele>64.92351</ele>
        <time>2023-12-30T15:56:27.000Z</time>
      </trkpt>
      <trkpt lat="43.43385" lon="3.46515">
        <ele>64.873178</ele>
        <time>2023-12-30T15:56:28.000Z</time>
      </trkpt>
      <trkpt lat="43.43389" lon="3.46511">
        <ele>64.811926</ele>
        <time>2023-12-30T15:56:29.000Z</time>
      </trkpt>
      <trkpt lat="43.43393" lon="3.46507">
        <ele>64.749649</ele>
        <time>2023-12-30T15:56:30.000Z</time>
      </trkpt>
      <trkpt lat="43.43397" lon="3.46503">
        <ele>64.683198</ele>
        <time>2023-12-30T15:56:31.000Z</time>
      </trkpt>
      <trkpt lat="43.43402" lon="3.465">
        <ele>64.615393</ele>
        <time>2023-12-30T15:56:32.000Z</time>
      </trkpt>
      <trkpt lat="43.43407" lon="3.46498">
        <ele>64.547668</ele>
        <time>2023-12-30T15:56:33.000Z</time>
      </trkpt>
      <trkpt lat="43.43413" lon="3.46496">
        <ele>64.475587</ele>
        <time>2023-12-30T15:56:34.000Z</time>
      </trkpt>
      <trkpt lat="43.43419" lon="3.46495">
        <ele>64.400157</ele>
        <time>2023-12-30T15:56:35.000Z</time>
      </trkpt>
      <trkpt lat="43.43425" lon="3.46494">
        <ele>64.325748</ele>
        <time>2023-12-30T15:56:36.000Z</time>
      </trkpt>
      <trkpt lat="43.43431" lon="3.46495">
        <ele>64.251654</ele>
        <time>2023-12-30T15:56:37.000Z</time>
      </trkpt>
      <trkpt lat="43.43436" lon="3.46498">
        <ele>64.175391</ele>
        <time>2023-12-30T15:56:38.000Z</time>
      </trkpt>
      <trkpt lat="43.43441" lon="3.46503">
        <ele>64.102957</ele>
        <time>2023-12-30T15:56:39.000Z</time>
      </trkpt>
      <trkpt lat="43.43443" lon="3.4651">
        <ele>64.033416</ele>
        <time>2023-12-30T15:56:40.000Z</time>
      </trkpt>
      <trkpt lat="43.43445" lon="3.46517">
        <ele>63.965949</ele>
        <time>2023-12-30T15:56:41.000Z</time>
      </trkpt>
      <trkpt lat="43.43446" lon="3.46525">
        <ele>63.89657</ele>
        <time>2023-12-30T15:56:42.000Z</time>
      </trkpt>
      <trkpt lat="43.43447" lon="3.46533">
        <ele>63.801583</ele>
        <time>2023-12-30T15:56:43.000Z</time>
      </trkpt>
      <trkpt lat="43.43448" lon="3.46541">
        <ele>63.510921</ele>
        <time>2023-12-30T15:56:44.000Z</time>
      </trkpt>
      <trkpt lat="43.43448" lon="3.4655">
        <ele>63.212793</ele>
        <time>2023-12-30T15:56:45.000Z</time>
      </trkpt>
      <trkpt lat="43.43449" lon="3.46559">
        <ele>62.893585</ele>
        <time>2023-12-30T15:56:46.000Z</time>
      </trkpt>
      <trkpt lat="43.4345" lon="3.46568">
        <ele>62.570956</ele>
        <time>2023-12-30T15:56:47.000Z</time>
      </trkpt>
      <trkpt lat="43.43451" lon="3.46578">
        <ele>62.220943</ele>
        <time>2023-12-30T15:56:48.000Z</time>
      </trkpt>
      <trkpt lat="43.43452" lon="3.46588">
        <ele>61.873804</ele>
        <time>2023-12-30T15:56:49.000Z</time>
      </trkpt>
      <trkpt lat="43.43452" lon="3.46598">
        <ele>61.523791</ele>
        <time>2023-12-30T15:56:50.000Z</time>
      </trkpt>
      <trkpt lat="43.43453" lon="3.46609">
        <ele>61.167402</ele>
        <time>2023-12-30T15:56:51.000Z</time>
      </trkpt>
      <trkpt lat="43.43454" lon="3.46619">
        <ele>60.814443</ele>
        <time>2023-12-30T15:56:52.000Z</time>
      </trkpt>
      <trkpt lat="43.43455" lon="3.46629">
        <ele>60.471771</ele>
        <time>2023-12-30T15:56:53.000Z</time>
      </trkpt>
      <trkpt lat="43.43455" lon="3.46639">
        <ele>60.100688</ele>
        <time>2023-12-30T15:56:54.000Z</time>
      </trkpt>
      <trkpt lat="43.43456" lon="3.4665">
        <ele>59.728352</ele>
        <time>2023-12-30T15:56:55.000Z</time>
      </trkpt>
      <trkpt lat="43.43456" lon="3.46662">
        <ele>59.338803</ele>
        <time>2023-12-30T15:56:56.000Z</time>
      </trkpt>
      <trkpt lat="43.43456" lon="3.46673">
        <ele>58.959819</ele>
        <time>2023-12-30T15:56:57.000Z</time>
      </trkpt>
      <trkpt lat="43.43456" lon="3.46684">
        <ele>58.559745</ele>
        <time>2023-12-30T15:56:58.000Z</time>
      </trkpt>
      <trkpt lat="43.43457" lon="3.46695">
        <ele>58.177215</ele>
        <time>2023-12-30T15:56:59.000Z</time>
      </trkpt>
      <trkpt lat="43.43459" lon="3.46706">
        <ele>57.803473</ele>
        <time>2023-12-30T15:57:00.000Z</time>
      </trkpt>
      <trkpt lat="43.4346" lon="3.46716">
        <ele>57.453461</ele>
        <time>2023-12-30T15:57:01.000Z</time>
      </trkpt>
      <trkpt lat="43.4346" lon="3.46726">
        <ele>57.10736</ele>
        <time>2023-12-30T15:57:02.000Z</time>
      </trkpt>
      <trkpt lat="43.43461" lon="3.46736">
        <ele>56.756802</ele>
        <time>2023-12-30T15:57:03.000Z</time>
      </trkpt>
      <trkpt lat="43.43462" lon="3.46746">
        <ele>56.421215</ele>
        <time>2023-12-30T15:57:04.000Z</time>
      </trkpt>
      <trkpt lat="43.43464" lon="3.46754">
        <ele>56.112035</ele>
        <time>2023-12-30T15:57:05.000Z</time>
      </trkpt>
      <trkpt lat="43.43466" lon="3.46762">
        <ele>55.815618</ele>
        <time>2023-12-30T15:57:06.000Z</time>
      </trkpt>
      <trkpt lat="43.43469" lon="3.4677">
        <ele>55.525094</ele>
        <time>2023-12-30T15:57:07.000Z</time>
      </trkpt>
      <trkpt lat="43.43472" lon="3.46777">
        <ele>55.308314</ele>
        <time>2023-12-30T15:57:08.000Z</time>
      </trkpt>
      <trkpt lat="43.43476" lon="3.46784">
        <ele>55.359931</ele>
        <time>2023-12-30T15:57:09.000Z</time>
      </trkpt>
      <trkpt lat="43.43479" lon="3.4679">
        <ele>55.406063</ele>
        <time>2023-12-30T15:57:10.000Z</time>
      </trkpt>
      <trkpt lat="43.43481" lon="3.46797">
        <ele>55.451898</ele>
        <time>2023-12-30T15:57:11.000Z</time>
      </trkpt>
      <trkpt lat="43.43483" lon="3.46803">
        <ele>55.495509</ele>
        <time>2023-12-30T15:57:12.000Z</time>
      </trkpt>
      <trkpt lat="43.43485" lon="3.4681">
        <ele>55.539862</ele>
        <time>2023-12-30T15:57:13.000Z</time>
      </trkpt>
      <trkpt lat="43.43487" lon="3.46816">
        <ele>55.577161</ele>
        <time>2023-12-30T15:57:14.000Z</time>
      </trkpt>
      <trkpt lat="43.43487" lon="3.46819">
        <ele>55.600296</ele>
        <time>2023-12-30T15:57:15.000Z</time>
      </trkpt>
      <trkpt lat="43.43487" lon="3.46822">
        <ele>55.616334</ele>
        <time>2023-12-30T15:57:16.000Z</time>
      </trkpt>
      <trkpt lat="43.43487" lon="3.46824">
        <ele>55.626375</ele>
        <time>2023-12-30T15:57:17.000Z</time>
      </trkpt>
      <trkpt lat="43.43487" lon="3.46823">
        <ele>55.629905</ele>
        <time>2023-12-30T15:57:18.000Z</time>
      </trkpt>
      <trkpt lat="43.43487" lon="3.46823">
        <ele>55.630524</ele>
        <time>2023-12-30T15:57:19.000Z</time>
      </trkpt>
      <trkpt lat="43.43487" lon="3.46823">
        <ele>55.630524</ele>
        <time>2023-12-30T15:57:20.000Z</time>
      </trkpt>
      <trkpt lat="43.43487" lon="3.46823">
        <ele>55.630524</ele>
        <time>2023-12-30T15:57:21.000Z</time>
      </trkpt>
      <trkpt lat="43.43487" lon="3.46823">
        <ele>55.630524</ele>
        <time>2023-12-30T15:57:22.000Z</time>
      </trkpt>
      <trkpt lat="43.43487" lon="3.46823">
        <ele>55.630524</ele>
        <time>2023-12-30T15:57:23.000Z</time>
      </trkpt>
      <trkpt lat="43.43487" lon="3.46823">
        <ele>55.631142</ele>
        <time>2023-12-30T15:57:24.000Z</time>
      </trkpt>
      <trkpt lat="43.43487" lon="3.46823">
        <ele>55.631142</ele>
        <time>2023-12-30T15:57:25.000Z</time>
      </trkpt>
      <trkpt lat="43.43487" lon="3.46823">
        <ele>55.631142</ele>
        <time>2023-12-30T15:57:26.000Z</time>
      </trkpt>
      <trkpt lat="43.43487" lon="3.46823">
        <ele>55.631761</ele>
        <time>2023-12-30T15:57:27.000Z</time>
      </trkpt>
      <trkpt lat="43.43487" lon="3.46824">
        <ele>55.639927</ele>
        <time>2023-12-30T15:57:28.000Z</time>
      </trkpt>
      <trkpt lat="43.43488" lon="3.46826">
        <ele>55.650393</ele>
        <time>2023-12-30T15:57:29.000Z</time>
      </trkpt>
      <trkpt lat="43.43488" lon="3.46828">
        <ele>55.665854</ele>
        <time>2023-12-30T15:57:30.000Z</time>
      </trkpt>
      <trkpt lat="43.43488" lon="3.4683">
        <ele>55.678224</ele>
        <time>2023-12-30T15:57:31.000Z</time>
      </trkpt>
      <trkpt lat="43.43488" lon="3.46833">
        <ele>55.693164</ele>
        <time>2023-12-30T15:57:32.000Z</time>
      </trkpt>
      <trkpt lat="43.43487" lon="3.46835">
        <ele>55.709202</ele>
        <time>2023-12-30T15:57:33.000Z</time>
      </trkpt>
      <trkpt lat="43.43486" lon="3.46839">
        <ele>55.731654</ele>
        <time>2023-12-30T15:57:34.000Z</time>
      </trkpt>
      <trkpt lat="43.43486" lon="3.46842">
        <ele>55.753759</ele>
        <time>2023-12-30T15:57:35.000Z</time>
      </trkpt>
      <trkpt lat="43.43485" lon="3.46846">
        <ele>55.777306</ele>
        <time>2023-12-30T15:57:36.000Z</time>
      </trkpt>
      <trkpt lat="43.43484" lon="3.46849">
        <ele>55.799994</ele>
        <time>2023-12-30T15:57:37.000Z</time>
      </trkpt>
      <trkpt lat="43.43483" lon="3.46854">
        <ele>55.82876</ele>
        <time>2023-12-30T15:57:38.000Z</time>
      </trkpt>
      <trkpt lat="43.43483" lon="3.4686">
        <ele>55.864054</ele>
        <time>2023-12-30T15:57:39.000Z</time>
      </trkpt>
      <trkpt lat="43.43484" lon="3.46865">
        <ele>55.899675</ele>
        <time>2023-12-30T15:57:40.000Z</time>
      </trkpt>
      <trkpt lat="43.43484" lon="3.46871">
        <ele>55.93431</ele>
        <time>2023-12-30T15:57:41.000Z</time>
      </trkpt>
      <trkpt lat="43.43484" lon="3.46877">
        <ele>55.972693</ele>
        <time>2023-12-30T15:57:42.000Z</time>
      </trkpt>
      <trkpt lat="43.43484" lon="3.46883">
        <ele>56.009193</ele>
        <time>2023-12-30T15:57:43.000Z</time>
      </trkpt>
      <trkpt lat="43.43484" lon="3.46889">
        <ele>56.043837</ele>
        <time>2023-12-30T15:57:44.000Z</time>
      </trkpt>
      <trkpt lat="43.43485" lon="3.46894">
        <ele>56.080071</ele>
        <time>2023-12-30T15:57:45.000Z</time>
      </trkpt>
      <trkpt lat="43.43486" lon="3.469">
        <ele>56.114162</ele>
        <time>2023-12-30T15:57:46.000Z</time>
      </trkpt>
      <trkpt lat="43.43487" lon="3.46904">
        <ele>56.145847</ele>
        <time>2023-12-30T15:57:47.000Z</time>
      </trkpt>
      <trkpt lat="43.43488" lon="3.46909">
        <ele>56.171895</ele>
        <time>2023-12-30T15:57:48.000Z</time>
      </trkpt>
      <trkpt lat="43.43487" lon="3.46913">
        <ele>56.19748</ele>
        <time>2023-12-30T15:57:49.000Z</time>
      </trkpt>
      <trkpt lat="43.43486" lon="3.46916">
        <ele>56.222616</ele>
        <time>2023-12-30T15:57:50.000Z</time>
      </trkpt>
      <trkpt lat="43.43484" lon="3.46919">
        <ele>56.250026</ele>
        <time>2023-12-30T15:57:51.000Z</time>
      </trkpt>
      <trkpt lat="43.43481" lon="3.46922">
        <ele>56.278813</ele>
        <time>2023-12-30T15:57:52.000Z</time>
      </trkpt>
      <trkpt lat="43.43478" lon="3.46925">
        <ele>56.311194</ele>
        <time>2023-12-30T15:57:53.000Z</time>
      </trkpt>
      <trkpt lat="43.43475" lon="3.46929">
        <ele>56.344737</ele>
        <time>2023-12-30T15:57:54.000Z</time>
      </trkpt>
      <trkpt lat="43.43473" lon="3.46934">
        <ele>56.380188</ele>
        <time>2023-12-30T15:57:55.000Z</time>
      </trkpt>
      <trkpt lat="43.43472" lon="3.46939">
        <ele>56.414279</ele>
        <time>2023-12-30T15:57:56.000Z</time>
      </trkpt>
      <trkpt lat="43.43472" lon="3.46945">
        <ele>56.449174</ele>
        <time>2023-12-30T15:57:57.000Z</time>
      </trkpt>
      <trkpt lat="43.43471" lon="3.4695">
        <ele>56.482615</ele>
        <time>2023-12-30T15:57:58.000Z</time>
      </trkpt>
      <trkpt lat="43.43471" lon="3.46956">
        <ele>56.514877</ele>
        <time>2023-12-30T15:57:59.000Z</time>
      </trkpt>
      <trkpt lat="43.4347" lon="3.46961">
        <ele>56.548357</ele>
        <time>2023-12-30T15:58:00.000Z</time>
      </trkpt>
      <trkpt lat="43.43469" lon="3.46965">
        <ele>56.578635</ele>
        <time>2023-12-30T15:58:01.000Z</time>
      </trkpt>
      <trkpt lat="43.43467" lon="3.46969">
        <ele>56.605773</ele>
        <time>2023-12-30T15:58:02.000Z</time>
      </trkpt>
      <trkpt lat="43.43464" lon="3.46971">
        <ele>56.631763</ele>
        <time>2023-12-30T15:58:03.000Z</time>
      </trkpt>
      <trkpt lat="43.43462" lon="3.46972">
        <ele>56.652938</ele>
        <time>2023-12-30T15:58:04.000Z</time>
      </trkpt>
      <trkpt lat="43.4346" lon="3.46974">
        <ele>56.676789</ele>
        <time>2023-12-30T15:58:05.000Z</time>
      </trkpt>
      <trkpt lat="43.43458" lon="3.46977">
        <ele>56.701409</ele>
        <time>2023-12-30T15:58:06.000Z</time>
      </trkpt>
      <trkpt lat="43.43456" lon="3.4698">
        <ele>56.72379</ele>
        <time>2023-12-30T15:58:07.000Z</time>
      </trkpt>
      <trkpt lat="43.43453" lon="3.46982">
        <ele>56.753493</ele>
        <time>2023-12-30T15:58:08.000Z</time>
      </trkpt>
      <trkpt lat="43.4345" lon="3.46984">
        <ele>56.781261</ele>
        <time>2023-12-30T15:58:09.000Z</time>
      </trkpt>
      <trkpt lat="43.43447" lon="3.46987">
        <ele>56.811723</ele>
        <time>2023-12-30T15:58:10.000Z</time>
      </trkpt>
      <trkpt lat="43.43444" lon="3.46989">
        <ele>56.810517</ele>
        <time>2023-12-30T15:58:11.000Z</time>
      </trkpt>
      <trkpt lat="43.43441" lon="3.46992">
        <ele>56.762136</ele>
        <time>2023-12-30T15:58:12.000Z</time>
      </trkpt>
      <trkpt lat="43.43439" lon="3.46996">
        <ele>56.710643</ele>
        <time>2023-12-30T15:58:13.000Z</time>
      </trkpt>
      <trkpt lat="43.43435" lon="3.46997">
        <ele>56.666076</ele>
        <time>2023-12-30T15:58:14.000Z</time>
      </trkpt>
      <trkpt lat="43.43432" lon="3.46997">
        <ele>56.621083</ele>
        <time>2023-12-30T15:58:15.000Z</time>
      </trkpt>
      <trkpt lat="43.4343" lon="3.46999">
        <ele>56.582984</ele>
        <time>2023-12-30T15:58:16.000Z</time>
      </trkpt>
      <trkpt lat="43.43428" lon="3.47002">
        <ele>56.544462</ele>
        <time>2023-12-30T15:58:17.000Z</time>
      </trkpt>
      <trkpt lat="43.43425" lon="3.47005">
        <ele>56.500273</ele>
        <time>2023-12-30T15:58:18.000Z</time>
      </trkpt>
      <trkpt lat="43.43423" lon="3.47007">
        <ele>56.463346</ele>
        <time>2023-12-30T15:58:19.000Z</time>
      </trkpt>
      <trkpt lat="43.43421" lon="3.47009">
        <ele>56.427917</ele>
        <time>2023-12-30T15:58:20.000Z</time>
      </trkpt>
      <trkpt lat="43.4342" lon="3.47012">
        <ele>56.397556</ele>
        <time>2023-12-30T15:58:21.000Z</time>
      </trkpt>
      <trkpt lat="43.43419" lon="3.47014">
        <ele>56.37113</ele>
        <time>2023-12-30T15:58:22.000Z</time>
      </trkpt>
      <trkpt lat="43.43418" lon="3.47018">
        <ele>56.332358</ele>
        <time>2023-12-30T15:58:23.000Z</time>
      </trkpt>
      <trkpt lat="43.43417" lon="3.4702">
        <ele>56.304838</ele>
        <time>2023-12-30T15:58:24.000Z</time>
      </trkpt>
      <trkpt lat="43.43416" lon="3.47022">
        <ele>56.278483</ele>
        <time>2023-12-30T15:58:25.000Z</time>
      </trkpt>
      <trkpt lat="43.43415" lon="3.47024">
        <ele>56.258345</ele>
        <time>2023-12-30T15:58:26.000Z</time>
      </trkpt>
      <trkpt lat="43.43414" lon="3.47026">
        <ele>56.238365</ele>
        <time>2023-12-30T15:58:27.000Z</time>
      </trkpt>
      <trkpt lat="43.43414" lon="3.47026">
        <ele>56.230332</ele>
        <time>2023-12-30T15:58:28.000Z</time>
      </trkpt>
      <trkpt lat="43.43414" lon="3.47028">
        <ele>56.219399</ele>
        <time>2023-12-30T15:58:29.000Z</time>
      </trkpt>
      <trkpt lat="43.43414" lon="3.47028">
        <ele>56.212495</ele>
        <time>2023-12-30T15:58:30.000Z</time>
      </trkpt>
      <trkpt lat="43.43413" lon="3.47028">
        <ele>56.208303</ele>
        <time>2023-12-30T15:58:31.000Z</time>
      </trkpt>
      <trkpt lat="43.43413" lon="3.47028">
        <ele>56.208303</ele>
        <time>2023-12-30T15:58:32.000Z</time>
      </trkpt>
      <trkpt lat="43.43413" lon="3.47028">
        <ele>56.206624</ele>
        <time>2023-12-30T15:58:33.000Z</time>
      </trkpt>
      <trkpt lat="43.43413" lon="3.47028">
        <ele>56.205638</ele>
        <time>2023-12-30T15:58:34.000Z</time>
      </trkpt>
      <trkpt lat="43.43413" lon="3.47028">
        <ele>56.204652</ele>
        <time>2023-12-30T15:58:35.000Z</time>
      </trkpt>
      <trkpt lat="43.43413" lon="3.47028">
        <ele>56.204652</ele>
        <time>2023-12-30T15:58:36.000Z</time>
      </trkpt>
      <trkpt lat="43.43413" lon="3.47028">
        <ele>56.203294</ele>
        <time>2023-12-30T15:58:37.000Z</time>
      </trkpt>
      <trkpt lat="43.43413" lon="3.47028">
        <ele>56.201935</ele>
        <time>2023-12-30T15:58:38.000Z</time>
      </trkpt>
      <trkpt lat="43.43413" lon="3.47028">
        <ele>56.201935</ele>
        <time>2023-12-30T15:58:39.000Z</time>
      </trkpt>
      <trkpt lat="43.43413" lon="3.47028">
        <ele>56.200577</ele>
        <time>2023-12-30T15:58:40.000Z</time>
      </trkpt>
      <trkpt lat="43.43413" lon="3.47028">
        <ele>56.199219</ele>
        <time>2023-12-30T15:58:41.000Z</time>
      </trkpt>
      <trkpt lat="43.43413" lon="3.47028">
        <ele>56.197541</ele>
        <time>2023-12-30T15:58:42.000Z</time>
      </trkpt>
      <trkpt lat="43.43413" lon="3.47028">
        <ele>56.197541</ele>
        <time>2023-12-30T15:58:43.000Z</time>
      </trkpt>
      <trkpt lat="43.43413" lon="3.47028">
        <ele>56.197541</ele>
        <time>2023-12-30T15:58:44.000Z</time>
      </trkpt>
      <trkpt lat="43.43413" lon="3.47028">
        <ele>56.197541</ele>
        <time>2023-12-30T15:58:45.000Z</time>
      </trkpt>
      <trkpt lat="43.43413" lon="3.47028">
        <ele>56.197541</ele>
        <time>2023-12-30T15:58:46.000Z</time>
      </trkpt>
      <trkpt lat="43.43413" lon="3.47028">
        <ele>56.197541</ele>
        <time>2023-12-30T15:58:47.000Z</time>
      </trkpt>
      <trkpt lat="43.43413" lon="3.47028">
        <ele>56.197541</ele>
        <time>2023-12-30T15:58:48.000Z</time>
      </trkpt>
      <trkpt lat="43.43413" lon="3.47028">
        <ele>56.196183</ele>
        <time>2023-12-30T15:58:49.000Z</time>
      </trkpt>
      <trkpt lat="43.43413" lon="3.47028">
        <ele>56.196183</ele>
        <time>2023-12-30T15:58:50.000Z</time>
      </trkpt>
      <trkpt lat="43.43413" lon="3.47028">
        <ele>56.195196</ele>
        <time>2023-12-30T15:58:51.000Z</time>
      </trkpt>
      <trkpt lat="43.43413" lon="3.47028">
        <ele>56.195196</ele>
        <time>2023-12-30T15:58:52.000Z</time>
      </trkpt>
      <trkpt lat="43.43413" lon="3.47028">
        <ele>56.195196</ele>
        <time>2023-12-30T15:58:53.000Z</time>
      </trkpt>
      <trkpt lat="43.43413" lon="3.47028">
        <ele>56.195196</ele>
        <time>2023-12-30T15:58:54.000Z</time>
      </trkpt>
      <trkpt lat="43.43413" lon="3.47028">
        <ele>56.19421</ele>
        <time>2023-12-30T15:58:55.000Z</time>
      </trkpt>
      <trkpt lat="43.43413" lon="3.47028">
        <ele>56.190038</ele>
        <time>2023-12-30T15:58:56.000Z</time>
      </trkpt>
      <trkpt lat="43.43413" lon="3.47031">
        <ele>56.166019</ele>
        <time>2023-12-30T15:58:57.000Z</time>
      </trkpt>
      <trkpt lat="43.43412" lon="3.47033">
        <ele>56.13817</ele>
        <time>2023-12-30T15:58:58.000Z</time>
      </trkpt>
      <trkpt lat="43.43412" lon="3.47037">
        <ele>56.09737</ele>
        <time>2023-12-30T15:58:59.000Z</time>
      </trkpt>
      <trkpt lat="43.43412" lon="3.47042">
        <ele>56.054766</ele>
        <time>2023-12-30T15:59:00.000Z</time>
      </trkpt>
      <trkpt lat="43.43411" lon="3.47046">
        <ele>56.017263</ele>
        <time>2023-12-30T15:59:01.000Z</time>
      </trkpt>
      <trkpt lat="43.43411" lon="3.47049">
        <ele>55.978418</ele>
        <time>2023-12-30T15:59:02.000Z</time>
      </trkpt>
      <trkpt lat="43.4341" lon="3.47054">
        <ele>55.932726</ele>
        <time>2023-12-30T15:59:03.000Z</time>
      </trkpt>
      <trkpt lat="43.43409" lon="3.47058">
        <ele>55.893705</ele>
        <time>2023-12-30T15:59:04.000Z</time>
      </trkpt>
      <trkpt lat="43.43409" lon="3.47061">
        <ele>55.859392</ele>
        <time>2023-12-30T15:59:05.000Z</time>
      </trkpt>
      <trkpt lat="43.43409" lon="3.47064">
        <ele>55.828788</ele>
        <time>2023-12-30T15:59:06.000Z</time>
      </trkpt>
      <trkpt lat="43.43408" lon="3.47066">
        <ele>55.806053</ele>
        <time>2023-12-30T15:59:07.000Z</time>
      </trkpt>
      <trkpt lat="43.43408" lon="3.47069">
        <ele>55.781062</ele>
        <time>2023-12-30T15:59:08.000Z</time>
      </trkpt>
      <trkpt lat="43.43407" lon="3.47071">
        <ele>55.756071</ele>
        <time>2023-12-30T15:59:09.000Z</time>
      </trkpt>
      <trkpt lat="43.43407" lon="3.47075">
        <ele>55.719315</ele>
        <time>2023-12-30T15:59:10.000Z</time>
      </trkpt>
      <trkpt lat="43.43407" lon="3.47079">
        <ele>55.678879</ele>
        <time>2023-12-30T15:59:11.000Z</time>
      </trkpt>
      <trkpt lat="43.43407" lon="3.47083">
        <ele>55.639405</ele>
        <time>2023-12-30T15:59:12.000Z</time>
      </trkpt>
      <trkpt lat="43.43407" lon="3.47087">
        <ele>55.601829</ele>
        <time>2023-12-30T15:59:13.000Z</time>
      </trkpt>
      <trkpt lat="43.43408" lon="3.4709">
        <ele>55.56564</ele>
        <time>2023-12-30T15:59:14.000Z</time>
      </trkpt>
      <trkpt lat="43.43409" lon="3.47093">
        <ele>55.533574</ele>
        <time>2023-12-30T15:59:15.000Z</time>
      </trkpt>
      <trkpt lat="43.43411" lon="3.47095">
        <ele>55.502161</ele>
        <time>2023-12-30T15:59:16.000Z</time>
      </trkpt>
      <trkpt lat="43.43412" lon="3.47097">
        <ele>55.479228</ele>
        <time>2023-12-30T15:59:17.000Z</time>
      </trkpt>
      <trkpt lat="43.43414" lon="3.47098">
        <ele>55.45013</ele>
        <time>2023-12-30T15:59:18.000Z</time>
      </trkpt>
      <trkpt lat="43.43415" lon="3.471">
        <ele>55.431453</ele>
        <time>2023-12-30T15:59:19.000Z</time>
      </trkpt>
      <trkpt lat="43.43416" lon="3.47101">
        <ele>55.414647</ele>
        <time>2023-12-30T15:59:20.000Z</time>
      </trkpt>
      <trkpt lat="43.43417" lon="3.47103">
        <ele>55.388633</ele>
        <time>2023-12-30T15:59:21.000Z</time>
      </trkpt>
      <trkpt lat="43.43419" lon="3.47106">
        <ele>55.348712</ele>
        <time>2023-12-30T15:59:22.000Z</time>
      </trkpt>
      <trkpt lat="43.4342" lon="3.47109">
        <ele>55.316762</ele>
        <time>2023-12-30T15:59:23.000Z</time>
      </trkpt>
      <trkpt lat="43.43422" lon="3.47111">
        <ele>55.281622</ele>
        <time>2023-12-30T15:59:24.000Z</time>
      </trkpt>
      <trkpt lat="43.43423" lon="3.47114">
        <ele>55.252771</ele>
        <time>2023-12-30T15:59:25.000Z</time>
      </trkpt>
      <trkpt lat="43.43425" lon="3.47115">
        <ele>55.22535</ele>
        <time>2023-12-30T15:59:26.000Z</time>
      </trkpt>
      <trkpt lat="43.43426" lon="3.47116">
        <ele>55.202417</ele>
        <time>2023-12-30T15:59:27.000Z</time>
      </trkpt>
      <trkpt lat="43.43428" lon="3.47118">
        <ele>55.174995</ele>
        <time>2023-12-30T15:59:28.000Z</time>
      </trkpt>
      <trkpt lat="43.43429" lon="3.47119">
        <ele>55.157093</ele>
        <time>2023-12-30T15:59:29.000Z</time>
      </trkpt>
      <trkpt lat="43.4343" lon="3.47121">
        <ele>55.136344</ele>
        <time>2023-12-30T15:59:30.000Z</time>
      </trkpt>
      <trkpt lat="43.4343" lon="3.47123">
        <ele>55.111539</ele>
        <time>2023-12-30T15:59:31.000Z</time>
      </trkpt>
      <trkpt lat="43.4343" lon="3.47125">
        <ele>55.09065</ele>
        <time>2023-12-30T15:59:32.000Z</time>
      </trkpt>
      <trkpt lat="43.43431" lon="3.47127">
        <ele>55.071715</ele>
        <time>2023-12-30T15:59:33.000Z</time>
      </trkpt>
      <trkpt lat="43.43431" lon="3.47129">
        <ele>55.050827</ele>
        <time>2023-12-30T15:59:34.000Z</time>
      </trkpt>
      <trkpt lat="43.43431" lon="3.47131">
        <ele>55.030915</ele>
        <time>2023-12-30T15:59:35.000Z</time>
      </trkpt>
      <trkpt lat="43.43431" lon="3.47133">
        <ele>55.01393</ele>
        <time>2023-12-30T15:59:36.000Z</time>
      </trkpt>
      <trkpt lat="43.43431" lon="3.47134">
        <ele>55.001037</ele>
        <time>2023-12-30T15:59:37.000Z</time>
      </trkpt>
      <trkpt lat="43.43431" lon="3.47135">
        <ele>54.997021</ele>
        <time>2023-12-30T15:59:38.000Z</time>
      </trkpt>
      <trkpt lat="43.43431" lon="3.47134">
        <ele>54.996035</ele>
        <time>2023-12-30T15:59:39.000Z</time>
      </trkpt>
      <trkpt lat="43.43431" lon="3.47134">
        <ele>54.996035</ele>
        <time>2023-12-30T15:59:40.000Z</time>
      </trkpt>
      <trkpt lat="43.43431" lon="3.47134">
        <ele>54.996035</ele>
        <time>2023-12-30T15:59:41.000Z</time>
      </trkpt>
      <trkpt lat="43.43431" lon="3.47134">
        <ele>54.996035</ele>
        <time>2023-12-30T15:59:42.000Z</time>
      </trkpt>
      <trkpt lat="43.43431" lon="3.47134">
        <ele>54.996035</ele>
        <time>2023-12-30T15:59:43.000Z</time>
      </trkpt>
      <trkpt lat="43.43431" lon="3.47134">
        <ele>54.994676</ele>
        <time>2023-12-30T15:59:44.000Z</time>
      </trkpt>
      <trkpt lat="43.43431" lon="3.47134">
        <ele>54.994676</ele>
        <time>2023-12-30T15:59:45.000Z</time>
      </trkpt>
      <trkpt lat="43.43431" lon="3.47134">
        <ele>54.994676</ele>
        <time>2023-12-30T15:59:46.000Z</time>
      </trkpt>
      <trkpt lat="43.43431" lon="3.47134">
        <ele>54.99369</ele>
        <time>2023-12-30T15:59:47.000Z</time>
      </trkpt>
      <trkpt lat="43.43431" lon="3.47134">
        <ele>54.99369</ele>
        <time>2023-12-30T15:59:48.000Z</time>
      </trkpt>
      <trkpt lat="43.43431" lon="3.47135">
        <ele>54.990731</ele>
        <time>2023-12-30T15:59:49.000Z</time>
      </trkpt>
      <trkpt lat="43.43432" lon="3.47137">
        <ele>54.963964</ele>
        <time>2023-12-30T15:59:50.000Z</time>
      </trkpt>
      <trkpt lat="43.43432" lon="3.47139">
        <ele>54.947075</ele>
        <time>2023-12-30T15:59:51.000Z</time>
      </trkpt>
      <trkpt lat="43.43433" lon="3.47139">
        <ele>54.939221</ele>
        <time>2023-12-30T15:59:52.000Z</time>
      </trkpt>
      <trkpt lat="43.43433" lon="3.47138">
        <ele>54.929359</ele>
        <time>2023-12-30T15:59:53.000Z</time>
      </trkpt>
      <trkpt lat="43.43433" lon="3.47138">
        <ele>54.929359</ele>
        <time>2023-12-30T15:59:54.000Z</time>
      </trkpt>
      <trkpt lat="43.43433" lon="3.47138">
        <ele>54.929359</ele>
        <time>2023-12-30T15:59:55.000Z</time>
      </trkpt>
      <trkpt lat="43.43433" lon="3.47138">
        <ele>54.929359</ele>
        <time>2023-12-30T15:59:56.000Z</time>
      </trkpt>
      <trkpt lat="43.43433" lon="3.47138">
        <ele>54.92768</ele>
        <time>2023-12-30T15:59:57.000Z</time>
      </trkpt>
      <trkpt lat="43.43433" lon="3.47138">
        <ele>54.926694</ele>
        <time>2023-12-30T15:59:58.000Z</time>
      </trkpt>
      <trkpt lat="43.43433" lon="3.47139">
        <ele>54.918301</ele>
        <time>2023-12-30T15:59:59.000Z</time>
      </trkpt>
      <trkpt lat="43.43435" lon="3.47142">
        <ele>54.87558</ele>
        <time>2023-12-30T16:00:00.000Z</time>
      </trkpt>
      <trkpt lat="43.43438" lon="3.47143">
        <ele>54.84179</ele>
        <time>2023-12-30T16:00:01.000Z</time>
      </trkpt>
      <trkpt lat="43.43439" lon="3.47144">
        <ele>54.817053</ele>
        <time>2023-12-30T16:00:02.000Z</time>
      </trkpt>
      <trkpt lat="43.43441" lon="3.47145">
        <ele>54.787804</ele>
        <time>2023-12-30T16:00:03.000Z</time>
      </trkpt>
      <trkpt lat="43.43443" lon="3.47145">
        <ele>54.759129</ele>
        <time>2023-12-30T16:00:04.000Z</time>
      </trkpt>
      <trkpt lat="43.43445" lon="3.47143">
        <ele>54.738786</ele>
        <time>2023-12-30T16:00:05.000Z</time>
      </trkpt>
      <trkpt lat="43.43446" lon="3.47141">
        <ele>54.711649</ele>
        <time>2023-12-30T16:00:06.000Z</time>
      </trkpt>
      <trkpt lat="43.43447" lon="3.47139">
        <ele>54.682119</ele>
        <time>2023-12-30T16:00:07.000Z</time>
      </trkpt>
      <trkpt lat="43.43449" lon="3.47137">
        <ele>54.649752</ele>
        <time>2023-12-30T16:00:08.000Z</time>
      </trkpt>
      <trkpt lat="43.43451" lon="3.47134">
        <ele>54.612671</ele>
        <time>2023-12-30T16:00:09.000Z</time>
      </trkpt>
      <trkpt lat="43.43453" lon="3.47131">
        <ele>54.575316</ele>
        <time>2023-12-30T16:00:10.000Z</time>
      </trkpt>
      <trkpt lat="43.43455" lon="3.47128">
        <ele>54.532566</ele>
        <time>2023-12-30T16:00:11.000Z</time>
      </trkpt>
      <trkpt lat="43.43457" lon="3.47125">
        <ele>54.495808</ele>
        <time>2023-12-30T16:00:12.000Z</time>
      </trkpt>
      <trkpt lat="43.43458" lon="3.47123">
        <ele>54.461438</ele>
        <time>2023-12-30T16:00:13.000Z</time>
      </trkpt>
      <trkpt lat="43.4346" lon="3.4712">
        <ele>54.425747</ele>
        <time>2023-12-30T16:00:14.000Z</time>
      </trkpt>
      <trkpt lat="43.43462" lon="3.47117">
        <ele>54.386488</ele>
        <time>2023-12-30T16:00:15.000Z</time>
      </trkpt>
      <trkpt lat="43.43463" lon="3.47114">
        <ele>54.432652</ele>
        <time>2023-12-30T16:00:16.000Z</time>
      </trkpt>
      <trkpt lat="43.43464" lon="3.47112">
        <ele>54.468638</ele>
        <time>2023-12-30T16:00:17.000Z</time>
      </trkpt>
      <trkpt lat="43.43465" lon="3.47111">
        <ele>54.498815</ele>
        <time>2023-12-30T16:00:18.000Z</time>
      </trkpt>
      <trkpt lat="43.43466" lon="3.4711">
        <ele>54.522957</ele>
        <time>2023-12-30T16:00:19.000Z</time>
      </trkpt>
      <trkpt lat="43.43467" lon="3.47108">
        <ele>54.554531</ele>
        <time>2023-12-30T16:00:20.000Z</time>
      </trkpt>
      <trkpt lat="43.43468" lon="3.47107">
        <ele>54.586853</ele>
        <time>2023-12-30T16:00:21.000Z</time>
      </trkpt>
      <trkpt lat="43.4347" lon="3.47106">
        <ele>54.626464</ele>
        <time>2023-12-30T16:00:22.000Z</time>
      </trkpt>
      <trkpt lat="43.43472" lon="3.47105">
        <ele>54.663634</ele>
        <time>2023-12-30T16:00:23.000Z</time>
      </trkpt>
      <trkpt lat="43.43474" lon="3.47105">
        <ele>54.710666</ele>
        <time>2023-12-30T16:00:24.000Z</time>
      </trkpt>
      <trkpt lat="43.43476" lon="3.47104">
        <ele>54.754761</ele>
        <time>2023-12-30T16:00:25.000Z</time>
      </trkpt>
      <trkpt lat="43.43478" lon="3.47105">
        <ele>54.78382</ele>
        <time>2023-12-30T16:00:26.000Z</time>
      </trkpt>
      <trkpt lat="43.43479" lon="3.47106">
        <ele>54.821002</ele>
        <time>2023-12-30T16:00:27.000Z</time>
      </trkpt>
      <trkpt lat="43.43481" lon="3.47107">
        <ele>54.856861</ele>
        <time>2023-12-30T16:00:28.000Z</time>
      </trkpt>
      <trkpt lat="43.43482" lon="3.47109">
        <ele>54.895548</ele>
        <time>2023-12-30T16:00:29.000Z</time>
      </trkpt>
      <trkpt lat="43.43484" lon="3.4711">
        <ele>54.93113</ele>
        <time>2023-12-30T16:00:30.000Z</time>
      </trkpt>
      <trkpt lat="43.43485" lon="3.47112">
        <ele>54.961307</ele>
        <time>2023-12-30T16:00:31.000Z</time>
      </trkpt>
      <trkpt lat="43.43486" lon="3.47114">
        <ele>54.995051</ele>
        <time>2023-12-30T16:00:32.000Z</time>
      </trkpt>
      <trkpt lat="43.43488" lon="3.47116">
        <ele>55.044771</ele>
        <time>2023-12-30T16:00:33.000Z</time>
      </trkpt>
      <trkpt lat="43.4349" lon="3.47118">
        <ele>55.108017</ele>
        <time>2023-12-30T16:00:34.000Z</time>
      </trkpt>
      <trkpt lat="43.43492" lon="3.47122">
        <ele>55.181328</ele>
        <time>2023-12-30T16:00:35.000Z</time>
      </trkpt>
      <trkpt lat="43.43495" lon="3.47126">
        <ele>55.252388</ele>
        <time>2023-12-30T16:00:36.000Z</time>
      </trkpt>
      <trkpt lat="43.43497" lon="3.47129">
        <ele>55.327055</ele>
        <time>2023-12-30T16:00:37.000Z</time>
      </trkpt>
      <trkpt lat="43.435" lon="3.47132">
        <ele>55.399754</ele>
        <time>2023-12-30T16:00:38.000Z</time>
      </trkpt>
      <trkpt lat="43.43503" lon="3.47135">
        <ele>55.467427</ele>
        <time>2023-12-30T16:00:39.000Z</time>
      </trkpt>
      <trkpt lat="43.43505" lon="3.47139">
        <ele>55.5446</ele>
        <time>2023-12-30T16:00:40.000Z</time>
      </trkpt>
      <trkpt lat="43.43509" lon="3.47143">
        <ele>55.634395</ele>
        <time>2023-12-30T16:00:41.000Z</time>
      </trkpt>
      <trkpt lat="43.43511" lon="3.47148">
        <ele>55.72693</ele>
        <time>2023-12-30T16:00:42.000Z</time>
      </trkpt>
      <trkpt lat="43.43514" lon="3.47152">
        <ele>55.799109</ele>
        <time>2023-12-30T16:00:43.000Z</time>
      </trkpt>
      <trkpt lat="43.43516" lon="3.47154">
        <ele>55.85925</ele>
        <time>2023-12-30T16:00:44.000Z</time>
      </trkpt>
      <trkpt lat="43.43518" lon="3.47157">
        <ele>55.920663</ele>
        <time>2023-12-30T16:00:45.000Z</time>
      </trkpt>
      <trkpt lat="43.4352" lon="3.4716">
        <ele>55.982117</ele>
        <time>2023-12-30T16:00:46.000Z</time>
      </trkpt>
      <trkpt lat="43.43522" lon="3.47163">
        <ele>56.04281</ele>
        <time>2023-12-30T16:00:47.000Z</time>
      </trkpt>
      <trkpt lat="43.43524" lon="3.47165">
        <ele>56.095427</ele>
        <time>2023-12-30T16:00:48.000Z</time>
      </trkpt>
      <trkpt lat="43.43526" lon="3.47168">
        <ele>56.151146</ele>
        <time>2023-12-30T16:00:49.000Z</time>
      </trkpt>
      <trkpt lat="43.43528" lon="3.4717">
        <ele>56.199291</ele>
        <time>2023-12-30T16:00:50.000Z</time>
      </trkpt>
      <trkpt lat="43.4353" lon="3.47172">
        <ele>56.252468</ele>
        <time>2023-12-30T16:00:51.000Z</time>
      </trkpt>
      <trkpt lat="43.43532" lon="3.47174">
        <ele>56.302187</ele>
        <time>2023-12-30T16:00:52.000Z</time>
      </trkpt>
      <trkpt lat="43.43533" lon="3.47177">
        <ele>56.344221</ele>
        <time>2023-12-30T16:00:53.000Z</time>
      </trkpt>
      <trkpt lat="43.43535" lon="3.47179">
        <ele>56.388943</ele>
        <time>2023-12-30T16:00:54.000Z</time>
      </trkpt>
      <trkpt lat="43.43536" lon="3.4718">
        <ele>56.430147</ele>
        <time>2023-12-30T16:00:55.000Z</time>
      </trkpt>
      <trkpt lat="43.43538" lon="3.47181">
        <ele>56.459664</ele>
        <time>2023-12-30T16:00:56.000Z</time>
      </trkpt>
      <trkpt lat="43.43539" lon="3.47182">
        <ele>56.493675</ele>
        <time>2023-12-30T16:00:57.000Z</time>
      </trkpt>
      <trkpt lat="43.43541" lon="3.47183">
        <ele>56.528985</ele>
        <time>2023-12-30T16:00:58.000Z</time>
      </trkpt>
      <trkpt lat="43.43542" lon="3.47184">
        <ele>56.555104</ele>
        <time>2023-12-30T16:00:59.000Z</time>
      </trkpt>
      <trkpt lat="43.43543" lon="3.47185">
        <ele>56.579662</ele>
        <time>2023-12-30T16:01:00.000Z</time>
      </trkpt>
      <trkpt lat="43.43543" lon="3.47187">
        <ele>56.602473</ele>
        <time>2023-12-30T16:01:01.000Z</time>
      </trkpt>
      <trkpt lat="43.43544" lon="3.47188">
        <ele>56.628592</ele>
        <time>2023-12-30T16:01:02.000Z</time>
      </trkpt>
      <trkpt lat="43.43545" lon="3.47189">
        <ele>56.657232</ele>
        <time>2023-12-30T16:01:03.000Z</time>
      </trkpt>
      <trkpt lat="43.43546" lon="3.47191">
        <ele>56.683918</ele>
        <time>2023-12-30T16:01:04.000Z</time>
      </trkpt>
      <trkpt lat="43.43546" lon="3.47193">
        <ele>56.717527</ele>
        <time>2023-12-30T16:01:05.000Z</time>
      </trkpt>
      <trkpt lat="43.43547" lon="3.47195">
        <ele>56.748873</ele>
        <time>2023-12-30T16:01:06.000Z</time>
      </trkpt>
      <trkpt lat="43.43547" lon="3.47197">
        <ele>56.776769</ele>
        <time>2023-12-30T16:01:07.000Z</time>
      </trkpt>
      <trkpt lat="43.43548" lon="3.47199">
        <ele>56.807034</ele>
        <time>2023-12-30T16:01:08.000Z</time>
      </trkpt>
      <trkpt lat="43.43548" lon="3.47201">
        <ele>56.850059</ele>
        <time>2023-12-30T16:01:09.000Z</time>
      </trkpt>
      <trkpt lat="43.43548" lon="3.47204">
        <ele>56.891753</ele>
        <time>2023-12-30T16:01:10.000Z</time>
      </trkpt>
      <trkpt lat="43.43547" lon="3.47207">
        <ele>56.926082</ele>
        <time>2023-12-30T16:01:11.000Z</time>
      </trkpt>
      <trkpt lat="43.43547" lon="3.47209">
        <ele>56.961882</ele>
        <time>2023-12-30T16:01:12.000Z</time>
      </trkpt>
      <trkpt lat="43.43547" lon="3.47211">
        <ele>56.998986</ele>
        <time>2023-12-30T16:01:13.000Z</time>
      </trkpt>
      <trkpt lat="43.43547" lon="3.47215">
        <ele>57.045107</ele>
        <time>2023-12-30T16:01:14.000Z</time>
      </trkpt>
      <trkpt lat="43.43548" lon="3.47218">
        <ele>57.10028</ele>
        <time>2023-12-30T16:01:15.000Z</time>
      </trkpt>
      <trkpt lat="43.43548" lon="3.47222">
        <ele>57.158112</ele>
        <time>2023-12-30T16:01:16.000Z</time>
      </trkpt>
      <trkpt lat="43.43548" lon="3.47226">
        <ele>57.219008</ele>
        <time>2023-12-30T16:01:17.000Z</time>
      </trkpt>
      <trkpt lat="43.43548" lon="3.4723">
        <ele>57.278426</ele>
        <time>2023-12-30T16:01:18.000Z</time>
      </trkpt>
      <trkpt lat="43.43548" lon="3.47235">
        <ele>57.343759</ele>
        <time>2023-12-30T16:01:19.000Z</time>
      </trkpt>
      <trkpt lat="43.43548" lon="3.47238">
        <ele>57.40011</ele>
        <time>2023-12-30T16:01:20.000Z</time>
      </trkpt>
      <trkpt lat="43.43549" lon="3.47242">
        <ele>57.45805</ele>
        <time>2023-12-30T16:01:21.000Z</time>
      </trkpt>
      <trkpt lat="43.43549" lon="3.47247">
        <ele>57.525018</ele>
        <time>2023-12-30T16:01:22.000Z</time>
      </trkpt>
      <trkpt lat="43.43549" lon="3.47252">
        <ele>57.59618</ele>
        <time>2023-12-30T16:01:23.000Z</time>
      </trkpt>
      <trkpt lat="43.43549" lon="3.47256">
        <ele>57.664472</ele>
        <time>2023-12-30T16:01:24.000Z</time>
      </trkpt>
      <trkpt lat="43.43548" lon="3.47261">
        <ele>57.731935</ele>
        <time>2023-12-30T16:01:25.000Z</time>
      </trkpt>
      <trkpt lat="43.43548" lon="3.47265">
        <ele>57.800591</ele>
        <time>2023-12-30T16:01:26.000Z</time>
      </trkpt>
      <trkpt lat="43.43548" lon="3.4727">
        <ele>57.874717</ele>
        <time>2023-12-30T16:01:27.000Z</time>
      </trkpt>
      <trkpt lat="43.43548" lon="3.47275">
        <ele>57.94736</ele>
        <time>2023-12-30T16:01:28.000Z</time>
      </trkpt>
      <trkpt lat="43.43547" lon="3.4728">
        <ele>58.023925</ele>
        <time>2023-12-30T16:01:29.000Z</time>
      </trkpt>
      <trkpt lat="43.43547" lon="3.47285">
        <ele>58.088591</ele>
        <time>2023-12-30T16:01:30.000Z</time>
      </trkpt>
      <trkpt lat="43.43546" lon="3.47291">
        <ele>58.144421</ele>
        <time>2023-12-30T16:01:31.000Z</time>
      </trkpt>
      <trkpt lat="43.43546" lon="3.47295">
        <ele>58.19851</ele>
        <time>2023-12-30T16:01:32.000Z</time>
      </trkpt>
      <trkpt lat="43.43546" lon="3.473">
        <ele>58.248884</ele>
        <time>2023-12-30T16:01:33.000Z</time>
      </trkpt>
      <trkpt lat="43.43545" lon="3.47305">
        <ele>58.301891</ele>
        <time>2023-12-30T16:01:34.000Z</time>
      </trkpt>
      <trkpt lat="43.43545" lon="3.4731">
        <ele>58.35598</ele>
        <time>2023-12-30T16:01:35.000Z</time>
      </trkpt>
      <trkpt lat="43.43544" lon="3.47315">
        <ele>58.414091</ele>
        <time>2023-12-30T16:01:36.000Z</time>
      </trkpt>
      <trkpt lat="43.43544" lon="3.47321">
        <ele>58.477777</ele>
        <time>2023-12-30T16:01:37.000Z</time>
      </trkpt>
      <trkpt lat="43.43544" lon="3.47326">
        <ele>58.537112</ele>
        <time>2023-12-30T16:01:38.000Z</time>
      </trkpt>
      <trkpt lat="43.43543" lon="3.47331">
        <ele>58.591201</ele>
        <time>2023-12-30T16:01:39.000Z</time>
      </trkpt>
      <trkpt lat="43.43543" lon="3.47336">
        <ele>58.641844</ele>
        <time>2023-12-30T16:01:40.000Z</time>
      </trkpt>
      <trkpt lat="43.43542" lon="3.47341">
        <ele>58.695597</ele>
        <time>2023-12-30T16:01:41.000Z</time>
      </trkpt>
      <trkpt lat="43.43542" lon="3.47346">
        <ele>58.753708</ele>
        <time>2023-12-30T16:01:42.000Z</time>
      </trkpt>
      <trkpt lat="43.43542" lon="3.47351">
        <ele>58.811663</ele>
        <time>2023-12-30T16:01:43.000Z</time>
      </trkpt>
      <trkpt lat="43.43542" lon="3.47357">
        <ele>58.870768</ele>
        <time>2023-12-30T16:01:44.000Z</time>
      </trkpt>
      <trkpt lat="43.43543" lon="3.47362">
        <ele>58.93324</ele>
        <time>2023-12-30T16:01:45.000Z</time>
      </trkpt>
      <trkpt lat="43.43543" lon="3.47367">
        <ele>58.985404</ele>
        <time>2023-12-30T16:01:46.000Z</time>
      </trkpt>
      <trkpt lat="43.43544" lon="3.47371">
        <ele>59.033713</ele>
        <time>2023-12-30T16:01:47.000Z</time>
      </trkpt>
      <trkpt lat="43.43545" lon="3.47375">
        <ele>59.077013</ele>
        <time>2023-12-30T16:01:48.000Z</time>
      </trkpt>
      <trkpt lat="43.43546" lon="3.47378">
        <ele>59.120501</ele>
        <time>2023-12-30T16:01:49.000Z</time>
      </trkpt>
      <trkpt lat="43.43548" lon="3.47382">
        <ele>59.166639</ele>
        <time>2023-12-30T16:01:50.000Z</time>
      </trkpt>
      <trkpt lat="43.4355" lon="3.47386">
        <ele>59.216362</ele>
        <time>2023-12-30T16:01:51.000Z</time>
      </trkpt>
      <trkpt lat="43.43551" lon="3.4739">
        <ele>59.266282</ele>
        <time>2023-12-30T16:01:52.000Z</time>
      </trkpt>
      <trkpt lat="43.43553" lon="3.47394">
        <ele>59.318128</ele>
        <time>2023-12-30T16:01:53.000Z</time>
      </trkpt>
      <trkpt lat="43.43554" lon="3.47398">
        <ele>59.369737</ele>
        <time>2023-12-30T16:01:54.000Z</time>
      </trkpt>
      <trkpt lat="43.43556" lon="3.47402">
        <ele>59.414377</ele>
        <time>2023-12-30T16:01:55.000Z</time>
      </trkpt>
      <trkpt lat="43.43557" lon="3.47405">
        <ele>59.452566</ele>
        <time>2023-12-30T16:01:56.000Z</time>
      </trkpt>
      <trkpt lat="43.43558" lon="3.47408">
        <ele>59.49457</ele>
        <time>2023-12-30T16:01:57.000Z</time>
      </trkpt>
      <trkpt lat="43.4356" lon="3.47411">
        <ele>59.528412</ele>
        <time>2023-12-30T16:01:58.000Z</time>
      </trkpt>
      <trkpt lat="43.43561" lon="3.47414">
        <ele>59.565492</ele>
        <time>2023-12-30T16:01:59.000Z</time>
      </trkpt>
      <trkpt lat="43.43562" lon="3.47418">
        <ele>59.606606</ele>
        <time>2023-12-30T16:02:00.000Z</time>
      </trkpt>
      <trkpt lat="43.43562" lon="3.47421">
        <ele>59.646164</ele>
        <time>2023-12-30T16:02:01.000Z</time>
      </trkpt>
      <trkpt lat="43.43564" lon="3.47425">
        <ele>59.692082</ele>
        <time>2023-12-30T16:02:02.000Z</time>
      </trkpt>
      <trkpt lat="43.43565" lon="3.47429">
        <ele>59.743691</ele>
        <time>2023-12-30T16:02:03.000Z</time>
      </trkpt>
      <trkpt lat="43.43567" lon="3.47432">
        <ele>59.790633</ele>
        <time>2023-12-30T16:02:04.000Z</time>
      </trkpt>
      <trkpt lat="43.43569" lon="3.47436">
        <ele>59.837619</ele>
        <time>2023-12-30T16:02:05.000Z</time>
      </trkpt>
      <trkpt lat="43.43571" lon="3.47439">
        <ele>59.882948</ele>
        <time>2023-12-30T16:02:06.000Z</time>
      </trkpt>
      <trkpt lat="43.43574" lon="3.47442">
        <ele>59.931457</ele>
        <time>2023-12-30T16:02:07.000Z</time>
      </trkpt>
      <trkpt lat="43.43576" lon="3.47444">
        <ele>59.978109</ele>
        <time>2023-12-30T16:02:08.000Z</time>
      </trkpt>
      <trkpt lat="43.43579" lon="3.47446">
        <ele>60.025555</ele>
        <time>2023-12-30T16:02:09.000Z</time>
      </trkpt>
      <trkpt lat="43.43582" lon="3.47447">
        <ele>60.069099</ele>
        <time>2023-12-30T16:02:10.000Z</time>
      </trkpt>
      <trkpt lat="43.43584" lon="3.47448">
        <ele>60.110044</ele>
        <time>2023-12-30T16:02:11.000Z</time>
      </trkpt>
      <trkpt lat="43.43587" lon="3.4745">
        <ele>60.154292</ele>
        <time>2023-12-30T16:02:12.000Z</time>
      </trkpt>
      <trkpt lat="43.4359" lon="3.47452">
        <ele>60.198375</ele>
        <time>2023-12-30T16:02:13.000Z</time>
      </trkpt>
      <trkpt lat="43.43592" lon="3.47453">
        <ele>60.241658</ele>
        <time>2023-12-30T16:02:14.000Z</time>
      </trkpt>
      <trkpt lat="43.43595" lon="3.47454">
        <ele>60.282015</ele>
        <time>2023-12-30T16:02:15.000Z</time>
      </trkpt>
      <trkpt lat="43.43597" lon="3.47454">
        <ele>60.320419</ele>
        <time>2023-12-30T16:02:16.000Z</time>
      </trkpt>
      <trkpt lat="43.436" lon="3.47455">
        <ele>60.362508</ele>
        <time>2023-12-30T16:02:17.000Z</time>
      </trkpt>
      <trkpt lat="43.43603" lon="3.47456">
        <ele>60.403146</ele>
        <time>2023-12-30T16:02:18.000Z</time>
      </trkpt>
      <trkpt lat="43.43606" lon="3.47457">
        <ele>60.450838</ele>
        <time>2023-12-30T16:02:19.000Z</time>
      </trkpt>
      <trkpt lat="43.43609" lon="3.47458">
        <ele>60.501703</ele>
        <time>2023-12-30T16:02:20.000Z</time>
      </trkpt>
      <trkpt lat="43.43612" lon="3.47459">
        <ele>60.550662</ele>
        <time>2023-12-30T16:02:21.000Z</time>
      </trkpt>
      <trkpt lat="43.43615" lon="3.4746">
        <ele>60.597127</ele>
        <time>2023-12-30T16:02:22.000Z</time>
      </trkpt>
      <trkpt lat="43.43619" lon="3.47461">
        <ele>60.648507</ele>
        <time>2023-12-30T16:02:23.000Z</time>
      </trkpt>
      <trkpt lat="43.43622" lon="3.47463">
        <ele>60.699051</ele>
        <time>2023-12-30T16:02:24.000Z</time>
      </trkpt>
      <trkpt lat="43.43624" lon="3.47465">
        <ele>60.739999</ele>
        <time>2023-12-30T16:02:25.000Z</time>
      </trkpt>
      <trkpt lat="43.43627" lon="3.47465">
        <ele>60.787313</ele>
        <time>2023-12-30T16:02:26.000Z</time>
      </trkpt>
      <trkpt lat="43.43629" lon="3.47466">
        <ele>60.843081</ele>
        <time>2023-12-30T16:02:27.000Z</time>
      </trkpt>
      <trkpt lat="43.43632" lon="3.47467">
        <ele>60.898118</ele>
        <time>2023-12-30T16:02:28.000Z</time>
      </trkpt>
      <trkpt lat="43.43635" lon="3.47468">
        <ele>60.963089</ele>
        <time>2023-12-30T16:02:29.000Z</time>
      </trkpt>
      <trkpt lat="43.43638" lon="3.47469">
        <ele>61.022488</ele>
        <time>2023-12-30T16:02:30.000Z</time>
      </trkpt>
      <trkpt lat="43.43641" lon="3.4747">
        <ele>61.089434</ele>
        <time>2023-12-30T16:02:31.000Z</time>
      </trkpt>
      <trkpt lat="43.43644" lon="3.47472">
        <ele>61.163661</ele>
        <time>2023-12-30T16:02:32.000Z</time>
      </trkpt>
      <trkpt lat="43.43648" lon="3.47474">
        <ele>61.241267</ele>
        <time>2023-12-30T16:02:33.000Z</time>
      </trkpt>
      <trkpt lat="43.43651" lon="3.47477">
        <ele>61.319075</ele>
        <time>2023-12-30T16:02:34.000Z</time>
      </trkpt>
      <trkpt lat="43.43654" lon="3.47479">
        <ele>61.387291</ele>
        <time>2023-12-30T16:02:35.000Z</time>
      </trkpt>
      <trkpt lat="43.43657" lon="3.4748">
        <ele>61.460603</ele>
        <time>2023-12-30T16:02:36.000Z</time>
      </trkpt>
      <trkpt lat="43.43661" lon="3.47482">
        <ele>61.537583</ele>
        <time>2023-12-30T16:02:37.000Z</time>
      </trkpt>
      <trkpt lat="43.43664" lon="3.47485">
        <ele>61.617207</ele>
        <time>2023-12-30T16:02:38.000Z</time>
      </trkpt>
      <trkpt lat="43.43668" lon="3.47487">
        <ele>61.698078</ele>
        <time>2023-12-30T16:02:39.000Z</time>
      </trkpt>
      <trkpt lat="43.4367" lon="3.4749">
        <ele>61.769564</ele>
        <time>2023-12-30T16:02:40.000Z</time>
      </trkpt>
      <trkpt lat="43.43673" lon="3.47493">
        <ele>61.837626</ele>
        <time>2023-12-30T16:02:41.000Z</time>
      </trkpt>
      <trkpt lat="43.43675" lon="3.47495">
        <ele>61.897186</ele>
        <time>2023-12-30T16:02:42.000Z</time>
      </trkpt>
      <trkpt lat="43.43677" lon="3.47498">
        <ele>61.956104</ele>
        <time>2023-12-30T16:02:43.000Z</time>
      </trkpt>
      <trkpt lat="43.4368" lon="3.47501">
        <ele>62.022589</ele>
        <time>2023-12-30T16:02:44.000Z</time>
      </trkpt>
      <trkpt lat="43.43682" lon="3.47503">
        <ele>62.078388</ele>
        <time>2023-12-30T16:02:45.000Z</time>
      </trkpt>
      <trkpt lat="43.43684" lon="3.47506">
        <ele>62.137739</ele>
        <time>2023-12-30T16:02:46.000Z</time>
      </trkpt>
      <trkpt lat="43.43686" lon="3.47509">
        <ele>62.198832</ele>
        <time>2023-12-30T16:02:47.000Z</time>
      </trkpt>
      <trkpt lat="43.43688" lon="3.47512">
        <ele>62.268895</ele>
        <time>2023-12-30T16:02:48.000Z</time>
      </trkpt>
      <trkpt lat="43.43691" lon="3.47515">
        <ele>62.333876</ele>
        <time>2023-12-30T16:02:49.000Z</time>
      </trkpt>
      <trkpt lat="43.43693" lon="3.47518">
        <ele>62.400835</ele>
        <time>2023-12-30T16:02:50.000Z</time>
      </trkpt>
      <trkpt lat="43.43696" lon="3.47521">
        <ele>62.466421</ele>
        <time>2023-12-30T16:02:51.000Z</time>
      </trkpt>
      <trkpt lat="43.43698" lon="3.47523">
        <ele>62.531141</ele>
        <time>2023-12-30T16:02:52.000Z</time>
      </trkpt>
      <trkpt lat="43.43701" lon="3.47526">
        <ele>62.593307</ele>
        <time>2023-12-30T16:02:53.000Z</time>
      </trkpt>
      <trkpt lat="43.43703" lon="3.47528">
        <ele>62.659173</ele>
        <time>2023-12-30T16:02:54.000Z</time>
      </trkpt>
      <trkpt lat="43.43706" lon="3.4753">
        <ele>62.725561</ele>
        <time>2023-12-30T16:02:55.000Z</time>
      </trkpt>
      <trkpt lat="43.43709" lon="3.47532">
        <ele>62.791148</ele>
        <time>2023-12-30T16:02:56.000Z</time>
      </trkpt>
      <trkpt lat="43.43712" lon="3.47535">
        <ele>62.860671</ele>
        <time>2023-12-30T16:02:57.000Z</time>
      </trkpt>
      <trkpt lat="43.43715" lon="3.47537">
        <ele>62.936675</ele>
        <time>2023-12-30T16:02:58.000Z</time>
      </trkpt>
      <trkpt lat="43.43718" lon="3.47539">
        <ele>63.00116</ele>
        <time>2023-12-30T16:02:59.000Z</time>
      </trkpt>
      <trkpt lat="43.4372" lon="3.47541">
        <ele>63.062683</ele>
        <time>2023-12-30T16:03:00.000Z</time>
      </trkpt>
      <trkpt lat="43.43723" lon="3.47543">
        <ele>63.123974</ele>
        <time>2023-12-30T16:03:01.000Z</time>
      </trkpt>
      <trkpt lat="43.43726" lon="3.47545">
        <ele>63.18984</ele>
        <time>2023-12-30T16:03:02.000Z</time>
      </trkpt>
      <trkpt lat="43.43728" lon="3.47547">
        <ele>63.251171</ele>
        <time>2023-12-30T16:03:03.000Z</time>
      </trkpt>
      <trkpt lat="43.43731" lon="3.47549">
        <ele>63.31571</ele>
        <time>2023-12-30T16:03:04.000Z</time>
      </trkpt>
      <trkpt lat="43.43734" lon="3.47551">
        <ele>63.380872</ele>
        <time>2023-12-30T16:03:05.000Z</time>
      </trkpt>
      <trkpt lat="43.43737" lon="3.47553">
        <ele>63.450394</ele>
        <time>2023-12-30T16:03:06.000Z</time>
      </trkpt>
      <trkpt lat="43.4374" lon="3.47555">
        <ele>63.522439</ele>
        <time>2023-12-30T16:03:07.000Z</time>
      </trkpt>
      <trkpt lat="43.43743" lon="3.47557">
        <ele>63.59381</ele>
        <time>2023-12-30T16:03:08.000Z</time>
      </trkpt>
      <trkpt lat="43.43747" lon="3.47559">
        <ele>63.667039</ele>
        <time>2023-12-30T16:03:09.000Z</time>
      </trkpt>
      <trkpt lat="43.4375" lon="3.47562">
        <ele>63.739478</ele>
        <time>2023-12-30T16:03:10.000Z</time>
      </trkpt>
      <trkpt lat="43.43753" lon="3.47564">
        <ele>63.811523</ele>
        <time>2023-12-30T16:03:11.000Z</time>
      </trkpt>
      <trkpt lat="43.43756" lon="3.47566">
        <ele>63.885411</ele>
        <time>2023-12-30T16:03:12.000Z</time>
      </trkpt>
      <trkpt lat="43.43759" lon="3.47568">
        <ele>63.953098</ele>
        <time>2023-12-30T16:03:13.000Z</time>
      </trkpt>
      <trkpt lat="43.43762" lon="3.4757">
        <ele>64.019442</ele>
        <time>2023-12-30T16:03:14.000Z</time>
      </trkpt>
      <trkpt lat="43.43764" lon="3.47572">
        <ele>64.078431</ele>
        <time>2023-12-30T16:03:15.000Z</time>
      </trkpt>
      <trkpt lat="43.43767" lon="3.47574">
        <ele>64.14683</ele>
        <time>2023-12-30T16:03:16.000Z</time>
      </trkpt>
      <trkpt lat="43.4377" lon="3.47577">
        <ele>64.215767</ele>
        <time>2023-12-30T16:03:17.000Z</time>
      </trkpt>
      <trkpt lat="43.43773" lon="3.47579">
        <ele>64.279102</ele>
        <time>2023-12-30T16:03:18.000Z</time>
      </trkpt>
      <trkpt lat="43.43775" lon="3.4758">
        <ele>64.344816</ele>
        <time>2023-12-30T16:03:19.000Z</time>
      </trkpt>
      <trkpt lat="43.43778" lon="3.47583">
        <ele>64.411412</ele>
        <time>2023-12-30T16:03:20.000Z</time>
      </trkpt>
      <trkpt lat="43.43781" lon="3.47585">
        <ele>64.48255</ele>
        <time>2023-12-30T16:03:21.000Z</time>
      </trkpt>
      <trkpt lat="43.43784" lon="3.47587">
        <ele>64.540957</ele>
        <time>2023-12-30T16:03:22.000Z</time>
      </trkpt>
      <trkpt lat="43.43787" lon="3.47588">
        <ele>64.595751</ele>
        <time>2023-12-30T16:03:23.000Z</time>
      </trkpt>
      <trkpt lat="43.4379" lon="3.4759">
        <ele>64.646123</ele>
        <time>2023-12-30T16:03:24.000Z</time>
      </trkpt>
      <trkpt lat="43.43792" lon="3.47592">
        <ele>64.697597</ele>
        <time>2023-12-30T16:03:25.000Z</time>
      </trkpt>
      <trkpt lat="43.43795" lon="3.47594">
        <ele>64.753862</ele>
        <time>2023-12-30T16:03:26.000Z</time>
      </trkpt>
      <trkpt lat="43.43798" lon="3.47595">
        <ele>64.809611</ele>
        <time>2023-12-30T16:03:27.000Z</time>
      </trkpt>
      <trkpt lat="43.43801" lon="3.47597">
        <ele>64.866065</ele>
        <time>2023-12-30T16:03:28.000Z</time>
      </trkpt>
      <trkpt lat="43.43804" lon="3.47598">
        <ele>64.918755</ele>
        <time>2023-12-30T16:03:29.000Z</time>
      </trkpt>
      <trkpt lat="43.43807" lon="3.47599">
        <ele>64.967606</ele>
        <time>2023-12-30T16:03:30.000Z</time>
      </trkpt>
      <trkpt lat="43.4381" lon="3.476">
        <ele>65.024926</ele>
        <time>2023-12-30T16:03:31.000Z</time>
      </trkpt>
      <trkpt lat="43.43813" lon="3.47602">
        <ele>65.077192</ele>
        <time>2023-12-30T16:03:32.000Z</time>
      </trkpt>
      <trkpt lat="43.43815" lon="3.47603">
        <ele>65.123364</ele>
        <time>2023-12-30T16:03:33.000Z</time>
      </trkpt>
      <trkpt lat="43.43817" lon="3.47605">
        <ele>65.173659</ele>
        <time>2023-12-30T16:03:34.000Z</time>
      </trkpt>
      <trkpt lat="43.4382" lon="3.47608">
        <ele>65.227635</ele>
        <time>2023-12-30T16:03:35.000Z</time>
      </trkpt>
      <trkpt lat="43.43822" lon="3.4761">
        <ele>65.283832</ele>
        <time>2023-12-30T16:03:36.000Z</time>
      </trkpt>
      <trkpt lat="43.43825" lon="3.47613">
        <ele>65.332688</ele>
        <time>2023-12-30T16:03:37.000Z</time>
      </trkpt>
      <trkpt lat="43.43827" lon="3.47615">
        <ele>65.382227</ele>
        <time>2023-12-30T16:03:38.000Z</time>
      </trkpt>
      <trkpt lat="43.43829" lon="3.47617">
        <ele>65.426713</ele>
        <time>2023-12-30T16:03:39.000Z</time>
      </trkpt>
      <trkpt lat="43.43831" lon="3.4762">
        <ele>65.475569</ele>
        <time>2023-12-30T16:03:40.000Z</time>
      </trkpt>
      <trkpt lat="43.43833" lon="3.47622">
        <ele>65.517102</ele>
        <time>2023-12-30T16:03:41.000Z</time>
      </trkpt>
      <trkpt lat="43.43834" lon="3.47623">
        <ele>65.554997</ele>
        <time>2023-12-30T16:03:42.000Z</time>
      </trkpt>
      <trkpt lat="43.43836" lon="3.47624">
        <ele>65.592524</ele>
        <time>2023-12-30T16:03:43.000Z</time>
      </trkpt>
      <trkpt lat="43.43838" lon="3.47625">
        <ele>65.621465</ele>
        <time>2023-12-30T16:03:44.000Z</time>
      </trkpt>
      <trkpt lat="43.4384" lon="3.47626">
        <ele>65.65568</ele>
        <time>2023-12-30T16:03:45.000Z</time>
      </trkpt>
      <trkpt lat="43.43842" lon="3.47626">
        <ele>65.692848</ele>
        <time>2023-12-30T16:03:46.000Z</time>
      </trkpt>
      <trkpt lat="43.43844" lon="3.47626">
        <ele>65.733612</ele>
        <time>2023-12-30T16:03:47.000Z</time>
      </trkpt>
      <trkpt lat="43.43847" lon="3.47626">
        <ele>65.779601</ele>
        <time>2023-12-30T16:03:48.000Z</time>
      </trkpt>
      <trkpt lat="43.43849" lon="3.47625">
        <ele>65.826232</ele>
        <time>2023-12-30T16:03:49.000Z</time>
      </trkpt>
      <trkpt lat="43.43852" lon="3.47624">
        <ele>65.871939</ele>
        <time>2023-12-30T16:03:50.000Z</time>
      </trkpt>
      <trkpt lat="43.43854" lon="3.47623">
        <ele>65.918361</ele>
        <time>2023-12-30T16:03:51.000Z</time>
      </trkpt>
      <trkpt lat="43.43856" lon="3.47622">
        <ele>65.958103</ele>
        <time>2023-12-30T16:03:52.000Z</time>
      </trkpt>
      <trkpt lat="43.43859" lon="3.47621">
        <ele>65.998319</ele>
        <time>2023-12-30T16:03:53.000Z</time>
      </trkpt>
      <trkpt lat="43.4386" lon="3.4762">
        <ele>66.032108</ele>
        <time>2023-12-30T16:03:54.000Z</time>
      </trkpt>
      <trkpt lat="43.43862" lon="3.47619">
        <ele>66.06806</ele>
        <time>2023-12-30T16:03:55.000Z</time>
      </trkpt>
      <trkpt lat="43.43864" lon="3.47617">
        <ele>66.105273</ele>
        <time>2023-12-30T16:03:56.000Z</time>
      </trkpt>
      <trkpt lat="43.43866" lon="3.47615">
        <ele>66.144666</ele>
        <time>2023-12-30T16:03:57.000Z</time>
      </trkpt>
      <trkpt lat="43.43868" lon="3.47614">
        <ele>66.180039</ele>
        <time>2023-12-30T16:03:58.000Z</time>
      </trkpt>
      <trkpt lat="43.43869" lon="3.47613">
        <ele>66.215075</ele>
        <time>2023-12-30T16:03:59.000Z</time>
      </trkpt>
      <trkpt lat="43.43871" lon="3.47612">
        <ele>66.252602</ele>
        <time>2023-12-30T16:04:00.000Z</time>
      </trkpt>
      <trkpt lat="43.43873" lon="3.4761">
        <ele>66.291721</ele>
        <time>2023-12-30T16:04:01.000Z</time>
      </trkpt>
      <trkpt lat="43.43875" lon="3.47609">
        <ele>66.328286</ele>
        <time>2023-12-30T16:04:02.000Z</time>
      </trkpt>
      <trkpt lat="43.43877" lon="3.47607">
        <ele>66.375079</ele>
        <time>2023-12-30T16:04:03.000Z</time>
      </trkpt>
      <trkpt lat="43.4388" lon="3.47605">
        <ele>66.427556</ele>
        <time>2023-12-30T16:04:04.000Z</time>
      </trkpt>
      <trkpt lat="43.43882" lon="3.47604">
        <ele>66.468956</ele>
        <time>2023-12-30T16:04:05.000Z</time>
      </trkpt>
      <trkpt lat="43.43884" lon="3.47603">
        <ele>66.508895</ele>
        <time>2023-12-30T16:04:06.000Z</time>
      </trkpt>
      <trkpt lat="43.43886" lon="3.47602">
        <ele>66.545733</ele>
        <time>2023-12-30T16:04:07.000Z</time>
      </trkpt>
      <trkpt lat="43.43888" lon="3.47602">
        <ele>66.579439</ele>
        <time>2023-12-30T16:04:08.000Z</time>
      </trkpt>
      <trkpt lat="43.4389" lon="3.47602">
        <ele>66.618353</ele>
        <time>2023-12-30T16:04:09.000Z</time>
      </trkpt>
      <trkpt lat="43.43893" lon="3.47603">
        <ele>66.65954</ele>
        <time>2023-12-30T16:04:10.000Z</time>
      </trkpt>
      <trkpt lat="43.43895" lon="3.47604">
        <ele>66.705963</ele>
        <time>2023-12-30T16:04:11.000Z</time>
      </trkpt>
      <trkpt lat="43.43897" lon="3.47605">
        <ele>66.750584</ele>
        <time>2023-12-30T16:04:12.000Z</time>
      </trkpt>
      <trkpt lat="43.43899" lon="3.47607">
        <ele>66.786027</ele>
        <time>2023-12-30T16:04:13.000Z</time>
      </trkpt>
      <trkpt lat="43.43899" lon="3.4761">
        <ele>66.817653</ele>
        <time>2023-12-30T16:04:14.000Z</time>
      </trkpt>
      <trkpt lat="43.43899" lon="3.47612">
        <ele>66.846038</ele>
        <time>2023-12-30T16:04:15.000Z</time>
      </trkpt>
      <trkpt lat="43.439" lon="3.47613">
        <ele>66.866961</ele>
        <time>2023-12-30T16:04:16.000Z</time>
      </trkpt>
      <trkpt lat="43.43901" lon="3.47615">
        <ele>66.890976</ele>
        <time>2023-12-30T16:04:17.000Z</time>
      </trkpt>
      <trkpt lat="43.43902" lon="3.47616">
        <ele>66.915253</ele>
        <time>2023-12-30T16:04:18.000Z</time>
      </trkpt>
      <trkpt lat="43.43902" lon="3.47618">
        <ele>66.941482</ele>
        <time>2023-12-30T16:04:19.000Z</time>
      </trkpt>
      <trkpt lat="43.43903" lon="3.47621">
        <ele>66.974787</ele>
        <time>2023-12-30T16:04:20.000Z</time>
      </trkpt>
      <trkpt lat="43.43903" lon="3.47623">
        <ele>67.006065</ele>
        <time>2023-12-30T16:04:21.000Z</time>
      </trkpt>
      <trkpt lat="43.43903" lon="3.47625">
        <ele>67.031038</ele>
        <time>2023-12-30T16:04:22.000Z</time>
      </trkpt>
      <trkpt lat="43.43904" lon="3.47626">
        <ele>67.047706</ele>
        <time>2023-12-30T16:04:23.000Z</time>
      </trkpt>
      <trkpt lat="43.43904" lon="3.47628">
        <ele>67.06893</ele>
        <time>2023-12-30T16:04:24.000Z</time>
      </trkpt>
      <trkpt lat="43.43904" lon="3.4763">
        <ele>67.095573</ele>
        <time>2023-12-30T16:04:25.000Z</time>
      </trkpt>
      <trkpt lat="43.43905" lon="3.47631">
        <ele>67.11985</ele>
        <time>2023-12-30T16:04:26.000Z</time>
      </trkpt>
      <trkpt lat="43.43905" lon="3.47633">
        <ele>67.142802</ele>
        <time>2023-12-30T16:04:27.000Z</time>
      </trkpt>
      <trkpt lat="43.43905" lon="3.47635">
        <ele>67.164708</ele>
        <time>2023-12-30T16:04:28.000Z</time>
      </trkpt>
      <trkpt lat="43.43906" lon="3.47636">
        <ele>67.185333</ele>
        <time>2023-12-30T16:04:29.000Z</time>
      </trkpt>
      <trkpt lat="43.43906" lon="3.47638">
        <ele>67.207452</ele>
        <time>2023-12-30T16:04:30.000Z</time>
      </trkpt>
      <trkpt lat="43.43906" lon="3.47639">
        <ele>67.224519</ele>
        <time>2023-12-30T16:04:31.000Z</time>
      </trkpt>
      <trkpt lat="43.43906" lon="3.47641">
        <ele>67.249272</ele>
        <time>2023-12-30T16:04:32.000Z</time>
      </trkpt>
      <trkpt lat="43.43907" lon="3.47644">
        <ele>67.280147</ele>
        <time>2023-12-30T16:04:33.000Z</time>
      </trkpt>
      <trkpt lat="43.43907" lon="3.47646">
        <ele>67.315186</ele>
        <time>2023-12-30T16:04:34.000Z</time>
      </trkpt>
      <trkpt lat="43.43907" lon="3.47649">
        <ele>67.347344</ele>
        <time>2023-12-30T16:04:35.000Z</time>
      </trkpt>
      <trkpt lat="43.43907" lon="3.47652">
        <ele>67.383479</ele>
        <time>2023-12-30T16:04:36.000Z</time>
      </trkpt>
      <trkpt lat="43.43908" lon="3.47656">
        <ele>67.437813</ele>
        <time>2023-12-30T16:04:37.000Z</time>
      </trkpt>
      <trkpt lat="43.4391" lon="3.4766">
        <ele>67.499349</ele>
        <time>2023-12-30T16:04:38.000Z</time>
      </trkpt>
      <trkpt lat="43.4391" lon="3.47664">
        <ele>67.557605</ele>
        <time>2023-12-30T16:04:39.000Z</time>
      </trkpt>
      <trkpt lat="43.43911" lon="3.47669">
        <ele>67.617108</ele>
        <time>2023-12-30T16:04:40.000Z</time>
      </trkpt>
      <trkpt lat="43.43912" lon="3.47673">
        <ele>67.673577</ele>
        <time>2023-12-30T16:04:41.000Z</time>
      </trkpt>
      <trkpt lat="43.43913" lon="3.47677">
        <ele>67.726104</ele>
        <time>2023-12-30T16:04:42.000Z</time>
      </trkpt>
      <trkpt lat="43.43914" lon="3.47681">
        <ele>67.77725</ele>
        <time>2023-12-30T16:04:43.000Z</time>
      </trkpt>
      <trkpt lat="43.43915" lon="3.47685">
        <ele>67.827512</ele>
        <time>2023-12-30T16:04:44.000Z</time>
      </trkpt>
      <trkpt lat="43.43915" lon="3.47689">
        <ele>67.874245</ele>
        <time>2023-12-30T16:04:45.000Z</time>
      </trkpt>
      <trkpt lat="43.43916" lon="3.47693">
        <ele>67.920638</ele>
        <time>2023-12-30T16:04:46.000Z</time>
      </trkpt>
      <trkpt lat="43.43917" lon="3.47697">
        <ele>67.969339</ele>
        <time>2023-12-30T16:04:47.000Z</time>
      </trkpt>
      <trkpt lat="43.43918" lon="3.477">
        <ele>68.014236</ele>
        <time>2023-12-30T16:04:48.000Z</time>
      </trkpt>
      <trkpt lat="43.43919" lon="3.47703">
        <ele>68.060749</ele>
        <time>2023-12-30T16:04:49.000Z</time>
      </trkpt>
      <trkpt lat="43.4392" lon="3.47706">
        <ele>68.103296</ele>
        <time>2023-12-30T16:04:50.000Z</time>
      </trkpt>
      <trkpt lat="43.43922" lon="3.4771">
        <ele>68.148027</ele>
        <time>2023-12-30T16:04:51.000Z</time>
      </trkpt>
      <trkpt lat="43.43923" lon="3.47713">
        <ele>68.193733</ele>
        <time>2023-12-30T16:04:52.000Z</time>
      </trkpt>
      <trkpt lat="43.43925" lon="3.47715">
        <ele>68.241491</ele>
        <time>2023-12-30T16:04:53.000Z</time>
      </trkpt>
      <trkpt lat="43.43927" lon="3.47718">
        <ele>68.284614</ele>
        <time>2023-12-30T16:04:54.000Z</time>
      </trkpt>
      <trkpt lat="43.43929" lon="3.47719">
        <ele>68.322305</ele>
        <time>2023-12-30T16:04:55.000Z</time>
      </trkpt>
      <trkpt lat="43.43931" lon="3.4772">
        <ele>68.355558</ele>
        <time>2023-12-30T16:04:56.000Z</time>
      </trkpt>
      <trkpt lat="43.43933" lon="3.47721">
        <ele>68.386514</ele>
        <time>2023-12-30T16:04:57.000Z</time>
      </trkpt>
      <trkpt lat="43.43935" lon="3.47722">
        <ele>68.426624</ele>
        <time>2023-12-30T16:04:58.000Z</time>
      </trkpt>
      <trkpt lat="43.43937" lon="3.47723">
        <ele>68.461446</ele>
        <time>2023-12-30T16:04:59.000Z</time>
      </trkpt>
      <trkpt lat="43.4394" lon="3.47724">
        <ele>68.506829</ele>
        <time>2023-12-30T16:05:00.000Z</time>
      </trkpt>
      <trkpt lat="43.43942" lon="3.47725">
        <ele>68.550646</ele>
        <time>2023-12-30T16:05:01.000Z</time>
      </trkpt>
      <trkpt lat="43.43945" lon="3.47727">
        <ele>68.593783</ele>
        <time>2023-12-30T16:05:02.000Z</time>
      </trkpt>
      <trkpt lat="43.43947" lon="3.47728">
        <ele>68.636429</ele>
        <time>2023-12-30T16:05:03.000Z</time>
      </trkpt>
      <trkpt lat="43.43949" lon="3.4773">
        <ele>68.678047</ele>
        <time>2023-12-30T16:05:04.000Z</time>
      </trkpt>
      <trkpt lat="43.43951" lon="3.47731">
        <ele>68.716327</ele>
        <time>2023-12-30T16:05:05.000Z</time>
      </trkpt>
      <trkpt lat="43.43953" lon="3.47733">
        <ele>68.745037</ele>
        <time>2023-12-30T16:05:06.000Z</time>
      </trkpt>
      <trkpt lat="43.43955" lon="3.47734">
        <ele>68.776653</ele>
        <time>2023-12-30T16:05:07.000Z</time>
      </trkpt>
      <trkpt lat="43.43956" lon="3.47735">
        <ele>68.805508</ele>
        <time>2023-12-30T16:05:08.000Z</time>
      </trkpt>
      <trkpt lat="43.43958" lon="3.47738">
        <ele>68.844115</ele>
        <time>2023-12-30T16:05:09.000Z</time>
      </trkpt>
      <trkpt lat="43.43959" lon="3.4774">
        <ele>68.876229</ele>
        <time>2023-12-30T16:05:10.000Z</time>
      </trkpt>
      <trkpt lat="43.4396" lon="3.47742">
        <ele>68.907602</ele>
        <time>2023-12-30T16:05:11.000Z</time>
      </trkpt>
      <trkpt lat="43.43962" lon="3.47744">
        <ele>68.945879</ele>
        <time>2023-12-30T16:05:12.000Z</time>
      </trkpt>
      <trkpt lat="43.43964" lon="3.47746">
        <ele>68.991592</ele>
        <time>2023-12-30T16:05:13.000Z</time>
      </trkpt>
      <trkpt lat="43.43966" lon="3.47748">
        <ele>69.034543</ele>
        <time>2023-12-30T16:05:14.000Z</time>
      </trkpt>
      <trkpt lat="43.43968" lon="3.47749">
        <ele>69.064686</ele>
        <time>2023-12-30T16:05:15.000Z</time>
      </trkpt>
      <trkpt lat="43.4397" lon="3.47749">
        <ele>69.091275</ele>
        <time>2023-12-30T16:05:16.000Z</time>
      </trkpt>
      <trkpt lat="43.43971" lon="3.47749">
        <ele>69.122812</ele>
        <time>2023-12-30T16:05:17.000Z</time>
      </trkpt>
      <trkpt lat="43.43975" lon="3.47748">
        <ele>69.175828</ele>
        <time>2023-12-30T16:05:18.000Z</time>
      </trkpt>
      <trkpt lat="43.43978" lon="3.47748">
        <ele>69.237358</ele>
        <time>2023-12-30T16:05:19.000Z</time>
      </trkpt>
      <trkpt lat="43.43982" lon="3.47747">
        <ele>69.302306</ele>
        <time>2023-12-30T16:05:20.000Z</time>
      </trkpt>
      <trkpt lat="43.43986" lon="3.47746">
        <ele>69.357761</ele>
        <time>2023-12-30T16:05:21.000Z</time>
      </trkpt>
      <trkpt lat="43.43989" lon="3.47745">
        <ele>69.411755</ele>
        <time>2023-12-30T16:05:22.000Z</time>
      </trkpt>
      <trkpt lat="43.43992" lon="3.47743">
        <ele>69.468099</ele>
        <time>2023-12-30T16:05:23.000Z</time>
      </trkpt>
      <trkpt lat="43.43995" lon="3.47742">
        <ele>69.526</ele>
        <time>2023-12-30T16:05:24.000Z</time>
      </trkpt>
      <trkpt lat="43.43998" lon="3.47741">
        <ele>69.58126</ele>
        <time>2023-12-30T16:05:25.000Z</time>
      </trkpt>
      <trkpt lat="43.44002" lon="3.4774">
        <ele>69.633955</ele>
        <time>2023-12-30T16:05:26.000Z</time>
      </trkpt>
      <trkpt lat="43.44005" lon="3.47739">
        <ele>69.68477</ele>
        <time>2023-12-30T16:05:27.000Z</time>
      </trkpt>
      <trkpt lat="43.44008" lon="3.47738">
        <ele>69.738824</ele>
        <time>2023-12-30T16:05:28.000Z</time>
      </trkpt>
      <trkpt lat="43.44011" lon="3.47738">
        <ele>69.788996</ele>
        <time>2023-12-30T16:05:29.000Z</time>
      </trkpt>
      <trkpt lat="43.44013" lon="3.47737">
        <ele>69.832081</ele>
        <time>2023-12-30T16:05:30.000Z</time>
      </trkpt>
      <trkpt lat="43.44016" lon="3.47736">
        <ele>69.885908</ele>
        <time>2023-12-30T16:05:31.000Z</time>
      </trkpt>
      <trkpt lat="43.44019" lon="3.47735">
        <ele>69.932181</ele>
        <time>2023-12-30T16:05:32.000Z</time>
      </trkpt>
      <trkpt lat="43.44022" lon="3.47734">
        <ele>69.979509</ele>
        <time>2023-12-30T16:05:33.000Z</time>
      </trkpt>
      <trkpt lat="43.44025" lon="3.47733">
        <ele>70.025217</ele>
        <time>2023-12-30T16:05:34.000Z</time>
      </trkpt>
      <trkpt lat="43.44028" lon="3.47733">
        <ele>70.075576</ele>
        <time>2023-12-30T16:05:35.000Z</time>
      </trkpt>
      <trkpt lat="43.4403" lon="3.47732">
        <ele>70.122903</ele>
        <time>2023-12-30T16:05:36.000Z</time>
      </trkpt>
      <trkpt lat="43.44033" lon="3.47731">
        <ele>70.171631</ele>
        <time>2023-12-30T16:05:37.000Z</time>
      </trkpt>
      <trkpt lat="43.44036" lon="3.47731">
        <ele>70.213076</ele>
        <time>2023-12-30T16:05:38.000Z</time>
      </trkpt>
      <trkpt lat="43.44039" lon="3.4773">
        <ele>70.263435</ele>
        <time>2023-12-30T16:05:39.000Z</time>
      </trkpt>
      <trkpt lat="43.44042" lon="3.4773">
        <ele>70.310163</ele>
        <time>2023-12-30T16:05:40.000Z</time>
      </trkpt>
      <trkpt lat="43.44045" lon="3.4773">
        <ele>70.35822</ele>
        <time>2023-12-30T16:05:41.000Z</time>
      </trkpt>
      <trkpt lat="43.44047" lon="3.4773">
        <ele>70.406215</ele>
        <time>2023-12-30T16:05:42.000Z</time>
      </trkpt>
      <trkpt lat="43.4405" lon="3.47729">
        <ele>70.452572</ele>
        <time>2023-12-30T16:05:43.000Z</time>
      </trkpt>
      <trkpt lat="43.44053" lon="3.4773">
        <ele>70.498928</ele>
        <time>2023-12-30T16:05:44.000Z</time>
      </trkpt>
      <trkpt lat="43.44056" lon="3.47729">
        <ele>70.547164</ele>
        <time>2023-12-30T16:05:45.000Z</time>
      </trkpt>
      <trkpt lat="43.44059" lon="3.47729">
        <ele>70.595175</ele>
        <time>2023-12-30T16:05:46.000Z</time>
      </trkpt>
      <trkpt lat="43.44062" lon="3.47729">
        <ele>70.646967</ele>
        <time>2023-12-30T16:05:47.000Z</time>
      </trkpt>
      <trkpt lat="43.44064" lon="3.47729">
        <ele>70.755218</ele>
        <time>2023-12-30T16:05:48.000Z</time>
      </trkpt>
      <trkpt lat="43.44067" lon="3.47729">
        <ele>70.866814</ele>
        <time>2023-12-30T16:05:49.000Z</time>
      </trkpt>
      <trkpt lat="43.4407" lon="3.47729">
        <ele>70.962179</ele>
        <time>2023-12-30T16:05:50.000Z</time>
      </trkpt>
      <trkpt lat="43.44072" lon="3.47729">
        <ele>71.069504</ele>
        <time>2023-12-30T16:05:51.000Z</time>
      </trkpt>
      <trkpt lat="43.44075" lon="3.47729">
        <ele>71.188745</ele>
        <time>2023-12-30T16:05:52.000Z</time>
      </trkpt>
      <trkpt lat="43.44078" lon="3.47729">
        <ele>71.29242</ele>
        <time>2023-12-30T16:05:53.000Z</time>
      </trkpt>
      <trkpt lat="43.44081" lon="3.47729">
        <ele>71.399745</ele>
        <time>2023-12-30T16:05:54.000Z</time>
      </trkpt>
      <trkpt lat="43.44083" lon="3.47728">
        <ele>71.51134</ele>
        <time>2023-12-30T16:05:55.000Z</time>
      </trkpt>
      <trkpt lat="43.44086" lon="3.47728">
        <ele>71.610679</ele>
        <time>2023-12-30T16:05:56.000Z</time>
      </trkpt>
      <trkpt lat="43.44088" lon="3.47728">
        <ele>71.71006</ele>
        <time>2023-12-30T16:05:57.000Z</time>
      </trkpt>
      <trkpt lat="43.44091" lon="3.47728">
        <ele>71.797526</ele>
        <time>2023-12-30T16:05:58.000Z</time>
      </trkpt>
      <trkpt lat="43.44093" lon="3.47728">
        <ele>71.893065</ele>
        <time>2023-12-30T16:05:59.000Z</time>
      </trkpt>
      <trkpt lat="43.44096" lon="3.47729">
        <ele>72.014486</ele>
        <time>2023-12-30T16:06:00.000Z</time>
      </trkpt>
      <trkpt lat="43.44099" lon="3.4773">
        <ele>72.143234</ele>
        <time>2023-12-30T16:06:01.000Z</time>
      </trkpt>
      <trkpt lat="43.44102" lon="3.47731">
        <ele>72.254331</ele>
        <time>2023-12-30T16:06:02.000Z</time>
      </trkpt>
      <trkpt lat="43.44104" lon="3.47732">
        <ele>72.348593</ele>
        <time>2023-12-30T16:06:03.000Z</time>
      </trkpt>
      <trkpt lat="43.44106" lon="3.47733">
        <ele>72.441299</ele>
        <time>2023-12-30T16:06:04.000Z</time>
      </trkpt>
      <trkpt lat="43.44109" lon="3.47734">
        <ele>72.539029</ele>
        <time>2023-12-30T16:06:05.000Z</time>
      </trkpt>
      <trkpt lat="43.4411" lon="3.47735">
        <ele>72.61979</ele>
        <time>2023-12-30T16:06:06.000Z</time>
      </trkpt>
      <trkpt lat="43.44112" lon="3.47737">
        <ele>72.706812</ele>
        <time>2023-12-30T16:06:07.000Z</time>
      </trkpt>
      <trkpt lat="43.44114" lon="3.47739">
        <ele>72.811654</ele>
        <time>2023-12-30T16:06:08.000Z</time>
      </trkpt>
      <trkpt lat="43.44116" lon="3.47742">
        <ele>72.919188</ele>
        <time>2023-12-30T16:06:09.000Z</time>
      </trkpt>
      <trkpt lat="43.44117" lon="3.47745">
        <ele>73.020543</ele>
        <time>2023-12-30T16:06:10.000Z</time>
      </trkpt>
      <trkpt lat="43.44118" lon="3.47749">
        <ele>73.122504</ele>
        <time>2023-12-30T16:06:11.000Z</time>
      </trkpt>
      <trkpt lat="43.44118" lon="3.47752">
        <ele>73.220599</ele>
        <time>2023-12-30T16:06:12.000Z</time>
      </trkpt>
      <trkpt lat="43.44117" lon="3.47755">
        <ele>73.314263</ele>
        <time>2023-12-30T16:06:13.000Z</time>
      </trkpt>
      <trkpt lat="43.44117" lon="3.47758">
        <ele>73.390229</ele>
        <time>2023-12-30T16:06:14.000Z</time>
      </trkpt>
      <trkpt lat="43.44116" lon="3.4776">
        <ele>73.458464</ele>
        <time>2023-12-30T16:06:15.000Z</time>
      </trkpt>
      <trkpt lat="43.44116" lon="3.47762">
        <ele>73.51677</ele>
        <time>2023-12-30T16:06:16.000Z</time>
      </trkpt>
      <trkpt lat="43.44115" lon="3.47764">
        <ele>73.584573</ele>
        <time>2023-12-30T16:06:17.000Z</time>
      </trkpt>
      <trkpt lat="43.44114" lon="3.47766">
        <ele>73.655561</ele>
        <time>2023-12-30T16:06:18.000Z</time>
      </trkpt>
      <trkpt lat="43.44114" lon="3.47768">
        <ele>73.713868</ele>
        <time>2023-12-30T16:06:19.000Z</time>
      </trkpt>
      <trkpt lat="43.44113" lon="3.47771">
        <ele>73.804781</ele>
        <time>2023-12-30T16:06:20.000Z</time>
      </trkpt>
      <trkpt lat="43.44113" lon="3.47773">
        <ele>73.863702</ele>
        <time>2023-12-30T16:06:21.000Z</time>
      </trkpt>
      <trkpt lat="43.44113" lon="3.47776">
        <ele>73.94737</ele>
        <time>2023-12-30T16:06:22.000Z</time>
      </trkpt>
      <trkpt lat="43.44113" lon="3.47779">
        <ele>74.028251</ele>
        <time>2023-12-30T16:06:23.000Z</time>
      </trkpt>
      <trkpt lat="43.44113" lon="3.47782">
        <ele>74.109425</ele>
        <time>2023-12-30T16:06:24.000Z</time>
      </trkpt>
      <trkpt lat="43.44113" lon="3.47785">
        <ele>74.196343</ele>
        <time>2023-12-30T16:06:25.000Z</time>
      </trkpt>
      <trkpt lat="43.44113" lon="3.47787">
        <ele>74.281508</ele>
        <time>2023-12-30T16:06:26.000Z</time>
      </trkpt>
      <trkpt lat="43.44113" lon="3.47789">
        <ele>74.336325</ele>
        <time>2023-12-30T16:06:27.000Z</time>
      </trkpt>
      <trkpt lat="43.44114" lon="3.47792">
        <ele>74.42149</ele>
        <time>2023-12-30T16:06:28.000Z</time>
      </trkpt>
      <trkpt lat="43.44114" lon="3.47795">
        <ele>74.505625</ele>
        <time>2023-12-30T16:06:29.000Z</time>
      </trkpt>
      <trkpt lat="43.44115" lon="3.47798">
        <ele>74.583224</ele>
        <time>2023-12-30T16:06:30.000Z</time>
      </trkpt>
      <trkpt lat="43.44116" lon="3.47801">
        <ele>74.676875</ele>
        <time>2023-12-30T16:06:31.000Z</time>
      </trkpt>
      <trkpt lat="43.44117" lon="3.47803">
        <ele>74.761276</ele>
        <time>2023-12-30T16:06:32.000Z</time>
      </trkpt>
      <trkpt lat="43.44118" lon="3.47805">
        <ele>74.840098</ele>
        <time>2023-12-30T16:06:33.000Z</time>
      </trkpt>
      <trkpt lat="43.44119" lon="3.47808">
        <ele>74.920605</ele>
        <time>2023-12-30T16:06:34.000Z</time>
      </trkpt>
      <trkpt lat="43.4412" lon="3.4781">
        <ele>75.002318</ele>
        <time>2023-12-30T16:06:35.000Z</time>
      </trkpt>
      <trkpt lat="43.44121" lon="3.47812">
        <ele>75.086718</ele>
        <time>2023-12-30T16:06:36.000Z</time>
      </trkpt>
      <trkpt lat="43.44123" lon="3.47815">
        <ele>75.168603</ele>
        <time>2023-12-30T16:06:37.000Z</time>
      </trkpt>
      <trkpt lat="43.44123" lon="3.47817">
        <ele>75.242182</ele>
        <time>2023-12-30T16:06:38.000Z</time>
      </trkpt>
      <trkpt lat="43.44124" lon="3.47819">
        <ele>75.310602</ele>
        <time>2023-12-30T16:06:39.000Z</time>
      </trkpt>
      <trkpt lat="43.44125" lon="3.47821">
        <ele>75.387669</ele>
        <time>2023-12-30T16:06:40.000Z</time>
      </trkpt>
      <trkpt lat="43.44126" lon="3.47824">
        <ele>75.475116</ele>
        <time>2023-12-30T16:06:41.000Z</time>
      </trkpt>
      <trkpt lat="43.44127" lon="3.47826">
        <ele>75.551082</ele>
        <time>2023-12-30T16:06:42.000Z</time>
      </trkpt>
      <trkpt lat="43.44127" lon="3.47829">
        <ele>75.626515</ele>
        <time>2023-12-30T16:06:43.000Z</time>
      </trkpt>
      <trkpt lat="43.44127" lon="3.47831">
        <ele>75.694749</ele>
        <time>2023-12-30T16:06:44.000Z</time>
      </trkpt>
      <trkpt lat="43.44128" lon="3.47834">
        <ele>75.773554</ele>
        <time>2023-12-30T16:06:45.000Z</time>
      </trkpt>
      <trkpt lat="43.44128" lon="3.47837">
        <ele>75.865173</ele>
        <time>2023-12-30T16:06:46.000Z</time>
      </trkpt>
      <trkpt lat="43.44129" lon="3.47841">
        <ele>75.972298</ele>
        <time>2023-12-30T16:06:47.000Z</time>
      </trkpt>
      <trkpt lat="43.4413" lon="3.47844">
        <ele>76.079689</ele>
        <time>2023-12-30T16:06:48.000Z</time>
      </trkpt>
      <trkpt lat="43.44131" lon="3.47848">
        <ele>76.196604</ele>
        <time>2023-12-30T16:06:49.000Z</time>
      </trkpt>
      <trkpt lat="43.44133" lon="3.4785">
        <ele>76.287345</ele>
        <time>2023-12-30T16:06:50.000Z</time>
      </trkpt>
      <trkpt lat="43.44135" lon="3.47852">
        <ele>76.38563</ele>
        <time>2023-12-30T16:06:51.000Z</time>
      </trkpt>
      <trkpt lat="43.44138" lon="3.47854">
        <ele>76.497093</ele>
        <time>2023-12-30T16:06:52.000Z</time>
      </trkpt>
      <trkpt lat="43.4414" lon="3.47856">
        <ele>76.590393</ele>
        <time>2023-12-30T16:06:53.000Z</time>
      </trkpt>
      <trkpt lat="43.44141" lon="3.47858">
        <ele>76.703088</ele>
        <time>2023-12-30T16:06:54.000Z</time>
      </trkpt>
      <trkpt lat="43.44143" lon="3.47861">
        <ele>76.785341</ele>
        <time>2023-12-30T16:06:55.000Z</time>
      </trkpt>
      <trkpt lat="43.44144" lon="3.47863">
        <ele>76.88589</ele>
        <time>2023-12-30T16:06:56.000Z</time>
      </trkpt>
      <trkpt lat="43.44146" lon="3.47866">
        <ele>76.993369</ele>
        <time>2023-12-30T16:06:57.000Z</time>
      </trkpt>
      <trkpt lat="43.44148" lon="3.47871">
        <ele>77.13657</ele>
        <time>2023-12-30T16:06:58.000Z</time>
      </trkpt>
      <trkpt lat="43.44149" lon="3.47874">
        <ele>77.262896</ele>
        <time>2023-12-30T16:06:59.000Z</time>
      </trkpt>
      <trkpt lat="43.44151" lon="3.47877">
        <ele>77.358619</ele>
        <time>2023-12-30T16:07:00.000Z</time>
      </trkpt>
      <trkpt lat="43.44153" lon="3.4788">
        <ele>77.473472</ele>
        <time>2023-12-30T16:07:01.000Z</time>
      </trkpt>
      <trkpt lat="43.44154" lon="3.47883">
        <ele>77.587869</ele>
        <time>2023-12-30T16:07:02.000Z</time>
      </trkpt>
      <trkpt lat="43.44156" lon="3.47886">
        <ele>77.700151</ele>
        <time>2023-12-30T16:07:03.000Z</time>
      </trkpt>
      <trkpt lat="43.44158" lon="3.47889">
        <ele>77.790223</ele>
        <time>2023-12-30T16:07:04.000Z</time>
      </trkpt>
      <trkpt lat="43.4416" lon="3.47891">
        <ele>77.818898</ele>
        <time>2023-12-30T16:07:05.000Z</time>
      </trkpt>
      <trkpt lat="43.44162" lon="3.47894">
        <ele>77.850265</ele>
        <time>2023-12-30T16:07:06.000Z</time>
      </trkpt>
      <trkpt lat="43.44164" lon="3.47896">
        <ele>77.879205</ele>
        <time>2023-12-30T16:07:07.000Z</time>
      </trkpt>
      <trkpt lat="43.44165" lon="3.47898">
        <ele>77.906152</ele>
        <time>2023-12-30T16:07:08.000Z</time>
      </trkpt>
      <trkpt lat="43.44167" lon="3.479">
        <ele>77.931112</ele>
        <time>2023-12-30T16:07:09.000Z</time>
      </trkpt>
      <trkpt lat="43.44169" lon="3.47902">
        <ele>77.956838</ele>
        <time>2023-12-30T16:07:10.000Z</time>
      </trkpt>
      <trkpt lat="43.44171" lon="3.47904">
        <ele>77.981141</ele>
        <time>2023-12-30T16:07:11.000Z</time>
      </trkpt>
      <trkpt lat="43.44172" lon="3.47905">
        <ele>78.000391</ele>
        <time>2023-12-30T16:07:12.000Z</time>
      </trkpt>
      <trkpt lat="43.44173" lon="3.47906">
        <ele>78.017043</ele>
        <time>2023-12-30T16:07:13.000Z</time>
      </trkpt>
      <trkpt lat="43.44175" lon="3.47908">
        <ele>78.043423</ele>
        <time>2023-12-30T16:07:14.000Z</time>
      </trkpt>
      <trkpt lat="43.44178" lon="3.4791">
        <ele>78.077423</ele>
        <time>2023-12-30T16:07:15.000Z</time>
      </trkpt>
      <trkpt lat="43.4418" lon="3.47911">
        <ele>78.108391</ele>
        <time>2023-12-30T16:07:16.000Z</time>
      </trkpt>
      <trkpt lat="43.44183" lon="3.47912">
        <ele>78.140344</ele>
        <time>2023-12-30T16:07:17.000Z</time>
      </trkpt>
      <trkpt lat="43.44185" lon="3.47913">
        <ele>78.169309</ele>
        <time>2023-12-30T16:07:18.000Z</time>
      </trkpt>
      <trkpt lat="43.44188" lon="3.47914">
        <ele>78.200178</ele>
        <time>2023-12-30T16:07:19.000Z</time>
      </trkpt>
      <trkpt lat="43.4419" lon="3.47916">
        <ele>78.229226</ele>
        <time>2023-12-30T16:07:20.000Z</time>
      </trkpt>
      <trkpt lat="43.44192" lon="3.47918">
        <ele>78.259204</ele>
        <time>2023-12-30T16:07:21.000Z</time>
      </trkpt>
      <trkpt lat="43.44194" lon="3.4792">
        <ele>78.288435</ele>
        <time>2023-12-30T16:07:22.000Z</time>
      </trkpt>
      <trkpt lat="43.44194" lon="3.47923">
        <ele>78.310519</ele>
        <time>2023-12-30T16:07:23.000Z</time>
      </trkpt>
      <trkpt lat="43.44195" lon="3.47925">
        <ele>78.334274</ele>
        <time>2023-12-30T16:07:24.000Z</time>
      </trkpt>
      <trkpt lat="43.44197" lon="3.47928">
        <ele>78.364159</ele>
        <time>2023-12-30T16:07:25.000Z</time>
      </trkpt>
      <trkpt lat="43.44198" lon="3.47931">
        <ele>78.393379</ele>
        <time>2023-12-30T16:07:26.000Z</time>
      </trkpt>
      <trkpt lat="43.442" lon="3.47935">
        <ele>78.428192</ele>
        <time>2023-12-30T16:07:27.000Z</time>
      </trkpt>
      <trkpt lat="43.44201" lon="3.47939">
        <ele>78.465763</ele>
        <time>2023-12-30T16:07:28.000Z</time>
      </trkpt>
      <trkpt lat="43.44203" lon="3.47942">
        <ele>78.4997</ele>
        <time>2023-12-30T16:07:29.000Z</time>
      </trkpt>
      <trkpt lat="43.44205" lon="3.47945">
        <ele>78.537466</ele>
        <time>2023-12-30T16:07:30.000Z</time>
      </trkpt>
      <trkpt lat="43.44207" lon="3.47947">
        <ele>78.567619</ele>
        <time>2023-12-30T16:07:31.000Z</time>
      </trkpt>
      <trkpt lat="43.44209" lon="3.47947">
        <ele>78.590783</ele>
        <time>2023-12-30T16:07:32.000Z</time>
      </trkpt>
      <trkpt lat="43.44211" lon="3.47946">
        <ele>78.609684</ele>
        <time>2023-12-30T16:07:33.000Z</time>
      </trkpt>
      <trkpt lat="43.44212" lon="3.47945">
        <ele>78.626621</ele>
        <time>2023-12-30T16:07:34.000Z</time>
      </trkpt>
      <trkpt lat="43.44213" lon="3.47944">
        <ele>78.642831</ele>
        <time>2023-12-30T16:07:35.000Z</time>
      </trkpt>
      <trkpt lat="43.44215" lon="3.47943">
        <ele>78.663304</ele>
        <time>2023-12-30T16:07:36.000Z</time>
      </trkpt>
      <trkpt lat="43.44216" lon="3.47941">
        <ele>78.681862</ele>
        <time>2023-12-30T16:07:37.000Z</time>
      </trkpt>
      <trkpt lat="43.44217" lon="3.4794">
        <ele>78.700029</ele>
        <time>2023-12-30T16:07:38.000Z</time>
      </trkpt>
      <trkpt lat="43.44219" lon="3.47939">
        <ele>78.719077</ele>
        <time>2023-12-30T16:07:39.000Z</time>
      </trkpt>
      <trkpt lat="43.44221" lon="3.47937">
        <ele>78.741958</ele>
        <time>2023-12-30T16:07:40.000Z</time>
      </trkpt>
      <trkpt lat="43.44222" lon="3.47936">
        <ele>78.764082</ele>
        <time>2023-12-30T16:07:41.000Z</time>
      </trkpt>
      <trkpt lat="43.44223" lon="3.47934">
        <ele>78.787064</ele>
        <time>2023-12-30T16:07:42.000Z</time>
      </trkpt>
      <trkpt lat="43.44225" lon="3.47932">
        <ele>78.809188</ele>
        <time>2023-12-30T16:07:43.000Z</time>
      </trkpt>
      <trkpt lat="43.44226" lon="3.4793">
        <ele>78.834148</ele>
        <time>2023-12-30T16:07:44.000Z</time>
      </trkpt>
      <trkpt lat="43.44228" lon="3.47927">
        <ele>78.861975</ele>
        <time>2023-12-30T16:07:45.000Z</time>
      </trkpt>
      <trkpt lat="43.44229" lon="3.47924">
        <ele>78.892431</ele>
        <time>2023-12-30T16:07:46.000Z</time>
      </trkpt>
      <trkpt lat="43.44231" lon="3.47921">
        <ele>78.923797</ele>
        <time>2023-12-30T16:07:47.000Z</time>
      </trkpt>
      <trkpt lat="43.44233" lon="3.47919">
        <ele>78.955862</ele>
        <time>2023-12-30T16:07:48.000Z</time>
      </trkpt>
      <trkpt lat="43.44234" lon="3.47916">
        <ele>78.984448</ele>
        <time>2023-12-30T16:07:49.000Z</time>
      </trkpt>
      <trkpt lat="43.44236" lon="3.47913">
        <ele>79.013657</ele>
        <time>2023-12-30T16:07:50.000Z</time>
      </trkpt>
      <trkpt lat="43.44237" lon="3.4791">
        <ele>79.042108</ele>
        <time>2023-12-30T16:07:51.000Z</time>
      </trkpt>
      <trkpt lat="43.44238" lon="3.47907">
        <ele>79.06928</ele>
        <time>2023-12-30T16:07:52.000Z</time>
      </trkpt>
      <trkpt lat="43.4424" lon="3.47905">
        <ele>79.098465</ele>
        <time>2023-12-30T16:07:53.000Z</time>
      </trkpt>
      <trkpt lat="43.44241" lon="3.47901">
        <ele>79.132448</ele>
        <time>2023-12-30T16:07:54.000Z</time>
      </trkpt>
      <trkpt lat="43.44243" lon="3.47898">
        <ele>79.16774</ele>
        <time>2023-12-30T16:07:55.000Z</time>
      </trkpt>
      <trkpt lat="43.44244" lon="3.47895">
        <ele>79.198495</ele>
        <time>2023-12-30T16:07:56.000Z</time>
      </trkpt>
      <trkpt lat="43.44246" lon="3.47891">
        <ele>79.228703</ele>
        <time>2023-12-30T16:07:57.000Z</time>
      </trkpt>
      <trkpt lat="43.44246" lon="3.47888">
        <ele>79.256423</ele>
        <time>2023-12-30T16:07:58.000Z</time>
      </trkpt>
      <trkpt lat="43.44247" lon="3.47884">
        <ele>79.290745</ele>
        <time>2023-12-30T16:07:59.000Z</time>
      </trkpt>
      <trkpt lat="43.44248" lon="3.4788">
        <ele>79.32393</ele>
        <time>2023-12-30T16:08:00.000Z</time>
      </trkpt>
      <trkpt lat="43.44249" lon="3.47876">
        <ele>79.360348</ele>
        <time>2023-12-30T16:08:01.000Z</time>
      </trkpt>
      <trkpt lat="43.4425" lon="3.47873">
        <ele>79.397073</ele>
        <time>2023-12-30T16:08:02.000Z</time>
      </trkpt>
      <trkpt lat="43.44252" lon="3.47868">
        <ele>79.438703</ele>
        <time>2023-12-30T16:08:03.000Z</time>
      </trkpt>
      <trkpt lat="43.44254" lon="3.47864">
        <ele>79.475546</ele>
        <time>2023-12-30T16:08:04.000Z</time>
      </trkpt>
      <trkpt lat="43.44255" lon="3.47861">
        <ele>79.509061</ele>
        <time>2023-12-30T16:08:05.000Z</time>
      </trkpt>
      <trkpt lat="43.44257" lon="3.47858">
        <ele>79.541716</ele>
        <time>2023-12-30T16:08:06.000Z</time>
      </trkpt>
      <trkpt lat="43.44258" lon="3.47855">
        <ele>79.573616</ele>
        <time>2023-12-30T16:08:07.000Z</time>
      </trkpt>
      <trkpt lat="43.44261" lon="3.47852">
        <ele>79.612797</ele>
        <time>2023-12-30T16:08:08.000Z</time>
      </trkpt>
      <trkpt lat="43.44262" lon="3.47848">
        <ele>79.644698</ele>
        <time>2023-12-30T16:08:09.000Z</time>
      </trkpt>
      <trkpt lat="43.44263" lon="3.47845">
        <ele>79.678598</ele>
        <time>2023-12-30T16:08:10.000Z</time>
      </trkpt>
      <trkpt lat="43.44264" lon="3.47841">
        <ele>79.710926</ele>
        <time>2023-12-30T16:08:11.000Z</time>
      </trkpt>
      <trkpt lat="43.44266" lon="3.47837">
        <ele>79.746453</ele>
        <time>2023-12-30T16:08:12.000Z</time>
      </trkpt>
      <trkpt lat="43.44267" lon="3.47834">
        <ele>79.779677</ele>
        <time>2023-12-30T16:08:13.000Z</time>
      </trkpt>
      <trkpt lat="43.44268" lon="3.4783">
        <ele>79.814152</ele>
        <time>2023-12-30T16:08:14.000Z</time>
      </trkpt>
      <trkpt lat="43.44269" lon="3.47826">
        <ele>79.847376</ele>
        <time>2023-12-30T16:08:15.000Z</time>
      </trkpt>
      <trkpt lat="43.4427" lon="3.47823">
        <ele>79.905874</ele>
        <time>2023-12-30T16:08:16.000Z</time>
      </trkpt>
      <trkpt lat="43.44272" lon="3.47819">
        <ele>80.00056</ele>
        <time>2023-12-30T16:08:17.000Z</time>
      </trkpt>
      <trkpt lat="43.44273" lon="3.47815">
        <ele>80.090821</ele>
        <time>2023-12-30T16:08:18.000Z</time>
      </trkpt>
      <trkpt lat="43.44273" lon="3.47811">
        <ele>80.180376</ele>
        <time>2023-12-30T16:08:19.000Z</time>
      </trkpt>
      <trkpt lat="43.44273" lon="3.47808">
        <ele>80.255456</ele>
        <time>2023-12-30T16:08:20.000Z</time>
      </trkpt>
      <trkpt lat="43.44273" lon="3.47804">
        <ele>80.34156</ele>
        <time>2023-12-30T16:08:21.000Z</time>
      </trkpt>
      <trkpt lat="43.44274" lon="3.478">
        <ele>80.425458</ele>
        <time>2023-12-30T16:08:22.000Z</time>
      </trkpt>
      <trkpt lat="43.44273" lon="3.47797">
        <ele>80.498333</ele>
        <time>2023-12-30T16:08:23.000Z</time>
      </trkpt>
      <trkpt lat="43.44273" lon="3.47793">
        <ele>80.573413</ele>
        <time>2023-12-30T16:08:24.000Z</time>
      </trkpt>
      <trkpt lat="43.44273" lon="3.4779">
        <ele>80.650876</ele>
        <time>2023-12-30T16:08:25.000Z</time>
      </trkpt>
      <trkpt lat="43.44273" lon="3.47787">
        <ele>80.719275</ele>
        <time>2023-12-30T16:08:26.000Z</time>
      </trkpt>
      <trkpt lat="43.44274" lon="3.47783">
        <ele>80.798174</ele>
        <time>2023-12-30T16:08:27.000Z</time>
      </trkpt>
      <trkpt lat="43.44275" lon="3.4778">
        <ele>80.881012</ele>
        <time>2023-12-30T16:08:28.000Z</time>
      </trkpt>
      <trkpt lat="43.44277" lon="3.47777">
        <ele>80.965192</ele>
        <time>2023-12-30T16:08:29.000Z</time>
      </trkpt>
      <trkpt lat="43.4428" lon="3.47775">
        <ele>81.055691</ele>
        <time>2023-12-30T16:08:30.000Z</time>
      </trkpt>
      <trkpt lat="43.44282" lon="3.47773">
        <ele>81.144122</ele>
        <time>2023-12-30T16:08:31.000Z</time>
      </trkpt>
      <trkpt lat="43.44285" lon="3.4777">
        <ele>81.237668</ele>
        <time>2023-12-30T16:08:32.000Z</time>
      </trkpt>
      <trkpt lat="43.44286" lon="3.47767">
        <ele>81.319101</ele>
        <time>2023-12-30T16:08:33.000Z</time>
      </trkpt>
      <trkpt lat="43.44286" lon="3.47763">
        <ele>81.400598</ele>
        <time>2023-12-30T16:08:34.000Z</time>
      </trkpt>
      <trkpt lat="43.44286" lon="3.4776">
        <ele>81.471113</ele>
        <time>2023-12-30T16:08:35.000Z</time>
      </trkpt>
      <trkpt lat="43.44285" lon="3.47758">
        <ele>81.52818</ele>
        <time>2023-12-30T16:08:36.000Z</time>
      </trkpt>
      <trkpt lat="43.44284" lon="3.47756">
        <ele>81.58354</ele>
        <time>2023-12-30T16:08:37.000Z</time>
      </trkpt>
      <trkpt lat="43.44283" lon="3.47754">
        <ele>81.642503</ele>
        <time>2023-12-30T16:08:38.000Z</time>
      </trkpt>
      <trkpt lat="43.44281" lon="3.47752">
        <ele>81.703271</ele>
        <time>2023-12-30T16:08:39.000Z</time>
      </trkpt>
      <trkpt lat="43.4428" lon="3.47749">
        <ele>81.780047</ele>
        <time>2023-12-30T16:08:40.000Z</time>
      </trkpt>
      <trkpt lat="43.44279" lon="3.47746">
        <ele>81.856886</ele>
        <time>2023-12-30T16:08:41.000Z</time>
      </trkpt>
      <trkpt lat="43.44277" lon="3.47743">
        <ele>81.935504</ele>
        <time>2023-12-30T16:08:42.000Z</time>
      </trkpt>
      <trkpt lat="43.44275" lon="3.47741">
        <ele>82.005785</ele>
        <time>2023-12-30T16:08:43.000Z</time>
      </trkpt>
      <trkpt lat="43.44274" lon="3.47738">
        <ele>82.077206</ele>
        <time>2023-12-30T16:08:44.000Z</time>
      </trkpt>
      <trkpt lat="43.44273" lon="3.47736">
        <ele>82.137486</ele>
        <time>2023-12-30T16:08:45.000Z</time>
      </trkpt>
      <trkpt lat="43.44272" lon="3.47733">
        <ele>82.201781</ele>
        <time>2023-12-30T16:08:46.000Z</time>
      </trkpt>
      <trkpt lat="43.44271" lon="3.4773">
        <ele>82.281629</ele>
        <time>2023-12-30T16:08:47.000Z</time>
      </trkpt>
      <trkpt lat="43.44271" lon="3.47726">
        <ele>82.356709</ele>
        <time>2023-12-30T16:08:48.000Z</time>
      </trkpt>
      <trkpt lat="43.44271" lon="3.47723">
        <ele>82.438572</ele>
        <time>2023-12-30T16:08:49.000Z</time>
      </trkpt>
      <trkpt lat="43.44271" lon="3.47719">
        <ele>82.529086</ele>
        <time>2023-12-30T16:08:50.000Z</time>
      </trkpt>
      <trkpt lat="43.44271" lon="3.47715">
        <ele>82.61095</ele>
        <time>2023-12-30T16:08:51.000Z</time>
      </trkpt>
      <trkpt lat="43.44271" lon="3.47711">
        <ele>82.68871</ele>
        <time>2023-12-30T16:08:52.000Z</time>
      </trkpt>
      <trkpt lat="43.44272" lon="3.47708">
        <ele>82.760354</ele>
        <time>2023-12-30T16:08:53.000Z</time>
      </trkpt>
      <trkpt lat="43.44272" lon="3.47705">
        <ele>82.831985</ele>
        <time>2023-12-30T16:08:54.000Z</time>
      </trkpt>
      <trkpt lat="43.44273" lon="3.47702">
        <ele>82.907248</ele>
        <time>2023-12-30T16:08:55.000Z</time>
      </trkpt>
      <trkpt lat="43.44273" lon="3.47699">
        <ele>82.976252</ele>
        <time>2023-12-30T16:08:56.000Z</time>
      </trkpt>
      <trkpt lat="43.44273" lon="3.47696">
        <ele>83.044651</ele>
        <time>2023-12-30T16:08:57.000Z</time>
      </trkpt>
      <trkpt lat="43.44273" lon="3.47692">
        <ele>83.115517</ele>
        <time>2023-12-30T16:08:58.000Z</time>
      </trkpt>
      <trkpt lat="43.44274" lon="3.47689">
        <ele>83.187137</ele>
        <time>2023-12-30T16:08:59.000Z</time>
      </trkpt>
      <trkpt lat="43.44275" lon="3.47686">
        <ele>83.266485</ele>
        <time>2023-12-30T16:09:00.000Z</time>
      </trkpt>
      <trkpt lat="43.44275" lon="3.47682">
        <ele>83.347446</ele>
        <time>2023-12-30T16:09:01.000Z</time>
      </trkpt>
      <trkpt lat="43.44277" lon="3.47679">
        <ele>83.4216</ele>
        <time>2023-12-30T16:09:02.000Z</time>
      </trkpt>
      <trkpt lat="43.44278" lon="3.47676">
        <ele>83.501718</ele>
        <time>2023-12-30T16:09:03.000Z</time>
      </trkpt>
      <trkpt lat="43.44278" lon="3.47673">
        <ele>83.575458</ele>
        <time>2023-12-30T16:09:04.000Z</time>
      </trkpt>
      <trkpt lat="43.44279" lon="3.4767">
        <ele>83.649123</ele>
        <time>2023-12-30T16:09:05.000Z</time>
      </trkpt>
      <trkpt lat="43.4428" lon="3.47667">
        <ele>83.721713</ele>
        <time>2023-12-30T16:09:06.000Z</time>
      </trkpt>
      <trkpt lat="43.44282" lon="3.47664">
        <ele>83.803909</ele>
        <time>2023-12-30T16:09:07.000Z</time>
      </trkpt>
      <trkpt lat="43.44283" lon="3.4766">
        <ele>83.881422</ele>
        <time>2023-12-30T16:09:08.000Z</time>
      </trkpt>
      <trkpt lat="43.44283" lon="3.47658">
        <ele>83.943723</ele>
        <time>2023-12-30T16:09:09.000Z</time>
      </trkpt>
      <trkpt lat="43.44284" lon="3.47655">
        <ele>84.008137</ele>
        <time>2023-12-30T16:09:10.000Z</time>
      </trkpt>
      <trkpt lat="43.44285" lon="3.47652">
        <ele>84.075566</ele>
        <time>2023-12-30T16:09:11.000Z</time>
      </trkpt>
      <trkpt lat="43.44285" lon="3.4765">
        <ele>84.115299</ele>
        <time>2023-12-30T16:09:12.000Z</time>
      </trkpt>
      <trkpt lat="43.44286" lon="3.47649">
        <ele>84.158163</ele>
        <time>2023-12-30T16:09:13.000Z</time>
      </trkpt>
      <trkpt lat="43.44287" lon="3.47646">
        <ele>84.217283</ele>
        <time>2023-12-30T16:09:14.000Z</time>
      </trkpt>
      <trkpt lat="43.44287" lon="3.47644">
        <ele>84.273766</ele>
        <time>2023-12-30T16:09:15.000Z</time>
      </trkpt>
      <trkpt lat="43.44288" lon="3.47642">
        <ele>84.327571</ele>
        <time>2023-12-30T16:09:16.000Z</time>
      </trkpt>
      <trkpt lat="43.44289" lon="3.4764">
        <ele>84.384705</ele>
        <time>2023-12-30T16:09:17.000Z</time>
      </trkpt>
      <trkpt lat="43.4429" lon="3.47637">
        <ele>84.436557</ele>
        <time>2023-12-30T16:09:18.000Z</time>
      </trkpt>
      <trkpt lat="43.4429" lon="3.47635">
        <ele>84.489555</ele>
        <time>2023-12-30T16:09:19.000Z</time>
      </trkpt>
      <trkpt lat="43.44291" lon="3.47633">
        <ele>84.538015</ele>
        <time>2023-12-30T16:09:20.000Z</time>
      </trkpt>
      <trkpt lat="43.44292" lon="3.47631">
        <ele>84.589</ele>
        <time>2023-12-30T16:09:21.000Z</time>
      </trkpt>
      <trkpt lat="43.44293" lon="3.47629">
        <ele>84.651977</ele>
        <time>2023-12-30T16:09:22.000Z</time>
      </trkpt>
      <trkpt lat="43.44294" lon="3.47626">
        <ele>84.711576</ele>
        <time>2023-12-30T16:09:23.000Z</time>
      </trkpt>
      <trkpt lat="43.44295" lon="3.47624">
        <ele>84.769225</ele>
        <time>2023-12-30T16:09:24.000Z</time>
      </trkpt>
      <trkpt lat="43.44295" lon="3.47621">
        <ele>84.838751</ele>
        <time>2023-12-30T16:09:25.000Z</time>
      </trkpt>
      <trkpt lat="43.44296" lon="3.47619">
        <ele>84.897019</ele>
        <time>2023-12-30T16:09:26.000Z</time>
      </trkpt>
      <trkpt lat="43.44297" lon="3.47616">
        <ele>84.958499</ele>
        <time>2023-12-30T16:09:27.000Z</time>
      </trkpt>
      <trkpt lat="43.44297" lon="3.47613">
        <ele>85.021462</ele>
        <time>2023-12-30T16:09:28.000Z</time>
      </trkpt>
      <trkpt lat="43.44298" lon="3.47611">
        <ele>85.080807</ele>
        <time>2023-12-30T16:09:29.000Z</time>
      </trkpt>
      <trkpt lat="43.44299" lon="3.47608">
        <ele>85.14837</ele>
        <time>2023-12-30T16:09:30.000Z</time>
      </trkpt>
      <trkpt lat="43.44299" lon="3.47605">
        <ele>85.21067</ele>
        <time>2023-12-30T16:09:31.000Z</time>
      </trkpt>
      <trkpt lat="43.443" lon="3.47602">
        <ele>85.284489</ele>
        <time>2023-12-30T16:09:32.000Z</time>
      </trkpt>
      <trkpt lat="43.443" lon="3.47598">
        <ele>85.323625</ele>
        <time>2023-12-30T16:09:33.000Z</time>
      </trkpt>
      <trkpt lat="43.44301" lon="3.47596">
        <ele>85.315552</ele>
        <time>2023-12-30T16:09:34.000Z</time>
      </trkpt>
      <trkpt lat="43.44302" lon="3.47593">
        <ele>85.308456</ele>
        <time>2023-12-30T16:09:35.000Z</time>
      </trkpt>
      <trkpt lat="43.44303" lon="3.4759">
        <ele>85.29865</ele>
        <time>2023-12-30T16:09:36.000Z</time>
      </trkpt>
      <trkpt lat="43.44303" lon="3.47587">
        <ele>85.29109</ele>
        <time>2023-12-30T16:09:37.000Z</time>
      </trkpt>
      <trkpt lat="43.44304" lon="3.47585">
        <ele>85.28371</ele>
        <time>2023-12-30T16:09:38.000Z</time>
      </trkpt>
      <trkpt lat="43.44304" lon="3.47582">
        <ele>85.275342</ele>
        <time>2023-12-30T16:09:39.000Z</time>
      </trkpt>
      <trkpt lat="43.44304" lon="3.47579">
        <ele>85.268169</ele>
        <time>2023-12-30T16:09:40.000Z</time>
      </trkpt>
      <trkpt lat="43.44305" lon="3.47576">
        <ele>85.2594</ele>
        <time>2023-12-30T16:09:41.000Z</time>
      </trkpt>
      <trkpt lat="43.44306" lon="3.47572">
        <ele>85.249175</ele>
        <time>2023-12-30T16:09:42.000Z</time>
      </trkpt>
      <trkpt lat="43.44306" lon="3.47569">
        <ele>85.240373</ele>
        <time>2023-12-30T16:09:43.000Z</time>
      </trkpt>
      <trkpt lat="43.44307" lon="3.47567">
        <ele>85.232626</ele>
        <time>2023-12-30T16:09:44.000Z</time>
      </trkpt>
      <trkpt lat="43.44308" lon="3.47563">
        <ele>85.222224</ele>
        <time>2023-12-30T16:09:45.000Z</time>
      </trkpt>
      <trkpt lat="43.44308" lon="3.4756">
        <ele>85.212792</ele>
        <time>2023-12-30T16:09:46.000Z</time>
      </trkpt>
      <trkpt lat="43.44309" lon="3.47556">
        <ele>85.203765</ele>
        <time>2023-12-30T16:09:47.000Z</time>
      </trkpt>
      <trkpt lat="43.4431" lon="3.47554">
        <ele>85.195745</ele>
        <time>2023-12-30T16:09:48.000Z</time>
      </trkpt>
      <trkpt lat="43.44311" lon="3.47551">
        <ele>85.187998</ele>
        <time>2023-12-30T16:09:49.000Z</time>
      </trkpt>
      <trkpt lat="43.44312" lon="3.47549">
        <ele>85.179596</ele>
        <time>2023-12-30T16:09:50.000Z</time>
      </trkpt>
      <trkpt lat="43.44313" lon="3.47546">
        <ele>85.17134</ele>
        <time>2023-12-30T16:09:51.000Z</time>
      </trkpt>
      <trkpt lat="43.44314" lon="3.47543">
        <ele>85.163684</ele>
        <time>2023-12-30T16:09:52.000Z</time>
      </trkpt>
      <trkpt lat="43.44315" lon="3.47541">
        <ele>85.155782</ele>
        <time>2023-12-30T16:09:53.000Z</time>
      </trkpt>
      <trkpt lat="43.44316" lon="3.47538">
        <ele>85.146884</ele>
        <time>2023-12-30T16:09:54.000Z</time>
      </trkpt>
      <trkpt lat="43.44318" lon="3.47536">
        <ele>85.137027</ele>
        <time>2023-12-30T16:09:55.000Z</time>
      </trkpt>
      <trkpt lat="43.4432" lon="3.47533">
        <ele>85.127473</ele>
        <time>2023-12-30T16:09:56.000Z</time>
      </trkpt>
      <trkpt lat="43.44321" lon="3.4753">
        <ele>85.117347</ele>
        <time>2023-12-30T16:09:57.000Z</time>
      </trkpt>
      <trkpt lat="43.44322" lon="3.47526">
        <ele>85.107286</ele>
        <time>2023-12-30T16:09:58.000Z</time>
      </trkpt>
      <trkpt lat="43.44324" lon="3.47523">
        <ele>85.095939</ele>
        <time>2023-12-30T16:09:59.000Z</time>
      </trkpt>
      <trkpt lat="43.44324" lon="3.47519">
        <ele>85.085448</ele>
        <time>2023-12-30T16:10:00.000Z</time>
      </trkpt>
      <trkpt lat="43.44324" lon="3.47516">
        <ele>85.075838</ele>
        <time>2023-12-30T16:10:01.000Z</time>
      </trkpt>
      <trkpt lat="43.44324" lon="3.47512">
        <ele>85.06651</ele>
        <time>2023-12-30T16:10:02.000Z</time>
      </trkpt>
      <trkpt lat="43.44324" lon="3.47509">
        <ele>85.058599</ele>
        <time>2023-12-30T16:10:03.000Z</time>
      </trkpt>
      <trkpt lat="43.44323" lon="3.47507">
        <ele>85.050688</ele>
        <time>2023-12-30T16:10:04.000Z</time>
      </trkpt>
      <trkpt lat="43.44323" lon="3.47504">
        <ele>85.043983</ele>
        <time>2023-12-30T16:10:05.000Z</time>
      </trkpt>
      <trkpt lat="43.44322" lon="3.47502">
        <ele>85.038137</ele>
        <time>2023-12-30T16:10:06.000Z</time>
      </trkpt>
      <trkpt lat="43.44321" lon="3.47501">
        <ele>85.032837</ele>
        <time>2023-12-30T16:10:07.000Z</time>
      </trkpt>
      <trkpt lat="43.44321" lon="3.475">
        <ele>85.029355</ele>
        <time>2023-12-30T16:10:08.000Z</time>
      </trkpt>
      <trkpt lat="43.44321" lon="3.47498">
        <ele>85.023307</ele>
        <time>2023-12-30T16:10:09.000Z</time>
      </trkpt>
      <trkpt lat="43.4432" lon="3.47496">
        <ele>85.016407</ele>
        <time>2023-12-30T16:10:10.000Z</time>
      </trkpt>
      <trkpt lat="43.4432" lon="3.47493">
        <ele>85.008038</ele>
        <time>2023-12-30T16:10:11.000Z</time>
      </trkpt>
      <trkpt lat="43.44319" lon="3.47489">
        <ele>84.998753</ele>
        <time>2023-12-30T16:10:12.000Z</time>
      </trkpt>
      <trkpt lat="43.44318" lon="3.47486">
        <ele>84.989114</ele>
        <time>2023-12-30T16:10:13.000Z</time>
      </trkpt>
      <trkpt lat="43.44317" lon="3.47482">
        <ele>84.97667</ele>
        <time>2023-12-30T16:10:14.000Z</time>
      </trkpt>
      <trkpt lat="43.44316" lon="3.47476">
        <ele>84.960472</ele>
        <time>2023-12-30T16:10:15.000Z</time>
      </trkpt>
      <trkpt lat="43.44315" lon="3.4747">
        <ele>84.943228</ele>
        <time>2023-12-30T16:10:16.000Z</time>
      </trkpt>
      <trkpt lat="43.44314" lon="3.47464">
        <ele>84.924889</ele>
        <time>2023-12-30T16:10:17.000Z</time>
      </trkpt>
      <trkpt lat="43.44312" lon="3.47458">
        <ele>84.906775</ele>
        <time>2023-12-30T16:10:18.000Z</time>
      </trkpt>
      <trkpt lat="43.4431" lon="3.47452">
        <ele>84.889968</ele>
        <time>2023-12-30T16:10:19.000Z</time>
      </trkpt>
      <trkpt lat="43.44308" lon="3.47446">
        <ele>84.870449</ele>
        <time>2023-12-30T16:10:20.000Z</time>
      </trkpt>
      <trkpt lat="43.44305" lon="3.4744">
        <ele>84.851776</ele>
        <time>2023-12-30T16:10:21.000Z</time>
      </trkpt>
      <trkpt lat="43.44301" lon="3.47436">
        <ele>84.834495</ele>
        <time>2023-12-30T16:10:22.000Z</time>
      </trkpt>
      <trkpt lat="43.44297" lon="3.47432">
        <ele>84.815508</ele>
        <time>2023-12-30T16:10:23.000Z</time>
      </trkpt>
      <trkpt lat="43.44293" lon="3.47429">
        <ele>84.797502</ele>
        <time>2023-12-30T16:10:24.000Z</time>
      </trkpt>
      <trkpt lat="43.44289" lon="3.47427">
        <ele>84.78074</ele>
        <time>2023-12-30T16:10:25.000Z</time>
      </trkpt>
      <trkpt lat="43.44285" lon="3.47425">
        <ele>84.765555</ele>
        <time>2023-12-30T16:10:26.000Z</time>
      </trkpt>
      <trkpt lat="43.44281" lon="3.47424">
        <ele>84.750458</ele>
        <time>2023-12-30T16:10:27.000Z</time>
      </trkpt>
      <trkpt lat="43.44277" lon="3.47422">
        <ele>84.733915</ele>
        <time>2023-12-30T16:10:28.000Z</time>
      </trkpt>
      <trkpt lat="43.44272" lon="3.47421">
        <ele>84.716645</ele>
        <time>2023-12-30T16:10:29.000Z</time>
      </trkpt>
      <trkpt lat="43.44268" lon="3.47421">
        <ele>84.700016</ele>
        <time>2023-12-30T16:10:30.000Z</time>
      </trkpt>
      <trkpt lat="43.44264" lon="3.47421">
        <ele>84.684891</ele>
        <time>2023-12-30T16:10:31.000Z</time>
      </trkpt>
      <trkpt lat="43.4426" lon="3.47421">
        <ele>84.670867</ele>
        <time>2023-12-30T16:10:32.000Z</time>
      </trkpt>
      <trkpt lat="43.44257" lon="3.4742">
        <ele>84.658404</ele>
        <time>2023-12-30T16:10:33.000Z</time>
      </trkpt>
      <trkpt lat="43.44253" lon="3.47418">
        <ele>84.526533</ele>
        <time>2023-12-30T16:10:34.000Z</time>
      </trkpt>
      <trkpt lat="43.44246" lon="3.47418">
        <ele>84.154125</ele>
        <time>2023-12-30T16:10:35.000Z</time>
      </trkpt>
      <trkpt lat="43.4424" lon="3.47417">
        <ele>83.804047</ele>
        <time>2023-12-30T16:10:36.000Z</time>
      </trkpt>
      <trkpt lat="43.44234" lon="3.47416">
        <ele>83.445392</ele>
        <time>2023-12-30T16:10:37.000Z</time>
      </trkpt>
      <trkpt lat="43.4423" lon="3.47412">
        <ele>83.174367</ele>
        <time>2023-12-30T16:10:38.000Z</time>
      </trkpt>
      <trkpt lat="43.44228" lon="3.47408">
        <ele>82.955606</ele>
        <time>2023-12-30T16:10:39.000Z</time>
      </trkpt>
      <trkpt lat="43.44225" lon="3.47405">
        <ele>82.717811</ele>
        <time>2023-12-30T16:10:40.000Z</time>
      </trkpt>
      <trkpt lat="43.44221" lon="3.47402">
        <ele>82.43438</ele>
        <time>2023-12-30T16:10:41.000Z</time>
      </trkpt>
      <trkpt lat="43.44217" lon="3.47399">
        <ele>82.161226</ele>
        <time>2023-12-30T16:10:42.000Z</time>
      </trkpt>
      <trkpt lat="43.44214" lon="3.47395">
        <ele>81.91582</ele>
        <time>2023-12-30T16:10:43.000Z</time>
      </trkpt>
      <trkpt lat="43.44211" lon="3.47391">
        <ele>81.645766</ele>
        <time>2023-12-30T16:10:44.000Z</time>
      </trkpt>
      <trkpt lat="43.44208" lon="3.47385">
        <ele>81.35764</ele>
        <time>2023-12-30T16:10:45.000Z</time>
      </trkpt>
      <trkpt lat="43.44207" lon="3.4738">
        <ele>81.140361</ele>
        <time>2023-12-30T16:10:46.000Z</time>
      </trkpt>
      <trkpt lat="43.44207" lon="3.47376">
        <ele>80.955153</ele>
        <time>2023-12-30T16:10:47.000Z</time>
      </trkpt>
      <trkpt lat="43.44207" lon="3.47371">
        <ele>80.752265</ele>
        <time>2023-12-30T16:10:48.000Z</time>
      </trkpt>
      <trkpt lat="43.44206" lon="3.47367">
        <ele>80.574018</ele>
        <time>2023-12-30T16:10:49.000Z</time>
      </trkpt>
      <trkpt lat="43.44206" lon="3.47364">
        <ele>80.41837</ele>
        <time>2023-12-30T16:10:50.000Z</time>
      </trkpt>
      <trkpt lat="43.44205" lon="3.4736">
        <ele>80.259177</ele>
        <time>2023-12-30T16:10:51.000Z</time>
      </trkpt>
      <trkpt lat="43.44203" lon="3.47356">
        <ele>80.050076</ele>
        <time>2023-12-30T16:10:52.000Z</time>
      </trkpt>
      <trkpt lat="43.442" lon="3.47352">
        <ele>79.812759</ele>
        <time>2023-12-30T16:10:53.000Z</time>
      </trkpt>
      <trkpt lat="43.44198" lon="3.47347">
        <ele>79.580165</ele>
        <time>2023-12-30T16:10:54.000Z</time>
      </trkpt>
      <trkpt lat="43.44197" lon="3.47341">
        <ele>79.310687</ele>
        <time>2023-12-30T16:10:55.000Z</time>
      </trkpt>
      <trkpt lat="43.44196" lon="3.47336">
        <ele>79.073037</ele>
        <time>2023-12-30T16:10:56.000Z</time>
      </trkpt>
      <trkpt lat="43.44196" lon="3.47332">
        <ele>78.892096</ele>
        <time>2023-12-30T16:10:57.000Z</time>
      </trkpt>
      <trkpt lat="43.44195" lon="3.47329">
        <ele>78.748955</ele>
        <time>2023-12-30T16:10:58.000Z</time>
      </trkpt>
      <trkpt lat="43.44193" lon="3.47325">
        <ele>78.547191</ele>
        <time>2023-12-30T16:10:59.000Z</time>
      </trkpt>
      <trkpt lat="43.4419" lon="3.4732">
        <ele>78.264063</ele>
        <time>2023-12-30T16:11:00.000Z</time>
      </trkpt>
      <trkpt lat="43.44185" lon="3.47316">
        <ele>77.95509</ele>
        <time>2023-12-30T16:11:01.000Z</time>
      </trkpt>
      <trkpt lat="43.44182" lon="3.47311">
        <ele>77.657316</ele>
        <time>2023-12-30T16:11:02.000Z</time>
      </trkpt>
      <trkpt lat="43.4418" lon="3.47306">
        <ele>77.392299</ele>
        <time>2023-12-30T16:11:03.000Z</time>
      </trkpt>
      <trkpt lat="43.4418" lon="3.473">
        <ele>77.13397</ele>
        <time>2023-12-30T16:11:04.000Z</time>
      </trkpt>
      <trkpt lat="43.44182" lon="3.47295">
        <ele>76.875936</ele>
        <time>2023-12-30T16:11:05.000Z</time>
      </trkpt>
      <trkpt lat="43.44185" lon="3.4729">
        <ele>76.59734</ele>
        <time>2023-12-30T16:11:06.000Z</time>
      </trkpt>
      <trkpt lat="43.4419" lon="3.47288">
        <ele>76.289527</ele>
        <time>2023-12-30T16:11:07.000Z</time>
      </trkpt>
      <trkpt lat="43.44194" lon="3.47285">
        <ele>76.056962</ele>
        <time>2023-12-30T16:11:08.000Z</time>
      </trkpt>
      <trkpt lat="43.44196" lon="3.47282">
        <ele>75.837106</ele>
        <time>2023-12-30T16:11:09.000Z</time>
      </trkpt>
      <trkpt lat="43.44198" lon="3.47277">
        <ele>75.585732</ele>
        <time>2023-12-30T16:11:10.000Z</time>
      </trkpt>
      <trkpt lat="43.44201" lon="3.47272">
        <ele>75.339379</ele>
        <time>2023-12-30T16:11:11.000Z</time>
      </trkpt>
      <trkpt lat="43.44203" lon="3.47268">
        <ele>75.132976</ele>
        <time>2023-12-30T16:11:12.000Z</time>
      </trkpt>
      <trkpt lat="43.44205" lon="3.47264">
        <ele>74.910417</ele>
        <time>2023-12-30T16:11:13.000Z</time>
      </trkpt>
      <trkpt lat="43.44206" lon="3.47258">
        <ele>74.658349</ele>
        <time>2023-12-30T16:11:14.000Z</time>
      </trkpt>
      <trkpt lat="43.44207" lon="3.47253">
        <ele>74.422058</ele>
        <time>2023-12-30T16:11:15.000Z</time>
      </trkpt>
      <trkpt lat="43.44206" lon="3.47246">
        <ele>74.154603</ele>
        <time>2023-12-30T16:11:16.000Z</time>
      </trkpt>
      <trkpt lat="43.44206" lon="3.4724">
        <ele>74.003865</ele>
        <time>2023-12-30T16:11:17.000Z</time>
      </trkpt>
      <trkpt lat="43.44207" lon="3.47235">
        <ele>73.959952</ele>
        <time>2023-12-30T16:11:18.000Z</time>
      </trkpt>
      <trkpt lat="43.44208" lon="3.4723">
        <ele>73.918382</ele>
        <time>2023-12-30T16:11:19.000Z</time>
      </trkpt>
      <trkpt lat="43.44208" lon="3.47225">
        <ele>73.880908</ele>
        <time>2023-12-30T16:11:20.000Z</time>
      </trkpt>
      <trkpt lat="43.44208" lon="3.47219">
        <ele>73.837515</ele>
        <time>2023-12-30T16:11:21.000Z</time>
      </trkpt>
      <trkpt lat="43.44207" lon="3.47212">
        <ele>73.77892</ele>
        <time>2023-12-30T16:11:22.000Z</time>
      </trkpt>
      <trkpt lat="43.44204" lon="3.47207">
        <ele>73.729517</ele>
        <time>2023-12-30T16:11:23.000Z</time>
      </trkpt>
      <trkpt lat="43.442" lon="3.47203">
        <ele>73.682082</ele>
        <time>2023-12-30T16:11:24.000Z</time>
      </trkpt>
      <trkpt lat="43.44197" lon="3.472">
        <ele>73.637872</ele>
        <time>2023-12-30T16:11:25.000Z</time>
      </trkpt>
      <trkpt lat="43.44193" lon="3.47198">
        <ele>73.594243</ele>
        <time>2023-12-30T16:11:26.000Z</time>
      </trkpt>
      <trkpt lat="43.4419" lon="3.47195">
        <ele>73.56004</ele>
        <time>2023-12-30T16:11:27.000Z</time>
      </trkpt>
      <trkpt lat="43.44188" lon="3.47192">
        <ele>73.527058</ele>
        <time>2023-12-30T16:11:28.000Z</time>
      </trkpt>
      <trkpt lat="43.44186" lon="3.4719">
        <ele>73.493076</ele>
        <time>2023-12-30T16:11:29.000Z</time>
      </trkpt>
      <trkpt lat="43.44183" lon="3.47186">
        <ele>73.455134</ele>
        <time>2023-12-30T16:11:30.000Z</time>
      </trkpt>
      <trkpt lat="43.4418" lon="3.47182">
        <ele>73.407197</ele>
        <time>2023-12-30T16:11:31.000Z</time>
      </trkpt>
      <trkpt lat="43.44177" lon="3.47176">
        <ele>73.353372</ele>
        <time>2023-12-30T16:11:32.000Z</time>
      </trkpt>
      <trkpt lat="43.44174" lon="3.47169">
        <ele>73.294416</ele>
        <time>2023-12-30T16:11:33.000Z</time>
      </trkpt>
      <trkpt lat="43.44172" lon="3.47163">
        <ele>73.23961</ele>
        <time>2023-12-30T16:11:34.000Z</time>
      </trkpt>
      <trkpt lat="43.44169" lon="3.47157">
        <ele>73.181867</ele>
        <time>2023-12-30T16:11:35.000Z</time>
      </trkpt>
      <trkpt lat="43.44166" lon="3.47151">
        <ele>73.125573</ele>
        <time>2023-12-30T16:11:36.000Z</time>
      </trkpt>
      <trkpt lat="43.44162" lon="3.47146">
        <ele>73.069487</ele>
        <time>2023-12-30T16:11:37.000Z</time>
      </trkpt>
      <trkpt lat="43.44158" lon="3.47141">
        <ele>73.015387</ele>
        <time>2023-12-30T16:11:38.000Z</time>
      </trkpt>
      <trkpt lat="43.44156" lon="3.47136">
        <ele>72.969736</ele>
        <time>2023-12-30T16:11:39.000Z</time>
      </trkpt>
      <trkpt lat="43.44155" lon="3.47131">
        <ele>72.933933</ele>
        <time>2023-12-30T16:11:40.000Z</time>
      </trkpt>
      <trkpt lat="43.44156" lon="3.47128">
        <ele>72.909886</ele>
        <time>2023-12-30T16:11:41.000Z</time>
      </trkpt>
      <trkpt lat="43.44156" lon="3.47127">
        <ele>72.893421</ele>
        <time>2023-12-30T16:11:42.000Z</time>
      </trkpt>
      <trkpt lat="43.44158" lon="3.47125">
        <ele>72.874135</ele>
        <time>2023-12-30T16:11:43.000Z</time>
      </trkpt>
      <trkpt lat="43.44159" lon="3.47123">
        <ele>72.855369</ele>
        <time>2023-12-30T16:11:44.000Z</time>
      </trkpt>
      <trkpt lat="43.44158" lon="3.47121">
        <ele>72.835022</ele>
        <time>2023-12-30T16:11:45.000Z</time>
      </trkpt>
      <trkpt lat="43.44159" lon="3.47117">
        <ele>72.80932</ele>
        <time>2023-12-30T16:11:46.000Z</time>
      </trkpt>
      <trkpt lat="43.4416" lon="3.47114">
        <ele>72.781804</ele>
        <time>2023-12-30T16:11:47.000Z</time>
      </trkpt>
      <trkpt lat="43.44161" lon="3.47111">
        <ele>72.754765</ele>
        <time>2023-12-30T16:11:48.000Z</time>
      </trkpt>
      <trkpt lat="43.4416" lon="3.47108">
        <ele>72.73173</ele>
        <time>2023-12-30T16:11:49.000Z</time>
      </trkpt>
      <trkpt lat="43.44158" lon="3.47105">
        <ele>72.697311</ele>
        <time>2023-12-30T16:11:50.000Z</time>
      </trkpt>
      <trkpt lat="43.44157" lon="3.47101">
        <ele>72.666422</ele>
        <time>2023-12-30T16:11:51.000Z</time>
      </trkpt>
      <trkpt lat="43.44156" lon="3.47096">
        <ele>72.627921</ele>
        <time>2023-12-30T16:11:52.000Z</time>
      </trkpt>
      <trkpt lat="43.44154" lon="3.47092">
        <ele>72.587147</ele>
        <time>2023-12-30T16:11:53.000Z</time>
      </trkpt>
      <trkpt lat="43.44152" lon="3.47089">
        <ele>72.554648</ele>
        <time>2023-12-30T16:11:54.000Z</time>
      </trkpt>
      <trkpt lat="43.44149" lon="3.47087">
        <ele>72.525923</ele>
        <time>2023-12-30T16:11:55.000Z</time>
      </trkpt>
      <trkpt lat="43.44146" lon="3.47086">
        <ele>72.490414</ele>
        <time>2023-12-30T16:11:56.000Z</time>
      </trkpt>
      <trkpt lat="43.44144" lon="3.47084">
        <ele>72.460543</ele>
        <time>2023-12-30T16:11:57.000Z</time>
      </trkpt>
      <trkpt lat="43.44143" lon="3.4708">
        <ele>72.434715</ele>
        <time>2023-12-30T16:11:58.000Z</time>
      </trkpt>
      <trkpt lat="43.44143" lon="3.47077">
        <ele>72.405272</ele>
        <time>2023-12-30T16:11:59.000Z</time>
      </trkpt>
      <trkpt lat="43.44143" lon="3.47074">
        <ele>72.381316</ele>
        <time>2023-12-30T16:12:00.000Z</time>
      </trkpt>
      <trkpt lat="43.44143" lon="3.47071">
        <ele>72.358879</ele>
        <time>2023-12-30T16:12:01.000Z</time>
      </trkpt>
      <trkpt lat="43.44143" lon="3.47068">
        <ele>72.338341</ele>
        <time>2023-12-30T16:12:02.000Z</time>
      </trkpt>
      <trkpt lat="43.44141" lon="3.47065">
        <ele>72.308253</ele>
        <time>2023-12-30T16:12:03.000Z</time>
      </trkpt>
      <trkpt lat="43.44139" lon="3.47062">
        <ele>72.278001</ele>
        <time>2023-12-30T16:12:04.000Z</time>
      </trkpt>
      <trkpt lat="43.44136" lon="3.4706">
        <ele>72.238637</ele>
        <time>2023-12-30T16:12:05.000Z</time>
      </trkpt>
      <trkpt lat="43.44132" lon="3.47057">
        <ele>72.189786</ele>
        <time>2023-12-30T16:12:06.000Z</time>
      </trkpt>
      <trkpt lat="43.44128" lon="3.47053">
        <ele>72.136301</ele>
        <time>2023-12-30T16:12:07.000Z</time>
      </trkpt>
      <trkpt lat="43.44124" lon="3.4705">
        <ele>71.950992</ele>
        <time>2023-12-30T16:12:08.000Z</time>
      </trkpt>
      <trkpt lat="43.44121" lon="3.47047">
        <ele>71.756652</ele>
        <time>2023-12-30T16:12:09.000Z</time>
      </trkpt>
      <trkpt lat="43.4412" lon="3.47045">
        <ele>71.632598</ele>
        <time>2023-12-30T16:12:10.000Z</time>
      </trkpt>
      <trkpt lat="43.44119" lon="3.47042">
        <ele>71.507959</ele>
        <time>2023-12-30T16:12:11.000Z</time>
      </trkpt>
      <trkpt lat="43.44118" lon="3.47041">
        <ele>71.442075</ele>
        <time>2023-12-30T16:12:12.000Z</time>
      </trkpt>
      <trkpt lat="43.44118" lon="3.47041">
        <ele>71.434409</ele>
        <time>2023-12-30T16:12:13.000Z</time>
      </trkpt>
      <trkpt lat="43.44118" lon="3.47041">
        <ele>71.416391</ele>
        <time>2023-12-30T16:12:14.000Z</time>
      </trkpt>
      <trkpt lat="43.44118" lon="3.47039">
        <ele>71.316523</ele>
        <time>2023-12-30T16:12:15.000Z</time>
      </trkpt>
      <trkpt lat="43.44117" lon="3.47036">
        <ele>71.180989</ele>
        <time>2023-12-30T16:12:16.000Z</time>
      </trkpt>
      <trkpt lat="43.44116" lon="3.47033">
        <ele>71.028195</ele>
        <time>2023-12-30T16:12:17.000Z</time>
      </trkpt>
      <trkpt lat="43.44115" lon="3.4703">
        <ele>70.852899</ele>
        <time>2023-12-30T16:12:18.000Z</time>
      </trkpt>
      <trkpt lat="43.44113" lon="3.47026">
        <ele>70.648005</ele>
        <time>2023-12-30T16:12:19.000Z</time>
      </trkpt>
      <trkpt lat="43.44111" lon="3.47022">
        <ele>70.453182</ele>
        <time>2023-12-30T16:12:20.000Z</time>
      </trkpt>
      <trkpt lat="43.4411" lon="3.47018">
        <ele>70.261244</ele>
        <time>2023-12-30T16:12:21.000Z</time>
      </trkpt>
      <trkpt lat="43.44108" lon="3.47014">
        <ele>70.025872</ele>
        <time>2023-12-30T16:12:22.000Z</time>
      </trkpt>
      <trkpt lat="43.44107" lon="3.47009">
        <ele>69.806924</ele>
        <time>2023-12-30T16:12:23.000Z</time>
      </trkpt>
      <trkpt lat="43.44106" lon="3.47006">
        <ele>69.642881</ele>
        <time>2023-12-30T16:12:24.000Z</time>
      </trkpt>
      <trkpt lat="43.44106" lon="3.47003">
        <ele>69.539096</ele>
        <time>2023-12-30T16:12:25.000Z</time>
      </trkpt>
      <trkpt lat="43.44106" lon="3.47002">
        <ele>69.485044</ele>
        <time>2023-12-30T16:12:26.000Z</time>
      </trkpt>
      <trkpt lat="43.44106" lon="3.47001">
        <ele>69.432117</ele>
        <time>2023-12-30T16:12:27.000Z</time>
      </trkpt>
      <trkpt lat="43.44106" lon="3.47">
        <ele>69.376659</ele>
        <time>2023-12-30T16:12:28.000Z</time>
      </trkpt>
      <trkpt lat="43.44106" lon="3.46999">
        <ele>69.336121</ele>
        <time>2023-12-30T16:12:29.000Z</time>
      </trkpt>
      <trkpt lat="43.44106" lon="3.46997">
        <ele>69.262991</ele>
        <time>2023-12-30T16:12:30.000Z</time>
      </trkpt>
      <trkpt lat="43.44106" lon="3.46995">
        <ele>69.156462</ele>
        <time>2023-12-30T16:12:31.000Z</time>
      </trkpt>
      <trkpt lat="43.44105" lon="3.46993">
        <ele>69.060058</ele>
        <time>2023-12-30T16:12:32.000Z</time>
      </trkpt>
      <trkpt lat="43.44105" lon="3.4699">
        <ele>68.920286</ele>
        <time>2023-12-30T16:12:33.000Z</time>
      </trkpt>
      <trkpt lat="43.44105" lon="3.46987">
        <ele>68.776014</ele>
        <time>2023-12-30T16:12:34.000Z</time>
      </trkpt>
      <trkpt lat="43.44106" lon="3.46981">
        <ele>68.540479</ele>
        <time>2023-12-30T16:12:35.000Z</time>
      </trkpt>
      <trkpt lat="43.44106" lon="3.46975">
        <ele>68.247108</ele>
        <time>2023-12-30T16:12:36.000Z</time>
      </trkpt>
      <trkpt lat="43.44106" lon="3.46968">
        <ele>67.940249</ele>
        <time>2023-12-30T16:12:37.000Z</time>
      </trkpt>
      <trkpt lat="43.44106" lon="3.4696">
        <ele>67.561836</ele>
        <time>2023-12-30T16:12:38.000Z</time>
      </trkpt>
      <trkpt lat="43.44104" lon="3.46953">
        <ele>67.237407</ele>
        <time>2023-12-30T16:12:39.000Z</time>
      </trkpt>
      <trkpt lat="43.44104" lon="3.46948">
        <ele>67.043721</ele>
        <time>2023-12-30T16:12:40.000Z</time>
      </trkpt>
      <trkpt lat="43.44105" lon="3.46944">
        <ele>66.860898</ele>
        <time>2023-12-30T16:12:41.000Z</time>
      </trkpt>
      <trkpt lat="43.44106" lon="3.46939">
        <ele>66.615308</ele>
        <time>2023-12-30T16:12:42.000Z</time>
      </trkpt>
      <trkpt lat="43.44108" lon="3.46934">
        <ele>66.345021</ele>
        <time>2023-12-30T16:12:43.000Z</time>
      </trkpt>
      <trkpt lat="43.4411" lon="3.46931">
        <ele>66.147369</ele>
        <time>2023-12-30T16:12:44.000Z</time>
      </trkpt>
      <trkpt lat="43.44113" lon="3.46927">
        <ele>65.910151</ele>
        <time>2023-12-30T16:12:45.000Z</time>
      </trkpt>
      <trkpt lat="43.44114" lon="3.46922">
        <ele>65.676547</ele>
        <time>2023-12-30T16:12:46.000Z</time>
      </trkpt>
      <trkpt lat="43.44114" lon="3.46918">
        <ele>65.496979</ele>
        <time>2023-12-30T16:12:47.000Z</time>
      </trkpt>
      <trkpt lat="43.44115" lon="3.46914">
        <ele>65.343331</ele>
        <time>2023-12-30T16:12:48.000Z</time>
      </trkpt>
      <trkpt lat="43.44114" lon="3.4691">
        <ele>65.170378</ele>
        <time>2023-12-30T16:12:49.000Z</time>
      </trkpt>
      <trkpt lat="43.44114" lon="3.46907">
        <ele>65.033973</ele>
        <time>2023-12-30T16:12:50.000Z</time>
      </trkpt>
      <trkpt lat="43.44115" lon="3.46905">
        <ele>64.921194</ele>
        <time>2023-12-30T16:12:51.000Z</time>
      </trkpt>
      <trkpt lat="43.44115" lon="3.46903">
        <ele>64.83988</ele>
        <time>2023-12-30T16:12:52.000Z</time>
      </trkpt>
      <trkpt lat="43.44116" lon="3.46901">
        <ele>64.741438</ele>
        <time>2023-12-30T16:12:53.000Z</time>
      </trkpt>
      <trkpt lat="43.44117" lon="3.46897">
        <ele>64.548142</ele>
        <time>2023-12-30T16:12:54.000Z</time>
      </trkpt>
      <trkpt lat="43.44118" lon="3.46892">
        <ele>64.289869</ele>
        <time>2023-12-30T16:12:55.000Z</time>
      </trkpt>
      <trkpt lat="43.4412" lon="3.46885">
        <ele>63.939465</ele>
        <time>2023-12-30T16:12:56.000Z</time>
      </trkpt>
      <trkpt lat="43.44121" lon="3.46879">
        <ele>63.669116</ele>
        <time>2023-12-30T16:12:57.000Z</time>
      </trkpt>
      <trkpt lat="43.44121" lon="3.46873">
        <ele>63.423052</ele>
        <time>2023-12-30T16:12:58.000Z</time>
      </trkpt>
      <trkpt lat="43.44121" lon="3.46869">
        <ele>63.229268</ele>
        <time>2023-12-30T16:12:59.000Z</time>
      </trkpt>
      <trkpt lat="43.44122" lon="3.46865">
        <ele>63.028666</ele>
        <time>2023-12-30T16:13:00.000Z</time>
      </trkpt>
      <trkpt lat="43.44124" lon="3.46861">
        <ele>62.79409</ele>
        <time>2023-12-30T16:13:01.000Z</time>
      </trkpt>
      <trkpt lat="43.44127" lon="3.46858">
        <ele>62.600645</ele>
        <time>2023-12-30T16:13:02.000Z</time>
      </trkpt>
      <trkpt lat="43.44128" lon="3.46854">
        <ele>62.403247</ele>
        <time>2023-12-30T16:13:03.000Z</time>
      </trkpt>
      <trkpt lat="43.44128" lon="3.4685">
        <ele>62.204961</ele>
        <time>2023-12-30T16:13:04.000Z</time>
      </trkpt>
      <trkpt lat="43.44126" lon="3.46846">
        <ele>62.004494</ele>
        <time>2023-12-30T16:13:05.000Z</time>
      </trkpt>
      <trkpt lat="43.44124" lon="3.46844">
        <ele>61.830388</ele>
        <time>2023-12-30T16:13:06.000Z</time>
      </trkpt>
      <trkpt lat="43.44121" lon="3.46841">
        <ele>61.582293</ele>
        <time>2023-12-30T16:13:07.000Z</time>
      </trkpt>
      <trkpt lat="43.44119" lon="3.46839">
        <ele>61.457046</ele>
        <time>2023-12-30T16:13:08.000Z</time>
      </trkpt>
      <trkpt lat="43.44117" lon="3.46838">
        <ele>61.338233</ele>
        <time>2023-12-30T16:13:09.000Z</time>
      </trkpt>
      <trkpt lat="43.44116" lon="3.46834">
        <ele>61.163889</ele>
        <time>2023-12-30T16:13:10.000Z</time>
      </trkpt>
      <trkpt lat="43.44117" lon="3.4683">
        <ele>60.982934</ele>
        <time>2023-12-30T16:13:11.000Z</time>
      </trkpt>
      <trkpt lat="43.44116" lon="3.46825">
        <ele>60.952971</ele>
        <time>2023-12-30T16:13:12.000Z</time>
      </trkpt>
      <trkpt lat="43.44116" lon="3.4682">
        <ele>60.950213</ele>
        <time>2023-12-30T16:13:13.000Z</time>
      </trkpt>
      <trkpt lat="43.44117" lon="3.46815">
        <ele>60.947577</ele>
        <time>2023-12-30T16:13:14.000Z</time>
      </trkpt>
      <trkpt lat="43.44117" lon="3.4681">
        <ele>60.944607</ele>
        <time>2023-12-30T16:13:15.000Z</time>
      </trkpt>
      <trkpt lat="43.44117" lon="3.46804">
        <ele>60.941404</ele>
        <time>2023-12-30T16:13:16.000Z</time>
      </trkpt>
      <trkpt lat="43.44117" lon="3.46797">
        <ele>60.937954</ele>
        <time>2023-12-30T16:13:17.000Z</time>
      </trkpt>
      <trkpt lat="43.44117" lon="3.4679">
        <ele>60.934182</ele>
        <time>2023-12-30T16:13:18.000Z</time>
      </trkpt>
      <trkpt lat="43.44117" lon="3.46784">
        <ele>60.930893</ele>
        <time>2023-12-30T16:13:19.000Z</time>
      </trkpt>
      <trkpt lat="43.44117" lon="3.4678">
        <ele>60.928655</ele>
        <time>2023-12-30T16:13:20.000Z</time>
      </trkpt>
      <trkpt lat="43.44117" lon="3.46777">
        <ele>60.927426</ele>
        <time>2023-12-30T16:13:21.000Z</time>
      </trkpt>
      <trkpt lat="43.44117" lon="3.46773">
        <ele>60.925145</ele>
        <time>2023-12-30T16:13:22.000Z</time>
      </trkpt>
      <trkpt lat="43.44116" lon="3.46768">
        <ele>60.9223</ele>
        <time>2023-12-30T16:13:23.000Z</time>
      </trkpt>
      <trkpt lat="43.44115" lon="3.46763">
        <ele>60.919829</ele>
        <time>2023-12-30T16:13:24.000Z</time>
      </trkpt>
      <trkpt lat="43.44114" lon="3.46759">
        <ele>60.917457</ele>
        <time>2023-12-30T16:13:25.000Z</time>
      </trkpt>
      <trkpt lat="43.44113" lon="3.46756">
        <ele>60.915409</ele>
        <time>2023-12-30T16:13:26.000Z</time>
      </trkpt>
      <trkpt lat="43.44112" lon="3.46752">
        <ele>60.913141</ele>
        <time>2023-12-30T16:13:27.000Z</time>
      </trkpt>
      <trkpt lat="43.44111" lon="3.46747">
        <ele>60.910594</ele>
        <time>2023-12-30T16:13:28.000Z</time>
      </trkpt>
      <trkpt lat="43.4411" lon="3.46743">
        <ele>60.908376</ele>
        <time>2023-12-30T16:13:29.000Z</time>
      </trkpt>
      <trkpt lat="43.4411" lon="3.46739">
        <ele>60.906365</ele>
        <time>2023-12-30T16:13:30.000Z</time>
      </trkpt>
      <trkpt lat="43.44109" lon="3.46735">
        <ele>60.904199</ele>
        <time>2023-12-30T16:13:31.000Z</time>
      </trkpt>
      <trkpt lat="43.44108" lon="3.46732">
        <ele>60.902307</ele>
        <time>2023-12-30T16:13:32.000Z</time>
      </trkpt>
      <trkpt lat="43.44108" lon="3.46727">
        <ele>60.899805</ele>
        <time>2023-12-30T16:13:33.000Z</time>
      </trkpt>
      <trkpt lat="43.44107" lon="3.46722">
        <ele>60.897125</ele>
        <time>2023-12-30T16:13:34.000Z</time>
      </trkpt>
      <trkpt lat="43.44106" lon="3.46718">
        <ele>60.894817</ele>
        <time>2023-12-30T16:13:35.000Z</time>
      </trkpt>
      <trkpt lat="43.44105" lon="3.46715">
        <ele>60.892779</ele>
        <time>2023-12-30T16:13:36.000Z</time>
      </trkpt>
      <trkpt lat="43.44104" lon="3.46711">
        <ele>60.890586</ele>
        <time>2023-12-30T16:13:37.000Z</time>
      </trkpt>
      <trkpt lat="43.44103" lon="3.46707">
        <ele>60.888315</ele>
        <time>2023-12-30T16:13:38.000Z</time>
      </trkpt>
      <trkpt lat="43.44103" lon="3.46703">
        <ele>60.886077</ele>
        <time>2023-12-30T16:13:39.000Z</time>
      </trkpt>
      <trkpt lat="43.44102" lon="3.46698">
        <ele>60.883633</ele>
        <time>2023-12-30T16:13:40.000Z</time>
      </trkpt>
      <trkpt lat="43.44103" lon="3.46692">
        <ele>60.880708</ele>
        <time>2023-12-30T16:13:41.000Z</time>
      </trkpt>
      <trkpt lat="43.44103" lon="3.46688">
        <ele>60.878125</ele>
        <time>2023-12-30T16:13:42.000Z</time>
      </trkpt>
      <trkpt lat="43.44104" lon="3.46685">
        <ele>60.876354</ele>
        <time>2023-12-30T16:13:43.000Z</time>
      </trkpt>
      <trkpt lat="43.44104" lon="3.46679">
        <ele>60.873646</ele>
        <time>2023-12-30T16:13:44.000Z</time>
      </trkpt>
      <trkpt lat="43.44103" lon="3.46674">
        <ele>60.870875</ele>
        <time>2023-12-30T16:13:45.000Z</time>
      </trkpt>
      <trkpt lat="43.44102" lon="3.46669">
        <ele>60.867981</ele>
        <time>2023-12-30T16:13:46.000Z</time>
      </trkpt>
      <trkpt lat="43.44101" lon="3.46665">
        <ele>60.865421</ele>
        <time>2023-12-30T16:13:47.000Z</time>
      </trkpt>
      <trkpt lat="43.441" lon="3.46661">
        <ele>60.863424</ele>
        <time>2023-12-30T16:13:48.000Z</time>
      </trkpt>
      <trkpt lat="43.441" lon="3.46657">
        <ele>60.861388</ele>
        <time>2023-12-30T16:13:49.000Z</time>
      </trkpt>
      <trkpt lat="43.44099" lon="3.46654">
        <ele>60.85977</ele>
        <time>2023-12-30T16:13:50.000Z</time>
      </trkpt>
      <trkpt lat="43.44099" lon="3.46651">
        <ele>60.858336</ele>
        <time>2023-12-30T16:13:51.000Z</time>
      </trkpt>
      <trkpt lat="43.44098" lon="3.46649">
        <ele>60.85674</ele>
        <time>2023-12-30T16:13:52.000Z</time>
      </trkpt>
      <trkpt lat="43.44098" lon="3.46646">
        <ele>60.855045</ele>
        <time>2023-12-30T16:13:53.000Z</time>
      </trkpt>
      <trkpt lat="43.44097" lon="3.46643">
        <ele>60.853446</ele>
        <time>2023-12-30T16:13:54.000Z</time>
      </trkpt>
      <trkpt lat="43.44096" lon="3.46641">
        <ele>60.852299</ele>
        <time>2023-12-30T16:13:55.000Z</time>
      </trkpt>
      <trkpt lat="43.44096" lon="3.46639">
        <ele>60.851326</ele>
        <time>2023-12-30T16:13:56.000Z</time>
      </trkpt>
      <trkpt lat="43.44096" lon="3.46637">
        <ele>60.85021</ele>
        <time>2023-12-30T16:13:57.000Z</time>
      </trkpt>
      <trkpt lat="43.44096" lon="3.46635">
        <ele>60.84923</ele>
        <time>2023-12-30T16:13:58.000Z</time>
      </trkpt>
      <trkpt lat="43.44095" lon="3.46635">
        <ele>60.848886</ele>
        <time>2023-12-30T16:13:59.000Z</time>
      </trkpt>
      <trkpt lat="43.44096" lon="3.46635">
        <ele>60.848796</ele>
        <time>2023-12-30T16:14:00.000Z</time>
      </trkpt>
      <trkpt lat="43.44096" lon="3.46635">
        <ele>60.848796</ele>
        <time>2023-12-30T16:14:01.000Z</time>
      </trkpt>
      <trkpt lat="43.44096" lon="3.46635">
        <ele>60.848796</ele>
        <time>2023-12-30T16:14:02.000Z</time>
      </trkpt>
      <trkpt lat="43.44096" lon="3.46635">
        <ele>60.848796</ele>
        <time>2023-12-30T16:14:03.000Z</time>
      </trkpt>
      <trkpt lat="43.44096" lon="3.46635">
        <ele>60.848796</ele>
        <time>2023-12-30T16:14:04.000Z</time>
      </trkpt>
      <trkpt lat="43.44096" lon="3.46635">
        <ele>60.848796</ele>
        <time>2023-12-30T16:14:05.000Z</time>
      </trkpt>
      <trkpt lat="43.44096" lon="3.46635">
        <ele>60.848706</ele>
        <time>2023-12-30T16:14:06.000Z</time>
      </trkpt>
      <trkpt lat="43.44096" lon="3.46635">
        <ele>60.848633</ele>
        <time>2023-12-30T16:14:07.000Z</time>
      </trkpt>
      <trkpt lat="43.44096" lon="3.46635">
        <ele>60.84856</ele>
        <time>2023-12-30T16:14:08.000Z</time>
      </trkpt>
      <trkpt lat="43.44096" lon="3.46635">
        <ele>60.848469</ele>
        <time>2023-12-30T16:14:09.000Z</time>
      </trkpt>
      <trkpt lat="43.44096" lon="3.46635">
        <ele>60.848245</ele>
        <time>2023-12-30T16:14:10.000Z</time>
      </trkpt>
      <trkpt lat="43.44096" lon="3.46632">
        <ele>60.846866</ele>
        <time>2023-12-30T16:14:11.000Z</time>
      </trkpt>
      <trkpt lat="43.44095" lon="3.46629">
        <ele>60.845121</ele>
        <time>2023-12-30T16:14:12.000Z</time>
      </trkpt>
      <trkpt lat="43.44093" lon="3.46625">
        <ele>60.842717</ele>
        <time>2023-12-30T16:14:13.000Z</time>
      </trkpt>
      <trkpt lat="43.44091" lon="3.46622">
        <ele>60.840528</ele>
        <time>2023-12-30T16:14:14.000Z</time>
      </trkpt>
      <trkpt lat="43.44089" lon="3.46619">
        <ele>60.838609</ele>
        <time>2023-12-30T16:14:15.000Z</time>
      </trkpt>
      <trkpt lat="43.44087" lon="3.46618">
        <ele>60.836834</ele>
        <time>2023-12-30T16:14:16.000Z</time>
      </trkpt>
      <trkpt lat="43.44085" lon="3.46616">
        <ele>60.835145</ele>
        <time>2023-12-30T16:14:17.000Z</time>
      </trkpt>
      <trkpt lat="43.44083" lon="3.46615">
        <ele>60.833538</ele>
        <time>2023-12-30T16:14:18.000Z</time>
      </trkpt>
      <trkpt lat="43.44081" lon="3.46614">
        <ele>60.831818</ele>
        <time>2023-12-30T16:14:19.000Z</time>
      </trkpt>
      <trkpt lat="43.44078" lon="3.46614">
        <ele>60.829992</ele>
        <time>2023-12-30T16:14:20.000Z</time>
      </trkpt>
      <trkpt lat="43.44076" lon="3.46615">
        <ele>60.828371</ele>
        <time>2023-12-30T16:14:21.000Z</time>
      </trkpt>
      <trkpt lat="43.44074" lon="3.46615">
        <ele>60.826742</ele>
        <time>2023-12-30T16:14:22.000Z</time>
      </trkpt>
      <trkpt lat="43.44072" lon="3.46616">
        <ele>60.82541</ele>
        <time>2023-12-30T16:14:23.000Z</time>
      </trkpt>
      <trkpt lat="43.44071" lon="3.46615">
        <ele>60.824282</ele>
        <time>2023-12-30T16:14:24.000Z</time>
      </trkpt>
      <trkpt lat="43.4407" lon="3.46613">
        <ele>60.83099</ele>
        <time>2023-12-30T16:14:25.000Z</time>
      </trkpt>
      <trkpt lat="43.44068" lon="3.46611">
        <ele>60.846576</ele>
        <time>2023-12-30T16:14:26.000Z</time>
      </trkpt>
      <trkpt lat="43.44067" lon="3.4661">
        <ele>60.859791</ele>
        <time>2023-12-30T16:14:27.000Z</time>
      </trkpt>
      <trkpt lat="43.44065" lon="3.46609">
        <ele>60.873844</ele>
        <time>2023-12-30T16:14:28.000Z</time>
      </trkpt>
      <trkpt lat="43.44064" lon="3.46607">
        <ele>60.886315</ele>
        <time>2023-12-30T16:14:29.000Z</time>
      </trkpt>
      <trkpt lat="43.44064" lon="3.46605">
        <ele>60.900145</ele>
        <time>2023-12-30T16:14:30.000Z</time>
      </trkpt>
      <trkpt lat="43.44062" lon="3.46602">
        <ele>60.923477</ele>
        <time>2023-12-30T16:14:31.000Z</time>
      </trkpt>
      <trkpt lat="43.4406" lon="3.46598">
        <ele>60.953354</ele>
        <time>2023-12-30T16:14:32.000Z</time>
      </trkpt>
      <trkpt lat="43.44059" lon="3.46595">
        <ele>60.967713</ele>
        <time>2023-12-30T16:14:33.000Z</time>
      </trkpt>
      <trkpt lat="43.44059" lon="3.46593">
        <ele>60.9832</ele>
        <time>2023-12-30T16:14:34.000Z</time>
      </trkpt>
      <trkpt lat="43.44058" lon="3.46587">
        <ele>61.01535</ele>
        <time>2023-12-30T16:14:35.000Z</time>
      </trkpt>
      <trkpt lat="43.44058" lon="3.46581">
        <ele>61.049978</ele>
        <time>2023-12-30T16:14:36.000Z</time>
      </trkpt>
      <trkpt lat="43.44057" lon="3.46576">
        <ele>61.08338</ele>
        <time>2023-12-30T16:14:37.000Z</time>
      </trkpt>
      <trkpt lat="43.44054" lon="3.4657">
        <ele>61.122566</ele>
        <time>2023-12-30T16:14:38.000Z</time>
      </trkpt>
      <trkpt lat="43.4405" lon="3.46565">
        <ele>61.166098</ele>
        <time>2023-12-30T16:14:39.000Z</time>
      </trkpt>
      <trkpt lat="43.44045" lon="3.46562">
        <ele>61.207365</ele>
        <time>2023-12-30T16:14:40.000Z</time>
      </trkpt>
      <trkpt lat="43.44041" lon="3.46558">
        <ele>61.245709</ele>
        <time>2023-12-30T16:14:41.000Z</time>
      </trkpt>
      <trkpt lat="43.44038" lon="3.46554">
        <ele>61.280598</ele>
        <time>2023-12-30T16:14:42.000Z</time>
      </trkpt>
      <trkpt lat="43.44037" lon="3.46549">
        <ele>61.312331</ele>
        <time>2023-12-30T16:14:43.000Z</time>
      </trkpt>
      <trkpt lat="43.44037" lon="3.46543">
        <ele>61.342532</ele>
        <time>2023-12-30T16:14:44.000Z</time>
      </trkpt>
      <trkpt lat="43.44036" lon="3.46538">
        <ele>61.373701</ele>
        <time>2023-12-30T16:14:45.000Z</time>
      </trkpt>
      <trkpt lat="43.44034" lon="3.46532">
        <ele>61.410337</ele>
        <time>2023-12-30T16:14:46.000Z</time>
      </trkpt>
      <trkpt lat="43.44031" lon="3.46527">
        <ele>61.450872</ele>
        <time>2023-12-30T16:14:47.000Z</time>
      </trkpt>
      <trkpt lat="43.44028" lon="3.46522">
        <ele>61.483955</ele>
        <time>2023-12-30T16:14:48.000Z</time>
      </trkpt>
      <trkpt lat="43.44026" lon="3.46519">
        <ele>61.508705</ele>
        <time>2023-12-30T16:14:49.000Z</time>
      </trkpt>
      <trkpt lat="43.44024" lon="3.46516">
        <ele>61.529002</ele>
        <time>2023-12-30T16:14:50.000Z</time>
      </trkpt>
      <trkpt lat="43.44022" lon="3.46514">
        <ele>61.549582</ele>
        <time>2023-12-30T16:14:51.000Z</time>
      </trkpt>
      <trkpt lat="43.44021" lon="3.46513">
        <ele>61.564313</ele>
        <time>2023-12-30T16:14:52.000Z</time>
      </trkpt>
      <trkpt lat="43.44019" lon="3.46511">
        <ele>61.578378</ele>
        <time>2023-12-30T16:14:53.000Z</time>
      </trkpt>
      <trkpt lat="43.44018" lon="3.4651">
        <ele>61.588178</ele>
        <time>2023-12-30T16:14:54.000Z</time>
      </trkpt>
      <trkpt lat="43.44017" lon="3.46509">
        <ele>61.600865</ele>
        <time>2023-12-30T16:14:55.000Z</time>
      </trkpt>
      <trkpt lat="43.44015" lon="3.46508">
        <ele>61.621112</ele>
        <time>2023-12-30T16:14:56.000Z</time>
      </trkpt>
      <trkpt lat="43.44012" lon="3.46507">
        <ele>61.645343</ele>
        <time>2023-12-30T16:14:57.000Z</time>
      </trkpt>
      <trkpt lat="43.44009" lon="3.46506">
        <ele>61.666155</ele>
        <time>2023-12-30T16:14:58.000Z</time>
      </trkpt>
      <trkpt lat="43.44007" lon="3.46504">
        <ele>61.683242</ele>
        <time>2023-12-30T16:14:59.000Z</time>
      </trkpt>
      <trkpt lat="43.44007" lon="3.46502">
        <ele>61.696304</ele>
        <time>2023-12-30T16:15:00.000Z</time>
      </trkpt>
      <trkpt lat="43.44006" lon="3.46501">
        <ele>61.707708</ele>
        <time>2023-12-30T16:15:01.000Z</time>
      </trkpt>
      <trkpt lat="43.44007" lon="3.46498">
        <ele>61.72178</ele>
        <time>2023-12-30T16:15:02.000Z</time>
      </trkpt>
      <trkpt lat="43.44008" lon="3.46496">
        <ele>61.737637</ele>
        <time>2023-12-30T16:15:03.000Z</time>
      </trkpt>
      <trkpt lat="43.44008" lon="3.46493">
        <ele>61.755233</ele>
        <time>2023-12-30T16:15:04.000Z</time>
      </trkpt>
      <trkpt lat="43.44008" lon="3.46489">
        <ele>61.777688</ele>
        <time>2023-12-30T16:15:05.000Z</time>
      </trkpt>
      <trkpt lat="43.44008" lon="3.46485">
        <ele>61.800269</ele>
        <time>2023-12-30T16:15:06.000Z</time>
      </trkpt>
      <trkpt lat="43.44009" lon="3.46481">
        <ele>61.824207</ele>
        <time>2023-12-30T16:15:07.000Z</time>
      </trkpt>
      <trkpt lat="43.44009" lon="3.46477">
        <ele>61.848853</ele>
        <time>2023-12-30T16:15:08.000Z</time>
      </trkpt>
      <trkpt lat="43.44008" lon="3.46474">
        <ele>61.87051</ele>
        <time>2023-12-30T16:15:09.000Z</time>
      </trkpt>
      <trkpt lat="43.44006" lon="3.4647">
        <ele>61.896701</ele>
        <time>2023-12-30T16:15:10.000Z</time>
      </trkpt>
      <trkpt lat="43.44005" lon="3.46465">
        <ele>61.927556</ele>
        <time>2023-12-30T16:15:11.000Z</time>
      </trkpt>
      <trkpt lat="43.44005" lon="3.4646">
        <ele>61.956617</ele>
        <time>2023-12-30T16:15:12.000Z</time>
      </trkpt>
      <trkpt lat="43.44005" lon="3.46454">
        <ele>61.987719</ele>
        <time>2023-12-30T16:15:13.000Z</time>
      </trkpt>
      <trkpt lat="43.44006" lon="3.4645">
        <ele>62.014668</ele>
        <time>2023-12-30T16:15:14.000Z</time>
      </trkpt>
      <trkpt lat="43.44006" lon="3.46446">
        <ele>62.038289</ele>
        <time>2023-12-30T16:15:15.000Z</time>
      </trkpt>
      <trkpt lat="43.44007" lon="3.46442">
        <ele>62.059725</ele>
        <time>2023-12-30T16:15:16.000Z</time>
      </trkpt>
      <trkpt lat="43.44008" lon="3.46438">
        <ele>62.08691</ele>
        <time>2023-12-30T16:15:17.000Z</time>
      </trkpt>
      <trkpt lat="43.44009" lon="3.46433">
        <ele>62.115342</ele>
        <time>2023-12-30T16:15:18.000Z</time>
      </trkpt>
      <trkpt lat="43.44011" lon="3.4643">
        <ele>62.139731</ele>
        <time>2023-12-30T16:15:19.000Z</time>
      </trkpt>
      <trkpt lat="43.44012" lon="3.46427">
        <ele>62.158384</ele>
        <time>2023-12-30T16:15:20.000Z</time>
      </trkpt>
      <trkpt lat="43.44013" lon="3.46425">
        <ele>62.174691</ele>
        <time>2023-12-30T16:15:21.000Z</time>
      </trkpt>
      <trkpt lat="43.44014" lon="3.46422">
        <ele>62.191293</ele>
        <time>2023-12-30T16:15:22.000Z</time>
      </trkpt>
      <trkpt lat="43.44014" lon="3.46418">
        <ele>62.211694</ele>
        <time>2023-12-30T16:15:23.000Z</time>
      </trkpt>
      <trkpt lat="43.44014" lon="3.46415">
        <ele>62.231846</ele>
        <time>2023-12-30T16:15:24.000Z</time>
      </trkpt>
      <trkpt lat="43.44014" lon="3.46411">
        <ele>62.246472</ele>
        <time>2023-12-30T16:15:25.000Z</time>
      </trkpt>
      <trkpt lat="43.44014" lon="3.46407">
        <ele>62.169486</ele>
        <time>2023-12-30T16:15:26.000Z</time>
      </trkpt>
      <trkpt lat="43.44014" lon="3.46402">
        <ele>62.096897</ele>
        <time>2023-12-30T16:15:27.000Z</time>
      </trkpt>
      <trkpt lat="43.44013" lon="3.46398">
        <ele>62.021597</ele>
        <time>2023-12-30T16:15:28.000Z</time>
      </trkpt>
      <trkpt lat="43.44012" lon="3.46393">
        <ele>61.942079</ele>
        <time>2023-12-30T16:15:29.000Z</time>
      </trkpt>
      <trkpt lat="43.4401" lon="3.4639">
        <ele>61.87</ele>
        <time>2023-12-30T16:15:30.000Z</time>
      </trkpt>
      <trkpt lat="43.44008" lon="3.46388">
        <ele>61.80441</ele>
        <time>2023-12-30T16:15:31.000Z</time>
      </trkpt>
      <trkpt lat="43.44005" lon="3.46386">
        <ele>61.73324</ele>
        <time>2023-12-30T16:15:32.000Z</time>
      </trkpt>
      <trkpt lat="43.44003" lon="3.46383">
        <ele>61.674497</ele>
        <time>2023-12-30T16:15:33.000Z</time>
      </trkpt>
      <trkpt lat="43.44003" lon="3.4638">
        <ele>61.62101</ele>
        <time>2023-12-30T16:15:34.000Z</time>
      </trkpt>
      <trkpt lat="43.44003" lon="3.46376">
        <ele>61.569946</ele>
        <time>2023-12-30T16:15:35.000Z</time>
      </trkpt>
      <trkpt lat="43.44003" lon="3.46374">
        <ele>61.525239</ele>
        <time>2023-12-30T16:15:36.000Z</time>
      </trkpt>
      <trkpt lat="43.44002" lon="3.46372">
        <ele>61.494232</ele>
        <time>2023-12-30T16:15:37.000Z</time>
      </trkpt>
      <trkpt lat="43.44002" lon="3.46371">
        <ele>61.472818</ele>
        <time>2023-12-30T16:15:38.000Z</time>
      </trkpt>
      <trkpt lat="43.44002" lon="3.46369">
        <ele>61.451404</ele>
        <time>2023-12-30T16:15:39.000Z</time>
      </trkpt>
      <trkpt lat="43.44003" lon="3.46369">
        <ele>61.442</ele>
        <time>2023-12-30T16:15:40.000Z</time>
      </trkpt>
      <trkpt lat="43.44003" lon="3.46369">
        <ele>61.440353</ele>
        <time>2023-12-30T16:15:41.000Z</time>
      </trkpt>
      <trkpt lat="43.44003" lon="3.46369">
        <ele>61.438706</ele>
        <time>2023-12-30T16:15:42.000Z</time>
      </trkpt>
      <trkpt lat="43.44003" lon="3.46369">
        <ele>61.435902</ele>
        <time>2023-12-30T16:15:43.000Z</time>
      </trkpt>
      <trkpt lat="43.44003" lon="3.46369">
        <ele>61.433099</ele>
        <time>2023-12-30T16:15:44.000Z</time>
      </trkpt>
      <trkpt lat="43.44003" lon="3.46369">
        <ele>61.430295</ele>
        <time>2023-12-30T16:15:45.000Z</time>
      </trkpt>
      <trkpt lat="43.44003" lon="3.46369">
        <ele>61.430295</ele>
        <time>2023-12-30T16:15:46.000Z</time>
      </trkpt>
      <trkpt lat="43.44003" lon="3.46369">
        <ele>61.430295</ele>
        <time>2023-12-30T16:15:47.000Z</time>
      </trkpt>
      <trkpt lat="43.44003" lon="3.46369">
        <ele>61.427492</ele>
        <time>2023-12-30T16:15:48.000Z</time>
      </trkpt>
      <trkpt lat="43.44003" lon="3.46369">
        <ele>61.427492</ele>
        <time>2023-12-30T16:15:49.000Z</time>
      </trkpt>
      <trkpt lat="43.44003" lon="3.46369">
        <ele>61.424688</ele>
        <time>2023-12-30T16:15:50.000Z</time>
      </trkpt>
      <trkpt lat="43.44003" lon="3.46369">
        <ele>61.422419</ele>
        <time>2023-12-30T16:15:51.000Z</time>
      </trkpt>
      <trkpt lat="43.44003" lon="3.46369">
        <ele>61.420151</ele>
        <time>2023-12-30T16:15:52.000Z</time>
      </trkpt>
      <trkpt lat="43.44003" lon="3.46369">
        <ele>61.417347</ele>
        <time>2023-12-30T16:15:53.000Z</time>
      </trkpt>
      <trkpt lat="43.44003" lon="3.46369">
        <ele>61.417347</ele>
        <time>2023-12-30T16:15:54.000Z</time>
      </trkpt>
      <trkpt lat="43.44003" lon="3.46369">
        <ele>61.417347</ele>
        <time>2023-12-30T16:15:55.000Z</time>
      </trkpt>
      <trkpt lat="43.44003" lon="3.46369">
        <ele>61.417347</ele>
        <time>2023-12-30T16:15:56.000Z</time>
      </trkpt>
      <trkpt lat="43.44003" lon="3.46369">
        <ele>61.417347</ele>
        <time>2023-12-30T16:15:57.000Z</time>
      </trkpt>
      <trkpt lat="43.44003" lon="3.46369">
        <ele>61.417347</ele>
        <time>2023-12-30T16:15:58.000Z</time>
      </trkpt>
      <trkpt lat="43.44003" lon="3.46369">
        <ele>61.417347</ele>
        <time>2023-12-30T16:15:59.000Z</time>
      </trkpt>
      <trkpt lat="43.44003" lon="3.46369">
        <ele>61.4157</ele>
        <time>2023-12-30T16:16:00.000Z</time>
      </trkpt>
      <trkpt lat="43.44003" lon="3.46369">
        <ele>61.4157</ele>
        <time>2023-12-30T16:16:01.000Z</time>
      </trkpt>
      <trkpt lat="43.44003" lon="3.46369">
        <ele>61.4157</ele>
        <time>2023-12-30T16:16:02.000Z</time>
      </trkpt>
      <trkpt lat="43.44003" lon="3.46369">
        <ele>61.414053</ele>
        <time>2023-12-30T16:16:03.000Z</time>
      </trkpt>
      <trkpt lat="43.44003" lon="3.46369">
        <ele>61.414053</ele>
        <time>2023-12-30T16:16:04.000Z</time>
      </trkpt>
      <trkpt lat="43.44003" lon="3.46369">
        <ele>61.412405</ele>
        <time>2023-12-30T16:16:05.000Z</time>
      </trkpt>
      <trkpt lat="43.44003" lon="3.46369">
        <ele>61.410137</ele>
        <time>2023-12-30T16:16:06.000Z</time>
      </trkpt>
      <trkpt lat="43.44003" lon="3.46369">
        <ele>61.401594</ele>
        <time>2023-12-30T16:16:07.000Z</time>
      </trkpt>
      <trkpt lat="43.44003" lon="3.46366">
        <ele>61.355471</ele>
        <time>2023-12-30T16:16:08.000Z</time>
      </trkpt>
      <trkpt lat="43.44002" lon="3.46363">
        <ele>61.306533</ele>
        <time>2023-12-30T16:16:09.000Z</time>
      </trkpt>
      <trkpt lat="43.44001" lon="3.4636">
        <ele>61.254092</ele>
        <time>2023-12-30T16:16:10.000Z</time>
      </trkpt>
      <trkpt lat="43.43999" lon="3.46359">
        <ele>61.20829</ele>
        <time>2023-12-30T16:16:11.000Z</time>
      </trkpt>
      <trkpt lat="43.43998" lon="3.46357">
        <ele>61.16647</ele>
        <time>2023-12-30T16:16:12.000Z</time>
      </trkpt>
      <trkpt lat="43.43997" lon="3.46355">
        <ele>61.127711</ele>
        <time>2023-12-30T16:16:13.000Z</time>
      </trkpt>
      <trkpt lat="43.43996" lon="3.46353">
        <ele>61.087149</ele>
        <time>2023-12-30T16:16:14.000Z</time>
      </trkpt>
      <trkpt lat="43.43996" lon="3.4635">
        <ele>61.04337</ele>
        <time>2023-12-30T16:16:15.000Z</time>
      </trkpt>
      <trkpt lat="43.43995" lon="3.46348">
        <ele>61.008606</ele>
        <time>2023-12-30T16:16:16.000Z</time>
      </trkpt>
      <trkpt lat="43.43994" lon="3.46346">
        <ele>60.965869</ele>
        <time>2023-12-30T16:16:17.000Z</time>
      </trkpt>
      <trkpt lat="43.43993" lon="3.46345">
        <ele>60.933677</ele>
        <time>2023-12-30T16:16:18.000Z</time>
      </trkpt>
      <trkpt lat="43.43992" lon="3.46342">
        <ele>60.880208</ele>
        <time>2023-12-30T16:16:19.000Z</time>
      </trkpt>
      <trkpt lat="43.43991" lon="3.46339">
        <ele>60.829768</ele>
        <time>2023-12-30T16:16:20.000Z</time>
      </trkpt>
      <trkpt lat="43.4399" lon="3.46336">
        <ele>60.775872</ele>
        <time>2023-12-30T16:16:21.000Z</time>
      </trkpt>
      <trkpt lat="43.43989" lon="3.46333">
        <ele>60.719035</ele>
        <time>2023-12-30T16:16:22.000Z</time>
      </trkpt>
      <trkpt lat="43.43987" lon="3.46332">
        <ele>60.667634</ele>
        <time>2023-12-30T16:16:23.000Z</time>
      </trkpt>
      <trkpt lat="43.43985" lon="3.46332">
        <ele>60.626666</ele>
        <time>2023-12-30T16:16:24.000Z</time>
      </trkpt>
      <trkpt lat="43.43983" lon="3.46332">
        <ele>60.576081</ele>
        <time>2023-12-30T16:16:25.000Z</time>
      </trkpt>
      <trkpt lat="43.43981" lon="3.46332">
        <ele>60.535113</ele>
        <time>2023-12-30T16:16:26.000Z</time>
      </trkpt>
      <trkpt lat="43.4398" lon="3.46331">
        <ele>60.503294</ele>
        <time>2023-12-30T16:16:27.000Z</time>
      </trkpt>
      <trkpt lat="43.43978" lon="3.4633">
        <ele>60.453864</ele>
        <time>2023-12-30T16:16:28.000Z</time>
      </trkpt>
      <trkpt lat="43.43975" lon="3.4633">
        <ele>60.388053</ele>
        <time>2023-12-30T16:16:29.000Z</time>
      </trkpt>
      <trkpt lat="43.43972" lon="3.4633">
        <ele>60.335771</ele>
        <time>2023-12-30T16:16:30.000Z</time>
      </trkpt>
      <trkpt lat="43.43969" lon="3.4633">
        <ele>60.260889</ele>
        <time>2023-12-30T16:16:31.000Z</time>
      </trkpt>
      <trkpt lat="43.43966" lon="3.4633">
        <ele>60.181333</ele>
        <time>2023-12-30T16:16:32.000Z</time>
      </trkpt>
      <trkpt lat="43.43964" lon="3.4633">
        <ele>60.135931</ele>
        <time>2023-12-30T16:16:33.000Z</time>
      </trkpt>
      <trkpt lat="43.43961" lon="3.46329">
        <ele>60.080696</ele>
        <time>2023-12-30T16:16:34.000Z</time>
      </trkpt>
      <trkpt lat="43.43959" lon="3.46326">
        <ele>60.010592</ele>
        <time>2023-12-30T16:16:35.000Z</time>
      </trkpt>
      <trkpt lat="43.43956" lon="3.46325">
        <ele>59.944066</ele>
        <time>2023-12-30T16:16:36.000Z</time>
      </trkpt>
      <trkpt lat="43.43952" lon="3.46326">
        <ele>59.864391</ele>
        <time>2023-12-30T16:16:37.000Z</time>
      </trkpt>
      <trkpt lat="43.43948" lon="3.46327">
        <ele>59.772073</ele>
        <time>2023-12-30T16:16:38.000Z</time>
      </trkpt>
      <trkpt lat="43.43945" lon="3.46329">
        <ele>59.682834</ele>
        <time>2023-12-30T16:16:39.000Z</time>
      </trkpt>
      <trkpt lat="43.43941" lon="3.46332">
        <ele>59.580679</ele>
        <time>2023-12-30T16:16:40.000Z</time>
      </trkpt>
      <trkpt lat="43.43938" lon="3.46337">
        <ele>59.479316</ele>
        <time>2023-12-30T16:16:41.000Z</time>
      </trkpt>
      <trkpt lat="43.43937" lon="3.46342">
        <ele>59.382537</ele>
        <time>2023-12-30T16:16:42.000Z</time>
      </trkpt>
      <trkpt lat="43.43936" lon="3.46348">
        <ele>59.291231</ele>
        <time>2023-12-30T16:16:43.000Z</time>
      </trkpt>
      <trkpt lat="43.43937" lon="3.46353">
        <ele>59.201352</ele>
        <time>2023-12-30T16:16:44.000Z</time>
      </trkpt>
      <trkpt lat="43.43939" lon="3.46358">
        <ele>59.108392</ele>
        <time>2023-12-30T16:16:45.000Z</time>
      </trkpt>
      <trkpt lat="43.43941" lon="3.46362">
        <ele>59.040021</ele>
        <time>2023-12-30T16:16:46.000Z</time>
      </trkpt>
      <trkpt lat="43.43943" lon="3.46365">
        <ele>58.974707</ele>
        <time>2023-12-30T16:16:47.000Z</time>
      </trkpt>
      <trkpt lat="43.43944" lon="3.46369">
        <ele>58.891148</ele>
        <time>2023-12-30T16:16:48.000Z</time>
      </trkpt>
      <trkpt lat="43.43945" lon="3.46374">
        <ele>58.816772</ele>
        <time>2023-12-30T16:16:49.000Z</time>
      </trkpt>
      <trkpt lat="43.43946" lon="3.46377">
        <ele>58.758013</ele>
        <time>2023-12-30T16:16:50.000Z</time>
      </trkpt>
      <trkpt lat="43.43946" lon="3.46381">
        <ele>58.700181</ele>
        <time>2023-12-30T16:16:51.000Z</time>
      </trkpt>
      <trkpt lat="43.43945" lon="3.46384">
        <ele>58.644143</ele>
        <time>2023-12-30T16:16:52.000Z</time>
      </trkpt>
      <trkpt lat="43.43944" lon="3.46387">
        <ele>58.589702</ele>
        <time>2023-12-30T16:16:53.000Z</time>
      </trkpt>
      <trkpt lat="43.43943" lon="3.46391">
        <ele>58.523879</ele>
        <time>2023-12-30T16:16:54.000Z</time>
      </trkpt>
      <trkpt lat="43.43942" lon="3.46395">
        <ele>58.447752</ele>
        <time>2023-12-30T16:16:55.000Z</time>
      </trkpt>
      <trkpt lat="43.43941" lon="3.46399">
        <ele>58.379621</ele>
        <time>2023-12-30T16:16:56.000Z</time>
      </trkpt>
      <trkpt lat="43.43939" lon="3.46402">
        <ele>58.318826</ele>
        <time>2023-12-30T16:16:57.000Z</time>
      </trkpt>
      <trkpt lat="43.43938" lon="3.46405">
        <ele>58.258704</ele>
        <time>2023-12-30T16:16:58.000Z</time>
      </trkpt>
      <trkpt lat="43.43935" lon="3.46408">
        <ele>58.180593</ele>
        <time>2023-12-30T16:16:59.000Z</time>
      </trkpt>
      <trkpt lat="43.43932" lon="3.46412">
        <ele>57.964</ele>
        <time>2023-12-30T16:17:00.000Z</time>
      </trkpt>
      <trkpt lat="43.43927" lon="3.46415">
        <ele>57.706002</ele>
        <time>2023-12-30T16:17:01.000Z</time>
      </trkpt>
      <trkpt lat="43.43922" lon="3.46415">
        <ele>57.446322</ele>
        <time>2023-12-30T16:17:02.000Z</time>
      </trkpt>
      <trkpt lat="43.43917" lon="3.46413">
        <ele>57.152998</ele>
        <time>2023-12-30T16:17:03.000Z</time>
      </trkpt>
      <trkpt lat="43.43912" lon="3.46409">
        <ele>56.849115</ele>
        <time>2023-12-30T16:17:04.000Z</time>
      </trkpt>
      <trkpt lat="43.4391" lon="3.46404">
        <ele>56.638436</ele>
        <time>2023-12-30T16:17:05.000Z</time>
      </trkpt>
      <trkpt lat="43.43908" lon="3.46401">
        <ele>56.499388</ele>
        <time>2023-12-30T16:17:06.000Z</time>
      </trkpt>
      <trkpt lat="43.43907" lon="3.46399">
        <ele>56.419852</ele>
        <time>2023-12-30T16:17:07.000Z</time>
      </trkpt>
      <trkpt lat="43.43908" lon="3.464">
        <ele>56.366659</ele>
        <time>2023-12-30T16:17:08.000Z</time>
      </trkpt>
      <trkpt lat="43.43908" lon="3.464">
        <ele>56.362891</ele>
        <time>2023-12-30T16:17:09.000Z</time>
      </trkpt>
      <trkpt lat="43.43908" lon="3.464">
        <ele>56.359123</ele>
        <time>2023-12-30T16:17:10.000Z</time>
      </trkpt>
      <trkpt lat="43.43908" lon="3.464">
        <ele>56.359123</ele>
        <time>2023-12-30T16:17:11.000Z</time>
      </trkpt>
      <trkpt lat="43.43908" lon="3.464">
        <ele>56.359123</ele>
        <time>2023-12-30T16:17:12.000Z</time>
      </trkpt>
      <trkpt lat="43.43908" lon="3.464">
        <ele>56.353935</ele>
        <time>2023-12-30T16:17:13.000Z</time>
      </trkpt>
      <trkpt lat="43.43908" lon="3.464">
        <ele>56.348746</ele>
        <time>2023-12-30T16:17:14.000Z</time>
      </trkpt>
      <trkpt lat="43.43908" lon="3.464">
        <ele>56.344979</ele>
        <time>2023-12-30T16:17:15.000Z</time>
      </trkpt>
      <trkpt lat="43.43908" lon="3.464">
        <ele>56.33979</ele>
        <time>2023-12-30T16:17:16.000Z</time>
      </trkpt>
      <trkpt lat="43.43908" lon="3.464">
        <ele>56.323852</ele>
        <time>2023-12-30T16:17:17.000Z</time>
      </trkpt>
      <trkpt lat="43.43907" lon="3.46397">
        <ele>56.187048</ele>
        <time>2023-12-30T16:17:18.000Z</time>
      </trkpt>
      <trkpt lat="43.43906" lon="3.46394">
        <ele>56.077263</ele>
        <time>2023-12-30T16:17:19.000Z</time>
      </trkpt>
      <trkpt lat="43.43904" lon="3.46392">
        <ele>55.98239</ele>
        <time>2023-12-30T16:17:20.000Z</time>
      </trkpt>
      <trkpt lat="43.43903" lon="3.46392">
        <ele>55.906312</ele>
        <time>2023-12-30T16:17:21.000Z</time>
      </trkpt>
      <trkpt lat="43.439" lon="3.46391">
        <ele>55.772237</ele>
        <time>2023-12-30T16:17:22.000Z</time>
      </trkpt>
      <trkpt lat="43.43897" lon="3.4639">
        <ele>55.615441</ele>
        <time>2023-12-30T16:17:23.000Z</time>
      </trkpt>
      <trkpt lat="43.43896" lon="3.46389">
        <ele>55.501807</ele>
        <time>2023-12-30T16:17:24.000Z</time>
      </trkpt>
      <trkpt lat="43.43894" lon="3.46387">
        <ele>55.415143</ele>
        <time>2023-12-30T16:17:25.000Z</time>
      </trkpt>
      <trkpt lat="43.43893" lon="3.46384">
        <ele>55.296324</ele>
        <time>2023-12-30T16:17:26.000Z</time>
      </trkpt>
      <trkpt lat="43.43892" lon="3.46379">
        <ele>55.095881</ele>
        <time>2023-12-30T16:17:27.000Z</time>
      </trkpt>
      <trkpt lat="43.43891" lon="3.46373">
        <ele>54.83173</ele>
        <time>2023-12-30T16:17:28.000Z</time>
      </trkpt>
      <trkpt lat="43.43889" lon="3.46367">
        <ele>54.577388</ele>
        <time>2023-12-30T16:17:29.000Z</time>
      </trkpt>
      <trkpt lat="43.43886" lon="3.46361">
        <ele>54.328406</ele>
        <time>2023-12-30T16:17:30.000Z</time>
      </trkpt>
      <trkpt lat="43.43883" lon="3.46356">
        <ele>54.082902</ele>
        <time>2023-12-30T16:17:31.000Z</time>
      </trkpt>
      <trkpt lat="43.43879" lon="3.46352">
        <ele>53.832613</ele>
        <time>2023-12-30T16:17:32.000Z</time>
      </trkpt>
      <trkpt lat="43.43876" lon="3.46349">
        <ele>53.606118</ele>
        <time>2023-12-30T16:17:33.000Z</time>
      </trkpt>
      <trkpt lat="43.43873" lon="3.46346">
        <ele>53.426114</ele>
        <time>2023-12-30T16:17:34.000Z</time>
      </trkpt>
      <trkpt lat="43.43871" lon="3.46344">
        <ele>53.322883</ele>
        <time>2023-12-30T16:17:35.000Z</time>
      </trkpt>
      <trkpt lat="43.4387" lon="3.46343">
        <ele>53.234886</ele>
        <time>2023-12-30T16:17:36.000Z</time>
      </trkpt>
      <trkpt lat="43.43869" lon="3.46342">
        <ele>53.16009</ele>
        <time>2023-12-30T16:17:37.000Z</time>
      </trkpt>
      <trkpt lat="43.43867" lon="3.4634">
        <ele>53.060713</ele>
        <time>2023-12-30T16:17:38.000Z</time>
      </trkpt>
      <trkpt lat="43.43867" lon="3.46338">
        <ele>52.977065</ele>
        <time>2023-12-30T16:17:39.000Z</time>
      </trkpt>
      <trkpt lat="43.43866" lon="3.46335">
        <ele>52.861099</ele>
        <time>2023-12-30T16:17:40.000Z</time>
      </trkpt>
      <trkpt lat="43.43865" lon="3.46331">
        <ele>52.694825</ele>
        <time>2023-12-30T16:17:41.000Z</time>
      </trkpt>
      <trkpt lat="43.43863" lon="3.46326">
        <ele>52.503711</ele>
        <time>2023-12-30T16:17:42.000Z</time>
      </trkpt>
      <trkpt lat="43.43862" lon="3.46323">
        <ele>52.343169</ele>
        <time>2023-12-30T16:17:43.000Z</time>
      </trkpt>
      <trkpt lat="43.4386" lon="3.46319">
        <ele>52.19262</ele>
        <time>2023-12-30T16:17:44.000Z</time>
      </trkpt>
      <trkpt lat="43.43859" lon="3.46317">
        <ele>52.085917</ele>
        <time>2023-12-30T16:17:45.000Z</time>
      </trkpt>
      <trkpt lat="43.43858" lon="3.46315">
        <ele>51.982249</ele>
        <time>2023-12-30T16:17:46.000Z</time>
      </trkpt>
      <trkpt lat="43.43857" lon="3.46313">
        <ele>51.890377</ele>
        <time>2023-12-30T16:17:47.000Z</time>
      </trkpt>
      <trkpt lat="43.43856" lon="3.4631">
        <ele>51.782842</ele>
        <time>2023-12-30T16:17:48.000Z</time>
      </trkpt>
      <trkpt lat="43.43855" lon="3.46308">
        <ele>51.703305</ele>
        <time>2023-12-30T16:17:49.000Z</time>
      </trkpt>
      <trkpt lat="43.43854" lon="3.46307">
        <ele>51.635633</ele>
        <time>2023-12-30T16:17:50.000Z</time>
      </trkpt>
      <trkpt lat="43.43854" lon="3.46305">
        <ele>51.564712</ele>
        <time>2023-12-30T16:17:51.000Z</time>
      </trkpt>
      <trkpt lat="43.43853" lon="3.46304">
        <ele>51.513319</ele>
        <time>2023-12-30T16:17:52.000Z</time>
      </trkpt>
      <trkpt lat="43.43853" lon="3.46304">
        <ele>51.49378</ele>
        <time>2023-12-30T16:17:53.000Z</time>
      </trkpt>
      <trkpt lat="43.43853" lon="3.46304">
        <ele>51.49378</ele>
        <time>2023-12-30T16:17:54.000Z</time>
      </trkpt>
      <trkpt lat="43.43853" lon="3.46304">
        <ele>51.490013</ele>
        <time>2023-12-30T16:17:55.000Z</time>
      </trkpt>
      <trkpt lat="43.43853" lon="3.46304">
        <ele>51.490013</ele>
        <time>2023-12-30T16:17:56.000Z</time>
      </trkpt>
      <trkpt lat="43.43853" lon="3.46304">
        <ele>51.490013</ele>
        <time>2023-12-30T16:17:57.000Z</time>
      </trkpt>
      <trkpt lat="43.43853" lon="3.46304">
        <ele>51.490013</ele>
        <time>2023-12-30T16:17:58.000Z</time>
      </trkpt>
      <trkpt lat="43.43853" lon="3.46304">
        <ele>51.490013</ele>
        <time>2023-12-30T16:17:59.000Z</time>
      </trkpt>
      <trkpt lat="43.43853" lon="3.46304">
        <ele>51.490013</ele>
        <time>2023-12-30T16:18:00.000Z</time>
      </trkpt>
      <trkpt lat="43.43853" lon="3.46304">
        <ele>51.490013</ele>
        <time>2023-12-30T16:18:01.000Z</time>
      </trkpt>
      <trkpt lat="43.43853" lon="3.46304">
        <ele>51.484824</ele>
        <time>2023-12-30T16:18:02.000Z</time>
      </trkpt>
      <trkpt lat="43.43853" lon="3.46304">
        <ele>51.484824</ele>
        <time>2023-12-30T16:18:03.000Z</time>
      </trkpt>
      <trkpt lat="43.43853" lon="3.46304">
        <ele>51.479635</ele>
        <time>2023-12-30T16:18:04.000Z</time>
      </trkpt>
      <trkpt lat="43.43853" lon="3.46304">
        <ele>51.474446</ele>
        <time>2023-12-30T16:18:05.000Z</time>
      </trkpt>
      <trkpt lat="43.43853" lon="3.46304">
        <ele>51.474446</ele>
        <time>2023-12-30T16:18:06.000Z</time>
      </trkpt>
      <trkpt lat="43.43853" lon="3.46304">
        <ele>51.468034</ele>
        <time>2023-12-30T16:18:07.000Z</time>
      </trkpt>
      <trkpt lat="43.43854" lon="3.46298">
        <ele>46.688263</ele>
        <time>2023-12-30T16:19:27.000Z</time>
      </trkpt>
      <trkpt lat="43.43858" lon="3.46294">
        <ele>46.539274</ele>
        <time>2023-12-30T16:19:28.000Z</time>
      </trkpt>
      <trkpt lat="43.43862" lon="3.46292">
        <ele>46.389761</ele>
        <time>2023-12-30T16:19:29.000Z</time>
      </trkpt>
      <trkpt lat="43.43867" lon="3.46289">
        <ele>46.223098</ele>
        <time>2023-12-30T16:19:30.000Z</time>
      </trkpt>
      <trkpt lat="43.43872" lon="3.46285">
        <ele>46.055167</ele>
        <time>2023-12-30T16:19:31.000Z</time>
      </trkpt>
      <trkpt lat="43.43875" lon="3.46282">
        <ele>45.94743</ele>
        <time>2023-12-30T16:19:32.000Z</time>
      </trkpt>
      <trkpt lat="43.43877" lon="3.4628">
        <ele>45.873382</ele>
        <time>2023-12-30T16:19:33.000Z</time>
      </trkpt>
      <trkpt lat="43.43878" lon="3.46279">
        <ele>45.837504</ele>
        <time>2023-12-30T16:19:34.000Z</time>
      </trkpt>
      <trkpt lat="43.43878" lon="3.46279">
        <ele>45.833748</ele>
        <time>2023-12-30T16:19:35.000Z</time>
      </trkpt>
      <trkpt lat="43.43877" lon="3.46279">
        <ele>45.810459</ele>
        <time>2023-12-30T16:19:36.000Z</time>
      </trkpt>
      <trkpt lat="43.43877" lon="3.46279">
        <ele>45.810459</ele>
        <time>2023-12-30T16:19:37.000Z</time>
      </trkpt>
      <trkpt lat="43.43877" lon="3.4628">
        <ele>45.808252</ele>
        <time>2023-12-30T16:19:38.000Z</time>
      </trkpt>
      <trkpt lat="43.43877" lon="3.4628">
        <ele>45.808252</ele>
        <time>2023-12-30T16:19:39.000Z</time>
      </trkpt>
      <trkpt lat="43.43877" lon="3.4628">
        <ele>45.808252</ele>
        <time>2023-12-30T16:19:40.000Z</time>
      </trkpt>
      <trkpt lat="43.43878" lon="3.46279">
        <ele>45.790313</ele>
        <time>2023-12-30T16:19:41.000Z</time>
      </trkpt>
      <trkpt lat="43.43879" lon="3.46275">
        <ele>45.705508</ele>
        <time>2023-12-30T16:19:42.000Z</time>
      </trkpt>
      <trkpt lat="43.4388" lon="3.46273">
        <ele>45.640994</ele>
        <time>2023-12-30T16:19:43.000Z</time>
      </trkpt>
      <trkpt lat="43.43881" lon="3.46271">
        <ele>45.576683</ele>
        <time>2023-12-30T16:19:44.000Z</time>
      </trkpt>
      <trkpt lat="43.43882" lon="3.46268">
        <ele>45.513114</ele>
        <time>2023-12-30T16:19:45.000Z</time>
      </trkpt>
      <trkpt lat="43.43883" lon="3.46265">
        <ele>45.439432</ele>
        <time>2023-12-30T16:19:46.000Z</time>
      </trkpt>
      <trkpt lat="43.43884" lon="3.46262">
        <ele>45.367794</ele>
        <time>2023-12-30T16:19:47.000Z</time>
      </trkpt>
      <trkpt lat="43.43885" lon="3.46259">
        <ele>45.289089</ele>
        <time>2023-12-30T16:19:48.000Z</time>
      </trkpt>
      <trkpt lat="43.43887" lon="3.46256">
        <ele>45.213872</ele>
        <time>2023-12-30T16:19:49.000Z</time>
      </trkpt>
      <trkpt lat="43.43888" lon="3.46253">
        <ele>45.136768</ele>
        <time>2023-12-30T16:19:50.000Z</time>
      </trkpt>
      <trkpt lat="43.43889" lon="3.4625">
        <ele>45.067902</ele>
        <time>2023-12-30T16:19:51.000Z</time>
      </trkpt>
      <trkpt lat="43.4389" lon="3.46248">
        <ele>45.003388</ele>
        <time>2023-12-30T16:19:52.000Z</time>
      </trkpt>
      <trkpt lat="43.43891" lon="3.46245">
        <ele>44.933128</ele>
        <time>2023-12-30T16:19:53.000Z</time>
      </trkpt>
      <trkpt lat="43.43892" lon="3.46242">
        <ele>44.857391</ele>
        <time>2023-12-30T16:19:54.000Z</time>
      </trkpt>
      <trkpt lat="43.43893" lon="3.46239">
        <ele>44.783219</ele>
        <time>2023-12-30T16:19:55.000Z</time>
      </trkpt>
      <trkpt lat="43.43895" lon="3.46236">
        <ele>44.704515</ele>
        <time>2023-12-30T16:19:56.000Z</time>
      </trkpt>
      <trkpt lat="43.43895" lon="3.46232">
        <ele>44.628778</ele>
        <time>2023-12-30T16:19:57.000Z</time>
      </trkpt>
      <trkpt lat="43.43897" lon="3.46228">
        <ele>44.52394</ele>
        <time>2023-12-30T16:19:58.000Z</time>
      </trkpt>
      <trkpt lat="43.43899" lon="3.46223">
        <ele>44.385356</ele>
        <time>2023-12-30T16:19:59.000Z</time>
      </trkpt>
      <trkpt lat="43.43902" lon="3.46216">
        <ele>44.224217</ele>
        <time>2023-12-30T16:20:00.000Z</time>
      </trkpt>
      <trkpt lat="43.43905" lon="3.46211">
        <ele>44.063452</ele>
        <time>2023-12-30T16:20:01.000Z</time>
      </trkpt>
      <trkpt lat="43.43908" lon="3.46205">
        <ele>43.899088</ele>
        <time>2023-12-30T16:20:02.000Z</time>
      </trkpt>
      <trkpt lat="43.43911" lon="3.46198">
        <ele>43.734462</ele>
        <time>2023-12-30T16:20:03.000Z</time>
      </trkpt>
      <trkpt lat="43.43914" lon="3.46193">
        <ele>43.57729</ele>
        <time>2023-12-30T16:20:04.000Z</time>
      </trkpt>
      <trkpt lat="43.43917" lon="3.46187">
        <ele>43.441306</ele>
        <time>2023-12-30T16:20:05.000Z</time>
      </trkpt>
      <trkpt lat="43.43919" lon="3.46182">
        <ele>43.396287</ele>
        <time>2023-12-30T16:20:06.000Z</time>
      </trkpt>
      <trkpt lat="43.43921" lon="3.46176">
        <ele>43.447613</ele>
        <time>2023-12-30T16:20:07.000Z</time>
      </trkpt>
      <trkpt lat="43.43923" lon="3.4617">
        <ele>43.499679</ele>
        <time>2023-12-30T16:20:08.000Z</time>
      </trkpt>
      <trkpt lat="43.43925" lon="3.46165">
        <ele>43.552044</ele>
        <time>2023-12-30T16:20:09.000Z</time>
      </trkpt>
      <trkpt lat="43.43927" lon="3.46159">
        <ele>43.604715</ele>
        <time>2023-12-30T16:20:10.000Z</time>
      </trkpt>
      <trkpt lat="43.43931" lon="3.46155">
        <ele>43.657841</ele>
        <time>2023-12-30T16:20:11.000Z</time>
      </trkpt>
      <trkpt lat="43.43935" lon="3.46151">
        <ele>43.711816</ele>
        <time>2023-12-30T16:20:12.000Z</time>
      </trkpt>
      <trkpt lat="43.43938" lon="3.46147">
        <ele>43.757746</ele>
        <time>2023-12-30T16:20:13.000Z</time>
      </trkpt>
      <trkpt lat="43.43941" lon="3.46143">
        <ele>43.810025</ele>
        <time>2023-12-30T16:20:14.000Z</time>
      </trkpt>
      <trkpt lat="43.43944" lon="3.46138">
        <ele>43.866595</ele>
        <time>2023-12-30T16:20:15.000Z</time>
      </trkpt>
      <trkpt lat="43.43945" lon="3.46133">
        <ele>43.910686</ele>
        <time>2023-12-30T16:20:16.000Z</time>
      </trkpt>
      <trkpt lat="43.43946" lon="3.46128">
        <ele>43.952646</ele>
        <time>2023-12-30T16:20:17.000Z</time>
      </trkpt>
      <trkpt lat="43.43945" lon="3.46121">
        <ele>44.006535</ele>
        <time>2023-12-30T16:20:18.000Z</time>
      </trkpt>
      <trkpt lat="43.43944" lon="3.46113">
        <ele>44.071753</ele>
        <time>2023-12-30T16:20:19.000Z</time>
      </trkpt>
      <trkpt lat="43.43944" lon="3.46106">
        <ele>44.132709</ele>
        <time>2023-12-30T16:20:20.000Z</time>
      </trkpt>
      <trkpt lat="43.43944" lon="3.46098">
        <ele>44.198513</ele>
        <time>2023-12-30T16:20:21.000Z</time>
      </trkpt>
      <trkpt lat="43.43944" lon="3.4609">
        <ele>44.264464</ele>
        <time>2023-12-30T16:20:22.000Z</time>
      </trkpt>
      <trkpt lat="43.43946" lon="3.46082">
        <ele>44.33326</ele>
        <time>2023-12-30T16:20:23.000Z</time>
      </trkpt>
      <trkpt lat="43.43947" lon="3.46074">
        <ele>44.399006</ele>
        <time>2023-12-30T16:20:24.000Z</time>
      </trkpt>
      <trkpt lat="43.43949" lon="3.46067">
        <ele>44.461274</ele>
        <time>2023-12-30T16:20:25.000Z</time>
      </trkpt>
      <trkpt lat="43.43951" lon="3.4606">
        <ele>44.516942</ele>
        <time>2023-12-30T16:20:26.000Z</time>
      </trkpt>
      <trkpt lat="43.43952" lon="3.46055">
        <ele>44.564875</ele>
        <time>2023-12-30T16:20:27.000Z</time>
      </trkpt>
      <trkpt lat="43.43954" lon="3.46048">
        <ele>44.624447</ele>
        <time>2023-12-30T16:20:28.000Z</time>
      </trkpt>
      <trkpt lat="43.43955" lon="3.46041">
        <ele>44.682546</ele>
        <time>2023-12-30T16:20:29.000Z</time>
      </trkpt>
      <trkpt lat="43.43956" lon="3.46034">
        <ele>44.740209</ele>
        <time>2023-12-30T16:20:30.000Z</time>
      </trkpt>
      <trkpt lat="43.43958" lon="3.46029">
        <ele>44.788529</ele>
        <time>2023-12-30T16:20:31.000Z</time>
      </trkpt>
      <trkpt lat="43.43959" lon="3.46026">
        <ele>44.816427</ele>
        <time>2023-12-30T16:20:32.000Z</time>
      </trkpt>
      <trkpt lat="43.4396" lon="3.46023">
        <ele>44.843885</ele>
        <time>2023-12-30T16:20:33.000Z</time>
      </trkpt>
      <trkpt lat="43.43961" lon="3.4602">
        <ele>44.870289</ele>
        <time>2023-12-30T16:20:34.000Z</time>
      </trkpt>
      <trkpt lat="43.43962" lon="3.46018">
        <ele>44.891776</ele>
        <time>2023-12-30T16:20:35.000Z</time>
      </trkpt>
      <trkpt lat="43.43962" lon="3.46016">
        <ele>44.908066</ele>
        <time>2023-12-30T16:20:36.000Z</time>
      </trkpt>
      <trkpt lat="43.43963" lon="3.46013">
        <ele>44.930872</ele>
        <time>2023-12-30T16:20:37.000Z</time>
      </trkpt>
      <trkpt lat="43.43964" lon="3.46011">
        <ele>44.953629</ele>
        <time>2023-12-30T16:20:38.000Z</time>
      </trkpt>
      <trkpt lat="43.43965" lon="3.46008">
        <ele>44.975844</ele>
        <time>2023-12-30T16:20:39.000Z</time>
      </trkpt>
      <trkpt lat="43.43965" lon="3.46006">
        <ele>44.993241</ele>
        <time>2023-12-30T16:20:40.000Z</time>
      </trkpt>
      <trkpt lat="43.43966" lon="3.46005">
        <ele>45.009091</ele>
        <time>2023-12-30T16:20:41.000Z</time>
      </trkpt>
      <trkpt lat="43.43966" lon="3.46003">
        <ele>45.025361</ele>
        <time>2023-12-30T16:20:42.000Z</time>
      </trkpt>
      <trkpt lat="43.43967" lon="3.46001">
        <ele>45.042157</ele>
        <time>2023-12-30T16:20:43.000Z</time>
      </trkpt>
      <trkpt lat="43.43967" lon="3.45999">
        <ele>45.058446</ele>
        <time>2023-12-30T16:20:44.000Z</time>
      </trkpt>
      <trkpt lat="43.43968" lon="3.45997">
        <ele>45.078501</ele>
        <time>2023-12-30T16:20:45.000Z</time>
      </trkpt>
      <trkpt lat="43.43969" lon="3.45995">
        <ele>45.098256</ele>
        <time>2023-12-30T16:20:46.000Z</time>
      </trkpt>
      <trkpt lat="43.43969" lon="3.45992">
        <ele>45.121478</ele>
        <time>2023-12-30T16:20:47.000Z</time>
      </trkpt>
      <trkpt lat="43.4397" lon="3.45989">
        <ele>45.143947</ele>
        <time>2023-12-30T16:20:48.000Z</time>
      </trkpt>
      <trkpt lat="43.43971" lon="3.45987">
        <ele>45.167169</ele>
        <time>2023-12-30T16:20:49.000Z</time>
      </trkpt>
      <trkpt lat="43.43972" lon="3.45984">
        <ele>45.188888</ele>
        <time>2023-12-30T16:20:50.000Z</time>
      </trkpt>
      <trkpt lat="43.43972" lon="3.45982">
        <ele>45.208917</ele>
        <time>2023-12-30T16:20:51.000Z</time>
      </trkpt>
      <trkpt lat="43.43972" lon="3.4598">
        <ele>45.227876</ele>
        <time>2023-12-30T16:20:52.000Z</time>
      </trkpt>
      <trkpt lat="43.43973" lon="3.45977">
        <ele>45.247204</ele>
        <time>2023-12-30T16:20:53.000Z</time>
      </trkpt>
      <trkpt lat="43.43974" lon="3.45975">
        <ele>45.27001</ele>
        <time>2023-12-30T16:20:54.000Z</time>
      </trkpt>
      <trkpt lat="43.43974" lon="3.45973">
        <ele>45.290984</ele>
        <time>2023-12-30T16:20:55.000Z</time>
      </trkpt>
      <trkpt lat="43.43975" lon="3.45969">
        <ele>45.318442</ele>
        <time>2023-12-30T16:20:56.000Z</time>
      </trkpt>
      <trkpt lat="43.43976" lon="3.45967">
        <ele>45.33777</ele>
        <time>2023-12-30T16:20:57.000Z</time>
      </trkpt>
      <trkpt lat="43.43976" lon="3.45965">
        <ele>45.359096</ele>
        <time>2023-12-30T16:20:58.000Z</time>
      </trkpt>
      <trkpt lat="43.43977" lon="3.45962">
        <ele>45.383106</ele>
        <time>2023-12-30T16:20:59.000Z</time>
      </trkpt>
      <trkpt lat="43.43978" lon="3.4596">
        <ele>45.405864</ele>
        <time>2023-12-30T16:21:00.000Z</time>
      </trkpt>
      <trkpt lat="43.43979" lon="3.45958">
        <ele>45.47121</ele>
        <time>2023-12-30T16:21:01.000Z</time>
      </trkpt>
      <trkpt lat="43.43979" lon="3.45955">
        <ele>45.554718</ele>
        <time>2023-12-30T16:21:02.000Z</time>
      </trkpt>
      <trkpt lat="43.4398" lon="3.45952">
        <ele>45.635734</ele>
        <time>2023-12-30T16:21:03.000Z</time>
      </trkpt>
      <trkpt lat="43.4398" lon="3.4595">
        <ele>45.717511</ele>
        <time>2023-12-30T16:21:04.000Z</time>
      </trkpt>
      <trkpt lat="43.43981" lon="3.45948">
        <ele>45.790479</ele>
        <time>2023-12-30T16:21:05.000Z</time>
      </trkpt>
      <trkpt lat="43.43982" lon="3.45945">
        <ele>45.875802</ele>
        <time>2023-12-30T16:21:06.000Z</time>
      </trkpt>
      <trkpt lat="43.43982" lon="3.45942">
        <ele>45.974138</ele>
        <time>2023-12-30T16:21:07.000Z</time>
      </trkpt>
      <trkpt lat="43.43983" lon="3.45939">
        <ele>46.068846</ele>
        <time>2023-12-30T16:21:08.000Z</time>
      </trkpt>
      <trkpt lat="43.43984" lon="3.45936">
        <ele>46.167628</ele>
        <time>2023-12-30T16:21:09.000Z</time>
      </trkpt>
      <trkpt lat="43.43985" lon="3.45934">
        <ele>46.255452</ele>
        <time>2023-12-30T16:21:10.000Z</time>
      </trkpt>
      <trkpt lat="43.43986" lon="3.45931">
        <ele>46.342338</ele>
        <time>2023-12-30T16:21:11.000Z</time>
      </trkpt>
      <trkpt lat="43.43986" lon="3.45928">
        <ele>46.432166</ele>
        <time>2023-12-30T16:21:12.000Z</time>
      </trkpt>
      <trkpt lat="43.43987" lon="3.45927">
        <ele>46.49194</ele>
        <time>2023-12-30T16:21:13.000Z</time>
      </trkpt>
      <trkpt lat="43.43989" lon="3.45925">
        <ele>46.5783</ele>
        <time>2023-12-30T16:21:14.000Z</time>
      </trkpt>
      <trkpt lat="43.4399" lon="3.45923">
        <ele>46.660787</ele>
        <time>2023-12-30T16:21:15.000Z</time>
      </trkpt>
      <trkpt lat="43.4399" lon="3.45919">
        <ele>46.764921</ele>
        <time>2023-12-30T16:21:16.000Z</time>
      </trkpt>
      <trkpt lat="43.43991" lon="3.45916">
        <ele>46.869055</ele>
        <time>2023-12-30T16:21:17.000Z</time>
      </trkpt>
      <trkpt lat="43.43992" lon="3.45913">
        <ele>46.967837</ele>
        <time>2023-12-30T16:21:18.000Z</time>
      </trkpt>
      <trkpt lat="43.43993" lon="3.4591">
        <ele>47.075031</ele>
        <time>2023-12-30T16:21:19.000Z</time>
      </trkpt>
      <trkpt lat="43.43994" lon="3.45907">
        <ele>47.172986</ele>
        <time>2023-12-30T16:21:20.000Z</time>
      </trkpt>
      <trkpt lat="43.43996" lon="3.45904">
        <ele>47.27569</ele>
        <time>2023-12-30T16:21:21.000Z</time>
      </trkpt>
      <trkpt lat="43.43997" lon="3.45901">
        <ele>47.384628</ele>
        <time>2023-12-30T16:21:22.000Z</time>
      </trkpt>
      <trkpt lat="43.43997" lon="3.45898">
        <ele>47.496331</ele>
        <time>2023-12-30T16:21:23.000Z</time>
      </trkpt>
      <trkpt lat="43.43998" lon="3.45895">
        <ele>47.579444</ele>
        <time>2023-12-30T16:21:24.000Z</time>
      </trkpt>
      <trkpt lat="43.43999" lon="3.45893">
        <ele>47.661888</ele>
        <time>2023-12-30T16:21:25.000Z</time>
      </trkpt>
      <trkpt lat="43.44" lon="3.4589">
        <ele>47.757899</ele>
        <time>2023-12-30T16:21:26.000Z</time>
      </trkpt>
      <trkpt lat="43.44001" lon="3.45887">
        <ele>47.862273</ele>
        <time>2023-12-30T16:21:27.000Z</time>
      </trkpt>
      <trkpt lat="43.44002" lon="3.45884">
        <ele>47.94916</ele>
        <time>2023-12-30T16:21:28.000Z</time>
      </trkpt>
      <trkpt lat="43.44002" lon="3.45882">
        <ele>48.025985</ele>
        <time>2023-12-30T16:21:29.000Z</time>
      </trkpt>
      <trkpt lat="43.44003" lon="3.45879">
        <ele>48.117398</ele>
        <time>2023-12-30T16:21:30.000Z</time>
      </trkpt>
      <trkpt lat="43.44004" lon="3.45876">
        <ele>48.20911</ele>
        <time>2023-12-30T16:21:31.000Z</time>
      </trkpt>
      <trkpt lat="43.44004" lon="3.45873">
        <ele>48.309825</ele>
        <time>2023-12-30T16:21:32.000Z</time>
      </trkpt>
      <trkpt lat="43.44005" lon="3.45869">
        <ele>48.425666</ele>
        <time>2023-12-30T16:21:33.000Z</time>
      </trkpt>
      <trkpt lat="43.44006" lon="3.45866">
        <ele>48.524381</ele>
        <time>2023-12-30T16:21:34.000Z</time>
      </trkpt>
      <trkpt lat="43.44006" lon="3.45863">
        <ele>48.628106</ele>
        <time>2023-12-30T16:21:35.000Z</time>
      </trkpt>
      <trkpt lat="43.44006" lon="3.45859">
        <ele>48.748404</ele>
        <time>2023-12-30T16:21:36.000Z</time>
      </trkpt>
      <trkpt lat="43.44007" lon="3.45855">
        <ele>48.883133</ele>
        <time>2023-12-30T16:21:37.000Z</time>
      </trkpt>
      <trkpt lat="43.44008" lon="3.45851">
        <ele>49.007498</ele>
        <time>2023-12-30T16:21:38.000Z</time>
      </trkpt>
      <trkpt lat="43.44009" lon="3.45848">
        <ele>49.104537</ele>
        <time>2023-12-30T16:21:39.000Z</time>
      </trkpt>
      <trkpt lat="43.44009" lon="3.45845">
        <ele>49.192342</ele>
        <time>2023-12-30T16:21:40.000Z</time>
      </trkpt>
      <trkpt lat="43.4401" lon="3.45843">
        <ele>49.262124</ele>
        <time>2023-12-30T16:21:41.000Z</time>
      </trkpt>
      <trkpt lat="43.4401" lon="3.45841">
        <ele>49.339164</ele>
        <time>2023-12-30T16:21:42.000Z</time>
      </trkpt>
      <trkpt lat="43.4401" lon="3.45838">
        <ele>49.425421</ele>
        <time>2023-12-30T16:21:43.000Z</time>
      </trkpt>
      <trkpt lat="43.4401" lon="3.45835">
        <ele>49.505869</ele>
        <time>2023-12-30T16:21:44.000Z</time>
      </trkpt>
      <trkpt lat="43.4401" lon="3.45834">
        <ele>49.558176</ele>
        <time>2023-12-30T16:21:45.000Z</time>
      </trkpt>
      <trkpt lat="43.4401" lon="3.45832">
        <ele>49.606049</ele>
        <time>2023-12-30T16:21:46.000Z</time>
      </trkpt>
      <trkpt lat="43.4401" lon="3.4583">
        <ele>49.671217</ele>
        <time>2023-12-30T16:21:47.000Z</time>
      </trkpt>
      <trkpt lat="43.4401" lon="3.45828">
        <ele>49.745548</ele>
        <time>2023-12-30T16:21:48.000Z</time>
      </trkpt>
      <trkpt lat="43.4401" lon="3.45827">
        <ele>49.77884</ele>
        <time>2023-12-30T16:21:49.000Z</time>
      </trkpt>
      <trkpt lat="43.44009" lon="3.45826">
        <ele>49.80385</ele>
        <time>2023-12-30T16:21:50.000Z</time>
      </trkpt>
      <trkpt lat="43.44009" lon="3.45826">
        <ele>49.806927</ele>
        <time>2023-12-30T16:21:51.000Z</time>
      </trkpt>
      <trkpt lat="43.44009" lon="3.45826">
        <ele>49.810004</ele>
        <time>2023-12-30T16:21:52.000Z</time>
      </trkpt>
      <trkpt lat="43.44009" lon="3.45826">
        <ele>49.810004</ele>
        <time>2023-12-30T16:21:53.000Z</time>
      </trkpt>
      <trkpt lat="43.44009" lon="3.45826">
        <ele>49.814242</ele>
        <time>2023-12-30T16:21:54.000Z</time>
      </trkpt>
      <trkpt lat="43.44009" lon="3.45826">
        <ele>49.814242</ele>
        <time>2023-12-30T16:21:55.000Z</time>
      </trkpt>
      <trkpt lat="43.44009" lon="3.45826">
        <ele>49.814242</ele>
        <time>2023-12-30T16:21:56.000Z</time>
      </trkpt>
      <trkpt lat="43.44009" lon="3.45826">
        <ele>49.814242</ele>
        <time>2023-12-30T16:21:57.000Z</time>
      </trkpt>
      <trkpt lat="43.44009" lon="3.45826">
        <ele>49.814242</ele>
        <time>2023-12-30T16:21:58.000Z</time>
      </trkpt>
      <trkpt lat="43.44009" lon="3.45826">
        <ele>49.817319</ele>
        <time>2023-12-30T16:21:59.000Z</time>
      </trkpt>
      <trkpt lat="43.44009" lon="3.45826">
        <ele>49.817319</ele>
        <time>2023-12-30T16:22:00.000Z</time>
      </trkpt>
      <trkpt lat="43.44009" lon="3.45826">
        <ele>49.817319</ele>
        <time>2023-12-30T16:22:01.000Z</time>
      </trkpt>
      <trkpt lat="43.44009" lon="3.45826">
        <ele>49.817319</ele>
        <time>2023-12-30T16:22:02.000Z</time>
      </trkpt>
      <trkpt lat="43.44009" lon="3.45826">
        <ele>49.817319</ele>
        <time>2023-12-30T16:22:03.000Z</time>
      </trkpt>
      <trkpt lat="43.44009" lon="3.45826">
        <ele>49.820396</ele>
        <time>2023-12-30T16:22:04.000Z</time>
      </trkpt>
      <trkpt lat="43.44009" lon="3.45826">
        <ele>49.820396</ele>
        <time>2023-12-30T16:22:05.000Z</time>
      </trkpt>
      <trkpt lat="43.44009" lon="3.45826">
        <ele>49.823473</ele>
        <time>2023-12-30T16:22:06.000Z</time>
      </trkpt>
      <trkpt lat="43.44009" lon="3.45826">
        <ele>49.826549</ele>
        <time>2023-12-30T16:22:07.000Z</time>
      </trkpt>
      <trkpt lat="43.44009" lon="3.45826">
        <ele>49.836706</ele>
        <time>2023-12-30T16:22:08.000Z</time>
      </trkpt>
      <trkpt lat="43.44009" lon="3.45823">
        <ele>49.914095</ele>
        <time>2023-12-30T16:22:09.000Z</time>
      </trkpt>
      <trkpt lat="43.44009" lon="3.45821">
        <ele>49.98499</ele>
        <time>2023-12-30T16:22:10.000Z</time>
      </trkpt>
      <trkpt lat="43.44009" lon="3.45817">
        <ele>50.114845</ele>
        <time>2023-12-30T16:22:11.000Z</time>
      </trkpt>
      <trkpt lat="43.44009" lon="3.45812">
        <ele>50.259522</ele>
        <time>2023-12-30T16:22:12.000Z</time>
      </trkpt>
      <trkpt lat="43.44008" lon="3.45808">
        <ele>50.389116</ele>
        <time>2023-12-30T16:22:13.000Z</time>
      </trkpt>
      <trkpt lat="43.44008" lon="3.45804">
        <ele>50.5245</ele>
        <time>2023-12-30T16:22:14.000Z</time>
      </trkpt>
      <trkpt lat="43.44009" lon="3.45799">
        <ele>50.670041</ele>
        <time>2023-12-30T16:22:15.000Z</time>
      </trkpt>
      <trkpt lat="43.4401" lon="3.45795">
        <ele>50.801749</ele>
        <time>2023-12-30T16:22:16.000Z</time>
      </trkpt>
      <trkpt lat="43.4401" lon="3.4579">
        <ele>50.935742</ele>
        <time>2023-12-30T16:22:17.000Z</time>
      </trkpt>
      <trkpt lat="43.44011" lon="3.45786">
        <ele>51.06745</ele>
        <time>2023-12-30T16:22:18.000Z</time>
      </trkpt>
      <trkpt lat="43.44012" lon="3.45781">
        <ele>51.22526</ele>
        <time>2023-12-30T16:22:19.000Z</time>
      </trkpt>
      <trkpt lat="43.44013" lon="3.45776">
        <ele>51.389742</ele>
        <time>2023-12-30T16:22:20.000Z</time>
      </trkpt>
      <trkpt lat="43.44014" lon="3.45771">
        <ele>51.561872</ele>
        <time>2023-12-30T16:22:21.000Z</time>
      </trkpt>
      <trkpt lat="43.44015" lon="3.45766">
        <ele>51.708458</ele>
        <time>2023-12-30T16:22:22.000Z</time>
      </trkpt>
      <trkpt lat="43.44016" lon="3.45761">
        <ele>51.872078</ele>
        <time>2023-12-30T16:22:23.000Z</time>
      </trkpt>
      <trkpt lat="43.44018" lon="3.45757">
        <ele>52.021642</ele>
        <time>2023-12-30T16:22:24.000Z</time>
      </trkpt>
      <trkpt lat="43.44019" lon="3.45754">
        <ele>52.139875</ele>
        <time>2023-12-30T16:22:25.000Z</time>
      </trkpt>
      <trkpt lat="43.44021" lon="3.4575">
        <ele>52.274717</ele>
        <time>2023-12-30T16:22:26.000Z</time>
      </trkpt>
      <trkpt lat="43.44022" lon="3.45745">
        <ele>52.41646</ele>
        <time>2023-12-30T16:22:27.000Z</time>
      </trkpt>
      <trkpt lat="43.44023" lon="3.4574">
        <ele>52.579871</ele>
        <time>2023-12-30T16:22:28.000Z</time>
      </trkpt>
      <trkpt lat="43.44025" lon="3.45735">
        <ele>52.763529</ele>
        <time>2023-12-30T16:22:29.000Z</time>
      </trkpt>
      <trkpt lat="43.44026" lon="3.45729">
        <ele>52.953719</ele>
        <time>2023-12-30T16:22:30.000Z</time>
      </trkpt>
      <trkpt lat="43.44028" lon="3.45724">
        <ele>53.185698</ele>
        <time>2023-12-30T16:22:31.000Z</time>
      </trkpt>
      <trkpt lat="43.4403" lon="3.4572">
        <ele>53.446544</ele>
        <time>2023-12-30T16:22:32.000Z</time>
      </trkpt>
      <trkpt lat="43.44033" lon="3.45716">
        <ele>53.711582</ele>
        <time>2023-12-30T16:22:33.000Z</time>
      </trkpt>
      <trkpt lat="43.44034" lon="3.45712">
        <ele>53.966097</ele>
        <time>2023-12-30T16:22:34.000Z</time>
      </trkpt>
      <trkpt lat="43.44036" lon="3.45706">
        <ele>54.256986</ele>
        <time>2023-12-30T16:22:35.000Z</time>
      </trkpt>
      <trkpt lat="43.44038" lon="3.45702">
        <ele>54.526341</ele>
        <time>2023-12-30T16:22:36.000Z</time>
      </trkpt>
      <trkpt lat="43.4404" lon="3.45698">
        <ele>54.797786</ele>
        <time>2023-12-30T16:22:37.000Z</time>
      </trkpt>
      <trkpt lat="43.44043" lon="3.45695">
        <ele>55.037859</ele>
        <time>2023-12-30T16:22:38.000Z</time>
      </trkpt>
      <trkpt lat="43.44045" lon="3.45691">
        <ele>55.277663</ele>
        <time>2023-12-30T16:22:39.000Z</time>
      </trkpt>
      <trkpt lat="43.44047" lon="3.45688">
        <ele>55.513706</ele>
        <time>2023-12-30T16:22:40.000Z</time>
      </trkpt>
      <trkpt lat="43.44048" lon="3.45684">
        <ele>55.719998</ele>
        <time>2023-12-30T16:22:41.000Z</time>
      </trkpt>
      <trkpt lat="43.4405" lon="3.45681">
        <ele>55.944857</ele>
        <time>2023-12-30T16:22:42.000Z</time>
      </trkpt>
      <trkpt lat="43.44051" lon="3.45676">
        <ele>56.207621</ele>
        <time>2023-12-30T16:22:43.000Z</time>
      </trkpt>
      <trkpt lat="43.44051" lon="3.45671">
        <ele>56.468445</ele>
        <time>2023-12-30T16:22:44.000Z</time>
      </trkpt>
      <trkpt lat="43.44052" lon="3.45666">
        <ele>56.73317</ele>
        <time>2023-12-30T16:22:45.000Z</time>
      </trkpt>
      <trkpt lat="43.44053" lon="3.45661">
        <ele>56.980843</ele>
        <time>2023-12-30T16:22:46.000Z</time>
      </trkpt>
      <trkpt lat="43.44053" lon="3.45657">
        <ele>57.188096</ele>
        <time>2023-12-30T16:22:47.000Z</time>
      </trkpt>
      <trkpt lat="43.44054" lon="3.45654">
        <ele>57.373541</ele>
        <time>2023-12-30T16:22:48.000Z</time>
      </trkpt>
      <trkpt lat="43.44054" lon="3.45649">
        <ele>57.599277</ele>
        <time>2023-12-30T16:22:49.000Z</time>
      </trkpt>
      <trkpt lat="43.44054" lon="3.45645">
        <ele>57.833221</ele>
        <time>2023-12-30T16:22:50.000Z</time>
      </trkpt>
      <trkpt lat="43.44054" lon="3.45641">
        <ele>58.048285</ele>
        <time>2023-12-30T16:22:51.000Z</time>
      </trkpt>
      <trkpt lat="43.44053" lon="3.45637">
        <ele>58.275922</ele>
        <time>2023-12-30T16:22:52.000Z</time>
      </trkpt>
      <trkpt lat="43.44053" lon="3.45632">
        <ele>58.505115</ele>
        <time>2023-12-30T16:22:53.000Z</time>
      </trkpt>
      <trkpt lat="43.44053" lon="3.45628">
        <ele>58.705886</ele>
        <time>2023-12-30T16:22:54.000Z</time>
      </trkpt>
      <trkpt lat="43.44052" lon="3.45624">
        <ele>58.952836</ele>
        <time>2023-12-30T16:22:55.000Z</time>
      </trkpt>
      <trkpt lat="43.44052" lon="3.45619">
        <ele>59.173054</ele>
        <time>2023-12-30T16:22:56.000Z</time>
      </trkpt>
      <trkpt lat="43.44052" lon="3.45615">
        <ele>59.386324</ele>
        <time>2023-12-30T16:22:57.000Z</time>
      </trkpt>
      <trkpt lat="43.44052" lon="3.45612">
        <ele>59.568421</ele>
        <time>2023-12-30T16:22:58.000Z</time>
      </trkpt>
      <trkpt lat="43.44052" lon="3.45608">
        <ele>59.75538</ele>
        <time>2023-12-30T16:22:59.000Z</time>
      </trkpt>
      <trkpt lat="43.44053" lon="3.45605">
        <ele>59.942339</ele>
        <time>2023-12-30T16:23:00.000Z</time>
      </trkpt>
      <trkpt lat="43.44053" lon="3.45601">
        <ele>60.120397</ele>
        <time>2023-12-30T16:23:01.000Z</time>
      </trkpt>
      <trkpt lat="43.44054" lon="3.45598">
        <ele>60.324284</ele>
        <time>2023-12-30T16:23:02.000Z</time>
      </trkpt>
      <trkpt lat="43.44054" lon="3.45594">
        <ele>60.530171</ele>
        <time>2023-12-30T16:23:03.000Z</time>
      </trkpt>
      <trkpt lat="43.44055" lon="3.4559">
        <ele>60.722194</ele>
        <time>2023-12-30T16:23:04.000Z</time>
      </trkpt>
      <trkpt lat="43.44056" lon="3.45587">
        <ele>60.881385</ele>
        <time>2023-12-30T16:23:05.000Z</time>
      </trkpt>
      <trkpt lat="43.44056" lon="3.45584">
        <ele>61.050192</ele>
        <time>2023-12-30T16:23:06.000Z</time>
      </trkpt>
      <trkpt lat="43.44056" lon="3.45581">
        <ele>61.211988</ele>
        <time>2023-12-30T16:23:07.000Z</time>
      </trkpt>
      <trkpt lat="43.44056" lon="3.45578">
        <ele>61.378503</ele>
        <time>2023-12-30T16:23:08.000Z</time>
      </trkpt>
      <trkpt lat="43.44056" lon="3.45574">
        <ele>61.550211</ele>
        <time>2023-12-30T16:23:09.000Z</time>
      </trkpt>
      <trkpt lat="43.44056" lon="3.45571">
        <ele>61.711531</ele>
        <time>2023-12-30T16:23:10.000Z</time>
      </trkpt>
      <trkpt lat="43.44055" lon="3.45568">
        <ele>61.89849</ele>
        <time>2023-12-30T16:23:11.000Z</time>
      </trkpt>
      <trkpt lat="43.44055" lon="3.45565">
        <ele>62.058509</ele>
        <time>2023-12-30T16:23:12.000Z</time>
      </trkpt>
      <trkpt lat="43.44054" lon="3.45562">
        <ele>62.223599</ele>
        <time>2023-12-30T16:23:13.000Z</time>
      </trkpt>
      <trkpt lat="43.44054" lon="3.45558">
        <ele>62.398853</ele>
        <time>2023-12-30T16:23:14.000Z</time>
      </trkpt>
      <trkpt lat="43.44053" lon="3.45556">
        <ele>62.543014</ele>
        <time>2023-12-30T16:23:15.000Z</time>
      </trkpt>
      <trkpt lat="43.44052" lon="3.45553">
        <ele>62.698678</ele>
        <time>2023-12-30T16:23:16.000Z</time>
      </trkpt>
      <trkpt lat="43.44051" lon="3.45551">
        <ele>62.817387</ele>
        <time>2023-12-30T16:23:17.000Z</time>
      </trkpt>
      <trkpt lat="43.44052" lon="3.45549">
        <ele>62.973817</ele>
        <time>2023-12-30T16:23:18.000Z</time>
      </trkpt>
      <trkpt lat="43.44051" lon="3.45546">
        <ele>63.117075</ele>
        <time>2023-12-30T16:23:19.000Z</time>
      </trkpt>
      <trkpt lat="43.4405" lon="3.45544">
        <ele>63.271783</ele>
        <time>2023-12-30T16:23:20.000Z</time>
      </trkpt>
      <trkpt lat="43.44049" lon="3.45541">
        <ele>63.435741</ele>
        <time>2023-12-30T16:23:21.000Z</time>
      </trkpt>
      <trkpt lat="43.44049" lon="3.45538">
        <ele>63.586675</ele>
        <time>2023-12-30T16:23:22.000Z</time>
      </trkpt>
      <trkpt lat="43.44049" lon="3.45535">
        <ele>63.753036</ele>
        <time>2023-12-30T16:23:23.000Z</time>
      </trkpt>
      <trkpt lat="43.44048" lon="3.45531">
        <ele>63.94142</ele>
        <time>2023-12-30T16:23:24.000Z</time>
      </trkpt>
      <trkpt lat="43.44048" lon="3.45529">
        <ele>64.093024</ele>
        <time>2023-12-30T16:23:25.000Z</time>
      </trkpt>
      <trkpt lat="43.44047" lon="3.45526">
        <ele>64.259172</ele>
        <time>2023-12-30T16:23:26.000Z</time>
      </trkpt>
      <trkpt lat="43.44046" lon="3.45521">
        <ele>64.481706</ele>
        <time>2023-12-30T16:23:27.000Z</time>
      </trkpt>
      <trkpt lat="43.44046" lon="3.45517">
        <ele>64.705368</ele>
        <time>2023-12-30T16:23:28.000Z</time>
      </trkpt>
      <trkpt lat="43.44046" lon="3.45514">
        <ele>64.884431</ele>
        <time>2023-12-30T16:23:29.000Z</time>
      </trkpt>
      <trkpt lat="43.44046" lon="3.45511">
        <ele>65.050792</ele>
        <time>2023-12-30T16:23:30.000Z</time>
      </trkpt>
      <trkpt lat="43.44032" lon="3.45481">
        <ele>64.205382</ele>
        <time>2023-12-30T16:26:44.000Z</time>
      </trkpt>
      <trkpt lat="43.44028" lon="3.45478">
        <ele>64.060449</ele>
        <time>2023-12-30T16:26:45.000Z</time>
      </trkpt>
      <trkpt lat="43.44023" lon="3.45474">
        <ele>63.878997</ele>
        <time>2023-12-30T16:26:46.000Z</time>
      </trkpt>
      <trkpt lat="43.44021" lon="3.4547">
        <ele>63.750424</ele>
        <time>2023-12-30T16:26:47.000Z</time>
      </trkpt>
      <trkpt lat="43.44019" lon="3.45467">
        <ele>63.634636</ele>
        <time>2023-12-30T16:26:48.000Z</time>
      </trkpt>
      <trkpt lat="43.44016" lon="3.45465">
        <ele>63.529664</ele>
        <time>2023-12-30T16:26:49.000Z</time>
      </trkpt>
      <trkpt lat="43.44014" lon="3.45463">
        <ele>63.460419</ele>
        <time>2023-12-30T16:26:50.000Z</time>
      </trkpt>
      <trkpt lat="43.44012" lon="3.45463">
        <ele>63.369487</ele>
        <time>2023-12-30T16:26:51.000Z</time>
      </trkpt>
      <trkpt lat="43.44009" lon="3.45462">
        <ele>63.270118</ele>
        <time>2023-12-30T16:26:52.000Z</time>
      </trkpt>
      <trkpt lat="43.44007" lon="3.45458">
        <ele>63.15925</ele>
        <time>2023-12-30T16:26:53.000Z</time>
      </trkpt>
      <trkpt lat="43.44005" lon="3.45454">
        <ele>63.046763</ele>
        <time>2023-12-30T16:26:54.000Z</time>
      </trkpt>
      <trkpt lat="43.44003" lon="3.4545">
        <ele>62.937369</ele>
        <time>2023-12-30T16:26:55.000Z</time>
      </trkpt>
      <trkpt lat="43.44002" lon="3.45447">
        <ele>62.846143</ele>
        <time>2023-12-30T16:26:56.000Z</time>
      </trkpt>
      <trkpt lat="43.43999" lon="3.45444">
        <ele>62.733804</ele>
        <time>2023-12-30T16:26:57.000Z</time>
      </trkpt>
      <trkpt lat="43.43996" lon="3.45441">
        <ele>62.614601</ele>
        <time>2023-12-30T16:26:58.000Z</time>
      </trkpt>
      <trkpt lat="43.43993" lon="3.45438">
        <ele>62.478807</ele>
        <time>2023-12-30T16:26:59.000Z</time>
      </trkpt>
      <trkpt lat="43.43989" lon="3.45436">
        <ele>62.338217</ele>
        <time>2023-12-30T16:27:00.000Z</time>
      </trkpt>
      <trkpt lat="43.43986" lon="3.45432">
        <ele>62.17472</ele>
        <time>2023-12-30T16:27:01.000Z</time>
      </trkpt>
      <trkpt lat="43.43983" lon="3.45427">
        <ele>62.031856</ele>
        <time>2023-12-30T16:27:02.000Z</time>
      </trkpt>
      <trkpt lat="43.43981" lon="3.45423">
        <ele>61.915368</ele>
        <time>2023-12-30T16:27:03.000Z</time>
      </trkpt>
      <trkpt lat="43.43981" lon="3.45419">
        <ele>61.817174</ele>
        <time>2023-12-30T16:27:04.000Z</time>
      </trkpt>
      <trkpt lat="43.4398" lon="3.45415">
        <ele>61.710443</ele>
        <time>2023-12-30T16:27:05.000Z</time>
      </trkpt>
      <trkpt lat="43.43978" lon="3.45412">
        <ele>61.619478</ele>
        <time>2023-12-30T16:27:06.000Z</time>
      </trkpt>
      <trkpt lat="43.43976" lon="3.4541">
        <ele>61.536358</ele>
        <time>2023-12-30T16:27:07.000Z</time>
      </trkpt>
      <trkpt lat="43.43974" lon="3.45407">
        <ele>61.438062</ele>
        <time>2023-12-30T16:27:08.000Z</time>
      </trkpt>
      <trkpt lat="43.43972" lon="3.45404">
        <ele>61.319156</ele>
        <time>2023-12-30T16:27:09.000Z</time>
      </trkpt>
      <trkpt lat="43.43969" lon="3.45401">
        <ele>61.213378</ele>
        <time>2023-12-30T16:27:10.000Z</time>
      </trkpt>
      <trkpt lat="43.43967" lon="3.45398">
        <ele>61.102468</ele>
        <time>2023-12-30T16:27:11.000Z</time>
      </trkpt>
      <trkpt lat="43.43963" lon="3.45395">
        <ele>60.960963</ele>
        <time>2023-12-30T16:27:12.000Z</time>
      </trkpt>
      <trkpt lat="43.4396" lon="3.45393">
        <ele>60.852554</ele>
        <time>2023-12-30T16:27:13.000Z</time>
      </trkpt>
      <trkpt lat="43.43958" lon="3.4539">
        <ele>60.732668</ele>
        <time>2023-12-30T16:27:14.000Z</time>
      </trkpt>
      <trkpt lat="43.43955" lon="3.45386">
        <ele>60.612094</ele>
        <time>2023-12-30T16:27:15.000Z</time>
      </trkpt>
      <trkpt lat="43.43953" lon="3.45382">
        <ele>60.487607</ele>
        <time>2023-12-30T16:27:16.000Z</time>
      </trkpt>
      <trkpt lat="43.4395" lon="3.4538">
        <ele>60.36266</ele>
        <time>2023-12-30T16:27:17.000Z</time>
      </trkpt>
      <trkpt lat="43.43946" lon="3.45378">
        <ele>60.225809</ele>
        <time>2023-12-30T16:27:18.000Z</time>
      </trkpt>
      <trkpt lat="43.43942" lon="3.45377">
        <ele>60.094086</ele>
        <time>2023-12-30T16:27:19.000Z</time>
      </trkpt>
      <trkpt lat="43.43938" lon="3.45377">
        <ele>59.959368</ele>
        <time>2023-12-30T16:27:20.000Z</time>
      </trkpt>
      <trkpt lat="43.43934" lon="3.45375">
        <ele>59.786234</ele>
        <time>2023-12-30T16:27:21.000Z</time>
      </trkpt>
      <trkpt lat="43.4393" lon="3.45373">
        <ele>59.354168</ele>
        <time>2023-12-30T16:27:22.000Z</time>
      </trkpt>
      <trkpt lat="43.43928" lon="3.4537">
        <ele>58.971645</ele>
        <time>2023-12-30T16:27:23.000Z</time>
      </trkpt>
      <trkpt lat="43.43926" lon="3.45365">
        <ele>58.652876</ele>
        <time>2023-12-30T16:27:24.000Z</time>
      </trkpt>
      <trkpt lat="43.43925" lon="3.45362">
        <ele>58.357791</ele>
        <time>2023-12-30T16:27:25.000Z</time>
      </trkpt>
      <trkpt lat="43.43923" lon="3.4536">
        <ele>58.074168</ele>
        <time>2023-12-30T16:27:26.000Z</time>
      </trkpt>
      <trkpt lat="43.43921" lon="3.45357">
        <ele>57.799958</ele>
        <time>2023-12-30T16:27:27.000Z</time>
      </trkpt>
      <trkpt lat="43.43918" lon="3.45354">
        <ele>57.439142</ele>
        <time>2023-12-30T16:27:28.000Z</time>
      </trkpt>
      <trkpt lat="43.43915" lon="3.45352">
        <ele>57.083127</ele>
        <time>2023-12-30T16:27:29.000Z</time>
      </trkpt>
      <trkpt lat="43.43911" lon="3.45348">
        <ele>56.631916</ele>
        <time>2023-12-30T16:27:30.000Z</time>
      </trkpt>
      <trkpt lat="43.43907" lon="3.45345">
        <ele>56.144432</ele>
        <time>2023-12-30T16:27:31.000Z</time>
      </trkpt>
      <trkpt lat="43.43902" lon="3.45343">
        <ele>55.648467</ele>
        <time>2023-12-30T16:27:32.000Z</time>
      </trkpt>
      <trkpt lat="43.43898" lon="3.4534">
        <ele>55.195108</ele>
        <time>2023-12-30T16:27:33.000Z</time>
      </trkpt>
      <trkpt lat="43.43895" lon="3.45335">
        <ele>54.752293</ele>
        <time>2023-12-30T16:27:34.000Z</time>
      </trkpt>
      <trkpt lat="43.43892" lon="3.4533">
        <ele>54.26723</ele>
        <time>2023-12-30T16:27:35.000Z</time>
      </trkpt>
      <trkpt lat="43.43889" lon="3.45325">
        <ele>53.763956</ele>
        <time>2023-12-30T16:27:36.000Z</time>
      </trkpt>
      <trkpt lat="43.43885" lon="3.45321">
        <ele>53.300882</ele>
        <time>2023-12-30T16:27:37.000Z</time>
      </trkpt>
      <trkpt lat="43.43883" lon="3.45317">
        <ele>52.926913</ele>
        <time>2023-12-30T16:27:38.000Z</time>
      </trkpt>
      <trkpt lat="43.4388" lon="3.45315">
        <ele>52.611032</ele>
        <time>2023-12-30T16:27:39.000Z</time>
      </trkpt>
      <trkpt lat="43.43877" lon="3.45314">
        <ele>52.260242</ele>
        <time>2023-12-30T16:27:40.000Z</time>
      </trkpt>
      <trkpt lat="43.43873" lon="3.45312">
        <ele>51.898118</ele>
        <time>2023-12-30T16:27:41.000Z</time>
      </trkpt>
      <trkpt lat="43.4387" lon="3.45312">
        <ele>51.56276</ele>
        <time>2023-12-30T16:27:42.000Z</time>
      </trkpt>
      <trkpt lat="43.43866" lon="3.45312">
        <ele>51.199345</ele>
        <time>2023-12-30T16:27:43.000Z</time>
      </trkpt>
      <trkpt lat="43.43863" lon="3.45314">
        <ele>50.833281</ele>
        <time>2023-12-30T16:27:44.000Z</time>
      </trkpt>
      <trkpt lat="43.43859" lon="3.45313">
        <ele>50.481441</ele>
        <time>2023-12-30T16:27:45.000Z</time>
      </trkpt>
      <trkpt lat="43.43856" lon="3.45312">
        <ele>50.105721</ele>
        <time>2023-12-30T16:27:46.000Z</time>
      </trkpt>
      <trkpt lat="43.43852" lon="3.45309">
        <ele>49.688516</ele>
        <time>2023-12-30T16:27:47.000Z</time>
      </trkpt>
      <trkpt lat="43.43848" lon="3.45306">
        <ele>49.208578</ele>
        <time>2023-12-30T16:27:48.000Z</time>
      </trkpt>
      <trkpt lat="43.43844" lon="3.45302">
        <ele>48.674992</ele>
        <time>2023-12-30T16:27:49.000Z</time>
      </trkpt>
      <trkpt lat="43.43839" lon="3.45299">
        <ele>48.175979</ele>
        <time>2023-12-30T16:27:50.000Z</time>
      </trkpt>
      <trkpt lat="43.43834" lon="3.45296">
        <ele>47.624536</ele>
        <time>2023-12-30T16:27:51.000Z</time>
      </trkpt>
      <trkpt lat="43.43829" lon="3.45293">
        <ele>47.101126</ele>
        <time>2023-12-30T16:27:52.000Z</time>
      </trkpt>
      <trkpt lat="43.43825" lon="3.45289">
        <ele>46.594381</ele>
        <time>2023-12-30T16:27:53.000Z</time>
      </trkpt>
      <trkpt lat="43.43821" lon="3.45286">
        <ele>46.08895</ele>
        <time>2023-12-30T16:27:54.000Z</time>
      </trkpt>
      <trkpt lat="43.43816" lon="3.45283">
        <ele>45.576891</ele>
        <time>2023-12-30T16:27:55.000Z</time>
      </trkpt>
      <trkpt lat="43.43811" lon="3.45279">
        <ele>45.041266</ele>
        <time>2023-12-30T16:27:56.000Z</time>
      </trkpt>
      <trkpt lat="43.43807" lon="3.45277">
        <ele>44.584808</ele>
        <time>2023-12-30T16:27:57.000Z</time>
      </trkpt>
      <trkpt lat="43.43804" lon="3.45274">
        <ele>44.179237</ele>
        <time>2023-12-30T16:27:58.000Z</time>
      </trkpt>
      <trkpt lat="43.43801" lon="3.4527">
        <ele>43.803723</ele>
        <time>2023-12-30T16:27:59.000Z</time>
      </trkpt>
      <trkpt lat="43.43799" lon="3.45266">
        <ele>43.395628</ele>
        <time>2023-12-30T16:28:00.000Z</time>
      </trkpt>
      <trkpt lat="43.43796" lon="3.45261">
        <ele>42.939243</ele>
        <time>2023-12-30T16:28:01.000Z</time>
      </trkpt>
      <trkpt lat="43.43792" lon="3.45256">
        <ele>42.450198</ele>
        <time>2023-12-30T16:28:02.000Z</time>
      </trkpt>
      <trkpt lat="43.43789" lon="3.45252">
        <ele>42.023508</ele>
        <time>2023-12-30T16:28:03.000Z</time>
      </trkpt>
      <trkpt lat="43.43787" lon="3.45247">
        <ele>41.739772</ele>
        <time>2023-12-30T16:28:04.000Z</time>
      </trkpt>
      <trkpt lat="43.43784" lon="3.45243">
        <ele>41.633914</ele>
        <time>2023-12-30T16:28:05.000Z</time>
      </trkpt>
      <trkpt lat="43.4378" lon="3.4524">
        <ele>41.531001</ele>
        <time>2023-12-30T16:28:06.000Z</time>
      </trkpt>
      <trkpt lat="43.43776" lon="3.4524">
        <ele>41.434227</ele>
        <time>2023-12-30T16:28:07.000Z</time>
      </trkpt>
      <trkpt lat="43.43772" lon="3.4524">
        <ele>41.327608</ele>
        <time>2023-12-30T16:28:08.000Z</time>
      </trkpt>
      <trkpt lat="43.43768" lon="3.45239">
        <ele>41.216733</ele>
        <time>2023-12-30T16:28:09.000Z</time>
      </trkpt>
      <trkpt lat="43.43763" lon="3.45237">
        <ele>41.093057</ele>
        <time>2023-12-30T16:28:10.000Z</time>
      </trkpt>
      <trkpt lat="43.43758" lon="3.45235">
        <ele>40.960537</ele>
        <time>2023-12-30T16:28:11.000Z</time>
      </trkpt>
      <trkpt lat="43.43753" lon="3.45232">
        <ele>40.825342</ele>
        <time>2023-12-30T16:28:12.000Z</time>
      </trkpt>
      <trkpt lat="43.4375" lon="3.45228">
        <ele>40.708077</ele>
        <time>2023-12-30T16:28:13.000Z</time>
      </trkpt>
      <trkpt lat="43.43749" lon="3.45224">
        <ele>40.634479</ele>
        <time>2023-12-30T16:28:14.000Z</time>
      </trkpt>
      <trkpt lat="43.43749" lon="3.45221">
        <ele>40.577413</ele>
        <time>2023-12-30T16:28:15.000Z</time>
      </trkpt>
      <trkpt lat="43.43749" lon="3.45216">
        <ele>40.484123</ele>
        <time>2023-12-30T16:28:16.000Z</time>
      </trkpt>
      <trkpt lat="43.43749" lon="3.45211">
        <ele>40.382593</ele>
        <time>2023-12-30T16:28:17.000Z</time>
      </trkpt>
      <trkpt lat="43.43747" lon="3.45207">
        <ele>40.301992</ele>
        <time>2023-12-30T16:28:18.000Z</time>
      </trkpt>
      <trkpt lat="43.43745" lon="3.45206">
        <ele>40.236612</ele>
        <time>2023-12-30T16:28:19.000Z</time>
      </trkpt>
      <trkpt lat="43.43742" lon="3.45205">
        <ele>40.172993</ele>
        <time>2023-12-30T16:28:20.000Z</time>
      </trkpt>
      <trkpt lat="43.43739" lon="3.45205">
        <ele>40.091786</ele>
        <time>2023-12-30T16:28:21.000Z</time>
      </trkpt>
      <trkpt lat="43.43735" lon="3.45207">
        <ele>39.991048</ele>
        <time>2023-12-30T16:28:22.000Z</time>
      </trkpt>
      <trkpt lat="43.43731" lon="3.45208">
        <ele>39.885796</ele>
        <time>2023-12-30T16:28:23.000Z</time>
      </trkpt>
      <trkpt lat="43.43727" lon="3.45209">
        <ele>39.768253</ele>
        <time>2023-12-30T16:28:24.000Z</time>
      </trkpt>
      <trkpt lat="43.43722" lon="3.45209">
        <ele>39.656328</ele>
        <time>2023-12-30T16:28:25.000Z</time>
      </trkpt>
      <trkpt lat="43.4372" lon="3.45209">
        <ele>39.59271</ele>
        <time>2023-12-30T16:28:26.000Z</time>
      </trkpt>
      <trkpt lat="43.43718" lon="3.45209">
        <ele>39.536906</ele>
        <time>2023-12-30T16:28:27.000Z</time>
      </trkpt>
      <trkpt lat="43.43715" lon="3.4521">
        <ele>39.468063</ele>
        <time>2023-12-30T16:28:28.000Z</time>
      </trkpt>
      <trkpt lat="43.43712" lon="3.45211">
        <ele>39.394247</ele>
        <time>2023-12-30T16:28:29.000Z</time>
      </trkpt>
      <trkpt lat="43.43709" lon="3.45211">
        <ele>39.314608</ele>
        <time>2023-12-30T16:28:30.000Z</time>
      </trkpt>
      <trkpt lat="43.43706" lon="3.45211">
        <ele>39.242113</ele>
        <time>2023-12-30T16:28:31.000Z</time>
      </trkpt>
      <trkpt lat="43.43703" lon="3.45209">
        <ele>39.166066</ele>
        <time>2023-12-30T16:28:32.000Z</time>
      </trkpt>
      <trkpt lat="43.43702" lon="3.45206">
        <ele>39.096954</ele>
        <time>2023-12-30T16:28:33.000Z</time>
      </trkpt>
      <trkpt lat="43.43702" lon="3.45202">
        <ele>39.030754</ele>
        <time>2023-12-30T16:28:34.000Z</time>
      </trkpt>
      <trkpt lat="43.43701" lon="3.45199">
        <ele>38.969232</ele>
        <time>2023-12-30T16:28:35.000Z</time>
      </trkpt>
      <trkpt lat="43.437" lon="3.45196">
        <ele>38.907643</ele>
        <time>2023-12-30T16:28:36.000Z</time>
      </trkpt>
      <trkpt lat="43.43701" lon="3.45193">
        <ele>38.856038</ele>
        <time>2023-12-30T16:28:37.000Z</time>
      </trkpt>
      <trkpt lat="43.43701" lon="3.4519">
        <ele>38.802958</ele>
        <time>2023-12-30T16:28:38.000Z</time>
      </trkpt>
      <trkpt lat="43.43701" lon="3.45187">
        <ele>38.751352</ele>
        <time>2023-12-30T16:28:39.000Z</time>
      </trkpt>
      <trkpt lat="43.437" lon="3.45185">
        <ele>38.703618</ele>
        <time>2023-12-30T16:28:40.000Z</time>
      </trkpt>
      <trkpt lat="43.437" lon="3.45182">
        <ele>38.649993</ele>
        <time>2023-12-30T16:28:41.000Z</time>
      </trkpt>
      <trkpt lat="43.437" lon="3.4518">
        <ele>38.6142</ele>
        <time>2023-12-30T16:28:42.000Z</time>
      </trkpt>
      <trkpt lat="43.43699" lon="3.45177">
        <ele>38.568237</ele>
        <time>2023-12-30T16:28:43.000Z</time>
      </trkpt>
      <trkpt lat="43.43699" lon="3.45175">
        <ele>38.516871</ele>
        <time>2023-12-30T16:28:44.000Z</time>
      </trkpt>
      <trkpt lat="43.43698" lon="3.45173">
        <ele>38.46926</ele>
        <time>2023-12-30T16:28:45.000Z</time>
      </trkpt>
      <trkpt lat="43.43698" lon="3.4517">
        <ele>38.429861</ele>
        <time>2023-12-30T16:28:46.000Z</time>
      </trkpt>
      <trkpt lat="43.43697" lon="3.45168">
        <ele>38.381248</ele>
        <time>2023-12-30T16:28:47.000Z</time>
      </trkpt>
      <trkpt lat="43.43695" lon="3.45165">
        <ele>38.320174</ele>
        <time>2023-12-30T16:28:48.000Z</time>
      </trkpt>
      <trkpt lat="43.43694" lon="3.45163">
        <ele>38.27045</ele>
        <time>2023-12-30T16:28:49.000Z</time>
      </trkpt>
      <trkpt lat="43.43693" lon="3.4516">
        <ele>38.211846</ele>
        <time>2023-12-30T16:28:50.000Z</time>
      </trkpt>
      <trkpt lat="43.43693" lon="3.45157">
        <ele>38.159071</ele>
        <time>2023-12-30T16:28:51.000Z</time>
      </trkpt>
      <trkpt lat="43.43692" lon="3.45155">
        <ele>38.103677</ele>
        <time>2023-12-30T16:28:52.000Z</time>
      </trkpt>
      <trkpt lat="43.4369" lon="3.45153">
        <ele>38.052878</ele>
        <time>2023-12-30T16:28:53.000Z</time>
      </trkpt>
      <trkpt lat="43.43689" lon="3.45151">
        <ele>38.002226</ele>
        <time>2023-12-30T16:28:54.000Z</time>
      </trkpt>
      <trkpt lat="43.43688" lon="3.45149">
        <ele>37.957525</ele>
        <time>2023-12-30T16:28:55.000Z</time>
      </trkpt>
      <trkpt lat="43.43687" lon="3.45146">
        <ele>37.903714</ele>
        <time>2023-12-30T16:28:56.000Z</time>
      </trkpt>
      <trkpt lat="43.43686" lon="3.45144">
        <ele>37.852777</ele>
        <time>2023-12-30T16:28:57.000Z</time>
      </trkpt>
      <trkpt lat="43.43685" lon="3.45142">
        <ele>37.808045</ele>
        <time>2023-12-30T16:28:58.000Z</time>
      </trkpt>
      <trkpt lat="43.43684" lon="3.45139">
        <ele>37.758721</ele>
        <time>2023-12-30T16:28:59.000Z</time>
      </trkpt>
      <trkpt lat="43.43683" lon="3.45136">
        <ele>37.697262</ele>
        <time>2023-12-30T16:29:00.000Z</time>
      </trkpt>
      <trkpt lat="43.43682" lon="3.45134">
        <ele>37.643101</ele>
        <time>2023-12-30T16:29:01.000Z</time>
      </trkpt>
      <trkpt lat="43.43681" lon="3.45131">
        <ele>37.587708</ele>
        <time>2023-12-30T16:29:02.000Z</time>
      </trkpt>
      <trkpt lat="43.4368" lon="3.45128">
        <ele>37.53254</ele>
        <time>2023-12-30T16:29:03.000Z</time>
      </trkpt>
      <trkpt lat="43.43679" lon="3.45126">
        <ele>37.483191</ele>
        <time>2023-12-30T16:29:04.000Z</time>
      </trkpt>
      <trkpt lat="43.43678" lon="3.45124">
        <ele>37.430946</ele>
        <time>2023-12-30T16:29:05.000Z</time>
      </trkpt>
      <trkpt lat="43.43676" lon="3.45121">
        <ele>37.368365</ele>
        <time>2023-12-30T16:29:06.000Z</time>
      </trkpt>
      <trkpt lat="43.43675" lon="3.45119">
        <ele>37.312861</ele>
        <time>2023-12-30T16:29:07.000Z</time>
      </trkpt>
      <trkpt lat="43.43673" lon="3.45117">
        <ele>37.251099</ele>
        <time>2023-12-30T16:29:08.000Z</time>
      </trkpt>
      <trkpt lat="43.43671" lon="3.45116">
        <ele>37.250403</ele>
        <time>2023-12-30T16:29:09.000Z</time>
      </trkpt>
      <trkpt lat="43.4367" lon="3.45114">
        <ele>37.276123</ele>
        <time>2023-12-30T16:29:10.000Z</time>
      </trkpt>
      <trkpt lat="43.43668" lon="3.45113">
        <ele>37.303103</ele>
        <time>2023-12-30T16:29:11.000Z</time>
      </trkpt>
      <trkpt lat="43.43666" lon="3.45112">
        <ele>37.325421</ele>
        <time>2023-12-30T16:29:12.000Z</time>
      </trkpt>
      <trkpt lat="43.43665" lon="3.45111">
        <ele>37.352988</ele>
        <time>2023-12-30T16:29:13.000Z</time>
      </trkpt>
      <trkpt lat="43.43663" lon="3.4511">
        <ele>37.3778</ele>
        <time>2023-12-30T16:29:14.000Z</time>
      </trkpt>
      <trkpt lat="43.43661" lon="3.45109">
        <ele>37.403449</ele>
        <time>2023-12-30T16:29:15.000Z</time>
      </trkpt>
      <trkpt lat="43.4366" lon="3.45109">
        <ele>37.427799</ele>
        <time>2023-12-30T16:29:16.000Z</time>
      </trkpt>
      <trkpt lat="43.43658" lon="3.45108">
        <ele>37.451092</ele>
        <time>2023-12-30T16:29:17.000Z</time>
      </trkpt>
      <trkpt lat="43.43657" lon="3.45107">
        <ele>37.473455</ele>
        <time>2023-12-30T16:29:18.000Z</time>
      </trkpt>
      <trkpt lat="43.43655" lon="3.45107">
        <ele>37.49845</ele>
        <time>2023-12-30T16:29:19.000Z</time>
      </trkpt>
      <trkpt lat="43.43653" lon="3.45107">
        <ele>37.522038</ele>
        <time>2023-12-30T16:29:20.000Z</time>
      </trkpt>
      <trkpt lat="43.43651" lon="3.45106">
        <ele>37.550241</ele>
        <time>2023-12-30T16:29:21.000Z</time>
      </trkpt>
      <trkpt lat="43.43649" lon="3.45105">
        <ele>37.580219</ele>
        <time>2023-12-30T16:29:22.000Z</time>
      </trkpt>
      <trkpt lat="43.43647" lon="3.45105">
        <ele>37.605697</ele>
        <time>2023-12-30T16:29:23.000Z</time>
      </trkpt>
      <trkpt lat="43.43646" lon="3.45104">
        <ele>37.62899</ele>
        <time>2023-12-30T16:29:24.000Z</time>
      </trkpt>
      <trkpt lat="43.43644" lon="3.45104">
        <ele>37.655429</ele>
        <time>2023-12-30T16:29:25.000Z</time>
      </trkpt>
      <trkpt lat="43.43642" lon="3.45104">
        <ele>37.681964</ele>
        <time>2023-12-30T16:29:26.000Z</time>
      </trkpt>
      <trkpt lat="43.4364" lon="3.45104">
        <ele>37.70702</ele>
        <time>2023-12-30T16:29:27.000Z</time>
      </trkpt>
      <trkpt lat="43.43638" lon="3.45104">
        <ele>37.729242</ele>
        <time>2023-12-30T16:29:28.000Z</time>
      </trkpt>
      <trkpt lat="43.43637" lon="3.45104">
        <ele>37.750152</ele>
        <time>2023-12-30T16:29:29.000Z</time>
      </trkpt>
      <trkpt lat="43.43635" lon="3.45104">
        <ele>37.775147</ele>
        <time>2023-12-30T16:29:30.000Z</time>
      </trkpt>
      <trkpt lat="43.43633" lon="3.45104">
        <ele>37.797551</ele>
        <time>2023-12-30T16:29:31.000Z</time>
      </trkpt>
      <trkpt lat="43.43632" lon="3.45105">
        <ele>37.816575</ele>
        <time>2023-12-30T16:29:32.000Z</time>
      </trkpt>
      <trkpt lat="43.43631" lon="3.45105">
        <ele>37.835302</ele>
        <time>2023-12-30T16:29:33.000Z</time>
      </trkpt>
      <trkpt lat="43.43629" lon="3.45106">
        <ele>37.859421</ele>
        <time>2023-12-30T16:29:34.000Z</time>
      </trkpt>
      <trkpt lat="43.43628" lon="3.45106">
        <ele>37.879765</ele>
        <time>2023-12-30T16:29:35.000Z</time>
      </trkpt>
      <trkpt lat="43.43626" lon="3.45107">
        <ele>37.90174</ele>
        <time>2023-12-30T16:29:36.000Z</time>
      </trkpt>
      <trkpt lat="43.43625" lon="3.45108">
        <ele>37.921928</ele>
        <time>2023-12-30T16:29:37.000Z</time>
      </trkpt>
      <trkpt lat="43.43624" lon="3.45109">
        <ele>37.941995</ele>
        <time>2023-12-30T16:29:38.000Z</time>
      </trkpt>
      <trkpt lat="43.43622" lon="3.45109">
        <ele>37.962183</ele>
        <time>2023-12-30T16:29:39.000Z</time>
      </trkpt>
      <trkpt lat="43.43622" lon="3.4511">
        <ele>37.975471</ele>
        <time>2023-12-30T16:29:40.000Z</time>
      </trkpt>
      <trkpt lat="43.4362" lon="3.45111">
        <ele>37.995472</ele>
        <time>2023-12-30T16:29:41.000Z</time>
      </trkpt>
      <trkpt lat="43.43619" lon="3.45112">
        <ele>38.012731</ele>
        <time>2023-12-30T16:29:42.000Z</time>
      </trkpt>
      <trkpt lat="43.43618" lon="3.45113">
        <ele>38.028164</ele>
        <time>2023-12-30T16:29:43.000Z</time>
      </trkpt>
      <trkpt lat="43.43617" lon="3.45114">
        <ele>38.043728</ele>
        <time>2023-12-30T16:29:44.000Z</time>
      </trkpt>
      <trkpt lat="43.43616" lon="3.45114">
        <ele>38.067401</ele>
        <time>2023-12-30T16:29:45.000Z</time>
      </trkpt>
      <trkpt lat="43.43614" lon="3.45113">
        <ele>38.092699</ele>
        <time>2023-12-30T16:29:46.000Z</time>
      </trkpt>
      <trkpt lat="43.43612" lon="3.45113">
        <ele>38.116307</ele>
        <time>2023-12-30T16:29:47.000Z</time>
      </trkpt>
      <trkpt lat="43.4361" lon="3.45113">
        <ele>38.140088</ele>
        <time>2023-12-30T16:29:48.000Z</time>
      </trkpt>
      <trkpt lat="43.43609" lon="3.45113">
        <ele>38.165565</ele>
        <time>2023-12-30T16:29:49.000Z</time>
      </trkpt>
      <trkpt lat="43.43607" lon="3.45112">
        <ele>38.185321</ele>
        <time>2023-12-30T16:29:50.000Z</time>
      </trkpt>
      <trkpt lat="43.43606" lon="3.45111">
        <ele>38.206491</ele>
        <time>2023-12-30T16:29:51.000Z</time>
      </trkpt>
      <trkpt lat="43.43605" lon="3.45109">
        <ele>38.228313</ele>
        <time>2023-12-30T16:29:52.000Z</time>
      </trkpt>
      <trkpt lat="43.43604" lon="3.45108">
        <ele>38.243049</ele>
        <time>2023-12-30T16:29:53.000Z</time>
      </trkpt>
      <trkpt lat="43.43603" lon="3.45106">
        <ele>38.264245</ele>
        <time>2023-12-30T16:29:54.000Z</time>
      </trkpt>
      <trkpt lat="43.43602" lon="3.45104">
        <ele>38.287951</ele>
        <time>2023-12-30T16:29:55.000Z</time>
      </trkpt>
      <trkpt lat="43.43602" lon="3.45103">
        <ele>38.30643</ele>
        <time>2023-12-30T16:29:56.000Z</time>
      </trkpt>
      <trkpt lat="43.43601" lon="3.45101">
        <ele>38.326035</ele>
        <time>2023-12-30T16:29:57.000Z</time>
      </trkpt>
      <trkpt lat="43.43601" lon="3.451">
        <ele>38.34026</ele>
        <time>2023-12-30T16:29:58.000Z</time>
      </trkpt>
      <trkpt lat="43.436" lon="3.45098">
        <ele>38.363109</ele>
        <time>2023-12-30T16:29:59.000Z</time>
      </trkpt>
      <trkpt lat="43.436" lon="3.45096">
        <ele>38.381716</ele>
        <time>2023-12-30T16:30:00.000Z</time>
      </trkpt>
      <trkpt lat="43.436" lon="3.45094">
        <ele>38.398073</ele>
        <time>2023-12-30T16:30:01.000Z</time>
      </trkpt>
      <trkpt lat="43.43599" lon="3.45092">
        <ele>38.420442</ele>
        <time>2023-12-30T16:30:02.000Z</time>
      </trkpt>
      <trkpt lat="43.43598" lon="3.45091">
        <ele>38.441638</ele>
        <time>2023-12-30T16:30:03.000Z</time>
      </trkpt>
      <trkpt lat="43.43597" lon="3.45089">
        <ele>38.458051</ele>
        <time>2023-12-30T16:30:04.000Z</time>
      </trkpt>
      <trkpt lat="43.43596" lon="3.45088">
        <ele>38.474096</ele>
        <time>2023-12-30T16:30:05.000Z</time>
      </trkpt>
      <trkpt lat="43.43596" lon="3.45087">
        <ele>38.489087</ele>
        <time>2023-12-30T16:30:06.000Z</time>
      </trkpt>
      <trkpt lat="43.43595" lon="3.45086">
        <ele>38.503823</ele>
        <time>2023-12-30T16:30:07.000Z</time>
      </trkpt>
      <trkpt lat="43.43594" lon="3.45086">
        <ele>38.51754</ele>
        <time>2023-12-30T16:30:08.000Z</time>
      </trkpt>
      <trkpt lat="43.43593" lon="3.45085">
        <ele>38.534115</ele>
        <time>2023-12-30T16:30:09.000Z</time>
      </trkpt>
      <trkpt lat="43.43592" lon="3.45083">
        <ele>38.561069</ele>
        <time>2023-12-30T16:30:10.000Z</time>
      </trkpt>
      <trkpt lat="43.4359" lon="3.45081">
        <ele>38.583268</ele>
        <time>2023-12-30T16:30:11.000Z</time>
      </trkpt>
      <trkpt lat="43.43589" lon="3.4508">
        <ele>38.607274</ele>
        <time>2023-12-30T16:30:12.000Z</time>
      </trkpt>
      <trkpt lat="43.43587" lon="3.45078">
        <ele>38.635287</ele>
        <time>2023-12-30T16:30:13.000Z</time>
      </trkpt>
      <trkpt lat="43.43586" lon="3.45077">
        <ele>38.656556</ele>
        <time>2023-12-30T16:30:14.000Z</time>
      </trkpt>
      <trkpt lat="43.43585" lon="3.45075">
        <ele>38.681175</ele>
        <time>2023-12-30T16:30:15.000Z</time>
      </trkpt>
      <trkpt lat="43.43583" lon="3.45073">
        <ele>38.710928</ele>
        <time>2023-12-30T16:30:16.000Z</time>
      </trkpt>
      <trkpt lat="43.43581" lon="3.45071">
        <ele>38.751767</ele>
        <time>2023-12-30T16:30:17.000Z</time>
      </trkpt>
      <trkpt lat="43.43578" lon="3.45069">
        <ele>38.801493</ele>
        <time>2023-12-30T16:30:18.000Z</time>
      </trkpt>
      <trkpt lat="43.43574" lon="3.45065">
        <ele>38.863222</ele>
        <time>2023-12-30T16:30:19.000Z</time>
      </trkpt>
      <trkpt lat="43.4357" lon="3.45061">
        <ele>38.93181</ele>
        <time>2023-12-30T16:30:20.000Z</time>
      </trkpt>
      <trkpt lat="43.43566" lon="3.45056">
        <ele>39.004731</ele>
        <time>2023-12-30T16:30:21.000Z</time>
      </trkpt>
      <trkpt lat="43.43561" lon="3.45051">
        <ele>39.088726</ele>
        <time>2023-12-30T16:30:22.000Z</time>
      </trkpt>
      <trkpt lat="43.43556" lon="3.45048">
        <ele>39.171632</ele>
        <time>2023-12-30T16:30:23.000Z</time>
      </trkpt>
      <trkpt lat="43.4355" lon="3.45044">
        <ele>39.259249</ele>
        <time>2023-12-30T16:30:24.000Z</time>
      </trkpt>
      <trkpt lat="43.43544" lon="3.45041">
        <ele>39.346321</ele>
        <time>2023-12-30T16:30:25.000Z</time>
      </trkpt>
      <trkpt lat="43.43539" lon="3.45038">
        <ele>39.432112</ele>
        <time>2023-12-30T16:30:26.000Z</time>
      </trkpt>
      <trkpt lat="43.43535" lon="3.45033">
        <ele>39.508098</ele>
        <time>2023-12-30T16:30:27.000Z</time>
      </trkpt>
      <trkpt lat="43.43532" lon="3.45026">
        <ele>39.582865</ele>
        <time>2023-12-30T16:30:28.000Z</time>
      </trkpt>
      <trkpt lat="43.43531" lon="3.45019">
        <ele>39.658052</ele>
        <time>2023-12-30T16:30:29.000Z</time>
      </trkpt>
      <trkpt lat="43.43532" lon="3.45012">
        <ele>39.720791</ele>
        <time>2023-12-30T16:30:30.000Z</time>
      </trkpt>
      <trkpt lat="43.43533" lon="3.45005">
        <ele>39.526002</ele>
        <time>2023-12-30T16:30:31.000Z</time>
      </trkpt>
      <trkpt lat="43.43534" lon="3.44998">
        <ele>39.341135</ele>
        <time>2023-12-30T16:30:32.000Z</time>
      </trkpt>
      <trkpt lat="43.43534" lon="3.44991">
        <ele>39.157432</ele>
        <time>2023-12-30T16:30:33.000Z</time>
      </trkpt>
      <trkpt lat="43.43534" lon="3.44984">
        <ele>38.96586</ele>
        <time>2023-12-30T16:30:34.000Z</time>
      </trkpt>
      <trkpt lat="43.43535" lon="3.44977">
        <ele>38.782158</ele>
        <time>2023-12-30T16:30:35.000Z</time>
      </trkpt>
      <trkpt lat="43.43535" lon="3.4497">
        <ele>38.593282</ele>
        <time>2023-12-30T16:30:36.000Z</time>
      </trkpt>
      <trkpt lat="43.43535" lon="3.44962">
        <ele>38.393764</ele>
        <time>2023-12-30T16:30:37.000Z</time>
      </trkpt>
      <trkpt lat="43.43535" lon="3.44954">
        <ele>38.180819</ele>
        <time>2023-12-30T16:30:38.000Z</time>
      </trkpt>
      <trkpt lat="43.43535" lon="3.44946">
        <ele>37.965309</ele>
        <time>2023-12-30T16:30:39.000Z</time>
      </trkpt>
      <trkpt lat="43.43535" lon="3.44938">
        <ele>37.747047</ele>
        <time>2023-12-30T16:30:40.000Z</time>
      </trkpt>
      <trkpt lat="43.43535" lon="3.4493">
        <ele>37.536857</ele>
        <time>2023-12-30T16:30:41.000Z</time>
      </trkpt>
      <trkpt lat="43.43535" lon="3.44922">
        <ele>37.329229</ele>
        <time>2023-12-30T16:30:42.000Z</time>
      </trkpt>
      <trkpt lat="43.43536" lon="3.44914">
        <ele>37.123574</ele>
        <time>2023-12-30T16:30:43.000Z</time>
      </trkpt>
      <trkpt lat="43.43536" lon="3.44907">
        <ele>36.923519</ele>
        <time>2023-12-30T16:30:44.000Z</time>
      </trkpt>
      <trkpt lat="43.43536" lon="3.44899">
        <ele>36.713329</ele>
        <time>2023-12-30T16:30:45.000Z</time>
      </trkpt>
      <trkpt lat="43.43536" lon="3.44891">
        <ele>36.502883</ele>
        <time>2023-12-30T16:30:46.000Z</time>
      </trkpt>
      <trkpt lat="43.43537" lon="3.44884">
        <ele>36.301225</ele>
        <time>2023-12-30T16:30:47.000Z</time>
      </trkpt>
      <trkpt lat="43.43538" lon="3.44876">
        <ele>36.102891</ele>
        <time>2023-12-30T16:30:48.000Z</time>
      </trkpt>
      <trkpt lat="43.43539" lon="3.44869">
        <ele>35.897236</ele>
        <time>2023-12-30T16:30:49.000Z</time>
      </trkpt>
      <trkpt lat="43.4354" lon="3.44861">
        <ele>35.698209</ele>
        <time>2023-12-30T16:30:50.000Z</time>
      </trkpt>
      <trkpt lat="43.43541" lon="3.44854">
        <ele>35.510582</ele>
        <time>2023-12-30T16:30:51.000Z</time>
      </trkpt>
      <trkpt lat="43.43543" lon="3.4485">
        <ele>35.366117</ele>
        <time>2023-12-30T16:30:52.000Z</time>
      </trkpt>
      <trkpt lat="43.43544" lon="3.44846">
        <ele>35.25748</ele>
        <time>2023-12-30T16:30:53.000Z</time>
      </trkpt>
      <trkpt lat="43.43545" lon="3.44843">
        <ele>35.176022</ele>
        <time>2023-12-30T16:30:54.000Z</time>
      </trkpt>
      <trkpt lat="43.43546" lon="3.44841">
        <ele>35.10704</ele>
        <time>2023-12-30T16:30:55.000Z</time>
      </trkpt>
      <trkpt lat="43.43546" lon="3.44838">
        <ele>35.044876</ele>
        <time>2023-12-30T16:30:56.000Z</time>
      </trkpt>
      <trkpt lat="43.43546" lon="3.44836">
        <ele>34.975613</ele>
        <time>2023-12-30T16:30:57.000Z</time>
      </trkpt>
      <trkpt lat="43.43546" lon="3.44833">
        <ele>34.901036</ele>
        <time>2023-12-30T16:30:58.000Z</time>
      </trkpt>
      <trkpt lat="43.43546" lon="3.4483">
        <ele>34.811358</ele>
        <time>2023-12-30T16:30:59.000Z</time>
      </trkpt>
      <trkpt lat="43.43547" lon="3.44826">
        <ele>34.703549</ele>
        <time>2023-12-30T16:31:00.000Z</time>
      </trkpt>
      <trkpt lat="43.43548" lon="3.44821">
        <ele>34.564567</ele>
        <time>2023-12-30T16:31:01.000Z</time>
      </trkpt>
      <trkpt lat="43.4355" lon="3.44815">
        <ele>34.401973</ele>
        <time>2023-12-30T16:31:02.000Z</time>
      </trkpt>
      <trkpt lat="43.43551" lon="3.44809">
        <ele>34.238979</ele>
        <time>2023-12-30T16:31:03.000Z</time>
      </trkpt>
      <trkpt lat="43.43552" lon="3.44804">
        <ele>34.092368</ele>
        <time>2023-12-30T16:31:04.000Z</time>
      </trkpt>
      <trkpt lat="43.43552" lon="3.44798">
        <ele>33.945643</ele>
        <time>2023-12-30T16:31:05.000Z</time>
      </trkpt>
      <trkpt lat="43.43552" lon="3.44794">
        <ele>33.836328</ele>
        <time>2023-12-30T16:31:06.000Z</time>
      </trkpt>
      <trkpt lat="43.43552" lon="3.4479">
        <ele>33.727197</ele>
        <time>2023-12-30T16:31:07.000Z</time>
      </trkpt>
      <trkpt lat="43.43552" lon="3.44787">
        <ele>33.638725</ele>
        <time>2023-12-30T16:31:08.000Z</time>
      </trkpt>
      <trkpt lat="43.43554" lon="3.44782">
        <ele>33.51081</ele>
        <time>2023-12-30T16:31:09.000Z</time>
      </trkpt>
      <trkpt lat="43.43554" lon="3.44778">
        <ele>33.398541</ele>
        <time>2023-12-30T16:31:10.000Z</time>
      </trkpt>
      <trkpt lat="43.43554" lon="3.44774">
        <ele>33.276116</ele>
        <time>2023-12-30T16:31:11.000Z</time>
      </trkpt>
      <trkpt lat="43.43554" lon="3.44769">
        <ele>33.143055</ele>
        <time>2023-12-30T16:31:12.000Z</time>
      </trkpt>
      <trkpt lat="43.43554" lon="3.44764">
        <ele>33.13987</ele>
        <time>2023-12-30T16:31:13.000Z</time>
      </trkpt>
      <trkpt lat="43.43552" lon="3.44759">
        <ele>33.139769</ele>
        <time>2023-12-30T16:31:14.000Z</time>
      </trkpt>
      <trkpt lat="43.43549" lon="3.44755">
        <ele>33.139654</ele>
        <time>2023-12-30T16:31:15.000Z</time>
      </trkpt>
      <trkpt lat="43.43547" lon="3.4475">
        <ele>33.139552</ele>
        <time>2023-12-30T16:31:16.000Z</time>
      </trkpt>
      <trkpt lat="43.43545" lon="3.44747">
        <ele>33.139476</ele>
        <time>2023-12-30T16:31:17.000Z</time>
      </trkpt>
      <trkpt lat="43.43542" lon="3.44746">
        <ele>33.139408</ele>
        <time>2023-12-30T16:31:18.000Z</time>
      </trkpt>
      <trkpt lat="43.4354" lon="3.44745">
        <ele>33.139344</ele>
        <time>2023-12-30T16:31:19.000Z</time>
      </trkpt>
      <trkpt lat="43.43538" lon="3.44743">
        <ele>33.139272</ele>
        <time>2023-12-30T16:31:20.000Z</time>
      </trkpt>
      <trkpt lat="43.43537" lon="3.44739">
        <ele>33.13919</ele>
        <time>2023-12-30T16:31:21.000Z</time>
      </trkpt>
      <trkpt lat="43.43537" lon="3.44734">
        <ele>33.139094</ele>
        <time>2023-12-30T16:31:22.000Z</time>
      </trkpt>
      <trkpt lat="43.43537" lon="3.44729">
        <ele>33.139</ele>
        <time>2023-12-30T16:31:23.000Z</time>
      </trkpt>
      <trkpt lat="43.43538" lon="3.44724">
        <ele>33.138901</ele>
        <time>2023-12-30T16:31:24.000Z</time>
      </trkpt>
      <trkpt lat="43.43539" lon="3.44717">
        <ele>33.138782</ele>
        <time>2023-12-30T16:31:25.000Z</time>
      </trkpt>
      <trkpt lat="43.4354" lon="3.4471">
        <ele>33.138647</ele>
        <time>2023-12-30T16:31:26.000Z</time>
      </trkpt>
      <trkpt lat="43.43541" lon="3.44704">
        <ele>33.138529</ele>
        <time>2023-12-30T16:31:27.000Z</time>
      </trkpt>
      <trkpt lat="43.43543" lon="3.44698">
        <ele>33.138409</ele>
        <time>2023-12-30T16:31:28.000Z</time>
      </trkpt>
      <trkpt lat="43.43544" lon="3.44692">
        <ele>33.13829</ele>
        <time>2023-12-30T16:31:29.000Z</time>
      </trkpt>
      <trkpt lat="43.43545" lon="3.44686">
        <ele>33.138171</ele>
        <time>2023-12-30T16:31:30.000Z</time>
      </trkpt>
      <trkpt lat="43.43546" lon="3.44681">
        <ele>33.138071</ele>
        <time>2023-12-30T16:31:31.000Z</time>
      </trkpt>
      <trkpt lat="43.43548" lon="3.44676">
        <ele>33.137972</ele>
        <time>2023-12-30T16:31:32.000Z</time>
      </trkpt>
      <trkpt lat="43.43548" lon="3.44672">
        <ele>33.137892</ele>
        <time>2023-12-30T16:31:33.000Z</time>
      </trkpt>
      <trkpt lat="43.43548" lon="3.44666">
        <ele>33.137794</ele>
        <time>2023-12-30T16:31:34.000Z</time>
      </trkpt>
      <trkpt lat="43.43549" lon="3.44662">
        <ele>33.137713</ele>
        <time>2023-12-30T16:31:35.000Z</time>
      </trkpt>
      <trkpt lat="43.43551" lon="3.44659">
        <ele>33.137626</ele>
        <time>2023-12-30T16:31:36.000Z</time>
      </trkpt>
      <trkpt lat="43.43553" lon="3.44656">
        <ele>33.137554</ele>
        <time>2023-12-30T16:31:37.000Z</time>
      </trkpt>
      <trkpt lat="43.43553" lon="3.44653">
        <ele>33.137501</ele>
        <time>2023-12-30T16:31:38.000Z</time>
      </trkpt>
      <trkpt lat="43.43554" lon="3.44649">
        <ele>33.137434</ele>
        <time>2023-12-30T16:31:39.000Z</time>
      </trkpt>
      <trkpt lat="43.43554" lon="3.44646">
        <ele>33.137366</ele>
        <time>2023-12-30T16:31:40.000Z</time>
      </trkpt>
      <trkpt lat="43.43555" lon="3.44643">
        <ele>33.137302</ele>
        <time>2023-12-30T16:31:41.000Z</time>
      </trkpt>
      <trkpt lat="43.43557" lon="3.44639">
        <ele>33.137222</ele>
        <time>2023-12-30T16:31:42.000Z</time>
      </trkpt>
      <trkpt lat="43.43558" lon="3.44636">
        <ele>33.137153</ele>
        <time>2023-12-30T16:31:43.000Z</time>
      </trkpt>
      <trkpt lat="43.43559" lon="3.44633">
        <ele>33.137086</ele>
        <time>2023-12-30T16:31:44.000Z</time>
      </trkpt>
      <trkpt lat="43.4356" lon="3.4463">
        <ele>33.137026</ele>
        <time>2023-12-30T16:31:45.000Z</time>
      </trkpt>
      <trkpt lat="43.43561" lon="3.44626">
        <ele>33.136962</ele>
        <time>2023-12-30T16:31:46.000Z</time>
      </trkpt>
      <trkpt lat="43.43561" lon="3.44623">
        <ele>33.136905</ele>
        <time>2023-12-30T16:31:47.000Z</time>
      </trkpt>
      <trkpt lat="43.43561" lon="3.4462">
        <ele>33.136847</ele>
        <time>2023-12-30T16:31:48.000Z</time>
      </trkpt>
      <trkpt lat="43.43561" lon="3.44617">
        <ele>33.136781</ele>
        <time>2023-12-30T16:31:49.000Z</time>
      </trkpt>
      <trkpt lat="43.4356" lon="3.44614">
        <ele>33.136728</ele>
        <time>2023-12-30T16:31:50.000Z</time>
      </trkpt>
      <trkpt lat="43.4356" lon="3.44611">
        <ele>33.136663</ele>
        <time>2023-12-30T16:31:51.000Z</time>
      </trkpt>
      <trkpt lat="43.4356" lon="3.44607">
        <ele>33.136598</ele>
        <time>2023-12-30T16:31:52.000Z</time>
      </trkpt>
      <trkpt lat="43.4356" lon="3.44604">
        <ele>33.136543</ele>
        <time>2023-12-30T16:31:53.000Z</time>
      </trkpt>
      <trkpt lat="43.4356" lon="3.44601">
        <ele>33.136487</ele>
        <time>2023-12-30T16:31:54.000Z</time>
      </trkpt>
      <trkpt lat="43.4356" lon="3.44598">
        <ele>33.136427</ele>
        <time>2023-12-30T16:31:55.000Z</time>
      </trkpt>
      <trkpt lat="43.4356" lon="3.44595">
        <ele>33.136371</ele>
        <time>2023-12-30T16:31:56.000Z</time>
      </trkpt>
      <trkpt lat="43.4356" lon="3.44592">
        <ele>33.136307</ele>
        <time>2023-12-30T16:31:57.000Z</time>
      </trkpt>
      <trkpt lat="43.43559" lon="3.44588">
        <ele>33.136237</ele>
        <time>2023-12-30T16:31:58.000Z</time>
      </trkpt>
      <trkpt lat="43.43559" lon="3.44585">
        <ele>33.136176</ele>
        <time>2023-12-30T16:31:59.000Z</time>
      </trkpt>
      <trkpt lat="43.43558" lon="3.44582">
        <ele>33.136124</ele>
        <time>2023-12-30T16:32:00.000Z</time>
      </trkpt>
      <trkpt lat="43.43558" lon="3.4458">
        <ele>33.13608</ele>
        <time>2023-12-30T16:32:01.000Z</time>
      </trkpt>
      <trkpt lat="43.43557" lon="3.44577">
        <ele>33.136025</ele>
        <time>2023-12-30T16:32:02.000Z</time>
      </trkpt>
      <trkpt lat="43.43556" lon="3.44574">
        <ele>33.135968</ele>
        <time>2023-12-30T16:32:03.000Z</time>
      </trkpt>
      <trkpt lat="43.43555" lon="3.44572">
        <ele>33.135913</ele>
        <time>2023-12-30T16:32:04.000Z</time>
      </trkpt>
      <trkpt lat="43.43554" lon="3.44569">
        <ele>33.135861</ele>
        <time>2023-12-30T16:32:05.000Z</time>
      </trkpt>
      <trkpt lat="43.43553" lon="3.44567">
        <ele>33.13581</ele>
        <time>2023-12-30T16:32:06.000Z</time>
      </trkpt>
      <trkpt lat="43.43552" lon="3.44564">
        <ele>33.135754</ele>
        <time>2023-12-30T16:32:07.000Z</time>
      </trkpt>
      <trkpt lat="43.43551" lon="3.44561">
        <ele>33.135696</ele>
        <time>2023-12-30T16:32:08.000Z</time>
      </trkpt>
      <trkpt lat="43.43551" lon="3.44558">
        <ele>33.135635</ele>
        <time>2023-12-30T16:32:09.000Z</time>
      </trkpt>
      <trkpt lat="43.43549" lon="3.44555">
        <ele>33.135564</ele>
        <time>2023-12-30T16:32:10.000Z</time>
      </trkpt>
      <trkpt lat="43.43548" lon="3.44553">
        <ele>33.135506</ele>
        <time>2023-12-30T16:32:11.000Z</time>
      </trkpt>
      <trkpt lat="43.43547" lon="3.4455">
        <ele>33.135448</ele>
        <time>2023-12-30T16:32:12.000Z</time>
      </trkpt>
      <trkpt lat="43.43547" lon="3.44546">
        <ele>33.135369</ele>
        <time>2023-12-30T16:32:13.000Z</time>
      </trkpt>
      <trkpt lat="43.43547" lon="3.44541">
        <ele>33.090471</ele>
        <time>2023-12-30T16:32:14.000Z</time>
      </trkpt>
      <trkpt lat="43.43546" lon="3.44538">
        <ele>33.006289</ele>
        <time>2023-12-30T16:32:15.000Z</time>
      </trkpt>
      <trkpt lat="43.43543" lon="3.44535">
        <ele>32.899444</ele>
        <time>2023-12-30T16:32:16.000Z</time>
      </trkpt>
      <trkpt lat="43.43539" lon="3.44531">
        <ele>32.74198</ele>
        <time>2023-12-30T16:32:17.000Z</time>
      </trkpt>
      <trkpt lat="43.43536" lon="3.44526">
        <ele>32.600247</ele>
        <time>2023-12-30T16:32:18.000Z</time>
      </trkpt>
      <trkpt lat="43.43533" lon="3.44522">
        <ele>32.46588</ele>
        <time>2023-12-30T16:32:19.000Z</time>
      </trkpt>
      <trkpt lat="43.4353" lon="3.44517">
        <ele>32.330944</ele>
        <time>2023-12-30T16:32:20.000Z</time>
      </trkpt>
      <trkpt lat="43.43527" lon="3.44513">
        <ele>32.180812</ele>
        <time>2023-12-30T16:32:21.000Z</time>
      </trkpt>
      <trkpt lat="43.43523" lon="3.44511">
        <ele>32.066084</ele>
        <time>2023-12-30T16:32:22.000Z</time>
      </trkpt>
      <trkpt lat="43.4352" lon="3.4451">
        <ele>31.958648</ele>
        <time>2023-12-30T16:32:23.000Z</time>
      </trkpt>
      <trkpt lat="43.43517" lon="3.44509">
        <ele>31.87644</ele>
        <time>2023-12-30T16:32:24.000Z</time>
      </trkpt>
      <trkpt lat="43.43515" lon="3.44507">
        <ele>31.80084</ele>
        <time>2023-12-30T16:32:25.000Z</time>
      </trkpt>
      <trkpt lat="43.43513" lon="3.44505">
        <ele>31.721409</ele>
        <time>2023-12-30T16:32:26.000Z</time>
      </trkpt>
      <trkpt lat="43.4351" lon="3.44503">
        <ele>31.615768</ele>
        <time>2023-12-30T16:32:27.000Z</time>
      </trkpt>
      <trkpt lat="43.43507" lon="3.44502">
        <ele>31.502021</ele>
        <time>2023-12-30T16:32:28.000Z</time>
      </trkpt>
      <trkpt lat="43.43503" lon="3.445">
        <ele>31.383552</ele>
        <time>2023-12-30T16:32:29.000Z</time>
      </trkpt>
      <trkpt lat="43.43501" lon="3.44498">
        <ele>31.310124</ele>
        <time>2023-12-30T16:32:30.000Z</time>
      </trkpt>
      <trkpt lat="43.43499" lon="3.44497">
        <ele>31.242164</ele>
        <time>2023-12-30T16:32:31.000Z</time>
      </trkpt>
      <trkpt lat="43.43498" lon="3.44494">
        <ele>31.172795</ele>
        <time>2023-12-30T16:32:32.000Z</time>
      </trkpt>
      <trkpt lat="43.43497" lon="3.4449">
        <ele>31.075336</ele>
        <time>2023-12-30T16:32:33.000Z</time>
      </trkpt>
      <trkpt lat="43.43495" lon="3.44487">
        <ele>30.996615</ele>
        <time>2023-12-30T16:32:34.000Z</time>
      </trkpt>
      <trkpt lat="43.43494" lon="3.44484">
        <ele>30.920179</ele>
        <time>2023-12-30T16:32:35.000Z</time>
      </trkpt>
      <trkpt lat="43.43493" lon="3.44481">
        <ele>30.834354</ele>
        <time>2023-12-30T16:32:36.000Z</time>
      </trkpt>
      <trkpt lat="43.43492" lon="3.44478">
        <ele>30.759142</ele>
        <time>2023-12-30T16:32:37.000Z</time>
      </trkpt>
      <trkpt lat="43.4349" lon="3.44475">
        <ele>30.682347</ele>
        <time>2023-12-30T16:32:38.000Z</time>
      </trkpt>
      <trkpt lat="43.43489" lon="3.44472">
        <ele>30.593762</ele>
        <time>2023-12-30T16:32:39.000Z</time>
      </trkpt>
      <trkpt lat="43.43488" lon="3.44467">
        <ele>30.490757</ele>
        <time>2023-12-30T16:32:40.000Z</time>
      </trkpt>
      <trkpt lat="43.43487" lon="3.44463">
        <ele>30.383263</ele>
        <time>2023-12-30T16:32:41.000Z</time>
      </trkpt>
      <trkpt lat="43.43486" lon="3.44458">
        <ele>30.273124</ele>
        <time>2023-12-30T16:32:42.000Z</time>
      </trkpt>
      <trkpt lat="43.43483" lon="3.44454">
        <ele>30.150884</ele>
        <time>2023-12-30T16:32:43.000Z</time>
      </trkpt>
      <trkpt lat="43.43482" lon="3.44449">
        <ele>30.025916</ele>
        <time>2023-12-30T16:32:44.000Z</time>
      </trkpt>
      <trkpt lat="43.43481" lon="3.44443">
        <ele>29.880502</ele>
        <time>2023-12-30T16:32:45.000Z</time>
      </trkpt>
      <trkpt lat="43.4348" lon="3.44435">
        <ele>29.716914</ele>
        <time>2023-12-30T16:32:46.000Z</time>
      </trkpt>
      <trkpt lat="43.43479" lon="3.4443">
        <ele>29.58665</ele>
        <time>2023-12-30T16:32:47.000Z</time>
      </trkpt>
      <trkpt lat="43.43478" lon="3.44425">
        <ele>29.465847</ele>
        <time>2023-12-30T16:32:48.000Z</time>
      </trkpt>
      <trkpt lat="43.43478" lon="3.44418">
        <ele>29.3216</ele>
        <time>2023-12-30T16:32:49.000Z</time>
      </trkpt>
      <trkpt lat="43.43477" lon="3.44412">
        <ele>29.190575</ele>
        <time>2023-12-30T16:32:50.000Z</time>
      </trkpt>
      <trkpt lat="43.43476" lon="3.44407">
        <ele>29.06878</ele>
        <time>2023-12-30T16:32:51.000Z</time>
      </trkpt>
      <trkpt lat="43.43475" lon="3.44403">
        <ele>28.957553</ele>
        <time>2023-12-30T16:32:52.000Z</time>
      </trkpt>
      <trkpt lat="43.43474" lon="3.44397">
        <ele>28.832709</ele>
        <time>2023-12-30T16:32:53.000Z</time>
      </trkpt>
      <trkpt lat="43.43473" lon="3.44393">
        <ele>28.72983</ele>
        <time>2023-12-30T16:32:54.000Z</time>
      </trkpt>
      <trkpt lat="43.43471" lon="3.4439">
        <ele>28.645232</ele>
        <time>2023-12-30T16:32:55.000Z</time>
      </trkpt>
      <trkpt lat="43.43471" lon="3.44387">
        <ele>28.575328</ele>
        <time>2023-12-30T16:32:56.000Z</time>
      </trkpt>
      <trkpt lat="43.43469" lon="3.44384">
        <ele>28.49555</ele>
        <time>2023-12-30T16:32:57.000Z</time>
      </trkpt>
      <trkpt lat="43.43469" lon="3.4438">
        <ele>28.405025</ele>
        <time>2023-12-30T16:32:58.000Z</time>
      </trkpt>
      <trkpt lat="43.43469" lon="3.44375">
        <ele>28.298936</ele>
        <time>2023-12-30T16:32:59.000Z</time>
      </trkpt>
      <trkpt lat="43.43469" lon="3.4437">
        <ele>28.178506</ele>
        <time>2023-12-30T16:33:00.000Z</time>
      </trkpt>
      <trkpt lat="43.43469" lon="3.44365">
        <ele>28.070167</ele>
        <time>2023-12-30T16:33:01.000Z</time>
      </trkpt>
      <trkpt lat="43.43469" lon="3.4436">
        <ele>27.947855</ele>
        <time>2023-12-30T16:33:02.000Z</time>
      </trkpt>
      <trkpt lat="43.43468" lon="3.44355">
        <ele>27.830284</ele>
        <time>2023-12-30T16:33:03.000Z</time>
      </trkpt>
      <trkpt lat="43.43467" lon="3.4435">
        <ele>27.730686</ele>
        <time>2023-12-30T16:33:04.000Z</time>
      </trkpt>
      <trkpt lat="43.43466" lon="3.44345">
        <ele>27.611015</ele>
        <time>2023-12-30T16:33:05.000Z</time>
      </trkpt>
      <trkpt lat="43.43465" lon="3.44342">
        <ele>27.562356</ele>
        <time>2023-12-30T16:33:06.000Z</time>
      </trkpt>
      <trkpt lat="43.43464" lon="3.44338">
        <ele>27.582792</ele>
        <time>2023-12-30T16:33:07.000Z</time>
      </trkpt>
      <trkpt lat="43.43463" lon="3.44334">
        <ele>27.608992</ele>
        <time>2023-12-30T16:33:08.000Z</time>
      </trkpt>
      <trkpt lat="43.43462" lon="3.44329">
        <ele>27.636703</ele>
        <time>2023-12-30T16:33:09.000Z</time>
      </trkpt>
      <trkpt lat="43.43462" lon="3.44324">
        <ele>27.665518</ele>
        <time>2023-12-30T16:33:10.000Z</time>
      </trkpt>
      <trkpt lat="43.43461" lon="3.44318">
        <ele>27.694867</ele>
        <time>2023-12-30T16:33:11.000Z</time>
      </trkpt>
      <trkpt lat="43.43461" lon="3.44313">
        <ele>27.722691</ele>
        <time>2023-12-30T16:33:12.000Z</time>
      </trkpt>
      <trkpt lat="43.43462" lon="3.44308">
        <ele>27.754353</ele>
        <time>2023-12-30T16:33:13.000Z</time>
      </trkpt>
      <trkpt lat="43.43462" lon="3.44302">
        <ele>27.787852</ele>
        <time>2023-12-30T16:33:14.000Z</time>
      </trkpt>
      <trkpt lat="43.43461" lon="3.44296">
        <ele>27.820892</ele>
        <time>2023-12-30T16:33:15.000Z</time>
      </trkpt>
      <trkpt lat="43.43459" lon="3.44291">
        <ele>27.853343</ele>
        <time>2023-12-30T16:33:16.000Z</time>
      </trkpt>
      <trkpt lat="43.43457" lon="3.44285">
        <ele>27.888702</ele>
        <time>2023-12-30T16:33:17.000Z</time>
      </trkpt>
      <trkpt lat="43.43458" lon="3.4428">
        <ele>27.91761</ele>
        <time>2023-12-30T16:33:18.000Z</time>
      </trkpt>
      <trkpt lat="43.43459" lon="3.44276">
        <ele>27.940601</ele>
        <time>2023-12-30T16:33:19.000Z</time>
      </trkpt>
      <trkpt lat="43.4346" lon="3.44271">
        <ele>27.968017</ele>
        <time>2023-12-30T16:33:20.000Z</time>
      </trkpt>
      <trkpt lat="43.43461" lon="3.44265">
        <ele>28.000074</ele>
        <time>2023-12-30T16:33:21.000Z</time>
      </trkpt>
      <trkpt lat="43.43463" lon="3.4426">
        <ele>28.032844</ele>
        <time>2023-12-30T16:33:22.000Z</time>
      </trkpt>
      <trkpt lat="43.43464" lon="3.44255">
        <ele>28.059434</ele>
        <time>2023-12-30T16:33:23.000Z</time>
      </trkpt>
      <trkpt lat="43.43464" lon="3.4425">
        <ele>28.084324</ele>
        <time>2023-12-30T16:33:24.000Z</time>
      </trkpt>
      <trkpt lat="43.43464" lon="3.44247">
        <ele>28.104147</ele>
        <time>2023-12-30T16:33:25.000Z</time>
      </trkpt>
      <trkpt lat="43.43463" lon="3.44243">
        <ele>28.124293</ele>
        <time>2023-12-30T16:33:26.000Z</time>
      </trkpt>
      <trkpt lat="43.43464" lon="3.44239">
        <ele>28.146854</ele>
        <time>2023-12-30T16:33:27.000Z</time>
      </trkpt>
      <trkpt lat="43.43464" lon="3.44236">
        <ele>28.1659</ele>
        <time>2023-12-30T16:33:28.000Z</time>
      </trkpt>
      <trkpt lat="43.43464" lon="3.44233">
        <ele>28.183871</ele>
        <time>2023-12-30T16:33:29.000Z</time>
      </trkpt>
      <trkpt lat="43.43462" lon="3.4423">
        <ele>28.204763</ele>
        <time>2023-12-30T16:33:30.000Z</time>
      </trkpt>
      <trkpt lat="43.4346" lon="3.44227">
        <ele>28.224325</ele>
        <time>2023-12-30T16:33:31.000Z</time>
      </trkpt>
      <trkpt lat="43.43457" lon="3.44226">
        <ele>28.359437</ele>
        <time>2023-12-30T16:34:08.000Z</time>
      </trkpt>
      <trkpt lat="43.43455" lon="3.44225">
        <ele>28.377716</ele>
        <time>2023-12-30T16:34:09.000Z</time>
      </trkpt>
      <trkpt lat="43.43452" lon="3.44224">
        <ele>28.401053</ele>
        <time>2023-12-30T16:34:10.000Z</time>
      </trkpt>
      <trkpt lat="43.43449" lon="3.44224">
        <ele>28.420833</ele>
        <time>2023-12-30T16:34:11.000Z</time>
      </trkpt>
      <trkpt lat="43.43446" lon="3.44223">
        <ele>28.442349</ele>
        <time>2023-12-30T16:34:12.000Z</time>
      </trkpt>
      <trkpt lat="43.43443" lon="3.44223">
        <ele>28.466698</ele>
        <time>2023-12-30T16:34:13.000Z</time>
      </trkpt>
      <trkpt lat="43.4344" lon="3.44222">
        <ele>28.492615</ele>
        <time>2023-12-30T16:34:14.000Z</time>
      </trkpt>
      <trkpt lat="43.43437" lon="3.4422">
        <ele>28.518889</ele>
        <time>2023-12-30T16:34:15.000Z</time>
      </trkpt>
      <trkpt lat="43.43433" lon="3.44219">
        <ele>28.545568</ele>
        <time>2023-12-30T16:34:16.000Z</time>
      </trkpt>
      <trkpt lat="43.4343" lon="3.44219">
        <ele>28.571298</ele>
        <time>2023-12-30T16:34:17.000Z</time>
      </trkpt>
      <trkpt lat="43.43426" lon="3.44219">
        <ele>28.597098</ele>
        <time>2023-12-30T16:34:18.000Z</time>
      </trkpt>
      <trkpt lat="43.43424" lon="3.44219">
        <ele>28.618297</ele>
        <time>2023-12-30T16:34:19.000Z</time>
      </trkpt>
      <trkpt lat="43.4342" lon="3.44219">
        <ele>28.644901</ele>
        <time>2023-12-30T16:34:20.000Z</time>
      </trkpt>
      <trkpt lat="43.43416" lon="3.44217">
        <ele>28.673641</ele>
        <time>2023-12-30T16:34:21.000Z</time>
      </trkpt>
      <trkpt lat="43.43412" lon="3.44216">
        <ele>28.703855</ele>
        <time>2023-12-30T16:34:22.000Z</time>
      </trkpt>
      <trkpt lat="43.43409" lon="3.44214">
        <ele>28.733176</ele>
        <time>2023-12-30T16:34:23.000Z</time>
      </trkpt>
      <trkpt lat="43.43407" lon="3.44212">
        <ele>28.754675</ele>
        <time>2023-12-30T16:34:24.000Z</time>
      </trkpt>
      <trkpt lat="43.43405" lon="3.44209">
        <ele>28.774713</ele>
        <time>2023-12-30T16:34:25.000Z</time>
      </trkpt>
      <trkpt lat="43.43402" lon="3.44206">
        <ele>28.797801</ele>
        <time>2023-12-30T16:34:26.000Z</time>
      </trkpt>
      <trkpt lat="43.43399" lon="3.44204">
        <ele>28.824424</ele>
        <time>2023-12-30T16:34:27.000Z</time>
      </trkpt>
      <trkpt lat="43.43395" lon="3.44202">
        <ele>28.857498</ele>
        <time>2023-12-30T16:34:28.000Z</time>
      </trkpt>
      <trkpt lat="43.43391" lon="3.442">
        <ele>28.888881</ele>
        <time>2023-12-30T16:34:29.000Z</time>
      </trkpt>
      <trkpt lat="43.43387" lon="3.44198">
        <ele>28.913851</ele>
        <time>2023-12-30T16:34:30.000Z</time>
      </trkpt>
      <trkpt lat="43.43384" lon="3.44196">
        <ele>28.913851</ele>
        <time>2023-12-30T16:34:31.000Z</time>
      </trkpt>
      <trkpt lat="43.4338" lon="3.44195">
        <ele>28.913851</ele>
        <time>2023-12-30T16:34:32.000Z</time>
      </trkpt>
      <trkpt lat="43.43377" lon="3.44194">
        <ele>28.913851</ele>
        <time>2023-12-30T16:34:33.000Z</time>
      </trkpt>
      <trkpt lat="43.43374" lon="3.44191">
        <ele>28.913851</ele>
        <time>2023-12-30T16:34:34.000Z</time>
      </trkpt>
      <trkpt lat="43.43371" lon="3.44188">
        <ele>28.913851</ele>
        <time>2023-12-30T16:34:35.000Z</time>
      </trkpt>
      <trkpt lat="43.43369" lon="3.44184">
        <ele>28.913851</ele>
        <time>2023-12-30T16:34:36.000Z</time>
      </trkpt>
      <trkpt lat="43.43366" lon="3.44179">
        <ele>28.913851</ele>
        <time>2023-12-30T16:34:37.000Z</time>
      </trkpt>
      <trkpt lat="43.43364" lon="3.44175">
        <ele>28.913851</ele>
        <time>2023-12-30T16:34:38.000Z</time>
      </trkpt>
      <trkpt lat="43.43362" lon="3.44172">
        <ele>28.913851</ele>
        <time>2023-12-30T16:34:39.000Z</time>
      </trkpt>
      <trkpt lat="43.43361" lon="3.44169">
        <ele>28.913851</ele>
        <time>2023-12-30T16:34:40.000Z</time>
      </trkpt>
      <trkpt lat="43.4336" lon="3.44167">
        <ele>28.913851</ele>
        <time>2023-12-30T16:34:41.000Z</time>
      </trkpt>
      <trkpt lat="43.43359" lon="3.44166">
        <ele>28.913851</ele>
        <time>2023-12-30T16:34:42.000Z</time>
      </trkpt>
      <trkpt lat="43.43358" lon="3.44164">
        <ele>28.913851</ele>
        <time>2023-12-30T16:34:43.000Z</time>
      </trkpt>
      <trkpt lat="43.43357" lon="3.44162">
        <ele>28.913851</ele>
        <time>2023-12-30T16:34:44.000Z</time>
      </trkpt>
      <trkpt lat="43.43356" lon="3.4416">
        <ele>28.913851</ele>
        <time>2023-12-30T16:34:45.000Z</time>
      </trkpt>
      <trkpt lat="43.43355" lon="3.44159">
        <ele>28.913851</ele>
        <time>2023-12-30T16:34:46.000Z</time>
      </trkpt>
      <trkpt lat="43.43354" lon="3.44159">
        <ele>28.913851</ele>
        <time>2023-12-30T16:34:47.000Z</time>
      </trkpt>
      <trkpt lat="43.43353" lon="3.44157">
        <ele>28.913851</ele>
        <time>2023-12-30T16:34:48.000Z</time>
      </trkpt>
      <trkpt lat="43.43352" lon="3.44156">
        <ele>28.913851</ele>
        <time>2023-12-30T16:34:49.000Z</time>
      </trkpt>
      <trkpt lat="43.43352" lon="3.44155">
        <ele>28.913851</ele>
        <time>2023-12-30T16:34:50.000Z</time>
      </trkpt>
      <trkpt lat="43.43352" lon="3.44155">
        <ele>28.913851</ele>
        <time>2023-12-30T16:34:51.000Z</time>
      </trkpt>
      <trkpt lat="43.43352" lon="3.44155">
        <ele>28.913851</ele>
        <time>2023-12-30T16:34:52.000Z</time>
      </trkpt>
      <trkpt lat="43.43353" lon="3.44154">
        <ele>28.913851</ele>
        <time>2023-12-30T16:34:53.000Z</time>
      </trkpt>
      <trkpt lat="43.43353" lon="3.44153">
        <ele>28.913851</ele>
        <time>2023-12-30T16:34:54.000Z</time>
      </trkpt>
      <trkpt lat="43.43354" lon="3.44151">
        <ele>28.913851</ele>
        <time>2023-12-30T16:34:55.000Z</time>
      </trkpt>
      <trkpt lat="43.43355" lon="3.44149">
        <ele>28.913851</ele>
        <time>2023-12-30T16:34:56.000Z</time>
      </trkpt>
      <trkpt lat="43.43356" lon="3.44147">
        <ele>28.913851</ele>
        <time>2023-12-30T16:34:57.000Z</time>
      </trkpt>
      <trkpt lat="43.43357" lon="3.44144">
        <ele>28.913851</ele>
        <time>2023-12-30T16:34:58.000Z</time>
      </trkpt>
      <trkpt lat="43.43359" lon="3.44141">
        <ele>28.913851</ele>
        <time>2023-12-30T16:34:59.000Z</time>
      </trkpt>
      <trkpt lat="43.4336" lon="3.44137">
        <ele>28.913851</ele>
        <time>2023-12-30T16:35:00.000Z</time>
      </trkpt>
      <trkpt lat="43.43362" lon="3.44134">
        <ele>28.913851</ele>
        <time>2023-12-30T16:35:01.000Z</time>
      </trkpt>
      <trkpt lat="43.43363" lon="3.4413">
        <ele>28.913851</ele>
        <time>2023-12-30T16:35:02.000Z</time>
      </trkpt>
      <trkpt lat="43.43365" lon="3.44127">
        <ele>28.913851</ele>
        <time>2023-12-30T16:35:03.000Z</time>
      </trkpt>
      <trkpt lat="43.43367" lon="3.44124">
        <ele>28.913851</ele>
        <time>2023-12-30T16:35:04.000Z</time>
      </trkpt>
      <trkpt lat="43.43368" lon="3.44121">
        <ele>28.913851</ele>
        <time>2023-12-30T16:35:05.000Z</time>
      </trkpt>
      <trkpt lat="43.43369" lon="3.44117">
        <ele>28.913851</ele>
        <time>2023-12-30T16:35:06.000Z</time>
      </trkpt>
      <trkpt lat="43.43371" lon="3.44115">
        <ele>28.913851</ele>
        <time>2023-12-30T16:35:07.000Z</time>
      </trkpt>
      <trkpt lat="43.43373" lon="3.44112">
        <ele>28.913851</ele>
        <time>2023-12-30T16:35:08.000Z</time>
      </trkpt>
      <trkpt lat="43.43374" lon="3.44109">
        <ele>28.913851</ele>
        <time>2023-12-30T16:35:09.000Z</time>
      </trkpt>
      <trkpt lat="43.43376" lon="3.44106">
        <ele>28.913851</ele>
        <time>2023-12-30T16:35:10.000Z</time>
      </trkpt>
      <trkpt lat="43.43377" lon="3.44103">
        <ele>28.913851</ele>
        <time>2023-12-30T16:35:11.000Z</time>
      </trkpt>
      <trkpt lat="43.43378" lon="3.441">
        <ele>28.913851</ele>
        <time>2023-12-30T16:35:12.000Z</time>
      </trkpt>
      <trkpt lat="43.4338" lon="3.44097">
        <ele>28.913851</ele>
        <time>2023-12-30T16:35:13.000Z</time>
      </trkpt>
      <trkpt lat="43.43381" lon="3.44095">
        <ele>28.913851</ele>
        <time>2023-12-30T16:35:14.000Z</time>
      </trkpt>
      <trkpt lat="43.43382" lon="3.44092">
        <ele>28.913851</ele>
        <time>2023-12-30T16:35:15.000Z</time>
      </trkpt>
      <trkpt lat="43.43384" lon="3.44089">
        <ele>28.913851</ele>
        <time>2023-12-30T16:35:16.000Z</time>
      </trkpt>
      <trkpt lat="43.43385" lon="3.44087">
        <ele>28.913851</ele>
        <time>2023-12-30T16:35:17.000Z</time>
      </trkpt>
      <trkpt lat="43.43387" lon="3.44084">
        <ele>28.913851</ele>
        <time>2023-12-30T16:35:18.000Z</time>
      </trkpt>
      <trkpt lat="43.43388" lon="3.44082">
        <ele>28.913851</ele>
        <time>2023-12-30T16:35:19.000Z</time>
      </trkpt>
      <trkpt lat="43.43389" lon="3.44079">
        <ele>28.913851</ele>
        <time>2023-12-30T16:35:20.000Z</time>
      </trkpt>
      <trkpt lat="43.43391" lon="3.44076">
        <ele>28.913851</ele>
        <time>2023-12-30T16:35:21.000Z</time>
      </trkpt>
      <trkpt lat="43.43392" lon="3.44073">
        <ele>28.913851</ele>
        <time>2023-12-30T16:35:22.000Z</time>
      </trkpt>
      <trkpt lat="43.43392" lon="3.4407">
        <ele>28.913851</ele>
        <time>2023-12-30T16:35:23.000Z</time>
      </trkpt>
      <trkpt lat="43.43393" lon="3.44067">
        <ele>28.913851</ele>
        <time>2023-12-30T16:35:24.000Z</time>
      </trkpt>
      <trkpt lat="43.43395" lon="3.44065">
        <ele>28.913851</ele>
        <time>2023-12-30T16:35:25.000Z</time>
      </trkpt>
      <trkpt lat="43.43396" lon="3.44063">
        <ele>28.913851</ele>
        <time>2023-12-30T16:35:26.000Z</time>
      </trkpt>
      <trkpt lat="43.43397" lon="3.4406">
        <ele>28.913851</ele>
        <time>2023-12-30T16:35:27.000Z</time>
      </trkpt>
      <trkpt lat="43.43398" lon="3.44058">
        <ele>28.913851</ele>
        <time>2023-12-30T16:35:28.000Z</time>
      </trkpt>
      <trkpt lat="43.43399" lon="3.44056">
        <ele>28.913851</ele>
        <time>2023-12-30T16:35:29.000Z</time>
      </trkpt>
      <trkpt lat="43.43401" lon="3.44055">
        <ele>28.913851</ele>
        <time>2023-12-30T16:35:30.000Z</time>
      </trkpt>
      <trkpt lat="43.43402" lon="3.44055">
        <ele>28.913851</ele>
        <time>2023-12-30T16:35:31.000Z</time>
      </trkpt>
      <trkpt lat="43.43404" lon="3.44056">
        <ele>28.913851</ele>
        <time>2023-12-30T16:35:32.000Z</time>
      </trkpt>
      <trkpt lat="43.43405" lon="3.44057">
        <ele>28.913851</ele>
        <time>2023-12-30T16:35:33.000Z</time>
      </trkpt>
      <trkpt lat="43.43407" lon="3.44059">
        <ele>28.913851</ele>
        <time>2023-12-30T16:35:34.000Z</time>
      </trkpt>
      <trkpt lat="43.43409" lon="3.4406">
        <ele>28.913851</ele>
        <time>2023-12-30T16:35:35.000Z</time>
      </trkpt>
      <trkpt lat="43.43411" lon="3.44061">
        <ele>28.913851</ele>
        <time>2023-12-30T16:35:36.000Z</time>
      </trkpt>
      <trkpt lat="43.43414" lon="3.44062">
        <ele>28.913851</ele>
        <time>2023-12-30T16:35:37.000Z</time>
      </trkpt>
      <trkpt lat="43.43415" lon="3.44064">
        <ele>28.913851</ele>
        <time>2023-12-30T16:35:38.000Z</time>
      </trkpt>
      <trkpt lat="43.43419" lon="3.44065">
        <ele>28.913851</ele>
        <time>2023-12-30T16:35:39.000Z</time>
      </trkpt>
      <trkpt lat="43.43422" lon="3.44066">
        <ele>28.913851</ele>
        <time>2023-12-30T16:35:40.000Z</time>
      </trkpt>
      <trkpt lat="43.43424" lon="3.44065">
        <ele>28.913851</ele>
        <time>2023-12-30T16:35:41.000Z</time>
      </trkpt>
      <trkpt lat="43.43427" lon="3.44063">
        <ele>28.913851</ele>
        <time>2023-12-30T16:35:42.000Z</time>
      </trkpt>
      <trkpt lat="43.43429" lon="3.44062">
        <ele>28.913851</ele>
        <time>2023-12-30T16:35:43.000Z</time>
      </trkpt>
      <trkpt lat="43.43431" lon="3.44061">
        <ele>28.913851</ele>
        <time>2023-12-30T16:35:44.000Z</time>
      </trkpt>
      <trkpt lat="43.43433" lon="3.44061">
        <ele>28.913851</ele>
        <time>2023-12-30T16:35:45.000Z</time>
      </trkpt>
      <trkpt lat="43.43434" lon="3.44063">
        <ele>28.913851</ele>
        <time>2023-12-30T16:35:46.000Z</time>
      </trkpt>
      <trkpt lat="43.43435" lon="3.44064">
        <ele>28.913851</ele>
        <time>2023-12-30T16:35:47.000Z</time>
      </trkpt>
      <trkpt lat="43.43437" lon="3.44066">
        <ele>28.913851</ele>
        <time>2023-12-30T16:35:48.000Z</time>
      </trkpt>
    </trkseg>
  </trk>
</gpx>